<?xml version='1.0' encoding='UTF-8'?>
<gpx version="1.1" creator="https://www.komoot.de" xmlns="http://www.topografix.com/GPX/1/1" xmlns:xsi="http://www.w3.org/2001/XMLSchema-instance" xsi:schemaLocation="http://www.topografix.com/GPX/1/1 http://www.topografix.com/GPX/1/1/gpx.xsd">
  <metadata>
    <name>Bosch eBike Tour: Gemeinde Pfunds</name>
    <author>
      <link href="https://www.komoot.de">
        <text>komoot</text>
        <type>text/html</type>
      </link>
    </author>
  </metadata>
  <trk>
    <name>Bosch eBike Tour: Gemeinde Pfunds</name>
    <trkseg>
      <trkpt lat="46.967860" lon="10.543074">
        <ele>966.460661</ele>
        <time>2024-08-23T08:10:03.000Z</time>
      </trkpt>
      <trkpt lat="46.967863" lon="10.543079">
        <ele>966.460661</ele>
        <time>2024-08-23T08:10:06.000Z</time>
      </trkpt>
      <trkpt lat="46.967864" lon="10.543082">
        <ele>966.460661</ele>
        <time>2024-08-23T08:10:07.000Z</time>
      </trkpt>
      <trkpt lat="46.967865" lon="10.543085">
        <ele>966.460661</ele>
        <time>2024-08-23T08:10:08.000Z</time>
      </trkpt>
      <trkpt lat="46.967882" lon="10.543170">
        <ele>966.460661</ele>
        <time>2024-08-23T08:11:26.000Z</time>
      </trkpt>
      <trkpt lat="46.967885" lon="10.543180">
        <ele>966.460661</ele>
        <time>2024-08-23T08:11:27.000Z</time>
      </trkpt>
      <trkpt lat="46.967885" lon="10.543195">
        <ele>966.460661</ele>
        <time>2024-08-23T08:11:28.000Z</time>
      </trkpt>
      <trkpt lat="46.967880" lon="10.543247">
        <ele>966.460661</ele>
        <time>2024-08-23T08:11:31.000Z</time>
      </trkpt>
      <trkpt lat="46.967882" lon="10.543256">
        <ele>966.460661</ele>
        <time>2024-08-23T08:11:32.000Z</time>
      </trkpt>
      <trkpt lat="46.967885" lon="10.543270">
        <ele>966.460661</ele>
        <time>2024-08-23T08:11:33.000Z</time>
      </trkpt>
      <trkpt lat="46.967888" lon="10.543289">
        <ele>966.460661</ele>
        <time>2024-08-23T08:11:34.000Z</time>
      </trkpt>
      <trkpt lat="46.967895" lon="10.543331">
        <ele>966.460661</ele>
        <time>2024-08-23T08:11:35.000Z</time>
      </trkpt>
      <trkpt lat="46.967893" lon="10.543369">
        <ele>966.460661</ele>
        <time>2024-08-23T08:11:36.000Z</time>
      </trkpt>
      <trkpt lat="46.967895" lon="10.543408">
        <ele>966.460661</ele>
        <time>2024-08-23T08:11:37.000Z</time>
      </trkpt>
      <trkpt lat="46.967900" lon="10.543449">
        <ele>966.460661</ele>
        <time>2024-08-23T08:11:38.000Z</time>
      </trkpt>
      <trkpt lat="46.967914" lon="10.543505">
        <ele>966.460661</ele>
        <time>2024-08-23T08:11:39.000Z</time>
      </trkpt>
      <trkpt lat="46.967927" lon="10.543537">
        <ele>966.460661</ele>
        <time>2024-08-23T08:11:40.000Z</time>
      </trkpt>
      <trkpt lat="46.967939" lon="10.543579">
        <ele>966.460661</ele>
        <time>2024-08-23T08:11:41.000Z</time>
      </trkpt>
      <trkpt lat="46.967946" lon="10.543623">
        <ele>966.460661</ele>
        <time>2024-08-23T08:11:42.000Z</time>
      </trkpt>
      <trkpt lat="46.967954" lon="10.543664">
        <ele>966.460661</ele>
        <time>2024-08-23T08:11:43.000Z</time>
      </trkpt>
      <trkpt lat="46.967967" lon="10.543731">
        <ele>966.460661</ele>
        <time>2024-08-23T08:11:44.000Z</time>
      </trkpt>
      <trkpt lat="46.967973" lon="10.543781">
        <ele>966.460661</ele>
        <time>2024-08-23T08:11:45.000Z</time>
      </trkpt>
      <trkpt lat="46.967980" lon="10.543833">
        <ele>966.460661</ele>
        <time>2024-08-23T08:11:46.000Z</time>
      </trkpt>
      <trkpt lat="46.967988" lon="10.543886">
        <ele>966.460661</ele>
        <time>2024-08-23T08:11:47.000Z</time>
      </trkpt>
      <trkpt lat="46.968010" lon="10.543963">
        <ele>966.460661</ele>
        <time>2024-08-23T08:11:48.000Z</time>
      </trkpt>
      <trkpt lat="46.968029" lon="10.544009">
        <ele>966.460661</ele>
        <time>2024-08-23T08:11:49.000Z</time>
      </trkpt>
      <trkpt lat="46.968050" lon="10.544054">
        <ele>966.460661</ele>
        <time>2024-08-23T08:11:50.000Z</time>
      </trkpt>
      <trkpt lat="46.968071" lon="10.544100">
        <ele>966.460661</ele>
        <time>2024-08-23T08:11:51.000Z</time>
      </trkpt>
      <trkpt lat="46.968093" lon="10.544148">
        <ele>966.460661</ele>
        <time>2024-08-23T08:11:52.000Z</time>
      </trkpt>
      <trkpt lat="46.968128" lon="10.544226">
        <ele>966.460661</ele>
        <time>2024-08-23T08:11:53.000Z</time>
      </trkpt>
      <trkpt lat="46.968153" lon="10.544276">
        <ele>966.460661</ele>
        <time>2024-08-23T08:11:54.000Z</time>
      </trkpt>
      <trkpt lat="46.968178" lon="10.544327">
        <ele>966.473204</ele>
        <time>2024-08-23T08:11:55.000Z</time>
      </trkpt>
      <trkpt lat="46.968202" lon="10.544381">
        <ele>966.489623</ele>
        <time>2024-08-23T08:11:56.000Z</time>
      </trkpt>
      <trkpt lat="46.968236" lon="10.544468">
        <ele>966.515166</ele>
        <time>2024-08-23T08:11:57.000Z</time>
      </trkpt>
      <trkpt lat="46.968258" lon="10.544525">
        <ele>966.531850</ele>
        <time>2024-08-23T08:11:58.000Z</time>
      </trkpt>
      <trkpt lat="46.968280" lon="10.544578">
        <ele>966.547656</ele>
        <time>2024-08-23T08:11:59.000Z</time>
      </trkpt>
      <trkpt lat="46.968303" lon="10.544631">
        <ele>966.563658</ele>
        <time>2024-08-23T08:12:00.000Z</time>
      </trkpt>
      <trkpt lat="46.968324" lon="10.544685">
        <ele>966.579494</ele>
        <time>2024-08-23T08:12:01.000Z</time>
      </trkpt>
      <trkpt lat="46.968348" lon="10.544773">
        <ele>966.603638</ele>
        <time>2024-08-23T08:12:02.000Z</time>
      </trkpt>
      <trkpt lat="46.968364" lon="10.544834">
        <ele>966.620288</ele>
        <time>2024-08-23T08:12:03.000Z</time>
      </trkpt>
      <trkpt lat="46.968381" lon="10.544896">
        <ele>966.637312</ele>
        <time>2024-08-23T08:12:04.000Z</time>
      </trkpt>
      <trkpt lat="46.968397" lon="10.544955">
        <ele>966.653488</ele>
        <time>2024-08-23T08:12:05.000Z</time>
      </trkpt>
      <trkpt lat="46.968414" lon="10.545015">
        <ele>966.670040</ele>
        <time>2024-08-23T08:12:06.000Z</time>
      </trkpt>
      <trkpt lat="46.968438" lon="10.545109">
        <ele>966.695610</ele>
        <time>2024-08-23T08:12:07.000Z</time>
      </trkpt>
      <trkpt lat="46.968450" lon="10.545168">
        <ele>966.711296</ele>
        <time>2024-08-23T08:12:08.000Z</time>
      </trkpt>
      <trkpt lat="46.968461" lon="10.545228">
        <ele>966.727124</ele>
        <time>2024-08-23T08:12:09.000Z</time>
      </trkpt>
      <trkpt lat="46.968472" lon="10.545287">
        <ele>966.742707</ele>
        <time>2024-08-23T08:12:10.000Z</time>
      </trkpt>
      <trkpt lat="46.968490" lon="10.545377">
        <ele>966.766602</ele>
        <time>2024-08-23T08:12:11.000Z</time>
      </trkpt>
      <trkpt lat="46.968501" lon="10.545433">
        <ele>966.781449</ele>
        <time>2024-08-23T08:12:12.000Z</time>
      </trkpt>
      <trkpt lat="46.968513" lon="10.545491">
        <ele>966.796890</ele>
        <time>2024-08-23T08:12:13.000Z</time>
      </trkpt>
      <trkpt lat="46.968525" lon="10.545549">
        <ele>966.812332</ele>
        <time>2024-08-23T08:12:14.000Z</time>
      </trkpt>
      <trkpt lat="46.968541" lon="10.545638">
        <ele>966.835781</ele>
        <time>2024-08-23T08:12:15.000Z</time>
      </trkpt>
      <trkpt lat="46.968552" lon="10.545695">
        <ele>966.850872</ele>
        <time>2024-08-23T08:12:16.000Z</time>
      </trkpt>
      <trkpt lat="46.968563" lon="10.545754">
        <ele>966.866455</ele>
        <time>2024-08-23T08:12:17.000Z</time>
      </trkpt>
      <trkpt lat="46.968574" lon="10.545816">
        <ele>966.882777</ele>
        <time>2024-08-23T08:12:18.000Z</time>
      </trkpt>
      <trkpt lat="46.968586" lon="10.545876">
        <ele>966.898706</ele>
        <time>2024-08-23T08:12:19.000Z</time>
      </trkpt>
      <trkpt lat="46.968601" lon="10.545965">
        <ele>966.922063</ele>
        <time>2024-08-23T08:12:20.000Z</time>
      </trkpt>
      <trkpt lat="46.968610" lon="10.546026">
        <ele>966.937964</ele>
        <time>2024-08-23T08:12:21.000Z</time>
      </trkpt>
      <trkpt lat="46.968621" lon="10.546086">
        <ele>966.953792</ele>
        <time>2024-08-23T08:12:22.000Z</time>
      </trkpt>
      <trkpt lat="46.968632" lon="10.546147">
        <ele>966.969867</ele>
        <time>2024-08-23T08:12:23.000Z</time>
      </trkpt>
      <trkpt lat="46.968648" lon="10.546235">
        <ele>966.993070</ele>
        <time>2024-08-23T08:12:24.000Z</time>
      </trkpt>
      <trkpt lat="46.968659" lon="10.546290">
        <ele>967.007672</ele>
        <time>2024-08-23T08:12:25.000Z</time>
      </trkpt>
      <trkpt lat="46.968669" lon="10.546344">
        <ele>967.021928</ele>
        <time>2024-08-23T08:12:26.000Z</time>
      </trkpt>
      <trkpt lat="46.968678" lon="10.546392">
        <ele>967.034610</ele>
        <time>2024-08-23T08:12:27.000Z</time>
      </trkpt>
      <trkpt lat="46.968682" lon="10.546429">
        <ele>967.044155</ele>
        <time>2024-08-23T08:12:28.000Z</time>
      </trkpt>
      <trkpt lat="46.968685" lon="10.546472">
        <ele>967.055167</ele>
        <time>2024-08-23T08:12:29.000Z</time>
      </trkpt>
      <trkpt lat="46.968689" lon="10.546502">
        <ele>967.062955</ele>
        <time>2024-08-23T08:12:30.000Z</time>
      </trkpt>
      <trkpt lat="46.968695" lon="10.546536">
        <ele>967.071902</ele>
        <time>2024-08-23T08:12:31.000Z</time>
      </trkpt>
      <trkpt lat="46.968701" lon="10.546576">
        <ele>967.082337</ele>
        <time>2024-08-23T08:12:32.000Z</time>
      </trkpt>
      <trkpt lat="46.968709" lon="10.546646">
        <ele>967.100420</ele>
        <time>2024-08-23T08:12:33.000Z</time>
      </trkpt>
      <trkpt lat="46.968716" lon="10.546696">
        <ele>967.113424</ele>
        <time>2024-08-23T08:12:34.000Z</time>
      </trkpt>
      <trkpt lat="46.968719" lon="10.546753">
        <ele>967.127989</ele>
        <time>2024-08-23T08:12:35.000Z</time>
      </trkpt>
      <trkpt lat="46.968724" lon="10.546815">
        <ele>967.070346</ele>
        <time>2024-08-23T08:12:36.000Z</time>
      </trkpt>
      <trkpt lat="46.968734" lon="10.546910">
        <ele>966.940887</ele>
        <time>2024-08-23T08:12:37.000Z</time>
      </trkpt>
      <trkpt lat="46.968738" lon="10.546978">
        <ele>966.848966</ele>
        <time>2024-08-23T08:12:38.000Z</time>
      </trkpt>
      <trkpt lat="46.968741" lon="10.547046">
        <ele>966.757192</ele>
        <time>2024-08-23T08:12:39.000Z</time>
      </trkpt>
      <trkpt lat="46.968745" lon="10.547118">
        <ele>966.659902</ele>
        <time>2024-08-23T08:12:40.000Z</time>
      </trkpt>
      <trkpt lat="46.968752" lon="10.547190">
        <ele>966.561954</ele>
        <time>2024-08-23T08:12:41.000Z</time>
      </trkpt>
      <trkpt lat="46.968760" lon="10.547301">
        <ele>966.411628</ele>
        <time>2024-08-23T08:12:42.000Z</time>
      </trkpt>
      <trkpt lat="46.968767" lon="10.547379">
        <ele>966.305673</ele>
        <time>2024-08-23T08:12:43.000Z</time>
      </trkpt>
      <trkpt lat="46.968773" lon="10.547457">
        <ele>966.199958</ele>
        <time>2024-08-23T08:12:44.000Z</time>
      </trkpt>
      <trkpt lat="46.968778" lon="10.547537">
        <ele>966.091763</ele>
        <time>2024-08-23T08:12:45.000Z</time>
      </trkpt>
      <trkpt lat="46.968784" lon="10.547620">
        <ele>965.979354</ele>
        <time>2024-08-23T08:12:46.000Z</time>
      </trkpt>
      <trkpt lat="46.968792" lon="10.547746">
        <ele>965.808925</ele>
        <time>2024-08-23T08:12:47.000Z</time>
      </trkpt>
      <trkpt lat="46.968794" lon="10.547832">
        <ele>965.693033</ele>
        <time>2024-08-23T08:12:48.000Z</time>
      </trkpt>
      <trkpt lat="46.968796" lon="10.547920">
        <ele>965.574449</ele>
        <time>2024-08-23T08:12:49.000Z</time>
      </trkpt>
      <trkpt lat="46.968799" lon="10.548008">
        <ele>965.455783</ele>
        <time>2024-08-23T08:12:50.000Z</time>
      </trkpt>
      <trkpt lat="46.968803" lon="10.548135">
        <ele>965.284558</ele>
        <time>2024-08-23T08:12:51.000Z</time>
      </trkpt>
      <trkpt lat="46.968804" lon="10.548221">
        <ele>965.168717</ele>
        <time>2024-08-23T08:12:52.000Z</time>
      </trkpt>
      <trkpt lat="46.968804" lon="10.548309">
        <ele>965.050199</ele>
        <time>2024-08-23T08:12:53.000Z</time>
      </trkpt>
      <trkpt lat="46.968806" lon="10.548399">
        <ele>964.928924</ele>
        <time>2024-08-23T08:12:54.000Z</time>
      </trkpt>
      <trkpt lat="46.968807" lon="10.548489">
        <ele>964.807696</ele>
        <time>2024-08-23T08:12:55.000Z</time>
      </trkpt>
      <trkpt lat="46.968807" lon="10.548624">
        <ele>964.625879</ele>
        <time>2024-08-23T08:12:56.000Z</time>
      </trkpt>
      <trkpt lat="46.968808" lon="10.548716">
        <ele>964.501958</ele>
        <time>2024-08-23T08:12:57.000Z</time>
      </trkpt>
      <trkpt lat="46.968807" lon="10.548809">
        <ele>964.376690</ele>
        <time>2024-08-23T08:12:58.000Z</time>
      </trkpt>
      <trkpt lat="46.968809" lon="10.548901">
        <ele>964.252722</ele>
        <time>2024-08-23T08:12:59.000Z</time>
      </trkpt>
      <trkpt lat="46.968815" lon="10.549043">
        <ele>964.061111</ele>
        <time>2024-08-23T08:13:00.000Z</time>
      </trkpt>
      <trkpt lat="46.968819" lon="10.549141">
        <ele>963.928890</ele>
        <time>2024-08-23T08:13:01.000Z</time>
      </trkpt>
      <trkpt lat="46.968825" lon="10.549240">
        <ele>963.795032</ele>
        <time>2024-08-23T08:13:02.000Z</time>
      </trkpt>
      <trkpt lat="46.968833" lon="10.549338">
        <ele>963.662105</ele>
        <time>2024-08-23T08:13:03.000Z</time>
      </trkpt>
      <trkpt lat="46.968847" lon="10.549485">
        <ele>963.511385</ele>
        <time>2024-08-23T08:13:04.000Z</time>
      </trkpt>
      <trkpt lat="46.968856" lon="10.549583">
        <ele>963.432722</ele>
        <time>2024-08-23T08:13:05.000Z</time>
      </trkpt>
      <trkpt lat="46.968867" lon="10.549683">
        <ele>963.352145</ele>
        <time>2024-08-23T08:13:06.000Z</time>
      </trkpt>
      <trkpt lat="46.968878" lon="10.549782">
        <ele>963.272352</ele>
        <time>2024-08-23T08:13:07.000Z</time>
      </trkpt>
      <trkpt lat="46.968888" lon="10.549881">
        <ele>963.192739</ele>
        <time>2024-08-23T08:13:08.000Z</time>
      </trkpt>
      <trkpt lat="46.968906" lon="10.550031">
        <ele>963.071582</ele>
        <time>2024-08-23T08:13:09.000Z</time>
      </trkpt>
      <trkpt lat="46.968921" lon="10.550134">
        <ele>962.987800</ele>
        <time>2024-08-23T08:13:10.000Z</time>
      </trkpt>
      <trkpt lat="46.968938" lon="10.550232">
        <ele>962.907360</ele>
        <time>2024-08-23T08:13:11.000Z</time>
      </trkpt>
      <trkpt lat="46.968954" lon="10.550328">
        <ele>962.828747</ele>
        <time>2024-08-23T08:13:12.000Z</time>
      </trkpt>
      <trkpt lat="46.968979" lon="10.550472">
        <ele>962.710545</ele>
        <time>2024-08-23T08:13:13.000Z</time>
      </trkpt>
      <trkpt lat="46.968998" lon="10.550569">
        <ele>962.630265</ele>
        <time>2024-08-23T08:13:14.000Z</time>
      </trkpt>
      <trkpt lat="46.969017" lon="10.550665">
        <ele>962.550749</ele>
        <time>2024-08-23T08:13:15.000Z</time>
      </trkpt>
      <trkpt lat="46.969038" lon="10.550758">
        <ele>962.472822</ele>
        <time>2024-08-23T08:13:16.000Z</time>
      </trkpt>
      <trkpt lat="46.969061" lon="10.550849">
        <ele>962.395625</ele>
        <time>2024-08-23T08:13:17.000Z</time>
      </trkpt>
      <trkpt lat="46.969096" lon="10.550987">
        <ele>962.278509</ele>
        <time>2024-08-23T08:13:18.000Z</time>
      </trkpt>
      <trkpt lat="46.969121" lon="10.551079">
        <ele>962.199733</ele>
        <time>2024-08-23T08:13:19.000Z</time>
      </trkpt>
      <trkpt lat="46.969145" lon="10.551171">
        <ele>962.121381</ele>
        <time>2024-08-23T08:13:20.000Z</time>
      </trkpt>
      <trkpt lat="46.969172" lon="10.551259">
        <ele>962.044626</ele>
        <time>2024-08-23T08:13:21.000Z</time>
      </trkpt>
      <trkpt lat="46.969199" lon="10.551346">
        <ele>961.968596</ele>
        <time>2024-08-23T08:13:22.000Z</time>
      </trkpt>
      <trkpt lat="46.969244" lon="10.551476">
        <ele>961.852636</ele>
        <time>2024-08-23T08:13:23.000Z</time>
      </trkpt>
      <trkpt lat="46.969276" lon="10.551559">
        <ele>961.776800</ele>
        <time>2024-08-23T08:13:24.000Z</time>
      </trkpt>
      <trkpt lat="46.969310" lon="10.551642">
        <ele>961.699790</ele>
        <time>2024-08-23T08:13:25.000Z</time>
      </trkpt>
      <trkpt lat="46.969344" lon="10.551725">
        <ele>961.622781</ele>
        <time>2024-08-23T08:13:26.000Z</time>
      </trkpt>
      <trkpt lat="46.969396" lon="10.551841">
        <ele>961.512373</ele>
        <time>2024-08-23T08:13:27.000Z</time>
      </trkpt>
      <trkpt lat="46.969429" lon="10.551912">
        <ele>961.719009</ele>
        <time>2024-08-23T08:13:28.000Z</time>
      </trkpt>
      <trkpt lat="46.969464" lon="10.551977">
        <ele>962.089236</ele>
        <time>2024-08-23T08:13:29.000Z</time>
      </trkpt>
      <trkpt lat="46.969498" lon="10.552037">
        <ele>962.437962</ele>
        <time>2024-08-23T08:13:30.000Z</time>
      </trkpt>
      <trkpt lat="46.969532" lon="10.552096">
        <ele>962.783260</ele>
        <time>2024-08-23T08:13:31.000Z</time>
      </trkpt>
      <trkpt lat="46.969581" lon="10.552178">
        <ele>963.270624</ele>
        <time>2024-08-23T08:13:32.000Z</time>
      </trkpt>
      <trkpt lat="46.969615" lon="10.552229">
        <ele>963.589428</ele>
        <time>2024-08-23T08:13:33.000Z</time>
      </trkpt>
      <trkpt lat="46.969650" lon="10.552279">
        <ele>963.909708</ele>
        <time>2024-08-23T08:13:34.000Z</time>
      </trkpt>
      <trkpt lat="46.969684" lon="10.552330">
        <ele>964.228512</ele>
        <time>2024-08-23T08:13:35.000Z</time>
      </trkpt>
      <trkpt lat="46.969737" lon="10.552404">
        <ele>964.708188</ele>
        <time>2024-08-23T08:13:36.000Z</time>
      </trkpt>
      <trkpt lat="46.969771" lon="10.552454">
        <ele>965.023809</ele>
        <time>2024-08-23T08:13:37.000Z</time>
      </trkpt>
      <trkpt lat="46.969806" lon="10.552499">
        <ele>965.328903</ele>
        <time>2024-08-23T08:13:38.000Z</time>
      </trkpt>
      <trkpt lat="46.969837" lon="10.552544">
        <ele>965.614818</ele>
        <time>2024-08-23T08:13:39.000Z</time>
      </trkpt>
      <trkpt lat="46.969867" lon="10.552586">
        <ele>965.886682</ele>
        <time>2024-08-23T08:13:40.000Z</time>
      </trkpt>
      <trkpt lat="46.969908" lon="10.552652">
        <ele>966.285762</ele>
        <time>2024-08-23T08:13:41.000Z</time>
      </trkpt>
      <trkpt lat="46.969936" lon="10.552696">
        <ele>966.554775</ele>
        <time>2024-08-23T08:13:42.000Z</time>
      </trkpt>
      <trkpt lat="46.969963" lon="10.552734">
        <ele>966.800071</ele>
        <time>2024-08-23T08:13:43.000Z</time>
      </trkpt>
      <trkpt lat="46.969987" lon="10.552773">
        <ele>967.034891</ele>
        <time>2024-08-23T08:13:44.000Z</time>
      </trkpt>
      <trkpt lat="46.970020" lon="10.552835">
        <ele>967.386473</ele>
        <time>2024-08-23T08:13:45.000Z</time>
      </trkpt>
      <trkpt lat="46.970041" lon="10.552872">
        <ele>967.601658</ele>
        <time>2024-08-23T08:13:46.000Z</time>
      </trkpt>
      <trkpt lat="46.970062" lon="10.552911">
        <ele>967.823793</ele>
        <time>2024-08-23T08:13:47.000Z</time>
      </trkpt>
      <trkpt lat="46.970084" lon="10.552949">
        <ele>968.046617</ele>
        <time>2024-08-23T08:13:48.000Z</time>
      </trkpt>
      <trkpt lat="46.970105" lon="10.552988">
        <ele>968.268752</ele>
        <time>2024-08-23T08:13:49.000Z</time>
      </trkpt>
      <trkpt lat="46.970132" lon="10.553051">
        <ele>968.601396</ele>
        <time>2024-08-23T08:13:50.000Z</time>
      </trkpt>
      <trkpt lat="46.970149" lon="10.553097">
        <ele>968.835304</ele>
        <time>2024-08-23T08:13:51.000Z</time>
      </trkpt>
      <trkpt lat="46.970164" lon="10.553141">
        <ele>969.055228</ele>
        <time>2024-08-23T08:13:52.000Z</time>
      </trkpt>
      <trkpt lat="46.970178" lon="10.553181">
        <ele>969.256235</ele>
        <time>2024-08-23T08:13:53.000Z</time>
      </trkpt>
      <trkpt lat="46.970199" lon="10.553243">
        <ele>969.565729</ele>
        <time>2024-08-23T08:13:54.000Z</time>
      </trkpt>
      <trkpt lat="46.970210" lon="10.553286">
        <ele>969.771063</ele>
        <time>2024-08-23T08:13:55.000Z</time>
      </trkpt>
      <trkpt lat="46.970221" lon="10.553331">
        <ele>969.984793</ele>
        <time>2024-08-23T08:13:56.000Z</time>
      </trkpt>
      <trkpt lat="46.970230" lon="10.553377">
        <ele>970.198761</ele>
        <time>2024-08-23T08:13:57.000Z</time>
      </trkpt>
      <trkpt lat="46.970240" lon="10.553422">
        <ele>970.410371</ele>
        <time>2024-08-23T08:13:58.000Z</time>
      </trkpt>
      <trkpt lat="46.970253" lon="10.553487">
        <ele>970.713233</ele>
        <time>2024-08-23T08:13:59.000Z</time>
      </trkpt>
      <trkpt lat="46.970261" lon="10.553530">
        <ele>970.912517</ele>
        <time>2024-08-23T08:14:00.000Z</time>
      </trkpt>
      <trkpt lat="46.970270" lon="10.553572">
        <ele>971.109355</ele>
        <time>2024-08-23T08:14:01.000Z</time>
      </trkpt>
      <trkpt lat="46.970279" lon="10.553615">
        <ele>971.310462</ele>
        <time>2024-08-23T08:14:02.000Z</time>
      </trkpt>
      <trkpt lat="46.970291" lon="10.553680">
        <ele>971.611546</ele>
        <time>2024-08-23T08:14:03.000Z</time>
      </trkpt>
      <trkpt lat="46.970299" lon="10.553723">
        <ele>971.810831</ele>
        <time>2024-08-23T08:14:04.000Z</time>
      </trkpt>
      <trkpt lat="46.970306" lon="10.553766">
        <ele>972.008493</ele>
        <time>2024-08-23T08:14:05.000Z</time>
      </trkpt>
      <trkpt lat="46.970313" lon="10.553811">
        <ele>972.214864</ele>
        <time>2024-08-23T08:14:06.000Z</time>
      </trkpt>
      <trkpt lat="46.970321" lon="10.553875">
        <ele>972.505790</ele>
        <time>2024-08-23T08:14:07.000Z</time>
      </trkpt>
      <trkpt lat="46.970330" lon="10.553916">
        <ele>972.698365</ele>
        <time>2024-08-23T08:14:08.000Z</time>
      </trkpt>
      <trkpt lat="46.970339" lon="10.553954">
        <ele>972.878218</ele>
        <time>2024-08-23T08:14:09.000Z</time>
      </trkpt>
      <trkpt lat="46.970349" lon="10.553995">
        <ele>973.072901</ele>
        <time>2024-08-23T08:14:10.000Z</time>
      </trkpt>
      <trkpt lat="46.970360" lon="10.554038">
        <ele>973.278869</ele>
        <time>2024-08-23T08:14:11.000Z</time>
      </trkpt>
      <trkpt lat="46.970380" lon="10.554102">
        <ele>973.622361</ele>
        <time>2024-08-23T08:14:12.000Z</time>
      </trkpt>
      <trkpt lat="46.970395" lon="10.554142">
        <ele>973.845081</ele>
        <time>2024-08-23T08:14:13.000Z</time>
      </trkpt>
      <trkpt lat="46.970408" lon="10.554184">
        <ele>974.070126</ele>
        <time>2024-08-23T08:14:14.000Z</time>
      </trkpt>
      <trkpt lat="46.970418" lon="10.554226">
        <ele>974.287190</ele>
        <time>2024-08-23T08:14:15.000Z</time>
      </trkpt>
      <trkpt lat="46.970442" lon="10.554281">
        <ele>974.605756</ele>
        <time>2024-08-23T08:14:16.000Z</time>
      </trkpt>
      <trkpt lat="46.970449" lon="10.554320">
        <ele>974.802537</ele>
        <time>2024-08-23T08:14:17.000Z</time>
      </trkpt>
      <trkpt lat="46.970457" lon="10.554358">
        <ele>974.996590</ele>
        <time>2024-08-23T08:14:18.000Z</time>
      </trkpt>
      <trkpt lat="46.970464" lon="10.554393">
        <ele>975.174563</ele>
        <time>2024-08-23T08:14:19.000Z</time>
      </trkpt>
      <trkpt lat="46.970476" lon="10.554425">
        <ele>975.352739</ele>
        <time>2024-08-23T08:14:20.000Z</time>
      </trkpt>
      <trkpt lat="46.970492" lon="10.554476">
        <ele>975.626645</ele>
        <time>2024-08-23T08:14:21.000Z</time>
      </trkpt>
      <trkpt lat="46.970507" lon="10.554508">
        <ele>975.816088</ele>
        <time>2024-08-23T08:14:22.000Z</time>
      </trkpt>
      <trkpt lat="46.970516" lon="10.554538">
        <ele>975.976001</ele>
        <time>2024-08-23T08:14:23.000Z</time>
      </trkpt>
      <trkpt lat="46.970530" lon="10.554568">
        <ele>976.153351</ele>
        <time>2024-08-23T08:14:24.000Z</time>
      </trkpt>
      <trkpt lat="46.970547" lon="10.554603">
        <ele>976.362987</ele>
        <time>2024-08-23T08:14:25.000Z</time>
      </trkpt>
      <trkpt lat="46.970560" lon="10.554628">
        <ele>976.516363</ele>
        <time>2024-08-23T08:14:26.000Z</time>
      </trkpt>
      <trkpt lat="46.970569" lon="10.554656">
        <ele>976.667394</ele>
        <time>2024-08-23T08:14:27.000Z</time>
      </trkpt>
      <trkpt lat="46.970581" lon="10.554686">
        <ele>976.837081</ele>
        <time>2024-08-23T08:14:28.000Z</time>
      </trkpt>
      <trkpt lat="46.970593" lon="10.554709">
        <ele>976.978360</ele>
        <time>2024-08-23T08:14:29.000Z</time>
      </trkpt>
      <trkpt lat="46.970614" lon="10.554739">
        <ele>977.188078</ele>
        <time>2024-08-23T08:14:30.000Z</time>
      </trkpt>
      <trkpt lat="46.970644" lon="10.554759">
        <ele>977.423764</ele>
        <time>2024-08-23T08:14:31.000Z</time>
      </trkpt>
      <trkpt lat="46.970669" lon="10.554779">
        <ele>977.627444</ele>
        <time>2024-08-23T08:14:32.000Z</time>
      </trkpt>
      <trkpt lat="46.970675" lon="10.554783">
        <ele>977.674581</ele>
        <time>2024-08-23T08:14:33.000Z</time>
      </trkpt>
      <trkpt lat="46.970688" lon="10.554792">
        <ele>977.777396</ele>
        <time>2024-08-23T08:14:34.000Z</time>
      </trkpt>
      <trkpt lat="46.970710" lon="10.554813">
        <ele>977.965148</ele>
        <time>2024-08-23T08:14:35.000Z</time>
      </trkpt>
      <trkpt lat="46.970724" lon="10.554830">
        <ele>978.095165</ele>
        <time>2024-08-23T08:14:36.000Z</time>
      </trkpt>
      <trkpt lat="46.970744" lon="10.554849">
        <ele>978.265607</ele>
        <time>2024-08-23T08:14:37.000Z</time>
      </trkpt>
      <trkpt lat="46.970769" lon="10.554870">
        <ele>978.471669</ele>
        <time>2024-08-23T08:14:38.000Z</time>
      </trkpt>
      <trkpt lat="46.970796" lon="10.554885">
        <ele>978.678155</ele>
        <time>2024-08-23T08:14:39.000Z</time>
      </trkpt>
      <trkpt lat="46.970813" lon="10.554898">
        <ele>978.815278</ele>
        <time>2024-08-23T08:14:40.000Z</time>
      </trkpt>
      <trkpt lat="46.970839" lon="10.554917">
        <ele>979.023039</ele>
        <time>2024-08-23T08:14:41.000Z</time>
      </trkpt>
      <trkpt lat="46.970858" lon="10.554942">
        <ele>979.205638</ele>
        <time>2024-08-23T08:14:42.000Z</time>
      </trkpt>
      <trkpt lat="46.970897" lon="10.554989">
        <ele>979.566717</ele>
        <time>2024-08-23T08:14:43.000Z</time>
      </trkpt>
      <trkpt lat="46.970922" lon="10.555024">
        <ele>979.813960</ele>
        <time>2024-08-23T08:14:44.000Z</time>
      </trkpt>
      <trkpt lat="46.970943" lon="10.555069">
        <ele>980.079983</ele>
        <time>2024-08-23T08:14:45.000Z</time>
      </trkpt>
      <trkpt lat="46.970966" lon="10.555105">
        <ele>980.320629</ele>
        <time>2024-08-23T08:14:46.000Z</time>
      </trkpt>
      <trkpt lat="46.970983" lon="10.555135">
        <ele>980.510914</ele>
        <time>2024-08-23T08:14:47.000Z</time>
      </trkpt>
      <trkpt lat="46.971013" lon="10.555180">
        <ele>980.817901</ele>
        <time>2024-08-23T08:14:48.000Z</time>
      </trkpt>
      <trkpt lat="46.971034" lon="10.555203">
        <ele>981.005377</ele>
        <time>2024-08-23T08:14:49.000Z</time>
      </trkpt>
      <trkpt lat="46.971050" lon="10.555232">
        <ele>981.187355</ele>
        <time>2024-08-23T08:14:50.000Z</time>
      </trkpt>
      <trkpt lat="46.971078" lon="10.555259">
        <ele>981.427041</ele>
        <time>2024-08-23T08:14:51.000Z</time>
      </trkpt>
      <trkpt lat="46.971111" lon="10.555312">
        <ele>981.777145</ele>
        <time>2024-08-23T08:14:52.000Z</time>
      </trkpt>
      <trkpt lat="46.971128" lon="10.555343">
        <ele>981.971209</ele>
        <time>2024-08-23T08:14:53.000Z</time>
      </trkpt>
      <trkpt lat="46.971166" lon="10.555382">
        <ele>982.302959</ele>
        <time>2024-08-23T08:14:54.000Z</time>
      </trkpt>
      <trkpt lat="46.971199" lon="10.555413">
        <ele>982.583264</ele>
        <time>2024-08-23T08:14:55.000Z</time>
      </trkpt>
      <trkpt lat="46.971214" lon="10.555442">
        <ele>982.760832</ele>
        <time>2024-08-23T08:14:56.000Z</time>
      </trkpt>
      <trkpt lat="46.971256" lon="10.555489">
        <ele>983.138726</ele>
        <time>2024-08-23T08:14:57.000Z</time>
      </trkpt>
      <trkpt lat="46.971276" lon="10.555519">
        <ele>983.343383</ele>
        <time>2024-08-23T08:14:58.000Z</time>
      </trkpt>
      <trkpt lat="46.971304" lon="10.555544">
        <ele>983.577846</ele>
        <time>2024-08-23T08:14:59.000Z</time>
      </trkpt>
      <trkpt lat="46.971345" lon="10.555577">
        <ele>983.912348</ele>
        <time>2024-08-23T08:15:00.000Z</time>
      </trkpt>
      <trkpt lat="46.971390" lon="10.555607">
        <ele>984.265876</ele>
        <time>2024-08-23T08:15:01.000Z</time>
      </trkpt>
      <trkpt lat="46.971428" lon="10.555644">
        <ele>984.592126</ele>
        <time>2024-08-23T08:15:02.000Z</time>
      </trkpt>
      <trkpt lat="46.971454" lon="10.555667">
        <ele>984.809300</ele>
        <time>2024-08-23T08:15:03.000Z</time>
      </trkpt>
      <trkpt lat="46.971489" lon="10.555686">
        <ele>985.076205</ele>
        <time>2024-08-23T08:15:04.000Z</time>
      </trkpt>
      <trkpt lat="46.971512" lon="10.555702">
        <ele>985.258268</ele>
        <time>2024-08-23T08:15:05.000Z</time>
      </trkpt>
      <trkpt lat="46.971563" lon="10.555742">
        <ele>985.671916</ele>
        <time>2024-08-23T08:15:06.000Z</time>
      </trkpt>
      <trkpt lat="46.971610" lon="10.555781">
        <ele>986.058151</ele>
        <time>2024-08-23T08:15:07.000Z</time>
      </trkpt>
      <trkpt lat="46.971653" lon="10.555811">
        <ele>986.455014</ele>
        <time>2024-08-23T08:15:08.000Z</time>
      </trkpt>
      <trkpt lat="46.971688" lon="10.555835">
        <ele>986.789987</ele>
        <time>2024-08-23T08:15:09.000Z</time>
      </trkpt>
      <trkpt lat="46.971736" lon="10.555862">
        <ele>987.235680</ele>
        <time>2024-08-23T08:15:10.000Z</time>
      </trkpt>
      <trkpt lat="46.971773" lon="10.555882">
        <ele>987.577543</ele>
        <time>2024-08-23T08:15:11.000Z</time>
      </trkpt>
      <trkpt lat="46.971812" lon="10.555902">
        <ele>987.935721</ele>
        <time>2024-08-23T08:15:12.000Z</time>
      </trkpt>
      <trkpt lat="46.971837" lon="10.555921">
        <ele>988.179846</ele>
        <time>2024-08-23T08:15:13.000Z</time>
      </trkpt>
      <trkpt lat="46.971863" lon="10.555934">
        <ele>988.417988</ele>
        <time>2024-08-23T08:15:14.000Z</time>
      </trkpt>
      <trkpt lat="46.971905" lon="10.555952">
        <ele>988.797320</ele>
        <time>2024-08-23T08:15:15.000Z</time>
      </trkpt>
      <trkpt lat="46.971930" lon="10.555970">
        <ele>989.038779</ele>
        <time>2024-08-23T08:15:16.000Z</time>
      </trkpt>
      <trkpt lat="46.971954" lon="10.555989">
        <ele>989.275241</ele>
        <time>2024-08-23T08:15:17.000Z</time>
      </trkpt>
      <trkpt lat="46.971977" lon="10.556004">
        <ele>989.493472</ele>
        <time>2024-08-23T08:15:18.000Z</time>
      </trkpt>
      <trkpt lat="46.972023" lon="10.556026">
        <ele>989.912927</ele>
        <time>2024-08-23T08:15:19.000Z</time>
      </trkpt>
      <trkpt lat="46.972056" lon="10.556038">
        <ele>990.207667</ele>
        <time>2024-08-23T08:15:20.000Z</time>
      </trkpt>
      <trkpt lat="46.972088" lon="10.556051">
        <ele>990.495525</ele>
        <time>2024-08-23T08:15:21.000Z</time>
      </trkpt>
      <trkpt lat="46.972123" lon="10.556058">
        <ele>990.801740</ele>
        <time>2024-08-23T08:15:22.000Z</time>
      </trkpt>
      <trkpt lat="46.972158" lon="10.556063">
        <ele>991.106581</ele>
        <time>2024-08-23T08:15:23.000Z</time>
      </trkpt>
      <trkpt lat="46.972207" lon="10.556073">
        <ele>991.535443</ele>
        <time>2024-08-23T08:15:24.000Z</time>
      </trkpt>
      <trkpt lat="46.972238" lon="10.556090">
        <ele>991.822369</ele>
        <time>2024-08-23T08:15:25.000Z</time>
      </trkpt>
      <trkpt lat="46.972266" lon="10.556110">
        <ele>992.092387</ele>
        <time>2024-08-23T08:15:26.000Z</time>
      </trkpt>
      <trkpt lat="46.972295" lon="10.556132">
        <ele>992.375462</ele>
        <time>2024-08-23T08:15:27.000Z</time>
      </trkpt>
      <trkpt lat="46.972322" lon="10.556159">
        <ele>992.658812</ele>
        <time>2024-08-23T08:15:28.000Z</time>
      </trkpt>
      <trkpt lat="46.972365" lon="10.556191">
        <ele>993.076869</ele>
        <time>2024-08-23T08:15:29.000Z</time>
      </trkpt>
      <trkpt lat="46.972396" lon="10.556209">
        <ele>993.365921</ele>
        <time>2024-08-23T08:15:30.000Z</time>
      </trkpt>
      <trkpt lat="46.972434" lon="10.556236">
        <ele>993.732004</ele>
        <time>2024-08-23T08:15:31.000Z</time>
      </trkpt>
      <trkpt lat="46.972467" lon="10.556247">
        <ele>994.025376</ele>
        <time>2024-08-23T08:15:32.000Z</time>
      </trkpt>
      <trkpt lat="46.972518" lon="10.556255">
        <ele>994.470002</ele>
        <time>2024-08-23T08:15:33.000Z</time>
      </trkpt>
      <trkpt lat="46.972557" lon="10.556281">
        <ele>994.841416</ele>
        <time>2024-08-23T08:15:34.000Z</time>
      </trkpt>
      <trkpt lat="46.972589" lon="10.556311">
        <ele>995.170715</ele>
        <time>2024-08-23T08:15:35.000Z</time>
      </trkpt>
      <trkpt lat="46.972618" lon="10.556320">
        <ele>995.427681</ele>
        <time>2024-08-23T08:15:36.000Z</time>
      </trkpt>
      <trkpt lat="46.972676" lon="10.556342">
        <ele>995.947030</ele>
        <time>2024-08-23T08:15:37.000Z</time>
      </trkpt>
      <trkpt lat="46.972715" lon="10.556346">
        <ele>996.285934</ele>
        <time>2024-08-23T08:15:38.000Z</time>
      </trkpt>
      <trkpt lat="46.972752" lon="10.556346">
        <ele>996.606675</ele>
        <time>2024-08-23T08:15:39.000Z</time>
      </trkpt>
      <trkpt lat="46.972793" lon="10.556360">
        <ele>996.971609</ele>
        <time>2024-08-23T08:15:40.000Z</time>
      </trkpt>
      <trkpt lat="46.972828" lon="10.556361">
        <ele>997.275070</ele>
        <time>2024-08-23T08:15:41.000Z</time>
      </trkpt>
      <trkpt lat="46.972876" lon="10.556349">
        <ele>997.697176</ele>
        <time>2024-08-23T08:15:42.000Z</time>
      </trkpt>
      <trkpt lat="46.972908" lon="10.556353">
        <ele>997.975580</ele>
        <time>2024-08-23T08:15:43.000Z</time>
      </trkpt>
      <trkpt lat="46.972935" lon="10.556353">
        <ele>998.209633</ele>
        <time>2024-08-23T08:15:44.000Z</time>
      </trkpt>
      <trkpt lat="46.972963" lon="10.556359">
        <ele>998.454937</ele>
        <time>2024-08-23T08:15:45.000Z</time>
      </trkpt>
      <trkpt lat="46.972992" lon="10.556364">
        <ele>998.708061</ele>
        <time>2024-08-23T08:15:46.000Z</time>
      </trkpt>
      <trkpt lat="46.973036" lon="10.556372">
        <ele>999.092406</ele>
        <time>2024-08-23T08:15:47.000Z</time>
      </trkpt>
      <trkpt lat="46.973066" lon="10.556374">
        <ele>999.352735</ele>
        <time>2024-08-23T08:15:48.000Z</time>
      </trkpt>
      <trkpt lat="46.973097" lon="10.556375">
        <ele>999.621528</ele>
        <time>2024-08-23T08:15:49.000Z</time>
      </trkpt>
      <trkpt lat="46.973129" lon="10.556381">
        <ele>999.901186</ele>
        <time>2024-08-23T08:15:50.000Z</time>
      </trkpt>
      <trkpt lat="46.973171" lon="10.556395">
        <ele>1000.274568</ele>
        <time>2024-08-23T08:15:51.000Z</time>
      </trkpt>
      <trkpt lat="46.973201" lon="10.556400">
        <ele>1000.536304</ele>
        <time>2024-08-23T08:15:52.000Z</time>
      </trkpt>
      <trkpt lat="46.973230" lon="10.556403">
        <ele>1000.788320</ele>
        <time>2024-08-23T08:15:53.000Z</time>
      </trkpt>
      <trkpt lat="46.973260" lon="10.556416">
        <ele>1001.059510</ele>
        <time>2024-08-23T08:15:54.000Z</time>
      </trkpt>
      <trkpt lat="46.973304" lon="10.556435">
        <ele>1001.457143</ele>
        <time>2024-08-23T08:15:55.000Z</time>
      </trkpt>
      <trkpt lat="46.973333" lon="10.556443">
        <ele>1001.712949</ele>
        <time>2024-08-23T08:15:56.000Z</time>
      </trkpt>
      <trkpt lat="46.973363" lon="10.556454">
        <ele>1002.105421</ele>
        <time>2024-08-23T08:15:57.000Z</time>
      </trkpt>
      <trkpt lat="46.973394" lon="10.556475">
        <ele>1002.545443</ele>
        <time>2024-08-23T08:15:58.000Z</time>
      </trkpt>
      <trkpt lat="46.973421" lon="10.556484">
        <ele>1002.902206</ele>
        <time>2024-08-23T08:15:59.000Z</time>
      </trkpt>
      <trkpt lat="46.973467" lon="10.556506">
        <ele>1003.525650</ele>
        <time>2024-08-23T08:16:00.000Z</time>
      </trkpt>
      <trkpt lat="46.973494" lon="10.556512">
        <ele>1003.877505</ele>
        <time>2024-08-23T08:16:01.000Z</time>
      </trkpt>
      <trkpt lat="46.973524" lon="10.556522">
        <ele>1004.273909</ele>
        <time>2024-08-23T08:16:02.000Z</time>
      </trkpt>
      <trkpt lat="46.973553" lon="10.556531">
        <ele>1004.655843</ele>
        <time>2024-08-23T08:16:03.000Z</time>
      </trkpt>
      <trkpt lat="46.973589" lon="10.556541">
        <ele>1005.127939</ele>
        <time>2024-08-23T08:16:04.000Z</time>
      </trkpt>
      <trkpt lat="46.973617" lon="10.556556">
        <ele>1005.512049</ele>
        <time>2024-08-23T08:16:05.000Z</time>
      </trkpt>
      <trkpt lat="46.973645" lon="10.556570">
        <ele>1005.893231</ele>
        <time>2024-08-23T08:16:06.000Z</time>
      </trkpt>
      <trkpt lat="46.973673" lon="10.556584">
        <ele>1006.274412</ele>
        <time>2024-08-23T08:16:07.000Z</time>
      </trkpt>
      <trkpt lat="46.973697" lon="10.556593">
        <ele>1006.593600</ele>
        <time>2024-08-23T08:16:08.000Z</time>
      </trkpt>
      <trkpt lat="46.973737" lon="10.556626">
        <ele>1007.185023</ele>
        <time>2024-08-23T08:16:09.000Z</time>
      </trkpt>
      <trkpt lat="46.973763" lon="10.556644">
        <ele>1007.555514</ele>
        <time>2024-08-23T08:16:10.000Z</time>
      </trkpt>
      <trkpt lat="46.973788" lon="10.556655">
        <ele>1007.891828</ele>
        <time>2024-08-23T08:16:11.000Z</time>
      </trkpt>
      <trkpt lat="46.973816" lon="10.556665">
        <ele>1008.263148</ele>
        <time>2024-08-23T08:16:12.000Z</time>
      </trkpt>
      <trkpt lat="46.973841" lon="10.556679">
        <ele>1008.607973</ele>
        <time>2024-08-23T08:16:13.000Z</time>
      </trkpt>
      <trkpt lat="46.973878" lon="10.556701">
        <ele>1009.122436</ele>
        <time>2024-08-23T08:16:14.000Z</time>
      </trkpt>
      <trkpt lat="46.973903" lon="10.556715">
        <ele>1009.467261</ele>
        <time>2024-08-23T08:16:15.000Z</time>
      </trkpt>
      <trkpt lat="46.973925" lon="10.556730">
        <ele>1009.779891</ele>
        <time>2024-08-23T08:16:16.000Z</time>
      </trkpt>
      <trkpt lat="46.973950" lon="10.556744">
        <ele>1010.124715</ele>
        <time>2024-08-23T08:16:17.000Z</time>
      </trkpt>
      <trkpt lat="46.973987" lon="10.556768">
        <ele>1010.646044</ele>
        <time>2024-08-23T08:16:18.000Z</time>
      </trkpt>
      <trkpt lat="46.974014" lon="10.556787">
        <ele>1011.031947</ele>
        <time>2024-08-23T08:16:19.000Z</time>
      </trkpt>
      <trkpt lat="46.974041" lon="10.556803">
        <ele>1011.407188</ele>
        <time>2024-08-23T08:16:20.000Z</time>
      </trkpt>
      <trkpt lat="46.974068" lon="10.556817">
        <ele>1011.776198</ele>
        <time>2024-08-23T08:16:21.000Z</time>
      </trkpt>
      <trkpt lat="46.974094" lon="10.556830">
        <ele>1012.130152</ele>
        <time>2024-08-23T08:16:22.000Z</time>
      </trkpt>
      <trkpt lat="46.974134" lon="10.556849">
        <ele>1012.671921</ele>
        <time>2024-08-23T08:16:23.000Z</time>
      </trkpt>
      <trkpt lat="46.974159" lon="10.556869">
        <ele>1013.038895</ele>
        <time>2024-08-23T08:16:24.000Z</time>
      </trkpt>
      <trkpt lat="46.974182" lon="10.556885">
        <ele>1013.366926</ele>
        <time>2024-08-23T08:16:25.000Z</time>
      </trkpt>
      <trkpt lat="46.974208" lon="10.556900">
        <ele>1013.726942</ele>
        <time>2024-08-23T08:16:26.000Z</time>
      </trkpt>
      <trkpt lat="46.974248" lon="10.556923">
        <ele>1014.280565</ele>
        <time>2024-08-23T08:16:27.000Z</time>
      </trkpt>
      <trkpt lat="46.974275" lon="10.556948">
        <ele>1014.692056</ele>
        <time>2024-08-23T08:16:28.000Z</time>
      </trkpt>
      <trkpt lat="46.974298" lon="10.556968">
        <ele>1015.036633</ele>
        <time>2024-08-23T08:16:29.000Z</time>
      </trkpt>
      <trkpt lat="46.974321" lon="10.556992">
        <ele>1015.400413</ele>
        <time>2024-08-23T08:16:30.000Z</time>
      </trkpt>
      <trkpt lat="46.974340" lon="10.557014">
        <ele>1015.712401</ele>
        <time>2024-08-23T08:16:31.000Z</time>
      </trkpt>
      <trkpt lat="46.974370" lon="10.557056">
        <ele>1016.246951</ele>
        <time>2024-08-23T08:16:32.000Z</time>
      </trkpt>
      <trkpt lat="46.974386" lon="10.557091">
        <ele>1016.617323</ele>
        <time>2024-08-23T08:16:33.000Z</time>
      </trkpt>
      <trkpt lat="46.974399" lon="10.557123">
        <ele>1016.944735</ele>
        <time>2024-08-23T08:16:34.000Z</time>
      </trkpt>
      <trkpt lat="46.974413" lon="10.557157">
        <ele>1017.293851</ele>
        <time>2024-08-23T08:16:35.000Z</time>
      </trkpt>
      <trkpt lat="46.974425" lon="10.557204">
        <ele>1017.735025</ele>
        <time>2024-08-23T08:16:36.000Z</time>
      </trkpt>
      <trkpt lat="46.974442" lon="10.557237">
        <ele>1018.098539</ele>
        <time>2024-08-23T08:16:37.000Z</time>
      </trkpt>
      <trkpt lat="46.974453" lon="10.557276">
        <ele>1018.469540</ele>
        <time>2024-08-23T08:16:38.000Z</time>
      </trkpt>
      <trkpt lat="46.974461" lon="10.557314">
        <ele>1018.819151</ele>
        <time>2024-08-23T08:16:39.000Z</time>
      </trkpt>
      <trkpt lat="46.974478" lon="10.557349">
        <ele>1019.196846</ele>
        <time>2024-08-23T08:16:40.000Z</time>
      </trkpt>
      <trkpt lat="46.974493" lon="10.557405">
        <ele>1019.725737</ele>
        <time>2024-08-23T08:16:41.000Z</time>
      </trkpt>
      <trkpt lat="46.974504" lon="10.557443">
        <ele>1020.088629</ele>
        <time>2024-08-23T08:16:42.000Z</time>
      </trkpt>
      <trkpt lat="46.974515" lon="10.557480">
        <ele>1020.443444</ele>
        <time>2024-08-23T08:16:43.000Z</time>
      </trkpt>
      <trkpt lat="46.974530" lon="10.557510">
        <ele>1020.770416</ele>
        <time>2024-08-23T08:16:44.000Z</time>
      </trkpt>
      <trkpt lat="46.974555" lon="10.557553">
        <ele>1021.267064</ele>
        <time>2024-08-23T08:16:45.000Z</time>
      </trkpt>
      <trkpt lat="46.974568" lon="10.557584">
        <ele>1021.586953</ele>
        <time>2024-08-23T08:16:46.000Z</time>
      </trkpt>
      <trkpt lat="46.974584" lon="10.557618">
        <ele>1021.950053</ele>
        <time>2024-08-23T08:16:47.000Z</time>
      </trkpt>
      <trkpt lat="46.974599" lon="10.557647">
        <ele>1022.269976</ele>
        <time>2024-08-23T08:16:48.000Z</time>
      </trkpt>
      <trkpt lat="46.974603" lon="10.557680">
        <ele>1022.564632</ele>
        <time>2024-08-23T08:16:49.000Z</time>
      </trkpt>
      <trkpt lat="46.974627" lon="10.557728">
        <ele>1023.087786</ele>
        <time>2024-08-23T08:16:50.000Z</time>
      </trkpt>
      <trkpt lat="46.974644" lon="10.557761">
        <ele>1023.451300</ele>
        <time>2024-08-23T08:16:51.000Z</time>
      </trkpt>
      <trkpt lat="46.974655" lon="10.557792">
        <ele>1023.758480</ele>
        <time>2024-08-23T08:16:52.000Z</time>
      </trkpt>
      <trkpt lat="46.974666" lon="10.557826">
        <ele>1024.089284</ele>
        <time>2024-08-23T08:16:53.000Z</time>
      </trkpt>
      <trkpt lat="46.974694" lon="10.557873">
        <ele>1024.637807</ele>
        <time>2024-08-23T08:16:54.000Z</time>
      </trkpt>
      <trkpt lat="46.974710" lon="10.557892">
        <ele>1024.903465</ele>
        <time>2024-08-23T08:16:55.000Z</time>
      </trkpt>
      <trkpt lat="46.974721" lon="10.557922">
        <ele>1025.231622</ele>
        <time>2024-08-23T08:16:56.000Z</time>
      </trkpt>
      <trkpt lat="46.974735" lon="10.557952">
        <ele>1025.581826</ele>
        <time>2024-08-23T08:16:57.000Z</time>
      </trkpt>
      <trkpt lat="46.974744" lon="10.557990">
        <ele>1025.969403</ele>
        <time>2024-08-23T08:16:58.000Z</time>
      </trkpt>
      <trkpt lat="46.974772" lon="10.558021">
        <ele>1026.464947</ele>
        <time>2024-08-23T08:16:59.000Z</time>
      </trkpt>
      <trkpt lat="46.974786" lon="10.558040">
        <ele>1026.734394</ele>
        <time>2024-08-23T08:17:00.000Z</time>
      </trkpt>
      <trkpt lat="46.974800" lon="10.558054">
        <ele>1026.973732</ele>
        <time>2024-08-23T08:17:01.000Z</time>
      </trkpt>
      <trkpt lat="46.974813" lon="10.558069">
        <ele>1027.207379</ele>
        <time>2024-08-23T08:17:02.000Z</time>
      </trkpt>
      <trkpt lat="46.974834" lon="10.558093">
        <ele>1027.583437</ele>
        <time>2024-08-23T08:17:03.000Z</time>
      </trkpt>
      <trkpt lat="46.974854" lon="10.558102">
        <ele>1027.878881</ele>
        <time>2024-08-23T08:17:04.000Z</time>
      </trkpt>
      <trkpt lat="46.974863" lon="10.558115">
        <ele>1028.057327</ele>
        <time>2024-08-23T08:17:05.000Z</time>
      </trkpt>
      <trkpt lat="46.974869" lon="10.558131">
        <ele>1028.233242</ele>
        <time>2024-08-23T08:17:06.000Z</time>
      </trkpt>
      <trkpt lat="46.974882" lon="10.558150">
        <ele>1028.492505</ele>
        <time>2024-08-23T08:17:07.000Z</time>
      </trkpt>
      <trkpt lat="46.974903" lon="10.558185">
        <ele>1028.941585</ele>
        <time>2024-08-23T08:17:08.000Z</time>
      </trkpt>
      <trkpt lat="46.974910" lon="10.558202">
        <ele>1029.132903</ele>
        <time>2024-08-23T08:17:09.000Z</time>
      </trkpt>
      <trkpt lat="46.974916" lon="10.558214">
        <ele>1029.276249</ele>
        <time>2024-08-23T08:17:10.000Z</time>
      </trkpt>
      <trkpt lat="46.974915" lon="10.558228">
        <ele>1029.411882</ele>
        <time>2024-08-23T08:17:11.000Z</time>
      </trkpt>
      <trkpt lat="46.974913" lon="10.558237">
        <ele>1029.503083</ele>
        <time>2024-08-23T08:17:12.000Z</time>
      </trkpt>
      <trkpt lat="46.974910" lon="10.558242">
        <ele>1029.567238</ele>
        <time>2024-08-23T08:17:13.000Z</time>
      </trkpt>
      <trkpt lat="46.974917" lon="10.558269">
        <ele>1029.845540</ele>
        <time>2024-08-23T08:17:52.000Z</time>
      </trkpt>
      <trkpt lat="46.974916" lon="10.558311">
        <ele>1030.250473</ele>
        <time>2024-08-23T08:17:53.000Z</time>
      </trkpt>
      <trkpt lat="46.974916" lon="10.558338">
        <ele>1030.510628</ele>
        <time>2024-08-23T08:17:54.000Z</time>
      </trkpt>
      <trkpt lat="46.974921" lon="10.558370">
        <ele>1030.826942</ele>
        <time>2024-08-23T08:17:55.000Z</time>
      </trkpt>
      <trkpt lat="46.974920" lon="10.558395">
        <ele>1031.068240</ele>
        <time>2024-08-23T08:17:56.000Z</time>
      </trkpt>
      <trkpt lat="46.974929" lon="10.558439">
        <ele>1031.510837</ele>
        <time>2024-08-23T08:17:57.000Z</time>
      </trkpt>
      <trkpt lat="46.974937" lon="10.558465">
        <ele>1031.785651</ele>
        <time>2024-08-23T08:17:58.000Z</time>
      </trkpt>
      <trkpt lat="46.974943" lon="10.558494">
        <ele>1032.077641</ele>
        <time>2024-08-23T08:17:59.000Z</time>
      </trkpt>
      <trkpt lat="46.974945" lon="10.558524">
        <ele>1032.368079</ele>
        <time>2024-08-23T08:18:00.000Z</time>
      </trkpt>
      <trkpt lat="46.974948" lon="10.558566">
        <ele>1032.774976</ele>
        <time>2024-08-23T08:18:01.000Z</time>
      </trkpt>
      <trkpt lat="46.974945" lon="10.558592">
        <ele>1033.029053</ele>
        <time>2024-08-23T08:18:02.000Z</time>
      </trkpt>
      <trkpt lat="46.974954" lon="10.558626">
        <ele>1033.380445</ele>
        <time>2024-08-23T08:18:03.000Z</time>
      </trkpt>
      <trkpt lat="46.974957" lon="10.558661">
        <ele>1033.720334</ele>
        <time>2024-08-23T08:18:04.000Z</time>
      </trkpt>
      <trkpt lat="46.974963" lon="10.558695">
        <ele>1034.058716</ele>
        <time>2024-08-23T08:18:05.000Z</time>
      </trkpt>
      <trkpt lat="46.974977" lon="10.558744">
        <ele>1034.570572</ele>
        <time>2024-08-23T08:18:06.000Z</time>
      </trkpt>
      <trkpt lat="46.974980" lon="10.558775">
        <ele>1034.872258</ele>
        <time>2024-08-23T08:18:07.000Z</time>
      </trkpt>
      <trkpt lat="46.974985" lon="10.558803">
        <ele>1035.151135</ele>
        <time>2024-08-23T08:18:08.000Z</time>
      </trkpt>
      <trkpt lat="46.974985" lon="10.558830">
        <ele>1035.411290</ele>
        <time>2024-08-23T08:18:09.000Z</time>
      </trkpt>
      <trkpt lat="46.974984" lon="10.558855">
        <ele>1035.652588</ele>
        <time>2024-08-23T08:18:10.000Z</time>
      </trkpt>
      <trkpt lat="46.974988" lon="10.558898">
        <ele>1036.070741</ele>
        <time>2024-08-23T08:18:11.000Z</time>
      </trkpt>
      <trkpt lat="46.974991" lon="10.558926">
        <ele>1036.343838</ele>
        <time>2024-08-23T08:18:12.000Z</time>
      </trkpt>
      <trkpt lat="46.974996" lon="10.558951">
        <ele>1036.594857</ele>
        <time>2024-08-23T08:18:13.000Z</time>
      </trkpt>
      <trkpt lat="46.975002" lon="10.558978">
        <ele>1036.868462</ele>
        <time>2024-08-23T08:18:14.000Z</time>
      </trkpt>
      <trkpt lat="46.975002" lon="10.559014">
        <ele>1037.215335</ele>
        <time>2024-08-23T08:18:15.000Z</time>
      </trkpt>
      <trkpt lat="46.975009" lon="10.559029">
        <ele>1037.390437</ele>
        <time>2024-08-23T08:18:16.000Z</time>
      </trkpt>
      <trkpt lat="46.975024" lon="10.559053">
        <ele>1037.704037</ele>
        <time>2024-08-23T08:18:17.000Z</time>
      </trkpt>
      <trkpt lat="46.975035" lon="10.559080">
        <ele>1038.007039</ele>
        <time>2024-08-23T08:18:18.000Z</time>
      </trkpt>
      <trkpt lat="46.975045" lon="10.559104">
        <ele>1038.277996</ele>
        <time>2024-08-23T08:18:19.000Z</time>
      </trkpt>
      <trkpt lat="46.975060" lon="10.559143">
        <ele>1038.709364</ele>
        <time>2024-08-23T08:18:20.000Z</time>
      </trkpt>
      <trkpt lat="46.975062" lon="10.559168">
        <ele>1038.951898</ele>
        <time>2024-08-23T08:18:21.000Z</time>
      </trkpt>
      <trkpt lat="46.975074" lon="10.559192">
        <ele>1039.238590</ele>
        <time>2024-08-23T08:18:22.000Z</time>
      </trkpt>
      <trkpt lat="46.975082" lon="10.559217">
        <ele>1039.504650</ele>
        <time>2024-08-23T08:18:23.000Z</time>
      </trkpt>
      <trkpt lat="46.975094" lon="10.559240">
        <ele>1039.783627</ele>
        <time>2024-08-23T08:18:24.000Z</time>
      </trkpt>
      <trkpt lat="46.975110" lon="10.559264">
        <ele>1040.106933</ele>
        <time>2024-08-23T08:18:25.000Z</time>
      </trkpt>
      <trkpt lat="46.975118" lon="10.559290">
        <ele>1040.381747</ele>
        <time>2024-08-23T08:18:26.000Z</time>
      </trkpt>
      <trkpt lat="46.975129" lon="10.559315">
        <ele>1040.668373</ele>
        <time>2024-08-23T08:18:27.000Z</time>
      </trkpt>
      <trkpt lat="46.975135" lon="10.559334">
        <ele>1040.870101</ele>
        <time>2024-08-23T08:18:28.000Z</time>
      </trkpt>
      <trkpt lat="46.975148" lon="10.559372">
        <ele>1041.279689</ele>
        <time>2024-08-23T08:18:29.000Z</time>
      </trkpt>
      <trkpt lat="46.975157" lon="10.559399">
        <ele>1041.569229</ele>
        <time>2024-08-23T08:18:30.000Z</time>
      </trkpt>
      <trkpt lat="46.975171" lon="10.559430">
        <ele>1041.927426</ele>
        <time>2024-08-23T08:18:31.000Z</time>
      </trkpt>
      <trkpt lat="46.975177" lon="10.559456">
        <ele>1042.191885</ele>
        <time>2024-08-23T08:18:32.000Z</time>
      </trkpt>
      <trkpt lat="46.975193" lon="10.559496">
        <ele>1042.638645</ele>
        <time>2024-08-23T08:18:33.000Z</time>
      </trkpt>
      <trkpt lat="46.975205" lon="10.559523">
        <ele>1042.949122</ele>
        <time>2024-08-23T08:18:34.000Z</time>
      </trkpt>
      <trkpt lat="46.975216" lon="10.559550">
        <ele>1043.252123</ele>
        <time>2024-08-23T08:18:35.000Z</time>
      </trkpt>
      <trkpt lat="46.975228" lon="10.559573">
        <ele>1043.531101</ele>
        <time>2024-08-23T08:18:36.000Z</time>
      </trkpt>
      <trkpt lat="46.975238" lon="10.559598">
        <ele>1043.810325</ele>
        <time>2024-08-23T08:18:37.000Z</time>
      </trkpt>
      <trkpt lat="46.975262" lon="10.559638">
        <ele>1044.323558</ele>
        <time>2024-08-23T08:18:38.000Z</time>
      </trkpt>
      <trkpt lat="46.975278" lon="10.559667">
        <ele>1044.682903</ele>
        <time>2024-08-23T08:18:39.000Z</time>
      </trkpt>
      <trkpt lat="46.975287" lon="10.559690">
        <ele>1044.938373</ele>
        <time>2024-08-23T08:18:40.000Z</time>
      </trkpt>
      <trkpt lat="46.975299" lon="10.559716">
        <ele>1045.240822</ele>
        <time>2024-08-23T08:18:41.000Z</time>
      </trkpt>
      <trkpt lat="46.975310" lon="10.559754">
        <ele>1045.638553</ele>
        <time>2024-08-23T08:18:42.000Z</time>
      </trkpt>
      <trkpt lat="46.975318" lon="10.559776">
        <ele>1045.878755</ele>
        <time>2024-08-23T08:18:43.000Z</time>
      </trkpt>
      <trkpt lat="46.975327" lon="10.559797">
        <ele>1046.117700</ele>
        <time>2024-08-23T08:18:44.000Z</time>
      </trkpt>
      <trkpt lat="46.975340" lon="10.559818">
        <ele>1046.390910</ele>
        <time>2024-08-23T08:18:45.000Z</time>
      </trkpt>
      <trkpt lat="46.975350" lon="10.559838">
        <ele>1046.629819</ele>
        <time>2024-08-23T08:18:46.000Z</time>
      </trkpt>
      <trkpt lat="46.975374" lon="10.559873">
        <ele>1047.107933</ele>
        <time>2024-08-23T08:18:47.000Z</time>
      </trkpt>
      <trkpt lat="46.975388" lon="10.559899">
        <ele>1047.427064</ele>
        <time>2024-08-23T08:18:48.000Z</time>
      </trkpt>
      <trkpt lat="46.975400" lon="10.559925">
        <ele>1047.729513</ele>
        <time>2024-08-23T08:18:49.000Z</time>
      </trkpt>
      <trkpt lat="46.975412" lon="10.559948">
        <ele>1048.008490</ele>
        <time>2024-08-23T08:18:50.000Z</time>
      </trkpt>
      <trkpt lat="46.975432" lon="10.559984">
        <ele>1048.455800</ele>
        <time>2024-08-23T08:18:51.000Z</time>
      </trkpt>
      <trkpt lat="46.975441" lon="10.560011">
        <ele>1048.745338</ele>
        <time>2024-08-23T08:18:52.000Z</time>
      </trkpt>
      <trkpt lat="46.975454" lon="10.560038">
        <ele>1049.063742</ele>
        <time>2024-08-23T08:18:53.000Z</time>
      </trkpt>
      <trkpt lat="46.975467" lon="10.560066">
        <ele>1049.390066</ele>
        <time>2024-08-23T08:18:54.000Z</time>
      </trkpt>
      <trkpt lat="46.975485" lon="10.560103">
        <ele>1049.827910</ele>
        <time>2024-08-23T08:18:55.000Z</time>
      </trkpt>
      <trkpt lat="46.975500" lon="10.560127">
        <ele>1050.141509</ele>
        <time>2024-08-23T08:18:56.000Z</time>
      </trkpt>
      <trkpt lat="46.975514" lon="10.560152">
        <ele>1050.420080</ele>
        <time>2024-08-23T08:18:57.000Z</time>
      </trkpt>
      <trkpt lat="46.975528" lon="10.560173">
        <ele>1050.642194</ele>
        <time>2024-08-23T08:18:58.000Z</time>
      </trkpt>
      <trkpt lat="46.975540" lon="10.560201">
        <ele>1050.892339</ele>
        <time>2024-08-23T08:18:59.000Z</time>
      </trkpt>
      <trkpt lat="46.975560" lon="10.560229">
        <ele>1051.199004</ele>
        <time>2024-08-23T08:19:00.000Z</time>
      </trkpt>
      <trkpt lat="46.975570" lon="10.560247">
        <ele>1051.374607</ele>
        <time>2024-08-23T08:19:01.000Z</time>
      </trkpt>
      <trkpt lat="46.975583" lon="10.560268">
        <ele>1051.589119</ele>
        <time>2024-08-23T08:19:02.000Z</time>
      </trkpt>
      <trkpt lat="46.975597" lon="10.560290">
        <ele>1051.816705</ele>
        <time>2024-08-23T08:19:03.000Z</time>
      </trkpt>
      <trkpt lat="46.975608" lon="10.560307">
        <ele>1051.993948</ele>
        <time>2024-08-23T08:19:04.000Z</time>
      </trkpt>
      <trkpt lat="46.975627" lon="10.560335">
        <ele>1052.292693</ele>
        <time>2024-08-23T08:19:05.000Z</time>
      </trkpt>
      <trkpt lat="46.975644" lon="10.560354">
        <ele>1052.529735</ele>
        <time>2024-08-23T08:19:06.000Z</time>
      </trkpt>
      <trkpt lat="46.975658" lon="10.560371">
        <ele>1052.731316</ele>
        <time>2024-08-23T08:19:07.000Z</time>
      </trkpt>
      <trkpt lat="46.975672" lon="10.560389">
        <ele>1052.937807</ele>
        <time>2024-08-23T08:19:08.000Z</time>
      </trkpt>
      <trkpt lat="46.975690" lon="10.560413">
        <ele>1053.207614</ele>
        <time>2024-08-23T08:19:09.000Z</time>
      </trkpt>
      <trkpt lat="46.975703" lon="10.560431">
        <ele>1053.405904</ele>
        <time>2024-08-23T08:19:10.000Z</time>
      </trkpt>
      <trkpt lat="46.975716" lon="10.560447">
        <ele>1053.594126</ele>
        <time>2024-08-23T08:19:11.000Z</time>
      </trkpt>
      <trkpt lat="46.975731" lon="10.560461">
        <ele>1053.791300</ele>
        <time>2024-08-23T08:19:12.000Z</time>
      </trkpt>
      <trkpt lat="46.975745" lon="10.560467">
        <ele>1053.953026</ele>
        <time>2024-08-23T08:19:13.000Z</time>
      </trkpt>
      <trkpt lat="46.975772" lon="10.560490">
        <ele>1054.299284</ele>
        <time>2024-08-23T08:19:14.000Z</time>
      </trkpt>
      <trkpt lat="46.975791" lon="10.560507">
        <ele>1054.546103</ele>
        <time>2024-08-23T08:19:15.000Z</time>
      </trkpt>
      <trkpt lat="46.975810" lon="10.560531">
        <ele>1054.824212</ele>
        <time>2024-08-23T08:19:16.000Z</time>
      </trkpt>
      <trkpt lat="46.975830" lon="10.560547">
        <ele>1055.076848</ele>
        <time>2024-08-23T08:19:17.000Z</time>
      </trkpt>
      <trkpt lat="46.975853" lon="10.560568">
        <ele>1055.377300</ele>
        <time>2024-08-23T08:19:18.000Z</time>
      </trkpt>
      <trkpt lat="46.975867" lon="10.560585">
        <ele>1055.578881</ele>
        <time>2024-08-23T08:19:19.000Z</time>
      </trkpt>
      <trkpt lat="46.975883" lon="10.560604">
        <ele>1055.807204</ele>
        <time>2024-08-23T08:19:20.000Z</time>
      </trkpt>
      <trkpt lat="46.975902" lon="10.560621">
        <ele>1056.054023</ele>
        <time>2024-08-23T08:19:21.000Z</time>
      </trkpt>
      <trkpt lat="46.975920" lon="10.560635">
        <ele>1056.279961</ele>
        <time>2024-08-23T08:19:22.000Z</time>
      </trkpt>
      <trkpt lat="46.975942" lon="10.560670">
        <ele>1056.639972</ele>
        <time>2024-08-23T08:19:23.000Z</time>
      </trkpt>
      <trkpt lat="46.975948" lon="10.560700">
        <ele>1056.876475</ele>
        <time>2024-08-23T08:19:24.000Z</time>
      </trkpt>
      <trkpt lat="46.975954" lon="10.560728">
        <ele>1057.098499</ele>
        <time>2024-08-23T08:19:25.000Z</time>
      </trkpt>
      <trkpt lat="46.975954" lon="10.560753">
        <ele>1057.287627</ele>
        <time>2024-08-23T08:19:26.000Z</time>
      </trkpt>
      <trkpt lat="46.975950" lon="10.560794">
        <ele>1057.600952</ele>
        <time>2024-08-23T08:19:27.000Z</time>
      </trkpt>
      <trkpt lat="46.975940" lon="10.560816">
        <ele>1057.800935</ele>
        <time>2024-08-23T08:19:28.000Z</time>
      </trkpt>
      <trkpt lat="46.975929" lon="10.560831">
        <ele>1057.967524</ele>
        <time>2024-08-23T08:19:29.000Z</time>
      </trkpt>
      <trkpt lat="46.975914" lon="10.560846">
        <ele>1058.168863</ele>
        <time>2024-08-23T08:19:30.000Z</time>
      </trkpt>
      <trkpt lat="46.975896" lon="10.560851">
        <ele>1058.371992</ele>
        <time>2024-08-23T08:19:31.000Z</time>
      </trkpt>
      <trkpt lat="46.975869" lon="10.560842">
        <ele>1058.679002</ele>
        <time>2024-08-23T08:19:32.000Z</time>
      </trkpt>
      <trkpt lat="46.975849" lon="10.560835">
        <ele>1058.906989</ele>
        <time>2024-08-23T08:19:33.000Z</time>
      </trkpt>
      <trkpt lat="46.975833" lon="10.560825">
        <ele>1059.099848</ele>
        <time>2024-08-23T08:19:34.000Z</time>
      </trkpt>
      <trkpt lat="46.975816" lon="10.560811">
        <ele>1059.316055</ele>
        <time>2024-08-23T08:19:35.000Z</time>
      </trkpt>
      <trkpt lat="46.975790" lon="10.560788">
        <ele>1059.652773</ele>
        <time>2024-08-23T08:19:36.000Z</time>
      </trkpt>
      <trkpt lat="46.975771" lon="10.560778">
        <ele>1059.876609</ele>
        <time>2024-08-23T08:19:37.000Z</time>
      </trkpt>
      <trkpt lat="46.975753" lon="10.560769">
        <ele>1060.087479</ele>
        <time>2024-08-23T08:19:38.000Z</time>
      </trkpt>
      <trkpt lat="46.975735" lon="10.560760">
        <ele>1060.298350</ele>
        <time>2024-08-23T08:19:39.000Z</time>
      </trkpt>
      <trkpt lat="46.975713" lon="10.560745">
        <ele>1060.567381</ele>
        <time>2024-08-23T08:19:40.000Z</time>
      </trkpt>
      <trkpt lat="46.975693" lon="10.560735">
        <ele>1060.801682</ele>
        <time>2024-08-23T08:19:41.000Z</time>
      </trkpt>
      <trkpt lat="46.975676" lon="10.560727">
        <ele>1060.999649</ele>
        <time>2024-08-23T08:19:42.000Z</time>
      </trkpt>
      <trkpt lat="46.975660" lon="10.560722">
        <ele>1061.181038</ele>
        <time>2024-08-23T08:19:43.000Z</time>
      </trkpt>
      <trkpt lat="46.975647" lon="10.560714">
        <ele>1061.337367</ele>
        <time>2024-08-23T08:19:44.000Z</time>
      </trkpt>
      <trkpt lat="46.975620" lon="10.560714">
        <ele>1061.636732</ele>
        <time>2024-08-23T08:19:45.000Z</time>
      </trkpt>
      <trkpt lat="46.975601" lon="10.560715">
        <ele>1061.847532</ele>
        <time>2024-08-23T08:19:46.000Z</time>
      </trkpt>
      <trkpt lat="46.975580" lon="10.560722">
        <ele>1062.086317</ele>
        <time>2024-08-23T08:19:47.000Z</time>
      </trkpt>
      <trkpt lat="46.975560" lon="10.560718">
        <ele>1062.310124</ele>
        <time>2024-08-23T08:19:48.000Z</time>
      </trkpt>
      <trkpt lat="46.975541" lon="10.560710">
        <ele>1062.529309</ele>
        <time>2024-08-23T08:19:49.000Z</time>
      </trkpt>
      <trkpt lat="46.975512" lon="10.560697">
        <ele>1062.865553</ele>
        <time>2024-08-23T08:19:50.000Z</time>
      </trkpt>
      <trkpt lat="46.975501" lon="10.560707">
        <ele>1063.009074</ele>
        <time>2024-08-23T08:19:51.000Z</time>
      </trkpt>
      <trkpt lat="46.975490" lon="10.560701">
        <ele>1063.139210</ele>
        <time>2024-08-23T08:19:52.000Z</time>
      </trkpt>
      <trkpt lat="46.975479" lon="10.560694">
        <ele>1063.272175</ele>
        <time>2024-08-23T08:19:53.000Z</time>
      </trkpt>
      <trkpt lat="46.975462" lon="10.560682">
        <ele>1063.481386</ele>
        <time>2024-08-23T08:19:54.000Z</time>
      </trkpt>
      <trkpt lat="46.975445" lon="10.560673">
        <ele>1063.681795</ele>
        <time>2024-08-23T08:19:55.000Z</time>
      </trkpt>
      <trkpt lat="46.975428" lon="10.560663">
        <ele>1063.884900</ele>
        <time>2024-08-23T08:19:56.000Z</time>
      </trkpt>
      <trkpt lat="46.975410" lon="10.560644">
        <ele>1064.130850</ele>
        <time>2024-08-23T08:19:57.000Z</time>
      </trkpt>
      <trkpt lat="46.975391" lon="10.560638">
        <ele>1064.346349</ele>
        <time>2024-08-23T08:19:58.000Z</time>
      </trkpt>
      <trkpt lat="46.975362" lon="10.560620">
        <ele>1064.695535</ele>
        <time>2024-08-23T08:19:59.000Z</time>
      </trkpt>
      <trkpt lat="46.975346" lon="10.560609">
        <ele>1064.891485</ele>
        <time>2024-08-23T08:20:00.000Z</time>
      </trkpt>
      <trkpt lat="46.975330" lon="10.560601">
        <ele>1065.078926</ele>
        <time>2024-08-23T08:20:01.000Z</time>
      </trkpt>
      <trkpt lat="46.975311" lon="10.560587">
        <ele>1065.314716</ele>
        <time>2024-08-23T08:20:02.000Z</time>
      </trkpt>
      <trkpt lat="46.975284" lon="10.560565">
        <ele>1065.657236</ele>
        <time>2024-08-23T08:20:03.000Z</time>
      </trkpt>
      <trkpt lat="46.975266" lon="10.560550">
        <ele>1065.886818</ele>
        <time>2024-08-23T08:20:04.000Z</time>
      </trkpt>
      <trkpt lat="46.975250" lon="10.560534">
        <ele>1066.101580</ele>
        <time>2024-08-23T08:20:05.000Z</time>
      </trkpt>
      <trkpt lat="46.975235" lon="10.560517">
        <ele>1066.311819</ele>
        <time>2024-08-23T08:20:06.000Z</time>
      </trkpt>
      <trkpt lat="46.975217" lon="10.560495">
        <ele>1066.571687</ele>
        <time>2024-08-23T08:20:07.000Z</time>
      </trkpt>
      <trkpt lat="46.975190" lon="10.560462">
        <ele>1066.961489</ele>
        <time>2024-08-23T08:20:08.000Z</time>
      </trkpt>
      <trkpt lat="46.975174" lon="10.560439">
        <ele>1067.209979</ele>
        <time>2024-08-23T08:20:09.000Z</time>
      </trkpt>
      <trkpt lat="46.975158" lon="10.560418">
        <ele>1067.448119</ele>
        <time>2024-08-23T08:20:10.000Z</time>
      </trkpt>
      <trkpt lat="46.975143" lon="10.560396">
        <ele>1067.683408</ele>
        <time>2024-08-23T08:20:11.000Z</time>
      </trkpt>
      <trkpt lat="46.975124" lon="10.560363">
        <ele>1068.010067</ele>
        <time>2024-08-23T08:20:12.000Z</time>
      </trkpt>
      <trkpt lat="46.975108" lon="10.560340">
        <ele>1068.258557</ele>
        <time>2024-08-23T08:20:13.000Z</time>
      </trkpt>
      <trkpt lat="46.975093" lon="10.560321">
        <ele>1068.478378</ele>
        <time>2024-08-23T08:20:14.000Z</time>
      </trkpt>
      <trkpt lat="46.975079" lon="10.560298">
        <ele>1068.711555</ele>
        <time>2024-08-23T08:20:15.000Z</time>
      </trkpt>
      <trkpt lat="46.975052" lon="10.560265">
        <ele>1069.101357</ele>
        <time>2024-08-23T08:20:16.000Z</time>
      </trkpt>
      <trkpt lat="46.975038" lon="10.560244">
        <ele>1069.323472</ele>
        <time>2024-08-23T08:20:17.000Z</time>
      </trkpt>
      <trkpt lat="46.975023" lon="10.560223">
        <ele>1069.553472</ele>
        <time>2024-08-23T08:20:18.000Z</time>
      </trkpt>
      <trkpt lat="46.975006" lon="10.560197">
        <ele>1069.825901</ele>
        <time>2024-08-23T08:20:19.000Z</time>
      </trkpt>
      <trkpt lat="46.974992" lon="10.560168">
        <ele>1070.094654</ele>
        <time>2024-08-23T08:20:20.000Z</time>
      </trkpt>
      <trkpt lat="46.974966" lon="10.560131">
        <ele>1070.435448</ele>
        <time>2024-08-23T08:20:21.000Z</time>
      </trkpt>
      <trkpt lat="46.974951" lon="10.560110">
        <ele>1070.610316</ele>
        <time>2024-08-23T08:20:22.000Z</time>
      </trkpt>
      <trkpt lat="46.974936" lon="10.560089">
        <ele>1070.785185</ele>
        <time>2024-08-23T08:20:23.000Z</time>
      </trkpt>
      <trkpt lat="46.974922" lon="10.560067">
        <ele>1070.958219</ele>
        <time>2024-08-23T08:20:24.000Z</time>
      </trkpt>
      <trkpt lat="46.974910" lon="10.560049">
        <ele>1071.102967</ele>
        <time>2024-08-23T08:20:25.000Z</time>
      </trkpt>
      <trkpt lat="46.974893" lon="10.560018">
        <ele>1071.331726</ele>
        <time>2024-08-23T08:20:26.000Z</time>
      </trkpt>
      <trkpt lat="46.974880" lon="10.559998">
        <ele>1071.490607</ele>
        <time>2024-08-23T08:20:27.000Z</time>
      </trkpt>
      <trkpt lat="46.974866" lon="10.559974">
        <ele>1071.672223</ele>
        <time>2024-08-23T08:20:28.000Z</time>
      </trkpt>
      <trkpt lat="46.974852" lon="10.559953">
        <ele>1071.841096</ele>
        <time>2024-08-23T08:20:29.000Z</time>
      </trkpt>
      <trkpt lat="46.974839" lon="10.559923">
        <ele>1072.045510</ele>
        <time>2024-08-23T08:20:30.000Z</time>
      </trkpt>
      <trkpt lat="46.974827" lon="10.559902">
        <ele>1072.203063</ele>
        <time>2024-08-23T08:20:31.000Z</time>
      </trkpt>
      <trkpt lat="46.974822" lon="10.559883">
        <ele>1072.320195</ele>
        <time>2024-08-23T08:20:32.000Z</time>
      </trkpt>
      <trkpt lat="46.974820" lon="10.559869">
        <ele>1072.402467</ele>
        <time>2024-08-23T08:20:33.000Z</time>
      </trkpt>
      <trkpt lat="46.974811" lon="10.559856">
        <ele>1072.508991</ele>
        <time>2024-08-23T08:20:34.000Z</time>
      </trkpt>
      <trkpt lat="46.974801" lon="10.559829">
        <ele>1072.685695</ele>
        <time>2024-08-23T08:20:35.000Z</time>
      </trkpt>
      <trkpt lat="46.974786" lon="10.559810">
        <ele>1072.852825</ele>
        <time>2024-08-23T08:20:36.000Z</time>
      </trkpt>
      <trkpt lat="46.974780" lon="10.559799">
        <ele>1072.933827</ele>
        <time>2024-08-23T08:20:37.000Z</time>
      </trkpt>
      <trkpt lat="46.974775" lon="10.559786">
        <ele>1073.019663</ele>
        <time>2024-08-23T08:20:38.000Z</time>
      </trkpt>
      <trkpt lat="46.974765" lon="10.559760">
        <ele>1073.191334</ele>
        <time>2024-08-23T08:20:39.000Z</time>
      </trkpt>
      <trkpt lat="46.974756" lon="10.559740">
        <ele>1073.329137</ele>
        <time>2024-08-23T08:20:40.000Z</time>
      </trkpt>
      <trkpt lat="46.974744" lon="10.559722">
        <ele>1073.473886</ele>
        <time>2024-08-23T08:20:41.000Z</time>
      </trkpt>
      <trkpt lat="46.974730" lon="10.559708">
        <ele>1073.616759</ele>
        <time>2024-08-23T08:20:42.000Z</time>
      </trkpt>
      <trkpt lat="46.974717" lon="10.559697">
        <ele>1073.743300</ele>
        <time>2024-08-23T08:20:43.000Z</time>
      </trkpt>
      <trkpt lat="46.974701" lon="10.559682">
        <ele>1073.903412</ele>
        <time>2024-08-23T08:20:44.000Z</time>
      </trkpt>
      <trkpt lat="46.974689" lon="10.559663">
        <ele>1074.052330</ele>
        <time>2024-08-23T08:20:45.000Z</time>
      </trkpt>
      <trkpt lat="46.974676" lon="10.559639">
        <ele>1074.228585</ele>
        <time>2024-08-23T08:20:46.000Z</time>
      </trkpt>
      <trkpt lat="46.974663" lon="10.559610">
        <ele>1074.428168</ele>
        <time>2024-08-23T08:20:47.000Z</time>
      </trkpt>
      <trkpt lat="46.974633" lon="10.559570">
        <ele>1074.770061</ele>
        <time>2024-08-23T08:20:48.000Z</time>
      </trkpt>
      <trkpt lat="46.974616" lon="10.559543">
        <ele>1074.981379</ele>
        <time>2024-08-23T08:20:49.000Z</time>
      </trkpt>
      <trkpt lat="46.974600" lon="10.559520">
        <ele>1075.170306</ele>
        <time>2024-08-23T08:20:50.000Z</time>
      </trkpt>
      <trkpt lat="46.974584" lon="10.559493">
        <ele>1075.376001</ele>
        <time>2024-08-23T08:20:51.000Z</time>
      </trkpt>
      <trkpt lat="46.974571" lon="10.559466">
        <ele>1075.566075</ele>
        <time>2024-08-23T08:20:52.000Z</time>
      </trkpt>
      <trkpt lat="46.974554" lon="10.559442">
        <ele>1075.765056</ele>
        <time>2024-08-23T08:20:53.000Z</time>
      </trkpt>
      <trkpt lat="46.974539" lon="10.559416">
        <ele>1075.960898</ele>
        <time>2024-08-23T08:20:54.000Z</time>
      </trkpt>
      <trkpt lat="46.974528" lon="10.559387">
        <ele>1076.151744</ele>
        <time>2024-08-23T08:20:55.000Z</time>
      </trkpt>
      <trkpt lat="46.974521" lon="10.559358">
        <ele>1076.328679</ele>
        <time>2024-08-23T08:20:56.000Z</time>
      </trkpt>
      <trkpt lat="46.974505" lon="10.559311">
        <ele>1076.630797</ele>
        <time>2024-08-23T08:20:57.000Z</time>
      </trkpt>
      <trkpt lat="46.974493" lon="10.559282">
        <ele>1076.825878</ele>
        <time>2024-08-23T08:20:58.000Z</time>
      </trkpt>
      <trkpt lat="46.974484" lon="10.559251">
        <ele>1077.019657</ele>
        <time>2024-08-23T08:20:59.000Z</time>
      </trkpt>
      <trkpt lat="46.974472" lon="10.559224">
        <ele>1077.204998</ele>
        <time>2024-08-23T08:21:00.000Z</time>
      </trkpt>
      <trkpt lat="46.974456" lon="10.559185">
        <ele>1077.466749</ele>
        <time>2024-08-23T08:21:01.000Z</time>
      </trkpt>
      <trkpt lat="46.974440" lon="10.559165">
        <ele>1077.644022</ele>
        <time>2024-08-23T08:21:02.000Z</time>
      </trkpt>
      <trkpt lat="46.974426" lon="10.559146">
        <ele>1077.804869</ele>
        <time>2024-08-23T08:21:03.000Z</time>
      </trkpt>
      <trkpt lat="46.974416" lon="10.559120">
        <ele>1077.976541</ele>
        <time>2024-08-23T08:21:04.000Z</time>
      </trkpt>
      <trkpt lat="46.974407" lon="10.559084">
        <ele>1078.197070</ele>
        <time>2024-08-23T08:21:05.000Z</time>
      </trkpt>
      <trkpt lat="46.974397" lon="10.559035">
        <ele>1078.491250</ele>
        <time>2024-08-23T08:21:06.000Z</time>
      </trkpt>
      <trkpt lat="46.974387" lon="10.559000">
        <ele>1078.709504</ele>
        <time>2024-08-23T08:21:07.000Z</time>
      </trkpt>
      <trkpt lat="46.974377" lon="10.558963">
        <ele>1078.938412</ele>
        <time>2024-08-23T08:21:08.000Z</time>
      </trkpt>
      <trkpt lat="46.974367" lon="10.558931">
        <ele>1079.140859</ele>
        <time>2024-08-23T08:21:09.000Z</time>
      </trkpt>
      <trkpt lat="46.974358" lon="10.558895">
        <ele>1079.361389</ele>
        <time>2024-08-23T08:21:10.000Z</time>
      </trkpt>
      <trkpt lat="46.974341" lon="10.558850">
        <ele>1079.657249</ele>
        <time>2024-08-23T08:21:11.000Z</time>
      </trkpt>
      <trkpt lat="46.974330" lon="10.558825">
        <ele>1079.828352</ele>
        <time>2024-08-23T08:21:12.000Z</time>
      </trkpt>
      <trkpt lat="46.974314" lon="10.558803">
        <ele>1080.013298</ele>
        <time>2024-08-23T08:21:13.000Z</time>
      </trkpt>
      <trkpt lat="46.974297" lon="10.558785">
        <ele>1080.190093</ele>
        <time>2024-08-23T08:21:14.000Z</time>
      </trkpt>
      <trkpt lat="46.974277" lon="10.558761">
        <ele>1080.407996</ele>
        <time>2024-08-23T08:21:15.000Z</time>
      </trkpt>
      <trkpt lat="46.974245" lon="10.558730">
        <ele>1080.731357</ele>
        <time>2024-08-23T08:21:16.000Z</time>
      </trkpt>
      <trkpt lat="46.974223" lon="10.558708">
        <ele>1080.955872</ele>
        <time>2024-08-23T08:21:17.000Z</time>
      </trkpt>
      <trkpt lat="46.974199" lon="10.558687">
        <ele>1081.191504</ele>
        <time>2024-08-23T08:21:18.000Z</time>
      </trkpt>
      <trkpt lat="46.974176" lon="10.558671">
        <ele>1081.406124</ele>
        <time>2024-08-23T08:21:19.000Z</time>
      </trkpt>
      <trkpt lat="46.974137" lon="10.558656">
        <ele>1081.746021</ele>
        <time>2024-08-23T08:21:20.000Z</time>
      </trkpt>
      <trkpt lat="46.974113" lon="10.558654">
        <ele>1081.948665</ele>
        <time>2024-08-23T08:21:21.000Z</time>
      </trkpt>
      <trkpt lat="46.974088" lon="10.558650">
        <ele>1082.160663</ele>
        <time>2024-08-23T08:21:22.000Z</time>
      </trkpt>
      <trkpt lat="46.974062" lon="10.558645">
        <ele>1082.381718</ele>
        <time>2024-08-23T08:21:23.000Z</time>
      </trkpt>
      <trkpt lat="46.974029" lon="10.558648">
        <ele>1082.660438</ele>
        <time>2024-08-23T08:21:24.000Z</time>
      </trkpt>
      <trkpt lat="46.974005" lon="10.558650">
        <ele>1082.863082</ele>
        <time>2024-08-23T08:21:25.000Z</time>
      </trkpt>
      <trkpt lat="46.973982" lon="10.558658">
        <ele>1083.062354</ele>
        <time>2024-08-23T08:21:26.000Z</time>
      </trkpt>
      <trkpt lat="46.973960" lon="10.558667">
        <ele>1083.254901</ele>
        <time>2024-08-23T08:21:27.000Z</time>
      </trkpt>
      <trkpt lat="46.973939" lon="10.558680">
        <ele>1083.447072</ele>
        <time>2024-08-23T08:21:28.000Z</time>
      </trkpt>
      <trkpt lat="46.973906" lon="10.558698">
        <ele>1083.743900</ele>
        <time>2024-08-23T08:21:29.000Z</time>
      </trkpt>
      <trkpt lat="46.973884" lon="10.558713">
        <ele>1083.948444</ele>
        <time>2024-08-23T08:21:30.000Z</time>
      </trkpt>
      <trkpt lat="46.973866" lon="10.558729">
        <ele>1084.125910</ele>
        <time>2024-08-23T08:21:31.000Z</time>
      </trkpt>
      <trkpt lat="46.973847" lon="10.558743">
        <ele>1084.305181</ele>
        <time>2024-08-23T08:21:32.000Z</time>
      </trkpt>
      <trkpt lat="46.973831" lon="10.558756">
        <ele>1084.459400</ele>
        <time>2024-08-23T08:21:33.000Z</time>
      </trkpt>
      <trkpt lat="46.973805" lon="10.558778">
        <ele>1084.712484</ele>
        <time>2024-08-23T08:21:34.000Z</time>
      </trkpt>
      <trkpt lat="46.973790" lon="10.558795">
        <ele>1084.872330</ele>
        <time>2024-08-23T08:21:35.000Z</time>
      </trkpt>
      <trkpt lat="46.973774" lon="10.558811">
        <ele>1085.035614</ele>
        <time>2024-08-23T08:21:36.000Z</time>
      </trkpt>
      <trkpt lat="46.973756" lon="10.558827">
        <ele>1085.213080</ele>
        <time>2024-08-23T08:21:37.000Z</time>
      </trkpt>
      <trkpt lat="46.973731" lon="10.558850">
        <ele>1085.488232</ele>
        <time>2024-08-23T08:21:38.000Z</time>
      </trkpt>
      <trkpt lat="46.973716" lon="10.558870">
        <ele>1085.737158</ele>
        <time>2024-08-23T08:21:39.000Z</time>
      </trkpt>
      <trkpt lat="46.973703" lon="10.558892">
        <ele>1085.980918</ele>
        <time>2024-08-23T08:21:40.000Z</time>
      </trkpt>
      <trkpt lat="46.973690" lon="10.558910">
        <ele>1086.200451</ele>
        <time>2024-08-23T08:21:41.000Z</time>
      </trkpt>
      <trkpt lat="46.973668" lon="10.558931">
        <ele>1086.522735</ele>
        <time>2024-08-23T08:21:42.000Z</time>
      </trkpt>
      <trkpt lat="46.973653" lon="10.558943">
        <ele>1086.732508</ele>
        <time>2024-08-23T08:21:43.000Z</time>
      </trkpt>
      <trkpt lat="46.973639" lon="10.558955">
        <ele>1086.931595</ele>
        <time>2024-08-23T08:21:44.000Z</time>
      </trkpt>
      <trkpt lat="46.973625" lon="10.558973">
        <ele>1087.160206</ele>
        <time>2024-08-23T08:21:45.000Z</time>
      </trkpt>
      <trkpt lat="46.973610" lon="10.558990">
        <ele>1087.392966</ele>
        <time>2024-08-23T08:21:46.000Z</time>
      </trkpt>
      <trkpt lat="46.973587" lon="10.559016">
        <ele>1087.749524</ele>
        <time>2024-08-23T08:21:47.000Z</time>
      </trkpt>
      <trkpt lat="46.973570" lon="10.559030">
        <ele>1087.988891</ele>
        <time>2024-08-23T08:21:48.000Z</time>
      </trkpt>
      <trkpt lat="46.973552" lon="10.559046">
        <ele>1088.247309</ele>
        <time>2024-08-23T08:21:49.000Z</time>
      </trkpt>
      <trkpt lat="46.973535" lon="10.559061">
        <ele>1088.490888</ele>
        <time>2024-08-23T08:21:50.000Z</time>
      </trkpt>
      <trkpt lat="46.973515" lon="10.559087">
        <ele>1088.819059</ele>
        <time>2024-08-23T08:21:51.000Z</time>
      </trkpt>
      <trkpt lat="46.973501" lon="10.559107">
        <ele>1089.059048</ele>
        <time>2024-08-23T08:21:52.000Z</time>
      </trkpt>
      <trkpt lat="46.973486" lon="10.559125">
        <ele>1089.297025</ele>
        <time>2024-08-23T08:21:53.000Z</time>
      </trkpt>
      <trkpt lat="46.973472" lon="10.559143">
        <ele>1089.525636</ele>
        <time>2024-08-23T08:21:54.000Z</time>
      </trkpt>
      <trkpt lat="46.973458" lon="10.559163">
        <ele>1089.765625</ele>
        <time>2024-08-23T08:21:55.000Z</time>
      </trkpt>
      <trkpt lat="46.973434" lon="10.559190">
        <ele>1090.137020</ele>
        <time>2024-08-23T08:21:56.000Z</time>
      </trkpt>
      <trkpt lat="46.973419" lon="10.559210">
        <ele>1090.385947</ele>
        <time>2024-08-23T08:21:57.000Z</time>
      </trkpt>
      <trkpt lat="46.973404" lon="10.559229">
        <ele>1090.629316</ele>
        <time>2024-08-23T08:21:58.000Z</time>
      </trkpt>
      <trkpt lat="46.973390" lon="10.559248">
        <ele>1090.863536</ele>
        <time>2024-08-23T08:21:59.000Z</time>
      </trkpt>
      <trkpt lat="46.973367" lon="10.559273">
        <ele>1091.215041</ele>
        <time>2024-08-23T08:22:00.000Z</time>
      </trkpt>
      <trkpt lat="46.973355" lon="10.559290">
        <ele>1091.419913</ele>
        <time>2024-08-23T08:22:01.000Z</time>
      </trkpt>
      <trkpt lat="46.973341" lon="10.559304">
        <ele>1091.627960</ele>
        <time>2024-08-23T08:22:02.000Z</time>
      </trkpt>
      <trkpt lat="46.973326" lon="10.559319">
        <ele>1091.850867</ele>
        <time>2024-08-23T08:22:03.000Z</time>
      </trkpt>
      <trkpt lat="46.973312" lon="10.559336">
        <ele>1092.074044</ele>
        <time>2024-08-23T08:22:04.000Z</time>
      </trkpt>
      <trkpt lat="46.973293" lon="10.559360">
        <ele>1092.381947</ele>
        <time>2024-08-23T08:22:05.000Z</time>
      </trkpt>
      <trkpt lat="46.973278" lon="10.559376">
        <ele>1092.609681</ele>
        <time>2024-08-23T08:22:06.000Z</time>
      </trkpt>
      <trkpt lat="46.973264" lon="10.559394">
        <ele>1092.838292</ele>
        <time>2024-08-23T08:22:07.000Z</time>
      </trkpt>
      <trkpt lat="46.973251" lon="10.559409">
        <ele>1093.041392</ele>
        <time>2024-08-23T08:22:08.000Z</time>
      </trkpt>
      <trkpt lat="46.973229" lon="10.559434">
        <ele>1093.383117</ele>
        <time>2024-08-23T08:22:09.000Z</time>
      </trkpt>
      <trkpt lat="46.973213" lon="10.559452">
        <ele>1093.630714</ele>
        <time>2024-08-23T08:22:10.000Z</time>
      </trkpt>
      <trkpt lat="46.973197" lon="10.559467">
        <ele>1093.863864</ele>
        <time>2024-08-23T08:22:11.000Z</time>
      </trkpt>
      <trkpt lat="46.973181" lon="10.559485">
        <ele>1094.111460</ele>
        <time>2024-08-23T08:22:12.000Z</time>
      </trkpt>
      <trkpt lat="46.973162" lon="10.559496">
        <ele>1094.362227</ele>
        <time>2024-08-23T08:22:13.000Z</time>
      </trkpt>
      <trkpt lat="46.973134" lon="10.559519">
        <ele>1094.756239</ele>
        <time>2024-08-23T08:22:14.000Z</time>
      </trkpt>
      <trkpt lat="46.973116" lon="10.559531">
        <ele>1094.998978</ele>
        <time>2024-08-23T08:22:15.000Z</time>
      </trkpt>
      <trkpt lat="46.973096" lon="10.559540">
        <ele>1095.255794</ele>
        <time>2024-08-23T08:22:16.000Z</time>
      </trkpt>
      <trkpt lat="46.973080" lon="10.559546">
        <ele>1095.458525</ele>
        <time>2024-08-23T08:22:17.000Z</time>
      </trkpt>
      <trkpt lat="46.973052" lon="10.559555">
        <ele>1095.810399</ele>
        <time>2024-08-23T08:22:18.000Z</time>
      </trkpt>
      <trkpt lat="46.973035" lon="10.559562">
        <ele>1096.027157</ele>
        <time>2024-08-23T08:22:19.000Z</time>
      </trkpt>
      <trkpt lat="46.973016" lon="10.559569">
        <ele>1096.267642</ele>
        <time>2024-08-23T08:22:20.000Z</time>
      </trkpt>
      <trkpt lat="46.972997" lon="10.559575">
        <ele>1096.506223</ele>
        <time>2024-08-23T08:22:21.000Z</time>
      </trkpt>
      <trkpt lat="46.972979" lon="10.559580">
        <ele>1096.731110</ele>
        <time>2024-08-23T08:22:22.000Z</time>
      </trkpt>
      <trkpt lat="46.972951" lon="10.559582">
        <ele>1097.075223</ele>
        <time>2024-08-23T08:22:23.000Z</time>
      </trkpt>
      <trkpt lat="46.972932" lon="10.559583">
        <ele>1097.308602</ele>
        <time>2024-08-23T08:22:24.000Z</time>
      </trkpt>
      <trkpt lat="46.972913" lon="10.559585">
        <ele>1097.542431</ele>
        <time>2024-08-23T08:22:25.000Z</time>
      </trkpt>
      <trkpt lat="46.972894" lon="10.559584">
        <ele>1097.775809</ele>
        <time>2024-08-23T08:22:26.000Z</time>
      </trkpt>
      <trkpt lat="46.972866" lon="10.559584">
        <ele>1098.119514</ele>
        <time>2024-08-23T08:22:27.000Z</time>
      </trkpt>
      <trkpt lat="46.972854" lon="10.559585">
        <ele>1098.267054</ele>
        <time>2024-08-23T08:22:28.000Z</time>
      </trkpt>
      <trkpt lat="46.972840" lon="10.559584">
        <ele>1098.439110</ele>
        <time>2024-08-23T08:22:29.000Z</time>
      </trkpt>
      <trkpt lat="46.972823" lon="10.559582">
        <ele>1098.648459</ele>
        <time>2024-08-23T08:22:30.000Z</time>
      </trkpt>
      <trkpt lat="46.972805" lon="10.559584">
        <ele>1098.870047</ele>
        <time>2024-08-23T08:22:31.000Z</time>
      </trkpt>
      <trkpt lat="46.972775" lon="10.559580">
        <ele>1099.239823</ele>
        <time>2024-08-23T08:22:32.000Z</time>
      </trkpt>
      <trkpt lat="46.972753" lon="10.559574">
        <ele>1099.514513</ele>
        <time>2024-08-23T08:22:33.000Z</time>
      </trkpt>
      <trkpt lat="46.972731" lon="10.559565">
        <ele>1099.794890</ele>
        <time>2024-08-23T08:22:34.000Z</time>
      </trkpt>
      <trkpt lat="46.972709" lon="10.559559">
        <ele>1100.069580</ele>
        <time>2024-08-23T08:22:35.000Z</time>
      </trkpt>
      <trkpt lat="46.972676" lon="10.559550">
        <ele>1100.481615</ele>
        <time>2024-08-23T08:22:36.000Z</time>
      </trkpt>
      <trkpt lat="46.972655" lon="10.559543">
        <ele>1100.745978</ele>
        <time>2024-08-23T08:22:37.000Z</time>
      </trkpt>
      <trkpt lat="46.972639" lon="10.559532">
        <ele>1100.962918</ele>
        <time>2024-08-23T08:22:38.000Z</time>
      </trkpt>
      <trkpt lat="46.972620" lon="10.559521">
        <ele>1101.213685</ele>
        <time>2024-08-23T08:22:39.000Z</time>
      </trkpt>
      <trkpt lat="46.972607" lon="10.559509">
        <ele>1101.402278</ele>
        <time>2024-08-23T08:22:40.000Z</time>
      </trkpt>
      <trkpt lat="46.972592" lon="10.559497">
        <ele>1101.612053</ele>
        <time>2024-08-23T08:22:41.000Z</time>
      </trkpt>
      <trkpt lat="46.972572" lon="10.559486">
        <ele>1101.874276</ele>
        <time>2024-08-23T08:22:42.000Z</time>
      </trkpt>
      <trkpt lat="46.972556" lon="10.559467">
        <ele>1102.127061</ele>
        <time>2024-08-23T08:22:43.000Z</time>
      </trkpt>
      <trkpt lat="46.972544" lon="10.559448">
        <ele>1102.343912</ele>
        <time>2024-08-23T08:22:44.000Z</time>
      </trkpt>
      <trkpt lat="46.972524" lon="10.559424">
        <ele>1102.661217</ele>
        <time>2024-08-23T08:22:45.000Z</time>
      </trkpt>
      <trkpt lat="46.972509" lon="10.559406">
        <ele>1102.899195</ele>
        <time>2024-08-23T08:22:46.000Z</time>
      </trkpt>
      <trkpt lat="46.972495" lon="10.559399">
        <ele>1103.080774</ele>
        <time>2024-08-23T08:22:47.000Z</time>
      </trkpt>
      <trkpt lat="46.972478" lon="10.559390">
        <ele>1103.302650</ele>
        <time>2024-08-23T08:22:48.000Z</time>
      </trkpt>
      <trkpt lat="46.972451" lon="10.559360">
        <ele>1103.718567</ele>
        <time>2024-08-23T08:22:49.000Z</time>
      </trkpt>
      <trkpt lat="46.972433" lon="10.559343">
        <ele>1103.981427</ele>
        <time>2024-08-23T08:22:50.000Z</time>
      </trkpt>
      <trkpt lat="46.972415" lon="10.559326">
        <ele>1104.244288</ele>
        <time>2024-08-23T08:22:51.000Z</time>
      </trkpt>
      <trkpt lat="46.972397" lon="10.559305">
        <ele>1104.526705</ele>
        <time>2024-08-23T08:22:52.000Z</time>
      </trkpt>
      <trkpt lat="46.972381" lon="10.559286">
        <ele>1104.779491</ele>
        <time>2024-08-23T08:22:53.000Z</time>
      </trkpt>
      <trkpt lat="46.972359" lon="10.559260">
        <ele>1105.126413</ele>
        <time>2024-08-23T08:22:54.000Z</time>
      </trkpt>
      <trkpt lat="46.972342" lon="10.559243">
        <ele>1105.379043</ele>
        <time>2024-08-23T08:22:55.000Z</time>
      </trkpt>
      <trkpt lat="46.972326" lon="10.559226">
        <ele>1105.621632</ele>
        <time>2024-08-23T08:22:56.000Z</time>
      </trkpt>
      <trkpt lat="46.972310" lon="10.559209">
        <ele>1105.864221</ele>
        <time>2024-08-23T08:22:57.000Z</time>
      </trkpt>
      <trkpt lat="46.972286" lon="10.559184">
        <ele>1106.225662</ele>
        <time>2024-08-23T08:22:58.000Z</time>
      </trkpt>
      <trkpt lat="46.972269" lon="10.559169">
        <ele>1106.469243</ele>
        <time>2024-08-23T08:22:59.000Z</time>
      </trkpt>
      <trkpt lat="46.972253" lon="10.559152">
        <ele>1106.711832</ele>
        <time>2024-08-23T08:23:00.000Z</time>
      </trkpt>
      <trkpt lat="46.972239" lon="10.559134">
        <ele>1106.940446</ele>
        <time>2024-08-23T08:23:01.000Z</time>
      </trkpt>
      <trkpt lat="46.972222" lon="10.559117">
        <ele>1107.193076</ele>
        <time>2024-08-23T08:23:02.000Z</time>
      </trkpt>
      <trkpt lat="46.972199" lon="10.559086">
        <ele>1107.593561</ele>
        <time>2024-08-23T08:23:03.000Z</time>
      </trkpt>
      <trkpt lat="46.972183" lon="10.559067">
        <ele>1107.891917</ele>
        <time>2024-08-23T08:23:04.000Z</time>
      </trkpt>
      <trkpt lat="46.972167" lon="10.559049">
        <ele>1108.184149</ele>
        <time>2024-08-23T08:23:05.000Z</time>
      </trkpt>
      <trkpt lat="46.972150" lon="10.559030">
        <ele>1108.493896</ele>
        <time>2024-08-23T08:23:06.000Z</time>
      </trkpt>
      <trkpt lat="46.972133" lon="10.559011">
        <ele>1108.803642</ele>
        <time>2024-08-23T08:23:07.000Z</time>
      </trkpt>
      <trkpt lat="46.972106" lon="10.558984">
        <ele>1109.277209</ele>
        <time>2024-08-23T08:23:08.000Z</time>
      </trkpt>
      <trkpt lat="46.972089" lon="10.558964">
        <ele>1109.593048</ele>
        <time>2024-08-23T08:23:09.000Z</time>
      </trkpt>
      <trkpt lat="46.972072" lon="10.558946">
        <ele>1109.896901</ele>
        <time>2024-08-23T08:23:10.000Z</time>
      </trkpt>
      <trkpt lat="46.972053" lon="10.558929">
        <ele>1110.219422</ele>
        <time>2024-08-23T08:23:11.000Z</time>
      </trkpt>
      <trkpt lat="46.972027" lon="10.558903">
        <ele>1110.675449</ele>
        <time>2024-08-23T08:23:12.000Z</time>
      </trkpt>
      <trkpt lat="46.972010" lon="10.558887">
        <ele>1110.968162</ele>
        <time>2024-08-23T08:23:13.000Z</time>
      </trkpt>
      <trkpt lat="46.971996" lon="10.558873">
        <ele>1111.213715</ele>
        <time>2024-08-23T08:23:14.000Z</time>
      </trkpt>
      <trkpt lat="46.971979" lon="10.558857">
        <ele>1111.506429</ele>
        <time>2024-08-23T08:23:15.000Z</time>
      </trkpt>
      <trkpt lat="46.971964" lon="10.558839">
        <ele>1111.787308</ele>
        <time>2024-08-23T08:23:16.000Z</time>
      </trkpt>
      <trkpt lat="46.971937" lon="10.558816">
        <ele>1112.239767</ele>
        <time>2024-08-23T08:23:17.000Z</time>
      </trkpt>
      <trkpt lat="46.971920" lon="10.558798">
        <ele>1112.543621</ele>
        <time>2024-08-23T08:23:18.000Z</time>
      </trkpt>
      <trkpt lat="46.971912" lon="10.558798">
        <ele>1112.659525</ele>
        <time>2024-08-23T08:23:18.000Z</time>
      </trkpt>
      <trkpt lat="46.971893" lon="10.558783">
        <ele>1112.972198</ele>
        <time>2024-08-23T08:23:19.000Z</time>
      </trkpt>
      <trkpt lat="46.971826" lon="10.558719">
        <ele>1114.130889</ele>
        <time>2024-08-23T08:23:22.000Z</time>
      </trkpt>
      <trkpt lat="46.971809" lon="10.558700">
        <ele>1114.440636</ele>
        <time>2024-08-23T08:23:23.000Z</time>
      </trkpt>
      <trkpt lat="46.971775" lon="10.558664">
        <ele>1115.048344</ele>
        <time>2024-08-23T08:23:25.000Z</time>
      </trkpt>
      <trkpt lat="46.971760" lon="10.558650">
        <ele>1115.305994</ele>
        <time>2024-08-23T08:23:26.000Z</time>
      </trkpt>
      <trkpt lat="46.971735" lon="10.558629">
        <ele>1115.723473</ele>
        <time>2024-08-23T08:23:27.000Z</time>
      </trkpt>
      <trkpt lat="46.971710" lon="10.558608">
        <ele>1116.140953</ele>
        <time>2024-08-23T08:23:28.000Z</time>
      </trkpt>
      <trkpt lat="46.971684" lon="10.558585">
        <ele>1116.580947</ele>
        <time>2024-08-23T08:23:30.000Z</time>
      </trkpt>
      <trkpt lat="46.971666" lon="10.558570">
        <ele>1116.880944</ele>
        <time>2024-08-23T08:23:31.000Z</time>
      </trkpt>
      <trkpt lat="46.971650" lon="10.558555">
        <ele>1117.156126</ele>
        <time>2024-08-23T08:23:32.000Z</time>
      </trkpt>
      <trkpt lat="46.971630" lon="10.558541">
        <ele>1117.477244</ele>
        <time>2024-08-23T08:23:33.000Z</time>
      </trkpt>
      <trkpt lat="46.971609" lon="10.558528">
        <ele>1117.807522</ele>
        <time>2024-08-23T08:23:34.000Z</time>
      </trkpt>
      <trkpt lat="46.971577" lon="10.558504">
        <ele>1118.328324</ele>
        <time>2024-08-23T08:23:35.000Z</time>
      </trkpt>
      <trkpt lat="46.971558" lon="10.558487">
        <ele>1118.650845</ele>
        <time>2024-08-23T08:23:36.000Z</time>
      </trkpt>
      <trkpt lat="46.971543" lon="10.558478">
        <ele>1118.885673</ele>
        <time>2024-08-23T08:23:37.000Z</time>
      </trkpt>
      <trkpt lat="46.971523" lon="10.558466">
        <ele>1119.198778</ele>
        <time>2024-08-23T08:23:38.000Z</time>
      </trkpt>
      <trkpt lat="46.971497" lon="10.558450">
        <ele>1119.607329</ele>
        <time>2024-08-23T08:23:39.000Z</time>
      </trkpt>
      <trkpt lat="46.971479" lon="10.558438">
        <ele>1119.893828</ele>
        <time>2024-08-23T08:23:40.000Z</time>
      </trkpt>
      <trkpt lat="46.971462" lon="10.558427">
        <ele>1120.163063</ele>
        <time>2024-08-23T08:23:41.000Z</time>
      </trkpt>
      <trkpt lat="46.971445" lon="10.558418">
        <ele>1120.424938</ele>
        <time>2024-08-23T08:23:42.000Z</time>
      </trkpt>
      <trkpt lat="46.971428" lon="10.558407">
        <ele>1120.694173</ele>
        <time>2024-08-23T08:23:43.000Z</time>
      </trkpt>
      <trkpt lat="46.971403" lon="10.558389">
        <ele>1121.097725</ele>
        <time>2024-08-23T08:23:44.000Z</time>
      </trkpt>
      <trkpt lat="46.971388" lon="10.558383">
        <ele>1121.322995</ele>
        <time>2024-08-23T08:23:45.000Z</time>
      </trkpt>
      <trkpt lat="46.971371" lon="10.558377">
        <ele>1121.576333</ele>
        <time>2024-08-23T08:23:46.000Z</time>
      </trkpt>
      <trkpt lat="46.971353" lon="10.558367">
        <ele>1121.855227</ele>
        <time>2024-08-23T08:23:47.000Z</time>
      </trkpt>
      <trkpt lat="46.971326" lon="10.558360">
        <ele>1122.252477</ele>
        <time>2024-08-23T08:23:48.000Z</time>
      </trkpt>
      <trkpt lat="46.971307" lon="10.558359">
        <ele>1122.527926</ele>
        <time>2024-08-23T08:23:49.000Z</time>
      </trkpt>
      <trkpt lat="46.971288" lon="10.558357">
        <ele>1122.803907</ele>
        <time>2024-08-23T08:23:50.000Z</time>
      </trkpt>
      <trkpt lat="46.971270" lon="10.558348">
        <ele>1123.079452</ele>
        <time>2024-08-23T08:23:51.000Z</time>
      </trkpt>
      <trkpt lat="46.971254" lon="10.558338">
        <ele>1123.331461</ele>
        <time>2024-08-23T08:23:52.000Z</time>
      </trkpt>
      <trkpt lat="46.971226" lon="10.558334">
        <ele>1123.739047</ele>
        <time>2024-08-23T08:23:53.000Z</time>
      </trkpt>
      <trkpt lat="46.971210" lon="10.558333">
        <ele>1123.971066</ele>
        <time>2024-08-23T08:23:54.000Z</time>
      </trkpt>
      <trkpt lat="46.971193" lon="10.558322">
        <ele>1124.240301</ele>
        <time>2024-08-23T08:23:55.000Z</time>
      </trkpt>
      <trkpt lat="46.971177" lon="10.558307">
        <ele>1124.515484</ele>
        <time>2024-08-23T08:23:56.000Z</time>
      </trkpt>
      <trkpt lat="46.971157" lon="10.558290">
        <ele>1124.850456</ele>
        <time>2024-08-23T08:23:57.000Z</time>
      </trkpt>
      <trkpt lat="46.971142" lon="10.558278">
        <ele>1125.098048</ele>
        <time>2024-08-23T08:23:58.000Z</time>
      </trkpt>
      <trkpt lat="46.971125" lon="10.558263">
        <ele>1125.385541</ele>
        <time>2024-08-23T08:23:59.000Z</time>
      </trkpt>
      <trkpt lat="46.971108" lon="10.558249">
        <ele>1125.668062</ele>
        <time>2024-08-23T08:24:00.000Z</time>
      </trkpt>
      <trkpt lat="46.971086" lon="10.558237">
        <ele>1126.008159</ele>
        <time>2024-08-23T08:24:01.000Z</time>
      </trkpt>
      <trkpt lat="46.971073" lon="10.558228">
        <ele>1126.216462</ele>
        <time>2024-08-23T08:24:02.000Z</time>
      </trkpt>
      <trkpt lat="46.971058" lon="10.558218">
        <ele>1126.455212</ele>
        <time>2024-08-23T08:24:03.000Z</time>
      </trkpt>
      <trkpt lat="46.971042" lon="10.558210">
        <ele>1126.700141</ele>
        <time>2024-08-23T08:24:04.000Z</time>
      </trkpt>
      <trkpt lat="46.971030" lon="10.558201">
        <ele>1126.895442</ele>
        <time>2024-08-23T08:24:05.000Z</time>
      </trkpt>
      <trkpt lat="46.971013" lon="10.558185">
        <ele>1127.188157</ele>
        <time>2024-08-23T08:24:06.000Z</time>
      </trkpt>
      <trkpt lat="46.970997" lon="10.558176">
        <ele>1127.436454</ele>
        <time>2024-08-23T08:24:07.000Z</time>
      </trkpt>
      <trkpt lat="46.970984" lon="10.558169">
        <ele>1127.637109</ele>
        <time>2024-08-23T08:24:08.000Z</time>
      </trkpt>
      <trkpt lat="46.970976" lon="10.558155">
        <ele>1127.817636</ele>
        <time>2024-08-23T08:24:09.000Z</time>
      </trkpt>
      <trkpt lat="46.970955" lon="10.558128">
        <ele>1128.222379</ele>
        <time>2024-08-23T08:24:10.000Z</time>
      </trkpt>
      <trkpt lat="46.970939" lon="10.558115">
        <ele>1128.487430</ele>
        <time>2024-08-23T08:24:11.000Z</time>
      </trkpt>
      <trkpt lat="46.970925" lon="10.558107">
        <ele>1128.705136</ele>
        <time>2024-08-23T08:24:12.000Z</time>
      </trkpt>
      <trkpt lat="46.970910" lon="10.558096">
        <ele>1128.948147</ele>
        <time>2024-08-23T08:24:13.000Z</time>
      </trkpt>
      <trkpt lat="46.970891" lon="10.558082">
        <ele>1129.256255</ele>
        <time>2024-08-23T08:24:14.000Z</time>
      </trkpt>
      <trkpt lat="46.970863" lon="10.558055">
        <ele>1129.741861</ele>
        <time>2024-08-23T08:24:15.000Z</time>
      </trkpt>
      <trkpt lat="46.970846" lon="10.558041">
        <ele>1130.024382</ele>
        <time>2024-08-23T08:24:16.000Z</time>
      </trkpt>
      <trkpt lat="46.970829" lon="10.558024">
        <ele>1130.322556</ele>
        <time>2024-08-23T08:24:17.000Z</time>
      </trkpt>
      <trkpt lat="46.970812" lon="10.558010">
        <ele>1130.605077</ele>
        <time>2024-08-23T08:24:18.000Z</time>
      </trkpt>
      <trkpt lat="46.970796" lon="10.557995">
        <ele>1130.880260</ele>
        <time>2024-08-23T08:24:19.000Z</time>
      </trkpt>
      <trkpt lat="46.970771" lon="10.557974">
        <ele>1131.297741</ele>
        <time>2024-08-23T08:24:20.000Z</time>
      </trkpt>
      <trkpt lat="46.970755" lon="10.557962">
        <ele>1131.558143</ele>
        <time>2024-08-23T08:24:21.000Z</time>
      </trkpt>
      <trkpt lat="46.970741" lon="10.557950">
        <ele>1131.793121</ele>
        <time>2024-08-23T08:24:22.000Z</time>
      </trkpt>
      <trkpt lat="46.970722" lon="10.557934">
        <ele>1132.110604</ele>
        <time>2024-08-23T08:24:23.000Z</time>
      </trkpt>
      <trkpt lat="46.970701" lon="10.557919">
        <ele>1132.449068</ele>
        <time>2024-08-23T08:24:24.000Z</time>
      </trkpt>
      <trkpt lat="46.970679" lon="10.557907">
        <ele>1132.789166</ele>
        <time>2024-08-23T08:24:25.000Z</time>
      </trkpt>
      <trkpt lat="46.970663" lon="10.557899">
        <ele>1133.034095</ele>
        <time>2024-08-23T08:24:26.000Z</time>
      </trkpt>
      <trkpt lat="46.970647" lon="10.557893">
        <ele>1133.273372</ele>
        <time>2024-08-23T08:24:27.000Z</time>
      </trkpt>
      <trkpt lat="46.970618" lon="10.557883">
        <ele>1133.683705</ele>
        <time>2024-08-23T08:24:28.000Z</time>
      </trkpt>
      <trkpt lat="46.970598" lon="10.557873">
        <ele>1133.949971</ele>
        <time>2024-08-23T08:24:29.000Z</time>
      </trkpt>
      <trkpt lat="46.970579" lon="10.557864">
        <ele>1134.201568</ele>
        <time>2024-08-23T08:24:30.000Z</time>
      </trkpt>
      <trkpt lat="46.970560" lon="10.557850">
        <ele>1134.469528</ele>
        <time>2024-08-23T08:24:31.000Z</time>
      </trkpt>
      <trkpt lat="46.970543" lon="10.557836">
        <ele>1134.715234</ele>
        <time>2024-08-23T08:24:32.000Z</time>
      </trkpt>
      <trkpt lat="46.970516" lon="10.557827">
        <ele>1135.064126</ele>
        <time>2024-08-23T08:24:33.000Z</time>
      </trkpt>
      <trkpt lat="46.970498" lon="10.557816">
        <ele>1135.309857</ele>
        <time>2024-08-23T08:24:34.000Z</time>
      </trkpt>
      <trkpt lat="46.970477" lon="10.557805">
        <ele>1135.590854</ele>
        <time>2024-08-23T08:24:35.000Z</time>
      </trkpt>
      <trkpt lat="46.970455" lon="10.557800">
        <ele>1135.871370</ele>
        <time>2024-08-23T08:24:36.000Z</time>
      </trkpt>
      <trkpt lat="46.970433" lon="10.557789">
        <ele>1136.164262</ele>
        <time>2024-08-23T08:24:37.000Z</time>
      </trkpt>
      <trkpt lat="46.970407" lon="10.557792">
        <ele>1136.492878</ele>
        <time>2024-08-23T08:24:38.000Z</time>
      </trkpt>
      <trkpt lat="46.970390" lon="10.557776">
        <ele>1136.747451</ele>
        <time>2024-08-23T08:24:39.000Z</time>
      </trkpt>
      <trkpt lat="46.970369" lon="10.557768">
        <ele>1137.020847</ele>
        <time>2024-08-23T08:24:40.000Z</time>
      </trkpt>
      <trkpt lat="46.970357" lon="10.557767">
        <ele>1137.172292</ele>
        <time>2024-08-23T08:24:41.000Z</time>
      </trkpt>
      <trkpt lat="46.970340" lon="10.557763">
        <ele>1137.389237</ele>
        <time>2024-08-23T08:24:42.000Z</time>
      </trkpt>
      <trkpt lat="46.970328" lon="10.557758">
        <ele>1137.546431</ele>
        <time>2024-08-23T08:24:43.000Z</time>
      </trkpt>
      <trkpt lat="46.970321" lon="10.557759">
        <ele>1137.635050</ele>
        <time>2024-08-23T08:24:44.000Z</time>
      </trkpt>
      <trkpt lat="46.970309" lon="10.557759">
        <ele>1137.786251</ele>
        <time>2024-08-23T08:24:45.000Z</time>
      </trkpt>
      <trkpt lat="46.970286" lon="10.557762">
        <ele>1138.077199</ele>
        <time>2024-08-23T08:24:46.000Z</time>
      </trkpt>
      <trkpt lat="46.970270" lon="10.557758">
        <ele>1138.281713</ele>
        <time>2024-08-23T08:24:47.000Z</time>
      </trkpt>
      <trkpt lat="46.970252" lon="10.557751">
        <ele>1138.516364</ele>
        <time>2024-08-23T08:24:48.000Z</time>
      </trkpt>
      <trkpt lat="46.970231" lon="10.557736">
        <ele>1138.810724</ele>
        <time>2024-08-23T08:24:49.000Z</time>
      </trkpt>
      <trkpt lat="46.970211" lon="10.557724">
        <ele>1139.083029</ele>
        <time>2024-08-23T08:24:50.000Z</time>
      </trkpt>
      <trkpt lat="46.970181" lon="10.557712">
        <ele>1139.474860</ele>
        <time>2024-08-23T08:24:51.000Z</time>
      </trkpt>
      <trkpt lat="46.970164" lon="10.557707">
        <ele>1139.693333</ele>
        <time>2024-08-23T08:24:52.000Z</time>
      </trkpt>
      <trkpt lat="46.970148" lon="10.557697">
        <ele>1139.912504</ele>
        <time>2024-08-23T08:24:53.000Z</time>
      </trkpt>
      <trkpt lat="46.970130" lon="10.557688">
        <ele>1140.152143</ele>
        <time>2024-08-23T08:24:54.000Z</time>
      </trkpt>
      <trkpt lat="46.970114" lon="10.557677">
        <ele>1140.374827</ele>
        <time>2024-08-23T08:24:55.000Z</time>
      </trkpt>
      <trkpt lat="46.970091" lon="10.557658">
        <ele>1140.707502</ele>
        <time>2024-08-23T08:24:56.000Z</time>
      </trkpt>
      <trkpt lat="46.970073" lon="10.557643">
        <ele>1140.968409</ele>
        <time>2024-08-23T08:24:57.000Z</time>
      </trkpt>
      <trkpt lat="46.970057" lon="10.557627">
        <ele>1141.212476</ele>
        <time>2024-08-23T08:24:58.000Z</time>
      </trkpt>
      <trkpt lat="46.970039" lon="10.557609">
        <ele>1141.487050</ele>
        <time>2024-08-23T08:24:59.000Z</time>
      </trkpt>
      <trkpt lat="46.970007" lon="10.557584">
        <ele>1141.943971</ele>
        <time>2024-08-23T08:25:00.000Z</time>
      </trkpt>
      <trkpt lat="46.969990" lon="10.557568">
        <ele>1142.198544</ele>
        <time>2024-08-23T08:25:01.000Z</time>
      </trkpt>
      <trkpt lat="46.969972" lon="10.557555">
        <ele>1142.451393</ele>
        <time>2024-08-23T08:25:02.000Z</time>
      </trkpt>
      <trkpt lat="46.969954" lon="10.557540">
        <ele>1142.712300</ele>
        <time>2024-08-23T08:25:03.000Z</time>
      </trkpt>
      <trkpt lat="46.969930" lon="10.557517">
        <ele>1143.073623</ele>
        <time>2024-08-23T08:25:04.000Z</time>
      </trkpt>
      <trkpt lat="46.969916" lon="10.557498">
        <ele>1143.314050</ele>
        <time>2024-08-23T08:25:05.000Z</time>
      </trkpt>
      <trkpt lat="46.969903" lon="10.557482">
        <ele>1143.527957</ele>
        <time>2024-08-23T08:25:06.000Z</time>
      </trkpt>
      <trkpt lat="46.969889" lon="10.557468">
        <ele>1143.741515</ele>
        <time>2024-08-23T08:25:07.000Z</time>
      </trkpt>
      <trkpt lat="46.969877" lon="10.557455">
        <ele>1143.929546</ele>
        <time>2024-08-23T08:25:08.000Z</time>
      </trkpt>
      <trkpt lat="46.969855" lon="10.557430">
        <ele>1144.280324</ele>
        <time>2024-08-23T08:25:09.000Z</time>
      </trkpt>
      <trkpt lat="46.969839" lon="10.557409">
        <ele>1144.550962</ele>
        <time>2024-08-23T08:25:10.000Z</time>
      </trkpt>
      <trkpt lat="46.969822" lon="10.557391">
        <ele>1144.815225</ele>
        <time>2024-08-23T08:25:11.000Z</time>
      </trkpt>
      <trkpt lat="46.969807" lon="10.557373">
        <ele>1145.059507</ele>
        <time>2024-08-23T08:25:12.000Z</time>
      </trkpt>
      <trkpt lat="46.969786" lon="10.557344">
        <ele>1145.423082</ele>
        <time>2024-08-23T08:25:13.000Z</time>
      </trkpt>
      <trkpt lat="46.969770" lon="10.557324">
        <ele>1145.688062</ele>
        <time>2024-08-23T08:25:14.000Z</time>
      </trkpt>
      <trkpt lat="46.969759" lon="10.557309">
        <ele>1145.877387</ele>
        <time>2024-08-23T08:25:15.000Z</time>
      </trkpt>
      <trkpt lat="46.969748" lon="10.557296">
        <ele>1146.055443</ele>
        <time>2024-08-23T08:25:16.000Z</time>
      </trkpt>
      <trkpt lat="46.969736" lon="10.557283">
        <ele>1146.243473</ele>
        <time>2024-08-23T08:25:17.000Z</time>
      </trkpt>
      <trkpt lat="46.969717" lon="10.557270">
        <ele>1146.507683</ele>
        <time>2024-08-23T08:25:18.000Z</time>
      </trkpt>
      <trkpt lat="46.969707" lon="10.557267">
        <ele>1146.636297</ele>
        <time>2024-08-23T08:25:19.000Z</time>
      </trkpt>
      <trkpt lat="46.969705" lon="10.557263">
        <ele>1146.678934</ele>
        <time>2024-08-23T08:25:20.000Z</time>
      </trkpt>
      <trkpt lat="46.969699" lon="10.557257">
        <ele>1146.770459</ele>
        <time>2024-08-23T08:25:21.000Z</time>
      </trkpt>
      <trkpt lat="46.969678" lon="10.557230">
        <ele>1147.122464</ele>
        <time>2024-08-23T08:25:22.000Z</time>
      </trkpt>
      <trkpt lat="46.969659" lon="10.557218">
        <ele>1147.383153</ele>
        <time>2024-08-23T08:25:23.000Z</time>
      </trkpt>
      <trkpt lat="46.969641" lon="10.557207">
        <ele>1147.628885</ele>
        <time>2024-08-23T08:25:24.000Z</time>
      </trkpt>
      <trkpt lat="46.969624" lon="10.557197">
        <ele>1147.859699</ele>
        <time>2024-08-23T08:25:25.000Z</time>
      </trkpt>
      <trkpt lat="46.969610" lon="10.557188">
        <ele>1148.052327</ele>
        <time>2024-08-23T08:25:26.000Z</time>
      </trkpt>
      <trkpt lat="46.969584" lon="10.557177">
        <ele>1148.393309</ele>
        <time>2024-08-23T08:25:27.000Z</time>
      </trkpt>
      <trkpt lat="46.969565" lon="10.557169">
        <ele>1148.642396</ele>
        <time>2024-08-23T08:25:28.000Z</time>
      </trkpt>
      <trkpt lat="46.969547" lon="10.557157">
        <ele>1148.891564</ele>
        <time>2024-08-23T08:25:29.000Z</time>
      </trkpt>
      <trkpt lat="46.969527" lon="10.557143">
        <ele>1149.170839</ele>
        <time>2024-08-23T08:25:30.000Z</time>
      </trkpt>
      <trkpt lat="46.969496" lon="10.557135">
        <ele>1149.567452</ele>
        <time>2024-08-23T08:25:31.000Z</time>
      </trkpt>
      <trkpt lat="46.969476" lon="10.557129">
        <ele>1149.824681</ele>
        <time>2024-08-23T08:25:32.000Z</time>
      </trkpt>
      <trkpt lat="46.969458" lon="10.557121">
        <ele>1150.061684</ele>
        <time>2024-08-23T08:25:33.000Z</time>
      </trkpt>
      <trkpt lat="46.969440" lon="10.557113">
        <ele>1150.298686</ele>
        <time>2024-08-23T08:25:34.000Z</time>
      </trkpt>
      <trkpt lat="46.969424" lon="10.557104">
        <ele>1150.514629</ele>
        <time>2024-08-23T08:25:35.000Z</time>
      </trkpt>
      <trkpt lat="46.969400" lon="10.557102">
        <ele>1150.817520</ele>
        <time>2024-08-23T08:25:36.000Z</time>
      </trkpt>
      <trkpt lat="46.969384" lon="10.557094">
        <ele>1151.030533</ele>
        <time>2024-08-23T08:25:37.000Z</time>
      </trkpt>
      <trkpt lat="46.969371" lon="10.557090">
        <ele>1151.197906</ele>
        <time>2024-08-23T08:25:38.000Z</time>
      </trkpt>
      <trkpt lat="46.969358" lon="10.557092">
        <ele>1151.362607</ele>
        <time>2024-08-23T08:25:39.000Z</time>
      </trkpt>
      <trkpt lat="46.969343" lon="10.557092">
        <ele>1151.551609</ele>
        <time>2024-08-23T08:25:40.000Z</time>
      </trkpt>
      <trkpt lat="46.969315" lon="10.557079">
        <ele>1151.921695</ele>
        <time>2024-08-23T08:25:41.000Z</time>
      </trkpt>
      <trkpt lat="46.969297" lon="10.557068">
        <ele>1152.167427</ele>
        <time>2024-08-23T08:25:42.000Z</time>
      </trkpt>
      <trkpt lat="46.969281" lon="10.557057">
        <ele>1152.390112</ele>
        <time>2024-08-23T08:25:43.000Z</time>
      </trkpt>
      <trkpt lat="46.969265" lon="10.557047">
        <ele>1152.609283</ele>
        <time>2024-08-23T08:25:44.000Z</time>
      </trkpt>
      <trkpt lat="46.969247" lon="10.557039">
        <ele>1152.846286</ele>
        <time>2024-08-23T08:25:45.000Z</time>
      </trkpt>
      <trkpt lat="46.969225" lon="10.557030">
        <ele>1153.134086</ele>
        <time>2024-08-23T08:25:46.000Z</time>
      </trkpt>
      <trkpt lat="46.969212" lon="10.557036">
        <ele>1153.305820</ele>
        <time>2024-08-23T08:25:47.000Z</time>
      </trkpt>
      <trkpt lat="46.969198" lon="10.557034">
        <ele>1153.483057</ele>
        <time>2024-08-23T08:25:48.000Z</time>
      </trkpt>
      <trkpt lat="46.969181" lon="10.557031">
        <ele>1153.698806</ele>
        <time>2024-08-23T08:25:49.000Z</time>
      </trkpt>
      <trkpt lat="46.969156" lon="10.557029">
        <ele>1154.014277</ele>
        <time>2024-08-23T08:25:50.000Z</time>
      </trkpt>
      <trkpt lat="46.969139" lon="10.557021">
        <ele>1154.239252</ele>
        <time>2024-08-23T08:25:51.000Z</time>
      </trkpt>
      <trkpt lat="46.969123" lon="10.557016">
        <ele>1154.445387</ele>
        <time>2024-08-23T08:25:52.000Z</time>
      </trkpt>
      <trkpt lat="46.969108" lon="10.557014">
        <ele>1154.635169</ele>
        <time>2024-08-23T08:25:53.000Z</time>
      </trkpt>
      <trkpt lat="46.969084" lon="10.557011">
        <ele>1154.938669</ele>
        <time>2024-08-23T08:25:54.000Z</time>
      </trkpt>
      <trkpt lat="46.969069" lon="10.557007">
        <ele>1155.130774</ele>
        <time>2024-08-23T08:25:55.000Z</time>
      </trkpt>
      <trkpt lat="46.969057" lon="10.557000">
        <ele>1155.293514</ele>
        <time>2024-08-23T08:25:56.000Z</time>
      </trkpt>
      <trkpt lat="46.969042" lon="10.556991">
        <ele>1155.497744</ele>
        <time>2024-08-23T08:25:57.000Z</time>
      </trkpt>
      <trkpt lat="46.969025" lon="10.556988">
        <ele>1155.713493</ele>
        <time>2024-08-23T08:25:58.000Z</time>
      </trkpt>
      <trkpt lat="46.969001" lon="10.556979">
        <ele>1156.025639</ele>
        <time>2024-08-23T08:25:59.000Z</time>
      </trkpt>
      <trkpt lat="46.968983" lon="10.556972">
        <ele>1156.259588</ele>
        <time>2024-08-23T08:26:00.000Z</time>
      </trkpt>
      <trkpt lat="46.968966" lon="10.556966">
        <ele>1156.477131</ele>
        <time>2024-08-23T08:26:01.000Z</time>
      </trkpt>
      <trkpt lat="46.968952" lon="10.556963">
        <ele>1156.653156</ele>
        <time>2024-08-23T08:26:02.000Z</time>
      </trkpt>
      <trkpt lat="46.968930" lon="10.556964">
        <ele>1156.926987</ele>
        <time>2024-08-23T08:26:03.000Z</time>
      </trkpt>
      <trkpt lat="46.968916" lon="10.556961">
        <ele>1157.103012</ele>
        <time>2024-08-23T08:26:04.000Z</time>
      </trkpt>
      <trkpt lat="46.968898" lon="10.556954">
        <ele>1157.334700</ele>
        <time>2024-08-23T08:26:05.000Z</time>
      </trkpt>
      <trkpt lat="46.968880" lon="10.556949">
        <ele>1157.562623</ele>
        <time>2024-08-23T08:26:06.000Z</time>
      </trkpt>
      <trkpt lat="46.968861" lon="10.556945">
        <ele>1157.801427</ele>
        <time>2024-08-23T08:26:07.000Z</time>
      </trkpt>
      <trkpt lat="46.968835" lon="10.556937">
        <ele>1158.131944</ele>
        <time>2024-08-23T08:26:08.000Z</time>
      </trkpt>
      <trkpt lat="46.968815" lon="10.556930">
        <ele>1158.387760</ele>
        <time>2024-08-23T08:26:09.000Z</time>
      </trkpt>
      <trkpt lat="46.968796" lon="10.556922">
        <ele>1158.633701</ele>
        <time>2024-08-23T08:26:10.000Z</time>
      </trkpt>
      <trkpt lat="46.968780" lon="10.556908">
        <ele>1158.865539</ele>
        <time>2024-08-23T08:26:11.000Z</time>
      </trkpt>
      <trkpt lat="46.968755" lon="10.556887">
        <ele>1159.224036</ele>
        <time>2024-08-23T08:26:12.000Z</time>
      </trkpt>
      <trkpt lat="46.968738" lon="10.556877">
        <ele>1159.451934</ele>
        <time>2024-08-23T08:26:13.000Z</time>
      </trkpt>
      <trkpt lat="46.968720" lon="10.556875">
        <ele>1159.676513</ele>
        <time>2024-08-23T08:26:14.000Z</time>
      </trkpt>
      <trkpt lat="46.968704" lon="10.556868">
        <ele>1159.884249</ele>
        <time>2024-08-23T08:26:15.000Z</time>
      </trkpt>
      <trkpt lat="46.968688" lon="10.556859">
        <ele>1160.097464</ele>
        <time>2024-08-23T08:26:16.000Z</time>
      </trkpt>
      <trkpt lat="46.968661" lon="10.556847">
        <ele>1160.448477</ele>
        <time>2024-08-23T08:26:17.000Z</time>
      </trkpt>
      <trkpt lat="46.968646" lon="10.556839">
        <ele>1160.647065</ele>
        <time>2024-08-23T08:26:18.000Z</time>
      </trkpt>
      <trkpt lat="46.968630" lon="10.556828">
        <ele>1160.866937</ele>
        <time>2024-08-23T08:26:19.000Z</time>
      </trkpt>
      <trkpt lat="46.968615" lon="10.556821">
        <ele>1161.062785</ele>
        <time>2024-08-23T08:26:20.000Z</time>
      </trkpt>
      <trkpt lat="46.968590" lon="10.556800">
        <ele>1161.421281</ele>
        <time>2024-08-23T08:26:21.000Z</time>
      </trkpt>
      <trkpt lat="46.968575" lon="10.556785">
        <ele>1161.647204</ele>
        <time>2024-08-23T08:26:22.000Z</time>
      </trkpt>
      <trkpt lat="46.968560" lon="10.556777">
        <ele>1161.845793</ele>
        <time>2024-08-23T08:26:23.000Z</time>
      </trkpt>
      <trkpt lat="46.968544" lon="10.556769">
        <ele>1162.056115</ele>
        <time>2024-08-23T08:26:24.000Z</time>
      </trkpt>
      <trkpt lat="46.968518" lon="10.556748">
        <ele>1162.425457</ele>
        <time>2024-08-23T08:26:25.000Z</time>
      </trkpt>
      <trkpt lat="46.968503" lon="10.556737">
        <ele>1162.634132</ele>
        <time>2024-08-23T08:26:26.000Z</time>
      </trkpt>
      <trkpt lat="46.968487" lon="10.556725">
        <ele>1162.857742</ele>
        <time>2024-08-23T08:26:27.000Z</time>
      </trkpt>
      <trkpt lat="46.968470" lon="10.556716">
        <ele>1163.082616</ele>
        <time>2024-08-23T08:26:28.000Z</time>
      </trkpt>
      <trkpt lat="46.968455" lon="10.556707">
        <ele>1163.284266</ele>
        <time>2024-08-23T08:26:29.000Z</time>
      </trkpt>
      <trkpt lat="46.968433" lon="10.556693">
        <ele>1163.582659</ele>
        <time>2024-08-23T08:26:30.000Z</time>
      </trkpt>
      <trkpt lat="46.968418" lon="10.556681">
        <ele>1163.795269</ele>
        <time>2024-08-23T08:26:31.000Z</time>
      </trkpt>
      <trkpt lat="46.968405" lon="10.556672">
        <ele>1163.974141</ele>
        <time>2024-08-23T08:26:32.000Z</time>
      </trkpt>
      <trkpt lat="46.968392" lon="10.556660">
        <ele>1164.165285</ele>
        <time>2024-08-23T08:26:33.000Z</time>
      </trkpt>
      <trkpt lat="46.968369" lon="10.556644">
        <ele>1164.482030</ele>
        <time>2024-08-23T08:26:34.000Z</time>
      </trkpt>
      <trkpt lat="46.968354" lon="10.556635">
        <ele>1164.683680</ele>
        <time>2024-08-23T08:26:35.000Z</time>
      </trkpt>
      <trkpt lat="46.968338" lon="10.556621">
        <ele>1164.915519</ele>
        <time>2024-08-23T08:26:36.000Z</time>
      </trkpt>
      <trkpt lat="46.968323" lon="10.556604">
        <ele>1165.151431</ele>
        <time>2024-08-23T08:26:37.000Z</time>
      </trkpt>
      <trkpt lat="46.968309" lon="10.556590">
        <ele>1165.362293</ele>
        <time>2024-08-23T08:26:38.000Z</time>
      </trkpt>
      <trkpt lat="46.968284" lon="10.556566">
        <ele>1165.734113</ele>
        <time>2024-08-23T08:26:39.000Z</time>
      </trkpt>
      <trkpt lat="46.968269" lon="10.556550">
        <ele>1165.964929</ele>
        <time>2024-08-23T08:26:40.000Z</time>
      </trkpt>
      <trkpt lat="46.968256" lon="10.556530">
        <ele>1166.199422</ele>
        <time>2024-08-23T08:26:41.000Z</time>
      </trkpt>
      <trkpt lat="46.968243" lon="10.556509">
        <ele>1166.440134</ele>
        <time>2024-08-23T08:26:42.000Z</time>
      </trkpt>
      <trkpt lat="46.968226" lon="10.556475">
        <ele>1166.797974</ele>
        <time>2024-08-23T08:26:43.000Z</time>
      </trkpt>
      <trkpt lat="46.968212" lon="10.556456">
        <ele>1167.035366</ele>
        <time>2024-08-23T08:26:44.000Z</time>
      </trkpt>
      <trkpt lat="46.968200" lon="10.556434">
        <ele>1167.274474</ele>
        <time>2024-08-23T08:26:45.000Z</time>
      </trkpt>
      <trkpt lat="46.968188" lon="10.556414">
        <ele>1167.500566</ele>
        <time>2024-08-23T08:26:46.000Z</time>
      </trkpt>
      <trkpt lat="46.968178" lon="10.556392">
        <ele>1167.724981</ele>
        <time>2024-08-23T08:26:47.000Z</time>
      </trkpt>
      <trkpt lat="46.968163" lon="10.556362">
        <ele>1168.040722</ele>
        <time>2024-08-23T08:26:48.000Z</time>
      </trkpt>
      <trkpt lat="46.968151" lon="10.556338">
        <ele>1168.293315</ele>
        <time>2024-08-23T08:26:49.000Z</time>
      </trkpt>
      <trkpt lat="46.968143" lon="10.556318">
        <ele>1168.490130</ele>
        <time>2024-08-23T08:26:50.000Z</time>
      </trkpt>
      <trkpt lat="46.968133" lon="10.556298">
        <ele>1168.700624</ele>
        <time>2024-08-23T08:26:51.000Z</time>
      </trkpt>
      <trkpt lat="46.968125" lon="10.556279">
        <ele>1168.890162</ele>
        <time>2024-08-23T08:26:52.000Z</time>
      </trkpt>
      <trkpt lat="46.968117" lon="10.556247">
        <ele>1169.179491</ele>
        <time>2024-08-23T08:26:53.000Z</time>
      </trkpt>
      <trkpt lat="46.968109" lon="10.556224">
        <ele>1169.398657</ele>
        <time>2024-08-23T08:26:54.000Z</time>
      </trkpt>
      <trkpt lat="46.968101" lon="10.556203">
        <ele>1169.602841</ele>
        <time>2024-08-23T08:26:55.000Z</time>
      </trkpt>
      <trkpt lat="46.968092" lon="10.556184">
        <ele>1169.799198</ele>
        <time>2024-08-23T08:26:56.000Z</time>
      </trkpt>
      <trkpt lat="46.968083" lon="10.556150">
        <ele>1170.108804</ele>
        <time>2024-08-23T08:26:57.000Z</time>
      </trkpt>
      <trkpt lat="46.968077" lon="10.556126">
        <ele>1170.325801</ele>
        <time>2024-08-23T08:26:58.000Z</time>
      </trkpt>
      <trkpt lat="46.968070" lon="10.556101">
        <ele>1170.555216</ele>
        <time>2024-08-23T08:26:59.000Z</time>
      </trkpt>
      <trkpt lat="46.968065" lon="10.556076">
        <ele>1170.776387</ele>
        <time>2024-08-23T08:27:00.000Z</time>
      </trkpt>
      <trkpt lat="46.968053" lon="10.556042">
        <ele>1171.101360</ele>
        <time>2024-08-23T08:27:01.000Z</time>
      </trkpt>
      <trkpt lat="46.968043" lon="10.556020">
        <ele>1171.325776</ele>
        <time>2024-08-23T08:27:02.000Z</time>
      </trkpt>
      <trkpt lat="46.968032" lon="10.555996">
        <ele>1171.571221</ele>
        <time>2024-08-23T08:27:03.000Z</time>
      </trkpt>
      <trkpt lat="46.968020" lon="10.555975">
        <ele>1171.803758</ele>
        <time>2024-08-23T08:27:04.000Z</time>
      </trkpt>
      <trkpt lat="46.968006" lon="10.555953">
        <ele>1172.059141</ele>
        <time>2024-08-23T08:27:05.000Z</time>
      </trkpt>
      <trkpt lat="46.967990" lon="10.555927">
        <ele>1172.356372</ele>
        <time>2024-08-23T08:27:06.000Z</time>
      </trkpt>
      <trkpt lat="46.967979" lon="10.555907">
        <ele>1172.574450</ele>
        <time>2024-08-23T08:27:07.000Z</time>
      </trkpt>
      <trkpt lat="46.967969" lon="10.555888">
        <ele>1172.778158</ele>
        <time>2024-08-23T08:27:08.000Z</time>
      </trkpt>
      <trkpt lat="46.967956" lon="10.555871">
        <ele>1172.994923</ele>
        <time>2024-08-23T08:27:09.000Z</time>
      </trkpt>
      <trkpt lat="46.967935" lon="10.555845">
        <ele>1173.336946</ele>
        <time>2024-08-23T08:27:10.000Z</time>
      </trkpt>
      <trkpt lat="46.967922" lon="10.555827">
        <ele>1173.559454</ele>
        <time>2024-08-23T08:27:11.000Z</time>
      </trkpt>
      <trkpt lat="46.967907" lon="10.555806">
        <ele>1173.817544</ele>
        <time>2024-08-23T08:27:12.000Z</time>
      </trkpt>
      <trkpt lat="46.967891" lon="10.555789">
        <ele>1174.063415</ele>
        <time>2024-08-23T08:27:13.000Z</time>
      </trkpt>
      <trkpt lat="46.967874" lon="10.555777">
        <ele>1174.298168</ele>
        <time>2024-08-23T08:27:14.000Z</time>
      </trkpt>
      <trkpt lat="46.967846" lon="10.555751">
        <ele>1174.710561</ele>
        <time>2024-08-23T08:27:15.000Z</time>
      </trkpt>
      <trkpt lat="46.967828" lon="10.555737">
        <ele>1174.964085</ele>
        <time>2024-08-23T08:27:16.000Z</time>
      </trkpt>
      <trkpt lat="46.967812" lon="10.555724">
        <ele>1175.191689</ele>
        <time>2024-08-23T08:27:17.000Z</time>
      </trkpt>
      <trkpt lat="46.967795" lon="10.555715">
        <ele>1175.416563</ele>
        <time>2024-08-23T08:27:18.000Z</time>
      </trkpt>
      <trkpt lat="46.967778" lon="10.555703">
        <ele>1175.651317</ele>
        <time>2024-08-23T08:27:19.000Z</time>
      </trkpt>
      <trkpt lat="46.967756" lon="10.555680">
        <ele>1175.987531</ele>
        <time>2024-08-23T08:27:20.000Z</time>
      </trkpt>
      <trkpt lat="46.967742" lon="10.555668">
        <ele>1176.189311</ele>
        <time>2024-08-23T08:27:21.000Z</time>
      </trkpt>
      <trkpt lat="46.967728" lon="10.555656">
        <ele>1176.391091</ele>
        <time>2024-08-23T08:27:22.000Z</time>
      </trkpt>
      <trkpt lat="46.967712" lon="10.555645">
        <ele>1176.610963</ele>
        <time>2024-08-23T08:27:23.000Z</time>
      </trkpt>
      <trkpt lat="46.967689" lon="10.555622">
        <ele>1176.957381</ele>
        <time>2024-08-23T08:27:24.000Z</time>
      </trkpt>
      <trkpt lat="46.967676" lon="10.555607">
        <ele>1177.163231</ele>
        <time>2024-08-23T08:27:25.000Z</time>
      </trkpt>
      <trkpt lat="46.967665" lon="10.555594">
        <ele>1177.339040</ele>
        <time>2024-08-23T08:27:26.000Z</time>
      </trkpt>
      <trkpt lat="46.967652" lon="10.555586">
        <ele>1177.514454</ele>
        <time>2024-08-23T08:27:27.000Z</time>
      </trkpt>
      <trkpt lat="46.967640" lon="10.555575">
        <ele>1177.690548</ele>
        <time>2024-08-23T08:27:28.000Z</time>
      </trkpt>
      <trkpt lat="46.967620" lon="10.555555">
        <ele>1177.991781</ele>
        <time>2024-08-23T08:27:29.000Z</time>
      </trkpt>
      <trkpt lat="46.967609" lon="10.555540">
        <ele>1178.178717</ele>
        <time>2024-08-23T08:27:30.000Z</time>
      </trkpt>
      <trkpt lat="46.967595" lon="10.555526">
        <ele>1178.389580</ele>
        <time>2024-08-23T08:27:31.000Z</time>
      </trkpt>
      <trkpt lat="46.967580" lon="10.555510">
        <ele>1178.622143</ele>
        <time>2024-08-23T08:27:32.000Z</time>
      </trkpt>
      <trkpt lat="46.967559" lon="10.555494">
        <ele>1178.929790</ele>
        <time>2024-08-23T08:27:33.000Z</time>
      </trkpt>
      <trkpt lat="46.967546" lon="10.555484">
        <ele>1179.120629</ele>
        <time>2024-08-23T08:27:34.000Z</time>
      </trkpt>
      <trkpt lat="46.967530" lon="10.555465">
        <ele>1179.388309</ele>
        <time>2024-08-23T08:27:35.000Z</time>
      </trkpt>
      <trkpt lat="46.967515" lon="10.555451">
        <ele>1179.619466</ele>
        <time>2024-08-23T08:27:36.000Z</time>
      </trkpt>
      <trkpt lat="46.967501" lon="10.555437">
        <ele>1179.839771</ele>
        <time>2024-08-23T08:27:37.000Z</time>
      </trkpt>
      <trkpt lat="46.967483" lon="10.555419">
        <ele>1180.123020</ele>
        <time>2024-08-23T08:27:38.000Z</time>
      </trkpt>
      <trkpt lat="46.967470" lon="10.555407">
        <ele>1180.322724</ele>
        <time>2024-08-23T08:27:39.000Z</time>
      </trkpt>
      <trkpt lat="46.967458" lon="10.555393">
        <ele>1180.522095</ele>
        <time>2024-08-23T08:27:40.000Z</time>
      </trkpt>
      <trkpt lat="46.967442" lon="10.555380">
        <ele>1180.759891</ele>
        <time>2024-08-23T08:27:41.000Z</time>
      </trkpt>
      <trkpt lat="46.967422" lon="10.555357">
        <ele>1181.090343</ele>
        <time>2024-08-23T08:27:42.000Z</time>
      </trkpt>
      <trkpt lat="46.967406" lon="10.555347">
        <ele>1181.316436</ele>
        <time>2024-08-23T08:27:43.000Z</time>
      </trkpt>
      <trkpt lat="46.967390" lon="10.555332">
        <ele>1181.563322</ele>
        <time>2024-08-23T08:27:44.000Z</time>
      </trkpt>
      <trkpt lat="46.967377" lon="10.555317">
        <ele>1181.778390</ele>
        <time>2024-08-23T08:27:45.000Z</time>
      </trkpt>
      <trkpt lat="46.967363" lon="10.555303">
        <ele>1181.998695</ele>
        <time>2024-08-23T08:27:46.000Z</time>
      </trkpt>
      <trkpt lat="46.967343" lon="10.555280">
        <ele>1182.329147</ele>
        <time>2024-08-23T08:27:47.000Z</time>
      </trkpt>
      <trkpt lat="46.967329" lon="10.555266">
        <ele>1182.549452</ele>
        <time>2024-08-23T08:27:48.000Z</time>
      </trkpt>
      <trkpt lat="46.967315" lon="10.555248">
        <ele>1182.791537</ele>
        <time>2024-08-23T08:27:49.000Z</time>
      </trkpt>
      <trkpt lat="46.967301" lon="10.555231">
        <ele>1183.027865</ele>
        <time>2024-08-23T08:27:50.000Z</time>
      </trkpt>
      <trkpt lat="46.967283" lon="10.555201">
        <ele>1183.382193</ele>
        <time>2024-08-23T08:27:51.000Z</time>
      </trkpt>
      <trkpt lat="46.967268" lon="10.555180">
        <ele>1183.651840</ele>
        <time>2024-08-23T08:27:52.000Z</time>
      </trkpt>
      <trkpt lat="46.967254" lon="10.555159">
        <ele>1183.912244</ele>
        <time>2024-08-23T08:27:53.000Z</time>
      </trkpt>
      <trkpt lat="46.967240" lon="10.555138">
        <ele>1184.172648</ele>
        <time>2024-08-23T08:27:54.000Z</time>
      </trkpt>
      <trkpt lat="46.967226" lon="10.555117">
        <ele>1184.433052</ele>
        <time>2024-08-23T08:27:55.000Z</time>
      </trkpt>
      <trkpt lat="46.967209" lon="10.555085">
        <ele>1184.792762</ele>
        <time>2024-08-23T08:27:56.000Z</time>
      </trkpt>
      <trkpt lat="46.967196" lon="10.555064">
        <ele>1185.044255</ele>
        <time>2024-08-23T08:27:57.000Z</time>
      </trkpt>
      <trkpt lat="46.967186" lon="10.555040">
        <ele>1185.293680</ele>
        <time>2024-08-23T08:27:58.000Z</time>
      </trkpt>
      <trkpt lat="46.967176" lon="10.555020">
        <ele>1185.513602</ele>
        <time>2024-08-23T08:27:59.000Z</time>
      </trkpt>
      <trkpt lat="46.967162" lon="10.554988">
        <ele>1185.850766</ele>
        <time>2024-08-23T08:28:00.000Z</time>
      </trkpt>
      <trkpt lat="46.967151" lon="10.554968">
        <ele>1186.078611</ele>
        <time>2024-08-23T08:28:01.000Z</time>
      </trkpt>
      <trkpt lat="46.967136" lon="10.554947">
        <ele>1186.348259</ele>
        <time>2024-08-23T08:28:02.000Z</time>
      </trkpt>
      <trkpt lat="46.967118" lon="10.554929">
        <ele>1186.631508</ele>
        <time>2024-08-23T08:28:03.000Z</time>
      </trkpt>
      <trkpt lat="46.967090" lon="10.554901">
        <ele>1187.072119</ele>
        <time>2024-08-23T08:28:04.000Z</time>
      </trkpt>
      <trkpt lat="46.967075" lon="10.554886">
        <ele>1187.308160</ele>
        <time>2024-08-23T08:28:05.000Z</time>
      </trkpt>
      <trkpt lat="46.967059" lon="10.554867">
        <ele>1187.575841</ele>
        <time>2024-08-23T08:28:06.000Z</time>
      </trkpt>
      <trkpt lat="46.967043" lon="10.554853">
        <ele>1187.818063</ele>
        <time>2024-08-23T08:28:07.000Z</time>
      </trkpt>
      <trkpt lat="46.967028" lon="10.554842">
        <ele>1188.036083</ele>
        <time>2024-08-23T08:28:08.000Z</time>
      </trkpt>
      <trkpt lat="46.967005" lon="10.554823">
        <ele>1188.379268</ele>
        <time>2024-08-23T08:28:09.000Z</time>
      </trkpt>
      <trkpt lat="46.966989" lon="10.554808">
        <ele>1188.626154</ele>
        <time>2024-08-23T08:28:10.000Z</time>
      </trkpt>
      <trkpt lat="46.966974" lon="10.554796">
        <ele>1188.848287</ele>
        <time>2024-08-23T08:28:11.000Z</time>
      </trkpt>
      <trkpt lat="46.966958" lon="10.554780">
        <ele>1189.100064</ele>
        <time>2024-08-23T08:28:12.000Z</time>
      </trkpt>
      <trkpt lat="46.966944" lon="10.554769">
        <ele>1189.306543</ele>
        <time>2024-08-23T08:28:13.000Z</time>
      </trkpt>
      <trkpt lat="46.966924" lon="10.554754">
        <ele>1189.598573</ele>
        <time>2024-08-23T08:28:14.000Z</time>
      </trkpt>
      <trkpt lat="46.966910" lon="10.554740">
        <ele>1189.818878</ele>
        <time>2024-08-23T08:28:15.000Z</time>
      </trkpt>
      <trkpt lat="46.966894" lon="10.554729">
        <ele>1190.048597</ele>
        <time>2024-08-23T08:28:16.000Z</time>
      </trkpt>
      <trkpt lat="46.966878" lon="10.554719">
        <ele>1190.274690</ele>
        <time>2024-08-23T08:28:17.000Z</time>
      </trkpt>
      <trkpt lat="46.966856" lon="10.554703">
        <ele>1190.593927</ele>
        <time>2024-08-23T08:28:18.000Z</time>
      </trkpt>
      <trkpt lat="46.966843" lon="10.554694">
        <ele>1190.780809</ele>
        <time>2024-08-23T08:28:19.000Z</time>
      </trkpt>
      <trkpt lat="46.966829" lon="10.554683">
        <ele>1190.987288</ele>
        <time>2024-08-23T08:28:20.000Z</time>
      </trkpt>
      <trkpt lat="46.966813" lon="10.554671">
        <ele>1191.220912</ele>
        <time>2024-08-23T08:28:21.000Z</time>
      </trkpt>
      <trkpt lat="46.966796" lon="10.554658">
        <ele>1191.470155</ele>
        <time>2024-08-23T08:28:22.000Z</time>
      </trkpt>
      <trkpt lat="46.966771" lon="10.554640">
        <ele>1191.832210</ele>
        <time>2024-08-23T08:28:23.000Z</time>
      </trkpt>
      <trkpt lat="46.966754" lon="10.554629">
        <ele>1192.073759</ele>
        <time>2024-08-23T08:28:24.000Z</time>
      </trkpt>
      <trkpt lat="46.966737" lon="10.554617">
        <ele>1192.319025</ele>
        <time>2024-08-23T08:28:25.000Z</time>
      </trkpt>
      <trkpt lat="46.966718" lon="10.554608">
        <ele>1192.578568</ele>
        <time>2024-08-23T08:28:26.000Z</time>
      </trkpt>
      <trkpt lat="46.966692" lon="10.554585">
        <ele>1192.973320</ele>
        <time>2024-08-23T08:28:27.000Z</time>
      </trkpt>
      <trkpt lat="46.966676" lon="10.554572">
        <ele>1193.211117</ele>
        <time>2024-08-23T08:28:28.000Z</time>
      </trkpt>
      <trkpt lat="46.966661" lon="10.554560">
        <ele>1193.433249</ele>
        <time>2024-08-23T08:28:29.000Z</time>
      </trkpt>
      <trkpt lat="46.966645" lon="10.554547">
        <ele>1193.671045</ele>
        <time>2024-08-23T08:28:30.000Z</time>
      </trkpt>
      <trkpt lat="46.966630" lon="10.554536">
        <ele>1193.889067</ele>
        <time>2024-08-23T08:28:31.000Z</time>
      </trkpt>
      <trkpt lat="46.966608" lon="10.554520">
        <ele>1194.208303</ele>
        <time>2024-08-23T08:28:32.000Z</time>
      </trkpt>
      <trkpt lat="46.966596" lon="10.554506">
        <ele>1194.407676</ele>
        <time>2024-08-23T08:28:33.000Z</time>
      </trkpt>
      <trkpt lat="46.966582" lon="10.554494">
        <ele>1194.618492</ele>
        <time>2024-08-23T08:28:34.000Z</time>
      </trkpt>
      <trkpt lat="46.966570" lon="10.554482">
        <ele>1194.807326</ele>
        <time>2024-08-23T08:28:35.000Z</time>
      </trkpt>
      <trkpt lat="46.966550" lon="10.554464">
        <ele>1195.112401</ele>
        <time>2024-08-23T08:28:36.000Z</time>
      </trkpt>
      <trkpt lat="46.966533" lon="10.554454">
        <ele>1195.350505</ele>
        <time>2024-08-23T08:28:37.000Z</time>
      </trkpt>
      <trkpt lat="46.966514" lon="10.554445">
        <ele>1195.610048</ele>
        <time>2024-08-23T08:28:38.000Z</time>
      </trkpt>
      <trkpt lat="46.966499" lon="10.554431">
        <ele>1195.841207</ele>
        <time>2024-08-23T08:28:39.000Z</time>
      </trkpt>
      <trkpt lat="46.966485" lon="10.554418">
        <ele>1196.056637</ele>
        <time>2024-08-23T08:28:40.000Z</time>
      </trkpt>
      <trkpt lat="46.966466" lon="10.554394">
        <ele>1196.382688</ele>
        <time>2024-08-23T08:28:41.000Z</time>
      </trkpt>
      <trkpt lat="46.966452" lon="10.554381">
        <ele>1196.598119</ele>
        <time>2024-08-23T08:28:42.000Z</time>
      </trkpt>
      <trkpt lat="46.966435" lon="10.554373">
        <ele>1196.830199</ele>
        <time>2024-08-23T08:28:43.000Z</time>
      </trkpt>
      <trkpt lat="46.966417" lon="10.554362">
        <ele>1197.083693</ele>
        <time>2024-08-23T08:28:44.000Z</time>
      </trkpt>
      <trkpt lat="46.966392" lon="10.554344">
        <ele>1197.445748</ele>
        <time>2024-08-23T08:28:45.000Z</time>
      </trkpt>
      <trkpt lat="46.966376" lon="10.554336">
        <ele>1197.665489</ele>
        <time>2024-08-23T08:28:46.000Z</time>
      </trkpt>
      <trkpt lat="46.966363" lon="10.554324">
        <ele>1197.865193</ele>
        <time>2024-08-23T08:28:47.000Z</time>
      </trkpt>
      <trkpt lat="46.966347" lon="10.554316">
        <ele>1198.084934</ele>
        <time>2024-08-23T08:28:48.000Z</time>
      </trkpt>
      <trkpt lat="46.966323" lon="10.554302">
        <ele>1198.420694</ele>
        <time>2024-08-23T08:28:49.000Z</time>
      </trkpt>
      <trkpt lat="46.966311" lon="10.554290">
        <ele>1198.609527</ele>
        <time>2024-08-23T08:28:50.000Z</time>
      </trkpt>
      <trkpt lat="46.966296" lon="10.554279">
        <ele>1198.827549</ele>
        <time>2024-08-23T08:28:51.000Z</time>
      </trkpt>
      <trkpt lat="46.966281" lon="10.554271">
        <ele>1199.035030</ele>
        <time>2024-08-23T08:28:52.000Z</time>
      </trkpt>
      <trkpt lat="46.966264" lon="10.554260">
        <ele>1199.276579</ele>
        <time>2024-08-23T08:28:53.000Z</time>
      </trkpt>
      <trkpt lat="46.966239" lon="10.554243">
        <ele>1199.634812</ele>
        <time>2024-08-23T08:28:54.000Z</time>
      </trkpt>
      <trkpt lat="46.966223" lon="10.554233">
        <ele>1199.860905</ele>
        <time>2024-08-23T08:28:55.000Z</time>
      </trkpt>
      <trkpt lat="46.966209" lon="10.554224">
        <ele>1200.059618</ele>
        <time>2024-08-23T08:28:56.000Z</time>
      </trkpt>
      <trkpt lat="46.966193" lon="10.554212">
        <ele>1200.293242</ele>
        <time>2024-08-23T08:28:57.000Z</time>
      </trkpt>
      <trkpt lat="46.966177" lon="10.554204">
        <ele>1200.512983</ele>
        <time>2024-08-23T08:28:58.000Z</time>
      </trkpt>
      <trkpt lat="46.966153" lon="10.554191">
        <ele>1200.845564</ele>
        <time>2024-08-23T08:28:59.000Z</time>
      </trkpt>
      <trkpt lat="46.966135" lon="10.554184">
        <ele>1201.087627</ele>
        <time>2024-08-23T08:29:00.000Z</time>
      </trkpt>
      <trkpt lat="46.966119" lon="10.554173">
        <ele>1201.317345</ele>
        <time>2024-08-23T08:29:01.000Z</time>
      </trkpt>
      <trkpt lat="46.966103" lon="10.554161">
        <ele>1201.550970</ele>
        <time>2024-08-23T08:29:02.000Z</time>
      </trkpt>
      <trkpt lat="46.966080" lon="10.554143">
        <ele>1201.889888</ele>
        <time>2024-08-23T08:29:03.000Z</time>
      </trkpt>
      <trkpt lat="46.966064" lon="10.554129">
        <ele>1202.128476</ele>
        <time>2024-08-23T08:29:04.000Z</time>
      </trkpt>
      <trkpt lat="46.966050" lon="10.554120">
        <ele>1202.322990</ele>
        <time>2024-08-23T08:29:05.000Z</time>
      </trkpt>
      <trkpt lat="46.966036" lon="10.554111">
        <ele>1202.517504</ele>
        <time>2024-08-23T08:29:06.000Z</time>
      </trkpt>
      <trkpt lat="46.966021" lon="10.554101">
        <ele>1202.727178</ele>
        <time>2024-08-23T08:29:07.000Z</time>
      </trkpt>
      <trkpt lat="46.965994" lon="10.554092">
        <ele>1203.079484</ele>
        <time>2024-08-23T08:29:08.000Z</time>
      </trkpt>
      <trkpt lat="46.965976" lon="10.554079">
        <ele>1203.334810</ele>
        <time>2024-08-23T08:29:09.000Z</time>
      </trkpt>
      <trkpt lat="46.965959" lon="10.554066">
        <ele>1203.578788</ele>
        <time>2024-08-23T08:29:10.000Z</time>
      </trkpt>
      <trkpt lat="46.965942" lon="10.554058">
        <ele>1203.805965</ele>
        <time>2024-08-23T08:29:11.000Z</time>
      </trkpt>
      <trkpt lat="46.965912" lon="10.554048">
        <ele>1204.197416</ele>
        <time>2024-08-23T08:29:12.000Z</time>
      </trkpt>
      <trkpt lat="46.965892" lon="10.554038">
        <ele>1204.466288</ele>
        <time>2024-08-23T08:29:13.000Z</time>
      </trkpt>
      <trkpt lat="46.965875" lon="10.554034">
        <ele>1204.685356</ele>
        <time>2024-08-23T08:29:14.000Z</time>
      </trkpt>
      <trkpt lat="46.965860" lon="10.554021">
        <ele>1204.907087</ele>
        <time>2024-08-23T08:29:15.000Z</time>
      </trkpt>
      <trkpt lat="46.965843" lon="10.554010">
        <ele>1205.143533</ele>
        <time>2024-08-23T08:29:16.000Z</time>
      </trkpt>
      <trkpt lat="46.965818" lon="10.553986">
        <ele>1205.523800</ele>
        <time>2024-08-23T08:29:17.000Z</time>
      </trkpt>
      <trkpt lat="46.965801" lon="10.553971">
        <ele>1205.776282</ele>
        <time>2024-08-23T08:29:18.000Z</time>
      </trkpt>
      <trkpt lat="46.965784" lon="10.553958">
        <ele>1206.020261</ele>
        <time>2024-08-23T08:29:19.000Z</time>
      </trkpt>
      <trkpt lat="46.965764" lon="10.553947">
        <ele>1206.292062</ele>
        <time>2024-08-23T08:29:20.000Z</time>
      </trkpt>
      <trkpt lat="46.965746" lon="10.553930">
        <ele>1206.564529</ele>
        <time>2024-08-23T08:29:20.000Z</time>
      </trkpt>
      <trkpt lat="46.965727" lon="10.553921">
        <ele>1206.818589</ele>
        <time>2024-08-23T08:29:21.000Z</time>
      </trkpt>
      <trkpt lat="46.965663" lon="10.553899">
        <ele>1207.654988</ele>
        <time>2024-08-23T08:29:23.000Z</time>
      </trkpt>
      <trkpt lat="46.965632" lon="10.553882">
        <ele>1208.076127</ele>
        <time>2024-08-23T08:29:25.000Z</time>
      </trkpt>
      <trkpt lat="46.965609" lon="10.553873">
        <ele>1208.379019</ele>
        <time>2024-08-23T08:29:26.000Z</time>
      </trkpt>
      <trkpt lat="46.965582" lon="10.553864">
        <ele>1208.731325</ele>
        <time>2024-08-23T08:29:28.000Z</time>
      </trkpt>
      <trkpt lat="46.965566" lon="10.553867">
        <ele>1208.936558</ele>
        <time>2024-08-23T08:29:29.000Z</time>
      </trkpt>
      <trkpt lat="46.965543" lon="10.553864">
        <ele>1209.230352</ele>
        <time>2024-08-23T08:29:30.000Z</time>
      </trkpt>
      <trkpt lat="46.965527" lon="10.553856">
        <ele>1209.445450</ele>
        <time>2024-08-23T08:29:31.000Z</time>
      </trkpt>
      <trkpt lat="46.965509" lon="10.553844">
        <ele>1209.697058</ele>
        <time>2024-08-23T08:29:32.000Z</time>
      </trkpt>
      <trkpt lat="46.965491" lon="10.553834">
        <ele>1209.941985</ele>
        <time>2024-08-23T08:29:33.000Z</time>
      </trkpt>
      <trkpt lat="46.965472" lon="10.553830">
        <ele>1210.186211</ele>
        <time>2024-08-23T08:29:34.000Z</time>
      </trkpt>
      <trkpt lat="46.965440" lon="10.553808">
        <ele>1210.635943</ele>
        <time>2024-08-23T08:29:35.000Z</time>
      </trkpt>
      <trkpt lat="46.965423" lon="10.553797">
        <ele>1210.872389</ele>
        <time>2024-08-23T08:29:36.000Z</time>
      </trkpt>
      <trkpt lat="46.965407" lon="10.553791">
        <ele>1211.082523</ele>
        <time>2024-08-23T08:29:37.000Z</time>
      </trkpt>
      <trkpt lat="46.965390" lon="10.553787">
        <ele>1211.301590</ele>
        <time>2024-08-23T08:29:38.000Z</time>
      </trkpt>
      <trkpt lat="46.965362" lon="10.553770">
        <ele>1211.687213</ele>
        <time>2024-08-23T08:29:39.000Z</time>
      </trkpt>
      <trkpt lat="46.965345" lon="10.553762">
        <ele>1211.914390</ele>
        <time>2024-08-23T08:29:40.000Z</time>
      </trkpt>
      <trkpt lat="46.965328" lon="10.553756">
        <ele>1212.136873</ele>
        <time>2024-08-23T08:29:41.000Z</time>
      </trkpt>
      <trkpt lat="46.965308" lon="10.553746">
        <ele>1212.405745</ele>
        <time>2024-08-23T08:29:42.000Z</time>
      </trkpt>
      <trkpt lat="46.965289" lon="10.553738">
        <ele>1212.657271</ele>
        <time>2024-08-23T08:29:43.000Z</time>
      </trkpt>
      <trkpt lat="46.965264" lon="10.553726">
        <ele>1212.991985</ele>
        <time>2024-08-23T08:29:44.000Z</time>
      </trkpt>
      <trkpt lat="46.965246" lon="10.553722">
        <ele>1213.223624</ele>
        <time>2024-08-23T08:29:45.000Z</time>
      </trkpt>
      <trkpt lat="46.965229" lon="10.553715">
        <ele>1213.448298</ele>
        <time>2024-08-23T08:29:46.000Z</time>
      </trkpt>
      <trkpt lat="46.965214" lon="10.553711">
        <ele>1213.642283</ele>
        <time>2024-08-23T08:29:47.000Z</time>
      </trkpt>
      <trkpt lat="46.965189" lon="10.553698">
        <ele>1213.979801</ele>
        <time>2024-08-23T08:29:48.000Z</time>
      </trkpt>
      <trkpt lat="46.965174" lon="10.553694">
        <ele>1214.173785</ele>
        <time>2024-08-23T08:29:49.000Z</time>
      </trkpt>
      <trkpt lat="46.965158" lon="10.553691">
        <ele>1214.379019</ele>
        <time>2024-08-23T08:29:50.000Z</time>
      </trkpt>
      <trkpt lat="46.965143" lon="10.553694">
        <ele>1214.571638</ele>
        <time>2024-08-23T08:29:51.000Z</time>
      </trkpt>
      <trkpt lat="46.965122" lon="10.553691">
        <ele>1214.840095</ele>
        <time>2024-08-23T08:29:52.000Z</time>
      </trkpt>
      <trkpt lat="46.965094" lon="10.553683">
        <ele>1215.203057</ele>
        <time>2024-08-23T08:29:53.000Z</time>
      </trkpt>
      <trkpt lat="46.965075" lon="10.553681">
        <ele>1215.445424</ele>
        <time>2024-08-23T08:29:54.000Z</time>
      </trkpt>
      <trkpt lat="46.965052" lon="10.553674">
        <ele>1215.744306</ele>
        <time>2024-08-23T08:29:55.000Z</time>
      </trkpt>
      <trkpt lat="46.965034" lon="10.553675">
        <ele>1215.973490</ele>
        <time>2024-08-23T08:29:56.000Z</time>
      </trkpt>
      <trkpt lat="46.965009" lon="10.553683">
        <ele>1216.299070</ele>
        <time>2024-08-23T08:29:57.000Z</time>
      </trkpt>
      <trkpt lat="46.964992" lon="10.553685">
        <ele>1216.516063</ele>
        <time>2024-08-23T08:29:58.000Z</time>
      </trkpt>
      <trkpt lat="46.964974" lon="10.553689">
        <ele>1216.747701</ele>
        <time>2024-08-23T08:29:59.000Z</time>
      </trkpt>
      <trkpt lat="46.964955" lon="10.553692">
        <ele>1216.990844</ele>
        <time>2024-08-23T08:30:00.000Z</time>
      </trkpt>
      <trkpt lat="46.964935" lon="10.553692">
        <ele>1217.245311</ele>
        <time>2024-08-23T08:30:01.000Z</time>
      </trkpt>
      <trkpt lat="46.964908" lon="10.553697">
        <ele>1217.591573</ele>
        <time>2024-08-23T08:30:02.000Z</time>
      </trkpt>
      <trkpt lat="46.964887" lon="10.553700">
        <ele>1217.860030</ele>
        <time>2024-08-23T08:30:03.000Z</time>
      </trkpt>
      <trkpt lat="46.964867" lon="10.553705">
        <ele>1218.118174</ele>
        <time>2024-08-23T08:30:04.000Z</time>
      </trkpt>
      <trkpt lat="46.964848" lon="10.553710">
        <ele>1218.363785</ele>
        <time>2024-08-23T08:30:05.000Z</time>
      </trkpt>
      <trkpt lat="46.964818" lon="10.553712">
        <ele>1218.745880</ele>
        <time>2024-08-23T08:30:06.000Z</time>
      </trkpt>
      <trkpt lat="46.964800" lon="10.553722">
        <ele>1218.990808</ele>
        <time>2024-08-23T08:30:07.000Z</time>
      </trkpt>
      <trkpt lat="46.964781" lon="10.553727">
        <ele>1219.236418</ele>
        <time>2024-08-23T08:30:08.000Z</time>
      </trkpt>
      <trkpt lat="46.964764" lon="10.553731">
        <ele>1219.455486</ele>
        <time>2024-08-23T08:30:09.000Z</time>
      </trkpt>
      <trkpt lat="46.964740" lon="10.553740">
        <ele>1219.770687</ele>
        <time>2024-08-23T08:30:10.000Z</time>
      </trkpt>
      <trkpt lat="46.964721" lon="10.553751">
        <ele>1220.030615</ele>
        <time>2024-08-23T08:30:11.000Z</time>
      </trkpt>
      <trkpt lat="46.964703" lon="10.553763">
        <ele>1220.282224</ele>
        <time>2024-08-23T08:30:12.000Z</time>
      </trkpt>
      <trkpt lat="46.964686" lon="10.553775">
        <ele>1220.522310</ele>
        <time>2024-08-23T08:30:13.000Z</time>
      </trkpt>
      <trkpt lat="46.964669" lon="10.553791">
        <ele>1220.779380</ele>
        <time>2024-08-23T08:30:14.000Z</time>
      </trkpt>
      <trkpt lat="46.964644" lon="10.553814">
        <ele>1221.154961</ele>
        <time>2024-08-23T08:30:15.000Z</time>
      </trkpt>
      <trkpt lat="46.964628" lon="10.553829">
        <ele>1221.396635</ele>
        <time>2024-08-23T08:30:16.000Z</time>
      </trkpt>
      <trkpt lat="46.964612" lon="10.553847">
        <ele>1221.653286</ele>
        <time>2024-08-23T08:30:17.000Z</time>
      </trkpt>
      <trkpt lat="46.964597" lon="10.553864">
        <ele>1221.894560</ele>
        <time>2024-08-23T08:30:18.000Z</time>
      </trkpt>
      <trkpt lat="46.964585" lon="10.553880">
        <ele>1222.100988</ele>
        <time>2024-08-23T08:30:19.000Z</time>
      </trkpt>
      <trkpt lat="46.964562" lon="10.553902">
        <ele>1222.450455</ele>
        <time>2024-08-23T08:30:20.000Z</time>
      </trkpt>
      <trkpt lat="46.964547" lon="10.553918">
        <ele>1222.686516</ele>
        <time>2024-08-23T08:30:21.000Z</time>
      </trkpt>
      <trkpt lat="46.964532" lon="10.553934">
        <ele>1222.922578</ele>
        <time>2024-08-23T08:30:22.000Z</time>
      </trkpt>
      <trkpt lat="46.964515" lon="10.553946">
        <ele>1223.162664</ele>
        <time>2024-08-23T08:30:23.000Z</time>
      </trkpt>
      <trkpt lat="46.964496" lon="10.553970">
        <ele>1223.481831</ele>
        <time>2024-08-23T08:30:24.000Z</time>
      </trkpt>
      <trkpt lat="46.964483" lon="10.553984">
        <ele>1223.687101</ele>
        <time>2024-08-23T08:30:25.000Z</time>
      </trkpt>
      <trkpt lat="46.964465" lon="10.553993">
        <ele>1223.929087</ele>
        <time>2024-08-23T08:30:26.000Z</time>
      </trkpt>
      <trkpt lat="46.964449" lon="10.554006">
        <ele>1224.161861</ele>
        <time>2024-08-23T08:30:27.000Z</time>
      </trkpt>
      <trkpt lat="46.964435" lon="10.554012">
        <ele>1224.347450</ele>
        <time>2024-08-23T08:30:28.000Z</time>
      </trkpt>
      <trkpt lat="46.964417" lon="10.554033">
        <ele>1224.640195</ele>
        <time>2024-08-23T08:30:29.000Z</time>
      </trkpt>
      <trkpt lat="46.964404" lon="10.554052">
        <ele>1224.870725</ele>
        <time>2024-08-23T08:30:30.000Z</time>
      </trkpt>
      <trkpt lat="46.964391" lon="10.554071">
        <ele>1225.079479</ele>
        <time>2024-08-23T08:30:31.000Z</time>
      </trkpt>
      <trkpt lat="46.964378" lon="10.554092">
        <ele>1225.299465</ele>
        <time>2024-08-23T08:30:32.000Z</time>
      </trkpt>
      <trkpt lat="46.964356" lon="10.554117">
        <ele>1225.615991</ele>
        <time>2024-08-23T08:30:33.000Z</time>
      </trkpt>
      <trkpt lat="46.964340" lon="10.554133">
        <ele>1225.836223</ele>
        <time>2024-08-23T08:30:34.000Z</time>
      </trkpt>
      <trkpt lat="46.964328" lon="10.554153">
        <ele>1226.042850</ele>
        <time>2024-08-23T08:30:35.000Z</time>
      </trkpt>
      <trkpt lat="46.964317" lon="10.554174">
        <ele>1226.248251</ele>
        <time>2024-08-23T08:30:36.000Z</time>
      </trkpt>
      <trkpt lat="46.964307" lon="10.554194">
        <ele>1226.440623</ele>
        <time>2024-08-23T08:30:37.000Z</time>
      </trkpt>
      <trkpt lat="46.964292" lon="10.554226">
        <ele>1226.741838</ele>
        <time>2024-08-23T08:30:38.000Z</time>
      </trkpt>
      <trkpt lat="46.964282" lon="10.554247">
        <ele>1226.940522</ele>
        <time>2024-08-23T08:30:39.000Z</time>
      </trkpt>
      <trkpt lat="46.964271" lon="10.554267">
        <ele>1227.139824</ele>
        <time>2024-08-23T08:30:40.000Z</time>
      </trkpt>
      <trkpt lat="46.964259" lon="10.554288">
        <ele>1227.352339</ele>
        <time>2024-08-23T08:30:41.000Z</time>
      </trkpt>
      <trkpt lat="46.964243" lon="10.554319">
        <ele>1227.653911</ele>
        <time>2024-08-23T08:30:42.000Z</time>
      </trkpt>
      <trkpt lat="46.964233" lon="10.554343">
        <ele>1227.872091</ele>
        <time>2024-08-23T08:30:43.000Z</time>
      </trkpt>
      <trkpt lat="46.964224" lon="10.554365">
        <ele>1228.071108</ele>
        <time>2024-08-23T08:30:44.000Z</time>
      </trkpt>
      <trkpt lat="46.964215" lon="10.554387">
        <ele>1228.270126</ele>
        <time>2024-08-23T08:30:45.000Z</time>
      </trkpt>
      <trkpt lat="46.964204" lon="10.554410">
        <ele>1228.488043</ele>
        <time>2024-08-23T08:30:46.000Z</time>
      </trkpt>
      <trkpt lat="46.964188" lon="10.554445">
        <ele>1228.814905</ele>
        <time>2024-08-23T08:30:47.000Z</time>
      </trkpt>
      <trkpt lat="46.964177" lon="10.554469">
        <ele>1229.039219</ele>
        <time>2024-08-23T08:30:48.000Z</time>
      </trkpt>
      <trkpt lat="46.964170" lon="10.554495">
        <ele>1229.256085</ele>
        <time>2024-08-23T08:30:49.000Z</time>
      </trkpt>
      <trkpt lat="46.964160" lon="10.554518">
        <ele>1229.467682</ele>
        <time>2024-08-23T08:30:50.000Z</time>
      </trkpt>
      <trkpt lat="46.964148" lon="10.554539">
        <ele>1229.680197</ele>
        <time>2024-08-23T08:30:51.000Z</time>
      </trkpt>
      <trkpt lat="46.964132" lon="10.554572">
        <ele>1229.994285</ele>
        <time>2024-08-23T08:30:52.000Z</time>
      </trkpt>
      <trkpt lat="46.964122" lon="10.554591">
        <ele>1230.180455</ele>
        <time>2024-08-23T08:30:53.000Z</time>
      </trkpt>
      <trkpt lat="46.964109" lon="10.554611">
        <ele>1230.394759</ele>
        <time>2024-08-23T08:30:54.000Z</time>
      </trkpt>
      <trkpt lat="46.964099" lon="10.554633">
        <ele>1230.599854</ele>
        <time>2024-08-23T08:30:55.000Z</time>
      </trkpt>
      <trkpt lat="46.964078" lon="10.554662">
        <ele>1230.927931</ele>
        <time>2024-08-23T08:30:56.000Z</time>
      </trkpt>
      <trkpt lat="46.964065" lon="10.554681">
        <ele>1231.136685</ele>
        <time>2024-08-23T08:30:57.000Z</time>
      </trkpt>
      <trkpt lat="46.964052" lon="10.554702">
        <ele>1231.356672</ele>
        <time>2024-08-23T08:30:58.000Z</time>
      </trkpt>
      <trkpt lat="46.964041" lon="10.554723">
        <ele>1231.562074</ele>
        <time>2024-08-23T08:30:59.000Z</time>
      </trkpt>
      <trkpt lat="46.964019" lon="10.554740">
        <ele>1231.844847</ele>
        <time>2024-08-23T08:31:00.000Z</time>
      </trkpt>
      <trkpt lat="46.964002" lon="10.554746">
        <ele>1232.043653</ele>
        <time>2024-08-23T08:31:01.000Z</time>
      </trkpt>
      <trkpt lat="46.963985" lon="10.554752">
        <ele>1232.242458</ele>
        <time>2024-08-23T08:31:02.000Z</time>
      </trkpt>
      <trkpt lat="46.963968" lon="10.554760">
        <ele>1232.445459</ele>
        <time>2024-08-23T08:31:03.000Z</time>
      </trkpt>
      <trkpt lat="46.963950" lon="10.554764">
        <ele>1232.652446</ele>
        <time>2024-08-23T08:31:04.000Z</time>
      </trkpt>
      <trkpt lat="46.963925" lon="10.554772">
        <ele>1232.943377</ele>
        <time>2024-08-23T08:31:05.000Z</time>
      </trkpt>
      <trkpt lat="46.963910" lon="10.554783">
        <ele>1233.134081</ele>
        <time>2024-08-23T08:31:06.000Z</time>
      </trkpt>
      <trkpt lat="46.963893" lon="10.554788">
        <ele>1233.331214</ele>
        <time>2024-08-23T08:31:07.000Z</time>
      </trkpt>
      <trkpt lat="46.963872" lon="10.554788">
        <ele>1233.569969</ele>
        <time>2024-08-23T08:31:08.000Z</time>
      </trkpt>
      <trkpt lat="46.963843" lon="10.554784">
        <ele>1233.901136</ele>
        <time>2024-08-23T08:31:09.000Z</time>
      </trkpt>
      <trkpt lat="46.963827" lon="10.554786">
        <ele>1234.083705</ele>
        <time>2024-08-23T08:31:10.000Z</time>
      </trkpt>
      <trkpt lat="46.963806" lon="10.554786">
        <ele>1234.322460</ele>
        <time>2024-08-23T08:31:11.000Z</time>
      </trkpt>
      <trkpt lat="46.963788" lon="10.554784">
        <ele>1234.527694</ele>
        <time>2024-08-23T08:31:12.000Z</time>
      </trkpt>
      <trkpt lat="46.963771" lon="10.554788">
        <ele>1234.723448</ele>
        <time>2024-08-23T08:31:13.000Z</time>
      </trkpt>
      <trkpt lat="46.963745" lon="10.554798">
        <ele>1235.029063</ele>
        <time>2024-08-23T08:31:14.000Z</time>
      </trkpt>
      <trkpt lat="46.963727" lon="10.554805">
        <ele>1235.240795</ele>
        <time>2024-08-23T08:31:15.000Z</time>
      </trkpt>
      <trkpt lat="46.963710" lon="10.554817">
        <ele>1235.455331</ele>
        <time>2024-08-23T08:31:16.000Z</time>
      </trkpt>
      <trkpt lat="46.963692" lon="10.554828">
        <ele>1235.677062</ele>
        <time>2024-08-23T08:31:17.000Z</time>
      </trkpt>
      <trkpt lat="46.963673" lon="10.554839">
        <ele>1235.909329</ele>
        <time>2024-08-23T08:31:18.000Z</time>
      </trkpt>
      <trkpt lat="46.963644" lon="10.554853">
        <ele>1236.256472</ele>
        <time>2024-08-23T08:31:19.000Z</time>
      </trkpt>
      <trkpt lat="46.963628" lon="10.554866">
        <ele>1236.464474</ele>
        <time>2024-08-23T08:31:20.000Z</time>
      </trkpt>
      <trkpt lat="46.963613" lon="10.554879">
        <ele>1236.662611</ele>
        <time>2024-08-23T08:31:21.000Z</time>
      </trkpt>
      <trkpt lat="46.963590" lon="10.554899">
        <ele>1236.966684</ele>
        <time>2024-08-23T08:31:22.000Z</time>
      </trkpt>
      <trkpt lat="46.963576" lon="10.554916">
        <ele>1237.173405</ele>
        <time>2024-08-23T08:31:23.000Z</time>
      </trkpt>
      <trkpt lat="46.963560" lon="10.554934">
        <ele>1237.402745</ele>
        <time>2024-08-23T08:31:24.000Z</time>
      </trkpt>
      <trkpt lat="46.963545" lon="10.554951">
        <ele>1237.618343</ele>
        <time>2024-08-23T08:31:25.000Z</time>
      </trkpt>
      <trkpt lat="46.963532" lon="10.554970">
        <ele>1237.827098</ele>
        <time>2024-08-23T08:31:26.000Z</time>
      </trkpt>
      <trkpt lat="46.963512" lon="10.554998">
        <ele>1238.141589</ele>
        <time>2024-08-23T08:31:27.000Z</time>
      </trkpt>
      <trkpt lat="46.963498" lon="10.555016">
        <ele>1238.353346</ele>
        <time>2024-08-23T08:31:28.000Z</time>
      </trkpt>
      <trkpt lat="46.963487" lon="10.555039">
        <ele>1238.571264</ele>
        <time>2024-08-23T08:31:29.000Z</time>
      </trkpt>
      <trkpt lat="46.963474" lon="10.555061">
        <ele>1238.797060</ele>
        <time>2024-08-23T08:31:30.000Z</time>
      </trkpt>
      <trkpt lat="46.963462" lon="10.555084">
        <ele>1239.021697</ele>
        <time>2024-08-23T08:31:31.000Z</time>
      </trkpt>
      <trkpt lat="46.963449" lon="10.555120">
        <ele>1239.337718</ele>
        <time>2024-08-23T08:31:32.000Z</time>
      </trkpt>
      <trkpt lat="46.963438" lon="10.555143">
        <ele>1239.555637</ele>
        <time>2024-08-23T08:31:33.000Z</time>
      </trkpt>
      <trkpt lat="46.963426" lon="10.555164">
        <ele>1239.768154</ele>
        <time>2024-08-23T08:31:34.000Z</time>
      </trkpt>
      <trkpt lat="46.963417" lon="10.555186">
        <ele>1239.967174</ele>
        <time>2024-08-23T08:31:35.000Z</time>
      </trkpt>
      <trkpt lat="46.963404" lon="10.555217">
        <ele>1240.249488</ele>
        <time>2024-08-23T08:31:36.000Z</time>
      </trkpt>
      <trkpt lat="46.963394" lon="10.555238">
        <ele>1240.448174</ele>
        <time>2024-08-23T08:31:37.000Z</time>
      </trkpt>
      <trkpt lat="46.963386" lon="10.555259">
        <ele>1240.634783</ele>
        <time>2024-08-23T08:31:38.000Z</time>
      </trkpt>
      <trkpt lat="46.963378" lon="10.555282">
        <ele>1240.835084</ele>
        <time>2024-08-23T08:31:39.000Z</time>
      </trkpt>
      <trkpt lat="46.963370" lon="10.555305">
        <ele>1241.035386</ele>
        <time>2024-08-23T08:31:40.000Z</time>
      </trkpt>
      <trkpt lat="46.963358" lon="10.555341">
        <ele>1241.346253</ele>
        <time>2024-08-23T08:31:41.000Z</time>
      </trkpt>
      <trkpt lat="46.963352" lon="10.555366">
        <ele>1241.551877</ele>
        <time>2024-08-23T08:31:42.000Z</time>
      </trkpt>
      <trkpt lat="46.963347" lon="10.555391">
        <ele>1241.754013</ele>
        <time>2024-08-23T08:31:43.000Z</time>
      </trkpt>
      <trkpt lat="46.963342" lon="10.555416">
        <ele>1241.956150</ele>
        <time>2024-08-23T08:31:44.000Z</time>
      </trkpt>
      <trkpt lat="46.963330" lon="10.555451">
        <ele>1242.260064</ele>
        <time>2024-08-23T08:31:45.000Z</time>
      </trkpt>
      <trkpt lat="46.963324" lon="10.555477">
        <ele>1242.473023</ele>
        <time>2024-08-23T08:31:46.000Z</time>
      </trkpt>
      <trkpt lat="46.963320" lon="10.555501">
        <ele>1242.664715</ele>
        <time>2024-08-23T08:31:47.000Z</time>
      </trkpt>
      <trkpt lat="46.963317" lon="10.555525">
        <ele>1242.854033</ele>
        <time>2024-08-23T08:31:48.000Z</time>
      </trkpt>
      <trkpt lat="46.963311" lon="10.555548">
        <ele>1243.045087</ele>
        <time>2024-08-23T08:31:49.000Z</time>
      </trkpt>
      <trkpt lat="46.963305" lon="10.555585">
        <ele>1243.340168</ele>
        <time>2024-08-23T08:31:50.000Z</time>
      </trkpt>
      <trkpt lat="46.963304" lon="10.555610">
        <ele>1243.534480</ele>
        <time>2024-08-23T08:31:51.000Z</time>
      </trkpt>
      <trkpt lat="46.963301" lon="10.555633">
        <ele>1243.716171</ele>
        <time>2024-08-23T08:31:52.000Z</time>
      </trkpt>
      <trkpt lat="46.963300" lon="10.555658">
        <ele>1243.910483</ele>
        <time>2024-08-23T08:31:53.000Z</time>
      </trkpt>
      <trkpt lat="46.963293" lon="10.555700">
        <ele>1244.245944</ele>
        <time>2024-08-23T08:31:54.000Z</time>
      </trkpt>
      <trkpt lat="46.963288" lon="10.555726">
        <ele>1244.455538</ele>
        <time>2024-08-23T08:31:55.000Z</time>
      </trkpt>
      <trkpt lat="46.963284" lon="10.555752">
        <ele>1244.662339</ele>
        <time>2024-08-23T08:31:56.000Z</time>
      </trkpt>
      <trkpt lat="46.963280" lon="10.555776">
        <ele>1244.854031</ele>
        <time>2024-08-23T08:31:57.000Z</time>
      </trkpt>
      <trkpt lat="46.963275" lon="10.555797">
        <ele>1245.026605</ele>
        <time>2024-08-23T08:31:58.000Z</time>
      </trkpt>
      <trkpt lat="46.963268" lon="10.555834">
        <ele>1245.314682</ele>
        <time>2024-08-23T08:31:59.000Z</time>
      </trkpt>
      <trkpt lat="46.963263" lon="10.555860">
        <ele>1245.456498</ele>
        <time>2024-08-23T08:32:00.000Z</time>
      </trkpt>
      <trkpt lat="46.963260" lon="10.555885">
        <ele>1245.589763</ele>
        <time>2024-08-23T08:32:01.000Z</time>
      </trkpt>
      <trkpt lat="46.963256" lon="10.555911">
        <ele>1245.729689</ele>
        <time>2024-08-23T08:32:02.000Z</time>
      </trkpt>
      <trkpt lat="46.963250" lon="10.555949">
        <ele>1245.934460</ele>
        <time>2024-08-23T08:32:03.000Z</time>
      </trkpt>
      <trkpt lat="46.963247" lon="10.555975">
        <ele>1246.072898</ele>
        <time>2024-08-23T08:32:04.000Z</time>
      </trkpt>
      <trkpt lat="46.963245" lon="10.556002">
        <ele>1246.215482</ele>
        <time>2024-08-23T08:32:05.000Z</time>
      </trkpt>
      <trkpt lat="46.963246" lon="10.556029">
        <ele>1246.357442</ele>
        <time>2024-08-23T08:32:06.000Z</time>
      </trkpt>
      <trkpt lat="46.963246" lon="10.556059">
        <ele>1246.514943</ele>
        <time>2024-08-23T08:32:07.000Z</time>
      </trkpt>
      <trkpt lat="46.963244" lon="10.556104">
        <ele>1246.751695</ele>
        <time>2024-08-23T08:32:08.000Z</time>
      </trkpt>
      <trkpt lat="46.963242" lon="10.556128">
        <ele>1246.878632</ele>
        <time>2024-08-23T08:32:09.000Z</time>
      </trkpt>
      <trkpt lat="46.963238" lon="10.556151">
        <ele>1247.003242</ele>
        <time>2024-08-23T08:32:10.000Z</time>
      </trkpt>
      <trkpt lat="46.963231" lon="10.556173">
        <ele>1247.130679</ele>
        <time>2024-08-23T08:32:11.000Z</time>
      </trkpt>
      <trkpt lat="46.963227" lon="10.556208">
        <ele>1247.316989</ele>
        <time>2024-08-23T08:32:12.000Z</time>
      </trkpt>
      <trkpt lat="46.963223" lon="10.556233">
        <ele>1247.451799</ele>
        <time>2024-08-23T08:32:13.000Z</time>
      </trkpt>
      <trkpt lat="46.963215" lon="10.556257">
        <ele>1247.592026</ele>
        <time>2024-08-23T08:32:14.000Z</time>
      </trkpt>
      <trkpt lat="46.963209" lon="10.556284">
        <ele>1247.741102</ele>
        <time>2024-08-23T08:32:15.000Z</time>
      </trkpt>
      <trkpt lat="46.963202" lon="10.556312">
        <ele>1247.897656</ele>
        <time>2024-08-23T08:32:16.000Z</time>
      </trkpt>
      <trkpt lat="46.963194" lon="10.556349">
        <ele>1248.101423</ele>
        <time>2024-08-23T08:32:17.000Z</time>
      </trkpt>
      <trkpt lat="46.963190" lon="10.556376">
        <ele>1248.246476</ele>
        <time>2024-08-23T08:32:18.000Z</time>
      </trkpt>
      <trkpt lat="46.963186" lon="10.556402">
        <ele>1248.386402</ele>
        <time>2024-08-23T08:32:19.000Z</time>
      </trkpt>
      <trkpt lat="46.963182" lon="10.556430">
        <ele>1248.536590</ele>
        <time>2024-08-23T08:32:20.000Z</time>
      </trkpt>
      <trkpt lat="46.963173" lon="10.556473">
        <ele>1248.772720</ele>
        <time>2024-08-23T08:32:21.000Z</time>
      </trkpt>
      <trkpt lat="46.963168" lon="10.556501">
        <ele>1248.924670</ele>
        <time>2024-08-23T08:32:22.000Z</time>
      </trkpt>
      <trkpt lat="46.963158" lon="10.556527">
        <ele>1249.081356</ele>
        <time>2024-08-23T08:32:23.000Z</time>
      </trkpt>
      <trkpt lat="46.963149" lon="10.556553">
        <ele>1249.234411</ele>
        <time>2024-08-23T08:32:24.000Z</time>
      </trkpt>
      <trkpt lat="46.963139" lon="10.556578">
        <ele>1249.386545</ele>
        <time>2024-08-23T08:32:25.000Z</time>
      </trkpt>
      <trkpt lat="46.963125" lon="10.556618">
        <ele>1249.622553</ele>
        <time>2024-08-23T08:32:26.000Z</time>
      </trkpt>
      <trkpt lat="46.963112" lon="10.556642">
        <ele>1249.783418</ele>
        <time>2024-08-23T08:32:27.000Z</time>
      </trkpt>
      <trkpt lat="46.963098" lon="10.556667">
        <ele>1249.953199</ele>
        <time>2024-08-23T08:32:28.000Z</time>
      </trkpt>
      <trkpt lat="46.963083" lon="10.556693">
        <ele>1250.131939</ele>
        <time>2024-08-23T08:32:29.000Z</time>
      </trkpt>
      <trkpt lat="46.963064" lon="10.556721">
        <ele>1250.339237</ele>
        <time>2024-08-23T08:32:30.000Z</time>
      </trkpt>
      <trkpt lat="46.963050" lon="10.556743">
        <ele>1250.497160</ele>
        <time>2024-08-23T08:32:31.000Z</time>
      </trkpt>
      <trkpt lat="46.963031" lon="10.556764">
        <ele>1250.680241</ele>
        <time>2024-08-23T08:32:32.000Z</time>
      </trkpt>
      <trkpt lat="46.963017" lon="10.556788">
        <ele>1250.845997</ele>
        <time>2024-08-23T08:32:33.000Z</time>
      </trkpt>
      <trkpt lat="46.963002" lon="10.556813">
        <ele>1251.020760</ele>
        <time>2024-08-23T08:32:34.000Z</time>
      </trkpt>
      <trkpt lat="46.962983" lon="10.556846">
        <ele>1251.247431</ele>
        <time>2024-08-23T08:32:35.000Z</time>
      </trkpt>
      <trkpt lat="46.962973" lon="10.556869">
        <ele>1251.390605</ele>
        <time>2024-08-23T08:32:36.000Z</time>
      </trkpt>
      <trkpt lat="46.962961" lon="10.556894">
        <ele>1251.551069</ele>
        <time>2024-08-23T08:32:37.000Z</time>
      </trkpt>
      <trkpt lat="46.962945" lon="10.556912">
        <ele>1251.706246</ele>
        <time>2024-08-23T08:32:38.000Z</time>
      </trkpt>
      <trkpt lat="46.962922" lon="10.556936">
        <ele>1251.923459</ele>
        <time>2024-08-23T08:32:39.000Z</time>
      </trkpt>
      <trkpt lat="46.962905" lon="10.556955">
        <ele>1252.087937</ele>
        <time>2024-08-23T08:32:40.000Z</time>
      </trkpt>
      <trkpt lat="46.962888" lon="10.556973">
        <ele>1252.249284</ele>
        <time>2024-08-23T08:32:41.000Z</time>
      </trkpt>
      <trkpt lat="46.962872" lon="10.557000">
        <ele>1252.437016</ele>
        <time>2024-08-23T08:32:42.000Z</time>
      </trkpt>
      <trkpt lat="46.962858" lon="10.557020">
        <ele>1252.587430</ele>
        <time>2024-08-23T08:32:43.000Z</time>
      </trkpt>
      <trkpt lat="46.962839" lon="10.557054">
        <ele>1252.818138</ele>
        <time>2024-08-23T08:32:44.000Z</time>
      </trkpt>
      <trkpt lat="46.962820" lon="10.557072">
        <ele>1252.992190</ele>
        <time>2024-08-23T08:32:45.000Z</time>
      </trkpt>
      <trkpt lat="46.962802" lon="10.557091">
        <ele>1253.162847</ele>
        <time>2024-08-23T08:32:46.000Z</time>
      </trkpt>
      <trkpt lat="46.962789" lon="10.557117">
        <ele>1253.332063</ele>
        <time>2024-08-23T08:32:47.000Z</time>
      </trkpt>
      <trkpt lat="46.962772" lon="10.557154">
        <ele>1253.566236</ele>
        <time>2024-08-23T08:32:48.000Z</time>
      </trkpt>
      <trkpt lat="46.962761" lon="10.557178">
        <ele>1253.718015</ele>
        <time>2024-08-23T08:32:49.000Z</time>
      </trkpt>
      <trkpt lat="46.962747" lon="10.557201">
        <ele>1253.879818</ele>
        <time>2024-08-23T08:32:50.000Z</time>
      </trkpt>
      <trkpt lat="46.962733" lon="10.557221">
        <ele>1254.030231</ele>
        <time>2024-08-23T08:32:51.000Z</time>
      </trkpt>
      <trkpt lat="46.962715" lon="10.557238">
        <ele>1254.194972</ele>
        <time>2024-08-23T08:32:52.000Z</time>
      </trkpt>
      <trkpt lat="46.962690" lon="10.557267">
        <ele>1254.440262</ele>
        <time>2024-08-23T08:32:53.000Z</time>
      </trkpt>
      <trkpt lat="46.962672" lon="10.557287">
        <ele>1254.614041</ele>
        <time>2024-08-23T08:32:54.000Z</time>
      </trkpt>
      <trkpt lat="46.962653" lon="10.557307">
        <ele>1254.794010</ele>
        <time>2024-08-23T08:32:55.000Z</time>
      </trkpt>
      <trkpt lat="46.962632" lon="10.557323">
        <ele>1254.976092</ele>
        <time>2024-08-23T08:32:56.000Z</time>
      </trkpt>
      <trkpt lat="46.962599" lon="10.557340">
        <ele>1255.245184</ele>
        <time>2024-08-23T08:32:57.000Z</time>
      </trkpt>
      <trkpt lat="46.962580" lon="10.557347">
        <ele>1255.395896</ele>
        <time>2024-08-23T08:32:58.000Z</time>
      </trkpt>
      <trkpt lat="46.962559" lon="10.557353">
        <ele>1255.560486</ele>
        <time>2024-08-23T08:32:59.000Z</time>
      </trkpt>
      <trkpt lat="46.962539" lon="10.557358">
        <ele>1255.716564</ele>
        <time>2024-08-23T08:33:00.000Z</time>
      </trkpt>
      <trkpt lat="46.962520" lon="10.557364">
        <ele>1255.866082</ele>
        <time>2024-08-23T08:33:01.000Z</time>
      </trkpt>
      <trkpt lat="46.962492" lon="10.557374">
        <ele>1256.087784</ele>
        <time>2024-08-23T08:33:02.000Z</time>
      </trkpt>
      <trkpt lat="46.962472" lon="10.557381">
        <ele>1256.245967</ele>
        <time>2024-08-23T08:33:03.000Z</time>
      </trkpt>
      <trkpt lat="46.962452" lon="10.557387">
        <ele>1256.403014</ele>
        <time>2024-08-23T08:33:04.000Z</time>
      </trkpt>
      <trkpt lat="46.962439" lon="10.557389">
        <ele>1256.503569</ele>
        <time>2024-08-23T08:33:05.000Z</time>
      </trkpt>
      <trkpt lat="46.962440" lon="10.557393">
        <ele>1256.525934</ele>
        <time>2024-08-23T08:33:06.000Z</time>
      </trkpt>
      <trkpt lat="46.962407" lon="10.557436">
        <ele>1256.865655</ele>
        <time>2024-08-23T08:33:59.000Z</time>
      </trkpt>
      <trkpt lat="46.962390" lon="10.557450">
        <ele>1257.015672</ele>
        <time>2024-08-23T08:34:00.000Z</time>
      </trkpt>
      <trkpt lat="46.962377" lon="10.557458">
        <ele>1257.124139</ele>
        <time>2024-08-23T08:34:01.000Z</time>
      </trkpt>
      <trkpt lat="46.962367" lon="10.557464">
        <ele>1257.207266</ele>
        <time>2024-08-23T08:34:02.000Z</time>
      </trkpt>
      <trkpt lat="46.962357" lon="10.557469">
        <ele>1257.288549</ele>
        <time>2024-08-23T08:34:03.000Z</time>
      </trkpt>
      <trkpt lat="46.962350" lon="10.557469">
        <ele>1257.342398</ele>
        <time>2024-08-23T08:34:04.000Z</time>
      </trkpt>
      <trkpt lat="46.962346" lon="10.557469">
        <ele>1257.373169</ele>
        <time>2024-08-23T08:34:05.000Z</time>
      </trkpt>
      <trkpt lat="46.962348" lon="10.557471">
        <ele>1257.391796</ele>
        <time>2024-08-23T08:34:06.000Z</time>
      </trkpt>
      <trkpt lat="46.962332" lon="10.557483">
        <ele>1257.530067</ele>
        <time>2024-08-23T08:34:37.000Z</time>
      </trkpt>
      <trkpt lat="46.962325" lon="10.557491">
        <ele>1257.598359</ele>
        <time>2024-08-23T08:34:38.000Z</time>
      </trkpt>
      <trkpt lat="46.962317" lon="10.557502">
        <ele>1257.682755</ele>
        <time>2024-08-23T08:34:39.000Z</time>
      </trkpt>
      <trkpt lat="46.962313" lon="10.557522">
        <ele>1257.792173</ele>
        <time>2024-08-23T08:34:40.000Z</time>
      </trkpt>
      <trkpt lat="46.962305" lon="10.557547">
        <ele>1257.937138</ele>
        <time>2024-08-23T08:34:41.000Z</time>
      </trkpt>
      <trkpt lat="46.962298" lon="10.557565">
        <ele>1258.045906</ele>
        <time>2024-08-23T08:34:42.000Z</time>
      </trkpt>
      <trkpt lat="46.962292" lon="10.557584">
        <ele>1258.155819</ele>
        <time>2024-08-23T08:34:43.000Z</time>
      </trkpt>
      <trkpt lat="46.962284" lon="10.557602">
        <ele>1258.268594</ele>
        <time>2024-08-23T08:34:44.000Z</time>
      </trkpt>
      <trkpt lat="46.962278" lon="10.557623">
        <ele>1258.388119</ele>
        <time>2024-08-23T08:34:45.000Z</time>
      </trkpt>
      <trkpt lat="46.962265" lon="10.557650">
        <ele>1258.561598</ele>
        <time>2024-08-23T08:34:46.000Z</time>
      </trkpt>
      <trkpt lat="46.962260" lon="10.557666">
        <ele>1258.653988</ele>
        <time>2024-08-23T08:34:47.000Z</time>
      </trkpt>
      <trkpt lat="46.962251" lon="10.557684">
        <ele>1258.771138</ele>
        <time>2024-08-23T08:34:48.000Z</time>
      </trkpt>
      <trkpt lat="46.962243" lon="10.557702">
        <ele>1258.883912</ele>
        <time>2024-08-23T08:34:49.000Z</time>
      </trkpt>
      <trkpt lat="46.962231" lon="10.557730">
        <ele>1259.057498</ele>
        <time>2024-08-23T08:34:50.000Z</time>
      </trkpt>
      <trkpt lat="46.962225" lon="10.557753">
        <ele>1259.165889</ele>
        <time>2024-08-23T08:34:51.000Z</time>
      </trkpt>
      <trkpt lat="46.962221" lon="10.557776">
        <ele>1259.244194</ele>
        <time>2024-08-23T08:34:52.000Z</time>
      </trkpt>
      <trkpt lat="46.962214" lon="10.557798">
        <ele>1259.324275</ele>
        <time>2024-08-23T08:34:53.000Z</time>
      </trkpt>
      <trkpt lat="46.962205" lon="10.557834">
        <ele>1259.450762</ele>
        <time>2024-08-23T08:34:54.000Z</time>
      </trkpt>
      <trkpt lat="46.962196" lon="10.557855">
        <ele>1259.532572</ele>
        <time>2024-08-23T08:34:55.000Z</time>
      </trkpt>
      <trkpt lat="46.962191" lon="10.557876">
        <ele>1259.605949</ele>
        <time>2024-08-23T08:34:56.000Z</time>
      </trkpt>
      <trkpt lat="46.962183" lon="10.557896">
        <ele>1259.682429</ele>
        <time>2024-08-23T08:34:57.000Z</time>
      </trkpt>
      <trkpt lat="46.962175" lon="10.557916">
        <ele>1259.758910</ele>
        <time>2024-08-23T08:34:58.000Z</time>
      </trkpt>
      <trkpt lat="46.962164" lon="10.557946">
        <ele>1259.871264</ele>
        <time>2024-08-23T08:34:59.000Z</time>
      </trkpt>
      <trkpt lat="46.962154" lon="10.557965">
        <ele>1259.950422</ele>
        <time>2024-08-23T08:35:00.000Z</time>
      </trkpt>
      <trkpt lat="46.962145" lon="10.557986">
        <ele>1260.032232</ele>
        <time>2024-08-23T08:35:01.000Z</time>
      </trkpt>
      <trkpt lat="46.962136" lon="10.558008">
        <ele>1260.116853</ele>
        <time>2024-08-23T08:35:02.000Z</time>
      </trkpt>
      <trkpt lat="46.962129" lon="10.558032">
        <ele>1260.202960</ele>
        <time>2024-08-23T08:35:03.000Z</time>
      </trkpt>
      <trkpt lat="46.962118" lon="10.558069">
        <ele>1260.336107</ele>
        <time>2024-08-23T08:35:04.000Z</time>
      </trkpt>
      <trkpt lat="46.962110" lon="10.558094">
        <ele>1260.427202</ele>
        <time>2024-08-23T08:35:05.000Z</time>
      </trkpt>
      <trkpt lat="46.962105" lon="10.558122">
        <ele>1260.522688</ele>
        <time>2024-08-23T08:35:06.000Z</time>
      </trkpt>
      <trkpt lat="46.962103" lon="10.558152">
        <ele>1260.622133</ele>
        <time>2024-08-23T08:35:07.000Z</time>
      </trkpt>
      <trkpt lat="46.962095" lon="10.558193">
        <ele>1260.762818</ele>
        <time>2024-08-23T08:35:08.000Z</time>
      </trkpt>
      <trkpt lat="46.962088" lon="10.558217">
        <ele>1260.848925</ele>
        <time>2024-08-23T08:35:09.000Z</time>
      </trkpt>
      <trkpt lat="46.962083" lon="10.558245">
        <ele>1260.944411</ele>
        <time>2024-08-23T08:35:10.000Z</time>
      </trkpt>
      <trkpt lat="46.962078" lon="10.558273">
        <ele>1261.039897</ele>
        <time>2024-08-23T08:35:11.000Z</time>
      </trkpt>
      <trkpt lat="46.962066" lon="10.558317">
        <ele>1261.196221</ele>
        <time>2024-08-23T08:35:12.000Z</time>
      </trkpt>
      <trkpt lat="46.962061" lon="10.558344">
        <ele>1261.288518</ele>
        <time>2024-08-23T08:35:13.000Z</time>
      </trkpt>
      <trkpt lat="46.962057" lon="10.558373">
        <ele>1261.386128</ele>
        <time>2024-08-23T08:35:14.000Z</time>
      </trkpt>
      <trkpt lat="46.962050" lon="10.558401">
        <ele>1261.484507</ele>
        <time>2024-08-23T08:35:15.000Z</time>
      </trkpt>
      <trkpt lat="46.962035" lon="10.558442">
        <ele>1261.637981</ele>
        <time>2024-08-23T08:35:16.000Z</time>
      </trkpt>
      <trkpt lat="46.962028" lon="10.558471">
        <ele>1261.739464</ele>
        <time>2024-08-23T08:35:17.000Z</time>
      </trkpt>
      <trkpt lat="46.962019" lon="10.558497">
        <ele>1261.835645</ele>
        <time>2024-08-23T08:35:18.000Z</time>
      </trkpt>
      <trkpt lat="46.962009" lon="10.558524">
        <ele>1261.936993</ele>
        <time>2024-08-23T08:35:19.000Z</time>
      </trkpt>
      <trkpt lat="46.962000" lon="10.558554">
        <ele>1262.045108</ele>
        <time>2024-08-23T08:35:20.000Z</time>
      </trkpt>
      <trkpt lat="46.961990" lon="10.558606">
        <ele>1262.223344</ele>
        <time>2024-08-23T08:35:21.000Z</time>
      </trkpt>
      <trkpt lat="46.961983" lon="10.558641">
        <ele>1262.343671</ele>
        <time>2024-08-23T08:35:22.000Z</time>
      </trkpt>
      <trkpt lat="46.961976" lon="10.558673">
        <ele>1262.454534</ele>
        <time>2024-08-23T08:35:23.000Z</time>
      </trkpt>
      <trkpt lat="46.961971" lon="10.558706">
        <ele>1262.566057</ele>
        <time>2024-08-23T08:35:24.000Z</time>
      </trkpt>
      <trkpt lat="46.961965" lon="10.558736">
        <ele>1262.669193</ele>
        <time>2024-08-23T08:35:25.000Z</time>
      </trkpt>
      <trkpt lat="46.961955" lon="10.558788">
        <ele>1262.847430</ele>
        <time>2024-08-23T08:35:26.000Z</time>
      </trkpt>
      <trkpt lat="46.961948" lon="10.558821">
        <ele>1262.961439</ele>
        <time>2024-08-23T08:35:27.000Z</time>
      </trkpt>
      <trkpt lat="46.961939" lon="10.558854">
        <ele>1263.078682</ele>
        <time>2024-08-23T08:35:28.000Z</time>
      </trkpt>
      <trkpt lat="46.961931" lon="10.558886">
        <ele>1263.191116</ele>
        <time>2024-08-23T08:35:29.000Z</time>
      </trkpt>
      <trkpt lat="46.961917" lon="10.558934">
        <ele>1263.363330</ele>
        <time>2024-08-23T08:35:30.000Z</time>
      </trkpt>
      <trkpt lat="46.961906" lon="10.558966">
        <ele>1263.481538</ele>
        <time>2024-08-23T08:35:31.000Z</time>
      </trkpt>
      <trkpt lat="46.961893" lon="10.558994">
        <ele>1263.593264</ele>
        <time>2024-08-23T08:35:32.000Z</time>
      </trkpt>
      <trkpt lat="46.961878" lon="10.559025">
        <ele>1263.718634</ele>
        <time>2024-08-23T08:35:33.000Z</time>
      </trkpt>
      <trkpt lat="46.961862" lon="10.559051">
        <ele>1263.834134</ele>
        <time>2024-08-23T08:35:34.000Z</time>
      </trkpt>
      <trkpt lat="46.961839" lon="10.559093">
        <ele>1264.011790</ele>
        <time>2024-08-23T08:35:35.000Z</time>
      </trkpt>
      <trkpt lat="46.961822" lon="10.559115">
        <ele>1264.121432</ele>
        <time>2024-08-23T08:35:36.000Z</time>
      </trkpt>
      <trkpt lat="46.961805" lon="10.559142">
        <ele>1264.242627</ele>
        <time>2024-08-23T08:35:37.000Z</time>
      </trkpt>
      <trkpt lat="46.961786" lon="10.559172">
        <ele>1264.377652</ele>
        <time>2024-08-23T08:35:38.000Z</time>
      </trkpt>
      <trkpt lat="46.961758" lon="10.559217">
        <ele>1264.578554</ele>
        <time>2024-08-23T08:35:39.000Z</time>
      </trkpt>
      <trkpt lat="46.961739" lon="10.559250">
        <ele>1264.720994</ele>
        <time>2024-08-23T08:35:40.000Z</time>
      </trkpt>
      <trkpt lat="46.961720" lon="10.559281">
        <ele>1264.858456</ele>
        <time>2024-08-23T08:35:41.000Z</time>
      </trkpt>
      <trkpt lat="46.961700" lon="10.559309">
        <ele>1264.992174</ele>
        <time>2024-08-23T08:35:42.000Z</time>
      </trkpt>
      <trkpt lat="46.961681" lon="10.559335">
        <ele>1265.117848</ele>
        <time>2024-08-23T08:35:43.000Z</time>
      </trkpt>
      <trkpt lat="46.961644" lon="10.559373">
        <ele>1265.336269</ele>
        <time>2024-08-23T08:35:44.000Z</time>
      </trkpt>
      <trkpt lat="46.961616" lon="10.559394">
        <ele>1265.488324</ele>
        <time>2024-08-23T08:35:45.000Z</time>
      </trkpt>
      <trkpt lat="46.961589" lon="10.559414">
        <ele>1265.634574</ele>
        <time>2024-08-23T08:35:46.000Z</time>
      </trkpt>
      <trkpt lat="46.961565" lon="10.559435">
        <ele>1265.769703</ele>
        <time>2024-08-23T08:35:47.000Z</time>
      </trkpt>
      <trkpt lat="46.961526" lon="10.559458">
        <ele>1265.972929</ele>
        <time>2024-08-23T08:35:48.000Z</time>
      </trkpt>
      <trkpt lat="46.961498" lon="10.559471">
        <ele>1266.114915</ele>
        <time>2024-08-23T08:35:49.000Z</time>
      </trkpt>
      <trkpt lat="46.961467" lon="10.559483">
        <ele>1266.269911</ele>
        <time>2024-08-23T08:35:50.000Z</time>
      </trkpt>
      <trkpt lat="46.961440" lon="10.559488">
        <ele>1266.401469</ele>
        <time>2024-08-23T08:35:51.000Z</time>
      </trkpt>
      <trkpt lat="46.961417" lon="10.559489">
        <ele>1266.512700</ele>
        <time>2024-08-23T08:35:52.000Z</time>
      </trkpt>
      <trkpt lat="46.961382" lon="10.559479">
        <ele>1266.685078</ele>
        <time>2024-08-23T08:35:53.000Z</time>
      </trkpt>
      <trkpt lat="46.961355" lon="10.559471">
        <ele>1266.818239</ele>
        <time>2024-08-23T08:35:54.000Z</time>
      </trkpt>
      <trkpt lat="46.961327" lon="10.559462">
        <ele>1266.956811</ele>
        <time>2024-08-23T08:35:55.000Z</time>
      </trkpt>
      <trkpt lat="46.961298" lon="10.559454">
        <ele>1267.099461</ele>
        <time>2024-08-23T08:35:56.000Z</time>
      </trkpt>
      <trkpt lat="46.961257" lon="10.559446">
        <ele>1267.299407</ele>
        <time>2024-08-23T08:35:57.000Z</time>
      </trkpt>
      <trkpt lat="46.961230" lon="10.559441">
        <ele>1267.430964</ele>
        <time>2024-08-23T08:35:58.000Z</time>
      </trkpt>
      <trkpt lat="46.961201" lon="10.559438">
        <ele>1267.571500</ele>
        <time>2024-08-23T08:35:59.000Z</time>
      </trkpt>
      <trkpt lat="46.961171" lon="10.559442">
        <ele>1267.717121</ele>
        <time>2024-08-23T08:36:00.000Z</time>
      </trkpt>
      <trkpt lat="46.961139" lon="10.559448">
        <ele>1267.873672</ele>
        <time>2024-08-23T08:36:01.000Z</time>
      </trkpt>
      <trkpt lat="46.961093" lon="10.559467">
        <ele>1268.107610</ele>
        <time>2024-08-23T08:36:02.000Z</time>
      </trkpt>
      <trkpt lat="46.961067" lon="10.559491">
        <ele>1268.258026</ele>
        <time>2024-08-23T08:36:03.000Z</time>
      </trkpt>
      <trkpt lat="46.961043" lon="10.559522">
        <ele>1268.414633</ele>
        <time>2024-08-23T08:36:04.000Z</time>
      </trkpt>
      <trkpt lat="46.961023" lon="10.559561">
        <ele>1268.577601</ele>
        <time>2024-08-23T08:36:05.000Z</time>
      </trkpt>
      <trkpt lat="46.960993" lon="10.559618">
        <ele>1268.818066</ele>
        <time>2024-08-23T08:36:06.000Z</time>
      </trkpt>
      <trkpt lat="46.960973" lon="10.559656">
        <ele>1268.978376</ele>
        <time>2024-08-23T08:36:07.000Z</time>
      </trkpt>
      <trkpt lat="46.960953" lon="10.559695">
        <ele>1269.141344</ele>
        <time>2024-08-23T08:36:08.000Z</time>
      </trkpt>
      <trkpt lat="46.960933" lon="10.559734">
        <ele>1269.304312</ele>
        <time>2024-08-23T08:36:09.000Z</time>
      </trkpt>
      <trkpt lat="46.960912" lon="10.559771">
        <ele>1269.465075</ele>
        <time>2024-08-23T08:36:10.000Z</time>
      </trkpt>
      <trkpt lat="46.960875" lon="10.559816">
        <ele>1269.700448</ele>
        <time>2024-08-23T08:36:11.000Z</time>
      </trkpt>
      <trkpt lat="46.960850" lon="10.559845">
        <ele>1269.856526</ele>
        <time>2024-08-23T08:36:12.000Z</time>
      </trkpt>
      <trkpt lat="46.960829" lon="10.559874">
        <ele>1269.997778</ele>
        <time>2024-08-23T08:36:13.000Z</time>
      </trkpt>
      <trkpt lat="46.960810" lon="10.559907">
        <ele>1270.142010</ele>
        <time>2024-08-23T08:36:14.000Z</time>
      </trkpt>
      <trkpt lat="46.960781" lon="10.559961">
        <ele>1270.371561</ele>
        <time>2024-08-23T08:36:15.000Z</time>
      </trkpt>
      <trkpt lat="46.960762" lon="10.560000">
        <ele>1270.531637</ele>
        <time>2024-08-23T08:36:16.000Z</time>
      </trkpt>
      <trkpt lat="46.960742" lon="10.560036">
        <ele>1270.686710</ele>
        <time>2024-08-23T08:36:17.000Z</time>
      </trkpt>
      <trkpt lat="46.960723" lon="10.560076">
        <ele>1270.849517</ele>
        <time>2024-08-23T08:36:18.000Z</time>
      </trkpt>
      <trkpt lat="46.960709" lon="10.560121">
        <ele>1271.014732</ele>
        <time>2024-08-23T08:36:19.000Z</time>
      </trkpt>
      <trkpt lat="46.960699" lon="10.560191">
        <ele>1271.253651</ele>
        <time>2024-08-23T08:36:20.000Z</time>
      </trkpt>
      <trkpt lat="46.960699" lon="10.560243">
        <ele>1271.427368</ele>
        <time>2024-08-23T08:36:21.000Z</time>
      </trkpt>
      <trkpt lat="46.960703" lon="10.560289">
        <ele>1271.582284</ele>
        <time>2024-08-23T08:36:22.000Z</time>
      </trkpt>
      <trkpt lat="46.960708" lon="10.560336">
        <ele>1271.741194</ele>
        <time>2024-08-23T08:36:23.000Z</time>
      </trkpt>
      <trkpt lat="46.960711" lon="10.560408">
        <ele>1271.982174</ele>
        <time>2024-08-23T08:36:24.000Z</time>
      </trkpt>
      <trkpt lat="46.960708" lon="10.560450">
        <ele>1272.123251</ele>
        <time>2024-08-23T08:36:25.000Z</time>
      </trkpt>
      <trkpt lat="46.960707" lon="10.560491">
        <ele>1272.260308</ele>
        <time>2024-08-23T08:36:26.000Z</time>
      </trkpt>
      <trkpt lat="46.960710" lon="10.560531">
        <ele>1272.394742</ele>
        <time>2024-08-23T08:36:27.000Z</time>
      </trkpt>
      <trkpt lat="46.960713" lon="10.560571">
        <ele>1272.529175</ele>
        <time>2024-08-23T08:36:28.000Z</time>
      </trkpt>
      <trkpt lat="46.960716" lon="10.560632">
        <ele>1272.733488</ele>
        <time>2024-08-23T08:36:29.000Z</time>
      </trkpt>
      <trkpt lat="46.960713" lon="10.560672">
        <ele>1272.867921</ele>
        <time>2024-08-23T08:36:30.000Z</time>
      </trkpt>
      <trkpt lat="46.960705" lon="10.560708">
        <ele>1272.994402</ele>
        <time>2024-08-23T08:36:31.000Z</time>
      </trkpt>
      <trkpt lat="46.960696" lon="10.560743">
        <ele>1273.119351</ele>
        <time>2024-08-23T08:36:32.000Z</time>
      </trkpt>
      <trkpt lat="46.960677" lon="10.560781">
        <ele>1273.276720</ele>
        <time>2024-08-23T08:36:33.000Z</time>
      </trkpt>
      <trkpt lat="46.960666" lon="10.560799">
        <ele>1273.357436</ele>
        <time>2024-08-23T08:36:34.000Z</time>
      </trkpt>
      <trkpt lat="46.960657" lon="10.560818">
        <ele>1273.434699</ele>
        <time>2024-08-23T08:36:35.000Z</time>
      </trkpt>
      <trkpt lat="46.960643" lon="10.560834">
        <ele>1273.521608</ele>
        <time>2024-08-23T08:36:36.000Z</time>
      </trkpt>
      <trkpt lat="46.960629" lon="10.560854">
        <ele>1273.617317</ele>
        <time>2024-08-23T08:36:37.000Z</time>
      </trkpt>
      <trkpt lat="46.960604" lon="10.560882">
        <ele>1273.771345</ele>
        <time>2024-08-23T08:36:38.000Z</time>
      </trkpt>
      <trkpt lat="46.960584" lon="10.560901">
        <ele>1273.888018</ele>
        <time>2024-08-23T08:36:39.000Z</time>
      </trkpt>
      <trkpt lat="46.960565" lon="10.560922">
        <ele>1274.004513</ele>
        <time>2024-08-23T08:36:40.000Z</time>
      </trkpt>
      <trkpt lat="46.960545" lon="10.560940">
        <ele>1274.119404</ele>
        <time>2024-08-23T08:36:41.000Z</time>
      </trkpt>
      <trkpt lat="46.960514" lon="10.560964">
        <ele>1274.291024</ele>
        <time>2024-08-23T08:36:42.000Z</time>
      </trkpt>
      <trkpt lat="46.960494" lon="10.560981">
        <ele>1274.404201</ele>
        <time>2024-08-23T08:36:43.000Z</time>
      </trkpt>
      <trkpt lat="46.960473" lon="10.561000">
        <ele>1274.525011</ele>
        <time>2024-08-23T08:36:44.000Z</time>
      </trkpt>
      <trkpt lat="46.960454" lon="10.561018">
        <ele>1274.635761</ele>
        <time>2024-08-23T08:36:45.000Z</time>
      </trkpt>
      <trkpt lat="46.960431" lon="10.561030">
        <ele>1274.755267</ele>
        <time>2024-08-23T08:36:46.000Z</time>
      </trkpt>
      <trkpt lat="46.960400" lon="10.561049">
        <ele>1274.919747</ele>
        <time>2024-08-23T08:36:47.000Z</time>
      </trkpt>
      <trkpt lat="46.960383" lon="10.561065">
        <ele>1275.018648</ele>
        <time>2024-08-23T08:36:48.000Z</time>
      </trkpt>
      <trkpt lat="46.960365" lon="10.561081">
        <ele>1275.121702</ele>
        <time>2024-08-23T08:36:49.000Z</time>
      </trkpt>
      <trkpt lat="46.960345" lon="10.561091">
        <ele>1275.225142</ele>
        <time>2024-08-23T08:36:50.000Z</time>
      </trkpt>
      <trkpt lat="46.960315" lon="10.561107">
        <ele>1275.381413</ele>
        <time>2024-08-23T08:36:51.000Z</time>
      </trkpt>
      <trkpt lat="46.960294" lon="10.561120">
        <ele>1275.493002</ele>
        <time>2024-08-23T08:36:52.000Z</time>
      </trkpt>
      <trkpt lat="46.960273" lon="10.561133">
        <ele>1275.604592</ele>
        <time>2024-08-23T08:36:53.000Z</time>
      </trkpt>
      <trkpt lat="46.960253" lon="10.561146">
        <ele>1275.711690</ele>
        <time>2024-08-23T08:36:54.000Z</time>
      </trkpt>
      <trkpt lat="46.960234" lon="10.561160">
        <ele>1275.815790</ele>
        <time>2024-08-23T08:36:55.000Z</time>
      </trkpt>
      <trkpt lat="46.960209" lon="10.561180">
        <ele>1275.955213</ele>
        <time>2024-08-23T08:36:56.000Z</time>
      </trkpt>
      <trkpt lat="46.960194" lon="10.561197">
        <ele>1276.048037</ele>
        <time>2024-08-23T08:36:57.000Z</time>
      </trkpt>
      <trkpt lat="46.960178" lon="10.561212">
        <ele>1276.141014</ele>
        <time>2024-08-23T08:36:58.000Z</time>
      </trkpt>
      <trkpt lat="46.960158" lon="10.561227">
        <ele>1276.250991</ele>
        <time>2024-08-23T08:36:59.000Z</time>
      </trkpt>
      <trkpt lat="46.960130" lon="10.561256">
        <ele>1276.418832</ele>
        <time>2024-08-23T08:37:00.000Z</time>
      </trkpt>
      <trkpt lat="46.960112" lon="10.561279">
        <ele>1276.535737</ele>
        <time>2024-08-23T08:37:01.000Z</time>
      </trkpt>
      <trkpt lat="46.960097" lon="10.561308">
        <ele>1276.694047</ele>
        <time>2024-08-23T08:37:02.000Z</time>
      </trkpt>
      <trkpt lat="46.960084" lon="10.561338">
        <ele>1276.968899</ele>
        <time>2024-08-23T08:37:03.000Z</time>
      </trkpt>
      <trkpt lat="46.960063" lon="10.561380">
        <ele>1277.371594</ele>
        <time>2024-08-23T08:37:04.000Z</time>
      </trkpt>
      <trkpt lat="46.960052" lon="10.561412">
        <ele>1277.648718</ele>
        <time>2024-08-23T08:37:05.000Z</time>
      </trkpt>
      <trkpt lat="46.960041" lon="10.561442">
        <ele>1277.912118</ele>
        <time>2024-08-23T08:37:06.000Z</time>
      </trkpt>
      <trkpt lat="46.960028" lon="10.561470">
        <ele>1278.174043</ele>
        <time>2024-08-23T08:37:07.000Z</time>
      </trkpt>
      <trkpt lat="46.960019" lon="10.561499">
        <ele>1278.420444</ele>
        <time>2024-08-23T08:37:08.000Z</time>
      </trkpt>
      <trkpt lat="46.960001" lon="10.561540">
        <ele>1278.797501</ele>
        <time>2024-08-23T08:37:09.000Z</time>
      </trkpt>
      <trkpt lat="46.959992" lon="10.561566">
        <ele>1279.022984</ele>
        <time>2024-08-23T08:37:10.000Z</time>
      </trkpt>
      <trkpt lat="46.959984" lon="10.561593">
        <ele>1279.250646</ele>
        <time>2024-08-23T08:37:11.000Z</time>
      </trkpt>
      <trkpt lat="46.959974" lon="10.561619">
        <ele>1279.481476</ele>
        <time>2024-08-23T08:37:12.000Z</time>
      </trkpt>
      <trkpt lat="46.959960" lon="10.561642">
        <ele>1279.719841</ele>
        <time>2024-08-23T08:37:13.000Z</time>
      </trkpt>
      <trkpt lat="46.959942" lon="10.561680">
        <ele>1280.077603</ele>
        <time>2024-08-23T08:37:14.000Z</time>
      </trkpt>
      <trkpt lat="46.959930" lon="10.561708">
        <ele>1280.333326</ele>
        <time>2024-08-23T08:37:15.000Z</time>
      </trkpt>
      <trkpt lat="46.959916" lon="10.561734">
        <ele>1280.589474</ele>
        <time>2024-08-23T08:37:16.000Z</time>
      </trkpt>
      <trkpt lat="46.959902" lon="10.561759">
        <ele>1280.839595</ele>
        <time>2024-08-23T08:37:17.000Z</time>
      </trkpt>
      <trkpt lat="46.959880" lon="10.561800">
        <ele>1281.242981</ele>
        <time>2024-08-23T08:37:18.000Z</time>
      </trkpt>
      <trkpt lat="46.959866" lon="10.561828">
        <ele>1281.511444</ele>
        <time>2024-08-23T08:37:19.000Z</time>
      </trkpt>
      <trkpt lat="46.959854" lon="10.561858">
        <ele>1281.780394</ele>
        <time>2024-08-23T08:37:20.000Z</time>
      </trkpt>
      <trkpt lat="46.959844" lon="10.561886">
        <ele>1282.024820</ele>
        <time>2024-08-23T08:37:21.000Z</time>
      </trkpt>
      <trkpt lat="46.959831" lon="10.561912">
        <ele>1282.274107</ele>
        <time>2024-08-23T08:37:22.000Z</time>
      </trkpt>
      <trkpt lat="46.959815" lon="10.561952">
        <ele>1282.632707</ele>
        <time>2024-08-23T08:37:23.000Z</time>
      </trkpt>
      <trkpt lat="46.959802" lon="10.561977">
        <ele>1282.875798</ele>
        <time>2024-08-23T08:37:24.000Z</time>
      </trkpt>
      <trkpt lat="46.959789" lon="10.562005">
        <ele>1283.137724</ele>
        <time>2024-08-23T08:37:25.000Z</time>
      </trkpt>
      <trkpt lat="46.959779" lon="10.562034">
        <ele>1283.389028</ele>
        <time>2024-08-23T08:37:26.000Z</time>
      </trkpt>
      <trkpt lat="46.959762" lon="10.562079">
        <ele>1283.786844</ele>
        <time>2024-08-23T08:37:27.000Z</time>
      </trkpt>
      <trkpt lat="46.959751" lon="10.562113">
        <ele>1284.077868</ele>
        <time>2024-08-23T08:37:28.000Z</time>
      </trkpt>
      <trkpt lat="46.959740" lon="10.562144">
        <ele>1284.348108</ele>
        <time>2024-08-23T08:37:29.000Z</time>
      </trkpt>
      <trkpt lat="46.959729" lon="10.562174">
        <ele>1284.611509</ele>
        <time>2024-08-23T08:37:30.000Z</time>
      </trkpt>
      <trkpt lat="46.959716" lon="10.562205">
        <ele>1284.892924</ele>
        <time>2024-08-23T08:37:31.000Z</time>
      </trkpt>
      <trkpt lat="46.959698" lon="10.562249">
        <ele>1285.289696</ele>
        <time>2024-08-23T08:37:32.000Z</time>
      </trkpt>
      <trkpt lat="46.959687" lon="10.562279">
        <ele>1285.553097</ele>
        <time>2024-08-23T08:37:33.000Z</time>
      </trkpt>
      <trkpt lat="46.959675" lon="10.562309">
        <ele>1285.822048</ele>
        <time>2024-08-23T08:37:34.000Z</time>
      </trkpt>
      <trkpt lat="46.959666" lon="10.562341">
        <ele>1286.089745</ele>
        <time>2024-08-23T08:37:35.000Z</time>
      </trkpt>
      <trkpt lat="46.959649" lon="10.562383">
        <ele>1286.467427</ele>
        <time>2024-08-23T08:37:36.000Z</time>
      </trkpt>
      <trkpt lat="46.959638" lon="10.562412">
        <ele>1286.724041</ele>
        <time>2024-08-23T08:37:37.000Z</time>
      </trkpt>
      <trkpt lat="46.959628" lon="10.562441">
        <ele>1286.975346</ele>
        <time>2024-08-23T08:37:38.000Z</time>
      </trkpt>
      <trkpt lat="46.959617" lon="10.562468">
        <ele>1287.218555</ele>
        <time>2024-08-23T08:37:39.000Z</time>
      </trkpt>
      <trkpt lat="46.959608" lon="10.562495">
        <ele>1287.450964</ele>
        <time>2024-08-23T08:37:40.000Z</time>
      </trkpt>
      <trkpt lat="46.959593" lon="10.562534">
        <ele>1287.797212</ele>
        <time>2024-08-23T08:37:41.000Z</time>
      </trkpt>
      <trkpt lat="46.959584" lon="10.562562">
        <ele>1288.036595</ele>
        <time>2024-08-23T08:37:42.000Z</time>
      </trkpt>
      <trkpt lat="46.959576" lon="10.562593">
        <ele>1288.292934</ele>
        <time>2024-08-23T08:37:43.000Z</time>
      </trkpt>
      <trkpt lat="46.959568" lon="10.562621">
        <ele>1288.527713</ele>
        <time>2024-08-23T08:37:44.000Z</time>
      </trkpt>
      <trkpt lat="46.959558" lon="10.562649">
        <ele>1288.772139</ele>
        <time>2024-08-23T08:37:45.000Z</time>
      </trkpt>
      <trkpt lat="46.959545" lon="10.562695">
        <ele>1289.157225</ele>
        <time>2024-08-23T08:37:46.000Z</time>
      </trkpt>
      <trkpt lat="46.959532" lon="10.562720">
        <ele>1289.400316</ele>
        <time>2024-08-23T08:37:47.000Z</time>
      </trkpt>
      <trkpt lat="46.959520" lon="10.562746">
        <ele>1289.643080</ele>
        <time>2024-08-23T08:37:48.000Z</time>
      </trkpt>
      <trkpt lat="46.959511" lon="10.562773">
        <ele>1289.875489</ele>
        <time>2024-08-23T08:37:49.000Z</time>
      </trkpt>
      <trkpt lat="46.959495" lon="10.562813">
        <ele>1290.234091</ele>
        <time>2024-08-23T08:37:50.000Z</time>
      </trkpt>
      <trkpt lat="46.959484" lon="10.562838">
        <ele>1290.464154</ele>
        <time>2024-08-23T08:37:51.000Z</time>
      </trkpt>
      <trkpt lat="46.959476" lon="10.562866">
        <ele>1290.698933</ele>
        <time>2024-08-23T08:37:52.000Z</time>
      </trkpt>
      <trkpt lat="46.959467" lon="10.562892">
        <ele>1290.924418</ele>
        <time>2024-08-23T08:37:53.000Z</time>
      </trkpt>
      <trkpt lat="46.959454" lon="10.562932">
        <ele>1291.267087</ele>
        <time>2024-08-23T08:37:54.000Z</time>
      </trkpt>
      <trkpt lat="46.959445" lon="10.562960">
        <ele>1291.506471</ele>
        <time>2024-08-23T08:37:55.000Z</time>
      </trkpt>
      <trkpt lat="46.959436" lon="10.562986">
        <ele>1291.731956</ele>
        <time>2024-08-23T08:37:56.000Z</time>
      </trkpt>
      <trkpt lat="46.959426" lon="10.563011">
        <ele>1291.956082</ele>
        <time>2024-08-23T08:37:57.000Z</time>
      </trkpt>
      <trkpt lat="46.959417" lon="10.563038">
        <ele>1292.188491</ele>
        <time>2024-08-23T08:37:58.000Z</time>
      </trkpt>
      <trkpt lat="46.959403" lon="10.563075">
        <ele>1292.515707</ele>
        <time>2024-08-23T08:37:59.000Z</time>
      </trkpt>
      <trkpt lat="46.959394" lon="10.563100">
        <ele>1292.734322</ele>
        <time>2024-08-23T08:38:00.000Z</time>
      </trkpt>
      <trkpt lat="46.959386" lon="10.563124">
        <ele>1292.940909</ele>
        <time>2024-08-23T08:38:01.000Z</time>
      </trkpt>
      <trkpt lat="46.959378" lon="10.563147">
        <ele>1293.140574</ele>
        <time>2024-08-23T08:38:02.000Z</time>
      </trkpt>
      <trkpt lat="46.959363" lon="10.563180">
        <ele>1293.447240</ele>
        <time>2024-08-23T08:38:03.000Z</time>
      </trkpt>
      <trkpt lat="46.959353" lon="10.563201">
        <ele>1293.645293</ele>
        <time>2024-08-23T08:38:04.000Z</time>
      </trkpt>
      <trkpt lat="46.959343" lon="10.563223">
        <ele>1293.849737</ele>
        <time>2024-08-23T08:38:05.000Z</time>
      </trkpt>
      <trkpt lat="46.959334" lon="10.563248">
        <ele>1294.068352</ele>
        <time>2024-08-23T08:38:06.000Z</time>
      </trkpt>
      <trkpt lat="46.959328" lon="10.563273">
        <ele>1294.273324</ele>
        <time>2024-08-23T08:38:07.000Z</time>
      </trkpt>
      <trkpt lat="46.959312" lon="10.563310">
        <ele>1294.612110</ele>
        <time>2024-08-23T08:38:08.000Z</time>
      </trkpt>
      <trkpt lat="46.959303" lon="10.563335">
        <ele>1294.830726</ele>
        <time>2024-08-23T08:38:09.000Z</time>
      </trkpt>
      <trkpt lat="46.959297" lon="10.563361">
        <ele>1295.043010</ele>
        <time>2024-08-23T08:38:10.000Z</time>
      </trkpt>
      <trkpt lat="46.959291" lon="10.563386">
        <ele>1295.247982</ele>
        <time>2024-08-23T08:38:11.000Z</time>
      </trkpt>
      <trkpt lat="46.959282" lon="10.563428">
        <ele>1295.588470</ele>
        <time>2024-08-23T08:38:12.000Z</time>
      </trkpt>
      <trkpt lat="46.959273" lon="10.563451">
        <ele>1295.793530</ele>
        <time>2024-08-23T08:38:13.000Z</time>
      </trkpt>
      <trkpt lat="46.959267" lon="10.563476">
        <ele>1295.998502</ele>
        <time>2024-08-23T08:38:14.000Z</time>
      </trkpt>
      <trkpt lat="46.959259" lon="10.563501">
        <ele>1296.212066</ele>
        <time>2024-08-23T08:38:15.000Z</time>
      </trkpt>
      <trkpt lat="46.959253" lon="10.563527">
        <ele>1296.424350</ele>
        <time>2024-08-23T08:38:16.000Z</time>
      </trkpt>
      <trkpt lat="46.959241" lon="10.563565">
        <ele>1296.748201</ele>
        <time>2024-08-23T08:38:17.000Z</time>
      </trkpt>
      <trkpt lat="46.959237" lon="10.563591">
        <ele>1296.954347</ele>
        <time>2024-08-23T08:38:18.000Z</time>
      </trkpt>
      <trkpt lat="46.959232" lon="10.563617">
        <ele>1297.176013</ele>
        <time>2024-08-23T08:38:19.000Z</time>
      </trkpt>
      <trkpt lat="46.959225" lon="10.563643">
        <ele>1297.410446</ele>
        <time>2024-08-23T08:38:20.000Z</time>
      </trkpt>
      <trkpt lat="46.959217" lon="10.563682">
        <ele>1297.752020</ele>
        <time>2024-08-23T08:38:21.000Z</time>
      </trkpt>
      <trkpt lat="46.959210" lon="10.563707">
        <ele>1297.978672</ele>
        <time>2024-08-23T08:38:22.000Z</time>
      </trkpt>
      <trkpt lat="46.959205" lon="10.563733">
        <ele>1298.205243</ele>
        <time>2024-08-23T08:38:23.000Z</time>
      </trkpt>
      <trkpt lat="46.959202" lon="10.563759">
        <ele>1298.426417</ele>
        <time>2024-08-23T08:38:24.000Z</time>
      </trkpt>
      <trkpt lat="46.959200" lon="10.563786">
        <ele>1298.654214</ele>
        <time>2024-08-23T08:38:25.000Z</time>
      </trkpt>
      <trkpt lat="46.959198" lon="10.563827">
        <ele>1298.998986</ele>
        <time>2024-08-23T08:38:26.000Z</time>
      </trkpt>
      <trkpt lat="46.959196" lon="10.563856">
        <ele>1299.243468</ele>
        <time>2024-08-23T08:38:27.000Z</time>
      </trkpt>
      <trkpt lat="46.959196" lon="10.563883">
        <ele>1299.469935</ele>
        <time>2024-08-23T08:38:28.000Z</time>
      </trkpt>
      <trkpt lat="46.959194" lon="10.563909">
        <ele>1299.689395</ele>
        <time>2024-08-23T08:38:29.000Z</time>
      </trkpt>
      <trkpt lat="46.959189" lon="10.563951">
        <ele>1300.046997</ele>
        <time>2024-08-23T08:38:30.000Z</time>
      </trkpt>
      <trkpt lat="46.959184" lon="10.563978">
        <ele>1300.281652</ele>
        <time>2024-08-23T08:38:31.000Z</time>
      </trkpt>
      <trkpt lat="46.959180" lon="10.564005">
        <ele>1300.513393</ele>
        <time>2024-08-23T08:38:32.000Z</time>
      </trkpt>
      <trkpt lat="46.959178" lon="10.564033">
        <ele>1300.749531</ele>
        <time>2024-08-23T08:38:33.000Z</time>
      </trkpt>
      <trkpt lat="46.959174" lon="10.564058">
        <ele>1300.964908</ele>
        <time>2024-08-23T08:38:34.000Z</time>
      </trkpt>
      <trkpt lat="46.959170" lon="10.564099">
        <ele>1301.312298</ele>
        <time>2024-08-23T08:38:35.000Z</time>
      </trkpt>
      <trkpt lat="46.959168" lon="10.564126">
        <ele>1301.540095</ele>
        <time>2024-08-23T08:38:36.000Z</time>
      </trkpt>
      <trkpt lat="46.959165" lon="10.564156">
        <ele>1301.794412</ele>
        <time>2024-08-23T08:38:37.000Z</time>
      </trkpt>
      <trkpt lat="46.959161" lon="10.564182">
        <ele>1302.017964</ele>
        <time>2024-08-23T08:38:38.000Z</time>
      </trkpt>
      <trkpt lat="46.959154" lon="10.564223">
        <ele>1302.372455</ele>
        <time>2024-08-23T08:38:39.000Z</time>
      </trkpt>
      <trkpt lat="46.959149" lon="10.564249">
        <ele>1302.599026</ele>
        <time>2024-08-23T08:38:40.000Z</time>
      </trkpt>
      <trkpt lat="46.959146" lon="10.564276">
        <ele>1302.828475</ele>
        <time>2024-08-23T08:38:41.000Z</time>
      </trkpt>
      <trkpt lat="46.959145" lon="10.564301">
        <ele>1303.038527</ele>
        <time>2024-08-23T08:38:42.000Z</time>
      </trkpt>
      <trkpt lat="46.959145" lon="10.564326">
        <ele>1303.248219</ele>
        <time>2024-08-23T08:38:43.000Z</time>
      </trkpt>
      <trkpt lat="46.959138" lon="10.564366">
        <ele>1303.594580</ele>
        <time>2024-08-23T08:38:44.000Z</time>
      </trkpt>
      <trkpt lat="46.959129" lon="10.564387">
        <ele>1303.802568</ele>
        <time>2024-08-23T08:38:45.000Z</time>
      </trkpt>
      <trkpt lat="46.959120" lon="10.564409">
        <ele>1304.017705</ele>
        <time>2024-08-23T08:38:46.000Z</time>
      </trkpt>
      <trkpt lat="46.959114" lon="10.564433">
        <ele>1304.232089</ele>
        <time>2024-08-23T08:38:47.000Z</time>
      </trkpt>
      <trkpt lat="46.959101" lon="10.564469">
        <ele>1304.573706</ele>
        <time>2024-08-23T08:38:48.000Z</time>
      </trkpt>
      <trkpt lat="46.959093" lon="10.564493">
        <ele>1304.797735</ele>
        <time>2024-08-23T08:38:49.000Z</time>
      </trkpt>
      <trkpt lat="46.959082" lon="10.564518">
        <ele>1305.047225</ele>
        <time>2024-08-23T08:38:50.000Z</time>
      </trkpt>
      <trkpt lat="46.959073" lon="10.564539">
        <ele>1305.255213</ele>
        <time>2024-08-23T08:38:51.000Z</time>
      </trkpt>
      <trkpt lat="46.959064" lon="10.564561">
        <ele>1305.470351</ele>
        <time>2024-08-23T08:38:52.000Z</time>
      </trkpt>
      <trkpt lat="46.959051" lon="10.564595">
        <ele>1305.797233</ele>
        <time>2024-08-23T08:38:53.000Z</time>
      </trkpt>
      <trkpt lat="46.959043" lon="10.564617">
        <ele>1306.006319</ele>
        <time>2024-08-23T08:38:54.000Z</time>
      </trkpt>
      <trkpt lat="46.959037" lon="10.564643">
        <ele>1306.236528</ele>
        <time>2024-08-23T08:38:55.000Z</time>
      </trkpt>
      <trkpt lat="46.959032" lon="10.564669">
        <ele>1306.463099</ele>
        <time>2024-08-23T08:38:56.000Z</time>
      </trkpt>
      <trkpt lat="46.959025" lon="10.564706">
        <ele>1306.785146</ele>
        <time>2024-08-23T08:38:57.000Z</time>
      </trkpt>
      <trkpt lat="46.959016" lon="10.564730">
        <ele>1307.014835</ele>
        <time>2024-08-23T08:38:58.000Z</time>
      </trkpt>
      <trkpt lat="46.959013" lon="10.564757">
        <ele>1307.244285</ele>
        <time>2024-08-23T08:38:59.000Z</time>
      </trkpt>
      <trkpt lat="46.959007" lon="10.564782">
        <ele>1307.466564</ele>
        <time>2024-08-23T08:39:00.000Z</time>
      </trkpt>
      <trkpt lat="46.959003" lon="10.564808">
        <ele>1307.690116</ele>
        <time>2024-08-23T08:39:01.000Z</time>
      </trkpt>
      <trkpt lat="46.958998" lon="10.564847">
        <ele>1308.022957</ele>
        <time>2024-08-23T08:39:02.000Z</time>
      </trkpt>
      <trkpt lat="46.958995" lon="10.564872">
        <ele>1308.235866</ele>
        <time>2024-08-23T08:39:03.000Z</time>
      </trkpt>
      <trkpt lat="46.958991" lon="10.564900">
        <ele>1308.475812</ele>
        <time>2024-08-23T08:39:04.000Z</time>
      </trkpt>
      <trkpt lat="46.958989" lon="10.564926">
        <ele>1308.695273</ele>
        <time>2024-08-23T08:39:05.000Z</time>
      </trkpt>
      <trkpt lat="46.958989" lon="10.564964">
        <ele>1309.014006</ele>
        <time>2024-08-23T08:39:06.000Z</time>
      </trkpt>
      <trkpt lat="46.958990" lon="10.564994">
        <ele>1309.265937</ele>
        <time>2024-08-23T08:39:07.000Z</time>
      </trkpt>
      <trkpt lat="46.958989" lon="10.565022">
        <ele>1309.501114</ele>
        <time>2024-08-23T08:39:08.000Z</time>
      </trkpt>
      <trkpt lat="46.958989" lon="10.565050">
        <ele>1309.735970</ele>
        <time>2024-08-23T08:39:09.000Z</time>
      </trkpt>
      <trkpt lat="46.958989" lon="10.565075">
        <ele>1309.945663</ele>
        <time>2024-08-23T08:39:10.000Z</time>
      </trkpt>
      <trkpt lat="46.958990" lon="10.565119">
        <ele>1310.314927</ele>
        <time>2024-08-23T08:39:11.000Z</time>
      </trkpt>
      <trkpt lat="46.958990" lon="10.565148">
        <ele>1310.558171</ele>
        <time>2024-08-23T08:39:12.000Z</time>
      </trkpt>
      <trkpt lat="46.958992" lon="10.565173">
        <ele>1310.769299</ele>
        <time>2024-08-23T08:39:13.000Z</time>
      </trkpt>
      <trkpt lat="46.958994" lon="10.565199">
        <ele>1310.988760</ele>
        <time>2024-08-23T08:39:14.000Z</time>
      </trkpt>
      <trkpt lat="46.958998" lon="10.565238">
        <ele>1311.319554</ele>
        <time>2024-08-23T08:39:15.000Z</time>
      </trkpt>
      <trkpt lat="46.958998" lon="10.565263">
        <ele>1311.529246</ele>
        <time>2024-08-23T08:39:16.000Z</time>
      </trkpt>
      <trkpt lat="46.958997" lon="10.565289">
        <ele>1311.747673</ele>
        <time>2024-08-23T08:39:17.000Z</time>
      </trkpt>
      <trkpt lat="46.958997" lon="10.565313">
        <ele>1311.948978</ele>
        <time>2024-08-23T08:39:18.000Z</time>
      </trkpt>
      <trkpt lat="46.959002" lon="10.565353">
        <ele>1312.290067</ele>
        <time>2024-08-23T08:39:19.000Z</time>
      </trkpt>
      <trkpt lat="46.959007" lon="10.565380">
        <ele>1312.524723</ele>
        <time>2024-08-23T08:39:20.000Z</time>
      </trkpt>
      <trkpt lat="46.959011" lon="10.565404">
        <ele>1312.731943</ele>
        <time>2024-08-23T08:39:21.000Z</time>
      </trkpt>
      <trkpt lat="46.959019" lon="10.565427">
        <ele>1312.948467</ele>
        <time>2024-08-23T08:39:22.000Z</time>
      </trkpt>
      <trkpt lat="46.959029" lon="10.565453">
        <ele>1313.198790</ele>
        <time>2024-08-23T08:39:23.000Z</time>
      </trkpt>
      <trkpt lat="46.959045" lon="10.565491">
        <ele>1313.573295</ele>
        <time>2024-08-23T08:39:24.000Z</time>
      </trkpt>
      <trkpt lat="46.959033" lon="10.565504">
        <ele>1313.756700</ele>
        <time>2024-08-23T08:39:24.000Z</time>
      </trkpt>
      <trkpt lat="46.959038" lon="10.565517">
        <ele>1313.881862</ele>
        <time>2024-08-23T08:39:25.000Z</time>
      </trkpt>
      <trkpt lat="46.959081" lon="10.565610">
        <ele>1314.824059</ele>
        <time>2024-08-23T08:39:27.000Z</time>
      </trkpt>
      <trkpt lat="46.959100" lon="10.565657">
        <ele>1315.282242</ele>
        <time>2024-08-23T08:39:29.000Z</time>
      </trkpt>
      <trkpt lat="46.959106" lon="10.565685">
        <ele>1315.528401</ele>
        <time>2024-08-23T08:39:30.000Z</time>
      </trkpt>
      <trkpt lat="46.959119" lon="10.565730">
        <ele>1315.938265</ele>
        <time>2024-08-23T08:39:31.000Z</time>
      </trkpt>
      <trkpt lat="46.959126" lon="10.565771">
        <ele>1316.292757</ele>
        <time>2024-08-23T08:39:32.000Z</time>
      </trkpt>
      <trkpt lat="46.959129" lon="10.565785">
        <ele>1316.415836</ele>
        <time>2024-08-23T08:39:33.000Z</time>
      </trkpt>
      <trkpt lat="46.959136" lon="10.565818">
        <ele>1316.705690</ele>
        <time>2024-08-23T08:39:34.000Z</time>
      </trkpt>
      <trkpt lat="46.959141" lon="10.565846">
        <ele>1316.948450</ele>
        <time>2024-08-23T08:39:35.000Z</time>
      </trkpt>
      <trkpt lat="46.959144" lon="10.565872">
        <ele>1317.169625</ele>
        <time>2024-08-23T08:39:36.000Z</time>
      </trkpt>
      <trkpt lat="46.959148" lon="10.565915">
        <ele>1317.533630</ele>
        <time>2024-08-23T08:39:37.000Z</time>
      </trkpt>
      <trkpt lat="46.959150" lon="10.565943">
        <ele>1317.769767</ele>
        <time>2024-08-23T08:39:38.000Z</time>
      </trkpt>
      <trkpt lat="46.959150" lon="10.565970">
        <ele>1317.996235</ele>
        <time>2024-08-23T08:39:39.000Z</time>
      </trkpt>
      <trkpt lat="46.959149" lon="10.565998">
        <ele>1318.231412</ele>
        <time>2024-08-23T08:39:40.000Z</time>
      </trkpt>
      <trkpt lat="46.959144" lon="10.566026">
        <ele>1318.474172</ele>
        <time>2024-08-23T08:39:41.000Z</time>
      </trkpt>
      <trkpt lat="46.959143" lon="10.566065">
        <ele>1318.801523</ele>
        <time>2024-08-23T08:39:42.000Z</time>
      </trkpt>
      <trkpt lat="46.959147" lon="10.566089">
        <ele>1319.008742</ele>
        <time>2024-08-23T08:39:43.000Z</time>
      </trkpt>
      <trkpt lat="46.959149" lon="10.566119">
        <ele>1319.258027</ele>
        <time>2024-08-23T08:39:44.000Z</time>
      </trkpt>
      <trkpt lat="46.959151" lon="10.566146">
        <ele>1319.480260</ele>
        <time>2024-08-23T08:39:45.000Z</time>
      </trkpt>
      <trkpt lat="46.959153" lon="10.566186">
        <ele>1319.808450</ele>
        <time>2024-08-23T08:39:46.000Z</time>
      </trkpt>
      <trkpt lat="46.959154" lon="10.566212">
        <ele>1320.021540</ele>
        <time>2024-08-23T08:39:47.000Z</time>
      </trkpt>
      <trkpt lat="46.959155" lon="10.566236">
        <ele>1320.218294</ele>
        <time>2024-08-23T08:39:48.000Z</time>
      </trkpt>
      <trkpt lat="46.959153" lon="10.566264">
        <ele>1320.448664</ele>
        <time>2024-08-23T08:39:49.000Z</time>
      </trkpt>
      <trkpt lat="46.959154" lon="10.566294">
        <ele>1320.694440</ele>
        <time>2024-08-23T08:39:50.000Z</time>
      </trkpt>
      <trkpt lat="46.959158" lon="10.566336">
        <ele>1321.041448</ele>
        <time>2024-08-23T08:39:51.000Z</time>
      </trkpt>
      <trkpt lat="46.959160" lon="10.566364">
        <ele>1321.271818</ele>
        <time>2024-08-23T08:39:52.000Z</time>
      </trkpt>
      <trkpt lat="46.959163" lon="10.566392">
        <ele>1321.503743</ele>
        <time>2024-08-23T08:39:53.000Z</time>
      </trkpt>
      <trkpt lat="46.959166" lon="10.566419">
        <ele>1321.727587</ele>
        <time>2024-08-23T08:39:54.000Z</time>
      </trkpt>
      <trkpt lat="46.959168" lon="10.566446">
        <ele>1321.949821</ele>
        <time>2024-08-23T08:39:55.000Z</time>
      </trkpt>
      <trkpt lat="46.959163" lon="10.566488">
        <ele>1322.298687</ele>
        <time>2024-08-23T08:39:56.000Z</time>
      </trkpt>
      <trkpt lat="46.959154" lon="10.566512">
        <ele>1322.522765</ele>
        <time>2024-08-23T08:39:57.000Z</time>
      </trkpt>
      <trkpt lat="46.959146" lon="10.566537">
        <ele>1322.748704</ele>
        <time>2024-08-23T08:39:58.000Z</time>
      </trkpt>
      <trkpt lat="46.959135" lon="10.566563">
        <ele>1322.999016</ele>
        <time>2024-08-23T08:39:59.000Z</time>
      </trkpt>
      <trkpt lat="46.959120" lon="10.566598">
        <ele>1323.337196</ele>
        <time>2024-08-23T08:40:00.000Z</time>
      </trkpt>
      <trkpt lat="46.959107" lon="10.566619">
        <ele>1323.569189</ele>
        <time>2024-08-23T08:40:01.000Z</time>
      </trkpt>
      <trkpt lat="46.959097" lon="10.566636">
        <ele>1323.752832</ele>
        <time>2024-08-23T08:40:02.000Z</time>
      </trkpt>
      <trkpt lat="46.959083" lon="10.566659">
        <ele>1324.005011</ele>
        <time>2024-08-23T08:40:03.000Z</time>
      </trkpt>
      <trkpt lat="46.959063" lon="10.566687">
        <ele>1324.336660</ele>
        <time>2024-08-23T08:40:04.000Z</time>
      </trkpt>
      <trkpt lat="46.959048" lon="10.566703">
        <ele>1324.559107</ele>
        <time>2024-08-23T08:40:05.000Z</time>
      </trkpt>
      <trkpt lat="46.959032" lon="10.566717">
        <ele>1324.782537</ele>
        <time>2024-08-23T08:40:06.000Z</time>
      </trkpt>
      <trkpt lat="46.959017" lon="10.566726">
        <ele>1324.976869</ele>
        <time>2024-08-23T08:40:07.000Z</time>
      </trkpt>
      <trkpt lat="46.959002" lon="10.566736">
        <ele>1325.174448</ele>
        <time>2024-08-23T08:40:08.000Z</time>
      </trkpt>
      <trkpt lat="46.958979" lon="10.566753">
        <ele>1325.483299</ele>
        <time>2024-08-23T08:40:09.000Z</time>
      </trkpt>
      <trkpt lat="46.958963" lon="10.566761">
        <ele>1325.685987</ele>
        <time>2024-08-23T08:40:10.000Z</time>
      </trkpt>
      <trkpt lat="46.958948" lon="10.566768">
        <ele>1325.874726</ele>
        <time>2024-08-23T08:40:11.000Z</time>
      </trkpt>
      <trkpt lat="46.958929" lon="10.566775">
        <ele>1326.109610</ele>
        <time>2024-08-23T08:40:12.000Z</time>
      </trkpt>
      <trkpt lat="46.958911" lon="10.566779">
        <ele>1326.327883</ele>
        <time>2024-08-23T08:40:13.000Z</time>
      </trkpt>
      <trkpt lat="46.958882" lon="10.566789">
        <ele>1326.685067</ele>
        <time>2024-08-23T08:40:14.000Z</time>
      </trkpt>
      <trkpt lat="46.958864" lon="10.566798">
        <ele>1326.913091</ele>
        <time>2024-08-23T08:40:15.000Z</time>
      </trkpt>
      <trkpt lat="46.958846" lon="10.566800">
        <ele>1327.129515</ele>
        <time>2024-08-23T08:40:16.000Z</time>
      </trkpt>
      <trkpt lat="46.958831" lon="10.566799">
        <ele>1327.309538</ele>
        <time>2024-08-23T08:40:17.000Z</time>
      </trkpt>
      <trkpt lat="46.958808" lon="10.566805">
        <ele>1327.589625</ele>
        <time>2024-08-23T08:40:18.000Z</time>
      </trkpt>
      <trkpt lat="46.958793" lon="10.566805">
        <ele>1327.769462</ele>
        <time>2024-08-23T08:40:19.000Z</time>
      </trkpt>
      <trkpt lat="46.958778" lon="10.566805">
        <ele>1327.949299</ele>
        <time>2024-08-23T08:40:20.000Z</time>
      </trkpt>
      <trkpt lat="46.958763" lon="10.566804">
        <ele>1328.129321</ele>
        <time>2024-08-23T08:40:21.000Z</time>
      </trkpt>
      <trkpt lat="46.958746" lon="10.566804">
        <ele>1328.333137</ele>
        <time>2024-08-23T08:40:22.000Z</time>
      </trkpt>
      <trkpt lat="46.958722" lon="10.566806">
        <ele>1328.621341</ele>
        <time>2024-08-23T08:40:23.000Z</time>
      </trkpt>
      <trkpt lat="46.958703" lon="10.566808">
        <ele>1328.849721</ele>
        <time>2024-08-23T08:40:24.000Z</time>
      </trkpt>
      <trkpt lat="46.958687" lon="10.566809">
        <ele>1329.041722</ele>
        <time>2024-08-23T08:40:25.000Z</time>
      </trkpt>
      <trkpt lat="46.958667" lon="10.566813">
        <ele>1329.283728</ele>
        <time>2024-08-23T08:40:26.000Z</time>
      </trkpt>
      <trkpt lat="46.958648" lon="10.566824">
        <ele>1329.528660</ele>
        <time>2024-08-23T08:40:27.000Z</time>
      </trkpt>
      <trkpt lat="46.958623" lon="10.566841">
        <ele>1329.859097</ele>
        <time>2024-08-23T08:40:28.000Z</time>
      </trkpt>
      <trkpt lat="46.958605" lon="10.566857">
        <ele>1330.111511</ele>
        <time>2024-08-23T08:40:29.000Z</time>
      </trkpt>
      <trkpt lat="46.958586" lon="10.566874">
        <ele>1330.378422</ele>
        <time>2024-08-23T08:40:30.000Z</time>
      </trkpt>
      <trkpt lat="46.958566" lon="10.566890">
        <ele>1330.651620</ele>
        <time>2024-08-23T08:40:31.000Z</time>
      </trkpt>
      <trkpt lat="46.958537" lon="10.566911">
        <ele>1331.039453</ele>
        <time>2024-08-23T08:40:32.000Z</time>
      </trkpt>
      <trkpt lat="46.958521" lon="10.566921">
        <ele>1331.248003</ele>
        <time>2024-08-23T08:40:33.000Z</time>
      </trkpt>
      <trkpt lat="46.958506" lon="10.566932">
        <ele>1331.449108</ele>
        <time>2024-08-23T08:40:34.000Z</time>
      </trkpt>
      <trkpt lat="46.958492" lon="10.566939">
        <ele>1331.626461</ele>
        <time>2024-08-23T08:40:35.000Z</time>
      </trkpt>
      <trkpt lat="46.958470" lon="10.566956">
        <ele>1331.924657</ele>
        <time>2024-08-23T08:40:36.000Z</time>
      </trkpt>
      <trkpt lat="46.958455" lon="10.566972">
        <ele>1332.147105</ele>
        <time>2024-08-23T08:40:37.000Z</time>
      </trkpt>
      <trkpt lat="46.958442" lon="10.566989">
        <ele>1332.356015</ele>
        <time>2024-08-23T08:40:38.000Z</time>
      </trkpt>
      <trkpt lat="46.958427" lon="10.567002">
        <ele>1332.564959</ele>
        <time>2024-08-23T08:40:39.000Z</time>
      </trkpt>
      <trkpt lat="46.958403" lon="10.567022">
        <ele>1332.895985</ele>
        <time>2024-08-23T08:40:40.000Z</time>
      </trkpt>
      <trkpt lat="46.958385" lon="10.567038">
        <ele>1333.148400</ele>
        <time>2024-08-23T08:40:41.000Z</time>
      </trkpt>
      <trkpt lat="46.958370" lon="10.567059">
        <ele>1333.397138</ele>
        <time>2024-08-23T08:40:42.000Z</time>
      </trkpt>
      <trkpt lat="46.958353" lon="10.567078">
        <ele>1333.653484</ele>
        <time>2024-08-23T08:40:43.000Z</time>
      </trkpt>
      <trkpt lat="46.958338" lon="10.567092">
        <ele>1333.866711</ele>
        <time>2024-08-23T08:40:44.000Z</time>
      </trkpt>
      <trkpt lat="46.958314" lon="10.567116">
        <ele>1334.215083</ele>
        <time>2024-08-23T08:40:45.000Z</time>
      </trkpt>
      <trkpt lat="46.958295" lon="10.567128">
        <ele>1334.463139</ele>
        <time>2024-08-23T08:40:46.000Z</time>
      </trkpt>
      <trkpt lat="46.958275" lon="10.567142">
        <ele>1334.728883</ele>
        <time>2024-08-23T08:40:47.000Z</time>
      </trkpt>
      <trkpt lat="46.958256" lon="10.567159">
        <ele>1334.995794</ele>
        <time>2024-08-23T08:40:48.000Z</time>
      </trkpt>
      <trkpt lat="46.958239" lon="10.567174">
        <ele>1335.233716</ele>
        <time>2024-08-23T08:40:49.000Z</time>
      </trkpt>
      <trkpt lat="46.958218" lon="10.567199">
        <ele>1335.558122</ele>
        <time>2024-08-23T08:40:50.000Z</time>
      </trkpt>
      <trkpt lat="46.958203" lon="10.567216">
        <ele>1335.785483</ele>
        <time>2024-08-23T08:40:51.000Z</time>
      </trkpt>
      <trkpt lat="46.958184" lon="10.567230">
        <ele>1336.040462</ele>
        <time>2024-08-23T08:40:52.000Z</time>
      </trkpt>
      <trkpt lat="46.958166" lon="10.567241">
        <ele>1336.274286</ele>
        <time>2024-08-23T08:40:53.000Z</time>
      </trkpt>
      <trkpt lat="46.958137" lon="10.567254">
        <ele>1336.637880</ele>
        <time>2024-08-23T08:40:54.000Z</time>
      </trkpt>
      <trkpt lat="46.958122" lon="10.567265">
        <ele>1336.838986</ele>
        <time>2024-08-23T08:40:55.000Z</time>
      </trkpt>
      <trkpt lat="46.958105" lon="10.567280">
        <ele>1337.076908</ele>
        <time>2024-08-23T08:40:56.000Z</time>
      </trkpt>
      <trkpt lat="46.958087" lon="10.567293">
        <ele>1337.317507</ele>
        <time>2024-08-23T08:40:57.000Z</time>
      </trkpt>
      <trkpt lat="46.958070" lon="10.567306">
        <ele>1337.547414</ele>
        <time>2024-08-23T08:40:58.000Z</time>
      </trkpt>
      <trkpt lat="46.958047" lon="10.567326">
        <ele>1337.868073</ele>
        <time>2024-08-23T08:40:59.000Z</time>
      </trkpt>
      <trkpt lat="46.958035" lon="10.567339">
        <ele>1338.047000</ele>
        <time>2024-08-23T08:41:00.000Z</time>
      </trkpt>
      <trkpt lat="46.958019" lon="10.567352">
        <ele>1338.266348</ele>
        <time>2024-08-23T08:41:01.000Z</time>
      </trkpt>
      <trkpt lat="46.958004" lon="10.567364">
        <ele>1338.471248</ele>
        <time>2024-08-23T08:41:02.000Z</time>
      </trkpt>
      <trkpt lat="46.957982" lon="10.567385">
        <ele>1338.786049</ele>
        <time>2024-08-23T08:41:03.000Z</time>
      </trkpt>
      <trkpt lat="46.957966" lon="10.567400">
        <ele>1339.013784</ele>
        <time>2024-08-23T08:41:04.000Z</time>
      </trkpt>
      <trkpt lat="46.957948" lon="10.567415">
        <ele>1339.262054</ele>
        <time>2024-08-23T08:41:05.000Z</time>
      </trkpt>
      <trkpt lat="46.957931" lon="10.567429">
        <ele>1339.495859</ele>
        <time>2024-08-23T08:41:06.000Z</time>
      </trkpt>
      <trkpt lat="46.957915" lon="10.567447">
        <ele>1339.737712</ele>
        <time>2024-08-23T08:41:07.000Z</time>
      </trkpt>
      <trkpt lat="46.957888" lon="10.567467">
        <ele>1340.100438</ele>
        <time>2024-08-23T08:41:08.000Z</time>
      </trkpt>
      <trkpt lat="46.957866" lon="10.567478">
        <ele>1340.379136</ele>
        <time>2024-08-23T08:41:09.000Z</time>
      </trkpt>
      <trkpt lat="46.957846" lon="10.567489">
        <ele>1340.635257</ele>
        <time>2024-08-23T08:41:10.000Z</time>
      </trkpt>
      <trkpt lat="46.957827" lon="10.567506">
        <ele>1340.855430</ele>
        <time>2024-08-23T08:41:11.000Z</time>
      </trkpt>
      <trkpt lat="46.957802" lon="10.567520">
        <ele>1341.108601</ele>
        <time>2024-08-23T08:41:12.000Z</time>
      </trkpt>
      <trkpt lat="46.957784" lon="10.567529">
        <ele>1341.288513</ele>
        <time>2024-08-23T08:41:13.000Z</time>
      </trkpt>
      <trkpt lat="46.957766" lon="10.567540">
        <ele>1341.473001</ele>
        <time>2024-08-23T08:41:14.000Z</time>
      </trkpt>
      <trkpt lat="46.957748" lon="10.567549">
        <ele>1341.652913</ele>
        <time>2024-08-23T08:41:15.000Z</time>
      </trkpt>
      <trkpt lat="46.957731" lon="10.567557">
        <ele>1341.821814</ele>
        <time>2024-08-23T08:41:16.000Z</time>
      </trkpt>
      <trkpt lat="46.957706" lon="10.567572">
        <ele>1342.077362</ele>
        <time>2024-08-23T08:41:17.000Z</time>
      </trkpt>
      <trkpt lat="46.957690" lon="10.567582">
        <ele>1342.241909</ele>
        <time>2024-08-23T08:41:18.000Z</time>
      </trkpt>
      <trkpt lat="46.957677" lon="10.567591">
        <ele>1342.377919</ele>
        <time>2024-08-23T08:41:19.000Z</time>
      </trkpt>
      <trkpt lat="46.957665" lon="10.567602">
        <ele>1342.511819</ele>
        <time>2024-08-23T08:41:20.000Z</time>
      </trkpt>
      <trkpt lat="46.957646" lon="10.567621">
        <ele>1342.729422</ele>
        <time>2024-08-23T08:41:21.000Z</time>
      </trkpt>
      <trkpt lat="46.957632" lon="10.567635">
        <ele>1342.889761</ele>
        <time>2024-08-23T08:41:22.000Z</time>
      </trkpt>
      <trkpt lat="46.957615" lon="10.567647">
        <ele>1343.068262</ele>
        <time>2024-08-23T08:41:23.000Z</time>
      </trkpt>
      <trkpt lat="46.957598" lon="10.567659">
        <ele>1343.246763</ele>
        <time>2024-08-23T08:41:24.000Z</time>
      </trkpt>
      <trkpt lat="46.957583" lon="10.567674">
        <ele>1343.418555</ele>
        <time>2024-08-23T08:41:25.000Z</time>
      </trkpt>
      <trkpt lat="46.957557" lon="10.567690">
        <ele>1343.685314</ele>
        <time>2024-08-23T08:41:26.000Z</time>
      </trkpt>
      <trkpt lat="46.957541" lon="10.567707">
        <ele>1343.872275</ele>
        <time>2024-08-23T08:41:27.000Z</time>
      </trkpt>
      <trkpt lat="46.957527" lon="10.567726">
        <ele>1344.052793</ele>
        <time>2024-08-23T08:41:28.000Z</time>
      </trkpt>
      <trkpt lat="46.957513" lon="10.567742">
        <ele>1344.220750</ele>
        <time>2024-08-23T08:41:29.000Z</time>
      </trkpt>
      <trkpt lat="46.957494" lon="10.567766">
        <ele>1344.458055</ele>
        <time>2024-08-23T08:41:30.000Z</time>
      </trkpt>
      <trkpt lat="46.957482" lon="10.567785">
        <ele>1344.625189</ele>
        <time>2024-08-23T08:41:31.000Z</time>
      </trkpt>
      <trkpt lat="46.957469" lon="10.567806">
        <ele>1344.808235</ele>
        <time>2024-08-23T08:41:32.000Z</time>
      </trkpt>
      <trkpt lat="46.957461" lon="10.567832">
        <ele>1344.992371</ele>
        <time>2024-08-23T08:41:33.000Z</time>
      </trkpt>
      <trkpt lat="46.957454" lon="10.567860">
        <ele>1345.184897</ele>
        <time>2024-08-23T08:41:34.000Z</time>
      </trkpt>
      <trkpt lat="46.957446" lon="10.567904">
        <ele>1345.478888</ele>
        <time>2024-08-23T08:41:35.000Z</time>
      </trkpt>
      <trkpt lat="46.957431" lon="10.567924">
        <ele>1345.670740</ele>
        <time>2024-08-23T08:41:36.000Z</time>
      </trkpt>
      <trkpt lat="46.957424" lon="10.567953">
        <ele>1345.869341</ele>
        <time>2024-08-23T08:41:37.000Z</time>
      </trkpt>
      <trkpt lat="46.957417" lon="10.567980">
        <ele>1346.055818</ele>
        <time>2024-08-23T08:41:38.000Z</time>
      </trkpt>
      <trkpt lat="46.957412" lon="10.568028">
        <ele>1346.369316</ele>
        <time>2024-08-23T08:41:39.000Z</time>
      </trkpt>
      <trkpt lat="46.957408" lon="10.568061">
        <ele>1346.585713</ele>
        <time>2024-08-23T08:41:40.000Z</time>
      </trkpt>
      <trkpt lat="46.957403" lon="10.568091">
        <ele>1346.785097</ele>
        <time>2024-08-23T08:41:41.000Z</time>
      </trkpt>
      <trkpt lat="46.957396" lon="10.568120">
        <ele>1346.983698</ele>
        <time>2024-08-23T08:41:42.000Z</time>
      </trkpt>
      <trkpt lat="46.957394" lon="10.568151">
        <ele>1347.184741</ele>
        <time>2024-08-23T08:41:43.000Z</time>
      </trkpt>
      <trkpt lat="46.957388" lon="10.568198">
        <ele>1347.493456</ele>
        <time>2024-08-23T08:41:44.000Z</time>
      </trkpt>
      <trkpt lat="46.957387" lon="10.568230">
        <ele>1347.700279</ele>
        <time>2024-08-23T08:41:45.000Z</time>
      </trkpt>
      <trkpt lat="46.957383" lon="10.568260">
        <ele>1347.897634</ele>
        <time>2024-08-23T08:41:46.000Z</time>
      </trkpt>
      <trkpt lat="46.957376" lon="10.568290">
        <ele>1348.102334</ele>
        <time>2024-08-23T08:41:47.000Z</time>
      </trkpt>
      <trkpt lat="46.957372" lon="10.568331">
        <ele>1348.369739</ele>
        <time>2024-08-23T08:41:48.000Z</time>
      </trkpt>
      <trkpt lat="46.957370" lon="10.568362">
        <ele>1348.570782</ele>
        <time>2024-08-23T08:41:49.000Z</time>
      </trkpt>
      <trkpt lat="46.957368" lon="10.568395">
        <ele>1348.784683</ele>
        <time>2024-08-23T08:41:50.000Z</time>
      </trkpt>
      <trkpt lat="46.957365" lon="10.568426">
        <ele>1348.986835</ele>
        <time>2024-08-23T08:41:51.000Z</time>
      </trkpt>
      <trkpt lat="46.957360" lon="10.568457">
        <ele>1349.192498</ele>
        <time>2024-08-23T08:41:52.000Z</time>
      </trkpt>
      <trkpt lat="46.957352" lon="10.568499">
        <ele>1349.474031</ele>
        <time>2024-08-23T08:41:53.000Z</time>
      </trkpt>
      <trkpt lat="46.957345" lon="10.568527">
        <ele>1349.666557</ele>
        <time>2024-08-23T08:41:54.000Z</time>
      </trkpt>
      <trkpt lat="46.957338" lon="10.568553">
        <ele>1349.847013</ele>
        <time>2024-08-23T08:41:55.000Z</time>
      </trkpt>
      <trkpt lat="46.957332" lon="10.568579">
        <ele>1350.024216</ele>
        <time>2024-08-23T08:41:56.000Z</time>
      </trkpt>
      <trkpt lat="46.957321" lon="10.568617">
        <ele>1350.290715</ele>
        <time>2024-08-23T08:41:57.000Z</time>
      </trkpt>
      <trkpt lat="46.957309" lon="10.568643">
        <ele>1350.493360</ele>
        <time>2024-08-23T08:41:58.000Z</time>
      </trkpt>
      <trkpt lat="46.957296" lon="10.568667">
        <ele>1350.691181</ele>
        <time>2024-08-23T08:41:59.000Z</time>
      </trkpt>
      <trkpt lat="46.957285" lon="10.568691">
        <ele>1350.877831</ele>
        <time>2024-08-23T08:42:00.000Z</time>
      </trkpt>
      <trkpt lat="46.957272" lon="10.568714">
        <ele>1351.070637</ele>
        <time>2024-08-23T08:42:01.000Z</time>
      </trkpt>
      <trkpt lat="46.957250" lon="10.568746">
        <ele>1351.363887</ele>
        <time>2024-08-23T08:42:02.000Z</time>
      </trkpt>
      <trkpt lat="46.957234" lon="10.568764">
        <ele>1351.554710</ele>
        <time>2024-08-23T08:42:03.000Z</time>
      </trkpt>
      <trkpt lat="46.957219" lon="10.568784">
        <ele>1351.746563</ele>
        <time>2024-08-23T08:42:04.000Z</time>
      </trkpt>
      <trkpt lat="46.957207" lon="10.568805">
        <ele>1351.923393</ele>
        <time>2024-08-23T08:42:05.000Z</time>
      </trkpt>
      <trkpt lat="46.957187" lon="10.568835">
        <ele>1352.194151</ele>
        <time>2024-08-23T08:42:06.000Z</time>
      </trkpt>
      <trkpt lat="46.957174" lon="10.568856">
        <ele>1352.377197</ele>
        <time>2024-08-23T08:42:07.000Z</time>
      </trkpt>
      <trkpt lat="46.957160" lon="10.568878">
        <ele>1352.571399</ele>
        <time>2024-08-23T08:42:08.000Z</time>
      </trkpt>
      <trkpt lat="46.957149" lon="10.568903">
        <ele>1352.763443</ele>
        <time>2024-08-23T08:42:09.000Z</time>
      </trkpt>
      <trkpt lat="46.957137" lon="10.568925">
        <ele>1352.945271</ele>
        <time>2024-08-23T08:42:10.000Z</time>
      </trkpt>
      <trkpt lat="46.957116" lon="10.568956">
        <ele>1353.227267</ele>
        <time>2024-08-23T08:42:11.000Z</time>
      </trkpt>
      <trkpt lat="46.957100" lon="10.568974">
        <ele>1353.418090</ele>
        <time>2024-08-23T08:42:12.000Z</time>
      </trkpt>
      <trkpt lat="46.957086" lon="10.568993">
        <ele>1353.598608</ele>
        <time>2024-08-23T08:42:13.000Z</time>
      </trkpt>
      <trkpt lat="46.957073" lon="10.569013">
        <ele>1353.776925</ele>
        <time>2024-08-23T08:42:14.000Z</time>
      </trkpt>
      <trkpt lat="46.957053" lon="10.569047">
        <ele>1354.066721</ele>
        <time>2024-08-23T08:42:15.000Z</time>
      </trkpt>
      <trkpt lat="46.957040" lon="10.569073">
        <ele>1354.274813</ele>
        <time>2024-08-23T08:42:16.000Z</time>
      </trkpt>
      <trkpt lat="46.957027" lon="10.569095">
        <ele>1354.462692</ele>
        <time>2024-08-23T08:42:17.000Z</time>
      </trkpt>
      <trkpt lat="46.957016" lon="10.569113">
        <ele>1354.618684</ele>
        <time>2024-08-23T08:42:18.000Z</time>
      </trkpt>
      <trkpt lat="46.957006" lon="10.569134">
        <ele>1354.784007</ele>
        <time>2024-08-23T08:42:19.000Z</time>
      </trkpt>
      <trkpt lat="46.956989" lon="10.569170">
        <ele>1355.066648</ele>
        <time>2024-08-23T08:42:20.000Z</time>
      </trkpt>
      <trkpt lat="46.956976" lon="10.569190">
        <ele>1355.244964</ele>
        <time>2024-08-23T08:42:21.000Z</time>
      </trkpt>
      <trkpt lat="46.956963" lon="10.569211">
        <ele>1355.428011</ele>
        <time>2024-08-23T08:42:22.000Z</time>
      </trkpt>
      <trkpt lat="46.956953" lon="10.569237">
        <ele>1355.620698</ele>
        <time>2024-08-23T08:42:23.000Z</time>
      </trkpt>
      <trkpt lat="46.956934" lon="10.569278">
        <ele>1355.940663</ele>
        <time>2024-08-23T08:42:24.000Z</time>
      </trkpt>
      <trkpt lat="46.956920" lon="10.569301">
        <ele>1356.139636</ele>
        <time>2024-08-23T08:42:25.000Z</time>
      </trkpt>
      <trkpt lat="46.956906" lon="10.569325">
        <ele>1356.343474</ele>
        <time>2024-08-23T08:42:26.000Z</time>
      </trkpt>
      <trkpt lat="46.956895" lon="10.569349">
        <ele>1356.530125</ele>
        <time>2024-08-23T08:42:27.000Z</time>
      </trkpt>
      <trkpt lat="46.956884" lon="10.569373">
        <ele>1356.716776</ele>
        <time>2024-08-23T08:42:28.000Z</time>
      </trkpt>
      <trkpt lat="46.956863" lon="10.569407">
        <ele>1357.012835</ele>
        <time>2024-08-23T08:42:29.000Z</time>
      </trkpt>
      <trkpt lat="46.956845" lon="10.569427">
        <ele>1357.226532</ele>
        <time>2024-08-23T08:42:30.000Z</time>
      </trkpt>
      <trkpt lat="46.956827" lon="10.569447">
        <ele>1357.440229</ele>
        <time>2024-08-23T08:42:31.000Z</time>
      </trkpt>
      <trkpt lat="46.956812" lon="10.569470">
        <ele>1357.645620</ele>
        <time>2024-08-23T08:42:32.000Z</time>
      </trkpt>
      <trkpt lat="46.956798" lon="10.569494">
        <ele>1357.824674</ele>
        <time>2024-08-23T08:42:33.000Z</time>
      </trkpt>
      <trkpt lat="46.956776" lon="10.569525">
        <ele>1358.067145</ele>
        <time>2024-08-23T08:42:34.000Z</time>
      </trkpt>
      <trkpt lat="46.956762" lon="10.569543">
        <ele>1358.215106</ele>
        <time>2024-08-23T08:42:35.000Z</time>
      </trkpt>
      <trkpt lat="46.956745" lon="10.569563">
        <ele>1358.388297</ele>
        <time>2024-08-23T08:42:36.000Z</time>
      </trkpt>
      <trkpt lat="46.956730" lon="10.569584">
        <ele>1358.553106</ele>
        <time>2024-08-23T08:42:37.000Z</time>
      </trkpt>
      <trkpt lat="46.956707" lon="10.569616">
        <ele>1358.805065</ele>
        <time>2024-08-23T08:42:38.000Z</time>
      </trkpt>
      <trkpt lat="46.956691" lon="10.569637">
        <ele>1358.975706</ele>
        <time>2024-08-23T08:42:39.000Z</time>
      </trkpt>
      <trkpt lat="46.956676" lon="10.569659">
        <ele>1359.144306</ele>
        <time>2024-08-23T08:42:40.000Z</time>
      </trkpt>
      <trkpt lat="46.956661" lon="10.569682">
        <ele>1359.316785</ele>
        <time>2024-08-23T08:42:41.000Z</time>
      </trkpt>
      <trkpt lat="46.956638" lon="10.569715">
        <ele>1359.572508</ele>
        <time>2024-08-23T08:42:42.000Z</time>
      </trkpt>
      <trkpt lat="46.956626" lon="10.569740">
        <ele>1359.738219</ele>
        <time>2024-08-23T08:42:43.000Z</time>
      </trkpt>
      <trkpt lat="46.956610" lon="10.569760">
        <ele>1359.905290</ele>
        <time>2024-08-23T08:42:44.000Z</time>
      </trkpt>
      <trkpt lat="46.956594" lon="10.569782">
        <ele>1360.079596</ele>
        <time>2024-08-23T08:42:45.000Z</time>
      </trkpt>
      <trkpt lat="46.956580" lon="10.569806">
        <ele>1360.250770</ele>
        <time>2024-08-23T08:42:46.000Z</time>
      </trkpt>
      <trkpt lat="46.956558" lon="10.569836">
        <ele>1360.489514</ele>
        <time>2024-08-23T08:42:47.000Z</time>
      </trkpt>
      <trkpt lat="46.956544" lon="10.569859">
        <ele>1360.656605</ele>
        <time>2024-08-23T08:42:48.000Z</time>
      </trkpt>
      <trkpt lat="46.956531" lon="10.569881">
        <ele>1360.814378</ele>
        <time>2024-08-23T08:42:49.000Z</time>
      </trkpt>
      <trkpt lat="46.956522" lon="10.569909">
        <ele>1360.982184</ele>
        <time>2024-08-23T08:42:50.000Z</time>
      </trkpt>
      <trkpt lat="46.956500" lon="10.569945">
        <ele>1361.244177</ele>
        <time>2024-08-23T08:42:51.000Z</time>
      </trkpt>
      <trkpt lat="46.956485" lon="10.569971">
        <ele>1361.428759</ele>
        <time>2024-08-23T08:42:52.000Z</time>
      </trkpt>
      <trkpt lat="46.956470" lon="10.569996">
        <ele>1361.609234</ele>
        <time>2024-08-23T08:42:53.000Z</time>
      </trkpt>
      <trkpt lat="46.956455" lon="10.570022">
        <ele>1361.793817</ele>
        <time>2024-08-23T08:42:54.000Z</time>
      </trkpt>
      <trkpt lat="46.956441" lon="10.570047">
        <ele>1361.969149</ele>
        <time>2024-08-23T08:42:55.000Z</time>
      </trkpt>
      <trkpt lat="46.956422" lon="10.570085">
        <ele>1362.224550</ele>
        <time>2024-08-23T08:42:56.000Z</time>
      </trkpt>
      <trkpt lat="46.956408" lon="10.570109">
        <ele>1362.395725</ele>
        <time>2024-08-23T08:42:57.000Z</time>
      </trkpt>
      <trkpt lat="46.956396" lon="10.570137">
        <ele>1362.574986</ele>
        <time>2024-08-23T08:42:58.000Z</time>
      </trkpt>
      <trkpt lat="46.956382" lon="10.570161">
        <ele>1362.746161</ele>
        <time>2024-08-23T08:42:59.000Z</time>
      </trkpt>
      <trkpt lat="46.956362" lon="10.570201">
        <ele>1363.015004</ele>
        <time>2024-08-23T08:43:00.000Z</time>
      </trkpt>
      <trkpt lat="46.956349" lon="10.570225">
        <ele>1363.181128</ele>
        <time>2024-08-23T08:43:01.000Z</time>
      </trkpt>
      <trkpt lat="46.956336" lon="10.570251">
        <ele>1363.355877</ele>
        <time>2024-08-23T08:43:02.000Z</time>
      </trkpt>
      <trkpt lat="46.956326" lon="10.570279">
        <ele>1363.527218</ele>
        <time>2024-08-23T08:43:03.000Z</time>
      </trkpt>
      <trkpt lat="46.956315" lon="10.570306">
        <ele>1363.697706</ele>
        <time>2024-08-23T08:43:04.000Z</time>
      </trkpt>
      <trkpt lat="46.956298" lon="10.570349">
        <ele>1363.967137</ele>
        <time>2024-08-23T08:43:05.000Z</time>
      </trkpt>
      <trkpt lat="46.956286" lon="10.570375">
        <ele>1364.137312</ele>
        <time>2024-08-23T08:43:06.000Z</time>
      </trkpt>
      <trkpt lat="46.956271" lon="10.570399">
        <ele>1364.313751</ele>
        <time>2024-08-23T08:43:07.000Z</time>
      </trkpt>
      <trkpt lat="46.956260" lon="10.570426">
        <ele>1364.484240</ele>
        <time>2024-08-23T08:43:08.000Z</time>
      </trkpt>
      <trkpt lat="46.956246" lon="10.570465">
        <ele>1364.723158</ele>
        <time>2024-08-23T08:43:09.000Z</time>
      </trkpt>
      <trkpt lat="46.956237" lon="10.570494">
        <ele>1364.895886</ele>
        <time>2024-08-23T08:43:10.000Z</time>
      </trkpt>
      <trkpt lat="46.956224" lon="10.570522">
        <ele>1365.079494</ele>
        <time>2024-08-23T08:43:11.000Z</time>
      </trkpt>
      <trkpt lat="46.956213" lon="10.570549">
        <ele>1365.249982</ele>
        <time>2024-08-23T08:43:12.000Z</time>
      </trkpt>
      <trkpt lat="46.956200" lon="10.570571">
        <ele>1365.407757</ele>
        <time>2024-08-23T08:43:13.000Z</time>
      </trkpt>
      <trkpt lat="46.956185" lon="10.570611">
        <ele>1365.655212</ele>
        <time>2024-08-23T08:43:14.000Z</time>
      </trkpt>
      <trkpt lat="46.956181" lon="10.570638">
        <ele>1365.805015</ele>
        <time>2024-08-23T08:43:15.000Z</time>
      </trkpt>
      <trkpt lat="46.956173" lon="10.570666">
        <ele>1365.969594</ele>
        <time>2024-08-23T08:43:16.000Z</time>
      </trkpt>
      <trkpt lat="46.956163" lon="10.570698">
        <ele>1366.160418</ele>
        <time>2024-08-23T08:43:17.000Z</time>
      </trkpt>
      <trkpt lat="46.956148" lon="10.570748">
        <ele>1366.456547</ele>
        <time>2024-08-23T08:43:18.000Z</time>
      </trkpt>
      <trkpt lat="46.956139" lon="10.570778">
        <ele>1366.634225</ele>
        <time>2024-08-23T08:43:19.000Z</time>
      </trkpt>
      <trkpt lat="46.956131" lon="10.570812">
        <ele>1366.829219</ele>
        <time>2024-08-23T08:43:20.000Z</time>
      </trkpt>
      <trkpt lat="46.956124" lon="10.570844">
        <ele>1367.011415</ele>
        <time>2024-08-23T08:43:21.000Z</time>
      </trkpt>
      <trkpt lat="46.956118" lon="10.570875">
        <ele>1367.186124</ele>
        <time>2024-08-23T08:43:22.000Z</time>
      </trkpt>
      <trkpt lat="46.956107" lon="10.570918">
        <ele>1367.435106</ele>
        <time>2024-08-23T08:43:23.000Z</time>
      </trkpt>
      <trkpt lat="46.956100" lon="10.570945">
        <ele>1367.591704</ele>
        <time>2024-08-23T08:43:24.000Z</time>
      </trkpt>
      <trkpt lat="46.956093" lon="10.570975">
        <ele>1367.763606</ele>
        <time>2024-08-23T08:43:25.000Z</time>
      </trkpt>
      <trkpt lat="46.956087" lon="10.571007">
        <ele>1367.943537</ele>
        <time>2024-08-23T08:43:26.000Z</time>
      </trkpt>
      <trkpt lat="46.956078" lon="10.571054">
        <ele>1368.208209</ele>
        <time>2024-08-23T08:43:27.000Z</time>
      </trkpt>
      <trkpt lat="46.956070" lon="10.571084">
        <ele>1368.382843</ele>
        <time>2024-08-23T08:43:28.000Z</time>
      </trkpt>
      <trkpt lat="46.956065" lon="10.571116">
        <ele>1368.560834</ele>
        <time>2024-08-23T08:43:29.000Z</time>
      </trkpt>
      <trkpt lat="46.956061" lon="10.571149">
        <ele>1368.742560</ele>
        <time>2024-08-23T08:43:30.000Z</time>
      </trkpt>
      <trkpt lat="46.956055" lon="10.571184">
        <ele>1368.938223</ele>
        <time>2024-08-23T08:43:31.000Z</time>
      </trkpt>
      <trkpt lat="46.956045" lon="10.571233">
        <ele>1369.215523</ele>
        <time>2024-08-23T08:43:32.000Z</time>
      </trkpt>
      <trkpt lat="46.956038" lon="10.571266">
        <ele>1369.402890</ele>
        <time>2024-08-23T08:43:33.000Z</time>
      </trkpt>
      <trkpt lat="46.956030" lon="10.571298">
        <ele>1369.587666</ele>
        <time>2024-08-23T08:43:34.000Z</time>
      </trkpt>
      <trkpt lat="46.956023" lon="10.571328">
        <ele>1369.759568</ele>
        <time>2024-08-23T08:43:35.000Z</time>
      </trkpt>
      <trkpt lat="46.956016" lon="10.571357">
        <ele>1369.926348</ele>
        <time>2024-08-23T08:43:36.000Z</time>
      </trkpt>
      <trkpt lat="46.956007" lon="10.571403">
        <ele>1370.185804</ele>
        <time>2024-08-23T08:43:37.000Z</time>
      </trkpt>
      <trkpt lat="46.955999" lon="10.571433">
        <ele>1370.360438</ele>
        <time>2024-08-23T08:43:38.000Z</time>
      </trkpt>
      <trkpt lat="46.955992" lon="10.571461">
        <ele>1370.522117</ele>
        <time>2024-08-23T08:43:39.000Z</time>
      </trkpt>
      <trkpt lat="46.955981" lon="10.571505">
        <ele>1370.776184</ele>
        <time>2024-08-23T08:43:40.000Z</time>
      </trkpt>
      <trkpt lat="46.955977" lon="10.571538">
        <ele>1370.957909</ele>
        <time>2024-08-23T08:43:41.000Z</time>
      </trkpt>
      <trkpt lat="46.955972" lon="10.571570">
        <ele>1371.135902</ele>
        <time>2024-08-23T08:43:42.000Z</time>
      </trkpt>
      <trkpt lat="46.955968" lon="10.571600">
        <ele>1371.301636</ele>
        <time>2024-08-23T08:43:43.000Z</time>
      </trkpt>
      <trkpt lat="46.955963" lon="10.571632">
        <ele>1371.479628</ele>
        <time>2024-08-23T08:43:44.000Z</time>
      </trkpt>
      <trkpt lat="46.955957" lon="10.571676">
        <ele>1371.722911</ele>
        <time>2024-08-23T08:43:45.000Z</time>
      </trkpt>
      <trkpt lat="46.955942" lon="10.571702">
        <ele>1371.907494</ele>
        <time>2024-08-23T08:43:46.000Z</time>
      </trkpt>
      <trkpt lat="46.955932" lon="10.571729">
        <ele>1372.081811</ele>
        <time>2024-08-23T08:43:47.000Z</time>
      </trkpt>
      <trkpt lat="46.955926" lon="10.571757">
        <ele>1372.254426</ele>
        <time>2024-08-23T08:43:48.000Z</time>
      </trkpt>
      <trkpt lat="46.955921" lon="10.571789">
        <ele>1372.447512</ele>
        <time>2024-08-23T08:43:49.000Z</time>
      </trkpt>
      <trkpt lat="46.955908" lon="10.571831">
        <ele>1372.718760</ele>
        <time>2024-08-23T08:43:50.000Z</time>
      </trkpt>
      <trkpt lat="46.955903" lon="10.571863">
        <ele>1372.911846</ele>
        <time>2024-08-23T08:43:51.000Z</time>
      </trkpt>
      <trkpt lat="46.955895" lon="10.571890">
        <ele>1373.084972</ele>
        <time>2024-08-23T08:43:52.000Z</time>
      </trkpt>
      <trkpt lat="46.955886" lon="10.571917">
        <ele>1373.261706</ele>
        <time>2024-08-23T08:43:53.000Z</time>
      </trkpt>
      <trkpt lat="46.955871" lon="10.571956">
        <ele>1373.525007</ele>
        <time>2024-08-23T08:43:54.000Z</time>
      </trkpt>
      <trkpt lat="46.955858" lon="10.571979">
        <ele>1373.700650</ele>
        <time>2024-08-23T08:43:55.000Z</time>
      </trkpt>
      <trkpt lat="46.955849" lon="10.572009">
        <ele>1373.893395</ele>
        <time>2024-08-23T08:43:56.000Z</time>
      </trkpt>
      <trkpt lat="46.955837" lon="10.572036">
        <ele>1374.082902</ele>
        <time>2024-08-23T08:43:57.000Z</time>
      </trkpt>
      <trkpt lat="46.955824" lon="10.572064">
        <ele>1374.282081</ele>
        <time>2024-08-23T08:43:58.000Z</time>
      </trkpt>
      <trkpt lat="46.955808" lon="10.572108">
        <ele>1374.575316</ele>
        <time>2024-08-23T08:43:59.000Z</time>
      </trkpt>
      <trkpt lat="46.955800" lon="10.572137">
        <ele>1374.759293</ele>
        <time>2024-08-23T08:44:00.000Z</time>
      </trkpt>
      <trkpt lat="46.955793" lon="10.572167">
        <ele>1374.945772</ele>
        <time>2024-08-23T08:44:01.000Z</time>
      </trkpt>
      <trkpt lat="46.955787" lon="10.572197">
        <ele>1375.129645</ele>
        <time>2024-08-23T08:44:02.000Z</time>
      </trkpt>
      <trkpt lat="46.955779" lon="10.572239">
        <ele>1375.386119</ele>
        <time>2024-08-23T08:44:03.000Z</time>
      </trkpt>
      <trkpt lat="46.955774" lon="10.572271">
        <ele>1375.579206</ele>
        <time>2024-08-23T08:44:04.000Z</time>
      </trkpt>
      <trkpt lat="46.955766" lon="10.572302">
        <ele>1375.774138</ele>
        <time>2024-08-23T08:44:05.000Z</time>
      </trkpt>
      <trkpt lat="46.955751" lon="10.572326">
        <ele>1375.965541</ele>
        <time>2024-08-23T08:44:06.000Z</time>
      </trkpt>
      <trkpt lat="46.955740" lon="10.572351">
        <ele>1376.140490</ele>
        <time>2024-08-23T08:44:07.000Z</time>
      </trkpt>
      <trkpt lat="46.955727" lon="10.572399">
        <ele>1376.444230</ele>
        <time>2024-08-23T08:44:08.000Z</time>
      </trkpt>
      <trkpt lat="46.955717" lon="10.572428">
        <ele>1376.635334</ele>
        <time>2024-08-23T08:44:09.000Z</time>
      </trkpt>
      <trkpt lat="46.955706" lon="10.572459">
        <ele>1376.840837</ele>
        <time>2024-08-23T08:44:10.000Z</time>
      </trkpt>
      <trkpt lat="46.955694" lon="10.572486">
        <ele>1377.030345</ele>
        <time>2024-08-23T08:44:11.000Z</time>
      </trkpt>
      <trkpt lat="46.955672" lon="10.572525">
        <ele>1377.327935</ele>
        <time>2024-08-23T08:44:12.000Z</time>
      </trkpt>
      <trkpt lat="46.955659" lon="10.572552">
        <ele>1377.522280</ele>
        <time>2024-08-23T08:44:13.000Z</time>
      </trkpt>
      <trkpt lat="46.955644" lon="10.572581">
        <ele>1377.736296</ele>
        <time>2024-08-23T08:44:14.000Z</time>
      </trkpt>
      <trkpt lat="46.955629" lon="10.572608">
        <ele>1377.941059</ele>
        <time>2024-08-23T08:44:15.000Z</time>
      </trkpt>
      <trkpt lat="46.955616" lon="10.572636">
        <ele>1378.140239</ele>
        <time>2024-08-23T08:44:16.000Z</time>
      </trkpt>
      <trkpt lat="46.955597" lon="10.572681">
        <ele>1378.451467</ele>
        <time>2024-08-23T08:44:17.000Z</time>
      </trkpt>
      <trkpt lat="46.955584" lon="10.572715">
        <ele>1378.680688</ele>
        <time>2024-08-23T08:44:18.000Z</time>
      </trkpt>
      <trkpt lat="46.955574" lon="10.572748">
        <ele>1378.893057</ele>
        <time>2024-08-23T08:44:19.000Z</time>
      </trkpt>
      <trkpt lat="46.955562" lon="10.572780">
        <ele>1379.107811</ele>
        <time>2024-08-23T08:44:20.000Z</time>
      </trkpt>
      <trkpt lat="46.955550" lon="10.572834">
        <ele>1379.441838</ele>
        <time>2024-08-23T08:44:21.000Z</time>
      </trkpt>
      <trkpt lat="46.955540" lon="10.572868">
        <ele>1379.659596</ele>
        <time>2024-08-23T08:44:22.000Z</time>
      </trkpt>
      <trkpt lat="46.955530" lon="10.572902">
        <ele>1379.877354</ele>
        <time>2024-08-23T08:44:23.000Z</time>
      </trkpt>
      <trkpt lat="46.955520" lon="10.572936">
        <ele>1380.095112</ele>
        <time>2024-08-23T08:44:24.000Z</time>
      </trkpt>
      <trkpt lat="46.955512" lon="10.572972">
        <ele>1380.317798</ele>
        <time>2024-08-23T08:44:25.000Z</time>
      </trkpt>
      <trkpt lat="46.955502" lon="10.573028">
        <ele>1380.658266</ele>
        <time>2024-08-23T08:44:26.000Z</time>
      </trkpt>
      <trkpt lat="46.955496" lon="10.573064">
        <ele>1380.876233</ele>
        <time>2024-08-23T08:44:27.000Z</time>
      </trkpt>
      <trkpt lat="46.955491" lon="10.573100">
        <ele>1381.092318</ele>
        <time>2024-08-23T08:44:28.000Z</time>
      </trkpt>
      <trkpt lat="46.955484" lon="10.573135">
        <ele>1381.306837</ele>
        <time>2024-08-23T08:44:29.000Z</time>
      </trkpt>
      <trkpt lat="46.955476" lon="10.573190">
        <ele>1381.637602</ele>
        <time>2024-08-23T08:44:30.000Z</time>
      </trkpt>
      <trkpt lat="46.955471" lon="10.573229">
        <ele>1381.871005</ele>
        <time>2024-08-23T08:44:31.000Z</time>
      </trkpt>
      <trkpt lat="46.955468" lon="10.573261">
        <ele>1382.060991</ele>
        <time>2024-08-23T08:44:32.000Z</time>
      </trkpt>
      <trkpt lat="46.955466" lon="10.573294">
        <ele>1382.255855</ele>
        <time>2024-08-23T08:44:33.000Z</time>
      </trkpt>
      <trkpt lat="46.955462" lon="10.573330">
        <ele>1382.470388</ele>
        <time>2024-08-23T08:44:34.000Z</time>
      </trkpt>
      <trkpt lat="46.955458" lon="10.573386">
        <ele>1382.801570</ele>
        <time>2024-08-23T08:44:35.000Z</time>
      </trkpt>
      <trkpt lat="46.955455" lon="10.573424">
        <ele>1383.026570</ele>
        <time>2024-08-23T08:44:36.000Z</time>
      </trkpt>
      <trkpt lat="46.955452" lon="10.573460">
        <ele>1383.239888</ele>
        <time>2024-08-23T08:44:37.000Z</time>
      </trkpt>
      <trkpt lat="46.955447" lon="10.573495">
        <ele>1383.450213</ele>
        <time>2024-08-23T08:44:38.000Z</time>
      </trkpt>
      <trkpt lat="46.955444" lon="10.573545">
        <ele>1383.745439</ele>
        <time>2024-08-23T08:44:39.000Z</time>
      </trkpt>
      <trkpt lat="46.955443" lon="10.573580">
        <ele>1383.951484</ele>
        <time>2024-08-23T08:44:40.000Z</time>
      </trkpt>
      <trkpt lat="46.955440" lon="10.573614">
        <ele>1384.153130</ele>
        <time>2024-08-23T08:44:41.000Z</time>
      </trkpt>
      <trkpt lat="46.955435" lon="10.573647">
        <ele>1384.351955</ele>
        <time>2024-08-23T08:44:42.000Z</time>
      </trkpt>
      <trkpt lat="46.955429" lon="10.573695">
        <ele>1384.638979</ele>
        <time>2024-08-23T08:44:43.000Z</time>
      </trkpt>
      <trkpt lat="46.955426" lon="10.573727">
        <ele>1384.828965</ele>
        <time>2024-08-23T08:44:44.000Z</time>
      </trkpt>
      <trkpt lat="46.955422" lon="10.573753">
        <ele>1384.985729</ele>
        <time>2024-08-23T08:44:45.000Z</time>
      </trkpt>
      <trkpt lat="46.955421" lon="10.573783">
        <ele>1385.162395</ele>
        <time>2024-08-23T08:44:46.000Z</time>
      </trkpt>
      <trkpt lat="46.955420" lon="10.573814">
        <ele>1385.344935</ele>
        <time>2024-08-23T08:44:47.000Z</time>
      </trkpt>
      <trkpt lat="46.955417" lon="10.573844">
        <ele>1385.523274</ele>
        <time>2024-08-23T08:44:48.000Z</time>
      </trkpt>
      <trkpt lat="46.955415" lon="10.573887">
        <ele>1385.776780</ele>
        <time>2024-08-23T08:44:49.000Z</time>
      </trkpt>
      <trkpt lat="46.955413" lon="10.573915">
        <ele>1385.942371</ele>
        <time>2024-08-23T08:44:50.000Z</time>
      </trkpt>
      <trkpt lat="46.955412" lon="10.573944">
        <ele>1386.113162</ele>
        <time>2024-08-23T08:44:51.000Z</time>
      </trkpt>
      <trkpt lat="46.955411" lon="10.573974">
        <ele>1386.289827</ele>
        <time>2024-08-23T08:44:52.000Z</time>
      </trkpt>
      <trkpt lat="46.955405" lon="10.574021">
        <ele>1386.571068</ele>
        <time>2024-08-23T08:44:53.000Z</time>
      </trkpt>
      <trkpt lat="46.955400" lon="10.574050">
        <ele>1386.746999</ele>
        <time>2024-08-23T08:44:54.000Z</time>
      </trkpt>
      <trkpt lat="46.955396" lon="10.574079">
        <ele>1386.921020</ele>
        <time>2024-08-23T08:44:55.000Z</time>
      </trkpt>
      <trkpt lat="46.955390" lon="10.574105">
        <ele>1387.082452</ele>
        <time>2024-08-23T08:44:56.000Z</time>
      </trkpt>
      <trkpt lat="46.955384" lon="10.574146">
        <ele>1387.329088</ele>
        <time>2024-08-23T08:44:57.000Z</time>
      </trkpt>
      <trkpt lat="46.955382" lon="10.574176">
        <ele>1387.522453</ele>
        <time>2024-08-23T08:44:58.000Z</time>
      </trkpt>
      <trkpt lat="46.955380" lon="10.574203">
        <ele>1387.786980</ele>
        <time>2024-08-23T08:44:59.000Z</time>
      </trkpt>
      <trkpt lat="46.955378" lon="10.574229">
        <ele>1388.041827</ele>
        <time>2024-08-23T08:45:00.000Z</time>
      </trkpt>
      <trkpt lat="46.955377" lon="10.574257">
        <ele>1388.314924</ele>
        <time>2024-08-23T08:45:01.000Z</time>
      </trkpt>
      <trkpt lat="46.955377" lon="10.574306">
        <ele>1388.792190</ele>
        <time>2024-08-23T08:45:02.000Z</time>
      </trkpt>
      <trkpt lat="46.955376" lon="10.574339">
        <ele>1389.113931</ele>
        <time>2024-08-23T08:45:03.000Z</time>
      </trkpt>
      <trkpt lat="46.955374" lon="10.574371">
        <ele>1389.426920</ele>
        <time>2024-08-23T08:45:04.000Z</time>
      </trkpt>
      <trkpt lat="46.955374" lon="10.574401">
        <ele>1389.719124</ele>
        <time>2024-08-23T08:45:05.000Z</time>
      </trkpt>
      <trkpt lat="46.955373" lon="10.574443">
        <ele>1390.128458</ele>
        <time>2024-08-23T08:45:06.000Z</time>
      </trkpt>
      <trkpt lat="46.955375" lon="10.574472">
        <ele>1390.412360</ele>
        <time>2024-08-23T08:45:07.000Z</time>
      </trkpt>
      <trkpt lat="46.955374" lon="10.574499">
        <ele>1390.675730</ele>
        <time>2024-08-23T08:45:08.000Z</time>
      </trkpt>
      <trkpt lat="46.955372" lon="10.574527">
        <ele>1390.949943</ele>
        <time>2024-08-23T08:45:09.000Z</time>
      </trkpt>
      <trkpt lat="46.955372" lon="10.574555">
        <ele>1391.222667</ele>
        <time>2024-08-23T08:45:10.000Z</time>
      </trkpt>
      <trkpt lat="46.955372" lon="10.574595">
        <ele>1391.612273</ele>
        <time>2024-08-23T08:45:11.000Z</time>
      </trkpt>
      <trkpt lat="46.955374" lon="10.574621">
        <ele>1391.867119</ele>
        <time>2024-08-23T08:45:12.000Z</time>
      </trkpt>
      <trkpt lat="46.955374" lon="10.574649">
        <ele>1392.139843</ele>
        <time>2024-08-23T08:45:13.000Z</time>
      </trkpt>
      <trkpt lat="46.955374" lon="10.574676">
        <ele>1392.402826</ele>
        <time>2024-08-23T08:45:14.000Z</time>
      </trkpt>
      <trkpt lat="46.955373" lon="10.574716">
        <ele>1392.792693</ele>
        <time>2024-08-23T08:45:15.000Z</time>
      </trkpt>
      <trkpt lat="46.955372" lon="10.574742">
        <ele>1393.046338</ele>
        <time>2024-08-23T08:45:16.000Z</time>
      </trkpt>
      <trkpt lat="46.955373" lon="10.574768">
        <ele>1393.299983</ele>
        <time>2024-08-23T08:45:17.000Z</time>
      </trkpt>
      <trkpt lat="46.955373" lon="10.574795">
        <ele>1393.562967</ele>
        <time>2024-08-23T08:45:18.000Z</time>
      </trkpt>
      <trkpt lat="46.955371" lon="10.574822">
        <ele>1393.827495</ele>
        <time>2024-08-23T08:45:19.000Z</time>
      </trkpt>
      <trkpt lat="46.955371" lon="10.574863">
        <ele>1394.226840</ele>
        <time>2024-08-23T08:45:20.000Z</time>
      </trkpt>
      <trkpt lat="46.955370" lon="10.574889">
        <ele>1394.480486</ele>
        <time>2024-08-23T08:45:21.000Z</time>
      </trkpt>
      <trkpt lat="46.955368" lon="10.574914">
        <ele>1394.725656</ele>
        <time>2024-08-23T08:45:22.000Z</time>
      </trkpt>
      <trkpt lat="46.955367" lon="10.574940">
        <ele>1394.979301</ele>
        <time>2024-08-23T08:45:23.000Z</time>
      </trkpt>
      <trkpt lat="46.955365" lon="10.574981">
        <ele>1395.379665</ele>
        <time>2024-08-23T08:45:24.000Z</time>
      </trkpt>
      <trkpt lat="46.955363" lon="10.575007">
        <ele>1395.634512</ele>
        <time>2024-08-23T08:45:25.000Z</time>
      </trkpt>
      <trkpt lat="46.955348" lon="10.575025">
        <ele>1395.911196</ele>
        <time>2024-08-23T08:45:25.000Z</time>
      </trkpt>
      <trkpt lat="46.955348" lon="10.575037">
        <ele>1396.028078</ele>
        <time>2024-08-23T08:45:26.000Z</time>
      </trkpt>
      <trkpt lat="46.955346" lon="10.575145">
        <ele>1397.080400</ele>
        <time>2024-08-23T08:45:29.000Z</time>
      </trkpt>
      <trkpt lat="46.955343" lon="10.575186">
        <ele>1397.482034</ele>
        <time>2024-08-23T08:45:30.000Z</time>
      </trkpt>
      <trkpt lat="46.955343" lon="10.575200">
        <ele>1397.618396</ele>
        <time>2024-08-23T08:45:31.000Z</time>
      </trkpt>
      <trkpt lat="46.955344" lon="10.575241">
        <ele>1398.017996</ele>
        <time>2024-08-23T08:45:32.000Z</time>
      </trkpt>
      <trkpt lat="46.955345" lon="10.575282">
        <ele>1398.417597</ele>
        <time>2024-08-23T08:45:33.000Z</time>
      </trkpt>
      <trkpt lat="46.955343" lon="10.575322">
        <ele>1398.808246</ele>
        <time>2024-08-23T08:45:35.000Z</time>
      </trkpt>
      <trkpt lat="46.955341" lon="10.575345">
        <ele>1399.034080</ele>
        <time>2024-08-23T08:45:36.000Z</time>
      </trkpt>
      <trkpt lat="46.955341" lon="10.575368">
        <ele>1399.258103</ele>
        <time>2024-08-23T08:45:37.000Z</time>
      </trkpt>
      <trkpt lat="46.955343" lon="10.575410">
        <ele>1399.668183</ele>
        <time>2024-08-23T08:45:38.000Z</time>
      </trkpt>
      <trkpt lat="46.955343" lon="10.575439">
        <ele>1399.950647</ele>
        <time>2024-08-23T08:45:39.000Z</time>
      </trkpt>
      <trkpt lat="46.955342" lon="10.575469">
        <ele>1400.243200</ele>
        <time>2024-08-23T08:45:40.000Z</time>
      </trkpt>
      <trkpt lat="46.955343" lon="10.575501">
        <ele>1400.555211</ele>
        <time>2024-08-23T08:45:41.000Z</time>
      </trkpt>
      <trkpt lat="46.955339" lon="10.575546">
        <ele>1400.997218</ele>
        <time>2024-08-23T08:45:42.000Z</time>
      </trkpt>
      <trkpt lat="46.955338" lon="10.575577">
        <ele>1401.299499</ele>
        <time>2024-08-23T08:45:43.000Z</time>
      </trkpt>
      <trkpt lat="46.955337" lon="10.575606">
        <ele>1401.582324</ele>
        <time>2024-08-23T08:45:44.000Z</time>
      </trkpt>
      <trkpt lat="46.955338" lon="10.575636">
        <ele>1401.874876</ele>
        <time>2024-08-23T08:45:45.000Z</time>
      </trkpt>
      <trkpt lat="46.955340" lon="10.575669">
        <ele>1402.197565</ele>
        <time>2024-08-23T08:45:46.000Z</time>
      </trkpt>
      <trkpt lat="46.955336" lon="10.575714">
        <ele>1402.639573</ele>
        <time>2024-08-23T08:45:47.000Z</time>
      </trkpt>
      <trkpt lat="46.955335" lon="10.575747">
        <ele>1402.961314</ele>
        <time>2024-08-23T08:45:48.000Z</time>
      </trkpt>
      <trkpt lat="46.955334" lon="10.575778">
        <ele>1403.263595</ele>
        <time>2024-08-23T08:45:49.000Z</time>
      </trkpt>
      <trkpt lat="46.955333" lon="10.575808">
        <ele>1403.556148</ele>
        <time>2024-08-23T08:45:50.000Z</time>
      </trkpt>
      <trkpt lat="46.955333" lon="10.575836">
        <ele>1403.828872</ele>
        <time>2024-08-23T08:45:51.000Z</time>
      </trkpt>
      <trkpt lat="46.955333" lon="10.575877">
        <ele>1404.228217</ele>
        <time>2024-08-23T08:45:52.000Z</time>
      </trkpt>
      <trkpt lat="46.955334" lon="10.575903">
        <ele>1404.481863</ele>
        <time>2024-08-23T08:45:53.000Z</time>
      </trkpt>
      <trkpt lat="46.955331" lon="10.575933">
        <ele>1404.777186</ele>
        <time>2024-08-23T08:45:54.000Z</time>
      </trkpt>
      <trkpt lat="46.955329" lon="10.575977">
        <ele>1405.206702</ele>
        <time>2024-08-23T08:45:55.000Z</time>
      </trkpt>
      <trkpt lat="46.955332" lon="10.576004">
        <ele>1405.473147</ele>
        <time>2024-08-23T08:45:56.000Z</time>
      </trkpt>
      <trkpt lat="46.955333" lon="10.576030">
        <ele>1405.726793</ele>
        <time>2024-08-23T08:45:57.000Z</time>
      </trkpt>
      <trkpt lat="46.955335" lon="10.576059">
        <ele>1406.010695</ele>
        <time>2024-08-23T08:45:58.000Z</time>
      </trkpt>
      <trkpt lat="46.955336" lon="10.576090">
        <ele>1406.312976</ele>
        <time>2024-08-23T08:45:59.000Z</time>
      </trkpt>
      <trkpt lat="46.955337" lon="10.576121">
        <ele>1406.615258</ele>
        <time>2024-08-23T08:46:00.000Z</time>
      </trkpt>
      <trkpt lat="46.955337" lon="10.576162">
        <ele>1407.014603</ele>
        <time>2024-08-23T08:46:01.000Z</time>
      </trkpt>
      <trkpt lat="46.955335" lon="10.576189">
        <ele>1407.279131</ele>
        <time>2024-08-23T08:46:02.000Z</time>
      </trkpt>
      <trkpt lat="46.955334" lon="10.576218">
        <ele>1407.561956</ele>
        <time>2024-08-23T08:46:03.000Z</time>
      </trkpt>
      <trkpt lat="46.955331" lon="10.576247">
        <ele>1407.847645</ele>
        <time>2024-08-23T08:46:04.000Z</time>
      </trkpt>
      <trkpt lat="46.955332" lon="10.576289">
        <ele>1408.256980</ele>
        <time>2024-08-23T08:46:05.000Z</time>
      </trkpt>
      <trkpt lat="46.955332" lon="10.576319">
        <ele>1408.549184</ele>
        <time>2024-08-23T08:46:06.000Z</time>
      </trkpt>
      <trkpt lat="46.955333" lon="10.576350">
        <ele>1408.851466</ele>
        <time>2024-08-23T08:46:07.000Z</time>
      </trkpt>
      <trkpt lat="46.955331" lon="10.576379">
        <ele>1409.135368</ele>
        <time>2024-08-23T08:46:08.000Z</time>
      </trkpt>
      <trkpt lat="46.955330" lon="10.576423">
        <ele>1409.564172</ele>
        <time>2024-08-23T08:46:09.000Z</time>
      </trkpt>
      <trkpt lat="46.955330" lon="10.576451">
        <ele>1409.836896</ele>
        <time>2024-08-23T08:46:10.000Z</time>
      </trkpt>
      <trkpt lat="46.955330" lon="10.576478">
        <ele>1410.099879</ele>
        <time>2024-08-23T08:46:11.000Z</time>
      </trkpt>
      <trkpt lat="46.955329" lon="10.576506">
        <ele>1410.372976</ele>
        <time>2024-08-23T08:46:12.000Z</time>
      </trkpt>
      <trkpt lat="46.955331" lon="10.576532">
        <ele>1410.627823</ele>
        <time>2024-08-23T08:46:13.000Z</time>
      </trkpt>
      <trkpt lat="46.955334" lon="10.576572">
        <ele>1411.019774</ele>
        <time>2024-08-23T08:46:14.000Z</time>
      </trkpt>
      <trkpt lat="46.955335" lon="10.576602">
        <ele>1411.312326</ele>
        <time>2024-08-23T08:46:15.000Z</time>
      </trkpt>
      <trkpt lat="46.955339" lon="10.576630">
        <ele>1411.590959</ele>
        <time>2024-08-23T08:46:16.000Z</time>
      </trkpt>
      <trkpt lat="46.955338" lon="10.576657">
        <ele>1411.854330</ele>
        <time>2024-08-23T08:46:17.000Z</time>
      </trkpt>
      <trkpt lat="46.955343" lon="10.576705">
        <ele>1412.327270</ele>
        <time>2024-08-23T08:46:18.000Z</time>
      </trkpt>
      <trkpt lat="46.955346" lon="10.576737">
        <ele>1412.641880</ele>
        <time>2024-08-23T08:46:19.000Z</time>
      </trkpt>
      <trkpt lat="46.955349" lon="10.576765">
        <ele>1412.917944</ele>
        <time>2024-08-23T08:46:20.000Z</time>
      </trkpt>
      <trkpt lat="46.955353" lon="10.576794">
        <ele>1413.211902</ele>
        <time>2024-08-23T08:46:21.000Z</time>
      </trkpt>
      <trkpt lat="46.955351" lon="10.576818">
        <ele>1413.470938</ele>
        <time>2024-08-23T08:46:22.000Z</time>
      </trkpt>
      <trkpt lat="46.955350" lon="10.576860">
        <ele>1413.921184</ele>
        <time>2024-08-23T08:46:23.000Z</time>
      </trkpt>
      <trkpt lat="46.955355" lon="10.576888">
        <ele>1414.231262</ele>
        <time>2024-08-23T08:46:24.000Z</time>
      </trkpt>
      <trkpt lat="46.955358" lon="10.576915">
        <ele>1414.524337</ele>
        <time>2024-08-23T08:46:25.000Z</time>
      </trkpt>
      <trkpt lat="46.955360" lon="10.576944">
        <ele>1414.836614</ele>
        <time>2024-08-23T08:46:26.000Z</time>
      </trkpt>
      <trkpt lat="46.955361" lon="10.576971">
        <ele>1415.126308</ele>
        <time>2024-08-23T08:46:27.000Z</time>
      </trkpt>
      <trkpt lat="46.955363" lon="10.577014">
        <ele>1415.588062</ele>
        <time>2024-08-23T08:46:28.000Z</time>
      </trkpt>
      <trkpt lat="46.955364" lon="10.577043">
        <ele>1415.899153</ele>
        <time>2024-08-23T08:46:29.000Z</time>
      </trkpt>
      <trkpt lat="46.955362" lon="10.577069">
        <ele>1416.179471</ele>
        <time>2024-08-23T08:46:30.000Z</time>
      </trkpt>
      <trkpt lat="46.955364" lon="10.577094">
        <ele>1416.449145</ele>
        <time>2024-08-23T08:46:31.000Z</time>
      </trkpt>
      <trkpt lat="46.955363" lon="10.577133">
        <ele>1416.867271</ele>
        <time>2024-08-23T08:46:32.000Z</time>
      </trkpt>
      <trkpt lat="46.955365" lon="10.577157">
        <ele>1417.126307</ele>
        <time>2024-08-23T08:46:33.000Z</time>
      </trkpt>
      <trkpt lat="46.955366" lon="10.577181">
        <ele>1417.383912</ele>
        <time>2024-08-23T08:46:34.000Z</time>
      </trkpt>
      <trkpt lat="46.955366" lon="10.577208">
        <ele>1417.673180</ele>
        <time>2024-08-23T08:46:35.000Z</time>
      </trkpt>
      <trkpt lat="46.955365" lon="10.577234">
        <ele>1417.952176</ele>
        <time>2024-08-23T08:46:36.000Z</time>
      </trkpt>
      <trkpt lat="46.955369" lon="10.577279">
        <ele>1418.438360</ele>
        <time>2024-08-23T08:46:37.000Z</time>
      </trkpt>
      <trkpt lat="46.955369" lon="10.577308">
        <ele>1418.749055</ele>
        <time>2024-08-23T08:46:38.000Z</time>
      </trkpt>
      <trkpt lat="46.955368" lon="10.577336">
        <ele>1419.049447</ele>
        <time>2024-08-23T08:46:39.000Z</time>
      </trkpt>
      <trkpt lat="46.955372" lon="10.577364">
        <ele>1419.355928</ele>
        <time>2024-08-23T08:46:40.000Z</time>
      </trkpt>
      <trkpt lat="46.955373" lon="10.577406">
        <ele>1419.806174</ele>
        <time>2024-08-23T08:46:41.000Z</time>
      </trkpt>
      <trkpt lat="46.955374" lon="10.577433">
        <ele>1420.095867</ele>
        <time>2024-08-23T08:46:42.000Z</time>
      </trkpt>
      <trkpt lat="46.955376" lon="10.577460">
        <ele>1420.386833</ele>
        <time>2024-08-23T08:46:43.000Z</time>
      </trkpt>
      <trkpt lat="46.955378" lon="10.577487">
        <ele>1420.677800</ele>
        <time>2024-08-23T08:46:44.000Z</time>
      </trkpt>
      <trkpt lat="46.955378" lon="10.577527">
        <ele>1421.106344</ele>
        <time>2024-08-23T08:46:45.000Z</time>
      </trkpt>
      <trkpt lat="46.955381" lon="10.577552">
        <ele>1421.378293</ele>
        <time>2024-08-23T08:46:46.000Z</time>
      </trkpt>
      <trkpt lat="46.955387" lon="10.577578">
        <ele>1421.672336</ele>
        <time>2024-08-23T08:46:47.000Z</time>
      </trkpt>
      <trkpt lat="46.955392" lon="10.577604">
        <ele>1421.961735</ele>
        <time>2024-08-23T08:46:48.000Z</time>
      </trkpt>
      <trkpt lat="46.955392" lon="10.577632">
        <ele>1422.261716</ele>
        <time>2024-08-23T08:46:49.000Z</time>
      </trkpt>
      <trkpt lat="46.955397" lon="10.577669">
        <ele>1422.665814</ele>
        <time>2024-08-23T08:46:50.000Z</time>
      </trkpt>
      <trkpt lat="46.955399" lon="10.577694">
        <ele>1422.935488</ele>
        <time>2024-08-23T08:46:51.000Z</time>
      </trkpt>
      <trkpt lat="46.955402" lon="10.577717">
        <ele>1423.186360</ele>
        <time>2024-08-23T08:46:52.000Z</time>
      </trkpt>
      <trkpt lat="46.955408" lon="10.577736">
        <ele>1423.410648</ele>
        <time>2024-08-23T08:46:53.000Z</time>
      </trkpt>
      <trkpt lat="46.955414" lon="10.577756">
        <ele>1423.644703</ele>
        <time>2024-08-23T08:46:54.000Z</time>
      </trkpt>
      <trkpt lat="46.955421" lon="10.577792">
        <ele>1424.045738</ele>
        <time>2024-08-23T08:46:55.000Z</time>
      </trkpt>
      <trkpt lat="46.955422" lon="10.577816">
        <ele>1424.303343</ele>
        <time>2024-08-23T08:46:56.000Z</time>
      </trkpt>
      <trkpt lat="46.955423" lon="10.577837">
        <ele>1424.528876</ele>
        <time>2024-08-23T08:46:57.000Z</time>
      </trkpt>
      <trkpt lat="46.955422" lon="10.577859">
        <ele>1424.765097</ele>
        <time>2024-08-23T08:46:58.000Z</time>
      </trkpt>
      <trkpt lat="46.955427" lon="10.577894">
        <ele>1425.148199</ele>
        <time>2024-08-23T08:46:59.000Z</time>
      </trkpt>
      <trkpt lat="46.955432" lon="10.577918">
        <ele>1425.417035</ele>
        <time>2024-08-23T08:47:00.000Z</time>
      </trkpt>
      <trkpt lat="46.955437" lon="10.577942">
        <ele>1425.685872</ele>
        <time>2024-08-23T08:47:01.000Z</time>
      </trkpt>
      <trkpt lat="46.955441" lon="10.577967">
        <ele>1425.960973</ele>
        <time>2024-08-23T08:47:02.000Z</time>
      </trkpt>
      <trkpt lat="46.955447" lon="10.578004">
        <ele>1426.368410</ele>
        <time>2024-08-23T08:47:03.000Z</time>
      </trkpt>
      <trkpt lat="46.955452" lon="10.578031">
        <ele>1426.668134</ele>
        <time>2024-08-23T08:47:04.000Z</time>
      </trkpt>
      <trkpt lat="46.955457" lon="10.578057">
        <ele>1426.957532</ele>
        <time>2024-08-23T08:47:05.000Z</time>
      </trkpt>
      <trkpt lat="46.955460" lon="10.578080">
        <ele>1427.208404</ele>
        <time>2024-08-23T08:47:06.000Z</time>
      </trkpt>
      <trkpt lat="46.955463" lon="10.578104">
        <ele>1427.469807</ele>
        <time>2024-08-23T08:47:07.000Z</time>
      </trkpt>
      <trkpt lat="46.955471" lon="10.578141">
        <ele>1427.885623</ele>
        <time>2024-08-23T08:47:08.000Z</time>
      </trkpt>
      <trkpt lat="46.955478" lon="10.578167">
        <ele>1428.185062</ele>
        <time>2024-08-23T08:47:09.000Z</time>
      </trkpt>
      <trkpt lat="46.955484" lon="10.578191">
        <ele>1428.458893</ele>
        <time>2024-08-23T08:47:10.000Z</time>
      </trkpt>
      <trkpt lat="46.955488" lon="10.578215">
        <ele>1428.723574</ele>
        <time>2024-08-23T08:47:11.000Z</time>
      </trkpt>
      <trkpt lat="46.955496" lon="10.578255">
        <ele>1429.170135</ele>
        <time>2024-08-23T08:47:12.000Z</time>
      </trkpt>
      <trkpt lat="46.955502" lon="10.578280">
        <ele>1429.454050</ele>
        <time>2024-08-23T08:47:13.000Z</time>
      </trkpt>
      <trkpt lat="46.955508" lon="10.578304">
        <ele>1429.727880</ele>
        <time>2024-08-23T08:47:14.000Z</time>
      </trkpt>
      <trkpt lat="46.955512" lon="10.578330">
        <ele>1430.013422</ele>
        <time>2024-08-23T08:47:15.000Z</time>
      </trkpt>
      <trkpt lat="46.955512" lon="10.578353">
        <ele>1430.259834</ele>
        <time>2024-08-23T08:47:16.000Z</time>
      </trkpt>
      <trkpt lat="46.955512" lon="10.578383">
        <ele>1430.581242</ele>
        <time>2024-08-23T08:47:17.000Z</time>
      </trkpt>
      <trkpt lat="46.955514" lon="10.578409">
        <ele>1430.861559</ele>
        <time>2024-08-23T08:47:18.000Z</time>
      </trkpt>
      <trkpt lat="46.955518" lon="10.578433">
        <ele>1431.126239</ele>
        <time>2024-08-23T08:47:19.000Z</time>
      </trkpt>
      <trkpt lat="46.955523" lon="10.578458">
        <ele>1431.405340</ele>
        <time>2024-08-23T08:47:20.000Z</time>
      </trkpt>
      <trkpt lat="46.955531" lon="10.578500">
        <ele>1431.872503</ele>
        <time>2024-08-23T08:47:21.000Z</time>
      </trkpt>
      <trkpt lat="46.955536" lon="10.578528">
        <ele>1432.182580</ele>
        <time>2024-08-23T08:47:22.000Z</time>
      </trkpt>
      <trkpt lat="46.955542" lon="10.578553">
        <ele>1432.466494</ele>
        <time>2024-08-23T08:47:23.000Z</time>
      </trkpt>
      <trkpt lat="46.955548" lon="10.578577">
        <ele>1432.740324</ele>
        <time>2024-08-23T08:47:24.000Z</time>
      </trkpt>
      <trkpt lat="46.955554" lon="10.578604">
        <ele>1433.044535</ele>
        <time>2024-08-23T08:47:25.000Z</time>
      </trkpt>
      <trkpt lat="46.955565" lon="10.578643">
        <ele>1433.496633</ele>
        <time>2024-08-23T08:47:26.000Z</time>
      </trkpt>
      <trkpt lat="46.955570" lon="10.578669">
        <ele>1433.786030</ele>
        <time>2024-08-23T08:47:27.000Z</time>
      </trkpt>
      <trkpt lat="46.955574" lon="10.578693">
        <ele>1434.050711</ele>
        <time>2024-08-23T08:47:28.000Z</time>
      </trkpt>
      <trkpt lat="46.955580" lon="10.578719">
        <ele>1434.344753</ele>
        <time>2024-08-23T08:47:29.000Z</time>
      </trkpt>
      <trkpt lat="46.955589" lon="10.578753">
        <ele>1434.735448</ele>
        <time>2024-08-23T08:47:30.000Z</time>
      </trkpt>
      <trkpt lat="46.955594" lon="10.578779">
        <ele>1435.024845</ele>
        <time>2024-08-23T08:47:31.000Z</time>
      </trkpt>
      <trkpt lat="46.955601" lon="10.578806">
        <ele>1435.334276</ele>
        <time>2024-08-23T08:47:32.000Z</time>
      </trkpt>
      <trkpt lat="46.955609" lon="10.578834">
        <ele>1435.659476</ele>
        <time>2024-08-23T08:47:33.000Z</time>
      </trkpt>
      <trkpt lat="46.955620" lon="10.578860">
        <ele>1435.987199</ele>
        <time>2024-08-23T08:47:34.000Z</time>
      </trkpt>
      <trkpt lat="46.955633" lon="10.578901">
        <ele>1436.471535</ele>
        <time>2024-08-23T08:47:35.000Z</time>
      </trkpt>
      <trkpt lat="46.955642" lon="10.578925">
        <ele>1436.764911</ele>
        <time>2024-08-23T08:47:36.000Z</time>
      </trkpt>
      <trkpt lat="46.955652" lon="10.578946">
        <ele>1437.039237</ele>
        <time>2024-08-23T08:47:37.000Z</time>
      </trkpt>
      <trkpt lat="46.955661" lon="10.578968">
        <ele>1437.314027</ele>
        <time>2024-08-23T08:47:38.000Z</time>
      </trkpt>
      <trkpt lat="46.955675" lon="10.579006">
        <ele>1437.776662</ele>
        <time>2024-08-23T08:47:39.000Z</time>
      </trkpt>
      <trkpt lat="46.955687" lon="10.579028">
        <ele>1438.078374</ele>
        <time>2024-08-23T08:47:40.000Z</time>
      </trkpt>
      <trkpt lat="46.955698" lon="10.579049">
        <ele>1438.361973</ele>
        <time>2024-08-23T08:47:41.000Z</time>
      </trkpt>
      <trkpt lat="46.955707" lon="10.579072">
        <ele>1438.646005</ele>
        <time>2024-08-23T08:47:42.000Z</time>
      </trkpt>
      <trkpt lat="46.955717" lon="10.579096">
        <ele>1438.947253</ele>
        <time>2024-08-23T08:47:43.000Z</time>
      </trkpt>
      <trkpt lat="46.955728" lon="10.579133">
        <ele>1439.379624</ele>
        <time>2024-08-23T08:47:44.000Z</time>
      </trkpt>
      <trkpt lat="46.955736" lon="10.579155">
        <ele>1439.646684</ele>
        <time>2024-08-23T08:47:45.000Z</time>
      </trkpt>
      <trkpt lat="46.955749" lon="10.579175">
        <ele>1439.942569</ele>
        <time>2024-08-23T08:47:46.000Z</time>
      </trkpt>
      <trkpt lat="46.955759" lon="10.579198">
        <ele>1440.234725</ele>
        <time>2024-08-23T08:47:47.000Z</time>
      </trkpt>
      <trkpt lat="46.955773" lon="10.579230">
        <ele>1440.641938</ele>
        <time>2024-08-23T08:47:48.000Z</time>
      </trkpt>
      <trkpt lat="46.955782" lon="10.579252">
        <ele>1440.916727</ele>
        <time>2024-08-23T08:47:49.000Z</time>
      </trkpt>
      <trkpt lat="46.955792" lon="10.579278">
        <ele>1441.236458</ele>
        <time>2024-08-23T08:47:50.000Z</time>
      </trkpt>
      <trkpt lat="46.955802" lon="10.579301">
        <ele>1441.519833</ele>
        <time>2024-08-23T08:47:51.000Z</time>
      </trkpt>
      <trkpt lat="46.955812" lon="10.579322">
        <ele>1441.777966</ele>
        <time>2024-08-23T08:47:52.000Z</time>
      </trkpt>
      <trkpt lat="46.955829" lon="10.579354">
        <ele>1442.186760</ele>
        <time>2024-08-23T08:47:53.000Z</time>
      </trkpt>
      <trkpt lat="46.955839" lon="10.579377">
        <ele>1442.461671</ele>
        <time>2024-08-23T08:47:54.000Z</time>
      </trkpt>
      <trkpt lat="46.955847" lon="10.579400">
        <ele>1442.721908</ele>
        <time>2024-08-23T08:47:55.000Z</time>
      </trkpt>
      <trkpt lat="46.955854" lon="10.579422">
        <ele>1442.966608</ele>
        <time>2024-08-23T08:47:56.000Z</time>
      </trkpt>
      <trkpt lat="46.955866" lon="10.579449">
        <ele>1443.291416</ele>
        <time>2024-08-23T08:47:57.000Z</time>
      </trkpt>
      <trkpt lat="46.955873" lon="10.579470">
        <ele>1443.527017</ele>
        <time>2024-08-23T08:47:58.000Z</time>
      </trkpt>
      <trkpt lat="46.955881" lon="10.579490">
        <ele>1443.760711</ele>
        <time>2024-08-23T08:47:59.000Z</time>
      </trkpt>
      <trkpt lat="46.955888" lon="10.579511">
        <ele>1443.996312</ele>
        <time>2024-08-23T08:48:00.000Z</time>
      </trkpt>
      <trkpt lat="46.955900" lon="10.579540">
        <ele>1444.338193</ele>
        <time>2024-08-23T08:48:01.000Z</time>
      </trkpt>
      <trkpt lat="46.955905" lon="10.579561">
        <ele>1444.562408</ele>
        <time>2024-08-23T08:48:02.000Z</time>
      </trkpt>
      <trkpt lat="46.955908" lon="10.579584">
        <ele>1444.798470</ele>
        <time>2024-08-23T08:48:03.000Z</time>
      </trkpt>
      <trkpt lat="46.955918" lon="10.579603">
        <ele>1445.040343</ele>
        <time>2024-08-23T08:48:04.000Z</time>
      </trkpt>
      <trkpt lat="46.955927" lon="10.579623">
        <ele>1445.281841</ele>
        <time>2024-08-23T08:48:05.000Z</time>
      </trkpt>
      <trkpt lat="46.955938" lon="10.579660">
        <ele>1445.688690</ele>
        <time>2024-08-23T08:48:06.000Z</time>
      </trkpt>
      <trkpt lat="46.955943" lon="10.579682">
        <ele>1445.922447</ele>
        <time>2024-08-23T08:48:07.000Z</time>
      </trkpt>
      <trkpt lat="46.955950" lon="10.579705">
        <ele>1446.176319</ele>
        <time>2024-08-23T08:48:08.000Z</time>
      </trkpt>
      <trkpt lat="46.955958" lon="10.579727">
        <ele>1446.427615</ele>
        <time>2024-08-23T08:48:09.000Z</time>
      </trkpt>
      <trkpt lat="46.955967" lon="10.579747">
        <ele>1446.669113</ele>
        <time>2024-08-23T08:48:10.000Z</time>
      </trkpt>
      <trkpt lat="46.955977" lon="10.579771">
        <ele>1446.952578</ele>
        <time>2024-08-23T08:48:11.000Z</time>
      </trkpt>
      <trkpt lat="46.955983" lon="10.579794">
        <ele>1447.200802</ele>
        <time>2024-08-23T08:48:12.000Z</time>
      </trkpt>
      <trkpt lat="46.955987" lon="10.579821">
        <ele>1447.479331</ele>
        <time>2024-08-23T08:48:13.000Z</time>
      </trkpt>
      <trkpt lat="46.955994" lon="10.579847">
        <ele>1447.761094</ele>
        <time>2024-08-23T08:48:14.000Z</time>
      </trkpt>
      <trkpt lat="46.956004" lon="10.579881">
        <ele>1448.134320</ele>
        <time>2024-08-23T08:48:15.000Z</time>
      </trkpt>
      <trkpt lat="46.956011" lon="10.579903">
        <ele>1448.379019</ele>
        <time>2024-08-23T08:48:16.000Z</time>
      </trkpt>
      <trkpt lat="46.956022" lon="10.579921">
        <ele>1448.622582</ele>
        <time>2024-08-23T08:48:17.000Z</time>
      </trkpt>
      <trkpt lat="46.956031" lon="10.579944">
        <ele>1448.889848</ele>
        <time>2024-08-23T08:48:18.000Z</time>
      </trkpt>
      <trkpt lat="46.956044" lon="10.579979">
        <ele>1449.291546</ele>
        <time>2024-08-23T08:48:19.000Z</time>
      </trkpt>
      <trkpt lat="46.956052" lon="10.580002">
        <ele>1449.551783</ele>
        <time>2024-08-23T08:48:20.000Z</time>
      </trkpt>
      <trkpt lat="46.956060" lon="10.580025">
        <ele>1449.812019</ele>
        <time>2024-08-23T08:48:21.000Z</time>
      </trkpt>
      <trkpt lat="46.956064" lon="10.580051">
        <ele>1450.080704</ele>
        <time>2024-08-23T08:48:22.000Z</time>
      </trkpt>
      <trkpt lat="46.956069" lon="10.580075">
        <ele>1450.333670</ele>
        <time>2024-08-23T08:48:23.000Z</time>
      </trkpt>
      <trkpt lat="46.956079" lon="10.580112">
        <ele>1450.734849</ele>
        <time>2024-08-23T08:48:24.000Z</time>
      </trkpt>
      <trkpt lat="46.956087" lon="10.580135">
        <ele>1450.995085</ele>
        <time>2024-08-23T08:48:25.000Z</time>
      </trkpt>
      <trkpt lat="46.956097" lon="10.580158">
        <ele>1451.269995</ele>
        <time>2024-08-23T08:48:26.000Z</time>
      </trkpt>
      <trkpt lat="46.956106" lon="10.580180">
        <ele>1451.528564</ele>
        <time>2024-08-23T08:48:27.000Z</time>
      </trkpt>
      <trkpt lat="46.956114" lon="10.580204">
        <ele>1451.797821</ele>
        <time>2024-08-23T08:48:28.000Z</time>
      </trkpt>
      <trkpt lat="46.956125" lon="10.580242">
        <ele>1452.213931</ele>
        <time>2024-08-23T08:48:29.000Z</time>
      </trkpt>
      <trkpt lat="46.956133" lon="10.580270">
        <ele>1452.519934</ele>
        <time>2024-08-23T08:48:30.000Z</time>
      </trkpt>
      <trkpt lat="46.956140" lon="10.580297">
        <ele>1452.811098</ele>
        <time>2024-08-23T08:48:31.000Z</time>
      </trkpt>
      <trkpt lat="46.956151" lon="10.580319">
        <ele>1453.086022</ele>
        <time>2024-08-23T08:48:32.000Z</time>
      </trkpt>
      <trkpt lat="46.956163" lon="10.580353">
        <ele>1453.471892</ele>
        <time>2024-08-23T08:48:33.000Z</time>
      </trkpt>
      <trkpt lat="46.956170" lon="10.580376">
        <ele>1453.725763</ele>
        <time>2024-08-23T08:48:34.000Z</time>
      </trkpt>
      <trkpt lat="46.956175" lon="10.580397">
        <ele>1453.949977</ele>
        <time>2024-08-23T08:48:35.000Z</time>
      </trkpt>
      <trkpt lat="46.956180" lon="10.580420">
        <ele>1454.193318</ele>
        <time>2024-08-23T08:48:36.000Z</time>
      </trkpt>
      <trkpt lat="46.956188" lon="10.580443">
        <ele>1454.453554</ele>
        <time>2024-08-23T08:48:37.000Z</time>
      </trkpt>
      <trkpt lat="46.956200" lon="10.580482">
        <ele>1454.884819</ele>
        <time>2024-08-23T08:48:38.000Z</time>
      </trkpt>
      <trkpt lat="46.956207" lon="10.580505">
        <ele>1455.138690</ele>
        <time>2024-08-23T08:48:39.000Z</time>
      </trkpt>
      <trkpt lat="46.956214" lon="10.580528">
        <ele>1455.392561</ele>
        <time>2024-08-23T08:48:40.000Z</time>
      </trkpt>
      <trkpt lat="46.956220" lon="10.580552">
        <ele>1455.650225</ele>
        <time>2024-08-23T08:48:41.000Z</time>
      </trkpt>
      <trkpt lat="46.956235" lon="10.580582">
        <ele>1456.025122</ele>
        <time>2024-08-23T08:48:42.000Z</time>
      </trkpt>
      <trkpt lat="46.956242" lon="10.580606">
        <ele>1456.288232</ele>
        <time>2024-08-23T08:48:43.000Z</time>
      </trkpt>
      <trkpt lat="46.956252" lon="10.580629">
        <ele>1456.563142</ele>
        <time>2024-08-23T08:48:44.000Z</time>
      </trkpt>
      <trkpt lat="46.956259" lon="10.580653">
        <ele>1456.826252</ele>
        <time>2024-08-23T08:48:45.000Z</time>
      </trkpt>
      <trkpt lat="46.956266" lon="10.580678">
        <ele>1457.098661</ele>
        <time>2024-08-23T08:48:46.000Z</time>
      </trkpt>
      <trkpt lat="46.956279" lon="10.580712">
        <ele>1457.491533</ele>
        <time>2024-08-23T08:48:47.000Z</time>
      </trkpt>
      <trkpt lat="46.956290" lon="10.580737">
        <ele>1457.791387</ele>
        <time>2024-08-23T08:48:48.000Z</time>
      </trkpt>
      <trkpt lat="46.956301" lon="10.580757">
        <ele>1458.050321</ele>
        <time>2024-08-23T08:48:49.000Z</time>
      </trkpt>
      <trkpt lat="46.956311" lon="10.580779">
        <ele>1458.316783</ele>
        <time>2024-08-23T08:48:50.000Z</time>
      </trkpt>
      <trkpt lat="46.956327" lon="10.580809">
        <ele>1458.700592</ele>
        <time>2024-08-23T08:48:51.000Z</time>
      </trkpt>
      <trkpt lat="46.956343" lon="10.580826">
        <ele>1458.992508</ele>
        <time>2024-08-23T08:48:52.000Z</time>
      </trkpt>
      <trkpt lat="46.956360" lon="10.580841">
        <ele>1459.285610</ele>
        <time>2024-08-23T08:48:53.000Z</time>
      </trkpt>
      <trkpt lat="46.956377" lon="10.580852">
        <ele>1459.560091</ele>
        <time>2024-08-23T08:48:54.000Z</time>
      </trkpt>
      <trkpt lat="46.956403" lon="10.580867">
        <ele>1459.972801</ele>
        <time>2024-08-23T08:48:55.000Z</time>
      </trkpt>
      <trkpt lat="46.956422" lon="10.580874">
        <ele>1460.262161</ele>
        <time>2024-08-23T08:48:56.000Z</time>
      </trkpt>
      <trkpt lat="46.956441" lon="10.580879">
        <ele>1460.547274</ele>
        <time>2024-08-23T08:48:57.000Z</time>
      </trkpt>
      <trkpt lat="46.956461" lon="10.580884">
        <ele>1460.846936</ele>
        <time>2024-08-23T08:48:58.000Z</time>
      </trkpt>
      <trkpt lat="46.956481" lon="10.580885">
        <ele>1461.142500</ele>
        <time>2024-08-23T08:48:59.000Z</time>
      </trkpt>
      <trkpt lat="46.956508" lon="10.580895">
        <ele>1461.553824</ele>
        <time>2024-08-23T08:49:00.000Z</time>
      </trkpt>
      <trkpt lat="46.956526" lon="10.580903">
        <ele>1461.831641</ele>
        <time>2024-08-23T08:49:01.000Z</time>
      </trkpt>
      <trkpt lat="46.956546" lon="10.580907">
        <ele>1462.129772</ele>
        <time>2024-08-23T08:49:02.000Z</time>
      </trkpt>
      <trkpt lat="46.956564" lon="10.580908">
        <ele>1462.395816</ele>
        <time>2024-08-23T08:49:03.000Z</time>
      </trkpt>
      <trkpt lat="46.956583" lon="10.580909">
        <ele>1462.676620</ele>
        <time>2024-08-23T08:49:04.000Z</time>
      </trkpt>
      <trkpt lat="46.956611" lon="10.580913">
        <ele>1463.092130</ele>
        <time>2024-08-23T08:49:05.000Z</time>
      </trkpt>
      <trkpt lat="46.956634" lon="10.580918">
        <ele>1463.435550</ele>
        <time>2024-08-23T08:49:06.000Z</time>
      </trkpt>
      <trkpt lat="46.956652" lon="10.580918">
        <ele>1463.701403</ele>
        <time>2024-08-23T08:49:07.000Z</time>
      </trkpt>
      <trkpt lat="46.956668" lon="10.580922">
        <ele>1463.941133</ele>
        <time>2024-08-23T08:49:08.000Z</time>
      </trkpt>
      <trkpt lat="46.956693" lon="10.580927">
        <ele>1464.313797</ele>
        <time>2024-08-23T08:49:09.000Z</time>
      </trkpt>
      <trkpt lat="46.956710" lon="10.580932">
        <ele>1464.569890</ele>
        <time>2024-08-23T08:49:10.000Z</time>
      </trkpt>
      <trkpt lat="46.956726" lon="10.580940">
        <ele>1464.819586</ele>
        <time>2024-08-23T08:49:11.000Z</time>
      </trkpt>
      <trkpt lat="46.956742" lon="10.580949">
        <ele>1465.072719</ele>
        <time>2024-08-23T08:49:12.000Z</time>
      </trkpt>
      <trkpt lat="46.956760" lon="10.580958">
        <ele>1465.353627</ele>
        <time>2024-08-23T08:49:13.000Z</time>
      </trkpt>
      <trkpt lat="46.956787" lon="10.580970">
        <ele>1465.770351</ele>
        <time>2024-08-23T08:49:14.000Z</time>
      </trkpt>
      <trkpt lat="46.956804" lon="10.580982">
        <ele>1466.049057</ele>
        <time>2024-08-23T08:49:15.000Z</time>
      </trkpt>
      <trkpt lat="46.956820" lon="10.580996">
        <ele>1466.324308</ele>
        <time>2024-08-23T08:49:16.000Z</time>
      </trkpt>
      <trkpt lat="46.956835" lon="10.581019">
        <ele>1466.644998</ele>
        <time>2024-08-23T08:49:17.000Z</time>
      </trkpt>
      <trkpt lat="46.956854" lon="10.581052">
        <ele>1467.080222</ele>
        <time>2024-08-23T08:49:18.000Z</time>
      </trkpt>
      <trkpt lat="46.956868" lon="10.581069">
        <ele>1467.348784</ele>
        <time>2024-08-23T08:49:19.000Z</time>
      </trkpt>
      <trkpt lat="46.956881" lon="10.581087">
        <ele>1467.612967</ele>
        <time>2024-08-23T08:49:20.000Z</time>
      </trkpt>
      <trkpt lat="46.956892" lon="10.581105">
        <ele>1467.856528</ele>
        <time>2024-08-23T08:49:21.000Z</time>
      </trkpt>
      <trkpt lat="46.956902" lon="10.581126">
        <ele>1468.033812</ele>
        <time>2024-08-23T08:49:22.000Z</time>
      </trkpt>
      <trkpt lat="46.956917" lon="10.581161">
        <ele>1468.251799</ele>
        <time>2024-08-23T08:49:23.000Z</time>
      </trkpt>
      <trkpt lat="46.956929" lon="10.581182">
        <ele>1468.396260</ele>
        <time>2024-08-23T08:49:24.000Z</time>
      </trkpt>
      <trkpt lat="46.956940" lon="10.581205">
        <ele>1468.544393</ele>
        <time>2024-08-23T08:49:25.000Z</time>
      </trkpt>
      <trkpt lat="46.956950" lon="10.581228">
        <ele>1468.688232</ele>
        <time>2024-08-23T08:49:26.000Z</time>
      </trkpt>
      <trkpt lat="46.956963" lon="10.581265">
        <ele>1468.907731</ele>
        <time>2024-08-23T08:49:27.000Z</time>
      </trkpt>
      <trkpt lat="46.956970" lon="10.581292">
        <ele>1469.060073</ele>
        <time>2024-08-23T08:49:28.000Z</time>
      </trkpt>
      <trkpt lat="46.956975" lon="10.581320">
        <ele>1469.212733</ele>
        <time>2024-08-23T08:49:29.000Z</time>
      </trkpt>
      <trkpt lat="46.956977" lon="10.581347">
        <ele>1469.355984</ele>
        <time>2024-08-23T08:49:30.000Z</time>
      </trkpt>
      <trkpt lat="46.956981" lon="10.581373">
        <ele>1469.496564</ele>
        <time>2024-08-23T08:49:31.000Z</time>
      </trkpt>
      <trkpt lat="46.956988" lon="10.581415">
        <ele>1469.724606</ele>
        <time>2024-08-23T08:49:32.000Z</time>
      </trkpt>
      <trkpt lat="46.956988" lon="10.581445">
        <ele>1469.882844</ele>
        <time>2024-08-23T08:49:33.000Z</time>
      </trkpt>
      <trkpt lat="46.956990" lon="10.581474">
        <ele>1470.036586</ele>
        <time>2024-08-23T08:49:34.000Z</time>
      </trkpt>
      <trkpt lat="46.956990" lon="10.581500">
        <ele>1470.173726</ele>
        <time>2024-08-23T08:49:35.000Z</time>
      </trkpt>
      <trkpt lat="46.956989" lon="10.581538">
        <ele>1470.374310</ele>
        <time>2024-08-23T08:49:36.000Z</time>
      </trkpt>
      <trkpt lat="46.956987" lon="10.581563">
        <ele>1470.507078</ele>
        <time>2024-08-23T08:49:37.000Z</time>
      </trkpt>
      <trkpt lat="46.956988" lon="10.581590">
        <ele>1470.649701</ele>
        <time>2024-08-23T08:49:38.000Z</time>
      </trkpt>
      <trkpt lat="46.956989" lon="10.581619">
        <ele>1470.802860</ele>
        <time>2024-08-23T08:49:39.000Z</time>
      </trkpt>
      <trkpt lat="46.956989" lon="10.581664">
        <ele>1471.040217</ele>
        <time>2024-08-23T08:49:40.000Z</time>
      </trkpt>
      <trkpt lat="46.956988" lon="10.581696">
        <ele>1471.209181</ele>
        <time>2024-08-23T08:49:41.000Z</time>
      </trkpt>
      <trkpt lat="46.956989" lon="10.581724">
        <ele>1471.357072</ele>
        <time>2024-08-23T08:49:42.000Z</time>
      </trkpt>
      <trkpt lat="46.956991" lon="10.581752">
        <ele>1471.505567</ele>
        <time>2024-08-23T08:49:43.000Z</time>
      </trkpt>
      <trkpt lat="46.956989" lon="10.581782">
        <ele>1471.664559</ele>
        <time>2024-08-23T08:49:44.000Z</time>
      </trkpt>
      <trkpt lat="46.956994" lon="10.581825">
        <ele>1471.894634</ele>
        <time>2024-08-23T08:49:45.000Z</time>
      </trkpt>
      <trkpt lat="46.957002" lon="10.581853">
        <ele>1472.054740</ele>
        <time>2024-08-23T08:49:46.000Z</time>
      </trkpt>
      <trkpt lat="46.957015" lon="10.581878">
        <ele>1472.220514</ele>
        <time>2024-08-23T08:49:47.000Z</time>
      </trkpt>
      <trkpt lat="46.957028" lon="10.581908">
        <ele>1472.407949</ele>
        <time>2024-08-23T08:49:48.000Z</time>
      </trkpt>
      <trkpt lat="46.957043" lon="10.581939">
        <ele>1472.608381</ele>
        <time>2024-08-23T08:49:49.000Z</time>
      </trkpt>
      <trkpt lat="46.957067" lon="10.581988">
        <ele>1472.926497</ele>
        <time>2024-08-23T08:49:50.000Z</time>
      </trkpt>
      <trkpt lat="46.957084" lon="10.582019">
        <ele>1473.136247</ele>
        <time>2024-08-23T08:49:51.000Z</time>
      </trkpt>
      <trkpt lat="46.957104" lon="10.582048">
        <ele>1473.353699</ele>
        <time>2024-08-23T08:49:52.000Z</time>
      </trkpt>
      <trkpt lat="46.957123" lon="10.582079">
        <ele>1473.573460</ele>
        <time>2024-08-23T08:49:53.000Z</time>
      </trkpt>
      <trkpt lat="46.957151" lon="10.582126">
        <ele>1473.902515</ele>
        <time>2024-08-23T08:49:54.000Z</time>
      </trkpt>
      <trkpt lat="46.957167" lon="10.582152">
        <ele>1474.087164</ele>
        <time>2024-08-23T08:49:55.000Z</time>
      </trkpt>
      <trkpt lat="46.957181" lon="10.582179">
        <ele>1474.266012</ele>
        <time>2024-08-23T08:49:56.000Z</time>
      </trkpt>
      <trkpt lat="46.957197" lon="10.582211">
        <ele>1474.475242</ele>
        <time>2024-08-23T08:49:57.000Z</time>
      </trkpt>
      <trkpt lat="46.957215" lon="10.582244">
        <ele>1474.698056</ele>
        <time>2024-08-23T08:49:58.000Z</time>
      </trkpt>
      <trkpt lat="46.957240" lon="10.582288">
        <ele>1475.000027</ele>
        <time>2024-08-23T08:49:59.000Z</time>
      </trkpt>
      <trkpt lat="46.957257" lon="10.582320">
        <ele>1475.213914</ele>
        <time>2024-08-23T08:50:00.000Z</time>
      </trkpt>
      <trkpt lat="46.957273" lon="10.582352">
        <ele>1475.423144</ele>
        <time>2024-08-23T08:50:01.000Z</time>
      </trkpt>
      <trkpt lat="46.957287" lon="10.582384">
        <ele>1475.623628</ele>
        <time>2024-08-23T08:50:02.000Z</time>
      </trkpt>
      <trkpt lat="46.957306" lon="10.582438">
        <ele>1475.944073</ele>
        <time>2024-08-23T08:50:03.000Z</time>
      </trkpt>
      <trkpt lat="46.957317" lon="10.582476">
        <ele>1476.161787</ele>
        <time>2024-08-23T08:50:04.000Z</time>
      </trkpt>
      <trkpt lat="46.957328" lon="10.582513">
        <ele>1476.374656</ele>
        <time>2024-08-23T08:50:05.000Z</time>
      </trkpt>
      <trkpt lat="46.957340" lon="10.582550">
        <ele>1476.590727</ele>
        <time>2024-08-23T08:50:06.000Z</time>
      </trkpt>
      <trkpt lat="46.957348" lon="10.582589">
        <ele>1476.805524</ele>
        <time>2024-08-23T08:50:07.000Z</time>
      </trkpt>
      <trkpt lat="46.957357" lon="10.582644">
        <ele>1477.103846</ele>
        <time>2024-08-23T08:50:08.000Z</time>
      </trkpt>
      <trkpt lat="46.957363" lon="10.582682">
        <ele>1477.309573</ele>
        <time>2024-08-23T08:50:09.000Z</time>
      </trkpt>
      <trkpt lat="46.957368" lon="10.582722">
        <ele>1477.524064</ele>
        <time>2024-08-23T08:50:10.000Z</time>
      </trkpt>
      <trkpt lat="46.957372" lon="10.582762">
        <ele>1477.737299</ele>
        <time>2024-08-23T08:50:11.000Z</time>
      </trkpt>
      <trkpt lat="46.957379" lon="10.582820">
        <ele>1478.047970</ele>
        <time>2024-08-23T08:50:12.000Z</time>
      </trkpt>
      <trkpt lat="46.957382" lon="10.582859">
        <ele>1478.254980</ele>
        <time>2024-08-23T08:50:13.000Z</time>
      </trkpt>
      <trkpt lat="46.957385" lon="10.582897">
        <ele>1478.456750</ele>
        <time>2024-08-23T08:50:14.000Z</time>
      </trkpt>
      <trkpt lat="46.957390" lon="10.582931">
        <ele>1478.640200</ele>
        <time>2024-08-23T08:50:15.000Z</time>
      </trkpt>
      <trkpt lat="46.957393" lon="10.582962">
        <ele>1478.805347</ele>
        <time>2024-08-23T08:50:16.000Z</time>
      </trkpt>
      <trkpt lat="46.957399" lon="10.583007">
        <ele>1479.047189</ele>
        <time>2024-08-23T08:50:17.000Z</time>
      </trkpt>
      <trkpt lat="46.957404" lon="10.583042">
        <ele>1479.235799</ele>
        <time>2024-08-23T08:50:18.000Z</time>
      </trkpt>
      <trkpt lat="46.957410" lon="10.583081">
        <ele>1479.446668</ele>
        <time>2024-08-23T08:50:19.000Z</time>
      </trkpt>
      <trkpt lat="46.957421" lon="10.583111">
        <ele>1479.626292</ele>
        <time>2024-08-23T08:50:20.000Z</time>
      </trkpt>
      <trkpt lat="46.957441" lon="10.583165">
        <ele>1479.950350</ele>
        <time>2024-08-23T08:50:21.000Z</time>
      </trkpt>
      <trkpt lat="46.957458" lon="10.583204">
        <ele>1480.194429</ele>
        <time>2024-08-23T08:50:22.000Z</time>
      </trkpt>
      <trkpt lat="46.957475" lon="10.583237">
        <ele>1480.412502</ele>
        <time>2024-08-23T08:50:23.000Z</time>
      </trkpt>
      <trkpt lat="46.957492" lon="10.583270">
        <ele>1480.630575</ele>
        <time>2024-08-23T08:50:24.000Z</time>
      </trkpt>
      <trkpt lat="46.957511" lon="10.583299">
        <ele>1480.842603</ele>
        <time>2024-08-23T08:50:25.000Z</time>
      </trkpt>
      <trkpt lat="46.957541" lon="10.583345">
        <ele>1481.178187</ele>
        <time>2024-08-23T08:50:26.000Z</time>
      </trkpt>
      <trkpt lat="46.957562" lon="10.583375">
        <ele>1481.404847</ele>
        <time>2024-08-23T08:50:27.000Z</time>
      </trkpt>
      <trkpt lat="46.957582" lon="10.583400">
        <ele>1481.608011</ele>
        <time>2024-08-23T08:50:28.000Z</time>
      </trkpt>
      <trkpt lat="46.957604" lon="10.583423">
        <ele>1481.816869</ele>
        <time>2024-08-23T08:50:29.000Z</time>
      </trkpt>
      <trkpt lat="46.957639" lon="10.583458">
        <ele>1482.185669</ele>
        <time>2024-08-23T08:50:30.000Z</time>
      </trkpt>
      <trkpt lat="46.957665" lon="10.583480">
        <ele>1482.449696</ele>
        <time>2024-08-23T08:50:31.000Z</time>
      </trkpt>
      <trkpt lat="46.957691" lon="10.583499">
        <ele>1482.705195</ele>
        <time>2024-08-23T08:50:32.000Z</time>
      </trkpt>
      <trkpt lat="46.957716" lon="10.583517">
        <ele>1482.950149</ele>
        <time>2024-08-23T08:50:33.000Z</time>
      </trkpt>
      <trkpt lat="46.957741" lon="10.583536">
        <ele>1483.197809</ele>
        <time>2024-08-23T08:50:34.000Z</time>
      </trkpt>
      <trkpt lat="46.957779" lon="10.583562">
        <ele>1483.566612</ele>
        <time>2024-08-23T08:50:35.000Z</time>
      </trkpt>
      <trkpt lat="46.957803" lon="10.583581">
        <ele>1483.806500</ele>
        <time>2024-08-23T08:50:36.000Z</time>
      </trkpt>
      <trkpt lat="46.957824" lon="10.583601">
        <ele>1484.026755</ele>
        <time>2024-08-23T08:50:37.000Z</time>
      </trkpt>
      <trkpt lat="46.957844" lon="10.583620">
        <ele>1484.236365</ele>
        <time>2024-08-23T08:50:38.000Z</time>
      </trkpt>
      <trkpt lat="46.957873" lon="10.583652">
        <ele>1484.555618</ele>
        <time>2024-08-23T08:50:39.000Z</time>
      </trkpt>
      <trkpt lat="46.957890" lon="10.583673">
        <ele>1484.751155</ele>
        <time>2024-08-23T08:50:40.000Z</time>
      </trkpt>
      <trkpt lat="46.957907" lon="10.583694">
        <ele>1484.946692</ele>
        <time>2024-08-23T08:50:41.000Z</time>
      </trkpt>
      <trkpt lat="46.957923" lon="10.583713">
        <ele>1485.127803</ele>
        <time>2024-08-23T08:50:42.000Z</time>
      </trkpt>
      <trkpt lat="46.957947" lon="10.583742">
        <ele>1485.401368</ele>
        <time>2024-08-23T08:50:43.000Z</time>
      </trkpt>
      <trkpt lat="46.957959" lon="10.583761">
        <ele>1485.556739</ele>
        <time>2024-08-23T08:50:44.000Z</time>
      </trkpt>
      <trkpt lat="46.957975" lon="10.583781">
        <ele>1485.741687</ele>
        <time>2024-08-23T08:50:45.000Z</time>
      </trkpt>
      <trkpt lat="46.957989" lon="10.583805">
        <ele>1485.931177</ele>
        <time>2024-08-23T08:50:46.000Z</time>
      </trkpt>
      <trkpt lat="46.958003" lon="10.583830">
        <ele>1486.125268</ele>
        <time>2024-08-23T08:50:47.000Z</time>
      </trkpt>
      <trkpt lat="46.958022" lon="10.583873">
        <ele>1486.432716</ele>
        <time>2024-08-23T08:50:48.000Z</time>
      </trkpt>
      <trkpt lat="46.958037" lon="10.583901">
        <ele>1486.646356</ele>
        <time>2024-08-23T08:50:49.000Z</time>
      </trkpt>
      <trkpt lat="46.958051" lon="10.583930">
        <ele>1486.859552</ele>
        <time>2024-08-23T08:50:50.000Z</time>
      </trkpt>
      <trkpt lat="46.958062" lon="10.583961">
        <ele>1487.069256</ele>
        <time>2024-08-23T08:50:51.000Z</time>
      </trkpt>
      <trkpt lat="46.958074" lon="10.583990">
        <ele>1487.272804</ele>
        <time>2024-08-23T08:50:52.000Z</time>
      </trkpt>
      <trkpt lat="46.958089" lon="10.584033">
        <ele>1487.562644</ele>
        <time>2024-08-23T08:50:53.000Z</time>
      </trkpt>
      <trkpt lat="46.958100" lon="10.584059">
        <ele>1487.746244</ele>
        <time>2024-08-23T08:50:54.000Z</time>
      </trkpt>
      <trkpt lat="46.958111" lon="10.584091">
        <ele>1487.961291</ele>
        <time>2024-08-23T08:50:55.000Z</time>
      </trkpt>
      <trkpt lat="46.958120" lon="10.584121">
        <ele>1488.157976</ele>
        <time>2024-08-23T08:50:56.000Z</time>
      </trkpt>
      <trkpt lat="46.958127" lon="10.584172">
        <ele>1488.470206</ele>
        <time>2024-08-23T08:50:57.000Z</time>
      </trkpt>
      <trkpt lat="46.958132" lon="10.584208">
        <ele>1488.690705</ele>
        <time>2024-08-23T08:50:58.000Z</time>
      </trkpt>
      <trkpt lat="46.958133" lon="10.584244">
        <ele>1488.906956</ele>
        <time>2024-08-23T08:50:59.000Z</time>
      </trkpt>
      <trkpt lat="46.958134" lon="10.584279">
        <ele>1489.117209</ele>
        <time>2024-08-23T08:51:00.000Z</time>
      </trkpt>
      <trkpt lat="46.958134" lon="10.584330">
        <ele>1489.423311</ele>
        <time>2024-08-23T08:51:01.000Z</time>
      </trkpt>
      <trkpt lat="46.958134" lon="10.584363">
        <ele>1489.621376</ele>
        <time>2024-08-23T08:51:02.000Z</time>
      </trkpt>
      <trkpt lat="46.958134" lon="10.584400">
        <ele>1489.843450</ele>
        <time>2024-08-23T08:51:03.000Z</time>
      </trkpt>
      <trkpt lat="46.958134" lon="10.584439">
        <ele>1490.077527</ele>
        <time>2024-08-23T08:51:04.000Z</time>
      </trkpt>
      <trkpt lat="46.958138" lon="10.584475">
        <ele>1490.296443</ele>
        <time>2024-08-23T08:51:05.000Z</time>
      </trkpt>
      <trkpt lat="46.958145" lon="10.584529">
        <ele>1490.626344</ele>
        <time>2024-08-23T08:51:06.000Z</time>
      </trkpt>
      <trkpt lat="46.958156" lon="10.584562">
        <ele>1490.846768</ele>
        <time>2024-08-23T08:51:07.000Z</time>
      </trkpt>
      <trkpt lat="46.958167" lon="10.584596">
        <ele>1491.072601</ele>
        <time>2024-08-23T08:51:08.000Z</time>
      </trkpt>
      <trkpt lat="46.958179" lon="10.584629">
        <ele>1491.297023</ele>
        <time>2024-08-23T08:51:09.000Z</time>
      </trkpt>
      <trkpt lat="46.958192" lon="10.584659">
        <ele>1491.510307</ele>
        <time>2024-08-23T08:51:10.000Z</time>
      </trkpt>
      <trkpt lat="46.958219" lon="10.584699">
        <ele>1491.847962</ele>
        <time>2024-08-23T08:51:11.000Z</time>
      </trkpt>
      <trkpt lat="46.958238" lon="10.584723">
        <ele>1492.068564</ele>
        <time>2024-08-23T08:51:12.000Z</time>
      </trkpt>
      <trkpt lat="46.958257" lon="10.584743">
        <ele>1492.274296</ele>
        <time>2024-08-23T08:51:13.000Z</time>
      </trkpt>
      <trkpt lat="46.958275" lon="10.584763">
        <ele>1492.472951</ele>
        <time>2024-08-23T08:51:14.000Z</time>
      </trkpt>
      <trkpt lat="46.958302" lon="10.584792">
        <ele>1492.767347</ele>
        <time>2024-08-23T08:51:15.000Z</time>
      </trkpt>
      <trkpt lat="46.958318" lon="10.584819">
        <ele>1492.981957</ele>
        <time>2024-08-23T08:51:16.000Z</time>
      </trkpt>
      <trkpt lat="46.958337" lon="10.584839">
        <ele>1493.187688</ele>
        <time>2024-08-23T08:51:17.000Z</time>
      </trkpt>
      <trkpt lat="46.958355" lon="10.584861">
        <ele>1493.393819</ele>
        <time>2024-08-23T08:51:18.000Z</time>
      </trkpt>
      <trkpt lat="46.958371" lon="10.584882">
        <ele>1493.582718</ele>
        <time>2024-08-23T08:51:19.000Z</time>
      </trkpt>
      <trkpt lat="46.958399" lon="10.584912">
        <ele>1493.887754</ele>
        <time>2024-08-23T08:51:20.000Z</time>
      </trkpt>
      <trkpt lat="46.958416" lon="10.584938">
        <ele>1494.103856</ele>
        <time>2024-08-23T08:51:21.000Z</time>
      </trkpt>
      <trkpt lat="46.958431" lon="10.584964">
        <ele>1494.308187</ele>
        <time>2024-08-23T08:51:22.000Z</time>
      </trkpt>
      <trkpt lat="46.958444" lon="10.584990">
        <ele>1494.501630</ele>
        <time>2024-08-23T08:51:23.000Z</time>
      </trkpt>
      <trkpt lat="46.958463" lon="10.585024">
        <ele>1494.765370</ele>
        <time>2024-08-23T08:51:24.000Z</time>
      </trkpt>
      <trkpt lat="46.958478" lon="10.585040">
        <ele>1494.928530</ele>
        <time>2024-08-23T08:51:25.000Z</time>
      </trkpt>
      <trkpt lat="46.958489" lon="10.585057">
        <ele>1495.069127</ele>
        <time>2024-08-23T08:51:26.000Z</time>
      </trkpt>
      <trkpt lat="46.958500" lon="10.585079">
        <ele>1495.232810</ele>
        <time>2024-08-23T08:51:27.000Z</time>
      </trkpt>
      <trkpt lat="46.958512" lon="10.585102">
        <ele>1495.406568</ele>
        <time>2024-08-23T08:51:28.000Z</time>
      </trkpt>
      <trkpt lat="46.958531" lon="10.585135">
        <ele>1495.665692</ele>
        <time>2024-08-23T08:51:29.000Z</time>
      </trkpt>
      <trkpt lat="46.958545" lon="10.585153">
        <ele>1495.829485</ele>
        <time>2024-08-23T08:51:29.000Z</time>
      </trkpt>
      <trkpt lat="46.958552" lon="10.585163">
        <ele>1495.915458</ele>
        <time>2024-08-23T08:51:30.000Z</time>
      </trkpt>
      <trkpt lat="46.958605" lon="10.585274">
        <ele>1496.728514</ele>
        <time>2024-08-23T08:51:32.000Z</time>
      </trkpt>
      <trkpt lat="46.958625" lon="10.585322">
        <ele>1497.066048</ele>
        <time>2024-08-23T08:51:34.000Z</time>
      </trkpt>
      <trkpt lat="46.958635" lon="10.585355">
        <ele>1497.282756</ele>
        <time>2024-08-23T08:51:35.000Z</time>
      </trkpt>
      <trkpt lat="46.958642" lon="10.585372">
        <ele>1497.401919</ele>
        <time>2024-08-23T08:51:36.000Z</time>
      </trkpt>
      <trkpt lat="46.958660" lon="10.585420">
        <ele>1497.754383</ele>
        <time>2024-08-23T08:51:37.000Z</time>
      </trkpt>
      <trkpt lat="46.958669" lon="10.585454">
        <ele>1498.048362</ele>
        <time>2024-08-23T08:51:38.000Z</time>
      </trkpt>
      <trkpt lat="46.958685" lon="10.585499">
        <ele>1498.457397</ele>
        <time>2024-08-23T08:51:39.000Z</time>
      </trkpt>
      <trkpt lat="46.958697" lon="10.585528">
        <ele>1498.730787</ele>
        <time>2024-08-23T08:51:40.000Z</time>
      </trkpt>
      <trkpt lat="46.958709" lon="10.585556">
        <ele>1498.997315</ele>
        <time>2024-08-23T08:51:41.000Z</time>
      </trkpt>
      <trkpt lat="46.958722" lon="10.585603">
        <ele>1499.406131</ele>
        <time>2024-08-23T08:51:42.000Z</time>
      </trkpt>
      <trkpt lat="46.958731" lon="10.585626">
        <ele>1499.619854</ele>
        <time>2024-08-23T08:51:43.000Z</time>
      </trkpt>
      <trkpt lat="46.958738" lon="10.585651">
        <ele>1499.837688</ele>
        <time>2024-08-23T08:51:44.000Z</time>
      </trkpt>
      <trkpt lat="46.958744" lon="10.585683">
        <ele>1500.105210</ele>
        <time>2024-08-23T08:51:45.000Z</time>
      </trkpt>
      <trkpt lat="46.958752" lon="10.585711">
        <ele>1500.349908</ele>
        <time>2024-08-23T08:51:46.000Z</time>
      </trkpt>
      <trkpt lat="46.958761" lon="10.585758">
        <ele>1500.743423</ele>
        <time>2024-08-23T08:51:47.000Z</time>
      </trkpt>
      <trkpt lat="46.958766" lon="10.585788">
        <ele>1500.992370</ele>
        <time>2024-08-23T08:51:48.000Z</time>
      </trkpt>
      <trkpt lat="46.958769" lon="10.585820">
        <ele>1501.252757</ele>
        <time>2024-08-23T08:51:49.000Z</time>
      </trkpt>
      <trkpt lat="46.958770" lon="10.585861">
        <ele>1501.583485</ele>
        <time>2024-08-23T08:51:50.000Z</time>
      </trkpt>
      <trkpt lat="46.958774" lon="10.585914">
        <ele>1502.013342</ele>
        <time>2024-08-23T08:51:51.000Z</time>
      </trkpt>
      <trkpt lat="46.958773" lon="10.585946">
        <ele>1502.271577</ele>
        <time>2024-08-23T08:51:52.000Z</time>
      </trkpt>
      <trkpt lat="46.958772" lon="10.585983">
        <ele>1502.570082</ele>
        <time>2024-08-23T08:51:53.000Z</time>
      </trkpt>
      <trkpt lat="46.958771" lon="10.586022">
        <ele>1502.884698</ele>
        <time>2024-08-23T08:51:54.000Z</time>
      </trkpt>
      <trkpt lat="46.958768" lon="10.586061">
        <ele>1503.201082</ele>
        <time>2024-08-23T08:51:55.000Z</time>
      </trkpt>
      <trkpt lat="46.958767" lon="10.586115">
        <ele>1503.636557</ele>
        <time>2024-08-23T08:51:56.000Z</time>
      </trkpt>
      <trkpt lat="46.958768" lon="10.586148">
        <ele>1503.902845</ele>
        <time>2024-08-23T08:51:57.000Z</time>
      </trkpt>
      <trkpt lat="46.958770" lon="10.586182">
        <ele>1504.177948</ele>
        <time>2024-08-23T08:51:58.000Z</time>
      </trkpt>
      <trkpt lat="46.958768" lon="10.586217">
        <ele>1504.461084</ele>
        <time>2024-08-23T08:51:59.000Z</time>
      </trkpt>
      <trkpt lat="46.958764" lon="10.586251">
        <ele>1504.739213</ele>
        <time>2024-08-23T08:52:00.000Z</time>
      </trkpt>
      <trkpt lat="46.958764" lon="10.586302">
        <ele>1505.150344</ele>
        <time>2024-08-23T08:52:01.000Z</time>
      </trkpt>
      <trkpt lat="46.958763" lon="10.586339">
        <ele>1505.448849</ele>
        <time>2024-08-23T08:52:02.000Z</time>
      </trkpt>
      <trkpt lat="46.958764" lon="10.586377">
        <ele>1505.755409</ele>
        <time>2024-08-23T08:52:03.000Z</time>
      </trkpt>
      <trkpt lat="46.958761" lon="10.586413">
        <ele>1506.047774</ele>
        <time>2024-08-23T08:52:04.000Z</time>
      </trkpt>
      <trkpt lat="46.958753" lon="10.586459">
        <ele>1506.430447</ele>
        <time>2024-08-23T08:52:05.000Z</time>
      </trkpt>
      <trkpt lat="46.958755" lon="10.586489">
        <ele>1506.673440</ele>
        <time>2024-08-23T08:52:06.000Z</time>
      </trkpt>
      <trkpt lat="46.958754" lon="10.586514">
        <ele>1506.875320</ele>
        <time>2024-08-23T08:52:07.000Z</time>
      </trkpt>
      <trkpt lat="46.958755" lon="10.586535">
        <ele>1507.045021</ele>
        <time>2024-08-23T08:52:08.000Z</time>
      </trkpt>
      <trkpt lat="46.958761" lon="10.586565">
        <ele>1507.297032</ele>
        <time>2024-08-23T08:52:09.000Z</time>
      </trkpt>
      <trkpt lat="46.958768" lon="10.586584">
        <ele>1507.471088</ele>
        <time>2024-08-23T08:52:10.000Z</time>
      </trkpt>
      <trkpt lat="46.958779" lon="10.586604">
        <ele>1507.678149</ele>
        <time>2024-08-23T08:52:11.000Z</time>
      </trkpt>
      <trkpt lat="46.958792" lon="10.586624">
        <ele>1507.900793</ele>
        <time>2024-08-23T08:52:12.000Z</time>
      </trkpt>
      <trkpt lat="46.958805" lon="10.586652">
        <ele>1508.173786</ele>
        <time>2024-08-23T08:52:13.000Z</time>
      </trkpt>
      <trkpt lat="46.958818" lon="10.586689">
        <ele>1508.509258</ele>
        <time>2024-08-23T08:52:14.000Z</time>
      </trkpt>
      <trkpt lat="46.958823" lon="10.586713">
        <ele>1508.711543</ele>
        <time>2024-08-23T08:52:15.000Z</time>
      </trkpt>
      <trkpt lat="46.958826" lon="10.586742">
        <ele>1508.947993</ele>
        <time>2024-08-23T08:52:16.000Z</time>
      </trkpt>
      <trkpt lat="46.958834" lon="10.586771">
        <ele>1509.200146</ele>
        <time>2024-08-23T08:52:17.000Z</time>
      </trkpt>
      <trkpt lat="46.958848" lon="10.586809">
        <ele>1509.548259</ele>
        <time>2024-08-23T08:52:18.000Z</time>
      </trkpt>
      <trkpt lat="46.958859" lon="10.586831">
        <ele>1509.768106</ele>
        <time>2024-08-23T08:52:19.000Z</time>
      </trkpt>
      <trkpt lat="46.958874" lon="10.586853">
        <ele>1510.018788</ele>
        <time>2024-08-23T08:52:20.000Z</time>
      </trkpt>
      <trkpt lat="46.958884" lon="10.586876">
        <ele>1510.238623</ele>
        <time>2024-08-23T08:52:21.000Z</time>
      </trkpt>
      <trkpt lat="46.958897" lon="10.586912">
        <ele>1510.566948</ele>
        <time>2024-08-23T08:52:22.000Z</time>
      </trkpt>
      <trkpt lat="46.958910" lon="10.586935">
        <ele>1510.807683</ele>
        <time>2024-08-23T08:52:23.000Z</time>
      </trkpt>
      <trkpt lat="46.958924" lon="10.586958">
        <ele>1511.056118</ele>
        <time>2024-08-23T08:52:24.000Z</time>
      </trkpt>
      <trkpt lat="46.958940" lon="10.586978">
        <ele>1511.304527</ele>
        <time>2024-08-23T08:52:25.000Z</time>
      </trkpt>
      <trkpt lat="46.958957" lon="10.586996">
        <ele>1511.552260</ele>
        <time>2024-08-23T08:52:26.000Z</time>
      </trkpt>
      <trkpt lat="46.958976" lon="10.587017">
        <ele>1511.833364</ele>
        <time>2024-08-23T08:52:27.000Z</time>
      </trkpt>
      <trkpt lat="46.958988" lon="10.587032">
        <ele>1512.019670</ele>
        <time>2024-08-23T08:52:28.000Z</time>
      </trkpt>
      <trkpt lat="46.959007" lon="10.587048">
        <ele>1512.278508</ele>
        <time>2024-08-23T08:52:29.000Z</time>
      </trkpt>
      <trkpt lat="46.959024" lon="10.587066">
        <ele>1512.526240</ele>
        <time>2024-08-23T08:52:30.000Z</time>
      </trkpt>
      <trkpt lat="46.959036" lon="10.587082">
        <ele>1512.717877</ele>
        <time>2024-08-23T08:52:31.000Z</time>
      </trkpt>
      <trkpt lat="46.959057" lon="10.587109">
        <ele>1513.047870</ele>
        <time>2024-08-23T08:52:32.000Z</time>
      </trkpt>
      <trkpt lat="46.959068" lon="10.587123">
        <ele>1513.219965</ele>
        <time>2024-08-23T08:52:33.000Z</time>
      </trkpt>
      <trkpt lat="46.959084" lon="10.587140">
        <ele>1513.453404</ele>
        <time>2024-08-23T08:52:34.000Z</time>
      </trkpt>
      <trkpt lat="46.959100" lon="10.587158">
        <ele>1513.691664</ele>
        <time>2024-08-23T08:52:35.000Z</time>
      </trkpt>
      <trkpt lat="46.959121" lon="10.587177">
        <ele>1513.983178</ele>
        <time>2024-08-23T08:52:36.000Z</time>
      </trkpt>
      <trkpt lat="46.959133" lon="10.587190">
        <ele>1514.159447</ele>
        <time>2024-08-23T08:52:37.000Z</time>
      </trkpt>
      <trkpt lat="46.959150" lon="10.587208">
        <ele>1514.407180</ele>
        <time>2024-08-23T08:52:38.000Z</time>
      </trkpt>
      <trkpt lat="46.959168" lon="10.587222">
        <ele>1514.647879</ele>
        <time>2024-08-23T08:52:39.000Z</time>
      </trkpt>
      <trkpt lat="46.959193" lon="10.587250">
        <ele>1515.019547</ele>
        <time>2024-08-23T08:52:40.000Z</time>
      </trkpt>
      <trkpt lat="46.959214" lon="10.587275">
        <ele>1515.339135</ele>
        <time>2024-08-23T08:52:41.000Z</time>
      </trkpt>
      <trkpt lat="46.959233" lon="10.587298">
        <ele>1515.630232</ele>
        <time>2024-08-23T08:52:42.000Z</time>
      </trkpt>
      <trkpt lat="46.959249" lon="10.587319">
        <ele>1515.883947</ele>
        <time>2024-08-23T08:52:43.000Z</time>
      </trkpt>
      <trkpt lat="46.959262" lon="10.587335">
        <ele>1516.084476</ele>
        <time>2024-08-23T08:52:44.000Z</time>
      </trkpt>
      <trkpt lat="46.959286" lon="10.587365">
        <ele>1516.457088</ele>
        <time>2024-08-23T08:52:45.000Z</time>
      </trkpt>
      <trkpt lat="46.959304" lon="10.587384">
        <ele>1516.719116</ele>
        <time>2024-08-23T08:52:46.000Z</time>
      </trkpt>
      <trkpt lat="46.959322" lon="10.587402">
        <ele>1516.976514</ele>
        <time>2024-08-23T08:52:47.000Z</time>
      </trkpt>
      <trkpt lat="46.959339" lon="10.587415">
        <ele>1517.203006</ele>
        <time>2024-08-23T08:52:48.000Z</time>
      </trkpt>
      <trkpt lat="46.959356" lon="10.587430">
        <ele>1517.437395</ele>
        <time>2024-08-23T08:52:49.000Z</time>
      </trkpt>
      <trkpt lat="46.959387" lon="10.587449">
        <ele>1517.834285</ele>
        <time>2024-08-23T08:52:50.000Z</time>
      </trkpt>
      <trkpt lat="46.959410" lon="10.587463">
        <ele>1518.128451</ele>
        <time>2024-08-23T08:52:51.000Z</time>
      </trkpt>
      <trkpt lat="46.959431" lon="10.587471">
        <ele>1518.384732</ele>
        <time>2024-08-23T08:52:52.000Z</time>
      </trkpt>
      <trkpt lat="46.959455" lon="10.587478">
        <ele>1518.673761</ele>
        <time>2024-08-23T08:52:53.000Z</time>
      </trkpt>
      <trkpt lat="46.959485" lon="10.587494">
        <ele>1519.047424</ele>
        <time>2024-08-23T08:52:54.000Z</time>
      </trkpt>
      <trkpt lat="46.959503" lon="10.587507">
        <ele>1519.278883</ele>
        <time>2024-08-23T08:52:55.000Z</time>
      </trkpt>
      <trkpt lat="46.959523" lon="10.587518">
        <ele>1519.525274</ele>
        <time>2024-08-23T08:52:56.000Z</time>
      </trkpt>
      <trkpt lat="46.959548" lon="10.587528">
        <ele>1519.824170</ele>
        <time>2024-08-23T08:52:57.000Z</time>
      </trkpt>
      <trkpt lat="46.959581" lon="10.587540">
        <ele>1520.216329</ele>
        <time>2024-08-23T08:52:58.000Z</time>
      </trkpt>
      <trkpt lat="46.959600" lon="10.587544">
        <ele>1520.437721</ele>
        <time>2024-08-23T08:52:59.000Z</time>
      </trkpt>
      <trkpt lat="46.959622" lon="10.587550">
        <ele>1520.695821</ele>
        <time>2024-08-23T08:53:00.000Z</time>
      </trkpt>
      <trkpt lat="46.959643" lon="10.587553">
        <ele>1520.939177</ele>
        <time>2024-08-23T08:53:01.000Z</time>
      </trkpt>
      <trkpt lat="46.959662" lon="10.587563">
        <ele>1521.172028</ele>
        <time>2024-08-23T08:53:02.000Z</time>
      </trkpt>
      <trkpt lat="46.959690" lon="10.587562">
        <ele>1521.495068</ele>
        <time>2024-08-23T08:53:03.000Z</time>
      </trkpt>
      <trkpt lat="46.959713" lon="10.587566">
        <ele>1521.762205</ele>
        <time>2024-08-23T08:53:04.000Z</time>
      </trkpt>
      <trkpt lat="46.959734" lon="10.587574">
        <ele>1522.012467</ele>
        <time>2024-08-23T08:53:05.000Z</time>
      </trkpt>
      <trkpt lat="46.959754" lon="10.587580">
        <ele>1522.247927</ele>
        <time>2024-08-23T08:53:06.000Z</time>
      </trkpt>
      <trkpt lat="46.959771" lon="10.587588">
        <ele>1522.453865</ele>
        <time>2024-08-23T08:53:07.000Z</time>
      </trkpt>
      <trkpt lat="46.959796" lon="10.587603">
        <ele>1522.765448</ele>
        <time>2024-08-23T08:53:08.000Z</time>
      </trkpt>
      <trkpt lat="46.959814" lon="10.587613">
        <ele>1522.987478</ele>
        <time>2024-08-23T08:53:09.000Z</time>
      </trkpt>
      <trkpt lat="46.959836" lon="10.587625">
        <ele>1523.258233</ele>
        <time>2024-08-23T08:53:10.000Z</time>
      </trkpt>
      <trkpt lat="46.959855" lon="10.587639">
        <ele>1523.503525</ele>
        <time>2024-08-23T08:53:11.000Z</time>
      </trkpt>
      <trkpt lat="46.959882" lon="10.587659">
        <ele>1523.852470</ele>
        <time>2024-08-23T08:53:12.000Z</time>
      </trkpt>
      <trkpt lat="46.959900" lon="10.587670">
        <ele>1524.077411</ele>
        <time>2024-08-23T08:53:13.000Z</time>
      </trkpt>
      <trkpt lat="46.959919" lon="10.587679">
        <ele>1524.307720</ele>
        <time>2024-08-23T08:53:14.000Z</time>
      </trkpt>
      <trkpt lat="46.959937" lon="10.587692">
        <ele>1524.539178</ele>
        <time>2024-08-23T08:53:15.000Z</time>
      </trkpt>
      <trkpt lat="46.959957" lon="10.587700">
        <ele>1524.778294</ele>
        <time>2024-08-23T08:53:16.000Z</time>
      </trkpt>
      <trkpt lat="46.959986" lon="10.587720">
        <ele>1525.147972</ele>
        <time>2024-08-23T08:53:17.000Z</time>
      </trkpt>
      <trkpt lat="46.960008" lon="10.587729">
        <ele>1525.411419</ele>
        <time>2024-08-23T08:53:18.000Z</time>
      </trkpt>
      <trkpt lat="46.960031" lon="10.587739">
        <ele>1525.688127</ele>
        <time>2024-08-23T08:53:19.000Z</time>
      </trkpt>
      <trkpt lat="46.960049" lon="10.587751">
        <ele>1525.916215</ele>
        <time>2024-08-23T08:53:20.000Z</time>
      </trkpt>
      <trkpt lat="46.960079" lon="10.587774">
        <ele>1526.306732</ele>
        <time>2024-08-23T08:53:21.000Z</time>
      </trkpt>
      <trkpt lat="46.960096" lon="10.587783">
        <ele>1526.515212</ele>
        <time>2024-08-23T08:53:22.000Z</time>
      </trkpt>
      <trkpt lat="46.960116" lon="10.587753">
        <ele>1526.845334</ele>
        <time>2024-08-23T08:53:23.000Z</time>
      </trkpt>
      <trkpt lat="46.960132" lon="10.587753">
        <ele>1527.029873</ele>
        <time>2024-08-23T08:53:24.000Z</time>
      </trkpt>
      <trkpt lat="46.960152" lon="10.587766">
        <ele>1527.282228</ele>
        <time>2024-08-23T08:53:25.000Z</time>
      </trkpt>
      <trkpt lat="46.960167" lon="10.587769">
        <ele>1527.456838</ele>
        <time>2024-08-23T08:53:26.000Z</time>
      </trkpt>
      <trkpt lat="46.960182" lon="10.587779">
        <ele>1527.646910</ele>
        <time>2024-08-23T08:53:27.000Z</time>
      </trkpt>
      <trkpt lat="46.960196" lon="10.587797">
        <ele>1527.861736</ele>
        <time>2024-08-23T08:53:28.000Z</time>
      </trkpt>
      <trkpt lat="46.960209" lon="10.587812">
        <ele>1528.052586</ele>
        <time>2024-08-23T08:53:29.000Z</time>
      </trkpt>
      <trkpt lat="46.960236" lon="10.587832">
        <ele>1528.401531</ele>
        <time>2024-08-23T08:53:30.000Z</time>
      </trkpt>
      <trkpt lat="46.960250" lon="10.587853">
        <ele>1528.632616</ele>
        <time>2024-08-23T08:53:31.000Z</time>
      </trkpt>
      <trkpt lat="46.960266" lon="10.587876">
        <ele>1528.891140</ele>
        <time>2024-08-23T08:53:32.000Z</time>
      </trkpt>
      <trkpt lat="46.960280" lon="10.587901">
        <ele>1529.145702</ele>
        <time>2024-08-23T08:53:33.000Z</time>
      </trkpt>
      <trkpt lat="46.960295" lon="10.587917">
        <ele>1529.359697</ele>
        <time>2024-08-23T08:53:34.000Z</time>
      </trkpt>
      <trkpt lat="46.960317" lon="10.587939">
        <ele>1529.666905</ele>
        <time>2024-08-23T08:53:35.000Z</time>
      </trkpt>
      <trkpt lat="46.960330" lon="10.587947">
        <ele>1529.829531</ele>
        <time>2024-08-23T08:53:36.000Z</time>
      </trkpt>
      <trkpt lat="46.960345" lon="10.587940">
        <ele>1530.011100</ele>
        <time>2024-08-23T08:53:37.000Z</time>
      </trkpt>
      <trkpt lat="46.960364" lon="10.587934">
        <ele>1530.235272</ele>
        <time>2024-08-23T08:53:38.000Z</time>
      </trkpt>
      <trkpt lat="46.960394" lon="10.587948">
        <ele>1530.598410</ele>
        <time>2024-08-23T08:53:39.000Z</time>
      </trkpt>
      <trkpt lat="46.960408" lon="10.587959">
        <ele>1530.781634</ele>
        <time>2024-08-23T08:53:40.000Z</time>
      </trkpt>
      <trkpt lat="46.960424" lon="10.587979">
        <ele>1531.024206</ele>
        <time>2024-08-23T08:53:41.000Z</time>
      </trkpt>
      <trkpt lat="46.960436" lon="10.587995">
        <ele>1531.211339</ele>
        <time>2024-08-23T08:53:42.000Z</time>
      </trkpt>
      <trkpt lat="46.960449" lon="10.588013">
        <ele>1531.417636</ele>
        <time>2024-08-23T08:53:43.000Z</time>
      </trkpt>
      <trkpt lat="46.960472" lon="10.588049">
        <ele>1531.805808</ele>
        <time>2024-08-23T08:53:44.000Z</time>
      </trkpt>
      <trkpt lat="46.960486" lon="10.588066">
        <ele>1532.015525</ele>
        <time>2024-08-23T08:53:45.000Z</time>
      </trkpt>
      <trkpt lat="46.960503" lon="10.588084">
        <ele>1532.257437</ele>
        <time>2024-08-23T08:53:46.000Z</time>
      </trkpt>
      <trkpt lat="46.960519" lon="10.588104">
        <ele>1532.500008</ele>
        <time>2024-08-23T08:53:47.000Z</time>
      </trkpt>
      <trkpt lat="46.960541" lon="10.588131">
        <ele>1532.831003</ele>
        <time>2024-08-23T08:53:48.000Z</time>
      </trkpt>
      <trkpt lat="46.960555" lon="10.588154">
        <ele>1533.073598</ele>
        <time>2024-08-23T08:53:49.000Z</time>
      </trkpt>
      <trkpt lat="46.960568" lon="10.588179">
        <ele>1533.321004</ele>
        <time>2024-08-23T08:53:50.000Z</time>
      </trkpt>
      <trkpt lat="46.960582" lon="10.588206">
        <ele>1533.587923</ele>
        <time>2024-08-23T08:53:51.000Z</time>
      </trkpt>
      <trkpt lat="46.960594" lon="10.588227">
        <ele>1533.803520</ele>
        <time>2024-08-23T08:53:52.000Z</time>
      </trkpt>
      <trkpt lat="46.960617" lon="10.588258">
        <ele>1534.163964</ele>
        <time>2024-08-23T08:53:53.000Z</time>
      </trkpt>
      <trkpt lat="46.960634" lon="10.588281">
        <ele>1534.430842</ele>
        <time>2024-08-23T08:53:54.000Z</time>
      </trkpt>
      <trkpt lat="46.960652" lon="10.588298">
        <ele>1534.677841</ele>
        <time>2024-08-23T08:53:55.000Z</time>
      </trkpt>
      <trkpt lat="46.960670" lon="10.588321">
        <ele>1534.953304</ele>
        <time>2024-08-23T08:53:56.000Z</time>
      </trkpt>
      <trkpt lat="46.960695" lon="10.588351">
        <ele>1535.326010</ele>
        <time>2024-08-23T08:53:57.000Z</time>
      </trkpt>
      <trkpt lat="46.960710" lon="10.588371">
        <ele>1535.559926</ele>
        <time>2024-08-23T08:53:58.000Z</time>
      </trkpt>
      <trkpt lat="46.960726" lon="10.588387">
        <ele>1535.783349</ele>
        <time>2024-08-23T08:53:59.000Z</time>
      </trkpt>
      <trkpt lat="46.960742" lon="10.588409">
        <ele>1536.036422</ele>
        <time>2024-08-23T08:54:00.000Z</time>
      </trkpt>
      <trkpt lat="46.960768" lon="10.588430">
        <ele>1536.378843</ele>
        <time>2024-08-23T08:54:01.000Z</time>
      </trkpt>
      <trkpt lat="46.960786" lon="10.588444">
        <ele>1536.613887</ele>
        <time>2024-08-23T08:54:02.000Z</time>
      </trkpt>
      <trkpt lat="46.960802" lon="10.588464">
        <ele>1536.856458</ele>
        <time>2024-08-23T08:54:03.000Z</time>
      </trkpt>
      <trkpt lat="46.960815" lon="10.588483">
        <ele>1537.068237</ele>
        <time>2024-08-23T08:54:04.000Z</time>
      </trkpt>
      <trkpt lat="46.960830" lon="10.588501">
        <ele>1537.291861</ele>
        <time>2024-08-23T08:54:05.000Z</time>
      </trkpt>
      <trkpt lat="46.960850" lon="10.588535">
        <ele>1537.645190</ele>
        <time>2024-08-23T08:54:06.000Z</time>
      </trkpt>
      <trkpt lat="46.960866" lon="10.588554">
        <ele>1537.882727</ele>
        <time>2024-08-23T08:54:07.000Z</time>
      </trkpt>
      <trkpt lat="46.960882" lon="10.588572">
        <ele>1538.115388</ele>
        <time>2024-08-23T08:54:08.000Z</time>
      </trkpt>
      <trkpt lat="46.960897" lon="10.588583">
        <ele>1538.308853</ele>
        <time>2024-08-23T08:54:09.000Z</time>
      </trkpt>
      <trkpt lat="46.960914" lon="10.588601">
        <ele>1538.550764</ele>
        <time>2024-08-23T08:54:10.000Z</time>
      </trkpt>
      <trkpt lat="46.960945" lon="10.588631">
        <ele>1538.979257</ele>
        <time>2024-08-23T08:54:11.000Z</time>
      </trkpt>
      <trkpt lat="46.960964" lon="10.588645">
        <ele>1539.224548</ele>
        <time>2024-08-23T08:54:12.000Z</time>
      </trkpt>
      <trkpt lat="46.960980" lon="10.588660">
        <ele>1539.443629</ele>
        <time>2024-08-23T08:54:13.000Z</time>
      </trkpt>
      <trkpt lat="46.960996" lon="10.588678">
        <ele>1539.678196</ele>
        <time>2024-08-23T08:54:14.000Z</time>
      </trkpt>
      <trkpt lat="46.961022" lon="10.588702">
        <ele>1540.058781</ele>
        <time>2024-08-23T08:54:15.000Z</time>
      </trkpt>
      <trkpt lat="46.961040" lon="10.588719">
        <ele>1540.324010</ele>
        <time>2024-08-23T08:54:16.000Z</time>
      </trkpt>
      <trkpt lat="46.961059" lon="10.588737">
        <ele>1540.604229</ele>
        <time>2024-08-23T08:54:17.000Z</time>
      </trkpt>
      <trkpt lat="46.961076" lon="10.588751">
        <ele>1540.845751</ele>
        <time>2024-08-23T08:54:18.000Z</time>
      </trkpt>
      <trkpt lat="46.961096" lon="10.588759">
        <ele>1541.102515</ele>
        <time>2024-08-23T08:54:19.000Z</time>
      </trkpt>
      <trkpt lat="46.961123" lon="10.588778">
        <ele>1541.473477</ele>
        <time>2024-08-23T08:54:20.000Z</time>
      </trkpt>
      <trkpt lat="46.961140" lon="10.588789">
        <ele>1541.703639</ele>
        <time>2024-08-23T08:54:21.000Z</time>
      </trkpt>
      <trkpt lat="46.961157" lon="10.588798">
        <ele>1541.927506</ele>
        <time>2024-08-23T08:54:22.000Z</time>
      </trkpt>
      <trkpt lat="46.961170" lon="10.588809">
        <ele>1542.113431</ele>
        <time>2024-08-23T08:54:23.000Z</time>
      </trkpt>
      <trkpt lat="46.961191" lon="10.588825">
        <ele>1542.406577</ele>
        <time>2024-08-23T08:54:24.000Z</time>
      </trkpt>
      <trkpt lat="46.961208" lon="10.588833">
        <ele>1542.627715</ele>
        <time>2024-08-23T08:54:25.000Z</time>
      </trkpt>
      <trkpt lat="46.961224" lon="10.588842">
        <ele>1542.839976</ele>
        <time>2024-08-23T08:54:26.000Z</time>
      </trkpt>
      <trkpt lat="46.961240" lon="10.588853">
        <ele>1543.058865</ele>
        <time>2024-08-23T08:54:27.000Z</time>
      </trkpt>
      <trkpt lat="46.961255" lon="10.588874">
        <ele>1543.315810</ele>
        <time>2024-08-23T08:54:28.000Z</time>
      </trkpt>
      <trkpt lat="46.961280" lon="10.588903">
        <ele>1543.710722</ele>
        <time>2024-08-23T08:54:29.000Z</time>
      </trkpt>
      <trkpt lat="46.961299" lon="10.588918">
        <ele>1543.978021</ele>
        <time>2024-08-23T08:54:30.000Z</time>
      </trkpt>
      <trkpt lat="46.961316" lon="10.588944">
        <ele>1544.282369</ele>
        <time>2024-08-23T08:54:31.000Z</time>
      </trkpt>
      <trkpt lat="46.961333" lon="10.588954">
        <ele>1544.509248</ele>
        <time>2024-08-23T08:54:32.000Z</time>
      </trkpt>
      <trkpt lat="46.961359" lon="10.588982">
        <ele>1544.908880</ele>
        <time>2024-08-23T08:54:33.000Z</time>
      </trkpt>
      <trkpt lat="46.961377" lon="10.589005">
        <ele>1545.204672</ele>
        <time>2024-08-23T08:54:34.000Z</time>
      </trkpt>
      <trkpt lat="46.961394" lon="10.589026">
        <ele>1545.480059</ele>
        <time>2024-08-23T08:54:35.000Z</time>
      </trkpt>
      <trkpt lat="46.961410" lon="10.589047">
        <ele>1545.746096</ele>
        <time>2024-08-23T08:54:36.000Z</time>
      </trkpt>
      <trkpt lat="46.961424" lon="10.589070">
        <ele>1546.006595</ele>
        <time>2024-08-23T08:54:37.000Z</time>
      </trkpt>
      <trkpt lat="46.961447" lon="10.589103">
        <ele>1546.405278</ele>
        <time>2024-08-23T08:54:38.000Z</time>
      </trkpt>
      <trkpt lat="46.961461" lon="10.589126">
        <ele>1546.665777</ele>
        <time>2024-08-23T08:54:39.000Z</time>
      </trkpt>
      <trkpt lat="46.961472" lon="10.589146">
        <ele>1546.882892</ele>
        <time>2024-08-23T08:54:40.000Z</time>
      </trkpt>
      <trkpt lat="46.961484" lon="10.589168">
        <ele>1547.120943</ele>
        <time>2024-08-23T08:54:41.000Z</time>
      </trkpt>
      <trkpt lat="46.961507" lon="10.589198">
        <ele>1547.502315</ele>
        <time>2024-08-23T08:54:42.000Z</time>
      </trkpt>
      <trkpt lat="46.961521" lon="10.589216">
        <ele>1547.732994</ele>
        <time>2024-08-23T08:54:43.000Z</time>
      </trkpt>
      <trkpt lat="46.961534" lon="10.589230">
        <ele>1547.932810</ele>
        <time>2024-08-23T08:54:44.000Z</time>
      </trkpt>
      <trkpt lat="46.961544" lon="10.589246">
        <ele>1548.116193</ele>
        <time>2024-08-23T08:54:45.000Z</time>
      </trkpt>
      <trkpt lat="46.961558" lon="10.589267">
        <ele>1548.364330</ele>
        <time>2024-08-23T08:54:46.000Z</time>
      </trkpt>
      <trkpt lat="46.961567" lon="10.589280">
        <ele>1548.520851</ele>
        <time>2024-08-23T08:54:47.000Z</time>
      </trkpt>
      <trkpt lat="46.961577" lon="10.589294">
        <ele>1548.692148</ele>
        <time>2024-08-23T08:54:48.000Z</time>
      </trkpt>
      <trkpt lat="46.961590" lon="10.589309">
        <ele>1548.897082</ele>
        <time>2024-08-23T08:54:49.000Z</time>
      </trkpt>
      <trkpt lat="46.961603" lon="10.589321">
        <ele>1549.087374</ele>
        <time>2024-08-23T08:54:50.000Z</time>
      </trkpt>
      <trkpt lat="46.961624" lon="10.589337">
        <ele>1549.380520</ele>
        <time>2024-08-23T08:54:51.000Z</time>
      </trkpt>
      <trkpt lat="46.961639" lon="10.589353">
        <ele>1549.610309</ele>
        <time>2024-08-23T08:54:52.000Z</time>
      </trkpt>
      <trkpt lat="46.961653" lon="10.589368">
        <ele>1549.825110</ele>
        <time>2024-08-23T08:54:53.000Z</time>
      </trkpt>
      <trkpt lat="46.961668" lon="10.589385">
        <ele>1550.059972</ele>
        <time>2024-08-23T08:54:54.000Z</time>
      </trkpt>
      <trkpt lat="46.961680" lon="10.589403">
        <ele>1550.272661</ele>
        <time>2024-08-23T08:54:55.000Z</time>
      </trkpt>
      <trkpt lat="46.961707" lon="10.589437">
        <ele>1550.713584</ele>
        <time>2024-08-23T08:54:56.000Z</time>
      </trkpt>
      <trkpt lat="46.961722" lon="10.589454">
        <ele>1550.948446</ele>
        <time>2024-08-23T08:54:57.000Z</time>
      </trkpt>
      <trkpt lat="46.961738" lon="10.589472">
        <ele>1551.198278</ele>
        <time>2024-08-23T08:54:58.000Z</time>
      </trkpt>
      <trkpt lat="46.961752" lon="10.589493">
        <ele>1551.446415</ele>
        <time>2024-08-23T08:54:59.000Z</time>
      </trkpt>
      <trkpt lat="46.961774" lon="10.589523">
        <ele>1551.818627</ele>
        <time>2024-08-23T08:55:00.000Z</time>
      </trkpt>
      <trkpt lat="46.961787" lon="10.589545">
        <ele>1552.064600</ele>
        <time>2024-08-23T08:55:01.000Z</time>
      </trkpt>
      <trkpt lat="46.961802" lon="10.589568">
        <ele>1552.333500</ele>
        <time>2024-08-23T08:55:02.000Z</time>
      </trkpt>
      <trkpt lat="46.961817" lon="10.589588">
        <ele>1552.584679</ele>
        <time>2024-08-23T08:55:03.000Z</time>
      </trkpt>
      <trkpt lat="46.961831" lon="10.589603">
        <ele>1552.799480</ele>
        <time>2024-08-23T08:55:04.000Z</time>
      </trkpt>
      <trkpt lat="46.961852" lon="10.589635">
        <ele>1553.174720</ele>
        <time>2024-08-23T08:55:05.000Z</time>
      </trkpt>
      <trkpt lat="46.961865" lon="10.589656">
        <ele>1553.414367</ele>
        <time>2024-08-23T08:55:06.000Z</time>
      </trkpt>
      <trkpt lat="46.961879" lon="10.589676">
        <ele>1553.656529</ele>
        <time>2024-08-23T08:55:07.000Z</time>
      </trkpt>
      <trkpt lat="46.961893" lon="10.589697">
        <ele>1553.904665</ele>
        <time>2024-08-23T08:55:08.000Z</time>
      </trkpt>
      <trkpt lat="46.961912" lon="10.589731">
        <ele>1554.276101</ele>
        <time>2024-08-23T08:55:09.000Z</time>
      </trkpt>
      <trkpt lat="46.961924" lon="10.589749">
        <ele>1554.488790</ele>
        <time>2024-08-23T08:55:10.000Z</time>
      </trkpt>
      <trkpt lat="46.961938" lon="10.589766">
        <ele>1554.713983</ele>
        <time>2024-08-23T08:55:11.000Z</time>
      </trkpt>
      <trkpt lat="46.961950" lon="10.589788">
        <ele>1554.952033</ele>
        <time>2024-08-23T08:55:12.000Z</time>
      </trkpt>
      <trkpt lat="46.961961" lon="10.589812">
        <ele>1555.196395</ele>
        <time>2024-08-23T08:55:13.000Z</time>
      </trkpt>
      <trkpt lat="46.961978" lon="10.589841">
        <ele>1555.519528</ele>
        <time>2024-08-23T08:55:14.000Z</time>
      </trkpt>
      <trkpt lat="46.961990" lon="10.589860">
        <ele>1555.738343</ele>
        <time>2024-08-23T08:55:15.000Z</time>
      </trkpt>
      <trkpt lat="46.962002" lon="10.589881">
        <ele>1555.969850</ele>
        <time>2024-08-23T08:55:16.000Z</time>
      </trkpt>
      <trkpt lat="46.962012" lon="10.589904">
        <ele>1556.200357</ele>
        <time>2024-08-23T08:55:17.000Z</time>
      </trkpt>
      <trkpt lat="46.962032" lon="10.589934">
        <ele>1556.554838</ele>
        <time>2024-08-23T08:55:18.000Z</time>
      </trkpt>
      <trkpt lat="46.962048" lon="10.589955">
        <ele>1556.820873</ele>
        <time>2024-08-23T08:55:19.000Z</time>
      </trkpt>
      <trkpt lat="46.962056" lon="10.589980">
        <ele>1557.054262</ele>
        <time>2024-08-23T08:55:20.000Z</time>
      </trkpt>
      <trkpt lat="46.962066" lon="10.590006">
        <ele>1557.306524</ele>
        <time>2024-08-23T08:55:21.000Z</time>
      </trkpt>
      <trkpt lat="46.962078" lon="10.590029">
        <ele>1557.551233</ele>
        <time>2024-08-23T08:55:22.000Z</time>
      </trkpt>
      <trkpt lat="46.962097" lon="10.590066">
        <ele>1557.942618</ele>
        <time>2024-08-23T08:55:23.000Z</time>
      </trkpt>
      <trkpt lat="46.962110" lon="10.590090">
        <ele>1558.201607</ele>
        <time>2024-08-23T08:55:24.000Z</time>
      </trkpt>
      <trkpt lat="46.962122" lon="10.590113">
        <ele>1558.446316</ele>
        <time>2024-08-23T08:55:25.000Z</time>
      </trkpt>
      <trkpt lat="46.962133" lon="10.590136">
        <ele>1558.683707</ele>
        <time>2024-08-23T08:55:26.000Z</time>
      </trkpt>
      <trkpt lat="46.962151" lon="10.590171">
        <ele>1559.054137</ele>
        <time>2024-08-23T08:55:27.000Z</time>
      </trkpt>
      <trkpt lat="46.962164" lon="10.590190">
        <ele>1559.281545</ele>
        <time>2024-08-23T08:55:28.000Z</time>
      </trkpt>
      <trkpt lat="46.962178" lon="10.590206">
        <ele>1559.501440</ele>
        <time>2024-08-23T08:55:29.000Z</time>
      </trkpt>
      <trkpt lat="46.962191" lon="10.590226">
        <ele>1559.734894</ele>
        <time>2024-08-23T08:55:30.000Z</time>
      </trkpt>
      <trkpt lat="46.962211" lon="10.590254">
        <ele>1560.077485</ele>
        <time>2024-08-23T08:55:31.000Z</time>
      </trkpt>
      <trkpt lat="46.962223" lon="10.590268">
        <ele>1560.267462</ele>
        <time>2024-08-23T08:55:32.000Z</time>
      </trkpt>
      <trkpt lat="46.962233" lon="10.590289">
        <ele>1560.483901</ele>
        <time>2024-08-23T08:55:33.000Z</time>
      </trkpt>
      <trkpt lat="46.962235" lon="10.590301">
        <ele>1560.588312</ele>
        <time>2024-08-23T08:55:34.000Z</time>
      </trkpt>
      <trkpt lat="46.962295" lon="10.590354">
        <ele>1561.456003</ele>
        <time>2024-08-23T08:56:06.000Z</time>
      </trkpt>
      <trkpt lat="46.962316" lon="10.590380">
        <ele>1561.796504</ele>
        <time>2024-08-23T08:56:07.000Z</time>
      </trkpt>
      <trkpt lat="46.962332" lon="10.590401">
        <ele>1562.086322</ele>
        <time>2024-08-23T08:56:08.000Z</time>
      </trkpt>
      <trkpt lat="46.962348" lon="10.590427">
        <ele>1562.434031</ele>
        <time>2024-08-23T08:56:09.000Z</time>
      </trkpt>
      <trkpt lat="46.962361" lon="10.590461">
        <ele>1562.821104</ele>
        <time>2024-08-23T08:56:10.000Z</time>
      </trkpt>
      <trkpt lat="46.962376" lon="10.590495">
        <ele>1563.223206</ele>
        <time>2024-08-23T08:56:11.000Z</time>
      </trkpt>
      <trkpt lat="46.962396" lon="10.590547">
        <ele>1563.816038</ele>
        <time>2024-08-23T08:56:12.000Z</time>
      </trkpt>
      <trkpt lat="46.962410" lon="10.590581">
        <ele>1564.210429</ele>
        <time>2024-08-23T08:56:13.000Z</time>
      </trkpt>
      <trkpt lat="46.962422" lon="10.590616">
        <ele>1564.599450</ele>
        <time>2024-08-23T08:56:14.000Z</time>
      </trkpt>
      <trkpt lat="46.962431" lon="10.590656">
        <ele>1565.017763</ele>
        <time>2024-08-23T08:56:15.000Z</time>
      </trkpt>
      <trkpt lat="46.962437" lon="10.590707">
        <ele>1565.531767</ele>
        <time>2024-08-23T08:56:16.000Z</time>
      </trkpt>
      <trkpt lat="46.962442" lon="10.590742">
        <ele>1565.886921</ele>
        <time>2024-08-23T08:56:17.000Z</time>
      </trkpt>
      <trkpt lat="46.962453" lon="10.590780">
        <ele>1566.296884</ele>
        <time>2024-08-23T08:56:18.000Z</time>
      </trkpt>
      <trkpt lat="46.962462" lon="10.590821">
        <ele>1566.724641</ele>
        <time>2024-08-23T08:56:19.000Z</time>
      </trkpt>
      <trkpt lat="46.962472" lon="10.590865">
        <ele>1567.185244</ele>
        <time>2024-08-23T08:56:20.000Z</time>
      </trkpt>
      <trkpt lat="46.962487" lon="10.590929">
        <ele>1567.857331</ele>
        <time>2024-08-23T08:56:21.000Z</time>
      </trkpt>
      <trkpt lat="46.962501" lon="10.590969">
        <ele>1568.303808</ele>
        <time>2024-08-23T08:56:22.000Z</time>
      </trkpt>
      <trkpt lat="46.962515" lon="10.591011">
        <ele>1568.768048</ele>
        <time>2024-08-23T08:56:23.000Z</time>
      </trkpt>
      <trkpt lat="46.962530" lon="10.591051">
        <ele>1569.221351</ele>
        <time>2024-08-23T08:56:24.000Z</time>
      </trkpt>
      <trkpt lat="46.962543" lon="10.591089">
        <ele>1569.643529</ele>
        <time>2024-08-23T08:56:25.000Z</time>
      </trkpt>
      <trkpt lat="46.962569" lon="10.591147">
        <ele>1570.332737</ele>
        <time>2024-08-23T08:56:26.000Z</time>
      </trkpt>
      <trkpt lat="46.962588" lon="10.591187">
        <ele>1570.816767</ele>
        <time>2024-08-23T08:56:27.000Z</time>
      </trkpt>
      <trkpt lat="46.962606" lon="10.591224">
        <ele>1571.268057</ele>
        <time>2024-08-23T08:56:28.000Z</time>
      </trkpt>
      <trkpt lat="46.962623" lon="10.591261">
        <ele>1571.711059</ele>
        <time>2024-08-23T08:56:29.000Z</time>
      </trkpt>
      <trkpt lat="46.962651" lon="10.591313">
        <ele>1572.368914</ele>
        <time>2024-08-23T08:56:30.000Z</time>
      </trkpt>
      <trkpt lat="46.962670" lon="10.591348">
        <ele>1572.813092</ele>
        <time>2024-08-23T08:56:31.000Z</time>
      </trkpt>
      <trkpt lat="46.962690" lon="10.591380">
        <ele>1573.244051</ele>
        <time>2024-08-23T08:56:32.000Z</time>
      </trkpt>
      <trkpt lat="46.962711" lon="10.591406">
        <ele>1573.644152</ele>
        <time>2024-08-23T08:56:33.000Z</time>
      </trkpt>
      <trkpt lat="46.962732" lon="10.591433">
        <ele>1574.050734</ele>
        <time>2024-08-23T08:56:34.000Z</time>
      </trkpt>
      <trkpt lat="46.962765" lon="10.591465">
        <ele>1574.626622</ele>
        <time>2024-08-23T08:56:35.000Z</time>
      </trkpt>
      <trkpt lat="46.962789" lon="10.591487">
        <ele>1575.038608</ele>
        <time>2024-08-23T08:56:36.000Z</time>
      </trkpt>
      <trkpt lat="46.962808" lon="10.591507">
        <ele>1575.379066</ele>
        <time>2024-08-23T08:56:37.000Z</time>
      </trkpt>
      <trkpt lat="46.962824" lon="10.591531">
        <ele>1575.712287</ele>
        <time>2024-08-23T08:56:38.000Z</time>
      </trkpt>
      <trkpt lat="46.962839" lon="10.591565">
        <ele>1576.114386</ele>
        <time>2024-08-23T08:56:39.000Z</time>
      </trkpt>
      <trkpt lat="46.962842" lon="10.591582">
        <ele>1576.288782</ele>
        <time>2024-08-23T08:56:40.000Z</time>
      </trkpt>
      <trkpt lat="46.962844" lon="10.591593">
        <ele>1576.401844</ele>
        <time>2024-08-23T08:56:41.000Z</time>
      </trkpt>
      <trkpt lat="46.962845" lon="10.591592">
        <ele>1576.419463</ele>
        <time>2024-08-23T08:56:42.000Z</time>
      </trkpt>
      <trkpt lat="46.962847" lon="10.591593">
        <ele>1576.450217</ele>
        <time>2024-08-23T08:56:42.000Z</time>
      </trkpt>
      <trkpt lat="46.962883" lon="10.591635">
        <ele>1577.119904</ele>
        <time>2024-08-23T08:57:12.000Z</time>
      </trkpt>
      <trkpt lat="46.962886" lon="10.591639">
        <ele>1577.178933</ele>
        <time>2024-08-23T08:57:13.000Z</time>
      </trkpt>
      <trkpt lat="46.962888" lon="10.591647">
        <ele>1577.263552</ele>
        <time>2024-08-23T08:57:14.000Z</time>
      </trkpt>
      <trkpt lat="46.962936" lon="10.591713">
        <ele>1578.221489</ele>
        <time>2024-08-23T08:59:25.000Z</time>
      </trkpt>
      <trkpt lat="46.962954" lon="10.591713">
        <ele>1578.483441</ele>
        <time>2024-08-23T08:59:26.000Z</time>
      </trkpt>
      <trkpt lat="46.962963" lon="10.591717">
        <ele>1578.620309</ele>
        <time>2024-08-23T08:59:27.000Z</time>
      </trkpt>
      <trkpt lat="46.962968" lon="10.591725">
        <ele>1578.728049</ele>
        <time>2024-08-23T08:59:28.000Z</time>
      </trkpt>
      <trkpt lat="46.962969" lon="10.591736">
        <ele>1578.838265</ele>
        <time>2024-08-23T08:59:29.000Z</time>
      </trkpt>
      <trkpt lat="46.962967" lon="10.591740">
        <ele>1578.887514</ele>
        <time>2024-08-23T08:59:30.000Z</time>
      </trkpt>
      <trkpt lat="46.962966" lon="10.591740">
        <ele>1578.902067</ele>
        <time>2024-08-23T08:59:31.000Z</time>
      </trkpt>
      <trkpt lat="46.962924" lon="10.591791">
        <ele>1579.695893</ele>
        <time>2024-08-23T09:01:45.000Z</time>
      </trkpt>
      <trkpt lat="46.962917" lon="10.591824">
        <ele>1580.039113</ele>
        <time>2024-08-23T09:01:46.000Z</time>
      </trkpt>
      <trkpt lat="46.962909" lon="10.591863">
        <ele>1580.443576</ele>
        <time>2024-08-23T09:01:47.000Z</time>
      </trkpt>
      <trkpt lat="46.962905" lon="10.591905">
        <ele>1580.864759</ele>
        <time>2024-08-23T09:01:48.000Z</time>
      </trkpt>
      <trkpt lat="46.962901" lon="10.591949">
        <ele>1581.305624</ele>
        <time>2024-08-23T09:01:49.000Z</time>
      </trkpt>
      <trkpt lat="46.962892" lon="10.592020">
        <ele>1582.022851</ele>
        <time>2024-08-23T09:01:50.000Z</time>
      </trkpt>
      <trkpt lat="46.962889" lon="10.592066">
        <ele>1582.481801</ele>
        <time>2024-08-23T09:01:51.000Z</time>
      </trkpt>
      <trkpt lat="46.962887" lon="10.592110">
        <ele>1582.919774</ele>
        <time>2024-08-23T09:01:52.000Z</time>
      </trkpt>
      <trkpt lat="46.962886" lon="10.592152">
        <ele>1583.337169</ele>
        <time>2024-08-23T09:01:53.000Z</time>
      </trkpt>
      <trkpt lat="46.962885" lon="10.592193">
        <ele>1583.744638</ele>
        <time>2024-08-23T09:01:54.000Z</time>
      </trkpt>
      <trkpt lat="46.962885" lon="10.592249">
        <ele>1584.300826</ele>
        <time>2024-08-23T09:01:55.000Z</time>
      </trkpt>
      <trkpt lat="46.962888" lon="10.592282">
        <ele>1584.631475</ele>
        <time>2024-08-23T09:01:56.000Z</time>
      </trkpt>
      <trkpt lat="46.962895" lon="10.592315">
        <ele>1584.974695</ele>
        <time>2024-08-23T09:01:57.000Z</time>
      </trkpt>
      <trkpt lat="46.962900" lon="10.592346">
        <ele>1585.291066</ele>
        <time>2024-08-23T09:01:58.000Z</time>
      </trkpt>
      <trkpt lat="46.962907" lon="10.592400">
        <ele>1585.836979</ele>
        <time>2024-08-23T09:01:59.000Z</time>
      </trkpt>
      <trkpt lat="46.962913" lon="10.592434">
        <ele>1586.185771</ele>
        <time>2024-08-23T09:02:00.000Z</time>
      </trkpt>
      <trkpt lat="46.962918" lon="10.592468">
        <ele>1586.531207</ele>
        <time>2024-08-23T09:02:01.000Z</time>
      </trkpt>
      <trkpt lat="46.962927" lon="10.592500">
        <ele>1586.874958</ele>
        <time>2024-08-23T09:02:02.000Z</time>
      </trkpt>
      <trkpt lat="46.962943" lon="10.592546">
        <ele>1587.387741</ele>
        <time>2024-08-23T09:02:03.000Z</time>
      </trkpt>
      <trkpt lat="46.962951" lon="10.592574">
        <ele>1587.689221</ele>
        <time>2024-08-23T09:02:04.000Z</time>
      </trkpt>
      <trkpt lat="46.962960" lon="10.592599">
        <ele>1587.969946</ele>
        <time>2024-08-23T09:02:05.000Z</time>
      </trkpt>
      <trkpt lat="46.962968" lon="10.592625">
        <ele>1588.187167</ele>
        <time>2024-08-23T09:02:06.000Z</time>
      </trkpt>
      <trkpt lat="46.962976" lon="10.592651">
        <ele>1588.346637</ele>
        <time>2024-08-23T09:02:07.000Z</time>
      </trkpt>
      <trkpt lat="46.962994" lon="10.592683">
        <ele>1588.578504</ele>
        <time>2024-08-23T09:02:08.000Z</time>
      </trkpt>
      <trkpt lat="46.963006" lon="10.592706">
        <ele>1588.740382</ele>
        <time>2024-08-23T09:02:09.000Z</time>
      </trkpt>
      <trkpt lat="46.963017" lon="10.592733">
        <ele>1588.916204</ele>
        <time>2024-08-23T09:02:10.000Z</time>
      </trkpt>
      <trkpt lat="46.963028" lon="10.592761">
        <ele>1589.096850</ele>
        <time>2024-08-23T09:02:11.000Z</time>
      </trkpt>
      <trkpt lat="46.963045" lon="10.592799">
        <ele>1589.350905</ele>
        <time>2024-08-23T09:02:12.000Z</time>
      </trkpt>
      <trkpt lat="46.963058" lon="10.592824">
        <ele>1589.526643</ele>
        <time>2024-08-23T09:02:13.000Z</time>
      </trkpt>
      <trkpt lat="46.963070" lon="10.592850">
        <ele>1589.702143</ele>
        <time>2024-08-23T09:02:14.000Z</time>
      </trkpt>
      <trkpt lat="46.963082" lon="10.592877">
        <ele>1589.882302</ele>
        <time>2024-08-23T09:02:15.000Z</time>
      </trkpt>
      <trkpt lat="46.963097" lon="10.592903">
        <ele>1590.072663</ele>
        <time>2024-08-23T09:02:16.000Z</time>
      </trkpt>
      <trkpt lat="46.963116" lon="10.592944">
        <ele>1590.349766</ele>
        <time>2024-08-23T09:02:17.000Z</time>
      </trkpt>
      <trkpt lat="46.963129" lon="10.592970">
        <ele>1590.529984</ele>
        <time>2024-08-23T09:02:18.000Z</time>
      </trkpt>
      <trkpt lat="46.963143" lon="10.592996">
        <ele>1590.715161</ele>
        <time>2024-08-23T09:02:19.000Z</time>
      </trkpt>
      <trkpt lat="46.963159" lon="10.593020">
        <ele>1590.902755</ele>
        <time>2024-08-23T09:02:20.000Z</time>
      </trkpt>
      <trkpt lat="46.963180" lon="10.593051">
        <ele>1591.146981</ele>
        <time>2024-08-23T09:02:21.000Z</time>
      </trkpt>
      <trkpt lat="46.963193" lon="10.593074">
        <ele>1591.313961</ele>
        <time>2024-08-23T09:02:22.000Z</time>
      </trkpt>
      <trkpt lat="46.963206" lon="10.593097">
        <ele>1591.480942</ele>
        <time>2024-08-23T09:02:23.000Z</time>
      </trkpt>
      <trkpt lat="46.963221" lon="10.593120">
        <ele>1591.658822</ele>
        <time>2024-08-23T09:02:24.000Z</time>
      </trkpt>
      <trkpt lat="46.963236" lon="10.593145">
        <ele>1591.844948</ele>
        <time>2024-08-23T09:02:25.000Z</time>
      </trkpt>
      <trkpt lat="46.963258" lon="10.593181">
        <ele>1592.115143</ele>
        <time>2024-08-23T09:02:26.000Z</time>
      </trkpt>
      <trkpt lat="46.963275" lon="10.593202">
        <ele>1592.297314</ele>
        <time>2024-08-23T09:02:27.000Z</time>
      </trkpt>
      <trkpt lat="46.963293" lon="10.593222">
        <ele>1592.482391</ele>
        <time>2024-08-23T09:02:28.000Z</time>
      </trkpt>
      <trkpt lat="46.963310" lon="10.593243">
        <ele>1592.664561</ele>
        <time>2024-08-23T09:02:29.000Z</time>
      </trkpt>
      <trkpt lat="46.963330" lon="10.593278">
        <ele>1592.919802</ele>
        <time>2024-08-23T09:02:30.000Z</time>
      </trkpt>
      <trkpt lat="46.963342" lon="10.593301">
        <ele>1593.081679</ele>
        <time>2024-08-23T09:02:31.000Z</time>
      </trkpt>
      <trkpt lat="46.963352" lon="10.593324">
        <ele>1593.234161</ele>
        <time>2024-08-23T09:02:32.000Z</time>
      </trkpt>
      <trkpt lat="46.963366" lon="10.593345">
        <ele>1593.398306</ele>
        <time>2024-08-23T09:02:33.000Z</time>
      </trkpt>
      <trkpt lat="46.963379" lon="10.593370">
        <ele>1593.574043</ele>
        <time>2024-08-23T09:02:34.000Z</time>
      </trkpt>
      <trkpt lat="46.963399" lon="10.593404">
        <ele>1593.825022</ele>
        <time>2024-08-23T09:02:35.000Z</time>
      </trkpt>
      <trkpt lat="46.963411" lon="10.593427">
        <ele>1593.986899</ele>
        <time>2024-08-23T09:02:36.000Z</time>
      </trkpt>
      <trkpt lat="46.963427" lon="10.593454">
        <ele>1594.186836</ele>
        <time>2024-08-23T09:02:37.000Z</time>
      </trkpt>
      <trkpt lat="46.963443" lon="10.593477">
        <ele>1594.370472</ele>
        <time>2024-08-23T09:02:38.000Z</time>
      </trkpt>
      <trkpt lat="46.963458" lon="10.593503">
        <ele>1594.560832</ele>
        <time>2024-08-23T09:02:39.000Z</time>
      </trkpt>
      <trkpt lat="46.963481" lon="10.593542">
        <ele>1594.849034</ele>
        <time>2024-08-23T09:02:40.000Z</time>
      </trkpt>
      <trkpt lat="46.963498" lon="10.593566">
        <ele>1595.042441</ele>
        <time>2024-08-23T09:02:41.000Z</time>
      </trkpt>
      <trkpt lat="46.963514" lon="10.593589">
        <ele>1595.226077</ele>
        <time>2024-08-23T09:02:42.000Z</time>
      </trkpt>
      <trkpt lat="46.963532" lon="10.593615">
        <ele>1595.433157</ele>
        <time>2024-08-23T09:02:43.000Z</time>
      </trkpt>
      <trkpt lat="46.963560" lon="10.593650">
        <ele>1595.734691</ele>
        <time>2024-08-23T09:02:44.000Z</time>
      </trkpt>
      <trkpt lat="46.963580" lon="10.593670">
        <ele>1595.933072</ele>
        <time>2024-08-23T09:02:45.000Z</time>
      </trkpt>
      <trkpt lat="46.963599" lon="10.593692">
        <ele>1596.131473</ele>
        <time>2024-08-23T09:02:46.000Z</time>
      </trkpt>
      <trkpt lat="46.963618" lon="10.593716">
        <ele>1596.336995</ele>
        <time>2024-08-23T09:02:47.000Z</time>
      </trkpt>
      <trkpt lat="46.963636" lon="10.593741">
        <ele>1596.540189</ele>
        <time>2024-08-23T09:02:48.000Z</time>
      </trkpt>
      <trkpt lat="46.963663" lon="10.593777">
        <ele>1596.839272</ele>
        <time>2024-08-23T09:02:49.000Z</time>
      </trkpt>
      <trkpt lat="46.963681" lon="10.593803">
        <ele>1597.046352</ele>
        <time>2024-08-23T09:02:50.000Z</time>
      </trkpt>
      <trkpt lat="46.963698" lon="10.593829">
        <ele>1597.247679</ele>
        <time>2024-08-23T09:02:51.000Z</time>
      </trkpt>
      <trkpt lat="46.963715" lon="10.593855">
        <ele>1597.449006</ele>
        <time>2024-08-23T09:02:52.000Z</time>
      </trkpt>
      <trkpt lat="46.963741" lon="10.593898">
        <ele>1597.770225</ele>
        <time>2024-08-23T09:02:53.000Z</time>
      </trkpt>
      <trkpt lat="46.963759" lon="10.593927">
        <ele>1597.989406</ele>
        <time>2024-08-23T09:02:54.000Z</time>
      </trkpt>
      <trkpt lat="46.963776" lon="10.593954">
        <ele>1598.194807</ele>
        <time>2024-08-23T09:02:55.000Z</time>
      </trkpt>
      <trkpt lat="46.963792" lon="10.593980">
        <ele>1598.390556</ele>
        <time>2024-08-23T09:02:56.000Z</time>
      </trkpt>
      <trkpt lat="46.963818" lon="10.594025">
        <ele>1598.720227</ele>
        <time>2024-08-23T09:02:57.000Z</time>
      </trkpt>
      <trkpt lat="46.963839" lon="10.594055">
        <ele>1598.960515</ele>
        <time>2024-08-23T09:02:58.000Z</time>
      </trkpt>
      <trkpt lat="46.963859" lon="10.594088">
        <ele>1599.207284</ele>
        <time>2024-08-23T09:02:59.000Z</time>
      </trkpt>
      <trkpt lat="46.963879" lon="10.594124">
        <ele>1599.466835</ele>
        <time>2024-08-23T09:03:00.000Z</time>
      </trkpt>
      <trkpt lat="46.963899" lon="10.594156">
        <ele>1599.709451</ele>
        <time>2024-08-23T09:03:01.000Z</time>
      </trkpt>
      <trkpt lat="46.963927" lon="10.594205">
        <ele>1600.066785</ele>
        <time>2024-08-23T09:03:02.000Z</time>
      </trkpt>
      <trkpt lat="46.963944" lon="10.594239">
        <ele>1600.302452</ele>
        <time>2024-08-23T09:03:03.000Z</time>
      </trkpt>
      <trkpt lat="46.963960" lon="10.594274">
        <ele>1600.537995</ele>
        <time>2024-08-23T09:03:04.000Z</time>
      </trkpt>
      <trkpt lat="46.963974" lon="10.594311">
        <ele>1600.774543</ele>
        <time>2024-08-23T09:03:05.000Z</time>
      </trkpt>
      <trkpt lat="46.963996" lon="10.594363">
        <ele>1601.116629</ele>
        <time>2024-08-23T09:03:06.000Z</time>
      </trkpt>
      <trkpt lat="46.964010" lon="10.594395">
        <ele>1601.329160</ele>
        <time>2024-08-23T09:03:07.000Z</time>
      </trkpt>
      <trkpt lat="46.964025" lon="10.594431">
        <ele>1601.564998</ele>
        <time>2024-08-23T09:03:08.000Z</time>
      </trkpt>
      <trkpt lat="46.964039" lon="10.594466">
        <ele>1601.791831</ele>
        <time>2024-08-23T09:03:09.000Z</time>
      </trkpt>
      <trkpt lat="46.964064" lon="10.594521">
        <ele>1602.161320</ele>
        <time>2024-08-23T09:03:10.000Z</time>
      </trkpt>
      <trkpt lat="46.964079" lon="10.594553">
        <ele>1602.378382</ele>
        <time>2024-08-23T09:03:11.000Z</time>
      </trkpt>
      <trkpt lat="46.964093" lon="10.594588">
        <ele>1602.605215</ele>
        <time>2024-08-23T09:03:12.000Z</time>
      </trkpt>
      <trkpt lat="46.964108" lon="10.594621">
        <ele>1602.826908</ele>
        <time>2024-08-23T09:03:13.000Z</time>
      </trkpt>
      <trkpt lat="46.964120" lon="10.594656">
        <ele>1602.976175</ele>
        <time>2024-08-23T09:03:14.000Z</time>
      </trkpt>
      <trkpt lat="46.964138" lon="10.594705">
        <ele>1603.182842</ele>
        <time>2024-08-23T09:03:15.000Z</time>
      </trkpt>
      <trkpt lat="46.964150" lon="10.594739">
        <ele>1603.325000</ele>
        <time>2024-08-23T09:03:16.000Z</time>
      </trkpt>
      <trkpt lat="46.964160" lon="10.594773">
        <ele>1603.462498</ele>
        <time>2024-08-23T09:03:17.000Z</time>
      </trkpt>
      <trkpt lat="46.964170" lon="10.594806">
        <ele>1603.596594</ele>
        <time>2024-08-23T09:03:18.000Z</time>
      </trkpt>
      <trkpt lat="46.964179" lon="10.594837">
        <ele>1603.721709</ele>
        <time>2024-08-23T09:03:19.000Z</time>
      </trkpt>
      <trkpt lat="46.964194" lon="10.594884">
        <ele>1603.914403</ele>
        <time>2024-08-23T09:03:20.000Z</time>
      </trkpt>
      <trkpt lat="46.964198" lon="10.594900">
        <ele>1603.977687</ele>
        <time>2024-08-23T09:03:21.000Z</time>
      </trkpt>
      <trkpt lat="46.964198" lon="10.594897">
        <ele>1603.988828</ele>
        <time>2024-08-23T09:03:22.000Z</time>
      </trkpt>
      <trkpt lat="46.964224" lon="10.594945">
        <ele>1604.216419</ele>
        <time>2024-08-23T09:03:47.000Z</time>
      </trkpt>
      <trkpt lat="46.964231" lon="10.594963">
        <ele>1604.293360</ele>
        <time>2024-08-23T09:03:48.000Z</time>
      </trkpt>
      <trkpt lat="46.964243" lon="10.594980">
        <ele>1604.384193</ele>
        <time>2024-08-23T09:03:49.000Z</time>
      </trkpt>
      <trkpt lat="46.964254" lon="10.595000">
        <ele>1604.479589</ele>
        <time>2024-08-23T09:03:50.000Z</time>
      </trkpt>
      <trkpt lat="46.964265" lon="10.595040">
        <ele>1604.639750</ele>
        <time>2024-08-23T09:03:51.000Z</time>
      </trkpt>
      <trkpt lat="46.964271" lon="10.595061">
        <ele>1604.724300</ele>
        <time>2024-08-23T09:03:52.000Z</time>
      </trkpt>
      <trkpt lat="46.964275" lon="10.595080">
        <ele>1604.798144</ele>
        <time>2024-08-23T09:03:53.000Z</time>
      </trkpt>
      <trkpt lat="46.964279" lon="10.595089">
        <ele>1604.838032</ele>
        <time>2024-08-23T09:03:54.000Z</time>
      </trkpt>
      <trkpt lat="46.964284" lon="10.595100">
        <ele>1604.887116</ele>
        <time>2024-08-23T09:03:55.000Z</time>
      </trkpt>
      <trkpt lat="46.964284" lon="10.595098">
        <ele>1604.894544</ele>
        <time>2024-08-23T09:03:57.000Z</time>
      </trkpt>
      <trkpt lat="46.964303" lon="10.595146">
        <ele>1605.100624</ele>
        <time>2024-08-23T09:04:08.000Z</time>
      </trkpt>
      <trkpt lat="46.964315" lon="10.595189">
        <ele>1605.273156</ele>
        <time>2024-08-23T09:04:09.000Z</time>
      </trkpt>
      <trkpt lat="46.964323" lon="10.595217">
        <ele>1605.385889</ele>
        <time>2024-08-23T09:04:10.000Z</time>
      </trkpt>
      <trkpt lat="46.964328" lon="10.595244">
        <ele>1605.489789</ele>
        <time>2024-08-23T09:04:11.000Z</time>
      </trkpt>
      <trkpt lat="46.964336" lon="10.595269">
        <ele>1605.592335</ele>
        <time>2024-08-23T09:04:12.000Z</time>
      </trkpt>
      <trkpt lat="46.964347" lon="10.595299">
        <ele>1605.718813</ele>
        <time>2024-08-23T09:04:13.000Z</time>
      </trkpt>
      <trkpt lat="46.964363" lon="10.595346">
        <ele>1605.913875</ele>
        <time>2024-08-23T09:04:14.000Z</time>
      </trkpt>
      <trkpt lat="46.964373" lon="10.595376">
        <ele>1606.037870</ele>
        <time>2024-08-23T09:04:15.000Z</time>
      </trkpt>
      <trkpt lat="46.964385" lon="10.595406">
        <ele>1606.167012</ele>
        <time>2024-08-23T09:04:16.000Z</time>
      </trkpt>
      <trkpt lat="46.964397" lon="10.595437">
        <ele>1606.299372</ele>
        <time>2024-08-23T09:04:17.000Z</time>
      </trkpt>
      <trkpt lat="46.964413" lon="10.595484">
        <ele>1606.494434</ele>
        <time>2024-08-23T09:04:18.000Z</time>
      </trkpt>
      <trkpt lat="46.964425" lon="10.595516">
        <ele>1606.630037</ele>
        <time>2024-08-23T09:04:19.000Z</time>
      </trkpt>
      <trkpt lat="46.964437" lon="10.595550">
        <ele>1606.772194</ele>
        <time>2024-08-23T09:04:20.000Z</time>
      </trkpt>
      <trkpt lat="46.964449" lon="10.595584">
        <ele>1606.914351</ele>
        <time>2024-08-23T09:04:21.000Z</time>
      </trkpt>
      <trkpt lat="46.964461" lon="10.595622">
        <ele>1607.069854</ele>
        <time>2024-08-23T09:04:22.000Z</time>
      </trkpt>
      <trkpt lat="46.964481" lon="10.595676">
        <ele>1607.298031</ele>
        <time>2024-08-23T09:04:23.000Z</time>
      </trkpt>
      <trkpt lat="46.964491" lon="10.595714">
        <ele>1607.449285</ele>
        <time>2024-08-23T09:04:24.000Z</time>
      </trkpt>
      <trkpt lat="46.964501" lon="10.595753">
        <ele>1607.604010</ele>
        <time>2024-08-23T09:04:25.000Z</time>
      </trkpt>
      <trkpt lat="46.964514" lon="10.595791">
        <ele>1607.761875</ele>
        <time>2024-08-23T09:04:26.000Z</time>
      </trkpt>
      <trkpt lat="46.964532" lon="10.595846">
        <ele>1607.988409</ele>
        <time>2024-08-23T09:04:27.000Z</time>
      </trkpt>
      <trkpt lat="46.964545" lon="10.595881">
        <ele>1608.136397</ele>
        <time>2024-08-23T09:04:28.000Z</time>
      </trkpt>
      <trkpt lat="46.964557" lon="10.595918">
        <ele>1608.288537</ele>
        <time>2024-08-23T09:04:29.000Z</time>
      </trkpt>
      <trkpt lat="46.964570" lon="10.595956">
        <ele>1608.446401</ele>
        <time>2024-08-23T09:04:30.000Z</time>
      </trkpt>
      <trkpt lat="46.964586" lon="10.595995">
        <ele>1608.615398</ele>
        <time>2024-08-23T09:04:31.000Z</time>
      </trkpt>
      <trkpt lat="46.964604" lon="10.596055">
        <ele>1608.858807</ele>
        <time>2024-08-23T09:04:32.000Z</time>
      </trkpt>
      <trkpt lat="46.964614" lon="10.596095">
        <ele>1609.017014</ele>
        <time>2024-08-23T09:04:33.000Z</time>
      </trkpt>
      <trkpt lat="46.964625" lon="10.596132">
        <ele>1609.166898</ele>
        <time>2024-08-23T09:04:34.000Z</time>
      </trkpt>
      <trkpt lat="46.964636" lon="10.596167">
        <ele>1609.310003</ele>
        <time>2024-08-23T09:04:35.000Z</time>
      </trkpt>
      <trkpt lat="46.964654" lon="10.596220">
        <ele>1609.529862</ele>
        <time>2024-08-23T09:04:36.000Z</time>
      </trkpt>
      <trkpt lat="46.964668" lon="10.596257">
        <ele>1609.686981</ele>
        <time>2024-08-23T09:04:37.000Z</time>
      </trkpt>
      <trkpt lat="46.964682" lon="10.596296">
        <ele>1609.850635</ele>
        <time>2024-08-23T09:04:38.000Z</time>
      </trkpt>
      <trkpt lat="46.964696" lon="10.596335">
        <ele>1610.014290</ele>
        <time>2024-08-23T09:04:39.000Z</time>
      </trkpt>
      <trkpt lat="46.964714" lon="10.596387">
        <ele>1610.230830</ele>
        <time>2024-08-23T09:04:40.000Z</time>
      </trkpt>
      <trkpt lat="46.964726" lon="10.596425">
        <ele>1610.386332</ele>
        <time>2024-08-23T09:04:41.000Z</time>
      </trkpt>
      <trkpt lat="46.964738" lon="10.596463">
        <ele>1610.541833</ele>
        <time>2024-08-23T09:04:42.000Z</time>
      </trkpt>
      <trkpt lat="46.964751" lon="10.596502">
        <ele>1610.703026</ele>
        <time>2024-08-23T09:04:43.000Z</time>
      </trkpt>
      <trkpt lat="46.964765" lon="10.596540">
        <ele>1610.863403</ele>
        <time>2024-08-23T09:04:44.000Z</time>
      </trkpt>
      <trkpt lat="46.964782" lon="10.596591">
        <ele>1611.074193</ele>
        <time>2024-08-23T09:04:45.000Z</time>
      </trkpt>
      <trkpt lat="46.964795" lon="10.596622">
        <ele>1611.209320</ele>
        <time>2024-08-23T09:04:46.000Z</time>
      </trkpt>
      <trkpt lat="46.964808" lon="10.596657">
        <ele>1611.357308</ele>
        <time>2024-08-23T09:04:47.000Z</time>
      </trkpt>
      <trkpt lat="46.964821" lon="10.596698">
        <ele>1611.525207</ele>
        <time>2024-08-23T09:04:48.000Z</time>
      </trkpt>
      <trkpt lat="46.964834" lon="10.596739">
        <ele>1611.693105</ele>
        <time>2024-08-23T09:04:49.000Z</time>
      </trkpt>
      <trkpt lat="46.964854" lon="10.596799">
        <ele>1611.941093</ele>
        <time>2024-08-23T09:04:50.000Z</time>
      </trkpt>
      <trkpt lat="46.964867" lon="10.596834">
        <ele>1612.089081</ele>
        <time>2024-08-23T09:04:51.000Z</time>
      </trkpt>
      <trkpt lat="46.964881" lon="10.596871">
        <ele>1612.246200</ele>
        <time>2024-08-23T09:04:52.000Z</time>
      </trkpt>
      <trkpt lat="46.964894" lon="10.596909">
        <ele>1612.404063</ele>
        <time>2024-08-23T09:04:53.000Z</time>
      </trkpt>
      <trkpt lat="46.964913" lon="10.596970">
        <ele>1612.634479</ele>
        <time>2024-08-23T09:04:54.000Z</time>
      </trkpt>
      <trkpt lat="46.964925" lon="10.597008">
        <ele>1612.682114</ele>
        <time>2024-08-23T09:04:55.000Z</time>
      </trkpt>
      <trkpt lat="46.964939" lon="10.597046">
        <ele>1612.731242</ele>
        <time>2024-08-23T09:04:56.000Z</time>
      </trkpt>
      <trkpt lat="46.964951" lon="10.597086">
        <ele>1612.780951</ele>
        <time>2024-08-23T09:04:57.000Z</time>
      </trkpt>
      <trkpt lat="46.964972" lon="10.597144">
        <ele>1612.855647</ele>
        <time>2024-08-23T09:04:58.000Z</time>
      </trkpt>
      <trkpt lat="46.964986" lon="10.597182">
        <ele>1612.904775</ele>
        <time>2024-08-23T09:04:59.000Z</time>
      </trkpt>
      <trkpt lat="46.965001" lon="10.597222">
        <ele>1612.956699</ele>
        <time>2024-08-23T09:05:00.000Z</time>
      </trkpt>
      <trkpt lat="46.965015" lon="10.597262">
        <ele>1613.007841</ele>
        <time>2024-08-23T09:05:01.000Z</time>
      </trkpt>
      <trkpt lat="46.965030" lon="10.597300">
        <ele>1613.057783</ele>
        <time>2024-08-23T09:05:02.000Z</time>
      </trkpt>
      <trkpt lat="46.965051" lon="10.597354">
        <ele>1613.128490</ele>
        <time>2024-08-23T09:05:03.000Z</time>
      </trkpt>
      <trkpt lat="46.965063" lon="10.597393">
        <ele>1613.177160</ele>
        <time>2024-08-23T09:05:04.000Z</time>
      </trkpt>
      <trkpt lat="46.965077" lon="10.597432">
        <ele>1613.227292</ele>
        <time>2024-08-23T09:05:05.000Z</time>
      </trkpt>
      <trkpt lat="46.965090" lon="10.597473">
        <ele>1613.278725</ele>
        <time>2024-08-23T09:05:06.000Z</time>
      </trkpt>
      <trkpt lat="46.965103" lon="10.597511">
        <ele>1613.327083</ele>
        <time>2024-08-23T09:05:07.000Z</time>
      </trkpt>
      <trkpt lat="46.965122" lon="10.597569">
        <ele>1613.400275</ele>
        <time>2024-08-23T09:05:08.000Z</time>
      </trkpt>
      <trkpt lat="46.965134" lon="10.597608">
        <ele>1613.448945</ele>
        <time>2024-08-23T09:05:09.000Z</time>
      </trkpt>
      <trkpt lat="46.965147" lon="10.597645">
        <ele>1613.496289</ele>
        <time>2024-08-23T09:05:10.000Z</time>
      </trkpt>
      <trkpt lat="46.965160" lon="10.597685">
        <ele>1613.546692</ele>
        <time>2024-08-23T09:05:11.000Z</time>
      </trkpt>
      <trkpt lat="46.965180" lon="10.597747">
        <ele>1613.624709</ele>
        <time>2024-08-23T09:05:12.000Z</time>
      </trkpt>
      <trkpt lat="46.965194" lon="10.597787">
        <ele>1613.675851</ele>
        <time>2024-08-23T09:05:13.000Z</time>
      </trkpt>
      <trkpt lat="46.965208" lon="10.597826">
        <ele>1613.725983</ele>
        <time>2024-08-23T09:05:14.000Z</time>
      </trkpt>
      <trkpt lat="46.965223" lon="10.597864">
        <ele>1613.775925</ele>
        <time>2024-08-23T09:05:15.000Z</time>
      </trkpt>
      <trkpt lat="46.965238" lon="10.597901">
        <ele>1613.824885</ele>
        <time>2024-08-23T09:05:16.000Z</time>
      </trkpt>
      <trkpt lat="46.965262" lon="10.597959">
        <ele>1613.902050</ele>
        <time>2024-08-23T09:05:17.000Z</time>
      </trkpt>
      <trkpt lat="46.965275" lon="10.598001">
        <ele>1613.954517</ele>
        <time>2024-08-23T09:05:18.000Z</time>
      </trkpt>
      <trkpt lat="46.965288" lon="10.598043">
        <ele>1614.006983</ele>
        <time>2024-08-23T09:05:19.000Z</time>
      </trkpt>
      <trkpt lat="46.965304" lon="10.598083">
        <ele>1614.059729</ele>
        <time>2024-08-23T09:05:20.000Z</time>
      </trkpt>
      <trkpt lat="46.965327" lon="10.598142">
        <ele>1614.137030</ele>
        <time>2024-08-23T09:05:21.000Z</time>
      </trkpt>
      <trkpt lat="46.965339" lon="10.598182">
        <ele>1614.186738</ele>
        <time>2024-08-23T09:05:22.000Z</time>
      </trkpt>
      <trkpt lat="46.965354" lon="10.598223">
        <ele>1614.239662</ele>
        <time>2024-08-23T09:05:23.000Z</time>
      </trkpt>
      <trkpt lat="46.965368" lon="10.598264">
        <ele>1614.291818</ele>
        <time>2024-08-23T09:05:24.000Z</time>
      </trkpt>
      <trkpt lat="46.965382" lon="10.598306">
        <ele>1614.344995</ele>
        <time>2024-08-23T09:05:25.000Z</time>
      </trkpt>
      <trkpt lat="46.965402" lon="10.598369">
        <ele>1614.424042</ele>
        <time>2024-08-23T09:05:26.000Z</time>
      </trkpt>
      <trkpt lat="46.965415" lon="10.598411">
        <ele>1614.476508</ele>
        <time>2024-08-23T09:05:27.000Z</time>
      </trkpt>
      <trkpt lat="46.965427" lon="10.598456">
        <ele>1614.531471</ele>
        <time>2024-08-23T09:05:28.000Z</time>
      </trkpt>
      <trkpt lat="46.965438" lon="10.598504">
        <ele>1614.589075</ele>
        <time>2024-08-23T09:05:29.000Z</time>
      </trkpt>
      <trkpt lat="46.965455" lon="10.598572">
        <ele>1614.671462</ele>
        <time>2024-08-23T09:05:30.000Z</time>
      </trkpt>
      <trkpt lat="46.965466" lon="10.598616">
        <ele>1614.724772</ele>
        <time>2024-08-23T09:05:31.000Z</time>
      </trkpt>
      <trkpt lat="46.965478" lon="10.598658">
        <ele>1614.776571</ele>
        <time>2024-08-23T09:05:32.000Z</time>
      </trkpt>
      <trkpt lat="46.965490" lon="10.598702">
        <ele>1614.830477</ele>
        <time>2024-08-23T09:05:33.000Z</time>
      </trkpt>
      <trkpt lat="46.965503" lon="10.598767">
        <ele>1614.907534</ele>
        <time>2024-08-23T09:05:34.000Z</time>
      </trkpt>
      <trkpt lat="46.965510" lon="10.598810">
        <ele>1614.957825</ele>
        <time>2024-08-23T09:05:35.000Z</time>
      </trkpt>
      <trkpt lat="46.965518" lon="10.598852">
        <ele>1615.007433</ele>
        <time>2024-08-23T09:05:36.000Z</time>
      </trkpt>
      <trkpt lat="46.965525" lon="10.598890">
        <ele>1615.052210</ele>
        <time>2024-08-23T09:05:37.000Z</time>
      </trkpt>
      <trkpt lat="46.965534" lon="10.598929">
        <ele>1615.099046</ele>
        <time>2024-08-23T09:05:38.000Z</time>
      </trkpt>
      <trkpt lat="46.965546" lon="10.598990">
        <ele>1615.171268</ele>
        <time>2024-08-23T09:05:39.000Z</time>
      </trkpt>
      <trkpt lat="46.965554" lon="10.599031">
        <ele>1615.219781</ele>
        <time>2024-08-23T09:05:40.000Z</time>
      </trkpt>
      <trkpt lat="46.965562" lon="10.599072">
        <ele>1615.268293</ele>
        <time>2024-08-23T09:05:41.000Z</time>
      </trkpt>
      <trkpt lat="46.965569" lon="10.599113">
        <ele>1615.316374</ele>
        <time>2024-08-23T09:05:42.000Z</time>
      </trkpt>
      <trkpt lat="46.965577" lon="10.599154">
        <ele>1615.364887</ele>
        <time>2024-08-23T09:05:43.000Z</time>
      </trkpt>
      <trkpt lat="46.965583" lon="10.599214">
        <ele>1615.433874</ele>
        <time>2024-08-23T09:05:44.000Z</time>
      </trkpt>
      <trkpt lat="46.965589" lon="10.599254">
        <ele>1615.480466</ele>
        <time>2024-08-23T09:05:45.000Z</time>
      </trkpt>
      <trkpt lat="46.965595" lon="10.599295">
        <ele>1615.528170</ele>
        <time>2024-08-23T09:05:46.000Z</time>
      </trkpt>
      <trkpt lat="46.965601" lon="10.599337">
        <ele>1615.576986</ele>
        <time>2024-08-23T09:05:47.000Z</time>
      </trkpt>
      <trkpt lat="46.965611" lon="10.599403">
        <ele>1615.696003</ele>
        <time>2024-08-23T09:05:48.000Z</time>
      </trkpt>
      <trkpt lat="46.965618" lon="10.599446">
        <ele>1615.818687</ele>
        <time>2024-08-23T09:05:49.000Z</time>
      </trkpt>
      <trkpt lat="46.965625" lon="10.599488">
        <ele>1615.938673</ele>
        <time>2024-08-23T09:05:50.000Z</time>
      </trkpt>
      <trkpt lat="46.965632" lon="10.599529">
        <ele>1616.055966</ele>
        <time>2024-08-23T09:05:51.000Z</time>
      </trkpt>
      <trkpt lat="46.965639" lon="10.599569">
        <ele>1616.170567</ele>
        <time>2024-08-23T09:05:52.000Z</time>
      </trkpt>
      <trkpt lat="46.965648" lon="10.599625">
        <ele>1616.330233</ele>
        <time>2024-08-23T09:05:53.000Z</time>
      </trkpt>
      <trkpt lat="46.965651" lon="10.599659">
        <ele>1616.425377</ele>
        <time>2024-08-23T09:05:54.000Z</time>
      </trkpt>
      <trkpt lat="46.965655" lon="10.599693">
        <ele>1616.521128</ele>
        <time>2024-08-23T09:05:55.000Z</time>
      </trkpt>
      <trkpt lat="46.965660" lon="10.599727">
        <ele>1616.617652</ele>
        <time>2024-08-23T09:05:56.000Z</time>
      </trkpt>
      <trkpt lat="46.965668" lon="10.599776">
        <ele>1616.757477</ele>
        <time>2024-08-23T09:05:57.000Z</time>
      </trkpt>
      <trkpt lat="46.965673" lon="10.599806">
        <ele>1616.843182</ele>
        <time>2024-08-23T09:05:58.000Z</time>
      </trkpt>
      <trkpt lat="46.965680" lon="10.599838">
        <ele>1616.936440</ele>
        <time>2024-08-23T09:05:59.000Z</time>
      </trkpt>
      <trkpt lat="46.965688" lon="10.599876">
        <ele>1617.046804</ele>
        <time>2024-08-23T09:06:00.000Z</time>
      </trkpt>
      <trkpt lat="46.965700" lon="10.599916">
        <ele>1617.168067</ele>
        <time>2024-08-23T09:06:01.000Z</time>
      </trkpt>
      <trkpt lat="46.965719" lon="10.599984">
        <ele>1617.371989</ele>
        <time>2024-08-23T09:06:02.000Z</time>
      </trkpt>
      <trkpt lat="46.965730" lon="10.600033">
        <ele>1617.515145</ele>
        <time>2024-08-23T09:06:03.000Z</time>
      </trkpt>
      <trkpt lat="46.965741" lon="10.600086">
        <ele>1617.668885</ele>
        <time>2024-08-23T09:06:04.000Z</time>
      </trkpt>
      <trkpt lat="46.965752" lon="10.600140">
        <ele>1617.825282</ele>
        <time>2024-08-23T09:06:05.000Z</time>
      </trkpt>
      <trkpt lat="46.965765" lon="10.600193">
        <ele>1617.981583</ele>
        <time>2024-08-23T09:06:06.000Z</time>
      </trkpt>
      <trkpt lat="46.965794" lon="10.600264">
        <ele>1618.211222</ele>
        <time>2024-08-23T09:06:07.000Z</time>
      </trkpt>
      <trkpt lat="46.965816" lon="10.600306">
        <ele>1618.358160</ele>
        <time>2024-08-23T09:06:08.000Z</time>
      </trkpt>
      <trkpt lat="46.965839" lon="10.600344">
        <ele>1618.499121</ele>
        <time>2024-08-23T09:06:09.000Z</time>
      </trkpt>
      <trkpt lat="46.965867" lon="10.600380">
        <ele>1618.650605</ele>
        <time>2024-08-23T09:06:10.000Z</time>
      </trkpt>
      <trkpt lat="46.965901" lon="10.600436">
        <ele>1618.858623</ele>
        <time>2024-08-23T09:06:11.000Z</time>
      </trkpt>
      <trkpt lat="46.965925" lon="10.600468">
        <ele>1618.990580</ele>
        <time>2024-08-23T09:06:12.000Z</time>
      </trkpt>
      <trkpt lat="46.965949" lon="10.600496">
        <ele>1619.115336</ele>
        <time>2024-08-23T09:06:13.000Z</time>
      </trkpt>
      <trkpt lat="46.965969" lon="10.600522">
        <ele>1619.224063</ele>
        <time>2024-08-23T09:06:14.000Z</time>
      </trkpt>
      <trkpt lat="46.966001" lon="10.600554">
        <ele>1619.381612</ele>
        <time>2024-08-23T09:06:15.000Z</time>
      </trkpt>
      <trkpt lat="46.966024" lon="10.600575">
        <ele>1619.491817</ele>
        <time>2024-08-23T09:06:16.000Z</time>
      </trkpt>
      <trkpt lat="46.966048" lon="10.600599">
        <ele>1619.609978</ele>
        <time>2024-08-23T09:06:17.000Z</time>
      </trkpt>
      <trkpt lat="46.966073" lon="10.600628">
        <ele>1619.739645</ele>
        <time>2024-08-23T09:06:18.000Z</time>
      </trkpt>
      <trkpt lat="46.966096" lon="10.600660">
        <ele>1619.868623</ele>
        <time>2024-08-23T09:06:19.000Z</time>
      </trkpt>
      <trkpt lat="46.966132" lon="10.600708">
        <ele>1620.066558</ele>
        <time>2024-08-23T09:06:20.000Z</time>
      </trkpt>
      <trkpt lat="46.966158" lon="10.600741">
        <ele>1620.206440</ele>
        <time>2024-08-23T09:06:21.000Z</time>
      </trkpt>
      <trkpt lat="46.966186" lon="10.600775">
        <ele>1620.354322</ele>
        <time>2024-08-23T09:06:22.000Z</time>
      </trkpt>
      <trkpt lat="46.966213" lon="10.600812">
        <ele>1620.504655</ele>
        <time>2024-08-23T09:06:23.000Z</time>
      </trkpt>
      <trkpt lat="46.966260" lon="10.600867">
        <ele>1620.749257</ele>
        <time>2024-08-23T09:06:24.000Z</time>
      </trkpt>
      <trkpt lat="46.966293" lon="10.600904">
        <ele>1620.918236</ele>
        <time>2024-08-23T09:06:25.000Z</time>
      </trkpt>
      <trkpt lat="46.966328" lon="10.600940">
        <ele>1621.092134</ele>
        <time>2024-08-23T09:06:26.000Z</time>
      </trkpt>
      <trkpt lat="46.966363" lon="10.600978">
        <ele>1621.269279</ele>
        <time>2024-08-23T09:06:27.000Z</time>
      </trkpt>
      <trkpt lat="46.966414" lon="10.601028">
        <ele>1621.518817</ele>
        <time>2024-08-23T09:06:28.000Z</time>
      </trkpt>
      <trkpt lat="46.966447" lon="10.601059">
        <ele>1621.678226</ele>
        <time>2024-08-23T09:06:29.000Z</time>
      </trkpt>
      <trkpt lat="46.966479" lon="10.601090">
        <ele>1621.834227</ele>
        <time>2024-08-23T09:06:30.000Z</time>
      </trkpt>
      <trkpt lat="46.966508" lon="10.601115">
        <ele>1621.971055</ele>
        <time>2024-08-23T09:06:31.000Z</time>
      </trkpt>
      <trkpt lat="46.966535" lon="10.601139">
        <ele>1622.099478</ele>
        <time>2024-08-23T09:06:32.000Z</time>
      </trkpt>
      <trkpt lat="46.966567" lon="10.601173">
        <ele>1622.260220</ele>
        <time>2024-08-23T09:06:33.000Z</time>
      </trkpt>
      <trkpt lat="46.966589" lon="10.601193">
        <ele>1622.365506</ele>
        <time>2024-08-23T09:06:34.000Z</time>
      </trkpt>
      <trkpt lat="46.966607" lon="10.601207">
        <ele>1622.448378</ele>
        <time>2024-08-23T09:06:35.000Z</time>
      </trkpt>
      <trkpt lat="46.966621" lon="10.601217">
        <ele>1622.511715</ele>
        <time>2024-08-23T09:06:36.000Z</time>
      </trkpt>
      <trkpt lat="46.966626" lon="10.601220">
        <ele>1622.533687</ele>
        <time>2024-08-23T09:06:37.000Z</time>
      </trkpt>
      <trkpt lat="46.966628" lon="10.601219">
        <ele>1622.542281</ele>
        <time>2024-08-23T09:06:38.000Z</time>
      </trkpt>
      <trkpt lat="46.966656" lon="10.601223">
        <ele>1622.656688</ele>
        <time>2024-08-23T09:08:35.000Z</time>
      </trkpt>
      <trkpt lat="46.966671" lon="10.601232">
        <ele>1622.722603</ele>
        <time>2024-08-23T09:08:36.000Z</time>
      </trkpt>
      <trkpt lat="46.966686" lon="10.601248">
        <ele>1622.798053</ele>
        <time>2024-08-23T09:08:37.000Z</time>
      </trkpt>
      <trkpt lat="46.966703" lon="10.601260">
        <ele>1622.874790</ele>
        <time>2024-08-23T09:08:38.000Z</time>
      </trkpt>
      <trkpt lat="46.966730" lon="10.601276">
        <ele>1623.090950</ele>
        <time>2024-08-23T09:08:39.000Z</time>
      </trkpt>
      <trkpt lat="46.966750" lon="10.601289">
        <ele>1623.340736</ele>
        <time>2024-08-23T09:08:40.000Z</time>
      </trkpt>
      <trkpt lat="46.966773" lon="10.601303">
        <ele>1623.625069</ele>
        <time>2024-08-23T09:08:41.000Z</time>
      </trkpt>
      <trkpt lat="46.966797" lon="10.601317">
        <ele>1623.919978</ele>
        <time>2024-08-23T09:08:42.000Z</time>
      </trkpt>
      <trkpt lat="46.966833" lon="10.601340">
        <ele>1624.368338</ele>
        <time>2024-08-23T09:08:43.000Z</time>
      </trkpt>
      <trkpt lat="46.966860" lon="10.601355">
        <ele>1624.697993</ele>
        <time>2024-08-23T09:08:44.000Z</time>
      </trkpt>
      <trkpt lat="46.966885" lon="10.601369">
        <ele>1625.003538</ele>
        <time>2024-08-23T09:08:45.000Z</time>
      </trkpt>
      <trkpt lat="46.966910" lon="10.601383">
        <ele>1625.309083</ele>
        <time>2024-08-23T09:08:46.000Z</time>
      </trkpt>
      <trkpt lat="46.966936" lon="10.601397">
        <ele>1625.625318</ele>
        <time>2024-08-23T09:08:47.000Z</time>
      </trkpt>
      <trkpt lat="46.966977" lon="10.601421">
        <ele>1626.129361</ele>
        <time>2024-08-23T09:08:48.000Z</time>
      </trkpt>
      <trkpt lat="46.967003" lon="10.601435">
        <ele>1626.445596</ele>
        <time>2024-08-23T09:08:49.000Z</time>
      </trkpt>
      <trkpt lat="46.967029" lon="10.601449">
        <ele>1626.761832</ele>
        <time>2024-08-23T09:08:50.000Z</time>
      </trkpt>
      <trkpt lat="46.967053" lon="10.601464">
        <ele>1627.059710</ele>
        <time>2024-08-23T09:08:51.000Z</time>
      </trkpt>
      <trkpt lat="46.967076" lon="10.601481">
        <ele>1627.353802</ele>
        <time>2024-08-23T09:08:52.000Z</time>
      </trkpt>
      <trkpt lat="46.967105" lon="10.601506">
        <ele>1627.737923</ele>
        <time>2024-08-23T09:08:53.000Z</time>
      </trkpt>
      <trkpt lat="46.967119" lon="10.601520">
        <ele>1627.931425</ele>
        <time>2024-08-23T09:08:54.000Z</time>
      </trkpt>
      <trkpt lat="46.967130" lon="10.601529">
        <ele>1628.075256</ele>
        <time>2024-08-23T09:08:55.000Z</time>
      </trkpt>
      <trkpt lat="46.967134" lon="10.601533">
        <ele>1628.130542</ele>
        <time>2024-08-23T09:08:56.000Z</time>
      </trkpt>
      <trkpt lat="46.967136" lon="10.601532">
        <ele>1628.154667</ele>
        <time>2024-08-23T09:08:57.000Z</time>
      </trkpt>
      <trkpt lat="46.967266" lon="10.601545">
        <ele>1629.642269</ele>
        <time>2024-08-23T09:23:05.000Z</time>
      </trkpt>
      <trkpt lat="46.967282" lon="10.601553">
        <ele>1629.835274</ele>
        <time>2024-08-23T09:23:06.000Z</time>
      </trkpt>
      <trkpt lat="46.967297" lon="10.601563">
        <ele>1630.023412</ele>
        <time>2024-08-23T09:23:07.000Z</time>
      </trkpt>
      <trkpt lat="46.967325" lon="10.601580">
        <ele>1630.369426</ele>
        <time>2024-08-23T09:23:08.000Z</time>
      </trkpt>
      <trkpt lat="46.967357" lon="10.601598">
        <ele>1630.760746</ele>
        <time>2024-08-23T09:23:09.000Z</time>
      </trkpt>
      <trkpt lat="46.967367" lon="10.601604">
        <ele>1630.884110</ele>
        <time>2024-08-23T09:23:10.000Z</time>
      </trkpt>
      <trkpt lat="46.967387" lon="10.601616">
        <ele>1631.130839</ele>
        <time>2024-08-23T09:23:11.000Z</time>
      </trkpt>
      <trkpt lat="46.967419" lon="10.601632">
        <ele>1631.516849</ele>
        <time>2024-08-23T09:23:12.000Z</time>
      </trkpt>
      <trkpt lat="46.967438" lon="10.601641">
        <ele>1631.744815</ele>
        <time>2024-08-23T09:23:13.000Z</time>
      </trkpt>
      <trkpt lat="46.967459" lon="10.601649">
        <ele>1631.992531</ele>
        <time>2024-08-23T09:23:14.000Z</time>
      </trkpt>
      <trkpt lat="46.967485" lon="10.601659">
        <ele>1632.299415</ele>
        <time>2024-08-23T09:23:15.000Z</time>
      </trkpt>
      <trkpt lat="46.967510" lon="10.601671">
        <ele>1632.599750</ele>
        <time>2024-08-23T09:23:16.000Z</time>
      </trkpt>
      <trkpt lat="46.967546" lon="10.601688">
        <ele>1633.031558</ele>
        <time>2024-08-23T09:23:17.000Z</time>
      </trkpt>
      <trkpt lat="46.967568" lon="10.601700">
        <ele>1633.299558</ele>
        <time>2024-08-23T09:23:18.000Z</time>
      </trkpt>
      <trkpt lat="46.967587" lon="10.601707">
        <ele>1633.523222</ele>
        <time>2024-08-23T09:23:19.000Z</time>
      </trkpt>
      <trkpt lat="46.967605" lon="10.601713">
        <ele>1633.733969</ele>
        <time>2024-08-23T09:23:20.000Z</time>
      </trkpt>
      <trkpt lat="46.967638" lon="10.601728">
        <ele>1634.128424</ele>
        <time>2024-08-23T09:23:21.000Z</time>
      </trkpt>
      <trkpt lat="46.967660" lon="10.601737">
        <ele>1634.389191</ele>
        <time>2024-08-23T09:23:22.000Z</time>
      </trkpt>
      <trkpt lat="46.967683" lon="10.601746">
        <ele>1634.660972</ele>
        <time>2024-08-23T09:23:23.000Z</time>
      </trkpt>
      <trkpt lat="46.967705" lon="10.601755">
        <ele>1634.921739</ele>
        <time>2024-08-23T09:23:24.000Z</time>
      </trkpt>
      <trkpt lat="46.967742" lon="10.601766">
        <ele>1635.352757</ele>
        <time>2024-08-23T09:23:25.000Z</time>
      </trkpt>
      <trkpt lat="46.967766" lon="10.601774">
        <ele>1635.633753</ele>
        <time>2024-08-23T09:23:26.000Z</time>
      </trkpt>
      <trkpt lat="46.967789" lon="10.601783">
        <ele>1635.905534</ele>
        <time>2024-08-23T09:23:27.000Z</time>
      </trkpt>
      <trkpt lat="46.967811" lon="10.601797">
        <ele>1636.179358</ele>
        <time>2024-08-23T09:23:28.000Z</time>
      </trkpt>
      <trkpt lat="46.967834" lon="10.601811">
        <ele>1636.463690</ele>
        <time>2024-08-23T09:23:29.000Z</time>
      </trkpt>
      <trkpt lat="46.967869" lon="10.601831">
        <ele>1636.892574</ele>
        <time>2024-08-23T09:23:30.000Z</time>
      </trkpt>
      <trkpt lat="46.967893" lon="10.601839">
        <ele>1637.173570</ele>
        <time>2024-08-23T09:23:31.000Z</time>
      </trkpt>
      <trkpt lat="46.967916" lon="10.601844">
        <ele>1637.439024</ele>
        <time>2024-08-23T09:23:32.000Z</time>
      </trkpt>
      <trkpt lat="46.967941" lon="10.601852">
        <ele>1637.731164</ele>
        <time>2024-08-23T09:23:33.000Z</time>
      </trkpt>
      <trkpt lat="46.967980" lon="10.601864">
        <ele>1638.186118</ele>
        <time>2024-08-23T09:23:34.000Z</time>
      </trkpt>
      <trkpt lat="46.968005" lon="10.601873">
        <ele>1638.480018</ele>
        <time>2024-08-23T09:23:35.000Z</time>
      </trkpt>
      <trkpt lat="46.968030" lon="10.601880">
        <ele>1638.770595</ele>
        <time>2024-08-23T09:23:36.000Z</time>
      </trkpt>
      <trkpt lat="46.968054" lon="10.601883">
        <ele>1639.045587</ele>
        <time>2024-08-23T09:23:37.000Z</time>
      </trkpt>
      <trkpt lat="46.968078" lon="10.601890">
        <ele>1639.324958</ele>
        <time>2024-08-23T09:23:38.000Z</time>
      </trkpt>
      <trkpt lat="46.968112" lon="10.601903">
        <ele>1639.726116</ele>
        <time>2024-08-23T09:23:39.000Z</time>
      </trkpt>
      <trkpt lat="46.968135" lon="10.601911">
        <ele>1639.995991</ele>
        <time>2024-08-23T09:23:40.000Z</time>
      </trkpt>
      <trkpt lat="46.968158" lon="10.601920">
        <ele>1640.267772</ele>
        <time>2024-08-23T09:23:41.000Z</time>
      </trkpt>
      <trkpt lat="46.968179" lon="10.601928">
        <ele>1640.515488</ele>
        <time>2024-08-23T09:23:42.000Z</time>
      </trkpt>
      <trkpt lat="46.968210" lon="10.601941">
        <ele>1640.883607</ele>
        <time>2024-08-23T09:23:43.000Z</time>
      </trkpt>
      <trkpt lat="46.968233" lon="10.601951">
        <ele>1641.157501</ele>
        <time>2024-08-23T09:23:44.000Z</time>
      </trkpt>
      <trkpt lat="46.968256" lon="10.601962">
        <ele>1641.433712</ele>
        <time>2024-08-23T09:23:45.000Z</time>
      </trkpt>
      <trkpt lat="46.968280" lon="10.601975">
        <ele>1641.725828</ele>
        <time>2024-08-23T09:23:46.000Z</time>
      </trkpt>
      <trkpt lat="46.968304" lon="10.601988">
        <ele>1642.017944</ele>
        <time>2024-08-23T09:23:47.000Z</time>
      </trkpt>
      <trkpt lat="46.968339" lon="10.602003">
        <ele>1642.434261</ele>
        <time>2024-08-23T09:23:48.000Z</time>
      </trkpt>
      <trkpt lat="46.968362" lon="10.602013">
        <ele>1642.708155</ele>
        <time>2024-08-23T09:23:49.000Z</time>
      </trkpt>
      <trkpt lat="46.968387" lon="10.602024">
        <ele>1643.006156</ele>
        <time>2024-08-23T09:23:50.000Z</time>
      </trkpt>
      <trkpt lat="46.968412" lon="10.602033">
        <ele>1643.300056</ele>
        <time>2024-08-23T09:23:51.000Z</time>
      </trkpt>
      <trkpt lat="46.968434" lon="10.602044">
        <ele>1643.533769</ele>
        <time>2024-08-23T09:23:52.000Z</time>
      </trkpt>
      <trkpt lat="46.968469" lon="10.602062">
        <ele>1643.811468</ele>
        <time>2024-08-23T09:23:53.000Z</time>
      </trkpt>
      <trkpt lat="46.968492" lon="10.602075">
        <ele>1643.996025</ele>
        <time>2024-08-23T09:23:54.000Z</time>
      </trkpt>
      <trkpt lat="46.968515" lon="10.602084">
        <ele>1644.174250</ele>
        <time>2024-08-23T09:23:55.000Z</time>
      </trkpt>
      <trkpt lat="46.968539" lon="10.602095">
        <ele>1644.362512</ele>
        <time>2024-08-23T09:23:56.000Z</time>
      </trkpt>
      <trkpt lat="46.968574" lon="10.602115">
        <ele>1644.643760</ele>
        <time>2024-08-23T09:23:57.000Z</time>
      </trkpt>
      <trkpt lat="46.968596" lon="10.602130">
        <ele>1644.825420</ele>
        <time>2024-08-23T09:23:58.000Z</time>
      </trkpt>
      <trkpt lat="46.968619" lon="10.602145">
        <ele>1645.013895</ele>
        <time>2024-08-23T09:23:59.000Z</time>
      </trkpt>
      <trkpt lat="46.968641" lon="10.602158">
        <ele>1645.191487</ele>
        <time>2024-08-23T09:24:00.000Z</time>
      </trkpt>
      <trkpt lat="46.968665" lon="10.602174">
        <ele>1645.388885</ele>
        <time>2024-08-23T09:24:01.000Z</time>
      </trkpt>
      <trkpt lat="46.968678" lon="10.602183">
        <ele>1645.496526</ele>
        <time>2024-08-23T09:24:02.000Z</time>
      </trkpt>
      <trkpt lat="46.968693" lon="10.602191">
        <ele>1645.616031</ele>
        <time>2024-08-23T09:24:03.000Z</time>
      </trkpt>
      <trkpt lat="46.968711" lon="10.602200">
        <ele>1645.758418</ele>
        <time>2024-08-23T09:24:04.000Z</time>
      </trkpt>
      <trkpt lat="46.968733" lon="10.602212">
        <ele>1645.934163</ele>
        <time>2024-08-23T09:24:05.000Z</time>
      </trkpt>
      <trkpt lat="46.968770" lon="10.602227">
        <ele>1646.221573</ele>
        <time>2024-08-23T09:24:06.000Z</time>
      </trkpt>
      <trkpt lat="46.968795" lon="10.602241">
        <ele>1646.421938</ele>
        <time>2024-08-23T09:24:07.000Z</time>
      </trkpt>
      <trkpt lat="46.968820" lon="10.602256">
        <ele>1646.624184</ele>
        <time>2024-08-23T09:24:08.000Z</time>
      </trkpt>
      <trkpt lat="46.968844" lon="10.602268">
        <ele>1646.814034</ele>
        <time>2024-08-23T09:24:09.000Z</time>
      </trkpt>
      <trkpt lat="46.968883" lon="10.602294">
        <ele>1647.134806</ele>
        <time>2024-08-23T09:24:10.000Z</time>
      </trkpt>
      <trkpt lat="46.968905" lon="10.602310">
        <ele>1647.318680</ele>
        <time>2024-08-23T09:24:11.000Z</time>
      </trkpt>
      <trkpt lat="46.968929" lon="10.602323">
        <ele>1647.510240</ele>
        <time>2024-08-23T09:24:12.000Z</time>
      </trkpt>
      <trkpt lat="46.968954" lon="10.602334">
        <ele>1647.705660</ele>
        <time>2024-08-23T09:24:13.000Z</time>
      </trkpt>
      <trkpt lat="46.968979" lon="10.602345">
        <ele>1647.901080</ele>
        <time>2024-08-23T09:24:14.000Z</time>
      </trkpt>
      <trkpt lat="46.969018" lon="10.602362">
        <ele>1648.205701</ele>
        <time>2024-08-23T09:24:15.000Z</time>
      </trkpt>
      <trkpt lat="46.969045" lon="10.602370">
        <ele>1648.411930</ele>
        <time>2024-08-23T09:24:16.000Z</time>
      </trkpt>
      <trkpt lat="46.969071" lon="10.602380">
        <ele>1648.613174</ele>
        <time>2024-08-23T09:24:17.000Z</time>
      </trkpt>
      <trkpt lat="46.969098" lon="10.602394">
        <ele>1648.827593</ele>
        <time>2024-08-23T09:24:18.000Z</time>
      </trkpt>
      <trkpt lat="46.969137" lon="10.602415">
        <ele>1649.138658</ele>
        <time>2024-08-23T09:24:19.000Z</time>
      </trkpt>
      <trkpt lat="46.969163" lon="10.602426">
        <ele>1649.341259</ele>
        <time>2024-08-23T09:24:20.000Z</time>
      </trkpt>
      <trkpt lat="46.969188" lon="10.602438">
        <ele>1649.538209</ele>
        <time>2024-08-23T09:24:21.000Z</time>
      </trkpt>
      <trkpt lat="46.969214" lon="10.602451">
        <ele>1649.743879</ele>
        <time>2024-08-23T09:24:22.000Z</time>
      </trkpt>
      <trkpt lat="46.969239" lon="10.602464">
        <ele>1649.942479</ele>
        <time>2024-08-23T09:24:23.000Z</time>
      </trkpt>
      <trkpt lat="46.969276" lon="10.602487">
        <ele>1650.243375</ele>
        <time>2024-08-23T09:24:24.000Z</time>
      </trkpt>
      <trkpt lat="46.969301" lon="10.602504">
        <ele>1650.449708</ele>
        <time>2024-08-23T09:24:25.000Z</time>
      </trkpt>
      <trkpt lat="46.969327" lon="10.602518">
        <ele>1650.657085</ele>
        <time>2024-08-23T09:24:26.000Z</time>
      </trkpt>
      <trkpt lat="46.969352" lon="10.602531">
        <ele>1650.855684</ele>
        <time>2024-08-23T09:24:27.000Z</time>
      </trkpt>
      <trkpt lat="46.969391" lon="10.602552">
        <ele>1651.166748</ele>
        <time>2024-08-23T09:24:28.000Z</time>
      </trkpt>
      <trkpt lat="46.969415" lon="10.602567">
        <ele>1651.362086</ele>
        <time>2024-08-23T09:24:29.000Z</time>
      </trkpt>
      <trkpt lat="46.969439" lon="10.602582">
        <ele>1651.557424</ele>
        <time>2024-08-23T09:24:30.000Z</time>
      </trkpt>
      <trkpt lat="46.969463" lon="10.602597">
        <ele>1651.752761</ele>
        <time>2024-08-23T09:24:31.000Z</time>
      </trkpt>
      <trkpt lat="46.969487" lon="10.602611">
        <ele>1651.946152</ele>
        <time>2024-08-23T09:24:32.000Z</time>
      </trkpt>
      <trkpt lat="46.969521" lon="10.602627">
        <ele>1652.213499</ele>
        <time>2024-08-23T09:24:33.000Z</time>
      </trkpt>
      <trkpt lat="46.969545" lon="10.602640">
        <ele>1652.405059</ele>
        <time>2024-08-23T09:24:34.000Z</time>
      </trkpt>
      <trkpt lat="46.969570" lon="10.602653">
        <ele>1652.603658</ele>
        <time>2024-08-23T09:24:35.000Z</time>
      </trkpt>
      <trkpt lat="46.969595" lon="10.602667">
        <ele>1652.804024</ele>
        <time>2024-08-23T09:24:36.000Z</time>
      </trkpt>
      <trkpt lat="46.969618" lon="10.602681">
        <ele>1652.990479</ele>
        <time>2024-08-23T09:24:37.000Z</time>
      </trkpt>
      <trkpt lat="46.969655" lon="10.602702">
        <ele>1653.287534</ele>
        <time>2024-08-23T09:24:38.000Z</time>
      </trkpt>
      <trkpt lat="46.969677" lon="10.602714">
        <ele>1653.463278</ele>
        <time>2024-08-23T09:24:39.000Z</time>
      </trkpt>
      <trkpt lat="46.969701" lon="10.602729">
        <ele>1653.658616</ele>
        <time>2024-08-23T09:24:40.000Z</time>
      </trkpt>
      <trkpt lat="46.969724" lon="10.602741">
        <ele>1653.841396</ele>
        <time>2024-08-23T09:24:41.000Z</time>
      </trkpt>
      <trkpt lat="46.969761" lon="10.602764">
        <ele>1654.142291</ele>
        <time>2024-08-23T09:24:42.000Z</time>
      </trkpt>
      <trkpt lat="46.969783" lon="10.602780">
        <ele>1654.326164</ele>
        <time>2024-08-23T09:24:43.000Z</time>
      </trkpt>
      <trkpt lat="46.969805" lon="10.602795">
        <ele>1654.507824</ele>
        <time>2024-08-23T09:24:44.000Z</time>
      </trkpt>
      <trkpt lat="46.969829" lon="10.602812">
        <ele>1654.707391</ele>
        <time>2024-08-23T09:24:45.000Z</time>
      </trkpt>
      <trkpt lat="46.969862" lon="10.602833">
        <ele>1654.976737</ele>
        <time>2024-08-23T09:24:46.000Z</time>
      </trkpt>
      <trkpt lat="46.969884" lon="10.602846">
        <ele>1655.154329</ele>
        <time>2024-08-23T09:24:47.000Z</time>
      </trkpt>
      <trkpt lat="46.969907" lon="10.602862">
        <ele>1655.344937</ele>
        <time>2024-08-23T09:24:48.000Z</time>
      </trkpt>
      <trkpt lat="46.969929" lon="10.602877">
        <ele>1655.526596</ele>
        <time>2024-08-23T09:24:49.000Z</time>
      </trkpt>
      <trkpt lat="46.969950" lon="10.602891">
        <ele>1655.699319</ele>
        <time>2024-08-23T09:24:50.000Z</time>
      </trkpt>
      <trkpt lat="46.969984" lon="10.602919">
        <ele>1655.991303</ele>
        <time>2024-08-23T09:24:51.000Z</time>
      </trkpt>
      <trkpt lat="46.970006" lon="10.602938">
        <ele>1656.182483</ele>
        <time>2024-08-23T09:24:52.000Z</time>
      </trkpt>
      <trkpt lat="46.970029" lon="10.602956">
        <ele>1656.377691</ele>
        <time>2024-08-23T09:24:53.000Z</time>
      </trkpt>
      <trkpt lat="46.970052" lon="10.602971">
        <ele>1656.566165</ele>
        <time>2024-08-23T09:24:54.000Z</time>
      </trkpt>
      <trkpt lat="46.970075" lon="10.602989">
        <ele>1656.761373</ele>
        <time>2024-08-23T09:24:55.000Z</time>
      </trkpt>
      <trkpt lat="46.970106" lon="10.603017">
        <ele>1657.039317</ele>
        <time>2024-08-23T09:24:56.000Z</time>
      </trkpt>
      <trkpt lat="46.970128" lon="10.603038">
        <ele>1657.246906</ele>
        <time>2024-08-23T09:24:57.000Z</time>
      </trkpt>
      <trkpt lat="46.970149" lon="10.603062">
        <ele>1657.457464</ele>
        <time>2024-08-23T09:24:58.000Z</time>
      </trkpt>
      <trkpt lat="46.970172" lon="10.603083">
        <ele>1657.671721</ele>
        <time>2024-08-23T09:24:59.000Z</time>
      </trkpt>
      <trkpt lat="46.970207" lon="10.603112">
        <ele>1657.989618</ele>
        <time>2024-08-23T09:25:00.000Z</time>
      </trkpt>
      <trkpt lat="46.970230" lon="10.603133">
        <ele>1658.203876</ele>
        <time>2024-08-23T09:25:01.000Z</time>
      </trkpt>
      <trkpt lat="46.970253" lon="10.603157">
        <ele>1658.427115</ele>
        <time>2024-08-23T09:25:02.000Z</time>
      </trkpt>
      <trkpt lat="46.970274" lon="10.603180">
        <ele>1658.634399</ele>
        <time>2024-08-23T09:25:03.000Z</time>
      </trkpt>
      <trkpt lat="46.970295" lon="10.603202">
        <ele>1658.838498</ele>
        <time>2024-08-23T09:25:04.000Z</time>
      </trkpt>
      <trkpt lat="46.970326" lon="10.603241">
        <ele>1659.161529</ele>
        <time>2024-08-23T09:25:05.000Z</time>
      </trkpt>
      <trkpt lat="46.970345" lon="10.603264">
        <ele>1659.356376</ele>
        <time>2024-08-23T09:25:06.000Z</time>
      </trkpt>
      <trkpt lat="46.970365" lon="10.603286">
        <ele>1659.554097</ele>
        <time>2024-08-23T09:25:07.000Z</time>
      </trkpt>
      <trkpt lat="46.970387" lon="10.603310">
        <ele>1659.770944</ele>
        <time>2024-08-23T09:25:08.000Z</time>
      </trkpt>
      <trkpt lat="46.970417" lon="10.603345">
        <ele>1660.074126</ele>
        <time>2024-08-23T09:25:09.000Z</time>
      </trkpt>
      <trkpt lat="46.970436" lon="10.603367">
        <ele>1660.265583</ele>
        <time>2024-08-23T09:25:10.000Z</time>
      </trkpt>
      <trkpt lat="46.970455" lon="10.603390">
        <ele>1660.460430</ele>
        <time>2024-08-23T09:25:11.000Z</time>
      </trkpt>
      <trkpt lat="46.970474" lon="10.603415">
        <ele>1660.662320</ele>
        <time>2024-08-23T09:25:12.000Z</time>
      </trkpt>
      <trkpt lat="46.970499" lon="10.603451">
        <ele>1660.939439</ele>
        <time>2024-08-23T09:25:13.000Z</time>
      </trkpt>
      <trkpt lat="46.970517" lon="10.603474">
        <ele>1661.128258</ele>
        <time>2024-08-23T09:25:14.000Z</time>
      </trkpt>
      <trkpt lat="46.970533" lon="10.603496">
        <ele>1661.301727</ele>
        <time>2024-08-23T09:25:15.000Z</time>
      </trkpt>
      <trkpt lat="46.970551" lon="10.603521">
        <ele>1661.497806</ele>
        <time>2024-08-23T09:25:16.000Z</time>
      </trkpt>
      <trkpt lat="46.970571" lon="10.603545">
        <ele>1661.702186</ele>
        <time>2024-08-23T09:25:17.000Z</time>
      </trkpt>
      <trkpt lat="46.970598" lon="10.603582">
        <ele>1661.994455</ele>
        <time>2024-08-23T09:25:18.000Z</time>
      </trkpt>
      <trkpt lat="46.970617" lon="10.603607">
        <ele>1662.196345</ele>
        <time>2024-08-23T09:25:19.000Z</time>
      </trkpt>
      <trkpt lat="46.970634" lon="10.603636">
        <ele>1662.402612</ele>
        <time>2024-08-23T09:25:20.000Z</time>
      </trkpt>
      <trkpt lat="46.970650" lon="10.603663">
        <ele>1662.595545</ele>
        <time>2024-08-23T09:25:21.000Z</time>
      </trkpt>
      <trkpt lat="46.970674" lon="10.603704">
        <ele>1662.886986</ele>
        <time>2024-08-23T09:25:22.000Z</time>
      </trkpt>
      <trkpt lat="46.970691" lon="10.603727">
        <ele>1663.069919</ele>
        <time>2024-08-23T09:25:23.000Z</time>
      </trkpt>
      <trkpt lat="46.970710" lon="10.603748">
        <ele>1663.258078</ele>
        <time>2024-08-23T09:25:24.000Z</time>
      </trkpt>
      <trkpt lat="46.970730" lon="10.603773">
        <ele>1663.465918</ele>
        <time>2024-08-23T09:25:25.000Z</time>
      </trkpt>
      <trkpt lat="46.970751" lon="10.603797">
        <ele>1663.676476</ele>
        <time>2024-08-23T09:25:26.000Z</time>
      </trkpt>
      <trkpt lat="46.970779" lon="10.603840">
        <ele>1663.997148</ele>
        <time>2024-08-23T09:25:27.000Z</time>
      </trkpt>
      <trkpt lat="46.970796" lon="10.603870">
        <ele>1664.207536</ele>
        <time>2024-08-23T09:25:28.000Z</time>
      </trkpt>
      <trkpt lat="46.970811" lon="10.603898">
        <ele>1664.399593</ele>
        <time>2024-08-23T09:25:29.000Z</time>
      </trkpt>
      <trkpt lat="46.970827" lon="10.603924">
        <ele>1664.588485</ele>
        <time>2024-08-23T09:25:30.000Z</time>
      </trkpt>
      <trkpt lat="46.970844" lon="10.603952">
        <ele>1664.790690</ele>
        <time>2024-08-23T09:25:31.000Z</time>
      </trkpt>
      <trkpt lat="46.970870" lon="10.603994">
        <ele>1665.096639</ele>
        <time>2024-08-23T09:25:32.000Z</time>
      </trkpt>
      <trkpt lat="46.970888" lon="10.604022">
        <ele>1665.304184</ele>
        <time>2024-08-23T09:25:33.000Z</time>
      </trkpt>
      <trkpt lat="46.970905" lon="10.604048">
        <ele>1665.498460</ele>
        <time>2024-08-23T09:25:34.000Z</time>
      </trkpt>
      <trkpt lat="46.970921" lon="10.604074">
        <ele>1665.687352</ele>
        <time>2024-08-23T09:25:35.000Z</time>
      </trkpt>
      <trkpt lat="46.970944" lon="10.604115">
        <ele>1665.973707</ele>
        <time>2024-08-23T09:25:36.000Z</time>
      </trkpt>
      <trkpt lat="46.970959" lon="10.604140">
        <ele>1666.153311</ele>
        <time>2024-08-23T09:25:37.000Z</time>
      </trkpt>
      <trkpt lat="46.970975" lon="10.604169">
        <ele>1666.354515</ele>
        <time>2024-08-23T09:25:38.000Z</time>
      </trkpt>
      <trkpt lat="46.970990" lon="10.604198">
        <ele>1666.550844</ele>
        <time>2024-08-23T09:25:39.000Z</time>
      </trkpt>
      <trkpt lat="46.971015" lon="10.604245">
        <ele>1666.872355</ele>
        <time>2024-08-23T09:25:40.000Z</time>
      </trkpt>
      <trkpt lat="46.971032" lon="10.604276">
        <ele>1667.086921</ele>
        <time>2024-08-23T09:25:41.000Z</time>
      </trkpt>
      <trkpt lat="46.971048" lon="10.604306">
        <ele>1667.292348</ele>
        <time>2024-08-23T09:25:42.000Z</time>
      </trkpt>
      <trkpt lat="46.971064" lon="10.604336">
        <ele>1667.497774</ele>
        <time>2024-08-23T09:25:43.000Z</time>
      </trkpt>
      <trkpt lat="46.971081" lon="10.604368">
        <ele>1667.716572</ele>
        <time>2024-08-23T09:25:44.000Z</time>
      </trkpt>
      <trkpt lat="46.971102" lon="10.604415">
        <ele>1668.019667</ele>
        <time>2024-08-23T09:25:45.000Z</time>
      </trkpt>
      <trkpt lat="46.971115" lon="10.604446">
        <ele>1668.215976</ele>
        <time>2024-08-23T09:25:46.000Z</time>
      </trkpt>
      <trkpt lat="46.971130" lon="10.604477">
        <ele>1668.421007</ele>
        <time>2024-08-23T09:25:47.000Z</time>
      </trkpt>
      <trkpt lat="46.971142" lon="10.604511">
        <ele>1668.627526</ele>
        <time>2024-08-23T09:25:48.000Z</time>
      </trkpt>
      <trkpt lat="46.971161" lon="10.604560">
        <ele>1668.931589</ele>
        <time>2024-08-23T09:25:49.000Z</time>
      </trkpt>
      <trkpt lat="46.971175" lon="10.604593">
        <ele>1669.141233</ele>
        <time>2024-08-23T09:25:50.000Z</time>
      </trkpt>
      <trkpt lat="46.971188" lon="10.604626">
        <ele>1669.346812</ele>
        <time>2024-08-23T09:25:51.000Z</time>
      </trkpt>
      <trkpt lat="46.971200" lon="10.604660">
        <ele>1669.553331</ele>
        <time>2024-08-23T09:25:52.000Z</time>
      </trkpt>
      <trkpt lat="46.971212" lon="10.604693">
        <ele>1669.755073</ele>
        <time>2024-08-23T09:25:53.000Z</time>
      </trkpt>
      <trkpt lat="46.971229" lon="10.604746">
        <ele>1670.071030</ele>
        <time>2024-08-23T09:25:54.000Z</time>
      </trkpt>
      <trkpt lat="46.971241" lon="10.604779">
        <ele>1670.272772</ele>
        <time>2024-08-23T09:25:55.000Z</time>
      </trkpt>
      <trkpt lat="46.971255" lon="10.604814">
        <ele>1670.491653</ele>
        <time>2024-08-23T09:25:56.000Z</time>
      </trkpt>
      <trkpt lat="46.971269" lon="10.604849">
        <ele>1670.710535</ele>
        <time>2024-08-23T09:25:57.000Z</time>
      </trkpt>
      <trkpt lat="46.971284" lon="10.604895">
        <ele>1670.985592</ele>
        <time>2024-08-23T09:25:58.000Z</time>
      </trkpt>
      <trkpt lat="46.971295" lon="10.604924">
        <ele>1671.164330</ele>
        <time>2024-08-23T09:25:59.000Z</time>
      </trkpt>
      <trkpt lat="46.971305" lon="10.604951">
        <ele>1671.320012</ele>
        <time>2024-08-23T09:26:00.000Z</time>
      </trkpt>
      <trkpt lat="46.971318" lon="10.604977">
        <ele>1671.483357</ele>
        <time>2024-08-23T09:26:01.000Z</time>
      </trkpt>
      <trkpt lat="46.971327" lon="10.605006">
        <ele>1671.644805</ele>
        <time>2024-08-23T09:26:02.000Z</time>
      </trkpt>
      <trkpt lat="46.971342" lon="10.605048">
        <ele>1671.885037</ele>
        <time>2024-08-23T09:26:03.000Z</time>
      </trkpt>
      <trkpt lat="46.971352" lon="10.605078">
        <ele>1672.054237</ele>
        <time>2024-08-23T09:26:04.000Z</time>
      </trkpt>
      <trkpt lat="46.971362" lon="10.605108">
        <ele>1672.223437</ele>
        <time>2024-08-23T09:26:05.000Z</time>
      </trkpt>
      <trkpt lat="46.971372" lon="10.605140">
        <ele>1672.401798</ele>
        <time>2024-08-23T09:26:06.000Z</time>
      </trkpt>
      <trkpt lat="46.971381" lon="10.605170">
        <ele>1672.567872</ele>
        <time>2024-08-23T09:26:07.000Z</time>
      </trkpt>
      <trkpt lat="46.971395" lon="10.605216">
        <ele>1672.823120</ele>
        <time>2024-08-23T09:26:08.000Z</time>
      </trkpt>
      <trkpt lat="46.971404" lon="10.605242">
        <ele>1672.970863</ele>
        <time>2024-08-23T09:26:09.000Z</time>
      </trkpt>
      <trkpt lat="46.971416" lon="10.605271">
        <ele>1673.142736</ele>
        <time>2024-08-23T09:26:10.000Z</time>
      </trkpt>
      <trkpt lat="46.971427" lon="10.605300">
        <ele>1673.310877</ele>
        <time>2024-08-23T09:26:11.000Z</time>
      </trkpt>
      <trkpt lat="46.971447" lon="10.605346">
        <ele>1673.587288</ele>
        <time>2024-08-23T09:26:12.000Z</time>
      </trkpt>
      <trkpt lat="46.971459" lon="10.605376">
        <ele>1673.763513</ele>
        <time>2024-08-23T09:26:13.000Z</time>
      </trkpt>
      <trkpt lat="46.971469" lon="10.605409">
        <ele>1673.946494</ele>
        <time>2024-08-23T09:26:14.000Z</time>
      </trkpt>
      <trkpt lat="46.971480" lon="10.605440">
        <ele>1674.123562</ele>
        <time>2024-08-23T09:26:15.000Z</time>
      </trkpt>
      <trkpt lat="46.971495" lon="10.605487">
        <ele>1674.386506</ele>
        <time>2024-08-23T09:26:16.000Z</time>
      </trkpt>
      <trkpt lat="46.971507" lon="10.605519">
        <ele>1674.571545</ele>
        <time>2024-08-23T09:26:17.000Z</time>
      </trkpt>
      <trkpt lat="46.971519" lon="10.605553">
        <ele>1674.765529</ele>
        <time>2024-08-23T09:26:18.000Z</time>
      </trkpt>
      <trkpt lat="46.971531" lon="10.605584">
        <ele>1674.946143</ele>
        <time>2024-08-23T09:26:19.000Z</time>
      </trkpt>
      <trkpt lat="46.971544" lon="10.605614">
        <ele>1675.126238</ele>
        <time>2024-08-23T09:26:20.000Z</time>
      </trkpt>
      <trkpt lat="46.971561" lon="10.605657">
        <ele>1675.378079</ele>
        <time>2024-08-23T09:26:21.000Z</time>
      </trkpt>
      <trkpt lat="46.971570" lon="10.605685">
        <ele>1675.534927</ele>
        <time>2024-08-23T09:26:22.000Z</time>
      </trkpt>
      <trkpt lat="46.971583" lon="10.605717">
        <ele>1675.723656</ele>
        <time>2024-08-23T09:26:23.000Z</time>
      </trkpt>
      <trkpt lat="46.971596" lon="10.605745">
        <ele>1675.895280</ele>
        <time>2024-08-23T09:26:24.000Z</time>
      </trkpt>
      <trkpt lat="46.971612" lon="10.605775">
        <ele>1676.088237</ele>
        <time>2024-08-23T09:26:25.000Z</time>
      </trkpt>
      <trkpt lat="46.971632" lon="10.605820">
        <ele>1676.360387</ele>
        <time>2024-08-23T09:26:26.000Z</time>
      </trkpt>
      <trkpt lat="46.971650" lon="10.605846">
        <ele>1676.548085</ele>
        <time>2024-08-23T09:26:27.000Z</time>
      </trkpt>
      <trkpt lat="46.971668" lon="10.605874">
        <ele>1676.743031</ele>
        <time>2024-08-23T09:26:28.000Z</time>
      </trkpt>
      <trkpt lat="46.971686" lon="10.605898">
        <ele>1676.923758</ele>
        <time>2024-08-23T09:26:29.000Z</time>
      </trkpt>
      <trkpt lat="46.971717" lon="10.605935">
        <ele>1677.220677</ele>
        <time>2024-08-23T09:26:30.000Z</time>
      </trkpt>
      <trkpt lat="46.971738" lon="10.605959">
        <ele>1677.418453</ele>
        <time>2024-08-23T09:26:31.000Z</time>
      </trkpt>
      <trkpt lat="46.971760" lon="10.605982">
        <ele>1677.619151</ele>
        <time>2024-08-23T09:26:32.000Z</time>
      </trkpt>
      <trkpt lat="46.971782" lon="10.606006">
        <ele>1677.822835</ele>
        <time>2024-08-23T09:26:33.000Z</time>
      </trkpt>
      <trkpt lat="46.971815" lon="10.606029">
        <ele>1678.094218</ele>
        <time>2024-08-23T09:26:34.000Z</time>
      </trkpt>
      <trkpt lat="46.971837" lon="10.606043">
        <ele>1678.272342</ele>
        <time>2024-08-23T09:26:35.000Z</time>
      </trkpt>
      <trkpt lat="46.971861" lon="10.606061">
        <ele>1678.472566</ele>
        <time>2024-08-23T09:26:36.000Z</time>
      </trkpt>
      <trkpt lat="46.971886" lon="10.606079">
        <ele>1678.679429</ele>
        <time>2024-08-23T09:26:37.000Z</time>
      </trkpt>
      <trkpt lat="46.971909" lon="10.606094">
        <ele>1678.866391</ele>
        <time>2024-08-23T09:26:38.000Z</time>
      </trkpt>
      <trkpt lat="46.971946" lon="10.606116">
        <ele>1679.162932</ele>
        <time>2024-08-23T09:26:39.000Z</time>
      </trkpt>
      <trkpt lat="46.971972" lon="10.606130">
        <ele>1679.368645</ele>
        <time>2024-08-23T09:26:40.000Z</time>
      </trkpt>
      <trkpt lat="46.971998" lon="10.606141">
        <ele>1679.569622</ele>
        <time>2024-08-23T09:26:41.000Z</time>
      </trkpt>
      <trkpt lat="46.972022" lon="10.606155">
        <ele>1679.761462</ele>
        <time>2024-08-23T09:26:42.000Z</time>
      </trkpt>
      <trkpt lat="46.972061" lon="10.606171">
        <ele>1680.062235</ele>
        <time>2024-08-23T09:26:43.000Z</time>
      </trkpt>
      <trkpt lat="46.972086" lon="10.606184">
        <ele>1680.259242</ele>
        <time>2024-08-23T09:26:44.000Z</time>
      </trkpt>
      <trkpt lat="46.972111" lon="10.606195">
        <ele>1680.453095</ele>
        <time>2024-08-23T09:26:45.000Z</time>
      </trkpt>
      <trkpt lat="46.972136" lon="10.606205">
        <ele>1680.645552</ele>
        <time>2024-08-23T09:26:46.000Z</time>
      </trkpt>
      <trkpt lat="46.972163" lon="10.606213">
        <ele>1680.850128</ele>
        <time>2024-08-23T09:26:47.000Z</time>
      </trkpt>
      <trkpt lat="46.972199" lon="10.606227">
        <ele>1681.126740</ele>
        <time>2024-08-23T09:26:48.000Z</time>
      </trkpt>
      <trkpt lat="46.972221" lon="10.606242">
        <ele>1681.306942</ele>
        <time>2024-08-23T09:26:49.000Z</time>
      </trkpt>
      <trkpt lat="46.972245" lon="10.606258">
        <ele>1681.502756</ele>
        <time>2024-08-23T09:26:50.000Z</time>
      </trkpt>
      <trkpt lat="46.972272" lon="10.606268">
        <ele>1681.709580</ele>
        <time>2024-08-23T09:26:51.000Z</time>
      </trkpt>
      <trkpt lat="46.972298" lon="10.606279">
        <ele>1681.910557</ele>
        <time>2024-08-23T09:26:52.000Z</time>
      </trkpt>
      <trkpt lat="46.972335" lon="10.606289">
        <ele>1682.189976</ele>
        <time>2024-08-23T09:26:53.000Z</time>
      </trkpt>
      <trkpt lat="46.972359" lon="10.606300">
        <ele>1682.376728</ele>
        <time>2024-08-23T09:26:54.000Z</time>
      </trkpt>
      <trkpt lat="46.972381" lon="10.606309">
        <ele>1682.546360</ele>
        <time>2024-08-23T09:26:55.000Z</time>
      </trkpt>
      <trkpt lat="46.972405" lon="10.606317">
        <ele>1682.729151</ele>
        <time>2024-08-23T09:26:56.000Z</time>
      </trkpt>
      <trkpt lat="46.972437" lon="10.606325">
        <ele>1682.970236</ele>
        <time>2024-08-23T09:26:57.000Z</time>
      </trkpt>
      <trkpt lat="46.972459" lon="10.606333">
        <ele>1683.138576</ele>
        <time>2024-08-23T09:26:58.000Z</time>
      </trkpt>
      <trkpt lat="46.972482" lon="10.606341">
        <ele>1683.314133</ele>
        <time>2024-08-23T09:26:59.000Z</time>
      </trkpt>
      <trkpt lat="46.972505" lon="10.606348">
        <ele>1683.488590</ele>
        <time>2024-08-23T09:27:00.000Z</time>
      </trkpt>
      <trkpt lat="46.972539" lon="10.606362">
        <ele>1683.750872</ele>
        <time>2024-08-23T09:27:01.000Z</time>
      </trkpt>
      <trkpt lat="46.972559" lon="10.606369">
        <ele>1683.903582</ele>
        <time>2024-08-23T09:27:02.000Z</time>
      </trkpt>
      <trkpt lat="46.972583" lon="10.606379">
        <ele>1684.088885</ele>
        <time>2024-08-23T09:27:03.000Z</time>
      </trkpt>
      <trkpt lat="46.972605" lon="10.606388">
        <ele>1684.258516</ele>
        <time>2024-08-23T09:27:04.000Z</time>
      </trkpt>
      <trkpt lat="46.972629" lon="10.606394">
        <ele>1684.439330</ele>
        <time>2024-08-23T09:27:05.000Z</time>
      </trkpt>
      <trkpt lat="46.972660" lon="10.606406">
        <ele>1684.710310</ele>
        <time>2024-08-23T09:27:06.000Z</time>
      </trkpt>
      <trkpt lat="46.972683" lon="10.606417">
        <ele>1684.927016</ele>
        <time>2024-08-23T09:27:07.000Z</time>
      </trkpt>
      <trkpt lat="46.972705" lon="10.606429">
        <ele>1685.137279</ele>
        <time>2024-08-23T09:27:08.000Z</time>
      </trkpt>
      <trkpt lat="46.972726" lon="10.606439">
        <ele>1685.335060</ele>
        <time>2024-08-23T09:27:09.000Z</time>
      </trkpt>
      <trkpt lat="46.972760" lon="10.606453">
        <ele>1685.651394</ele>
        <time>2024-08-23T09:27:10.000Z</time>
      </trkpt>
      <trkpt lat="46.972782" lon="10.606463">
        <ele>1685.857712</ele>
        <time>2024-08-23T09:27:11.000Z</time>
      </trkpt>
      <trkpt lat="46.972803" lon="10.606470">
        <ele>1686.050616</ele>
        <time>2024-08-23T09:27:12.000Z</time>
      </trkpt>
      <trkpt lat="46.972826" lon="10.606480">
        <ele>1686.265505</ele>
        <time>2024-08-23T09:27:13.000Z</time>
      </trkpt>
      <trkpt lat="46.972848" lon="10.606484">
        <ele>1686.464072</ele>
        <time>2024-08-23T09:27:14.000Z</time>
      </trkpt>
      <trkpt lat="46.972882" lon="10.606497">
        <ele>1686.778809</ele>
        <time>2024-08-23T09:27:15.000Z</time>
      </trkpt>
      <trkpt lat="46.972905" lon="10.606506">
        <ele>1686.992040</ele>
        <time>2024-08-23T09:27:16.000Z</time>
      </trkpt>
      <trkpt lat="46.972928" lon="10.606517">
        <ele>1687.208747</ele>
        <time>2024-08-23T09:27:17.000Z</time>
      </trkpt>
      <trkpt lat="46.972950" lon="10.606528">
        <ele>1687.416956</ele>
        <time>2024-08-23T09:27:18.000Z</time>
      </trkpt>
      <trkpt lat="46.972972" lon="10.606536">
        <ele>1687.619989</ele>
        <time>2024-08-23T09:27:19.000Z</time>
      </trkpt>
      <trkpt lat="46.973004" lon="10.606547">
        <ele>1687.914396</ele>
        <time>2024-08-23T09:27:20.000Z</time>
      </trkpt>
      <trkpt lat="46.973028" lon="10.606556">
        <ele>1688.136293</ele>
        <time>2024-08-23T09:27:21.000Z</time>
      </trkpt>
      <trkpt lat="46.973050" lon="10.606563">
        <ele>1688.337941</ele>
        <time>2024-08-23T09:27:22.000Z</time>
      </trkpt>
      <trkpt lat="46.973072" lon="10.606570">
        <ele>1688.539589</ele>
        <time>2024-08-23T09:27:23.000Z</time>
      </trkpt>
      <trkpt lat="46.973104" lon="10.606581">
        <ele>1688.833996</ele>
        <time>2024-08-23T09:27:24.000Z</time>
      </trkpt>
      <trkpt lat="46.973125" lon="10.606589">
        <ele>1689.028347</ele>
        <time>2024-08-23T09:27:25.000Z</time>
      </trkpt>
      <trkpt lat="46.973147" lon="10.606595">
        <ele>1689.228787</ele>
        <time>2024-08-23T09:27:26.000Z</time>
      </trkpt>
      <trkpt lat="46.973170" lon="10.606600">
        <ele>1689.437055</ele>
        <time>2024-08-23T09:27:27.000Z</time>
      </trkpt>
      <trkpt lat="46.973203" lon="10.606611">
        <ele>1689.740189</ele>
        <time>2024-08-23T09:27:28.000Z</time>
      </trkpt>
      <trkpt lat="46.973225" lon="10.606617">
        <ele>1689.940629</ele>
        <time>2024-08-23T09:27:29.000Z</time>
      </trkpt>
      <trkpt lat="46.973246" lon="10.606624">
        <ele>1690.133533</ele>
        <time>2024-08-23T09:27:30.000Z</time>
      </trkpt>
      <trkpt lat="46.973269" lon="10.606631">
        <ele>1690.343943</ele>
        <time>2024-08-23T09:27:31.000Z</time>
      </trkpt>
      <trkpt lat="46.973290" lon="10.606638">
        <ele>1690.536847</ele>
        <time>2024-08-23T09:27:32.000Z</time>
      </trkpt>
      <trkpt lat="46.973322" lon="10.606646">
        <ele>1690.827615</ele>
        <time>2024-08-23T09:27:33.000Z</time>
      </trkpt>
      <trkpt lat="46.973344" lon="10.606653">
        <ele>1691.029263</ele>
        <time>2024-08-23T09:27:34.000Z</time>
      </trkpt>
      <trkpt lat="46.973365" lon="10.606663">
        <ele>1691.227043</ele>
        <time>2024-08-23T09:27:35.000Z</time>
      </trkpt>
      <trkpt lat="46.973385" lon="10.606671">
        <ele>1691.412738</ele>
        <time>2024-08-23T09:27:36.000Z</time>
      </trkpt>
      <trkpt lat="46.973406" lon="10.606677">
        <ele>1691.604379</ele>
        <time>2024-08-23T09:27:37.000Z</time>
      </trkpt>
      <trkpt lat="46.973439" lon="10.606686">
        <ele>1691.905039</ele>
        <time>2024-08-23T09:27:38.000Z</time>
      </trkpt>
      <trkpt lat="46.973462" lon="10.606692">
        <ele>1692.114292</ele>
        <time>2024-08-23T09:27:39.000Z</time>
      </trkpt>
      <trkpt lat="46.973484" lon="10.606701">
        <ele>1692.318882</ele>
        <time>2024-08-23T09:27:40.000Z</time>
      </trkpt>
      <trkpt lat="46.973507" lon="10.606709">
        <ele>1692.530618</ele>
        <time>2024-08-23T09:27:41.000Z</time>
      </trkpt>
      <trkpt lat="46.973541" lon="10.606717">
        <ele>1692.839061</ele>
        <time>2024-08-23T09:27:42.000Z</time>
      </trkpt>
      <trkpt lat="46.973566" lon="10.606721">
        <ele>1693.064320</ele>
        <time>2024-08-23T09:27:43.000Z</time>
      </trkpt>
      <trkpt lat="46.973590" lon="10.606725">
        <ele>1693.280677</ele>
        <time>2024-08-23T09:27:44.000Z</time>
      </trkpt>
      <trkpt lat="46.973614" lon="10.606728">
        <ele>1693.496428</ele>
        <time>2024-08-23T09:27:45.000Z</time>
      </trkpt>
      <trkpt lat="46.973647" lon="10.606734">
        <ele>1693.794280</ele>
        <time>2024-08-23T09:27:46.000Z</time>
      </trkpt>
      <trkpt lat="46.973667" lon="10.606742">
        <ele>1693.979975</ele>
        <time>2024-08-23T09:27:47.000Z</time>
      </trkpt>
      <trkpt lat="46.973685" lon="10.606749">
        <ele>1694.146783</ele>
        <time>2024-08-23T09:27:48.000Z</time>
      </trkpt>
      <trkpt lat="46.973701" lon="10.606756">
        <ele>1694.296347</ele>
        <time>2024-08-23T09:27:49.000Z</time>
      </trkpt>
      <trkpt lat="46.973713" lon="10.606762">
        <ele>1694.409915</ele>
        <time>2024-08-23T09:27:50.000Z</time>
      </trkpt>
      <trkpt lat="46.973729" lon="10.606769">
        <ele>1694.559479</ele>
        <time>2024-08-23T09:27:51.000Z</time>
      </trkpt>
      <trkpt lat="46.973736" lon="10.606767">
        <ele>1694.623359</ele>
        <time>2024-08-23T09:27:52.000Z</time>
      </trkpt>
      <trkpt lat="46.973739" lon="10.606767">
        <ele>1694.650231</ele>
        <time>2024-08-23T09:27:53.000Z</time>
      </trkpt>
      <trkpt lat="46.973738" lon="10.606764">
        <ele>1694.670637</ele>
        <time>2024-08-23T09:27:54.000Z</time>
      </trkpt>
      <trkpt lat="46.973753" lon="10.606778">
        <ele>1694.829926</ele>
        <time>2024-08-23T09:27:54.000Z</time>
      </trkpt>
      <trkpt lat="46.973818" lon="10.606766">
        <ele>1695.416741</ele>
        <time>2024-08-23T09:29:41.000Z</time>
      </trkpt>
      <trkpt lat="46.973835" lon="10.606769">
        <ele>1695.570112</ele>
        <time>2024-08-23T09:29:42.000Z</time>
      </trkpt>
      <trkpt lat="46.973855" lon="10.606772">
        <ele>1695.750191</ele>
        <time>2024-08-23T09:29:43.000Z</time>
      </trkpt>
      <trkpt lat="46.973889" lon="10.606777">
        <ele>1696.056262</ele>
        <time>2024-08-23T09:29:44.000Z</time>
      </trkpt>
      <trkpt lat="46.973914" lon="10.606785">
        <ele>1696.285467</ele>
        <time>2024-08-23T09:29:45.000Z</time>
      </trkpt>
      <trkpt lat="46.973937" lon="10.606799">
        <ele>1696.508543</ele>
        <time>2024-08-23T09:29:46.000Z</time>
      </trkpt>
      <trkpt lat="46.973961" lon="10.606814">
        <ele>1696.742246</ele>
        <time>2024-08-23T09:29:47.000Z</time>
      </trkpt>
      <trkpt lat="46.973997" lon="10.606834">
        <ele>1697.087093</ele>
        <time>2024-08-23T09:29:48.000Z</time>
      </trkpt>
      <trkpt lat="46.974021" lon="10.606848">
        <ele>1697.318467</ele>
        <time>2024-08-23T09:29:49.000Z</time>
      </trkpt>
      <trkpt lat="46.974047" lon="10.606859">
        <ele>1697.560862</ele>
        <time>2024-08-23T09:29:50.000Z</time>
      </trkpt>
      <trkpt lat="46.974074" lon="10.606874">
        <ele>1697.819497</ele>
        <time>2024-08-23T09:29:51.000Z</time>
      </trkpt>
      <trkpt lat="46.974112" lon="10.606895">
        <ele>1698.183263</ele>
        <time>2024-08-23T09:29:52.000Z</time>
      </trkpt>
      <trkpt lat="46.974137" lon="10.606911">
        <ele>1698.427611</ele>
        <time>2024-08-23T09:29:53.000Z</time>
      </trkpt>
      <trkpt lat="46.974161" lon="10.606928">
        <ele>1698.666374</ele>
        <time>2024-08-23T09:29:54.000Z</time>
      </trkpt>
      <trkpt lat="46.974185" lon="10.606944">
        <ele>1698.902541</ele>
        <time>2024-08-23T09:29:55.000Z</time>
      </trkpt>
      <trkpt lat="46.974210" lon="10.606960">
        <ele>1699.146890</ele>
        <time>2024-08-23T09:29:56.000Z</time>
      </trkpt>
      <trkpt lat="46.974246" lon="10.606987">
        <ele>1699.509117</ele>
        <time>2024-08-23T09:29:57.000Z</time>
      </trkpt>
      <trkpt lat="46.974271" lon="10.607007">
        <ele>1699.764235</ele>
        <time>2024-08-23T09:29:58.000Z</time>
      </trkpt>
      <trkpt lat="46.974296" lon="10.607026">
        <ele>1700.016481</ele>
        <time>2024-08-23T09:29:59.000Z</time>
      </trkpt>
      <trkpt lat="46.974319" lon="10.607047">
        <ele>1700.259204</ele>
        <time>2024-08-23T09:30:00.000Z</time>
      </trkpt>
      <trkpt lat="46.974353" lon="10.607081">
        <ele>1700.627885</ele>
        <time>2024-08-23T09:30:01.000Z</time>
      </trkpt>
      <trkpt lat="46.974377" lon="10.607103">
        <ele>1700.756568</ele>
        <time>2024-08-23T09:30:02.000Z</time>
      </trkpt>
      <trkpt lat="46.974400" lon="10.607125">
        <ele>1700.881032</ele>
        <time>2024-08-23T09:30:03.000Z</time>
      </trkpt>
      <trkpt lat="46.974423" lon="10.607148">
        <ele>1701.007212</ele>
        <time>2024-08-23T09:30:04.000Z</time>
      </trkpt>
      <trkpt lat="46.974445" lon="10.607170">
        <ele>1701.127907</ele>
        <time>2024-08-23T09:30:05.000Z</time>
      </trkpt>
      <trkpt lat="46.974479" lon="10.607206">
        <ele>1701.317988</ele>
        <time>2024-08-23T09:30:06.000Z</time>
      </trkpt>
      <trkpt lat="46.974501" lon="10.607232">
        <ele>1701.446062</ele>
        <time>2024-08-23T09:30:07.000Z</time>
      </trkpt>
      <trkpt lat="46.974523" lon="10.607252">
        <ele>1701.563382</ele>
        <time>2024-08-23T09:30:08.000Z</time>
      </trkpt>
      <trkpt lat="46.974544" lon="10.607270">
        <ele>1701.673628</ele>
        <time>2024-08-23T09:30:09.000Z</time>
      </trkpt>
      <trkpt lat="46.974579" lon="10.607304">
        <ele>1701.863916</ele>
        <time>2024-08-23T09:30:10.000Z</time>
      </trkpt>
      <trkpt lat="46.974601" lon="10.607328">
        <ele>1701.988201</ele>
        <time>2024-08-23T09:30:11.000Z</time>
      </trkpt>
      <trkpt lat="46.974624" lon="10.607355">
        <ele>1702.121744</ele>
        <time>2024-08-23T09:30:12.000Z</time>
      </trkpt>
      <trkpt lat="46.974646" lon="10.607380">
        <ele>1702.247899</ele>
        <time>2024-08-23T09:30:13.000Z</time>
      </trkpt>
      <trkpt lat="46.974670" lon="10.607399">
        <ele>1702.371513</ele>
        <time>2024-08-23T09:30:14.000Z</time>
      </trkpt>
      <trkpt lat="46.974705" lon="10.607435">
        <ele>1702.565286</ele>
        <time>2024-08-23T09:30:15.000Z</time>
      </trkpt>
      <trkpt lat="46.974725" lon="10.607452">
        <ele>1702.670060</ele>
        <time>2024-08-23T09:30:16.000Z</time>
      </trkpt>
      <trkpt lat="46.974744" lon="10.607469">
        <ele>1702.770940</ele>
        <time>2024-08-23T09:30:17.000Z</time>
      </trkpt>
      <trkpt lat="46.974763" lon="10.607491">
        <ele>1702.880672</ele>
        <time>2024-08-23T09:30:18.000Z</time>
      </trkpt>
      <trkpt lat="46.974796" lon="10.607521">
        <ele>1703.056652</ele>
        <time>2024-08-23T09:30:19.000Z</time>
      </trkpt>
      <trkpt lat="46.974817" lon="10.607543">
        <ele>1703.173630</ele>
        <time>2024-08-23T09:30:20.000Z</time>
      </trkpt>
      <trkpt lat="46.974839" lon="10.607566">
        <ele>1703.296094</ele>
        <time>2024-08-23T09:30:21.000Z</time>
      </trkpt>
      <trkpt lat="46.974861" lon="10.607588">
        <ele>1703.416788</ele>
        <time>2024-08-23T09:30:22.000Z</time>
      </trkpt>
      <trkpt lat="46.974885" lon="10.607611">
        <ele>1703.546736</ele>
        <time>2024-08-23T09:30:23.000Z</time>
      </trkpt>
      <trkpt lat="46.974921" lon="10.607644">
        <ele>1703.739160</ele>
        <time>2024-08-23T09:30:24.000Z</time>
      </trkpt>
      <trkpt lat="46.974944" lon="10.607667">
        <ele>1703.865340</ele>
        <time>2024-08-23T09:30:25.000Z</time>
      </trkpt>
      <trkpt lat="46.974967" lon="10.607691">
        <ele>1703.993288</ele>
        <time>2024-08-23T09:30:26.000Z</time>
      </trkpt>
      <trkpt lat="46.974989" lon="10.607712">
        <ele>1704.112267</ele>
        <time>2024-08-23T09:30:27.000Z</time>
      </trkpt>
      <trkpt lat="46.975011" lon="10.607733">
        <ele>1704.231245</ele>
        <time>2024-08-23T09:30:28.000Z</time>
      </trkpt>
      <trkpt lat="46.975047" lon="10.607769">
        <ele>1704.428744</ele>
        <time>2024-08-23T09:30:29.000Z</time>
      </trkpt>
      <trkpt lat="46.975071" lon="10.607792">
        <ele>1704.558693</ele>
        <time>2024-08-23T09:30:30.000Z</time>
      </trkpt>
      <trkpt lat="46.975095" lon="10.607815">
        <ele>1704.688641</ele>
        <time>2024-08-23T09:30:31.000Z</time>
      </trkpt>
      <trkpt lat="46.975117" lon="10.607835">
        <ele>1704.805961</ele>
        <time>2024-08-23T09:30:32.000Z</time>
      </trkpt>
      <trkpt lat="46.975157" lon="10.607870">
        <ele>1705.017077</ele>
        <time>2024-08-23T09:30:33.000Z</time>
      </trkpt>
      <trkpt lat="46.975184" lon="10.607893">
        <ele>1705.158600</ele>
        <time>2024-08-23T09:30:34.000Z</time>
      </trkpt>
      <trkpt lat="46.975211" lon="10.607917">
        <ele>1705.301701</ele>
        <time>2024-08-23T09:30:35.000Z</time>
      </trkpt>
      <trkpt lat="46.975235" lon="10.607943">
        <ele>1705.436949</ele>
        <time>2024-08-23T09:30:36.000Z</time>
      </trkpt>
      <trkpt lat="46.975262" lon="10.607967">
        <ele>1705.580050</ele>
        <time>2024-08-23T09:30:37.000Z</time>
      </trkpt>
      <trkpt lat="46.975303" lon="10.608008">
        <ele>1705.804979</ele>
        <time>2024-08-23T09:30:38.000Z</time>
      </trkpt>
      <trkpt lat="46.975330" lon="10.608036">
        <ele>1705.954868</ele>
        <time>2024-08-23T09:30:39.000Z</time>
      </trkpt>
      <trkpt lat="46.975356" lon="10.608065">
        <ele>1706.102932</ele>
        <time>2024-08-23T09:30:40.000Z</time>
      </trkpt>
      <trkpt lat="46.975385" lon="10.608093">
        <ele>1706.260306</ele>
        <time>2024-08-23T09:30:41.000Z</time>
      </trkpt>
      <trkpt lat="46.975426" lon="10.608135">
        <ele>1706.486993</ele>
        <time>2024-08-23T09:30:42.000Z</time>
      </trkpt>
      <trkpt lat="46.975453" lon="10.608168">
        <ele>1706.646312</ele>
        <time>2024-08-23T09:30:43.000Z</time>
      </trkpt>
      <trkpt lat="46.975481" lon="10.608202">
        <ele>1706.811092</ele>
        <time>2024-08-23T09:30:44.000Z</time>
      </trkpt>
      <trkpt lat="46.975507" lon="10.608232">
        <ele>1706.961049</ele>
        <time>2024-08-23T09:30:45.000Z</time>
      </trkpt>
      <trkpt lat="46.975533" lon="10.608262">
        <ele>1707.111006</ele>
        <time>2024-08-23T09:30:46.000Z</time>
      </trkpt>
      <trkpt lat="46.975570" lon="10.608310">
        <ele>1707.334930</ele>
        <time>2024-08-23T09:30:47.000Z</time>
      </trkpt>
      <trkpt lat="46.975592" lon="10.608343">
        <ele>1707.477587</ele>
        <time>2024-08-23T09:30:48.000Z</time>
      </trkpt>
      <trkpt lat="46.975613" lon="10.608373">
        <ele>1707.610482</ele>
        <time>2024-08-23T09:30:49.000Z</time>
      </trkpt>
      <trkpt lat="46.975633" lon="10.608407">
        <ele>1707.749287</ele>
        <time>2024-08-23T09:30:50.000Z</time>
      </trkpt>
      <trkpt lat="46.975661" lon="10.608458">
        <ele>1707.951691</ele>
        <time>2024-08-23T09:30:51.000Z</time>
      </trkpt>
      <trkpt lat="46.975679" lon="10.608495">
        <ele>1708.092198</ele>
        <time>2024-08-23T09:30:52.000Z</time>
      </trkpt>
      <trkpt lat="46.975699" lon="10.608532">
        <ele>1708.238153</ele>
        <time>2024-08-23T09:30:53.000Z</time>
      </trkpt>
      <trkpt lat="46.975716" lon="10.608565">
        <ele>1708.366007</ele>
        <time>2024-08-23T09:30:54.000Z</time>
      </trkpt>
      <trkpt lat="46.975742" lon="10.608620">
        <ele>1708.572896</ele>
        <time>2024-08-23T09:30:55.000Z</time>
      </trkpt>
      <trkpt lat="46.975758" lon="10.608658">
        <ele>1708.710964</ele>
        <time>2024-08-23T09:30:56.000Z</time>
      </trkpt>
      <trkpt lat="46.975775" lon="10.608697">
        <ele>1708.789920</ele>
        <time>2024-08-23T09:30:57.000Z</time>
      </trkpt>
      <trkpt lat="46.975792" lon="10.608732">
        <ele>1708.808318</ele>
        <time>2024-08-23T09:30:58.000Z</time>
      </trkpt>
      <trkpt lat="46.975810" lon="10.608768">
        <ele>1708.827431</ele>
        <time>2024-08-23T09:30:59.000Z</time>
      </trkpt>
      <trkpt lat="46.975836" lon="10.608827">
        <ele>1708.857507</ele>
        <time>2024-08-23T09:31:00.000Z</time>
      </trkpt>
      <trkpt lat="46.975855" lon="10.608867">
        <ele>1708.878379</ele>
        <time>2024-08-23T09:31:01.000Z</time>
      </trkpt>
      <trkpt lat="46.975872" lon="10.608908">
        <ele>1708.898924</ele>
        <time>2024-08-23T09:31:02.000Z</time>
      </trkpt>
      <trkpt lat="46.975889" lon="10.608947">
        <ele>1708.918742</ele>
        <time>2024-08-23T09:31:03.000Z</time>
      </trkpt>
      <trkpt lat="46.975905" lon="10.608986">
        <ele>1708.938229</ele>
        <time>2024-08-23T09:31:04.000Z</time>
      </trkpt>
      <trkpt lat="46.975928" lon="10.609047">
        <ele>1708.968074</ele>
        <time>2024-08-23T09:31:05.000Z</time>
      </trkpt>
      <trkpt lat="46.975943" lon="10.609092">
        <ele>1708.989521</ele>
        <time>2024-08-23T09:31:06.000Z</time>
      </trkpt>
      <trkpt lat="46.975958" lon="10.609134">
        <ele>1709.009821</ele>
        <time>2024-08-23T09:31:07.000Z</time>
      </trkpt>
      <trkpt lat="46.975970" lon="10.609176">
        <ele>1709.029320</ele>
        <time>2024-08-23T09:31:08.000Z</time>
      </trkpt>
      <trkpt lat="46.975991" lon="10.609243">
        <ele>1709.060894</ele>
        <time>2024-08-23T09:31:09.000Z</time>
      </trkpt>
      <trkpt lat="46.976005" lon="10.609288">
        <ele>1709.082072</ele>
        <time>2024-08-23T09:31:10.000Z</time>
      </trkpt>
      <trkpt lat="46.976021" lon="10.609330">
        <ele>1709.102671</ele>
        <time>2024-08-23T09:31:11.000Z</time>
      </trkpt>
      <trkpt lat="46.976035" lon="10.609374">
        <ele>1709.123461</ele>
        <time>2024-08-23T09:31:12.000Z</time>
      </trkpt>
      <trkpt lat="46.976048" lon="10.609419">
        <ele>1709.144388</ele>
        <time>2024-08-23T09:31:13.000Z</time>
      </trkpt>
      <trkpt lat="46.976072" lon="10.609494">
        <ele>1709.179861</ele>
        <time>2024-08-23T09:31:14.000Z</time>
      </trkpt>
      <trkpt lat="46.976086" lon="10.609546">
        <ele>1709.203800</ele>
        <time>2024-08-23T09:31:15.000Z</time>
      </trkpt>
      <trkpt lat="46.976100" lon="10.609595">
        <ele>1709.226548</ele>
        <time>2024-08-23T09:31:16.000Z</time>
      </trkpt>
      <trkpt lat="46.976115" lon="10.609643">
        <ele>1709.249157</ele>
        <time>2024-08-23T09:31:17.000Z</time>
      </trkpt>
      <trkpt lat="46.976137" lon="10.609716">
        <ele>1709.283331</ele>
        <time>2024-08-23T09:31:18.000Z</time>
      </trkpt>
      <trkpt lat="46.976150" lon="10.609763">
        <ele>1709.305048</ele>
        <time>2024-08-23T09:31:19.000Z</time>
      </trkpt>
      <trkpt lat="46.976164" lon="10.609811">
        <ele>1709.327402</ele>
        <time>2024-08-23T09:31:20.000Z</time>
      </trkpt>
      <trkpt lat="46.976181" lon="10.609857">
        <ele>1709.349804</ele>
        <time>2024-08-23T09:31:21.000Z</time>
      </trkpt>
      <trkpt lat="46.976207" lon="10.609936">
        <ele>1709.387364</ele>
        <time>2024-08-23T09:31:22.000Z</time>
      </trkpt>
      <trkpt lat="46.976224" lon="10.609990">
        <ele>1709.412831</ele>
        <time>2024-08-23T09:31:23.000Z</time>
      </trkpt>
      <trkpt lat="46.976242" lon="10.610044">
        <ele>1709.438567</ele>
        <time>2024-08-23T09:31:24.000Z</time>
      </trkpt>
      <trkpt lat="46.976258" lon="10.610099">
        <ele>1709.464171</ele>
        <time>2024-08-23T09:31:25.000Z</time>
      </trkpt>
      <trkpt lat="46.976276" lon="10.610154">
        <ele>1709.490292</ele>
        <time>2024-08-23T09:31:26.000Z</time>
      </trkpt>
      <trkpt lat="46.976301" lon="10.610233">
        <ele>1709.527583</ele>
        <time>2024-08-23T09:31:27.000Z</time>
      </trkpt>
      <trkpt lat="46.976318" lon="10.610285">
        <ele>1709.552275</ele>
        <time>2024-08-23T09:31:28.000Z</time>
      </trkpt>
      <trkpt lat="46.976336" lon="10.610337">
        <ele>1709.577245</ele>
        <time>2024-08-23T09:31:29.000Z</time>
      </trkpt>
      <trkpt lat="46.976356" lon="10.610389">
        <ele>1709.602806</ele>
        <time>2024-08-23T09:31:30.000Z</time>
      </trkpt>
      <trkpt lat="46.976390" lon="10.610469">
        <ele>1709.643167</ele>
        <time>2024-08-23T09:31:31.000Z</time>
      </trkpt>
      <trkpt lat="46.976414" lon="10.610521">
        <ele>1709.670050</ele>
        <time>2024-08-23T09:31:32.000Z</time>
      </trkpt>
      <trkpt lat="46.976435" lon="10.610569">
        <ele>1709.694468</ele>
        <time>2024-08-23T09:31:33.000Z</time>
      </trkpt>
      <trkpt lat="46.976456" lon="10.610609">
        <ele>1709.716080</ele>
        <time>2024-08-23T09:31:34.000Z</time>
      </trkpt>
      <trkpt lat="46.976482" lon="10.610647">
        <ele>1709.739125</ele>
        <time>2024-08-23T09:31:35.000Z</time>
      </trkpt>
      <trkpt lat="46.976524" lon="10.610710">
        <ele>1709.776844</ele>
        <time>2024-08-23T09:31:36.000Z</time>
      </trkpt>
      <trkpt lat="46.976550" lon="10.610744">
        <ele>1709.798713</ele>
        <time>2024-08-23T09:31:37.000Z</time>
      </trkpt>
      <trkpt lat="46.976579" lon="10.610781">
        <ele>1709.822844</ele>
        <time>2024-08-23T09:31:38.000Z</time>
      </trkpt>
      <trkpt lat="46.976609" lon="10.610816">
        <ele>1709.846909</ele>
        <time>2024-08-23T09:31:39.000Z</time>
      </trkpt>
      <trkpt lat="46.976639" lon="10.610852">
        <ele>1709.871244</ele>
        <time>2024-08-23T09:31:40.000Z</time>
      </trkpt>
      <trkpt lat="46.976684" lon="10.610903">
        <ele>1709.906945</ele>
        <time>2024-08-23T09:31:41.000Z</time>
      </trkpt>
      <trkpt lat="46.976714" lon="10.610930">
        <ele>1710.004797</ele>
        <time>2024-08-23T09:31:42.000Z</time>
      </trkpt>
      <trkpt lat="46.976743" lon="10.610955">
        <ele>1710.103671</ele>
        <time>2024-08-23T09:31:43.000Z</time>
      </trkpt>
      <trkpt lat="46.976776" lon="10.610981">
        <ele>1710.213774</ele>
        <time>2024-08-23T09:31:44.000Z</time>
      </trkpt>
      <trkpt lat="46.976827" lon="10.611022">
        <ele>1710.384718</ele>
        <time>2024-08-23T09:31:45.000Z</time>
      </trkpt>
      <trkpt lat="46.976858" lon="10.611047">
        <ele>1710.488701</ele>
        <time>2024-08-23T09:31:46.000Z</time>
      </trkpt>
      <trkpt lat="46.976889" lon="10.611073">
        <ele>1710.593664</ele>
        <time>2024-08-23T09:31:47.000Z</time>
      </trkpt>
      <trkpt lat="46.976921" lon="10.611099">
        <ele>1710.701189</ele>
        <time>2024-08-23T09:31:48.000Z</time>
      </trkpt>
      <trkpt lat="46.976955" lon="10.611124">
        <ele>1710.812976</ele>
        <time>2024-08-23T09:31:49.000Z</time>
      </trkpt>
      <trkpt lat="46.977002" lon="10.611158">
        <ele>1710.967007</ele>
        <time>2024-08-23T09:31:50.000Z</time>
      </trkpt>
      <trkpt lat="46.977032" lon="10.611184">
        <ele>1711.069431</ele>
        <time>2024-08-23T09:31:51.000Z</time>
      </trkpt>
      <trkpt lat="46.977063" lon="10.611206">
        <ele>1711.170651</ele>
        <time>2024-08-23T09:31:52.000Z</time>
      </trkpt>
      <trkpt lat="46.977092" lon="10.611233">
        <ele>1711.271616</ele>
        <time>2024-08-23T09:31:53.000Z</time>
      </trkpt>
      <trkpt lat="46.977138" lon="10.611267">
        <ele>1711.423017</ele>
        <time>2024-08-23T09:31:54.000Z</time>
      </trkpt>
      <trkpt lat="46.977168" lon="10.611291">
        <ele>1711.523459</ele>
        <time>2024-08-23T09:31:55.000Z</time>
      </trkpt>
      <trkpt lat="46.977199" lon="10.611320">
        <ele>1711.631537</ele>
        <time>2024-08-23T09:31:56.000Z</time>
      </trkpt>
      <trkpt lat="46.977228" lon="10.611344">
        <ele>1711.729409</ele>
        <time>2024-08-23T09:31:57.000Z</time>
      </trkpt>
      <trkpt lat="46.977275" lon="10.611378">
        <ele>1711.883439</ele>
        <time>2024-08-23T09:31:58.000Z</time>
      </trkpt>
      <trkpt lat="46.977306" lon="10.611401">
        <ele>1711.985549</ele>
        <time>2024-08-23T09:31:59.000Z</time>
      </trkpt>
      <trkpt lat="46.977333" lon="10.611422">
        <ele>1712.075376</ele>
        <time>2024-08-23T09:32:00.000Z</time>
      </trkpt>
      <trkpt lat="46.977359" lon="10.611442">
        <ele>1712.161668</ele>
        <time>2024-08-23T09:32:01.000Z</time>
      </trkpt>
      <trkpt lat="46.977386" lon="10.611460">
        <ele>1712.248838</ele>
        <time>2024-08-23T09:32:02.000Z</time>
      </trkpt>
      <trkpt lat="46.977427" lon="10.611486">
        <ele>1712.380122</ele>
        <time>2024-08-23T09:32:03.000Z</time>
      </trkpt>
      <trkpt lat="46.977454" lon="10.611507">
        <ele>1712.469950</ele>
        <time>2024-08-23T09:32:04.000Z</time>
      </trkpt>
      <trkpt lat="46.977481" lon="10.611528">
        <ele>1712.559777</ele>
        <time>2024-08-23T09:32:05.000Z</time>
      </trkpt>
      <trkpt lat="46.977509" lon="10.611547">
        <ele>1712.650454</ele>
        <time>2024-08-23T09:32:06.000Z</time>
      </trkpt>
      <trkpt lat="46.977537" lon="10.611568">
        <ele>1712.742887</ele>
        <time>2024-08-23T09:32:07.000Z</time>
      </trkpt>
      <trkpt lat="46.977579" lon="10.611596">
        <ele>1712.878484</ele>
        <time>2024-08-23T09:32:08.000Z</time>
      </trkpt>
      <trkpt lat="46.977609" lon="10.611617">
        <ele>1712.976186</ele>
        <time>2024-08-23T09:32:09.000Z</time>
      </trkpt>
      <trkpt lat="46.977637" lon="10.611636">
        <ele>1713.066863</ele>
        <time>2024-08-23T09:32:10.000Z</time>
      </trkpt>
      <trkpt lat="46.977666" lon="10.611656">
        <ele>1713.161051</ele>
        <time>2024-08-23T09:32:11.000Z</time>
      </trkpt>
      <trkpt lat="46.977710" lon="10.611684">
        <ele>1713.302019</ele>
        <time>2024-08-23T09:32:12.000Z</time>
      </trkpt>
      <trkpt lat="46.977739" lon="10.611703">
        <ele>1713.395371</ele>
        <time>2024-08-23T09:32:13.000Z</time>
      </trkpt>
      <trkpt lat="46.977765" lon="10.611721">
        <ele>1713.479874</ele>
        <time>2024-08-23T09:32:14.000Z</time>
      </trkpt>
      <trkpt lat="46.977792" lon="10.611738">
        <ele>1713.566233</ele>
        <time>2024-08-23T09:32:15.000Z</time>
      </trkpt>
      <trkpt lat="46.977835" lon="10.611763">
        <ele>1713.702179</ele>
        <time>2024-08-23T09:32:16.000Z</time>
      </trkpt>
      <trkpt lat="46.977863" lon="10.611781">
        <ele>1713.792032</ele>
        <time>2024-08-23T09:32:17.000Z</time>
      </trkpt>
      <trkpt lat="46.977892" lon="10.611799">
        <ele>1713.884583</ele>
        <time>2024-08-23T09:32:18.000Z</time>
      </trkpt>
      <trkpt lat="46.977919" lon="10.611816">
        <ele>1713.970942</ele>
        <time>2024-08-23T09:32:19.000Z</time>
      </trkpt>
      <trkpt lat="46.977944" lon="10.611834">
        <ele>1714.052798</ele>
        <time>2024-08-23T09:32:20.000Z</time>
      </trkpt>
      <trkpt lat="46.977984" lon="10.611860">
        <ele>1714.181390</ele>
        <time>2024-08-23T09:32:21.000Z</time>
      </trkpt>
      <trkpt lat="46.978010" lon="10.611878">
        <ele>1714.265893</ele>
        <time>2024-08-23T09:32:22.000Z</time>
      </trkpt>
      <trkpt lat="46.978036" lon="10.611895">
        <ele>1714.349559</ele>
        <time>2024-08-23T09:32:23.000Z</time>
      </trkpt>
      <trkpt lat="46.978059" lon="10.611912">
        <ele>1714.425260</ele>
        <time>2024-08-23T09:32:24.000Z</time>
      </trkpt>
      <trkpt lat="46.978098" lon="10.611939">
        <ele>1714.552014</ele>
        <time>2024-08-23T09:32:25.000Z</time>
      </trkpt>
      <trkpt lat="46.978124" lon="10.611959">
        <ele>1714.638306</ele>
        <time>2024-08-23T09:32:26.000Z</time>
      </trkpt>
      <trkpt lat="46.978151" lon="10.611983">
        <ele>1714.731105</ele>
        <time>2024-08-23T09:32:27.000Z</time>
      </trkpt>
      <trkpt lat="46.978175" lon="10.612009">
        <ele>1714.818811</ele>
        <time>2024-08-23T09:32:28.000Z</time>
      </trkpt>
      <trkpt lat="46.978202" lon="10.612032">
        <ele>1714.910586</ele>
        <time>2024-08-23T09:32:29.000Z</time>
      </trkpt>
      <trkpt lat="46.978240" lon="10.612069">
        <ele>1715.044655</ele>
        <time>2024-08-23T09:32:30.000Z</time>
      </trkpt>
      <trkpt lat="46.978266" lon="10.612093">
        <ele>1715.134954</ele>
        <time>2024-08-23T09:32:31.000Z</time>
      </trkpt>
      <trkpt lat="46.978293" lon="10.612118">
        <ele>1715.194825</ele>
        <time>2024-08-23T09:32:32.000Z</time>
      </trkpt>
      <trkpt lat="46.978319" lon="10.612141">
        <ele>1715.196240</ele>
        <time>2024-08-23T09:32:33.000Z</time>
      </trkpt>
      <trkpt lat="46.978356" lon="10.612179">
        <ele>1715.198345</ele>
        <time>2024-08-23T09:32:34.000Z</time>
      </trkpt>
      <trkpt lat="46.978381" lon="10.612205">
        <ele>1715.199773</ele>
        <time>2024-08-23T09:32:35.000Z</time>
      </trkpt>
      <trkpt lat="46.978405" lon="10.612229">
        <ele>1715.201127</ele>
        <time>2024-08-23T09:32:36.000Z</time>
      </trkpt>
      <trkpt lat="46.978427" lon="10.612252">
        <ele>1715.202386</ele>
        <time>2024-08-23T09:32:37.000Z</time>
      </trkpt>
      <trkpt lat="46.978449" lon="10.612274">
        <ele>1715.203627</ele>
        <time>2024-08-23T09:32:38.000Z</time>
      </trkpt>
      <trkpt lat="46.978480" lon="10.612307">
        <ele>1715.205412</ele>
        <time>2024-08-23T09:32:39.000Z</time>
      </trkpt>
      <trkpt lat="46.978500" lon="10.612327">
        <ele>1715.206540</ele>
        <time>2024-08-23T09:32:40.000Z</time>
      </trkpt>
      <trkpt lat="46.978521" lon="10.612347">
        <ele>1715.207707</ele>
        <time>2024-08-23T09:32:41.000Z</time>
      </trkpt>
      <trkpt lat="46.978543" lon="10.612368">
        <ele>1715.208930</ele>
        <time>2024-08-23T09:32:42.000Z</time>
      </trkpt>
      <trkpt lat="46.978578" lon="10.612408">
        <ele>1715.210998</ele>
        <time>2024-08-23T09:32:43.000Z</time>
      </trkpt>
      <trkpt lat="46.978600" lon="10.612438">
        <ele>1715.212398</ele>
        <time>2024-08-23T09:32:44.000Z</time>
      </trkpt>
      <trkpt lat="46.978620" lon="10.612464">
        <ele>1715.213644</ele>
        <time>2024-08-23T09:32:45.000Z</time>
      </trkpt>
      <trkpt lat="46.978637" lon="10.612488">
        <ele>1715.214744</ele>
        <time>2024-08-23T09:32:46.000Z</time>
      </trkpt>
      <trkpt lat="46.978648" lon="10.612508">
        <ele>1715.215560</ele>
        <time>2024-08-23T09:32:47.000Z</time>
      </trkpt>
      <trkpt lat="46.978665" lon="10.612532">
        <ele>1715.216660</ele>
        <time>2024-08-23T09:32:48.000Z</time>
      </trkpt>
      <trkpt lat="46.978675" lon="10.612546">
        <ele>1715.217304</ele>
        <time>2024-08-23T09:32:49.000Z</time>
      </trkpt>
      <trkpt lat="46.978684" lon="10.612560">
        <ele>1715.217916</ele>
        <time>2024-08-23T09:32:50.000Z</time>
      </trkpt>
      <trkpt lat="46.978694" lon="10.612575">
        <ele>1715.218582</ele>
        <time>2024-08-23T09:32:51.000Z</time>
      </trkpt>
      <trkpt lat="46.978708" lon="10.612602">
        <ele>1715.219660</ele>
        <time>2024-08-23T09:32:52.000Z</time>
      </trkpt>
      <trkpt lat="46.978717" lon="10.612622">
        <ele>1715.220422</ele>
        <time>2024-08-23T09:32:53.000Z</time>
      </trkpt>
      <trkpt lat="46.978724" lon="10.612642">
        <ele>1715.221137</ele>
        <time>2024-08-23T09:32:54.000Z</time>
      </trkpt>
      <trkpt lat="46.978731" lon="10.612658">
        <ele>1715.221741</ele>
        <time>2024-08-23T09:32:55.000Z</time>
      </trkpt>
      <trkpt lat="46.978734" lon="10.612666">
        <ele>1715.222031</ele>
        <time>2024-08-23T09:32:56.000Z</time>
      </trkpt>
      <trkpt lat="46.978736" lon="10.612667">
        <ele>1715.222129</ele>
        <time>2024-08-23T09:32:58.000Z</time>
      </trkpt>
      <trkpt lat="46.978746" lon="10.612677">
        <ele>1715.222693</ele>
        <time>2024-08-23T09:32:58.000Z</time>
      </trkpt>
      <trkpt lat="46.978761" lon="10.612654">
        <ele>1715.223705</ele>
        <time>2024-08-23T09:37:08.000Z</time>
      </trkpt>
      <trkpt lat="46.978784" lon="10.612646">
        <ele>1715.224806</ele>
        <time>2024-08-23T09:37:09.000Z</time>
      </trkpt>
      <trkpt lat="46.978801" lon="10.612645">
        <ele>1715.225599</ele>
        <time>2024-08-23T09:37:10.000Z</time>
      </trkpt>
      <trkpt lat="46.978821" lon="10.612647">
        <ele>1715.226533</ele>
        <time>2024-08-23T09:37:11.000Z</time>
      </trkpt>
      <trkpt lat="46.978843" lon="10.612653">
        <ele>1715.227576</ele>
        <time>2024-08-23T09:37:12.000Z</time>
      </trkpt>
      <trkpt lat="46.978865" lon="10.612668">
        <ele>1715.228706</ele>
        <time>2024-08-23T09:37:13.000Z</time>
      </trkpt>
      <trkpt lat="46.978899" lon="10.612697">
        <ele>1715.230539</ele>
        <time>2024-08-23T09:37:14.000Z</time>
      </trkpt>
      <trkpt lat="46.978920" lon="10.612722">
        <ele>1715.231800</ele>
        <time>2024-08-23T09:37:15.000Z</time>
      </trkpt>
      <trkpt lat="46.978943" lon="10.612740">
        <ele>1715.233014</ele>
        <time>2024-08-23T09:37:16.000Z</time>
      </trkpt>
      <trkpt lat="46.978964" lon="10.612759">
        <ele>1715.234164</ele>
        <time>2024-08-23T09:37:17.000Z</time>
      </trkpt>
      <trkpt lat="46.978992" lon="10.612786">
        <ele>1715.235726</ele>
        <time>2024-08-23T09:37:18.000Z</time>
      </trkpt>
      <trkpt lat="46.979010" lon="10.612803">
        <ele>1715.236724</ele>
        <time>2024-08-23T09:37:19.000Z</time>
      </trkpt>
      <trkpt lat="46.979029" lon="10.612818">
        <ele>1715.237729</ele>
        <time>2024-08-23T09:37:20.000Z</time>
      </trkpt>
      <trkpt lat="46.979048" lon="10.612834">
        <ele>1715.238750</ele>
        <time>2024-08-23T09:37:21.000Z</time>
      </trkpt>
      <trkpt lat="46.979065" lon="10.612852">
        <ele>1715.239727</ele>
        <time>2024-08-23T09:37:22.000Z</time>
      </trkpt>
      <trkpt lat="46.979093" lon="10.612878">
        <ele>1715.241272</ele>
        <time>2024-08-23T09:37:23.000Z</time>
      </trkpt>
      <trkpt lat="46.979114" lon="10.612899">
        <ele>1715.242456</ele>
        <time>2024-08-23T09:37:24.000Z</time>
      </trkpt>
      <trkpt lat="46.979134" lon="10.612919">
        <ele>1715.243584</ele>
        <time>2024-08-23T09:37:25.000Z</time>
      </trkpt>
      <trkpt lat="46.979154" lon="10.612941">
        <ele>1715.244749</ele>
        <time>2024-08-23T09:37:26.000Z</time>
      </trkpt>
      <trkpt lat="46.979184" lon="10.612977">
        <ele>1715.246556</ele>
        <time>2024-08-23T09:37:27.000Z</time>
      </trkpt>
      <trkpt lat="46.979208" lon="10.613000">
        <ele>1715.247892</ele>
        <time>2024-08-23T09:37:28.000Z</time>
      </trkpt>
      <trkpt lat="46.979229" lon="10.613021">
        <ele>1715.249076</ele>
        <time>2024-08-23T09:37:29.000Z</time>
      </trkpt>
      <trkpt lat="46.979252" lon="10.613043">
        <ele>1715.250356</ele>
        <time>2024-08-23T09:37:30.000Z</time>
      </trkpt>
      <trkpt lat="46.979274" lon="10.613068">
        <ele>1715.251653</ele>
        <time>2024-08-23T09:37:31.000Z</time>
      </trkpt>
      <trkpt lat="46.979308" lon="10.613109">
        <ele>1715.253704</ele>
        <time>2024-08-23T09:37:32.000Z</time>
      </trkpt>
      <trkpt lat="46.979333" lon="10.613134">
        <ele>1715.255115</ele>
        <time>2024-08-23T09:37:33.000Z</time>
      </trkpt>
      <trkpt lat="46.979356" lon="10.613160">
        <ele>1715.256468</ele>
        <time>2024-08-23T09:37:34.000Z</time>
      </trkpt>
      <trkpt lat="46.979381" lon="10.613187">
        <ele>1715.257915</ele>
        <time>2024-08-23T09:37:35.000Z</time>
      </trkpt>
      <trkpt lat="46.979418" lon="10.613226">
        <ele>1715.260038</ele>
        <time>2024-08-23T09:37:36.000Z</time>
      </trkpt>
      <trkpt lat="46.979442" lon="10.613254">
        <ele>1715.261467</ele>
        <time>2024-08-23T09:37:37.000Z</time>
      </trkpt>
      <trkpt lat="46.979468" lon="10.613283">
        <ele>1715.262990</ele>
        <time>2024-08-23T09:37:38.000Z</time>
      </trkpt>
      <trkpt lat="46.979491" lon="10.613309">
        <ele>1715.264343</ele>
        <time>2024-08-23T09:37:39.000Z</time>
      </trkpt>
      <trkpt lat="46.979523" lon="10.613341">
        <ele>1715.266148</ele>
        <time>2024-08-23T09:37:40.000Z</time>
      </trkpt>
      <trkpt lat="46.979544" lon="10.613368">
        <ele>1715.267449</ele>
        <time>2024-08-23T09:37:41.000Z</time>
      </trkpt>
      <trkpt lat="46.979567" lon="10.613392">
        <ele>1715.268765</ele>
        <time>2024-08-23T09:37:42.000Z</time>
      </trkpt>
      <trkpt lat="46.979590" lon="10.613421">
        <ele>1715.270179</ele>
        <time>2024-08-23T09:37:43.000Z</time>
      </trkpt>
      <trkpt lat="46.979613" lon="10.613450">
        <ele>1715.271592</ele>
        <time>2024-08-23T09:37:44.000Z</time>
      </trkpt>
      <trkpt lat="46.979646" lon="10.613491">
        <ele>1715.273608</ele>
        <time>2024-08-23T09:37:45.000Z</time>
      </trkpt>
      <trkpt lat="46.979662" lon="10.613513">
        <ele>1715.274630</ele>
        <time>2024-08-23T09:37:46.000Z</time>
      </trkpt>
      <trkpt lat="46.979680" lon="10.613533">
        <ele>1715.275682</ele>
        <time>2024-08-23T09:37:47.000Z</time>
      </trkpt>
      <trkpt lat="46.979699" lon="10.613556">
        <ele>1715.276830</ele>
        <time>2024-08-23T09:37:48.000Z</time>
      </trkpt>
      <trkpt lat="46.979716" lon="10.613583">
        <ele>1715.277998</ele>
        <time>2024-08-23T09:37:49.000Z</time>
      </trkpt>
      <trkpt lat="46.979745" lon="10.613625">
        <ele>1714.945245</ele>
        <time>2024-08-23T09:37:50.000Z</time>
      </trkpt>
      <trkpt lat="46.979768" lon="10.613657">
        <ele>1714.674521</ele>
        <time>2024-08-23T09:37:51.000Z</time>
      </trkpt>
      <trkpt lat="46.979791" lon="10.613692">
        <ele>1714.391484</ele>
        <time>2024-08-23T09:37:52.000Z</time>
      </trkpt>
      <trkpt lat="46.979815" lon="10.613730">
        <ele>1714.089881</ele>
        <time>2024-08-23T09:37:53.000Z</time>
      </trkpt>
      <trkpt lat="46.979854" lon="10.613789">
        <ele>1713.611406</ele>
        <time>2024-08-23T09:37:54.000Z</time>
      </trkpt>
      <trkpt lat="46.979882" lon="10.613834">
        <ele>1713.256676</ele>
        <time>2024-08-23T09:37:55.000Z</time>
      </trkpt>
      <trkpt lat="46.979911" lon="10.613883">
        <ele>1712.878863</ele>
        <time>2024-08-23T09:37:56.000Z</time>
      </trkpt>
      <trkpt lat="46.979940" lon="10.613934">
        <ele>1712.492176</ele>
        <time>2024-08-23T09:37:57.000Z</time>
      </trkpt>
      <trkpt lat="46.979971" lon="10.613989">
        <ele>1712.076657</ele>
        <time>2024-08-23T09:37:58.000Z</time>
      </trkpt>
      <trkpt lat="46.980008" lon="10.614074">
        <ele>1711.489402</ele>
        <time>2024-08-23T09:37:59.000Z</time>
      </trkpt>
      <trkpt lat="46.980032" lon="10.614128">
        <ele>1711.114036</ele>
        <time>2024-08-23T09:38:00.000Z</time>
      </trkpt>
      <trkpt lat="46.980054" lon="10.614182">
        <ele>1710.747711</ele>
        <time>2024-08-23T09:38:01.000Z</time>
      </trkpt>
      <trkpt lat="46.980076" lon="10.614238">
        <ele>1710.371337</ele>
        <time>2024-08-23T09:38:02.000Z</time>
      </trkpt>
      <trkpt lat="46.980111" lon="10.614328">
        <ele>1709.767966</ele>
        <time>2024-08-23T09:38:03.000Z</time>
      </trkpt>
      <trkpt lat="46.980133" lon="10.614387">
        <ele>1709.376353</ele>
        <time>2024-08-23T09:38:04.000Z</time>
      </trkpt>
      <trkpt lat="46.980154" lon="10.614447">
        <ele>1708.983589</ele>
        <time>2024-08-23T09:38:05.000Z</time>
      </trkpt>
      <trkpt lat="46.980176" lon="10.614505">
        <ele>1708.597077</ele>
        <time>2024-08-23T09:38:06.000Z</time>
      </trkpt>
      <trkpt lat="46.980210" lon="10.614591">
        <ele>1708.018160</ele>
        <time>2024-08-23T09:38:07.000Z</time>
      </trkpt>
      <trkpt lat="46.980236" lon="10.614657">
        <ele>1707.574273</ele>
        <time>2024-08-23T09:38:08.000Z</time>
      </trkpt>
      <trkpt lat="46.980265" lon="10.614729">
        <ele>1707.087293</ele>
        <time>2024-08-23T09:38:09.000Z</time>
      </trkpt>
      <trkpt lat="46.980296" lon="10.614801">
        <ele>1706.591415</ele>
        <time>2024-08-23T09:38:10.000Z</time>
      </trkpt>
      <trkpt lat="46.980325" lon="10.614875">
        <ele>1706.094370</ele>
        <time>2024-08-23T09:38:11.000Z</time>
      </trkpt>
      <trkpt lat="46.980371" lon="10.614986">
        <ele>1705.337945</ele>
        <time>2024-08-23T09:38:12.000Z</time>
      </trkpt>
      <trkpt lat="46.980408" lon="10.615058">
        <ele>1704.812941</ele>
        <time>2024-08-23T09:38:13.000Z</time>
      </trkpt>
      <trkpt lat="46.980447" lon="10.615129">
        <ele>1704.282041</ele>
        <time>2024-08-23T09:38:14.000Z</time>
      </trkpt>
      <trkpt lat="46.980490" lon="10.615200">
        <ele>1703.729085</ele>
        <time>2024-08-23T09:38:15.000Z</time>
      </trkpt>
      <trkpt lat="46.980538" lon="10.615266">
        <ele>1703.167229</ele>
        <time>2024-08-23T09:38:16.000Z</time>
      </trkpt>
      <trkpt lat="46.980629" lon="10.615349">
        <ele>1702.252236</ele>
        <time>2024-08-23T09:38:17.000Z</time>
      </trkpt>
      <trkpt lat="46.980701" lon="10.615394">
        <ele>1701.584028</ele>
        <time>2024-08-23T09:38:18.000Z</time>
      </trkpt>
      <trkpt lat="46.980779" lon="10.615434">
        <ele>1700.878565</ele>
        <time>2024-08-23T09:38:19.000Z</time>
      </trkpt>
      <trkpt lat="46.980863" lon="10.615475">
        <ele>1700.122745</ele>
        <time>2024-08-23T09:38:20.000Z</time>
      </trkpt>
      <trkpt lat="46.980998" lon="10.615539">
        <ele>1699.504075</ele>
        <time>2024-08-23T09:38:21.000Z</time>
      </trkpt>
      <trkpt lat="46.981094" lon="10.615583">
        <ele>1699.148393</ele>
        <time>2024-08-23T09:38:22.000Z</time>
      </trkpt>
      <trkpt lat="46.981191" lon="10.615622">
        <ele>1698.792715</ele>
        <time>2024-08-23T09:38:23.000Z</time>
      </trkpt>
      <trkpt lat="46.981294" lon="10.615657">
        <ele>1698.418830</ele>
        <time>2024-08-23T09:38:24.000Z</time>
      </trkpt>
      <trkpt lat="46.981400" lon="10.615693">
        <ele>1698.034066</ele>
        <time>2024-08-23T09:38:25.000Z</time>
      </trkpt>
      <trkpt lat="46.981562" lon="10.615751">
        <ele>1697.444366</ele>
        <time>2024-08-23T09:38:26.000Z</time>
      </trkpt>
      <trkpt lat="46.981667" lon="10.615790">
        <ele>1697.061333</ele>
        <time>2024-08-23T09:38:27.000Z</time>
      </trkpt>
      <trkpt lat="46.981767" lon="10.615827">
        <ele>1696.696624</ele>
        <time>2024-08-23T09:38:28.000Z</time>
      </trkpt>
      <trkpt lat="46.981864" lon="10.615859">
        <ele>1696.345035</ele>
        <time>2024-08-23T09:38:29.000Z</time>
      </trkpt>
      <trkpt lat="46.982001" lon="10.615897">
        <ele>1695.851983</ele>
        <time>2024-08-23T09:38:30.000Z</time>
      </trkpt>
      <trkpt lat="46.982087" lon="10.615918">
        <ele>1695.543681</ele>
        <time>2024-08-23T09:38:31.000Z</time>
      </trkpt>
      <trkpt lat="46.982167" lon="10.615939">
        <ele>1695.256287</ele>
        <time>2024-08-23T09:38:32.000Z</time>
      </trkpt>
      <trkpt lat="46.982243" lon="10.615962">
        <ele>1694.981870</ele>
        <time>2024-08-23T09:38:33.000Z</time>
      </trkpt>
      <trkpt lat="46.982248" lon="10.615966">
        <ele>1694.961727</ele>
        <time>2024-08-23T09:38:33.000Z</time>
      </trkpt>
      <trkpt lat="46.982321" lon="10.615995">
        <ele>1694.694275</ele>
        <time>2024-08-23T09:38:34.000Z</time>
      </trkpt>
      <trkpt lat="46.982529" lon="10.616137">
        <ele>1693.882889</ele>
        <time>2024-08-23T09:38:36.000Z</time>
      </trkpt>
      <trkpt lat="46.982594" lon="10.616207">
        <ele>1693.597671</ele>
        <time>2024-08-23T09:38:38.000Z</time>
      </trkpt>
      <trkpt lat="46.982633" lon="10.616251">
        <ele>1693.660316</ele>
        <time>2024-08-23T09:38:39.000Z</time>
      </trkpt>
      <trkpt lat="46.982688" lon="10.616311">
        <ele>1693.830174</ele>
        <time>2024-08-23T09:38:40.000Z</time>
      </trkpt>
      <trkpt lat="46.982739" lon="10.616364">
        <ele>1693.985060</ele>
        <time>2024-08-23T09:38:41.000Z</time>
      </trkpt>
      <trkpt lat="46.982757" lon="10.616379">
        <ele>1694.036358</ele>
        <time>2024-08-23T09:38:42.000Z</time>
      </trkpt>
      <trkpt lat="46.982775" lon="10.616391">
        <ele>1694.085348</ele>
        <time>2024-08-23T09:38:43.000Z</time>
      </trkpt>
      <trkpt lat="46.982824" lon="10.616432">
        <ele>1694.225132</ele>
        <time>2024-08-23T09:38:44.000Z</time>
      </trkpt>
      <trkpt lat="46.982860" lon="10.616454">
        <ele>1694.321763</ele>
        <time>2024-08-23T09:38:45.000Z</time>
      </trkpt>
      <trkpt lat="46.982896" lon="10.616473">
        <ele>1694.416558</ele>
        <time>2024-08-23T09:38:46.000Z</time>
      </trkpt>
      <trkpt lat="46.982933" lon="10.616485">
        <ele>1694.510442</ele>
        <time>2024-08-23T09:38:47.000Z</time>
      </trkpt>
      <trkpt lat="46.982988" lon="10.616488">
        <ele>1694.646799</ele>
        <time>2024-08-23T09:38:48.000Z</time>
      </trkpt>
      <trkpt lat="46.983023" lon="10.616478">
        <ele>1694.735143</ele>
        <time>2024-08-23T09:38:49.000Z</time>
      </trkpt>
      <trkpt lat="46.983057" lon="10.616461">
        <ele>1694.824144</ele>
        <time>2024-08-23T09:38:50.000Z</time>
      </trkpt>
      <trkpt lat="46.983092" lon="10.616441">
        <ele>1694.917212</ele>
        <time>2024-08-23T09:38:51.000Z</time>
      </trkpt>
      <trkpt lat="46.983129" lon="10.616424">
        <ele>1695.013278</ele>
        <time>2024-08-23T09:38:52.000Z</time>
      </trkpt>
      <trkpt lat="46.983181" lon="10.616397">
        <ele>1695.149951</ele>
        <time>2024-08-23T09:38:53.000Z</time>
      </trkpt>
      <trkpt lat="46.983217" lon="10.616381">
        <ele>1695.243151</ele>
        <time>2024-08-23T09:38:54.000Z</time>
      </trkpt>
      <trkpt lat="46.983254" lon="10.616374">
        <ele>1695.335579</ele>
        <time>2024-08-23T09:38:55.000Z</time>
      </trkpt>
      <trkpt lat="46.983290" lon="10.616370">
        <ele>1695.425024</ele>
        <time>2024-08-23T09:38:56.000Z</time>
      </trkpt>
      <trkpt lat="46.983338" lon="10.616379">
        <ele>1695.544913</ele>
        <time>2024-08-23T09:38:57.000Z</time>
      </trkpt>
      <trkpt lat="46.983373" lon="10.616396">
        <ele>1695.636262</ele>
        <time>2024-08-23T09:38:58.000Z</time>
      </trkpt>
      <trkpt lat="46.983405" lon="10.616412">
        <ele>1695.720027</ele>
        <time>2024-08-23T09:38:59.000Z</time>
      </trkpt>
      <trkpt lat="46.983429" lon="10.616429">
        <ele>1695.786066</ele>
        <time>2024-08-23T09:39:00.000Z</time>
      </trkpt>
      <trkpt lat="46.983482" lon="10.616461">
        <ele>1695.928076</ele>
        <time>2024-08-23T09:39:01.000Z</time>
      </trkpt>
      <trkpt lat="46.983523" lon="10.616481">
        <ele>1696.035130</ele>
        <time>2024-08-23T09:39:02.000Z</time>
      </trkpt>
      <trkpt lat="46.983562" lon="10.616496">
        <ele>1696.135023</ele>
        <time>2024-08-23T09:39:03.000Z</time>
      </trkpt>
      <trkpt lat="46.983601" lon="10.616509">
        <ele>1696.234112</ele>
        <time>2024-08-23T09:39:04.000Z</time>
      </trkpt>
      <trkpt lat="46.983645" lon="10.616523">
        <ele>1696.345661</ele>
        <time>2024-08-23T09:39:05.000Z</time>
      </trkpt>
      <trkpt lat="46.983694" lon="10.616535">
        <ele>1696.468741</ele>
        <time>2024-08-23T09:39:06.000Z</time>
      </trkpt>
      <trkpt lat="46.983727" lon="10.616539">
        <ele>1696.550777</ele>
        <time>2024-08-23T09:39:07.000Z</time>
      </trkpt>
      <trkpt lat="46.983756" lon="10.616544">
        <ele>1696.623120</ele>
        <time>2024-08-23T09:39:08.000Z</time>
      </trkpt>
      <trkpt lat="46.983787" lon="10.616551">
        <ele>1696.700828</ele>
        <time>2024-08-23T09:39:09.000Z</time>
      </trkpt>
      <trkpt lat="46.983829" lon="10.616565">
        <ele>1696.807540</ele>
        <time>2024-08-23T09:39:10.000Z</time>
      </trkpt>
      <trkpt lat="46.983887" lon="10.616580">
        <ele>1696.953454</ele>
        <time>2024-08-23T09:39:11.000Z</time>
      </trkpt>
      <trkpt lat="46.983925" lon="10.616585">
        <ele>1697.047977</ele>
        <time>2024-08-23T09:39:12.000Z</time>
      </trkpt>
      <trkpt lat="46.983964" lon="10.616592">
        <ele>1697.145321</ele>
        <time>2024-08-23T09:39:13.000Z</time>
      </trkpt>
      <trkpt lat="46.983994" lon="10.616595">
        <ele>1697.219819</ele>
        <time>2024-08-23T09:39:14.000Z</time>
      </trkpt>
      <trkpt lat="46.984036" lon="10.616609">
        <ele>1697.326530</ele>
        <time>2024-08-23T09:39:15.000Z</time>
      </trkpt>
      <trkpt lat="46.984067" lon="10.616621">
        <ele>1697.405966</ele>
        <time>2024-08-23T09:39:16.000Z</time>
      </trkpt>
      <trkpt lat="46.984094" lon="10.616632">
        <ele>1697.475394</ele>
        <time>2024-08-23T09:39:17.000Z</time>
      </trkpt>
      <trkpt lat="46.984123" lon="10.616636">
        <ele>1697.547559</ele>
        <time>2024-08-23T09:39:18.000Z</time>
      </trkpt>
      <trkpt lat="46.984171" lon="10.616633">
        <ele>1697.666587</ele>
        <time>2024-08-23T09:39:19.000Z</time>
      </trkpt>
      <trkpt lat="46.984200" lon="10.616637">
        <ele>1697.738751</ele>
        <time>2024-08-23T09:39:20.000Z</time>
      </trkpt>
      <trkpt lat="46.984227" lon="10.616642">
        <ele>1697.806175</ele>
        <time>2024-08-23T09:39:21.000Z</time>
      </trkpt>
      <trkpt lat="46.984272" lon="10.616655">
        <ele>1697.919807</ele>
        <time>2024-08-23T09:39:22.000Z</time>
      </trkpt>
      <trkpt lat="46.984317" lon="10.616657">
        <ele>1698.008012</ele>
        <time>2024-08-23T09:39:23.000Z</time>
      </trkpt>
      <trkpt lat="46.984384" lon="10.616653">
        <ele>1697.861555</ele>
        <time>2024-08-23T09:39:24.000Z</time>
      </trkpt>
      <trkpt lat="46.984426" lon="10.616655">
        <ele>1697.769775</ele>
        <time>2024-08-23T09:39:25.000Z</time>
      </trkpt>
      <trkpt lat="46.984468" lon="10.616656">
        <ele>1697.678030</ele>
        <time>2024-08-23T09:39:26.000Z</time>
      </trkpt>
      <trkpt lat="46.984509" lon="10.616661">
        <ele>1697.588172</ele>
        <time>2024-08-23T09:39:27.000Z</time>
      </trkpt>
      <trkpt lat="46.984570" lon="10.616661">
        <ele>1697.454941</ele>
        <time>2024-08-23T09:39:28.000Z</time>
      </trkpt>
      <trkpt lat="46.984614" lon="10.616665">
        <ele>1697.358656</ele>
        <time>2024-08-23T09:39:29.000Z</time>
      </trkpt>
      <trkpt lat="46.984662" lon="10.616675">
        <ele>1697.252765</ele>
        <time>2024-08-23T09:39:30.000Z</time>
      </trkpt>
      <trkpt lat="46.984710" lon="10.616689">
        <ele>1697.145873</ele>
        <time>2024-08-23T09:39:31.000Z</time>
      </trkpt>
      <trkpt lat="46.984762" lon="10.616702">
        <ele>1697.030660</ele>
        <time>2024-08-23T09:39:32.000Z</time>
      </trkpt>
      <trkpt lat="46.984837" lon="10.616717">
        <ele>1696.865334</ele>
        <time>2024-08-23T09:39:33.000Z</time>
      </trkpt>
      <trkpt lat="46.984889" lon="10.616719">
        <ele>1696.751721</ele>
        <time>2024-08-23T09:39:34.000Z</time>
      </trkpt>
      <trkpt lat="46.984941" lon="10.616718">
        <ele>1696.638138</ele>
        <time>2024-08-23T09:39:35.000Z</time>
      </trkpt>
      <trkpt lat="46.984987" lon="10.616705">
        <ele>1696.535819</ele>
        <time>2024-08-23T09:39:36.000Z</time>
      </trkpt>
      <trkpt lat="46.985034" lon="10.616690">
        <ele>1696.430761</ele>
        <time>2024-08-23T09:39:37.000Z</time>
      </trkpt>
      <trkpt lat="46.985103" lon="10.616672">
        <ele>1696.277689</ele>
        <time>2024-08-23T09:39:38.000Z</time>
      </trkpt>
      <trkpt lat="46.985148" lon="10.616657">
        <ele>1696.176895</ele>
        <time>2024-08-23T09:39:39.000Z</time>
      </trkpt>
      <trkpt lat="46.985188" lon="10.616642">
        <ele>1696.086718</ele>
        <time>2024-08-23T09:39:40.000Z</time>
      </trkpt>
      <trkpt lat="46.985228" lon="10.616633">
        <ele>1695.998330</ele>
        <time>2024-08-23T09:39:41.000Z</time>
      </trkpt>
      <trkpt lat="46.985290" lon="10.616618">
        <ele>1695.861083</ele>
        <time>2024-08-23T09:39:42.000Z</time>
      </trkpt>
      <trkpt lat="46.985332" lon="10.616606">
        <ele>1695.767625</ele>
        <time>2024-08-23T09:39:43.000Z</time>
      </trkpt>
      <trkpt lat="46.985371" lon="10.616599">
        <ele>1695.681808</ele>
        <time>2024-08-23T09:39:44.000Z</time>
      </trkpt>
      <trkpt lat="46.985415" lon="10.616594">
        <ele>1695.585419</ele>
        <time>2024-08-23T09:39:45.000Z</time>
      </trkpt>
      <trkpt lat="46.985458" lon="10.616589">
        <ele>1695.491208</ele>
        <time>2024-08-23T09:39:46.000Z</time>
      </trkpt>
      <trkpt lat="46.985527" lon="10.616592">
        <ele>1695.340438</ele>
        <time>2024-08-23T09:39:47.000Z</time>
      </trkpt>
      <trkpt lat="46.985572" lon="10.616596">
        <ele>1695.241972</ele>
        <time>2024-08-23T09:39:48.000Z</time>
      </trkpt>
      <trkpt lat="46.985617" lon="10.616595">
        <ele>1695.143676</ele>
        <time>2024-08-23T09:39:49.000Z</time>
      </trkpt>
      <trkpt lat="46.985661" lon="10.616591">
        <ele>1695.047391</ele>
        <time>2024-08-23T09:39:50.000Z</time>
      </trkpt>
      <trkpt lat="46.985730" lon="10.616585">
        <ele>1694.896422</ele>
        <time>2024-08-23T09:39:51.000Z</time>
      </trkpt>
      <trkpt lat="46.985778" lon="10.616580">
        <ele>1694.791321</ele>
        <time>2024-08-23T09:39:52.000Z</time>
      </trkpt>
      <trkpt lat="46.985828" lon="10.616569">
        <ele>1694.680892</ele>
        <time>2024-08-23T09:39:53.000Z</time>
      </trkpt>
      <trkpt lat="46.985875" lon="10.616559">
        <ele>1694.577164</ele>
        <time>2024-08-23T09:39:54.000Z</time>
      </trkpt>
      <trkpt lat="46.985947" lon="10.616553">
        <ele>1694.419654</ele>
        <time>2024-08-23T09:39:55.000Z</time>
      </trkpt>
      <trkpt lat="46.985991" lon="10.616542">
        <ele>1694.322166</ele>
        <time>2024-08-23T09:39:56.000Z</time>
      </trkpt>
      <trkpt lat="46.986040" lon="10.616528">
        <ele>1694.213131</ele>
        <time>2024-08-23T09:39:57.000Z</time>
      </trkpt>
      <trkpt lat="46.986089" lon="10.616514">
        <ele>1694.104095</ele>
        <time>2024-08-23T09:39:58.000Z</time>
      </trkpt>
      <trkpt lat="46.986138" lon="10.616500">
        <ele>1693.815173</ele>
        <time>2024-08-23T09:39:59.000Z</time>
      </trkpt>
      <trkpt lat="46.986213" lon="10.616481">
        <ele>1693.335654</ele>
        <time>2024-08-23T09:40:00.000Z</time>
      </trkpt>
      <trkpt lat="46.986267" lon="10.616474">
        <ele>1692.994115</ele>
        <time>2024-08-23T09:40:01.000Z</time>
      </trkpt>
      <trkpt lat="46.986319" lon="10.616469">
        <ele>1692.665801</ele>
        <time>2024-08-23T09:40:02.000Z</time>
      </trkpt>
      <trkpt lat="46.986370" lon="10.616457">
        <ele>1692.340378</ele>
        <time>2024-08-23T09:40:03.000Z</time>
      </trkpt>
      <trkpt lat="46.986448" lon="10.616430">
        <ele>1691.835447</ele>
        <time>2024-08-23T09:40:04.000Z</time>
      </trkpt>
      <trkpt lat="46.986504" lon="10.616409">
        <ele>1691.471275</ele>
        <time>2024-08-23T09:40:05.000Z</time>
      </trkpt>
      <trkpt lat="46.986562" lon="10.616388">
        <ele>1691.094882</ele>
        <time>2024-08-23T09:40:06.000Z</time>
      </trkpt>
      <trkpt lat="46.986618" lon="10.616367">
        <ele>1690.730709</ele>
        <time>2024-08-23T09:40:07.000Z</time>
      </trkpt>
      <trkpt lat="46.986702" lon="10.616343">
        <ele>1690.191534</ele>
        <time>2024-08-23T09:40:08.000Z</time>
      </trkpt>
      <trkpt lat="46.986756" lon="10.616326">
        <ele>1689.843566</ele>
        <time>2024-08-23T09:40:09.000Z</time>
      </trkpt>
      <trkpt lat="46.986814" lon="10.616316">
        <ele>1689.475636</ele>
        <time>2024-08-23T09:40:10.000Z</time>
      </trkpt>
      <trkpt lat="46.986877" lon="10.616306">
        <ele>1689.076403</ele>
        <time>2024-08-23T09:40:11.000Z</time>
      </trkpt>
      <trkpt lat="46.986943" lon="10.616294">
        <ele>1688.657404</ele>
        <time>2024-08-23T09:40:12.000Z</time>
      </trkpt>
      <trkpt lat="46.987044" lon="10.616287">
        <ele>1688.020373</ele>
        <time>2024-08-23T09:40:13.000Z</time>
      </trkpt>
      <trkpt lat="46.987106" lon="10.616279">
        <ele>1687.628250</ele>
        <time>2024-08-23T09:40:14.000Z</time>
      </trkpt>
      <trkpt lat="46.987160" lon="10.616270">
        <ele>1687.285847</ele>
        <time>2024-08-23T09:40:15.000Z</time>
      </trkpt>
      <trkpt lat="46.987209" lon="10.616255">
        <ele>1686.970478</ele>
        <time>2024-08-23T09:40:16.000Z</time>
      </trkpt>
      <trkpt lat="46.987257" lon="10.616242">
        <ele>1686.662951</ele>
        <time>2024-08-23T09:40:17.000Z</time>
      </trkpt>
      <trkpt lat="46.987329" lon="10.616213">
        <ele>1686.192525</ele>
        <time>2024-08-23T09:40:18.000Z</time>
      </trkpt>
      <trkpt lat="46.987375" lon="10.616177">
        <ele>1685.864003</ele>
        <time>2024-08-23T09:40:19.000Z</time>
      </trkpt>
      <trkpt lat="46.987420" lon="10.616139">
        <ele>1685.536819</ele>
        <time>2024-08-23T09:40:20.000Z</time>
      </trkpt>
      <trkpt lat="46.987466" lon="10.616100">
        <ele>1685.202031</ele>
        <time>2024-08-23T09:40:21.000Z</time>
      </trkpt>
      <trkpt lat="46.987537" lon="10.616040">
        <ele>1684.685714</ele>
        <time>2024-08-23T09:40:22.000Z</time>
      </trkpt>
      <trkpt lat="46.987592" lon="10.616016">
        <ele>1684.324177</ele>
        <time>2024-08-23T09:40:23.000Z</time>
      </trkpt>
      <trkpt lat="46.987643" lon="10.615988">
        <ele>1683.981072</ele>
        <time>2024-08-23T09:40:24.000Z</time>
      </trkpt>
      <trkpt lat="46.987692" lon="10.615963">
        <ele>1683.654199</ele>
        <time>2024-08-23T09:40:25.000Z</time>
      </trkpt>
      <trkpt lat="46.987743" lon="10.615940">
        <ele>1683.318028</ele>
        <time>2024-08-23T09:40:26.000Z</time>
      </trkpt>
      <trkpt lat="46.987825" lon="10.615921">
        <ele>1682.794998</ele>
        <time>2024-08-23T09:40:27.000Z</time>
      </trkpt>
      <trkpt lat="46.987880" lon="10.615906">
        <ele>1682.326113</ele>
        <time>2024-08-23T09:40:28.000Z</time>
      </trkpt>
      <trkpt lat="46.987925" lon="10.615885">
        <ele>1681.919017</ele>
        <time>2024-08-23T09:40:29.000Z</time>
      </trkpt>
      <trkpt lat="46.987968" lon="10.615882">
        <ele>1681.547924</ele>
        <time>2024-08-23T09:40:30.000Z</time>
      </trkpt>
      <trkpt lat="46.988032" lon="10.615890">
        <ele>1680.994222</ele>
        <time>2024-08-23T09:40:31.000Z</time>
      </trkpt>
      <trkpt lat="46.988061" lon="10.615889">
        <ele>1680.744164</ele>
        <time>2024-08-23T09:40:32.000Z</time>
      </trkpt>
      <trkpt lat="46.988088" lon="10.615896">
        <ele>1680.507804</ele>
        <time>2024-08-23T09:40:33.000Z</time>
      </trkpt>
      <trkpt lat="46.988108" lon="10.615905">
        <ele>1680.327458</ele>
        <time>2024-08-23T09:40:34.000Z</time>
      </trkpt>
      <trkpt lat="46.988149" lon="10.615906">
        <ele>1679.973976</ele>
        <time>2024-08-23T09:40:35.000Z</time>
      </trkpt>
      <trkpt lat="46.988180" lon="10.615894">
        <ele>1679.697587</ele>
        <time>2024-08-23T09:40:36.000Z</time>
      </trkpt>
      <trkpt lat="46.988227" lon="10.615890">
        <ele>1679.291750</ele>
        <time>2024-08-23T09:40:37.000Z</time>
      </trkpt>
      <trkpt lat="46.988265" lon="10.615874">
        <ele>1678.950934</ele>
        <time>2024-08-23T09:40:38.000Z</time>
      </trkpt>
      <trkpt lat="46.988298" lon="10.615854">
        <ele>1678.643112</ele>
        <time>2024-08-23T09:40:39.000Z</time>
      </trkpt>
      <trkpt lat="46.988342" lon="10.615817">
        <ele>1678.205846</ele>
        <time>2024-08-23T09:40:40.000Z</time>
      </trkpt>
      <trkpt lat="46.988365" lon="10.615782">
        <ele>1677.920070</ele>
        <time>2024-08-23T09:40:41.000Z</time>
      </trkpt>
      <trkpt lat="46.988391" lon="10.615744">
        <ele>1677.603582</ele>
        <time>2024-08-23T09:40:42.000Z</time>
      </trkpt>
      <trkpt lat="46.988417" lon="10.615706">
        <ele>1677.287095</ele>
        <time>2024-08-23T09:40:43.000Z</time>
      </trkpt>
      <trkpt lat="46.988443" lon="10.615673">
        <ele>1676.990634</ele>
        <time>2024-08-23T09:40:44.000Z</time>
      </trkpt>
      <trkpt lat="46.988481" lon="10.615611">
        <ele>1676.500511</ele>
        <time>2024-08-23T09:40:45.000Z</time>
      </trkpt>
      <trkpt lat="46.988510" lon="10.615571">
        <ele>1676.157262</ele>
        <time>2024-08-23T09:40:46.000Z</time>
      </trkpt>
      <trkpt lat="46.988541" lon="10.615532">
        <ele>1675.805119</ele>
        <time>2024-08-23T09:40:47.000Z</time>
      </trkpt>
      <trkpt lat="46.988577" lon="10.615501">
        <ele>1675.445210</ele>
        <time>2024-08-23T09:40:48.000Z</time>
      </trkpt>
      <trkpt lat="46.988610" lon="10.615470">
        <ele>1675.107345</ele>
        <time>2024-08-23T09:40:49.000Z</time>
      </trkpt>
      <trkpt lat="46.988658" lon="10.615420">
        <ele>1674.599748</ele>
        <time>2024-08-23T09:40:50.000Z</time>
      </trkpt>
      <trkpt lat="46.988689" lon="10.615387">
        <ele>1674.269496</ele>
        <time>2024-08-23T09:40:51.000Z</time>
      </trkpt>
      <trkpt lat="46.988723" lon="10.615354">
        <ele>1673.917989</ele>
        <time>2024-08-23T09:40:52.000Z</time>
      </trkpt>
      <trkpt lat="46.988758" lon="10.615325">
        <ele>1673.571421</ele>
        <time>2024-08-23T09:40:53.000Z</time>
      </trkpt>
      <trkpt lat="46.988811" lon="10.615290">
        <ele>1673.070328</ele>
        <time>2024-08-23T09:40:54.000Z</time>
      </trkpt>
      <trkpt lat="46.988850" lon="10.615268">
        <ele>1672.710105</ele>
        <time>2024-08-23T09:40:55.000Z</time>
      </trkpt>
      <trkpt lat="46.988890" lon="10.615244">
        <ele>1672.337530</ele>
        <time>2024-08-23T09:40:56.000Z</time>
      </trkpt>
      <trkpt lat="46.988939" lon="10.615231">
        <ele>1671.908273</ele>
        <time>2024-08-23T09:40:57.000Z</time>
      </trkpt>
      <trkpt lat="46.989006" lon="10.615227">
        <ele>1671.330233</ele>
        <time>2024-08-23T09:40:58.000Z</time>
      </trkpt>
      <trkpt lat="46.989042" lon="10.615226">
        <ele>1671.019846</ele>
        <time>2024-08-23T09:40:59.000Z</time>
      </trkpt>
      <trkpt lat="46.989077" lon="10.615225">
        <ele>1670.718078</ele>
        <time>2024-08-23T09:41:00.000Z</time>
      </trkpt>
      <trkpt lat="46.989117" lon="10.615231">
        <ele>1670.371465</ele>
        <time>2024-08-23T09:41:01.000Z</time>
      </trkpt>
      <trkpt lat="46.989162" lon="10.615236">
        <ele>1669.982439</ele>
        <time>2024-08-23T09:41:02.000Z</time>
      </trkpt>
      <trkpt lat="46.989259" lon="10.615237">
        <ele>1669.146248</ele>
        <time>2024-08-23T09:41:03.000Z</time>
      </trkpt>
      <trkpt lat="46.989325" lon="10.615225">
        <ele>1668.572948</ele>
        <time>2024-08-23T09:41:04.000Z</time>
      </trkpt>
      <trkpt lat="46.989381" lon="10.615214">
        <ele>1668.085896</ele>
        <time>2024-08-23T09:41:05.000Z</time>
      </trkpt>
      <trkpt lat="46.989437" lon="10.615202">
        <ele>1667.598029</ele>
        <time>2024-08-23T09:41:06.000Z</time>
      </trkpt>
      <trkpt lat="46.989533" lon="10.615186">
        <ele>1666.960578</ele>
        <time>2024-08-23T09:41:07.000Z</time>
      </trkpt>
      <trkpt lat="46.989602" lon="10.615178">
        <ele>1666.602530</ele>
        <time>2024-08-23T09:41:08.000Z</time>
      </trkpt>
      <trkpt lat="46.989674" lon="10.615186">
        <ele>1666.229009</ele>
        <time>2024-08-23T09:41:09.000Z</time>
      </trkpt>
      <trkpt lat="46.989748" lon="10.615198">
        <ele>1665.843875</ele>
        <time>2024-08-23T09:41:10.000Z</time>
      </trkpt>
      <trkpt lat="46.989821" lon="10.615216">
        <ele>1665.460945</ele>
        <time>2024-08-23T09:41:11.000Z</time>
      </trkpt>
      <trkpt lat="46.989926" lon="10.615238">
        <ele>1664.912266</ele>
        <time>2024-08-23T09:41:12.000Z</time>
      </trkpt>
      <trkpt lat="46.989995" lon="10.615245">
        <ele>1664.554478</ele>
        <time>2024-08-23T09:41:13.000Z</time>
      </trkpt>
      <trkpt lat="46.990062" lon="10.615244">
        <ele>1664.207872</ele>
        <time>2024-08-23T09:41:14.000Z</time>
      </trkpt>
      <trkpt lat="46.990130" lon="10.615249">
        <ele>1663.855669</ele>
        <time>2024-08-23T09:41:15.000Z</time>
      </trkpt>
      <trkpt lat="46.990195" lon="10.615252">
        <ele>1663.519260</ele>
        <time>2024-08-23T09:41:16.000Z</time>
      </trkpt>
      <trkpt lat="46.990287" lon="10.615256">
        <ele>1663.043139</ele>
        <time>2024-08-23T09:41:17.000Z</time>
      </trkpt>
      <trkpt lat="46.990348" lon="10.615255">
        <ele>1662.727569</ele>
        <time>2024-08-23T09:41:18.000Z</time>
      </trkpt>
      <trkpt lat="46.990404" lon="10.615253">
        <ele>1662.437798</ele>
        <time>2024-08-23T09:41:19.000Z</time>
      </trkpt>
      <trkpt lat="46.990450" lon="10.615252">
        <ele>1662.199815</ele>
        <time>2024-08-23T09:41:20.000Z</time>
      </trkpt>
      <trkpt lat="46.990515" lon="10.615254">
        <ele>1661.863499</ele>
        <time>2024-08-23T09:41:21.000Z</time>
      </trkpt>
      <trkpt lat="46.990562" lon="10.615254">
        <ele>1661.620370</ele>
        <time>2024-08-23T09:41:22.000Z</time>
      </trkpt>
      <trkpt lat="46.990612" lon="10.615255">
        <ele>1661.361698</ele>
        <time>2024-08-23T09:41:23.000Z</time>
      </trkpt>
      <trkpt lat="46.990660" lon="10.615248">
        <ele>1661.112171</ele>
        <time>2024-08-23T09:41:24.000Z</time>
      </trkpt>
      <trkpt lat="46.990734" lon="10.615227">
        <ele>1660.722266</ele>
        <time>2024-08-23T09:41:25.000Z</time>
      </trkpt>
      <trkpt lat="46.990784" lon="10.615211">
        <ele>1660.457529</ele>
        <time>2024-08-23T09:41:26.000Z</time>
      </trkpt>
      <trkpt lat="46.990834" lon="10.615193">
        <ele>1660.191197</ele>
        <time>2024-08-23T09:41:27.000Z</time>
      </trkpt>
      <trkpt lat="46.990878" lon="10.615176">
        <ele>1659.955815</ele>
        <time>2024-08-23T09:41:28.000Z</time>
      </trkpt>
      <trkpt lat="46.990916" lon="10.615164">
        <ele>1659.754734</ele>
        <time>2024-08-23T09:41:29.000Z</time>
      </trkpt>
      <trkpt lat="46.990959" lon="10.615164">
        <ele>1659.532297</ele>
        <time>2024-08-23T09:41:30.000Z</time>
      </trkpt>
      <trkpt lat="46.990978" lon="10.615177">
        <ele>1659.423834</ele>
        <time>2024-08-23T09:41:31.000Z</time>
      </trkpt>
      <trkpt lat="46.991000" lon="10.615201">
        <ele>1659.281978</ele>
        <time>2024-08-23T09:41:32.000Z</time>
      </trkpt>
      <trkpt lat="46.991024" lon="10.615223">
        <ele>1659.135555</ele>
        <time>2024-08-23T09:41:33.000Z</time>
      </trkpt>
      <trkpt lat="46.991045" lon="10.615233">
        <ele>1659.021336</ele>
        <time>2024-08-23T09:41:34.000Z</time>
      </trkpt>
      <trkpt lat="46.991064" lon="10.615234">
        <ele>1658.922987</ele>
        <time>2024-08-23T09:41:35.000Z</time>
      </trkpt>
      <trkpt lat="46.991073" lon="10.615232">
        <ele>1658.875898</ele>
        <time>2024-08-23T09:41:36.000Z</time>
      </trkpt>
      <trkpt lat="46.991081" lon="10.615230">
        <ele>1658.833917</ele>
        <time>2024-08-23T09:41:37.000Z</time>
      </trkpt>
      <trkpt lat="46.991085" lon="10.615232">
        <ele>1658.812055</ele>
        <time>2024-08-23T09:41:38.000Z</time>
      </trkpt>
      <trkpt lat="46.991086" lon="10.615235">
        <ele>1658.800273</ele>
        <time>2024-08-23T09:41:39.000Z</time>
      </trkpt>
      <trkpt lat="46.991153" lon="10.615176">
        <ele>1658.395967</ele>
        <time>2024-08-23T09:44:00.000Z</time>
      </trkpt>
      <trkpt lat="46.991166" lon="10.615159">
        <ele>1658.305853</ele>
        <time>2024-08-23T09:44:01.000Z</time>
      </trkpt>
      <trkpt lat="46.991181" lon="10.615143">
        <ele>1658.209893</ele>
        <time>2024-08-23T09:44:02.000Z</time>
      </trkpt>
      <trkpt lat="46.991204" lon="10.615123">
        <ele>1658.071560</ele>
        <time>2024-08-23T09:44:03.000Z</time>
      </trkpt>
      <trkpt lat="46.991220" lon="10.615107">
        <ele>1657.971372</ele>
        <time>2024-08-23T09:44:04.000Z</time>
      </trkpt>
      <trkpt lat="46.991236" lon="10.615087">
        <ele>1657.921784</ele>
        <time>2024-08-23T09:44:05.000Z</time>
      </trkpt>
      <trkpt lat="46.991255" lon="10.615066">
        <ele>1657.882495</ele>
        <time>2024-08-23T09:44:06.000Z</time>
      </trkpt>
      <trkpt lat="46.991283" lon="10.615036">
        <ele>1657.825231</ele>
        <time>2024-08-23T09:44:07.000Z</time>
      </trkpt>
      <trkpt lat="46.991300" lon="10.615016">
        <ele>1657.789240</ele>
        <time>2024-08-23T09:44:08.000Z</time>
      </trkpt>
      <trkpt lat="46.991319" lon="10.614992">
        <ele>1657.747828</ele>
        <time>2024-08-23T09:44:09.000Z</time>
      </trkpt>
      <trkpt lat="46.991337" lon="10.614967">
        <ele>1657.706887</ele>
        <time>2024-08-23T09:44:10.000Z</time>
      </trkpt>
      <trkpt lat="46.991354" lon="10.614939">
        <ele>1657.664668</ele>
        <time>2024-08-23T09:44:11.000Z</time>
      </trkpt>
      <trkpt lat="46.991379" lon="10.614902">
        <ele>1657.606011</ele>
        <time>2024-08-23T09:44:12.000Z</time>
      </trkpt>
      <trkpt lat="46.991400" lon="10.614879">
        <ele>1657.562728</ele>
        <time>2024-08-23T09:44:13.000Z</time>
      </trkpt>
      <trkpt lat="46.991423" lon="10.614856">
        <ele>1657.516757</ele>
        <time>2024-08-23T09:44:14.000Z</time>
      </trkpt>
      <trkpt lat="46.991448" lon="10.614830">
        <ele>1657.466146</ele>
        <time>2024-08-23T09:44:15.000Z</time>
      </trkpt>
      <trkpt lat="46.991484" lon="10.614801">
        <ele>1657.398321</ele>
        <time>2024-08-23T09:44:16.000Z</time>
      </trkpt>
      <trkpt lat="46.991508" lon="10.614781">
        <ele>1657.352737</ele>
        <time>2024-08-23T09:44:17.000Z</time>
      </trkpt>
      <trkpt lat="46.991532" lon="10.614757">
        <ele>1657.304768</ele>
        <time>2024-08-23T09:44:18.000Z</time>
      </trkpt>
      <trkpt lat="46.991558" lon="10.614732">
        <ele>1657.253427</ele>
        <time>2024-08-23T09:44:19.000Z</time>
      </trkpt>
      <trkpt lat="46.991585" lon="10.614709">
        <ele>1657.201865</ele>
        <time>2024-08-23T09:44:20.000Z</time>
      </trkpt>
      <trkpt lat="46.991624" lon="10.614663">
        <ele>1657.119215</ele>
        <time>2024-08-23T09:44:21.000Z</time>
      </trkpt>
      <trkpt lat="46.991651" lon="10.614628">
        <ele>1657.059705</ele>
        <time>2024-08-23T09:44:22.000Z</time>
      </trkpt>
      <trkpt lat="46.991676" lon="10.614592">
        <ele>1657.001843</ele>
        <time>2024-08-23T09:44:23.000Z</time>
      </trkpt>
      <trkpt lat="46.991703" lon="10.614556">
        <ele>1656.941581</ele>
        <time>2024-08-23T09:44:24.000Z</time>
      </trkpt>
      <trkpt lat="46.991732" lon="10.614521">
        <ele>1656.879558</ele>
        <time>2024-08-23T09:44:25.000Z</time>
      </trkpt>
      <trkpt lat="46.991786" lon="10.614479">
        <ele>1656.778623</ele>
        <time>2024-08-23T09:44:26.000Z</time>
      </trkpt>
      <trkpt lat="46.991825" lon="10.614460">
        <ele>1656.710764</ele>
        <time>2024-08-23T09:44:27.000Z</time>
      </trkpt>
      <trkpt lat="46.991866" lon="10.614444">
        <ele>1656.640708</ele>
        <time>2024-08-23T09:44:28.000Z</time>
      </trkpt>
      <trkpt lat="46.991906" lon="10.614430">
        <ele>1656.572805</ele>
        <time>2024-08-23T09:44:29.000Z</time>
      </trkpt>
      <trkpt lat="46.991962" lon="10.614415">
        <ele>1656.478808</ele>
        <time>2024-08-23T09:44:30.000Z</time>
      </trkpt>
      <trkpt lat="46.991995" lon="10.614403">
        <ele>1656.422667</ele>
        <time>2024-08-23T09:44:31.000Z</time>
      </trkpt>
      <trkpt lat="46.992021" lon="10.614385">
        <ele>1656.375191</ele>
        <time>2024-08-23T09:44:32.000Z</time>
      </trkpt>
      <trkpt lat="46.992049" lon="10.614374">
        <ele>1656.327326</ele>
        <time>2024-08-23T09:44:33.000Z</time>
      </trkpt>
      <trkpt lat="46.992086" lon="10.614360">
        <ele>1656.264230</ele>
        <time>2024-08-23T09:44:34.000Z</time>
      </trkpt>
      <trkpt lat="46.992109" lon="10.614353">
        <ele>1656.225443</ele>
        <time>2024-08-23T09:44:35.000Z</time>
      </trkpt>
      <trkpt lat="46.992133" lon="10.614341">
        <ele>1656.183574</ele>
        <time>2024-08-23T09:44:36.000Z</time>
      </trkpt>
      <trkpt lat="46.992155" lon="10.614321">
        <ele>1656.140831</ele>
        <time>2024-08-23T09:44:37.000Z</time>
      </trkpt>
      <trkpt lat="46.992179" lon="10.614297">
        <ele>1656.092861</ele>
        <time>2024-08-23T09:44:38.000Z</time>
      </trkpt>
      <trkpt lat="46.992217" lon="10.614257">
        <ele>1656.015618</ele>
        <time>2024-08-23T09:44:39.000Z</time>
      </trkpt>
      <trkpt lat="46.992245" lon="10.614225">
        <ele>1655.956997</ele>
        <time>2024-08-23T09:44:40.000Z</time>
      </trkpt>
      <trkpt lat="46.992278" lon="10.614199">
        <ele>1655.895138</ele>
        <time>2024-08-23T09:44:41.000Z</time>
      </trkpt>
      <trkpt lat="46.992307" lon="10.614174">
        <ele>1655.839588</ele>
        <time>2024-08-23T09:44:42.000Z</time>
      </trkpt>
      <trkpt lat="46.992350" lon="10.614142">
        <ele>1655.759964</ele>
        <time>2024-08-23T09:44:43.000Z</time>
      </trkpt>
      <trkpt lat="46.992381" lon="10.614128">
        <ele>1655.706404</ele>
        <time>2024-08-23T09:44:44.000Z</time>
      </trkpt>
      <trkpt lat="46.992416" lon="10.614126">
        <ele>1655.648568</ele>
        <time>2024-08-23T09:44:45.000Z</time>
      </trkpt>
      <trkpt lat="46.992445" lon="10.614129">
        <ele>1655.600565</ele>
        <time>2024-08-23T09:44:46.000Z</time>
      </trkpt>
      <trkpt lat="46.992470" lon="10.614132">
        <ele>1655.559147</ele>
        <time>2024-08-23T09:44:47.000Z</time>
      </trkpt>
      <trkpt lat="46.992509" lon="10.614143">
        <ele>1655.493570</ele>
        <time>2024-08-23T09:44:48.000Z</time>
      </trkpt>
      <trkpt lat="46.992540" lon="10.614155">
        <ele>1655.440629</ele>
        <time>2024-08-23T09:44:49.000Z</time>
      </trkpt>
      <trkpt lat="46.992575" lon="10.614165">
        <ele>1655.381750</ele>
        <time>2024-08-23T09:44:50.000Z</time>
      </trkpt>
      <trkpt lat="46.992612" lon="10.614171">
        <ele>1655.320284</ele>
        <time>2024-08-23T09:44:51.000Z</time>
      </trkpt>
      <trkpt lat="46.992647" lon="10.614179">
        <ele>1655.261794</ele>
        <time>2024-08-23T09:44:52.000Z</time>
      </trkpt>
      <trkpt lat="46.992704" lon="10.614190">
        <ele>1655.166865</ele>
        <time>2024-08-23T09:44:53.000Z</time>
      </trkpt>
      <trkpt lat="46.992742" lon="10.614193">
        <ele>1655.104029</ele>
        <time>2024-08-23T09:44:54.000Z</time>
      </trkpt>
      <trkpt lat="46.992782" lon="10.614200">
        <ele>1655.037512</ele>
        <time>2024-08-23T09:44:55.000Z</time>
      </trkpt>
      <trkpt lat="46.992821" lon="10.614206">
        <ele>1654.965226</ele>
        <time>2024-08-23T09:44:56.000Z</time>
      </trkpt>
      <trkpt lat="46.992880" lon="10.614213">
        <ele>1654.760345</ele>
        <time>2024-08-23T09:44:57.000Z</time>
      </trkpt>
      <trkpt lat="46.992919" lon="10.614212">
        <ele>1654.625335</ele>
        <time>2024-08-23T09:44:58.000Z</time>
      </trkpt>
      <trkpt lat="46.992958" lon="10.614208">
        <ele>1654.490016</ele>
        <time>2024-08-23T09:44:59.000Z</time>
      </trkpt>
      <trkpt lat="46.992996" lon="10.614211">
        <ele>1654.358297</ele>
        <time>2024-08-23T09:45:00.000Z</time>
      </trkpt>
      <trkpt lat="46.993035" lon="10.614214">
        <ele>1654.223123</ele>
        <time>2024-08-23T09:45:01.000Z</time>
      </trkpt>
      <trkpt lat="46.993089" lon="10.614237">
        <ele>1654.028487</ele>
        <time>2024-08-23T09:45:02.000Z</time>
      </trkpt>
      <trkpt lat="46.993123" lon="10.614250">
        <ele>1653.906868</ele>
        <time>2024-08-23T09:45:03.000Z</time>
      </trkpt>
      <trkpt lat="46.993159" lon="10.614273">
        <ele>1653.770945</ele>
        <time>2024-08-23T09:45:04.000Z</time>
      </trkpt>
      <trkpt lat="46.993190" lon="10.614291">
        <ele>1653.655537</ele>
        <time>2024-08-23T09:45:05.000Z</time>
      </trkpt>
      <trkpt lat="46.993233" lon="10.614327">
        <ele>1653.484146</ele>
        <time>2024-08-23T09:45:06.000Z</time>
      </trkpt>
      <trkpt lat="46.993260" lon="10.614358">
        <ele>1653.365444</ele>
        <time>2024-08-23T09:45:07.000Z</time>
      </trkpt>
      <trkpt lat="46.993286" lon="10.614381">
        <ele>1653.260339</ele>
        <time>2024-08-23T09:45:08.000Z</time>
      </trkpt>
      <trkpt lat="46.993311" lon="10.614403">
        <ele>1653.159416</ele>
        <time>2024-08-23T09:45:09.000Z</time>
      </trkpt>
      <trkpt lat="46.993340" lon="10.614423">
        <ele>1653.048489</ele>
        <time>2024-08-23T09:45:10.000Z</time>
      </trkpt>
      <trkpt lat="46.993389" lon="10.614443">
        <ele>1652.872437</ele>
        <time>2024-08-23T09:45:11.000Z</time>
      </trkpt>
      <trkpt lat="46.993419" lon="10.614451">
        <ele>1652.766896</ele>
        <time>2024-08-23T09:45:12.000Z</time>
      </trkpt>
      <trkpt lat="46.993449" lon="10.614458">
        <ele>1652.661751</ele>
        <time>2024-08-23T09:45:13.000Z</time>
      </trkpt>
      <trkpt lat="46.993485" lon="10.614465">
        <ele>1652.536055</ele>
        <time>2024-08-23T09:45:14.000Z</time>
      </trkpt>
      <trkpt lat="46.993542" lon="10.614476">
        <ele>1652.337061</ele>
        <time>2024-08-23T09:45:15.000Z</time>
      </trkpt>
      <trkpt lat="46.993576" lon="10.614479">
        <ele>1652.219166</ele>
        <time>2024-08-23T09:45:16.000Z</time>
      </trkpt>
      <trkpt lat="46.993606" lon="10.614486">
        <ele>1652.114021</ele>
        <time>2024-08-23T09:45:17.000Z</time>
      </trkpt>
      <trkpt lat="46.993643" lon="10.614495">
        <ele>1651.984204</ele>
        <time>2024-08-23T09:45:18.000Z</time>
      </trkpt>
      <trkpt lat="46.993681" lon="10.614507">
        <ele>1651.849659</ele>
        <time>2024-08-23T09:45:19.000Z</time>
      </trkpt>
      <trkpt lat="46.993733" lon="10.614512">
        <ele>1651.669287</ele>
        <time>2024-08-23T09:45:20.000Z</time>
      </trkpt>
      <trkpt lat="46.993773" lon="10.614520">
        <ele>1651.529555</ele>
        <time>2024-08-23T09:45:21.000Z</time>
      </trkpt>
      <trkpt lat="46.993813" lon="10.614528">
        <ele>1651.389822</ele>
        <time>2024-08-23T09:45:22.000Z</time>
      </trkpt>
      <trkpt lat="46.993854" lon="10.614544">
        <ele>1651.242969</ele>
        <time>2024-08-23T09:45:23.000Z</time>
      </trkpt>
      <trkpt lat="46.993916" lon="10.614548">
        <ele>1651.028164</ele>
        <time>2024-08-23T09:45:24.000Z</time>
      </trkpt>
      <trkpt lat="46.993951" lon="10.614546">
        <ele>1650.906928</ele>
        <time>2024-08-23T09:45:25.000Z</time>
      </trkpt>
      <trkpt lat="46.993990" lon="10.614549">
        <ele>1650.771753</ele>
        <time>2024-08-23T09:45:26.000Z</time>
      </trkpt>
      <trkpt lat="46.994029" lon="10.614540">
        <ele>1650.635102</ele>
        <time>2024-08-23T09:45:27.000Z</time>
      </trkpt>
      <trkpt lat="46.994100" lon="10.614520">
        <ele>1650.384858</ele>
        <time>2024-08-23T09:45:28.000Z</time>
      </trkpt>
      <trkpt lat="46.994145" lon="10.614503">
        <ele>1650.224014</ele>
        <time>2024-08-23T09:45:29.000Z</time>
      </trkpt>
      <trkpt lat="46.994187" lon="10.614485">
        <ele>1650.072557</ele>
        <time>2024-08-23T09:45:30.000Z</time>
      </trkpt>
      <trkpt lat="46.994221" lon="10.614460">
        <ele>1649.940903</ele>
        <time>2024-08-23T09:45:31.000Z</time>
      </trkpt>
      <trkpt lat="46.994264" lon="10.614432">
        <ele>1649.778050</ele>
        <time>2024-08-23T09:45:32.000Z</time>
      </trkpt>
      <trkpt lat="46.994329" lon="10.614381">
        <ele>1649.522877</ele>
        <time>2024-08-23T09:45:33.000Z</time>
      </trkpt>
      <trkpt lat="46.994369" lon="10.614344">
        <ele>1649.359174</ele>
        <time>2024-08-23T09:45:34.000Z</time>
      </trkpt>
      <trkpt lat="46.994410" lon="10.614304">
        <ele>1649.188715</ele>
        <time>2024-08-23T09:45:35.000Z</time>
      </trkpt>
      <trkpt lat="46.994449" lon="10.614270">
        <ele>1649.031664</ele>
        <time>2024-08-23T09:45:36.000Z</time>
      </trkpt>
      <trkpt lat="46.994494" lon="10.614251">
        <ele>1648.869577</ele>
        <time>2024-08-23T09:45:37.000Z</time>
      </trkpt>
      <trkpt lat="46.994568" lon="10.614227">
        <ele>1648.306714</ele>
        <time>2024-08-23T09:45:38.000Z</time>
      </trkpt>
      <trkpt lat="46.994622" lon="10.614220">
        <ele>1647.734980</ele>
        <time>2024-08-23T09:45:39.000Z</time>
      </trkpt>
      <trkpt lat="46.994673" lon="10.614218">
        <ele>1647.196916</ele>
        <time>2024-08-23T09:45:40.000Z</time>
      </trkpt>
      <trkpt lat="46.994720" lon="10.614216">
        <ele>1646.701021</ele>
        <time>2024-08-23T09:45:41.000Z</time>
      </trkpt>
      <trkpt lat="46.994787" lon="10.614203">
        <ele>1645.988244</ele>
        <time>2024-08-23T09:45:42.000Z</time>
      </trkpt>
      <trkpt lat="46.994838" lon="10.614200">
        <ele>1645.449939</ele>
        <time>2024-08-23T09:45:43.000Z</time>
      </trkpt>
      <trkpt lat="46.994891" lon="10.614195">
        <ele>1644.889818</ele>
        <time>2024-08-23T09:45:44.000Z</time>
      </trkpt>
      <trkpt lat="46.994942" lon="10.614190">
        <ele>1644.350745</ele>
        <time>2024-08-23T09:45:45.000Z</time>
      </trkpt>
      <trkpt lat="46.995011" lon="10.614156">
        <ele>1643.583035</ele>
        <time>2024-08-23T09:45:46.000Z</time>
      </trkpt>
      <trkpt lat="46.995062" lon="10.614131">
        <ele>1643.015896</ele>
        <time>2024-08-23T09:45:47.000Z</time>
      </trkpt>
      <trkpt lat="46.995107" lon="10.614095">
        <ele>1642.475249</ele>
        <time>2024-08-23T09:45:48.000Z</time>
      </trkpt>
      <trkpt lat="46.995153" lon="10.614059">
        <ele>1641.925321</ele>
        <time>2024-08-23T09:45:49.000Z</time>
      </trkpt>
      <trkpt lat="46.995199" lon="10.614014">
        <ele>1641.342103</ele>
        <time>2024-08-23T09:45:50.000Z</time>
      </trkpt>
      <trkpt lat="46.995274" lon="10.613957">
        <ele>1640.451160</ele>
        <time>2024-08-23T09:45:51.000Z</time>
      </trkpt>
      <trkpt lat="46.995320" lon="10.613914">
        <ele>1639.875804</ele>
        <time>2024-08-23T09:45:52.000Z</time>
      </trkpt>
      <trkpt lat="46.995360" lon="10.613864">
        <ele>1639.321434</ele>
        <time>2024-08-23T09:45:53.000Z</time>
      </trkpt>
      <trkpt lat="46.995428" lon="10.613881">
        <ele>1638.593920</ele>
        <time>2024-08-23T09:45:54.000Z</time>
      </trkpt>
      <trkpt lat="46.995478" lon="10.613854">
        <ele>1638.031965</ele>
        <time>2024-08-23T09:45:55.000Z</time>
      </trkpt>
      <trkpt lat="46.995547" lon="10.613798">
        <ele>1637.200202</ele>
        <time>2024-08-23T09:45:56.000Z</time>
      </trkpt>
      <trkpt lat="46.995591" lon="10.613759">
        <ele>1636.657947</ele>
        <time>2024-08-23T09:45:57.000Z</time>
      </trkpt>
      <trkpt lat="46.995634" lon="10.613729">
        <ele>1636.155721</ele>
        <time>2024-08-23T09:45:58.000Z</time>
      </trkpt>
      <trkpt lat="46.995677" lon="10.613701">
        <ele>1635.659506</ele>
        <time>2024-08-23T09:45:59.000Z</time>
      </trkpt>
      <trkpt lat="46.995742" lon="10.613659">
        <ele>1634.910361</ele>
        <time>2024-08-23T09:46:00.000Z</time>
      </trkpt>
      <trkpt lat="46.995782" lon="10.613632">
        <ele>1634.445940</ele>
        <time>2024-08-23T09:46:01.000Z</time>
      </trkpt>
      <trkpt lat="46.995820" lon="10.613596">
        <ele>1633.968789</ele>
        <time>2024-08-23T09:46:02.000Z</time>
      </trkpt>
      <trkpt lat="46.995861" lon="10.613559">
        <ele>1633.461037</ele>
        <time>2024-08-23T09:46:03.000Z</time>
      </trkpt>
      <trkpt lat="46.995922" lon="10.613494">
        <ele>1632.665740</ele>
        <time>2024-08-23T09:46:04.000Z</time>
      </trkpt>
      <trkpt lat="46.995965" lon="10.613452">
        <ele>1632.120821</ele>
        <time>2024-08-23T09:46:05.000Z</time>
      </trkpt>
      <trkpt lat="46.996005" lon="10.613410">
        <ele>1631.601938</ele>
        <time>2024-08-23T09:46:06.000Z</time>
      </trkpt>
      <trkpt lat="46.996038" lon="10.613359">
        <ele>1631.096259</ele>
        <time>2024-08-23T09:46:07.000Z</time>
      </trkpt>
      <trkpt lat="46.996072" lon="10.613318">
        <ele>1630.631975</ele>
        <time>2024-08-23T09:46:08.000Z</time>
      </trkpt>
      <trkpt lat="46.996126" lon="10.613258">
        <ele>1629.917400</ele>
        <time>2024-08-23T09:46:09.000Z</time>
      </trkpt>
      <trkpt lat="46.996163" lon="10.613218">
        <ele>1629.381761</ele>
        <time>2024-08-23T09:46:10.000Z</time>
      </trkpt>
      <trkpt lat="46.996198" lon="10.613176">
        <ele>1628.835927</ele>
        <time>2024-08-23T09:46:11.000Z</time>
      </trkpt>
      <trkpt lat="46.996225" lon="10.613129">
        <ele>1628.330116</ele>
        <time>2024-08-23T09:46:12.000Z</time>
      </trkpt>
      <trkpt lat="46.996263" lon="10.613050">
        <ele>1627.534401</ele>
        <time>2024-08-23T09:46:13.000Z</time>
      </trkpt>
      <trkpt lat="46.996292" lon="10.613002">
        <ele>1627.006582</ele>
        <time>2024-08-23T09:46:14.000Z</time>
      </trkpt>
      <trkpt lat="46.996316" lon="10.612949">
        <ele>1626.482930</ele>
        <time>2024-08-23T09:46:15.000Z</time>
      </trkpt>
      <trkpt lat="46.996333" lon="10.612894">
        <ele>1625.985893</ele>
        <time>2024-08-23T09:46:16.000Z</time>
      </trkpt>
      <trkpt lat="46.996358" lon="10.612846">
        <ele>1625.488769</ele>
        <time>2024-08-23T09:46:17.000Z</time>
      </trkpt>
      <trkpt lat="46.996392" lon="10.612765">
        <ele>1624.705892</ele>
        <time>2024-08-23T09:46:18.000Z</time>
      </trkpt>
      <trkpt lat="46.996414" lon="10.612722">
        <ele>1624.263435</ele>
        <time>2024-08-23T09:46:19.000Z</time>
      </trkpt>
      <trkpt lat="46.996439" lon="10.612696">
        <ele>1623.893529</ele>
        <time>2024-08-23T09:46:20.000Z</time>
      </trkpt>
      <trkpt lat="46.996456" lon="10.612667">
        <ele>1623.578771</ele>
        <time>2024-08-23T09:46:21.000Z</time>
      </trkpt>
      <trkpt lat="46.996484" lon="10.612627">
        <ele>1623.106975</ele>
        <time>2024-08-23T09:46:22.000Z</time>
      </trkpt>
      <trkpt lat="46.996500" lon="10.612599">
        <ele>1622.806303</ele>
        <time>2024-08-23T09:46:23.000Z</time>
      </trkpt>
      <trkpt lat="46.996519" lon="10.612574">
        <ele>1622.498205</ele>
        <time>2024-08-23T09:46:24.000Z</time>
      </trkpt>
      <trkpt lat="46.996547" lon="10.612550">
        <ele>1622.106781</ele>
        <time>2024-08-23T09:46:25.000Z</time>
      </trkpt>
      <trkpt lat="46.996572" lon="10.612518">
        <ele>1621.706271</ele>
        <time>2024-08-23T09:46:26.000Z</time>
      </trkpt>
      <trkpt lat="46.996613" lon="10.612461">
        <ele>1621.024390</ele>
        <time>2024-08-23T09:46:27.000Z</time>
      </trkpt>
      <trkpt lat="46.996647" lon="10.612419">
        <ele>1620.487843</ele>
        <time>2024-08-23T09:46:28.000Z</time>
      </trkpt>
      <trkpt lat="46.996677" lon="10.612371">
        <ele>1619.951947</ele>
        <time>2024-08-23T09:46:29.000Z</time>
      </trkpt>
      <trkpt lat="46.996704" lon="10.612326">
        <ele>1619.458617</ele>
        <time>2024-08-23T09:46:30.000Z</time>
      </trkpt>
      <trkpt lat="46.996742" lon="10.612279">
        <ele>1618.858634</ele>
        <time>2024-08-23T09:46:31.000Z</time>
      </trkpt>
      <trkpt lat="46.996763" lon="10.612237">
        <ele>1618.429979</ele>
        <time>2024-08-23T09:46:32.000Z</time>
      </trkpt>
      <trkpt lat="46.996785" lon="10.612202">
        <ele>1618.038202</ele>
        <time>2024-08-23T09:46:33.000Z</time>
      </trkpt>
      <trkpt lat="46.996810" lon="10.612174">
        <ele>1617.658535</ele>
        <time>2024-08-23T09:46:34.000Z</time>
      </trkpt>
      <trkpt lat="46.996840" lon="10.612149">
        <ele>1617.242088</ele>
        <time>2024-08-23T09:46:35.000Z</time>
      </trkpt>
      <trkpt lat="46.996881" lon="10.612123">
        <ele>1616.702984</ele>
        <time>2024-08-23T09:46:36.000Z</time>
      </trkpt>
      <trkpt lat="46.996908" lon="10.612105">
        <ele>1616.345033</ele>
        <time>2024-08-23T09:46:37.000Z</time>
      </trkpt>
      <trkpt lat="46.996938" lon="10.612090">
        <ele>1615.962507</ele>
        <time>2024-08-23T09:46:38.000Z</time>
      </trkpt>
      <trkpt lat="46.996965" lon="10.612077">
        <ele>1615.619539</ele>
        <time>2024-08-23T09:46:39.000Z</time>
      </trkpt>
      <trkpt lat="46.997009" lon="10.612055">
        <ele>1615.058499</ele>
        <time>2024-08-23T09:46:40.000Z</time>
      </trkpt>
      <trkpt lat="46.997046" lon="10.612042">
        <ele>1614.599325</ele>
        <time>2024-08-23T09:46:41.000Z</time>
      </trkpt>
      <trkpt lat="46.997084" lon="10.612011">
        <ele>1614.074517</ele>
        <time>2024-08-23T09:46:42.000Z</time>
      </trkpt>
      <trkpt lat="46.997130" lon="10.611979">
        <ele>1613.460052</ele>
        <time>2024-08-23T09:46:43.000Z</time>
      </trkpt>
      <trkpt lat="46.997173" lon="10.611939">
        <ele>1612.845476</ele>
        <time>2024-08-23T09:46:44.000Z</time>
      </trkpt>
      <trkpt lat="46.997234" lon="10.611882">
        <ele>1611.972506</ele>
        <time>2024-08-23T09:46:45.000Z</time>
      </trkpt>
      <trkpt lat="46.997277" lon="10.611848">
        <ele>1611.382911</ele>
        <time>2024-08-23T09:46:46.000Z</time>
      </trkpt>
      <trkpt lat="46.997317" lon="10.611808">
        <ele>1610.798585</ele>
        <time>2024-08-23T09:46:47.000Z</time>
      </trkpt>
      <trkpt lat="46.997355" lon="10.611764">
        <ele>1610.214222</ele>
        <time>2024-08-23T09:46:48.000Z</time>
      </trkpt>
      <trkpt lat="46.997393" lon="10.611718">
        <ele>1609.619517</ele>
        <time>2024-08-23T09:46:49.000Z</time>
      </trkpt>
      <trkpt lat="46.997446" lon="10.611655">
        <ele>1608.796094</ele>
        <time>2024-08-23T09:46:50.000Z</time>
      </trkpt>
      <trkpt lat="46.997478" lon="10.611613">
        <ele>1608.277775</ele>
        <time>2024-08-23T09:46:51.000Z</time>
      </trkpt>
      <trkpt lat="46.997511" lon="10.611577">
        <ele>1607.789614</ele>
        <time>2024-08-23T09:46:52.000Z</time>
      </trkpt>
      <trkpt lat="46.997544" lon="10.611533">
        <ele>1607.266268</ele>
        <time>2024-08-23T09:46:53.000Z</time>
      </trkpt>
      <trkpt lat="46.997591" lon="10.611475">
        <ele>1606.545493</ele>
        <time>2024-08-23T09:46:54.000Z</time>
      </trkpt>
      <trkpt lat="46.997622" lon="10.611430">
        <ele>1606.033664</ele>
        <time>2024-08-23T09:46:55.000Z</time>
      </trkpt>
      <trkpt lat="46.997652" lon="10.611384">
        <ele>1605.524353</ele>
        <time>2024-08-23T09:46:56.000Z</time>
      </trkpt>
      <trkpt lat="46.997685" lon="10.611344">
        <ele>1605.021985</ele>
        <time>2024-08-23T09:46:57.000Z</time>
      </trkpt>
      <trkpt lat="46.997715" lon="10.611302">
        <ele>1604.535305</ele>
        <time>2024-08-23T09:46:58.000Z</time>
      </trkpt>
      <trkpt lat="46.997758" lon="10.611235">
        <ele>1603.799101</ele>
        <time>2024-08-23T09:46:59.000Z</time>
      </trkpt>
      <trkpt lat="46.997786" lon="10.611186">
        <ele>1603.287555</ele>
        <time>2024-08-23T09:47:00.000Z</time>
      </trkpt>
      <trkpt lat="46.997817" lon="10.611141">
        <ele>1602.775728</ele>
        <time>2024-08-23T09:47:01.000Z</time>
      </trkpt>
      <trkpt lat="46.997850" lon="10.611090">
        <ele>1602.213169</ele>
        <time>2024-08-23T09:47:02.000Z</time>
      </trkpt>
      <trkpt lat="46.997859" lon="10.611085">
        <ele>1602.100246</ele>
        <time>2024-08-23T09:47:02.000Z</time>
      </trkpt>
      <trkpt lat="46.997875" lon="10.611055">
        <ele>1601.795493</ele>
        <time>2024-08-23T09:47:03.000Z</time>
      </trkpt>
      <trkpt lat="46.997989" lon="10.610903">
        <ele>1599.987579</ele>
        <time>2024-08-23T09:47:05.000Z</time>
      </trkpt>
      <trkpt lat="46.998056" lon="10.610849">
        <ele>1599.090528</ele>
        <time>2024-08-23T09:47:06.000Z</time>
      </trkpt>
      <trkpt lat="46.998131" lon="10.610802">
        <ele>1598.133547</ele>
        <time>2024-08-23T09:47:07.000Z</time>
      </trkpt>
      <trkpt lat="46.998198" lon="10.610760">
        <ele>1597.278603</ele>
        <time>2024-08-23T09:47:09.000Z</time>
      </trkpt>
      <trkpt lat="46.998239" lon="10.610732">
        <ele>1596.747927</ele>
        <time>2024-08-23T09:47:10.000Z</time>
      </trkpt>
      <trkpt lat="46.998283" lon="10.610702">
        <ele>1596.178587</ele>
        <time>2024-08-23T09:47:11.000Z</time>
      </trkpt>
      <trkpt lat="46.998353" lon="10.610668">
        <ele>1595.313384</ele>
        <time>2024-08-23T09:47:12.000Z</time>
      </trkpt>
      <trkpt lat="46.998396" lon="10.610642">
        <ele>1594.767648</ele>
        <time>2024-08-23T09:47:13.000Z</time>
      </trkpt>
      <trkpt lat="46.998436" lon="10.610615">
        <ele>1594.250982</ele>
        <time>2024-08-23T09:47:14.000Z</time>
      </trkpt>
      <trkpt lat="46.998475" lon="10.610581">
        <ele>1593.718619</ele>
        <time>2024-08-23T09:47:15.000Z</time>
      </trkpt>
      <trkpt lat="46.998516" lon="10.610546">
        <ele>1593.161974</ele>
        <time>2024-08-23T09:47:16.000Z</time>
      </trkpt>
      <trkpt lat="46.998579" lon="10.610479">
        <ele>1592.248827</ele>
        <time>2024-08-23T09:47:17.000Z</time>
      </trkpt>
      <trkpt lat="46.998622" lon="10.610429">
        <ele>1591.604913</ele>
        <time>2024-08-23T09:47:18.000Z</time>
      </trkpt>
      <trkpt lat="46.998668" lon="10.610374">
        <ele>1590.908495</ele>
        <time>2024-08-23T09:47:19.000Z</time>
      </trkpt>
      <trkpt lat="46.998717" lon="10.610315">
        <ele>1590.164565</ele>
        <time>2024-08-23T09:47:20.000Z</time>
      </trkpt>
      <trkpt lat="46.998798" lon="10.610241">
        <ele>1589.044806</ele>
        <time>2024-08-23T09:47:21.000Z</time>
      </trkpt>
      <trkpt lat="46.998858" lon="10.610193">
        <ele>1588.242857</ele>
        <time>2024-08-23T09:47:22.000Z</time>
      </trkpt>
      <trkpt lat="46.998921" lon="10.610142">
        <ele>1587.398500</ele>
        <time>2024-08-23T09:47:23.000Z</time>
      </trkpt>
      <trkpt lat="46.998986" lon="10.610094">
        <ele>1586.551061</ele>
        <time>2024-08-23T09:47:24.000Z</time>
      </trkpt>
      <trkpt lat="46.999053" lon="10.610045">
        <ele>1585.685817</ele>
        <time>2024-08-23T09:47:25.000Z</time>
      </trkpt>
      <trkpt lat="46.999147" lon="10.609987">
        <ele>1584.507256</ele>
        <time>2024-08-23T09:47:26.000Z</time>
      </trkpt>
      <trkpt lat="46.999210" lon="10.609958">
        <ele>1583.744172</ele>
        <time>2024-08-23T09:47:27.000Z</time>
      </trkpt>
      <trkpt lat="46.999267" lon="10.609936">
        <ele>1583.063021</ele>
        <time>2024-08-23T09:47:28.000Z</time>
      </trkpt>
      <trkpt lat="46.999314" lon="10.609916">
        <ele>1582.497462</ele>
        <time>2024-08-23T09:47:29.000Z</time>
      </trkpt>
      <trkpt lat="46.999368" lon="10.609875">
        <ele>1581.794718</ele>
        <time>2024-08-23T09:47:30.000Z</time>
      </trkpt>
      <trkpt lat="46.999395" lon="10.609841">
        <ele>1581.383421</ele>
        <time>2024-08-23T09:47:31.000Z</time>
      </trkpt>
      <trkpt lat="46.999417" lon="10.609803">
        <ele>1580.990565</ele>
        <time>2024-08-23T09:47:32.000Z</time>
      </trkpt>
      <trkpt lat="46.999441" lon="10.609758">
        <ele>1580.540328</ele>
        <time>2024-08-23T09:47:33.000Z</time>
      </trkpt>
      <trkpt lat="46.999459" lon="10.609699">
        <ele>1580.030915</ele>
        <time>2024-08-23T09:47:34.000Z</time>
      </trkpt>
      <trkpt lat="46.999489" lon="10.609594">
        <ele>1579.133673</ele>
        <time>2024-08-23T09:47:35.000Z</time>
      </trkpt>
      <trkpt lat="46.999517" lon="10.609521">
        <ele>1578.473577</ele>
        <time>2024-08-23T09:47:36.000Z</time>
      </trkpt>
      <trkpt lat="46.999546" lon="10.609449">
        <ele>1577.814538</ele>
        <time>2024-08-23T09:47:37.000Z</time>
      </trkpt>
      <trkpt lat="46.999582" lon="10.609385">
        <ele>1577.160693</ele>
        <time>2024-08-23T09:47:38.000Z</time>
      </trkpt>
      <trkpt lat="46.999649" lon="10.609300">
        <ele>1576.136828</ele>
        <time>2024-08-23T09:47:39.000Z</time>
      </trkpt>
      <trkpt lat="46.999704" lon="10.609262">
        <ele>1575.434202</ele>
        <time>2024-08-23T09:47:40.000Z</time>
      </trkpt>
      <trkpt lat="46.999757" lon="10.609234">
        <ele>1574.783173</ele>
        <time>2024-08-23T09:47:41.000Z</time>
      </trkpt>
      <trkpt lat="46.999808" lon="10.609220">
        <ele>1574.183560</ele>
        <time>2024-08-23T09:47:42.000Z</time>
      </trkpt>
      <trkpt lat="46.999880" lon="10.609200">
        <ele>1573.336705</ele>
        <time>2024-08-23T09:47:43.000Z</time>
      </trkpt>
      <trkpt lat="46.999924" lon="10.609178">
        <ele>1572.799475</ele>
        <time>2024-08-23T09:47:44.000Z</time>
      </trkpt>
      <trkpt lat="46.999961" lon="10.609146">
        <ele>1572.303052</ele>
        <time>2024-08-23T09:47:45.000Z</time>
      </trkpt>
      <trkpt lat="46.999994" lon="10.609114">
        <ele>1571.845841</ele>
        <time>2024-08-23T09:47:46.000Z</time>
      </trkpt>
      <trkpt lat="47.000027" lon="10.609081">
        <ele>1571.384235</ele>
        <time>2024-08-23T09:47:47.000Z</time>
      </trkpt>
      <trkpt lat="47.000077" lon="10.609023">
        <ele>1570.647464</ele>
        <time>2024-08-23T09:47:48.000Z</time>
      </trkpt>
      <trkpt lat="47.000110" lon="10.608981">
        <ele>1570.142481</ele>
        <time>2024-08-23T09:47:49.000Z</time>
      </trkpt>
      <trkpt lat="47.000143" lon="10.608939">
        <ele>1569.637498</ele>
        <time>2024-08-23T09:47:50.000Z</time>
      </trkpt>
      <trkpt lat="47.000176" lon="10.608897">
        <ele>1569.132515</ele>
        <time>2024-08-23T09:47:51.000Z</time>
      </trkpt>
      <trkpt lat="47.000207" lon="10.608855">
        <ele>1568.644751</ele>
        <time>2024-08-23T09:47:52.000Z</time>
      </trkpt>
      <trkpt lat="47.000251" lon="10.608790">
        <ele>1567.922954</ele>
        <time>2024-08-23T09:47:53.000Z</time>
      </trkpt>
      <trkpt lat="47.000278" lon="10.608743">
        <ele>1567.438629</ele>
        <time>2024-08-23T09:47:54.000Z</time>
      </trkpt>
      <trkpt lat="47.000311" lon="10.608703">
        <ele>1566.943836</ele>
        <time>2024-08-23T09:47:55.000Z</time>
      </trkpt>
      <trkpt lat="47.000348" lon="10.608672">
        <ele>1566.451371</ele>
        <time>2024-08-23T09:47:56.000Z</time>
      </trkpt>
      <trkpt lat="47.000414" lon="10.608651">
        <ele>1565.540413</ele>
        <time>2024-08-23T09:47:57.000Z</time>
      </trkpt>
      <trkpt lat="47.000462" lon="10.608658">
        <ele>1564.842460</ele>
        <time>2024-08-23T09:47:58.000Z</time>
      </trkpt>
      <trkpt lat="47.000506" lon="10.608665">
        <ele>1564.202075</ele>
        <time>2024-08-23T09:47:59.000Z</time>
      </trkpt>
      <trkpt lat="47.000547" lon="10.608672">
        <ele>1563.604825</ele>
        <time>2024-08-23T09:48:00.000Z</time>
      </trkpt>
      <trkpt lat="47.000587" lon="10.608670">
        <ele>1563.025717</ele>
        <time>2024-08-23T09:48:01.000Z</time>
      </trkpt>
      <trkpt lat="47.000640" lon="10.608643">
        <ele>1562.213878</ele>
        <time>2024-08-23T09:48:02.000Z</time>
      </trkpt>
      <trkpt lat="47.000673" lon="10.608620">
        <ele>1561.685195</ele>
        <time>2024-08-23T09:48:03.000Z</time>
      </trkpt>
      <trkpt lat="47.000700" lon="10.608591">
        <ele>1561.200926</ele>
        <time>2024-08-23T09:48:04.000Z</time>
      </trkpt>
      <trkpt lat="47.000725" lon="10.608560">
        <ele>1560.727187</ele>
        <time>2024-08-23T09:48:05.000Z</time>
      </trkpt>
      <trkpt lat="47.000748" lon="10.608504">
        <ele>1560.082112</ele>
        <time>2024-08-23T09:48:06.000Z</time>
      </trkpt>
      <trkpt lat="47.000762" lon="10.608470">
        <ele>1559.690193</ele>
        <time>2024-08-23T09:48:07.000Z</time>
      </trkpt>
      <trkpt lat="47.000774" lon="10.608428">
        <ele>1559.240840</ele>
        <time>2024-08-23T09:48:08.000Z</time>
      </trkpt>
      <trkpt lat="47.000782" lon="10.608379">
        <ele>1558.743650</ele>
        <time>2024-08-23T09:48:09.000Z</time>
      </trkpt>
      <trkpt lat="47.000787" lon="10.608334">
        <ele>1558.293740</ele>
        <time>2024-08-23T09:48:10.000Z</time>
      </trkpt>
      <trkpt lat="47.000777" lon="10.608259">
        <ele>1557.539636</ele>
        <time>2024-08-23T09:48:11.000Z</time>
      </trkpt>
      <trkpt lat="47.000761" lon="10.608204">
        <ele>1556.949588</ele>
        <time>2024-08-23T09:48:12.000Z</time>
      </trkpt>
      <trkpt lat="47.000739" lon="10.608152">
        <ele>1556.345739</ele>
        <time>2024-08-23T09:48:13.000Z</time>
      </trkpt>
      <trkpt lat="47.000710" lon="10.608100">
        <ele>1555.682884</ele>
        <time>2024-08-23T09:48:14.000Z</time>
      </trkpt>
      <trkpt lat="47.000665" lon="10.608037">
        <ele>1554.782640</ele>
        <time>2024-08-23T09:48:15.000Z</time>
      </trkpt>
      <trkpt lat="47.000632" lon="10.608004">
        <ele>1554.204681</ele>
        <time>2024-08-23T09:48:16.000Z</time>
      </trkpt>
      <trkpt lat="47.000600" lon="10.607971">
        <ele>1553.638618</ele>
        <time>2024-08-23T09:48:17.000Z</time>
      </trkpt>
      <trkpt lat="47.000573" lon="10.607937">
        <ele>1553.123651</ele>
        <time>2024-08-23T09:48:18.000Z</time>
      </trkpt>
      <trkpt lat="47.000540" lon="10.607867">
        <ele>1552.283927</ele>
        <time>2024-08-23T09:48:19.000Z</time>
      </trkpt>
      <trkpt lat="47.000515" lon="10.607815">
        <ele>1551.656108</ele>
        <time>2024-08-23T09:48:20.000Z</time>
      </trkpt>
      <trkpt lat="47.000493" lon="10.607759">
        <ele>1551.018376</ele>
        <time>2024-08-23T09:48:21.000Z</time>
      </trkpt>
      <trkpt lat="47.000467" lon="10.607708">
        <ele>1550.390041</ele>
        <time>2024-08-23T09:48:22.000Z</time>
      </trkpt>
      <trkpt lat="47.000449" lon="10.607662">
        <ele>1549.866704</ele>
        <time>2024-08-23T09:48:23.000Z</time>
      </trkpt>
      <trkpt lat="47.000424" lon="10.607587">
        <ele>1549.042936</ele>
        <time>2024-08-23T09:48:24.000Z</time>
      </trkpt>
      <trkpt lat="47.000401" lon="10.607530">
        <ele>1548.389385</ele>
        <time>2024-08-23T09:48:25.000Z</time>
      </trkpt>
      <trkpt lat="47.000373" lon="10.607461">
        <ele>1547.597078</ele>
        <time>2024-08-23T09:48:26.000Z</time>
      </trkpt>
      <trkpt lat="47.000345" lon="10.607394">
        <ele>1546.821666</ele>
        <time>2024-08-23T09:48:27.000Z</time>
      </trkpt>
      <trkpt lat="47.000321" lon="10.607324">
        <ele>1546.048530</ele>
        <time>2024-08-23T09:48:28.000Z</time>
      </trkpt>
      <trkpt lat="47.000282" lon="10.607211">
        <ele>1544.798792</ele>
        <time>2024-08-23T09:48:29.000Z</time>
      </trkpt>
      <trkpt lat="47.000252" lon="10.607143">
        <ele>1543.999606</ele>
        <time>2024-08-23T09:48:30.000Z</time>
      </trkpt>
      <trkpt lat="47.000228" lon="10.607078">
        <ele>1543.270216</ele>
        <time>2024-08-23T09:48:31.000Z</time>
      </trkpt>
      <trkpt lat="47.000205" lon="10.607013">
        <ele>1542.547601</ele>
        <time>2024-08-23T09:48:32.000Z</time>
      </trkpt>
      <trkpt lat="47.000168" lon="10.606905">
        <ele>1541.354946</ele>
        <time>2024-08-23T09:48:33.000Z</time>
      </trkpt>
      <trkpt lat="47.000147" lon="10.606839">
        <ele>1540.636263</ele>
        <time>2024-08-23T09:48:34.000Z</time>
      </trkpt>
      <trkpt lat="47.000135" lon="10.606778">
        <ele>1540.036587</ele>
        <time>2024-08-23T09:48:35.000Z</time>
      </trkpt>
      <trkpt lat="47.000122" lon="10.606724">
        <ele>1539.570085</ele>
        <time>2024-08-23T09:48:36.000Z</time>
      </trkpt>
      <trkpt lat="47.000092" lon="10.606650">
        <ele>1538.868795</ele>
        <time>2024-08-23T09:48:37.000Z</time>
      </trkpt>
      <trkpt lat="47.000079" lon="10.606608">
        <ele>1538.493062</ele>
        <time>2024-08-23T09:48:38.000Z</time>
      </trkpt>
      <trkpt lat="47.000069" lon="10.606557">
        <ele>1538.060771</ele>
        <time>2024-08-23T09:48:39.000Z</time>
      </trkpt>
      <trkpt lat="47.000076" lon="10.606522">
        <ele>1537.763643</ele>
        <time>2024-08-23T09:48:40.000Z</time>
      </trkpt>
      <trkpt lat="47.000091" lon="10.606500">
        <ele>1537.510223</ele>
        <time>2024-08-23T09:48:41.000Z</time>
      </trkpt>
      <trkpt lat="47.000128" lon="10.606485">
        <ele>1537.051686</ele>
        <time>2024-08-23T09:48:42.000Z</time>
      </trkpt>
      <trkpt lat="47.000158" lon="10.606505">
        <ele>1536.658044</ele>
        <time>2024-08-23T09:48:43.000Z</time>
      </trkpt>
      <trkpt lat="47.000191" lon="10.606538">
        <ele>1536.180923</ele>
        <time>2024-08-23T09:48:44.000Z</time>
      </trkpt>
      <trkpt lat="47.000222" lon="10.606582">
        <ele>1535.665570</ele>
        <time>2024-08-23T09:48:45.000Z</time>
      </trkpt>
      <trkpt lat="47.000283" lon="10.606662">
        <ele>1534.688013</ele>
        <time>2024-08-23T09:48:46.000Z</time>
      </trkpt>
      <trkpt lat="47.000334" lon="10.606713">
        <ele>1533.950646</ele>
        <time>2024-08-23T09:48:47.000Z</time>
      </trkpt>
      <trkpt lat="47.000387" lon="10.606760">
        <ele>1533.210800</ele>
        <time>2024-08-23T09:48:48.000Z</time>
      </trkpt>
      <trkpt lat="47.000434" lon="10.606815">
        <ele>1532.492526</ele>
        <time>2024-08-23T09:48:49.000Z</time>
      </trkpt>
      <trkpt lat="47.000482" lon="10.606868">
        <ele>1531.774796</ele>
        <time>2024-08-23T09:48:50.000Z</time>
      </trkpt>
      <trkpt lat="47.000552" lon="10.606948">
        <ele>1530.714688</ele>
        <time>2024-08-23T09:48:51.000Z</time>
      </trkpt>
      <trkpt lat="47.000594" lon="10.606997">
        <ele>1530.073583</ele>
        <time>2024-08-23T09:48:52.000Z</time>
      </trkpt>
      <trkpt lat="47.000623" lon="10.607051">
        <ele>1529.513672</ele>
        <time>2024-08-23T09:48:53.000Z</time>
      </trkpt>
      <trkpt lat="47.000647" lon="10.607109">
        <ele>1528.961025</ele>
        <time>2024-08-23T09:48:54.000Z</time>
      </trkpt>
      <trkpt lat="47.000689" lon="10.607200">
        <ele>1528.065918</ele>
        <time>2024-08-23T09:48:55.000Z</time>
      </trkpt>
      <trkpt lat="47.000718" lon="10.607258">
        <ele>1527.480061</ele>
        <time>2024-08-23T09:48:56.000Z</time>
      </trkpt>
      <trkpt lat="47.000751" lon="10.607315">
        <ele>1526.870979</ele>
        <time>2024-08-23T09:48:57.000Z</time>
      </trkpt>
      <trkpt lat="47.000774" lon="10.607370">
        <ele>1526.345416</ele>
        <time>2024-08-23T09:48:58.000Z</time>
      </trkpt>
      <trkpt lat="47.000804" lon="10.607415">
        <ele>1525.832786</ele>
        <time>2024-08-23T09:48:59.000Z</time>
      </trkpt>
      <trkpt lat="47.000868" lon="10.607483">
        <ele>1524.888723</ele>
        <time>2024-08-23T09:49:00.000Z</time>
      </trkpt>
      <trkpt lat="47.000920" lon="10.607523">
        <ele>1524.187313</ele>
        <time>2024-08-23T09:49:01.000Z</time>
      </trkpt>
      <trkpt lat="47.000970" lon="10.607560">
        <ele>1523.518329</ele>
        <time>2024-08-23T09:49:02.000Z</time>
      </trkpt>
      <trkpt lat="47.001023" lon="10.607595">
        <ele>1522.824015</ele>
        <time>2024-08-23T09:49:03.000Z</time>
      </trkpt>
      <trkpt lat="47.001094" lon="10.607644">
        <ele>1521.886697</ele>
        <time>2024-08-23T09:49:04.000Z</time>
      </trkpt>
      <trkpt lat="47.001140" lon="10.607672">
        <ele>1521.291776</ele>
        <time>2024-08-23T09:49:05.000Z</time>
      </trkpt>
      <trkpt lat="47.001185" lon="10.607695">
        <ele>1520.722544</ele>
        <time>2024-08-23T09:49:06.000Z</time>
      </trkpt>
      <trkpt lat="47.001227" lon="10.607719">
        <ele>1520.184115</ele>
        <time>2024-08-23T09:49:07.000Z</time>
      </trkpt>
      <trkpt lat="47.001268" lon="10.607742">
        <ele>1519.659763</ele>
        <time>2024-08-23T09:49:08.000Z</time>
      </trkpt>
      <trkpt lat="47.001328" lon="10.607768">
        <ele>1518.912437</ele>
        <time>2024-08-23T09:49:09.000Z</time>
      </trkpt>
      <trkpt lat="47.001367" lon="10.607778">
        <ele>1518.431430</ele>
        <time>2024-08-23T09:49:10.000Z</time>
      </trkpt>
      <trkpt lat="47.001402" lon="10.607790">
        <ele>1517.987585</ele>
        <time>2024-08-23T09:49:11.000Z</time>
      </trkpt>
      <trkpt lat="47.001433" lon="10.607803">
        <ele>1517.589443</ele>
        <time>2024-08-23T09:49:12.000Z</time>
      </trkpt>
      <trkpt lat="47.001470" lon="10.607840">
        <ele>1517.036425</ele>
        <time>2024-08-23T09:49:13.000Z</time>
      </trkpt>
      <trkpt lat="47.001489" lon="10.607881">
        <ele>1516.618984</ele>
        <time>2024-08-23T09:49:14.000Z</time>
      </trkpt>
      <trkpt lat="47.001501" lon="10.607927">
        <ele>1516.204234</ele>
        <time>2024-08-23T09:49:15.000Z</time>
      </trkpt>
      <trkpt lat="47.001509" lon="10.607972">
        <ele>1515.812615</ele>
        <time>2024-08-23T09:49:16.000Z</time>
      </trkpt>
      <trkpt lat="47.001525" lon="10.608026">
        <ele>1515.316803</ele>
        <time>2024-08-23T09:49:17.000Z</time>
      </trkpt>
      <trkpt lat="47.001529" lon="10.608108">
        <ele>1514.624498</ele>
        <time>2024-08-23T09:49:18.000Z</time>
      </trkpt>
      <trkpt lat="47.001527" lon="10.608170">
        <ele>1514.101799</ele>
        <time>2024-08-23T09:49:19.000Z</time>
      </trkpt>
      <trkpt lat="47.001518" lon="10.608229">
        <ele>1513.592669</ele>
        <time>2024-08-23T09:49:20.000Z</time>
      </trkpt>
      <trkpt lat="47.001514" lon="10.608296">
        <ele>1513.026289</ele>
        <time>2024-08-23T09:49:21.000Z</time>
      </trkpt>
      <trkpt lat="47.001504" lon="10.608388">
        <ele>1512.241757</ele>
        <time>2024-08-23T09:49:22.000Z</time>
      </trkpt>
      <trkpt lat="47.001494" lon="10.608445">
        <ele>1511.746118</ele>
        <time>2024-08-23T09:49:23.000Z</time>
      </trkpt>
      <trkpt lat="47.001488" lon="10.608507">
        <ele>1511.218771</ele>
        <time>2024-08-23T09:49:24.000Z</time>
      </trkpt>
      <trkpt lat="47.001485" lon="10.608576">
        <ele>1510.636526</ele>
        <time>2024-08-23T09:49:25.000Z</time>
      </trkpt>
      <trkpt lat="47.001481" lon="10.608646">
        <ele>1510.044974</ele>
        <time>2024-08-23T09:49:26.000Z</time>
      </trkpt>
      <trkpt lat="47.001482" lon="10.608751">
        <ele>1509.160658</ele>
        <time>2024-08-23T09:49:27.000Z</time>
      </trkpt>
      <trkpt lat="47.001481" lon="10.608822">
        <ele>1508.562623</ele>
        <time>2024-08-23T09:49:28.000Z</time>
      </trkpt>
      <trkpt lat="47.001480" lon="10.608895">
        <ele>1507.947749</ele>
        <time>2024-08-23T09:49:29.000Z</time>
      </trkpt>
      <trkpt lat="47.001477" lon="10.608970">
        <ele>1507.315071</ele>
        <time>2024-08-23T09:49:30.000Z</time>
      </trkpt>
      <trkpt lat="47.001483" lon="10.609086">
        <ele>1506.335402</ele>
        <time>2024-08-23T09:49:31.000Z</time>
      </trkpt>
      <trkpt lat="47.001490" lon="10.609164">
        <ele>1505.672883</ele>
        <time>2024-08-23T09:49:32.000Z</time>
      </trkpt>
      <trkpt lat="47.001501" lon="10.609244">
        <ele>1504.985628</ele>
        <time>2024-08-23T09:49:33.000Z</time>
      </trkpt>
      <trkpt lat="47.001511" lon="10.609326">
        <ele>1504.284133</ele>
        <time>2024-08-23T09:49:34.000Z</time>
      </trkpt>
      <trkpt lat="47.001525" lon="10.609404">
        <ele>1503.604909</ele>
        <time>2024-08-23T09:49:35.000Z</time>
      </trkpt>
      <trkpt lat="47.001542" lon="10.609515">
        <ele>1502.646872</ele>
        <time>2024-08-23T09:49:36.000Z</time>
      </trkpt>
      <trkpt lat="47.001544" lon="10.609585">
        <ele>1502.056869</ele>
        <time>2024-08-23T09:49:37.000Z</time>
      </trkpt>
      <trkpt lat="47.001552" lon="10.609657">
        <ele>1501.442546</ele>
        <time>2024-08-23T09:49:38.000Z</time>
      </trkpt>
      <trkpt lat="47.001558" lon="10.609735">
        <ele>1500.781525</ele>
        <time>2024-08-23T09:49:39.000Z</time>
      </trkpt>
      <trkpt lat="47.001568" lon="10.609850">
        <ele>1499.805244</ele>
        <time>2024-08-23T09:49:40.000Z</time>
      </trkpt>
      <trkpt lat="47.001575" lon="10.609926">
        <ele>1499.159421</ele>
        <time>2024-08-23T09:49:41.000Z</time>
      </trkpt>
      <trkpt lat="47.001577" lon="10.609993">
        <ele>1498.594659</ele>
        <time>2024-08-23T09:49:42.000Z</time>
      </trkpt>
      <trkpt lat="47.001582" lon="10.610052">
        <ele>1498.093986</ele>
        <time>2024-08-23T09:49:43.000Z</time>
      </trkpt>
      <trkpt lat="47.001582" lon="10.610113">
        <ele>1497.580291</ele>
        <time>2024-08-23T09:49:44.000Z</time>
      </trkpt>
      <trkpt lat="47.001584" lon="10.610212">
        <ele>1496.746225</ele>
        <time>2024-08-23T09:49:45.000Z</time>
      </trkpt>
      <trkpt lat="47.001581" lon="10.610275">
        <ele>1496.188859</ele>
        <time>2024-08-23T09:49:46.000Z</time>
      </trkpt>
      <trkpt lat="47.001578" lon="10.610346">
        <ele>1495.529732</ele>
        <time>2024-08-23T09:49:47.000Z</time>
      </trkpt>
      <trkpt lat="47.001568" lon="10.610411">
        <ele>1494.912325</ele>
        <time>2024-08-23T09:49:48.000Z</time>
      </trkpt>
      <trkpt lat="47.001558" lon="10.610474">
        <ele>1494.312982</ele>
        <time>2024-08-23T09:49:49.000Z</time>
      </trkpt>
      <trkpt lat="47.001542" lon="10.610564">
        <ele>1493.451199</ele>
        <time>2024-08-23T09:49:50.000Z</time>
      </trkpt>
      <trkpt lat="47.001536" lon="10.610633">
        <ele>1492.806688</ele>
        <time>2024-08-23T09:49:51.000Z</time>
      </trkpt>
      <trkpt lat="47.001526" lon="10.610707">
        <ele>1492.107693</ele>
        <time>2024-08-23T09:49:52.000Z</time>
      </trkpt>
      <trkpt lat="47.001517" lon="10.610783">
        <ele>1491.392960</ele>
        <time>2024-08-23T09:49:53.000Z</time>
      </trkpt>
      <trkpt lat="47.001494" lon="10.610887">
        <ele>1490.379923</ele>
        <time>2024-08-23T09:49:54.000Z</time>
      </trkpt>
      <trkpt lat="47.001476" lon="10.610957">
        <ele>1489.686748</ele>
        <time>2024-08-23T09:49:55.000Z</time>
      </trkpt>
      <trkpt lat="47.001458" lon="10.611033">
        <ele>1488.941294</ele>
        <time>2024-08-23T09:49:56.000Z</time>
      </trkpt>
      <trkpt lat="47.001445" lon="10.611113">
        <ele>1488.179283</ele>
        <time>2024-08-23T09:49:57.000Z</time>
      </trkpt>
      <trkpt lat="47.001427" lon="10.611227">
        <ele>1487.095047</ele>
        <time>2024-08-23T09:49:58.000Z</time>
      </trkpt>
      <trkpt lat="47.001422" lon="10.611312">
        <ele>1486.304535</ele>
        <time>2024-08-23T09:49:59.000Z</time>
      </trkpt>
      <trkpt lat="47.001417" lon="10.611403">
        <ele>1485.458620</ele>
        <time>2024-08-23T09:50:00.000Z</time>
      </trkpt>
      <trkpt lat="47.001425" lon="10.611503">
        <ele>1484.525692</ele>
        <time>2024-08-23T09:50:01.000Z</time>
      </trkpt>
      <trkpt lat="47.001427" lon="10.611599">
        <ele>1483.635766</ele>
        <time>2024-08-23T09:50:02.000Z</time>
      </trkpt>
      <trkpt lat="47.001427" lon="10.611732">
        <ele>1482.403422</ele>
        <time>2024-08-23T09:50:03.000Z</time>
      </trkpt>
      <trkpt lat="47.001432" lon="10.611819">
        <ele>1481.594445</ele>
        <time>2024-08-23T09:50:04.000Z</time>
      </trkpt>
      <trkpt lat="47.001435" lon="10.611899">
        <ele>1480.852066</ele>
        <time>2024-08-23T09:50:05.000Z</time>
      </trkpt>
      <trkpt lat="47.001444" lon="10.611978">
        <ele>1480.109929</ele>
        <time>2024-08-23T09:50:06.000Z</time>
      </trkpt>
      <trkpt lat="47.001455" lon="10.612096">
        <ele>1479.006405</ele>
        <time>2024-08-23T09:50:07.000Z</time>
      </trkpt>
      <trkpt lat="47.001460" lon="10.612171">
        <ele>1478.308162</ele>
        <time>2024-08-23T09:50:08.000Z</time>
      </trkpt>
      <trkpt lat="47.001461" lon="10.612241">
        <ele>1477.659418</ele>
        <time>2024-08-23T09:50:09.000Z</time>
      </trkpt>
      <trkpt lat="47.001457" lon="10.612309">
        <ele>1477.027009</ele>
        <time>2024-08-23T09:50:10.000Z</time>
      </trkpt>
      <trkpt lat="47.001459" lon="10.612377">
        <ele>1476.396353</ele>
        <time>2024-08-23T09:50:11.000Z</time>
      </trkpt>
      <trkpt lat="47.001454" lon="10.612464">
        <ele>1475.587376</ele>
        <time>2024-08-23T09:50:12.000Z</time>
      </trkpt>
      <trkpt lat="47.001454" lon="10.612530">
        <ele>1474.975837</ele>
        <time>2024-08-23T09:50:13.000Z</time>
      </trkpt>
      <trkpt lat="47.001447" lon="10.612593">
        <ele>1474.384399</ele>
        <time>2024-08-23T09:50:14.000Z</time>
      </trkpt>
      <trkpt lat="47.001435" lon="10.612653">
        <ele>1473.805041</ele>
        <time>2024-08-23T09:50:15.000Z</time>
      </trkpt>
      <trkpt lat="47.001418" lon="10.612711">
        <ele>1473.220096</ele>
        <time>2024-08-23T09:50:16.000Z</time>
      </trkpt>
      <trkpt lat="47.001388" lon="10.612823">
        <ele>1472.105158</ele>
        <time>2024-08-23T09:50:17.000Z</time>
      </trkpt>
      <trkpt lat="47.001366" lon="10.612904">
        <ele>1471.386057</ele>
        <time>2024-08-23T09:50:18.000Z</time>
      </trkpt>
      <trkpt lat="47.001332" lon="10.612980">
        <ele>1470.645647</ele>
        <time>2024-08-23T09:50:19.000Z</time>
      </trkpt>
      <trkpt lat="47.001299" lon="10.613057">
        <ele>1469.904835</ele>
        <time>2024-08-23T09:50:20.000Z</time>
      </trkpt>
      <trkpt lat="47.001253" lon="10.613165">
        <ele>1468.867585</ele>
        <time>2024-08-23T09:50:21.000Z</time>
      </trkpt>
      <trkpt lat="47.001226" lon="10.613239">
        <ele>1468.183932</ele>
        <time>2024-08-23T09:50:22.000Z</time>
      </trkpt>
      <trkpt lat="47.001195" lon="10.613308">
        <ele>1467.510852</ele>
        <time>2024-08-23T09:50:23.000Z</time>
      </trkpt>
      <trkpt lat="47.001167" lon="10.613388">
        <ele>1466.778361</ele>
        <time>2024-08-23T09:50:24.000Z</time>
      </trkpt>
      <trkpt lat="47.001101" lon="10.613501">
        <ele>1465.566419</ele>
        <time>2024-08-23T09:50:25.000Z</time>
      </trkpt>
      <trkpt lat="47.001057" lon="10.613572">
        <ele>1464.784930</ele>
        <time>2024-08-23T09:50:26.000Z</time>
      </trkpt>
      <trkpt lat="47.001016" lon="10.613648">
        <ele>1463.995553</ele>
        <time>2024-08-23T09:50:27.000Z</time>
      </trkpt>
      <trkpt lat="47.000978" lon="10.613722">
        <ele>1463.240970</ele>
        <time>2024-08-23T09:50:28.000Z</time>
      </trkpt>
      <trkpt lat="47.000948" lon="10.613801">
        <ele>1462.504393</ele>
        <time>2024-08-23T09:50:29.000Z</time>
      </trkpt>
      <trkpt lat="47.000889" lon="10.613910">
        <ele>1461.370794</ele>
        <time>2024-08-23T09:50:30.000Z</time>
      </trkpt>
      <trkpt lat="47.000851" lon="10.613980">
        <ele>1460.641977</ele>
        <time>2024-08-23T09:50:31.000Z</time>
      </trkpt>
      <trkpt lat="47.000816" lon="10.614037">
        <ele>1460.017178</ele>
        <time>2024-08-23T09:50:32.000Z</time>
      </trkpt>
      <trkpt lat="47.000781" lon="10.614087">
        <ele>1459.433509</ele>
        <time>2024-08-23T09:50:33.000Z</time>
      </trkpt>
      <trkpt lat="47.000746" lon="10.614174">
        <ele>1458.610683</ele>
        <time>2024-08-23T09:50:34.000Z</time>
      </trkpt>
      <trkpt lat="47.000731" lon="10.614240">
        <ele>1458.043974</ele>
        <time>2024-08-23T09:50:35.000Z</time>
      </trkpt>
      <trkpt lat="47.000723" lon="10.614312">
        <ele>1457.449723</ele>
        <time>2024-08-23T09:50:36.000Z</time>
      </trkpt>
      <trkpt lat="47.000722" lon="10.614386">
        <ele>1456.846795</ele>
        <time>2024-08-23T09:50:37.000Z</time>
      </trkpt>
      <trkpt lat="47.000726" lon="10.614462">
        <ele>1456.225852</ele>
        <time>2024-08-23T09:50:38.000Z</time>
      </trkpt>
      <trkpt lat="47.000746" lon="10.614564">
        <ele>1455.361292</ele>
        <time>2024-08-23T09:50:39.000Z</time>
      </trkpt>
      <trkpt lat="47.000757" lon="10.614623">
        <ele>1454.863038</ele>
        <time>2024-08-23T09:50:40.000Z</time>
      </trkpt>
      <trkpt lat="47.000766" lon="10.614683">
        <ele>1454.362591</ele>
        <time>2024-08-23T09:50:41.000Z</time>
      </trkpt>
      <trkpt lat="47.000776" lon="10.614747">
        <ele>1453.827735</ele>
        <time>2024-08-23T09:50:42.000Z</time>
      </trkpt>
      <trkpt lat="47.000786" lon="10.614838">
        <ele>1453.076881</ele>
        <time>2024-08-23T09:50:43.000Z</time>
      </trkpt>
      <trkpt lat="47.000786" lon="10.614896">
        <ele>1452.604409</ele>
        <time>2024-08-23T09:50:44.000Z</time>
      </trkpt>
      <trkpt lat="47.000778" lon="10.614950">
        <ele>1452.154262</ele>
        <time>2024-08-23T09:50:45.000Z</time>
      </trkpt>
      <trkpt lat="47.000779" lon="10.615006">
        <ele>1451.697926</ele>
        <time>2024-08-23T09:50:46.000Z</time>
      </trkpt>
      <trkpt lat="47.000778" lon="10.615059">
        <ele>1451.266019</ele>
        <time>2024-08-23T09:50:47.000Z</time>
      </trkpt>
      <trkpt lat="47.000792" lon="10.615121">
        <ele>1450.733998</ele>
        <time>2024-08-23T09:50:48.000Z</time>
      </trkpt>
      <trkpt lat="47.000808" lon="10.615151">
        <ele>1450.394444</ele>
        <time>2024-08-23T09:50:49.000Z</time>
      </trkpt>
      <trkpt lat="47.000819" lon="10.615162">
        <ele>1450.197781</ele>
        <time>2024-08-23T09:50:50.000Z</time>
      </trkpt>
      <trkpt lat="47.000837" lon="10.615165">
        <ele>1449.930200</ele>
        <time>2024-08-23T09:50:51.000Z</time>
      </trkpt>
      <trkpt lat="47.000857" lon="10.615165">
        <ele>1449.634791</ele>
        <time>2024-08-23T09:50:52.000Z</time>
      </trkpt>
      <trkpt lat="47.000885" lon="10.615143">
        <ele>1449.165584</ele>
        <time>2024-08-23T09:50:53.000Z</time>
      </trkpt>
      <trkpt lat="47.000904" lon="10.615111">
        <ele>1448.738191</ele>
        <time>2024-08-23T09:50:54.000Z</time>
      </trkpt>
      <trkpt lat="47.000929" lon="10.615071">
        <ele>1448.191649</ele>
        <time>2024-08-23T09:50:55.000Z</time>
      </trkpt>
      <trkpt lat="47.000955" lon="10.615024">
        <ele>1447.582035</ele>
        <time>2024-08-23T09:50:56.000Z</time>
      </trkpt>
      <trkpt lat="47.000998" lon="10.614964">
        <ele>1446.705288</ele>
        <time>2024-08-23T09:50:57.000Z</time>
      </trkpt>
      <trkpt lat="47.001026" lon="10.614925">
        <ele>1446.134867</ele>
        <time>2024-08-23T09:50:58.000Z</time>
      </trkpt>
      <trkpt lat="47.001059" lon="10.614887">
        <ele>1445.515104</ele>
        <time>2024-08-23T09:50:59.000Z</time>
      </trkpt>
      <trkpt lat="47.001091" lon="10.614853">
        <ele>1444.931406</ele>
        <time>2024-08-23T09:51:00.000Z</time>
      </trkpt>
      <trkpt lat="47.001134" lon="10.614811">
        <ele>1444.168265</ele>
        <time>2024-08-23T09:51:01.000Z</time>
      </trkpt>
      <trkpt lat="47.001164" lon="10.614793">
        <ele>1443.689489</ele>
        <time>2024-08-23T09:51:02.000Z</time>
      </trkpt>
      <trkpt lat="47.001196" lon="10.614778">
        <ele>1443.193269</ele>
        <time>2024-08-23T09:51:03.000Z</time>
      </trkpt>
      <trkpt lat="47.001228" lon="10.614762">
        <ele>1442.693890</ele>
        <time>2024-08-23T09:51:04.000Z</time>
      </trkpt>
      <trkpt lat="47.001270" lon="10.614750">
        <ele>1442.061863</ele>
        <time>2024-08-23T09:51:05.000Z</time>
      </trkpt>
      <trkpt lat="47.001344" lon="10.614726">
        <ele>1440.942430</ele>
        <time>2024-08-23T09:51:06.000Z</time>
      </trkpt>
      <trkpt lat="47.001391" lon="10.614709">
        <ele>1440.227409</ele>
        <time>2024-08-23T09:51:07.000Z</time>
      </trkpt>
      <trkpt lat="47.001431" lon="10.614685">
        <ele>1439.589041</ele>
        <time>2024-08-23T09:51:08.000Z</time>
      </trkpt>
      <trkpt lat="47.001469" lon="10.614665">
        <ele>1438.992701</ele>
        <time>2024-08-23T09:51:09.000Z</time>
      </trkpt>
      <trkpt lat="47.001507" lon="10.614648">
        <ele>1438.405881</ele>
        <time>2024-08-23T09:51:10.000Z</time>
      </trkpt>
      <trkpt lat="47.001563" lon="10.614618">
        <ele>1437.525260</ele>
        <time>2024-08-23T09:51:11.000Z</time>
      </trkpt>
      <trkpt lat="47.001598" lon="10.614600">
        <ele>1436.977418</ele>
        <time>2024-08-23T09:51:12.000Z</time>
      </trkpt>
      <trkpt lat="47.001638" lon="10.614590">
        <ele>1436.378073</ele>
        <time>2024-08-23T09:51:13.000Z</time>
      </trkpt>
      <trkpt lat="47.001674" lon="10.614579">
        <ele>1435.834914</ele>
        <time>2024-08-23T09:51:14.000Z</time>
      </trkpt>
      <trkpt lat="47.001721" lon="10.614581">
        <ele>1435.140409</ele>
        <time>2024-08-23T09:51:15.000Z</time>
      </trkpt>
      <trkpt lat="47.001746" lon="10.614579">
        <ele>1434.770597</ele>
        <time>2024-08-23T09:51:16.000Z</time>
      </trkpt>
      <trkpt lat="47.001776" lon="10.614570">
        <ele>1434.318304</ele>
        <time>2024-08-23T09:51:17.000Z</time>
      </trkpt>
      <trkpt lat="47.001812" lon="10.614553">
        <ele>1433.759673</ele>
        <time>2024-08-23T09:51:18.000Z</time>
      </trkpt>
      <trkpt lat="47.001871" lon="10.614527">
        <ele>1432.849710</ele>
        <time>2024-08-23T09:51:19.000Z</time>
      </trkpt>
      <trkpt lat="47.001913" lon="10.614505">
        <ele>1432.190956</ele>
        <time>2024-08-23T09:51:20.000Z</time>
      </trkpt>
      <trkpt lat="47.001952" lon="10.614483">
        <ele>1431.573751</ele>
        <time>2024-08-23T09:51:21.000Z</time>
      </trkpt>
      <trkpt lat="47.001992" lon="10.614460">
        <ele>1430.939130</ele>
        <time>2024-08-23T09:51:22.000Z</time>
      </trkpt>
      <trkpt lat="47.002027" lon="10.614432">
        <ele>1430.350229</ele>
        <time>2024-08-23T09:51:23.000Z</time>
      </trkpt>
      <trkpt lat="47.002080" lon="10.614389">
        <ele>1429.455554</ele>
        <time>2024-08-23T09:51:24.000Z</time>
      </trkpt>
      <trkpt lat="47.002110" lon="10.614355">
        <ele>1428.895514</ele>
        <time>2024-08-23T09:51:25.000Z</time>
      </trkpt>
      <trkpt lat="47.002137" lon="10.614332">
        <ele>1428.434298</ele>
        <time>2024-08-23T09:51:26.000Z</time>
      </trkpt>
      <trkpt lat="47.002165" lon="10.614301">
        <ele>1427.916078</ele>
        <time>2024-08-23T09:51:27.000Z</time>
      </trkpt>
      <trkpt lat="47.002197" lon="10.614272">
        <ele>1427.360438</ele>
        <time>2024-08-23T09:51:28.000Z</time>
      </trkpt>
      <trkpt lat="47.002242" lon="10.614207">
        <ele>1426.427442</ele>
        <time>2024-08-23T09:51:29.000Z</time>
      </trkpt>
      <trkpt lat="47.002277" lon="10.614163">
        <ele>1425.746492</ele>
        <time>2024-08-23T09:51:30.000Z</time>
      </trkpt>
      <trkpt lat="47.002307" lon="10.614111">
        <ele>1425.060407</ele>
        <time>2024-08-23T09:51:31.000Z</time>
      </trkpt>
      <trkpt lat="47.002332" lon="10.614054">
        <ele>1424.377753</ele>
        <time>2024-08-23T09:51:32.000Z</time>
      </trkpt>
      <trkpt lat="47.002385" lon="10.613980">
        <ele>1423.074248</ele>
        <time>2024-08-23T09:51:33.000Z</time>
      </trkpt>
      <trkpt lat="47.002424" lon="10.613922">
        <ele>1421.986850</ele>
        <time>2024-08-23T09:51:34.000Z</time>
      </trkpt>
      <trkpt lat="47.002465" lon="10.613869">
        <ele>1420.916881</ele>
        <time>2024-08-23T09:51:35.000Z</time>
      </trkpt>
      <trkpt lat="47.002508" lon="10.613814">
        <ele>1419.799872</ele>
        <time>2024-08-23T09:51:36.000Z</time>
      </trkpt>
      <trkpt lat="47.002555" lon="10.613767">
        <ele>1418.686213</ele>
        <time>2024-08-23T09:51:37.000Z</time>
      </trkpt>
      <trkpt lat="47.002623" lon="10.613682">
        <ele>1416.937015</ele>
        <time>2024-08-23T09:51:38.000Z</time>
      </trkpt>
      <trkpt lat="47.002674" lon="10.613634">
        <ele>1415.750682</ele>
        <time>2024-08-23T09:51:39.000Z</time>
      </trkpt>
      <trkpt lat="47.002724" lon="10.613585">
        <ele>1414.573410</ele>
        <time>2024-08-23T09:51:40.000Z</time>
      </trkpt>
      <trkpt lat="47.002773" lon="10.613537">
        <ele>1413.419832</ele>
        <time>2024-08-23T09:51:41.000Z</time>
      </trkpt>
      <trkpt lat="47.002844" lon="10.613474">
        <ele>1411.795275</ele>
        <time>2024-08-23T09:51:42.000Z</time>
      </trkpt>
      <trkpt lat="47.002889" lon="10.613441">
        <ele>1410.810335</ele>
        <time>2024-08-23T09:51:43.000Z</time>
      </trkpt>
      <trkpt lat="47.002928" lon="10.613407">
        <ele>1409.922132</ele>
        <time>2024-08-23T09:51:44.000Z</time>
      </trkpt>
      <trkpt lat="47.002963" lon="10.613378">
        <ele>1409.135157</ele>
        <time>2024-08-23T09:51:45.000Z</time>
      </trkpt>
      <trkpt lat="47.002995" lon="10.613353">
        <ele>1408.425363</ele>
        <time>2024-08-23T09:51:46.000Z</time>
      </trkpt>
      <trkpt lat="47.003030" lon="10.613320">
        <ele>1407.610790</ele>
        <time>2024-08-23T09:51:47.000Z</time>
      </trkpt>
      <trkpt lat="47.003048" lon="10.613299">
        <ele>1407.160501</ele>
        <time>2024-08-23T09:51:48.000Z</time>
      </trkpt>
      <trkpt lat="47.003068" lon="10.613293">
        <ele>1406.760872</ele>
        <time>2024-08-23T09:51:49.000Z</time>
      </trkpt>
      <trkpt lat="47.003083" lon="10.613289">
        <ele>1406.462416</ele>
        <time>2024-08-23T09:51:50.000Z</time>
      </trkpt>
      <trkpt lat="47.003094" lon="10.613259">
        <ele>1406.007695</ele>
        <time>2024-08-23T09:51:51.000Z</time>
      </trkpt>
      <trkpt lat="47.003103" lon="10.613241">
        <ele>1405.709727</ele>
        <time>2024-08-23T09:51:52.000Z</time>
      </trkpt>
      <trkpt lat="47.003119" lon="10.613224">
        <ele>1405.322932</ele>
        <time>2024-08-23T09:51:53.000Z</time>
      </trkpt>
      <trkpt lat="47.003124" lon="10.613205">
        <ele>1405.051051</ele>
        <time>2024-08-23T09:51:54.000Z</time>
      </trkpt>
      <trkpt lat="47.003127" lon="10.613190">
        <ele>1404.842367</ele>
        <time>2024-08-23T09:51:55.000Z</time>
      </trkpt>
      <trkpt lat="47.003127" lon="10.613179">
        <ele>1404.695517</ele>
        <time>2024-08-23T09:51:56.000Z</time>
      </trkpt>
      <trkpt lat="47.003129" lon="10.613172">
        <ele>1404.594197</ele>
        <time>2024-08-23T09:51:57.000Z</time>
      </trkpt>
      <trkpt lat="47.003128" lon="10.613161">
        <ele>1404.446047</ele>
        <time>2024-08-23T09:51:58.000Z</time>
      </trkpt>
      <trkpt lat="47.003132" lon="10.613153">
        <ele>1404.313617</ele>
        <time>2024-08-23T09:51:59.000Z</time>
      </trkpt>
      <trkpt lat="47.003139" lon="10.613127">
        <ele>1403.940446</ele>
        <time>2024-08-23T09:52:00.000Z</time>
      </trkpt>
      <trkpt lat="47.003144" lon="10.613125">
        <ele>1403.838990</ele>
        <time>2024-08-23T09:52:00.000Z</time>
      </trkpt>
      <trkpt lat="47.003147" lon="10.613109">
        <ele>1403.617463</ele>
        <time>2024-08-23T09:52:01.000Z</time>
      </trkpt>
      <trkpt lat="47.003190" lon="10.613051">
        <ele>1402.473735</ele>
        <time>2024-08-23T09:52:03.000Z</time>
      </trkpt>
      <trkpt lat="47.003227" lon="10.613011">
        <ele>1401.573856</ele>
        <time>2024-08-23T09:52:04.000Z</time>
      </trkpt>
      <trkpt lat="47.003253" lon="10.612996">
        <ele>1401.026904</ele>
        <time>2024-08-23T09:52:05.000Z</time>
      </trkpt>
      <trkpt lat="47.003281" lon="10.612994">
        <ele>1400.478126</ele>
        <time>2024-08-23T09:52:06.000Z</time>
      </trkpt>
      <trkpt lat="47.003305" lon="10.612988">
        <ele>1400.001523</ele>
        <time>2024-08-23T09:52:07.000Z</time>
      </trkpt>
      <trkpt lat="47.003321" lon="10.612974">
        <ele>1399.636782</ele>
        <time>2024-08-23T09:52:08.000Z</time>
      </trkpt>
      <trkpt lat="47.003337" lon="10.612968">
        <ele>1399.313486</ele>
        <time>2024-08-23T09:52:09.000Z</time>
      </trkpt>
      <trkpt lat="47.003342" lon="10.612962">
        <ele>1399.187009</ele>
        <time>2024-08-23T09:52:10.000Z</time>
      </trkpt>
      <trkpt lat="47.003342" lon="10.612957">
        <ele>1399.120259</ele>
        <time>2024-08-23T09:52:11.000Z</time>
      </trkpt>
      <trkpt lat="47.003438" lon="10.612904">
        <ele>1397.112182</ele>
        <time>2024-08-23T09:54:47.000Z</time>
      </trkpt>
      <trkpt lat="47.003455" lon="10.612895">
        <ele>1396.758365</ele>
        <time>2024-08-23T09:54:48.000Z</time>
      </trkpt>
      <trkpt lat="47.003474" lon="10.612888">
        <ele>1396.374861</ele>
        <time>2024-08-23T09:54:49.000Z</time>
      </trkpt>
      <trkpt lat="47.003492" lon="10.612874">
        <ele>1395.975995</ele>
        <time>2024-08-23T09:54:50.000Z</time>
      </trkpt>
      <trkpt lat="47.003522" lon="10.612849">
        <ele>1395.300506</ele>
        <time>2024-08-23T09:54:51.000Z</time>
      </trkpt>
      <trkpt lat="47.003546" lon="10.612830">
        <ele>1394.766585</ele>
        <time>2024-08-23T09:54:52.000Z</time>
      </trkpt>
      <trkpt lat="47.003571" lon="10.612805">
        <ele>1394.174217</ele>
        <time>2024-08-23T09:54:53.000Z</time>
      </trkpt>
      <trkpt lat="47.003602" lon="10.612795">
        <ele>1393.552850</ele>
        <time>2024-08-23T09:54:54.000Z</time>
      </trkpt>
      <trkpt lat="47.003631" lon="10.612778">
        <ele>1392.941464</ele>
        <time>2024-08-23T09:54:55.000Z</time>
      </trkpt>
      <trkpt lat="47.003677" lon="10.612750">
        <ele>1391.966468</ele>
        <time>2024-08-23T09:54:56.000Z</time>
      </trkpt>
      <trkpt lat="47.003714" lon="10.612731">
        <ele>1391.199028</ele>
        <time>2024-08-23T09:54:57.000Z</time>
      </trkpt>
      <trkpt lat="47.003746" lon="10.612704">
        <ele>1390.476298</ele>
        <time>2024-08-23T09:54:58.000Z</time>
      </trkpt>
      <trkpt lat="47.003780" lon="10.612670">
        <ele>1389.670679</ele>
        <time>2024-08-23T09:54:59.000Z</time>
      </trkpt>
      <trkpt lat="47.003835" lon="10.612628">
        <ele>1388.503922</ele>
        <time>2024-08-23T09:55:00.000Z</time>
      </trkpt>
      <trkpt lat="47.003875" lon="10.612597">
        <ele>1387.751352</ele>
        <time>2024-08-23T09:55:01.000Z</time>
      </trkpt>
      <trkpt lat="47.003916" lon="10.612571">
        <ele>1387.008316</ele>
        <time>2024-08-23T09:55:02.000Z</time>
      </trkpt>
      <trkpt lat="47.003958" lon="10.612549">
        <ele>1386.266453</ele>
        <time>2024-08-23T09:55:03.000Z</time>
      </trkpt>
      <trkpt lat="47.004021" lon="10.612530">
        <ele>1385.196576</ele>
        <time>2024-08-23T09:55:04.000Z</time>
      </trkpt>
      <trkpt lat="47.004050" lon="10.612517">
        <ele>1384.692152</ele>
        <time>2024-08-23T09:55:05.000Z</time>
      </trkpt>
      <trkpt lat="47.004079" lon="10.612503">
        <ele>1384.184297</ele>
        <time>2024-08-23T09:55:06.000Z</time>
      </trkpt>
      <trkpt lat="47.004109" lon="10.612494">
        <ele>1383.674940</ele>
        <time>2024-08-23T09:55:07.000Z</time>
      </trkpt>
      <trkpt lat="47.004144" lon="10.612481">
        <ele>1383.074364</ele>
        <time>2024-08-23T09:55:08.000Z</time>
      </trkpt>
      <trkpt lat="47.004176" lon="10.612446">
        <ele>1382.410317</ele>
        <time>2024-08-23T09:55:09.000Z</time>
      </trkpt>
      <trkpt lat="47.004198" lon="10.612416">
        <ele>1381.910592</ele>
        <time>2024-08-23T09:55:10.000Z</time>
      </trkpt>
      <trkpt lat="47.004229" lon="10.612395">
        <ele>1381.342574</ele>
        <time>2024-08-23T09:55:11.000Z</time>
      </trkpt>
      <trkpt lat="47.004268" lon="10.612373">
        <ele>1380.647502</ele>
        <time>2024-08-23T09:55:12.000Z</time>
      </trkpt>
      <trkpt lat="47.004304" lon="10.612349">
        <ele>1379.989697</ele>
        <time>2024-08-23T09:55:13.000Z</time>
      </trkpt>
      <trkpt lat="47.004358" lon="10.612302">
        <ele>1378.945154</ele>
        <time>2024-08-23T09:55:14.000Z</time>
      </trkpt>
      <trkpt lat="47.004392" lon="10.612262">
        <ele>1378.220080</ele>
        <time>2024-08-23T09:55:15.000Z</time>
      </trkpt>
      <trkpt lat="47.004427" lon="10.612226">
        <ele>1377.508949</ele>
        <time>2024-08-23T09:55:16.000Z</time>
      </trkpt>
      <trkpt lat="47.004457" lon="10.612184">
        <ele>1376.819021</ele>
        <time>2024-08-23T09:55:17.000Z</time>
      </trkpt>
      <trkpt lat="47.004503" lon="10.612102">
        <ele>1375.614581</ele>
        <time>2024-08-23T09:55:18.000Z</time>
      </trkpt>
      <trkpt lat="47.004524" lon="10.612036">
        <ele>1374.788433</ele>
        <time>2024-08-23T09:55:19.000Z</time>
      </trkpt>
      <trkpt lat="47.004546" lon="10.611969">
        <ele>1373.944910</ele>
        <time>2024-08-23T09:55:20.000Z</time>
      </trkpt>
      <trkpt lat="47.004577" lon="10.611915">
        <ele>1373.144216</ele>
        <time>2024-08-23T09:55:21.000Z</time>
      </trkpt>
      <trkpt lat="47.004637" lon="10.611853">
        <ele>1371.923273</ele>
        <time>2024-08-23T09:55:22.000Z</time>
      </trkpt>
      <trkpt lat="47.004684" lon="10.611828">
        <ele>1371.091630</ele>
        <time>2024-08-23T09:55:23.000Z</time>
      </trkpt>
      <trkpt lat="47.004727" lon="10.611802">
        <ele>1370.317948</ele>
        <time>2024-08-23T09:55:24.000Z</time>
      </trkpt>
      <trkpt lat="47.004764" lon="10.611777">
        <ele>1369.640298</ele>
        <time>2024-08-23T09:55:25.000Z</time>
      </trkpt>
      <trkpt lat="47.004795" lon="10.611749">
        <ele>1369.034676</ele>
        <time>2024-08-23T09:55:26.000Z</time>
      </trkpt>
      <trkpt lat="47.004831" lon="10.611678">
        <ele>1368.031070</ele>
        <time>2024-08-23T09:55:27.000Z</time>
      </trkpt>
      <trkpt lat="47.004852" lon="10.611630">
        <ele>1367.384170</ele>
        <time>2024-08-23T09:55:28.000Z</time>
      </trkpt>
      <trkpt lat="47.004864" lon="10.611597">
        <ele>1366.959946</ele>
        <time>2024-08-23T09:55:29.000Z</time>
      </trkpt>
      <trkpt lat="47.004882" lon="10.611559">
        <ele>1366.435113</ele>
        <time>2024-08-23T09:55:30.000Z</time>
      </trkpt>
      <trkpt lat="47.004895" lon="10.611499">
        <ele>1365.720986</ele>
        <time>2024-08-23T09:55:31.000Z</time>
      </trkpt>
      <trkpt lat="47.004926" lon="10.611424">
        <ele>1364.726162</ele>
        <time>2024-08-23T09:55:32.000Z</time>
      </trkpt>
      <trkpt lat="47.004950" lon="10.611383">
        <ele>1364.113243</ele>
        <time>2024-08-23T09:55:33.000Z</time>
      </trkpt>
      <trkpt lat="47.004980" lon="10.611339">
        <ele>1363.407461</ele>
        <time>2024-08-23T09:55:34.000Z</time>
      </trkpt>
      <trkpt lat="47.005014" lon="10.611298">
        <ele>1362.675239</ele>
        <time>2024-08-23T09:55:35.000Z</time>
      </trkpt>
      <trkpt lat="47.005073" lon="10.611254">
        <ele>1361.574209</ele>
        <time>2024-08-23T09:55:36.000Z</time>
      </trkpt>
      <trkpt lat="47.005109" lon="10.611215">
        <ele>1360.829697</ele>
        <time>2024-08-23T09:55:37.000Z</time>
      </trkpt>
      <trkpt lat="47.005136" lon="10.611164">
        <ele>1360.097318</ele>
        <time>2024-08-23T09:55:38.000Z</time>
      </trkpt>
      <trkpt lat="47.005166" lon="10.611127">
        <ele>1359.445267</ele>
        <time>2024-08-23T09:55:39.000Z</time>
      </trkpt>
      <trkpt lat="47.005198" lon="10.611084">
        <ele>1358.720633</ele>
        <time>2024-08-23T09:55:40.000Z</time>
      </trkpt>
      <trkpt lat="47.005243" lon="10.611032">
        <ele>1357.747898</ele>
        <time>2024-08-23T09:55:41.000Z</time>
      </trkpt>
      <trkpt lat="47.005274" lon="10.610993">
        <ele>1357.054418</ele>
        <time>2024-08-23T09:55:42.000Z</time>
      </trkpt>
      <trkpt lat="47.005300" lon="10.610939">
        <ele>1356.289067</ele>
        <time>2024-08-23T09:55:43.000Z</time>
      </trkpt>
      <trkpt lat="47.005333" lon="10.610885">
        <ele>1355.449535</ele>
        <time>2024-08-23T09:55:44.000Z</time>
      </trkpt>
      <trkpt lat="47.005379" lon="10.610783">
        <ele>1354.033682</ele>
        <time>2024-08-23T09:55:45.000Z</time>
      </trkpt>
      <trkpt lat="47.005413" lon="10.610719">
        <ele>1353.094370</ele>
        <time>2024-08-23T09:55:46.000Z</time>
      </trkpt>
      <trkpt lat="47.005441" lon="10.610666">
        <ele>1352.318129</ele>
        <time>2024-08-23T09:55:47.000Z</time>
      </trkpt>
      <trkpt lat="47.005467" lon="10.610615">
        <ele>1351.580882</ele>
        <time>2024-08-23T09:55:48.000Z</time>
      </trkpt>
      <trkpt lat="47.005493" lon="10.610528">
        <ele>1350.481111</ele>
        <time>2024-08-23T09:55:49.000Z</time>
      </trkpt>
      <trkpt lat="47.005506" lon="10.610467">
        <ele>1349.741166</ele>
        <time>2024-08-23T09:55:50.000Z</time>
      </trkpt>
      <trkpt lat="47.005523" lon="10.610411">
        <ele>1349.031454</ele>
        <time>2024-08-23T09:55:51.000Z</time>
      </trkpt>
      <trkpt lat="47.005545" lon="10.610369">
        <ele>1348.418277</ele>
        <time>2024-08-23T09:55:52.000Z</time>
      </trkpt>
      <trkpt lat="47.005572" lon="10.610341">
        <ele>1347.856815</ele>
        <time>2024-08-23T09:55:53.000Z</time>
      </trkpt>
      <trkpt lat="47.005610" lon="10.610326">
        <ele>1347.188671</ele>
        <time>2024-08-23T09:55:54.000Z</time>
      </trkpt>
      <trkpt lat="47.005630" lon="10.610322">
        <ele>1346.845960</ele>
        <time>2024-08-23T09:55:55.000Z</time>
      </trkpt>
      <trkpt lat="47.005649" lon="10.610333">
        <ele>1346.499141</ele>
        <time>2024-08-23T09:55:56.000Z</time>
      </trkpt>
      <trkpt lat="47.005672" lon="10.610350">
        <ele>1346.061840</ele>
        <time>2024-08-23T09:55:57.000Z</time>
      </trkpt>
      <trkpt lat="47.005702" lon="10.610389">
        <ele>1345.381158</ele>
        <time>2024-08-23T09:55:58.000Z</time>
      </trkpt>
      <trkpt lat="47.005712" lon="10.610418">
        <ele>1345.004910</ele>
        <time>2024-08-23T09:55:59.000Z</time>
      </trkpt>
      <trkpt lat="47.005720" lon="10.610454">
        <ele>1344.566530</ele>
        <time>2024-08-23T09:56:00.000Z</time>
      </trkpt>
      <trkpt lat="47.005728" lon="10.610497">
        <ele>1344.050481</ele>
        <time>2024-08-23T09:56:01.000Z</time>
      </trkpt>
      <trkpt lat="47.005731" lon="10.610539">
        <ele>1343.561546</ele>
        <time>2024-08-23T09:56:02.000Z</time>
      </trkpt>
      <trkpt lat="47.005732" lon="10.610589">
        <ele>1342.982398</ele>
        <time>2024-08-23T09:56:03.000Z</time>
      </trkpt>
      <trkpt lat="47.005727" lon="10.610617">
        <ele>1342.647284</ele>
        <time>2024-08-23T09:56:04.000Z</time>
      </trkpt>
      <trkpt lat="47.005720" lon="10.610645">
        <ele>1342.302002</ele>
        <time>2024-08-23T09:56:05.000Z</time>
      </trkpt>
      <trkpt lat="47.005712" lon="10.610683">
        <ele>1341.841549</ele>
        <time>2024-08-23T09:56:06.000Z</time>
      </trkpt>
      <trkpt lat="47.005704" lon="10.610721">
        <ele>1341.381097</ele>
        <time>2024-08-23T09:56:07.000Z</time>
      </trkpt>
      <trkpt lat="47.005695" lon="10.610773">
        <ele>1340.759953</ele>
        <time>2024-08-23T09:56:08.000Z</time>
      </trkpt>
      <trkpt lat="47.005680" lon="10.610806">
        <ele>1340.300780</ele>
        <time>2024-08-23T09:56:09.000Z</time>
      </trkpt>
      <trkpt lat="47.005666" lon="10.610840">
        <ele>1339.840931</ele>
        <time>2024-08-23T09:56:10.000Z</time>
      </trkpt>
      <trkpt lat="47.005665" lon="10.610890">
        <ele>1339.261783</ele>
        <time>2024-08-23T09:56:11.000Z</time>
      </trkpt>
      <trkpt lat="47.005655" lon="10.610975">
        <ele>1338.263115</ele>
        <time>2024-08-23T09:56:12.000Z</time>
      </trkpt>
      <trkpt lat="47.005658" lon="10.611048">
        <ele>1337.416389</ele>
        <time>2024-08-23T09:56:13.000Z</time>
      </trkpt>
      <trkpt lat="47.005659" lon="10.611124">
        <ele>1336.536298</ele>
        <time>2024-08-23T09:56:14.000Z</time>
      </trkpt>
      <trkpt lat="47.005649" lon="10.611195">
        <ele>1335.696910</ele>
        <time>2024-08-23T09:56:15.000Z</time>
      </trkpt>
      <trkpt lat="47.005638" lon="10.611267">
        <ele>1334.842630</ele>
        <time>2024-08-23T09:56:16.000Z</time>
      </trkpt>
      <trkpt lat="47.005618" lon="10.611366">
        <ele>1333.647167</ele>
        <time>2024-08-23T09:56:17.000Z</time>
      </trkpt>
      <trkpt lat="47.005616" lon="10.611435">
        <ele>1332.847564</ele>
        <time>2024-08-23T09:56:18.000Z</time>
      </trkpt>
      <trkpt lat="47.005611" lon="10.611496">
        <ele>1332.136223</ele>
        <time>2024-08-23T09:56:19.000Z</time>
      </trkpt>
      <trkpt lat="47.005600" lon="10.611563">
        <ele>1331.338331</ele>
        <time>2024-08-23T09:56:20.000Z</time>
      </trkpt>
      <trkpt lat="47.005579" lon="10.611654">
        <ele>1330.226039</ele>
        <time>2024-08-23T09:56:21.000Z</time>
      </trkpt>
      <trkpt lat="47.005566" lon="10.611717">
        <ele>1329.463961</ele>
        <time>2024-08-23T09:56:22.000Z</time>
      </trkpt>
      <trkpt lat="47.005555" lon="10.611783">
        <ele>1328.677321</ele>
        <time>2024-08-23T09:56:23.000Z</time>
      </trkpt>
      <trkpt lat="47.005545" lon="10.611861">
        <ele>1327.801728</ele>
        <time>2024-08-23T09:56:24.000Z</time>
      </trkpt>
      <trkpt lat="47.005535" lon="10.611940">
        <ele>1326.943973</ele>
        <time>2024-08-23T09:56:25.000Z</time>
      </trkpt>
      <trkpt lat="47.005520" lon="10.612046">
        <ele>1325.788285</ele>
        <time>2024-08-23T09:56:26.000Z</time>
      </trkpt>
      <trkpt lat="47.005496" lon="10.612108">
        <ele>1325.027215</ele>
        <time>2024-08-23T09:56:27.000Z</time>
      </trkpt>
      <trkpt lat="47.005465" lon="10.612162">
        <ele>1324.273675</ele>
        <time>2024-08-23T09:56:28.000Z</time>
      </trkpt>
      <trkpt lat="47.005439" lon="10.612221">
        <ele>1323.523763</ele>
        <time>2024-08-23T09:56:29.000Z</time>
      </trkpt>
      <trkpt lat="47.005405" lon="10.612311">
        <ele>1322.425405</ele>
        <time>2024-08-23T09:56:30.000Z</time>
      </trkpt>
      <trkpt lat="47.005395" lon="10.612371">
        <ele>1321.766033</ele>
        <time>2024-08-23T09:56:31.000Z</time>
      </trkpt>
      <trkpt lat="47.005380" lon="10.612405">
        <ele>1321.333736</ele>
        <time>2024-08-23T09:56:32.000Z</time>
      </trkpt>
      <trkpt lat="47.005377" lon="10.612447">
        <ele>1320.882920</ele>
        <time>2024-08-23T09:56:33.000Z</time>
      </trkpt>
      <trkpt lat="47.005384" lon="10.612491">
        <ele>1320.400592</ele>
        <time>2024-08-23T09:56:34.000Z</time>
      </trkpt>
      <trkpt lat="47.005403" lon="10.612537">
        <ele>1319.826472</ele>
        <time>2024-08-23T09:56:35.000Z</time>
      </trkpt>
      <trkpt lat="47.005425" lon="10.612562">
        <ele>1319.390768</ele>
        <time>2024-08-23T09:56:36.000Z</time>
      </trkpt>
      <trkpt lat="47.005448" lon="10.612573">
        <ele>1319.012047</ele>
        <time>2024-08-23T09:56:37.000Z</time>
      </trkpt>
      <trkpt lat="47.005466" lon="10.612573">
        <ele>1318.730265</ele>
        <time>2024-08-23T09:56:38.000Z</time>
      </trkpt>
      <trkpt lat="47.005505" lon="10.612554">
        <ele>1318.086925</ele>
        <time>2024-08-23T09:56:39.000Z</time>
      </trkpt>
      <trkpt lat="47.005534" lon="10.612529">
        <ele>1317.560307</ele>
        <time>2024-08-23T09:56:40.000Z</time>
      </trkpt>
      <trkpt lat="47.005565" lon="10.612503">
        <ele>1317.001249</ele>
        <time>2024-08-23T09:56:41.000Z</time>
      </trkpt>
      <trkpt lat="47.005594" lon="10.612468">
        <ele>1316.413283</ele>
        <time>2024-08-23T09:56:42.000Z</time>
      </trkpt>
      <trkpt lat="47.005629" lon="10.612437">
        <ele>1315.773187</ele>
        <time>2024-08-23T09:56:43.000Z</time>
      </trkpt>
      <trkpt lat="47.005672" lon="10.612382">
        <ele>1314.879957</ele>
        <time>2024-08-23T09:56:44.000Z</time>
      </trkpt>
      <trkpt lat="47.005706" lon="10.612340">
        <ele>1314.184023</ele>
        <time>2024-08-23T09:56:45.000Z</time>
      </trkpt>
      <trkpt lat="47.005734" lon="10.612291">
        <ele>1313.501562</ele>
        <time>2024-08-23T09:56:46.000Z</time>
      </trkpt>
      <trkpt lat="47.005757" lon="10.612238">
        <ele>1312.830924</ele>
        <time>2024-08-23T09:56:47.000Z</time>
      </trkpt>
      <trkpt lat="47.005795" lon="10.612164">
        <ele>1311.842023</ele>
        <time>2024-08-23T09:56:48.000Z</time>
      </trkpt>
      <trkpt lat="47.005819" lon="10.612115">
        <ele>1311.197990</ele>
        <time>2024-08-23T09:56:49.000Z</time>
      </trkpt>
      <trkpt lat="47.005841" lon="10.612067">
        <ele>1310.580595</ele>
        <time>2024-08-23T09:56:50.000Z</time>
      </trkpt>
      <trkpt lat="47.005860" lon="10.612010">
        <ele>1309.903301</ele>
        <time>2024-08-23T09:56:51.000Z</time>
      </trkpt>
      <trkpt lat="47.005881" lon="10.611930">
        <ele>1308.988194</ele>
        <time>2024-08-23T09:56:52.000Z</time>
      </trkpt>
      <trkpt lat="47.005891" lon="10.611879">
        <ele>1308.421698</ele>
        <time>2024-08-23T09:56:53.000Z</time>
      </trkpt>
      <trkpt lat="47.005906" lon="10.611827">
        <ele>1307.818964</ele>
        <time>2024-08-23T09:56:54.000Z</time>
      </trkpt>
      <trkpt lat="47.005926" lon="10.611771">
        <ele>1307.144126</ele>
        <time>2024-08-23T09:56:55.000Z</time>
      </trkpt>
      <trkpt lat="47.005950" lon="10.611718">
        <ele>1306.464956</ele>
        <time>2024-08-23T09:56:56.000Z</time>
      </trkpt>
      <trkpt lat="47.005989" lon="10.611650">
        <ele>1305.516433</ele>
        <time>2024-08-23T09:56:57.000Z</time>
      </trkpt>
      <trkpt lat="47.006013" lon="10.611602">
        <ele>1304.881042</ele>
        <time>2024-08-23T09:56:58.000Z</time>
      </trkpt>
      <trkpt lat="47.006032" lon="10.611558">
        <ele>1304.325079</ele>
        <time>2024-08-23T09:56:59.000Z</time>
      </trkpt>
      <trkpt lat="47.006050" lon="10.611510">
        <ele>1303.740301</ele>
        <time>2024-08-23T09:57:00.000Z</time>
      </trkpt>
      <trkpt lat="47.006068" lon="10.611455">
        <ele>1303.089049</ele>
        <time>2024-08-23T09:57:01.000Z</time>
      </trkpt>
      <trkpt lat="47.006086" lon="10.611370">
        <ele>1302.138913</ele>
        <time>2024-08-23T09:57:02.000Z</time>
      </trkpt>
      <trkpt lat="47.006097" lon="10.611313">
        <ele>1301.506530</ele>
        <time>2024-08-23T09:57:03.000Z</time>
      </trkpt>
      <trkpt lat="47.006106" lon="10.611252">
        <ele>1300.840277</ele>
        <time>2024-08-23T09:57:04.000Z</time>
      </trkpt>
      <trkpt lat="47.006110" lon="10.611190">
        <ele>1300.175460</ele>
        <time>2024-08-23T09:57:05.000Z</time>
      </trkpt>
      <trkpt lat="47.006113" lon="10.611090">
        <ele>1299.118004</ele>
        <time>2024-08-23T09:57:06.000Z</time>
      </trkpt>
      <trkpt lat="47.006124" lon="10.611031">
        <ele>1298.471951</ele>
        <time>2024-08-23T09:57:07.000Z</time>
      </trkpt>
      <trkpt lat="47.006129" lon="10.610966">
        <ele>1297.781041</ele>
        <time>2024-08-23T09:57:08.000Z</time>
      </trkpt>
      <trkpt lat="47.006138" lon="10.610903">
        <ele>1297.101165</ele>
        <time>2024-08-23T09:57:09.000Z</time>
      </trkpt>
      <trkpt lat="47.006157" lon="10.610829">
        <ele>1296.265980</ele>
        <time>2024-08-23T09:57:10.000Z</time>
      </trkpt>
      <trkpt lat="47.006167" lon="10.610775">
        <ele>1295.674954</ele>
        <time>2024-08-23T09:57:11.000Z</time>
      </trkpt>
      <trkpt lat="47.006184" lon="10.610718">
        <ele>1295.017834</ele>
        <time>2024-08-23T09:57:12.000Z</time>
      </trkpt>
      <trkpt lat="47.006201" lon="10.610664">
        <ele>1294.389618</ele>
        <time>2024-08-23T09:57:13.000Z</time>
      </trkpt>
      <trkpt lat="47.006217" lon="10.610612">
        <ele>1293.787051</ele>
        <time>2024-08-23T09:57:14.000Z</time>
      </trkpt>
      <trkpt lat="47.006244" lon="10.610527">
        <ele>1292.796624</ele>
        <time>2024-08-23T09:57:15.000Z</time>
      </trkpt>
      <trkpt lat="47.006260" lon="10.610473">
        <ele>1292.174742</ele>
        <time>2024-08-23T09:57:16.000Z</time>
      </trkpt>
      <trkpt lat="47.006277" lon="10.610412">
        <ele>1291.478708</ele>
        <time>2024-08-23T09:57:17.000Z</time>
      </trkpt>
      <trkpt lat="47.006292" lon="10.610348">
        <ele>1290.763904</ele>
        <time>2024-08-23T09:57:18.000Z</time>
      </trkpt>
      <trkpt lat="47.006307" lon="10.610256">
        <ele>1289.764778</ele>
        <time>2024-08-23T09:57:19.000Z</time>
      </trkpt>
      <trkpt lat="47.006319" lon="10.610195">
        <ele>1289.094200</ele>
        <time>2024-08-23T09:57:20.000Z</time>
      </trkpt>
      <trkpt lat="47.006341" lon="10.610137">
        <ele>1288.393188</ele>
        <time>2024-08-23T09:57:21.000Z</time>
      </trkpt>
      <trkpt lat="47.006359" lon="10.610080">
        <ele>1287.729711</ele>
        <time>2024-08-23T09:57:22.000Z</time>
      </trkpt>
      <trkpt lat="47.006372" lon="10.610022">
        <ele>1287.084852</ele>
        <time>2024-08-23T09:57:23.000Z</time>
      </trkpt>
      <trkpt lat="47.006396" lon="10.609932">
        <ele>1286.064140</ele>
        <time>2024-08-23T09:57:24.000Z</time>
      </trkpt>
      <trkpt lat="47.006414" lon="10.609875">
        <ele>1285.400664</ele>
        <time>2024-08-23T09:57:25.000Z</time>
      </trkpt>
      <trkpt lat="47.006430" lon="10.609821">
        <ele>1284.778784</ele>
        <time>2024-08-23T09:57:26.000Z</time>
      </trkpt>
      <trkpt lat="47.006443" lon="10.609771">
        <ele>1284.213582</ele>
        <time>2024-08-23T09:57:27.000Z</time>
      </trkpt>
      <trkpt lat="47.006455" lon="10.609714">
        <ele>1283.583491</ele>
        <time>2024-08-23T09:57:28.000Z</time>
      </trkpt>
      <trkpt lat="47.006477" lon="10.609622">
        <ele>1282.553741</ele>
        <time>2024-08-23T09:57:29.000Z</time>
      </trkpt>
      <trkpt lat="47.006492" lon="10.609569">
        <ele>1281.947638</ele>
        <time>2024-08-23T09:57:30.000Z</time>
      </trkpt>
      <trkpt lat="47.006501" lon="10.609507">
        <ele>1281.278101</ele>
        <time>2024-08-23T09:57:31.000Z</time>
      </trkpt>
      <trkpt lat="47.006514" lon="10.609451">
        <ele>1280.653277</ele>
        <time>2024-08-23T09:57:32.000Z</time>
      </trkpt>
      <trkpt lat="47.006533" lon="10.609372">
        <ele>1279.768477</ele>
        <time>2024-08-23T09:57:33.000Z</time>
      </trkpt>
      <trkpt lat="47.006546" lon="10.609323">
        <ele>1279.213133</ele>
        <time>2024-08-23T09:57:34.000Z</time>
      </trkpt>
      <trkpt lat="47.006561" lon="10.609265">
        <ele>1278.557941</ele>
        <time>2024-08-23T09:57:35.000Z</time>
      </trkpt>
      <trkpt lat="47.006568" lon="10.609209">
        <ele>1277.956597</ele>
        <time>2024-08-23T09:57:36.000Z</time>
      </trkpt>
      <trkpt lat="47.006567" lon="10.609126">
        <ele>1277.079788</ele>
        <time>2024-08-23T09:57:37.000Z</time>
      </trkpt>
      <trkpt lat="47.006564" lon="10.609092">
        <ele>1276.717676</ele>
        <time>2024-08-23T09:57:38.000Z</time>
      </trkpt>
      <trkpt lat="47.006560" lon="10.609052">
        <ele>1276.290665</ele>
        <time>2024-08-23T09:57:39.000Z</time>
      </trkpt>
      <trkpt lat="47.006543" lon="10.609000">
        <ele>1275.681568</ele>
        <time>2024-08-23T09:57:40.000Z</time>
      </trkpt>
      <trkpt lat="47.006518" lon="10.608957">
        <ele>1275.084721</ele>
        <time>2024-08-23T09:57:41.000Z</time>
      </trkpt>
      <trkpt lat="47.006479" lon="10.608898">
        <ele>1274.216816</ele>
        <time>2024-08-23T09:57:42.000Z</time>
      </trkpt>
      <trkpt lat="47.006443" lon="10.608846">
        <ele>1273.434131</ele>
        <time>2024-08-23T09:57:43.000Z</time>
      </trkpt>
      <trkpt lat="47.006404" lon="10.608782">
        <ele>1272.527559</ele>
        <time>2024-08-23T09:57:44.000Z</time>
      </trkpt>
      <trkpt lat="47.006370" lon="10.608718">
        <ele>1271.644065</ele>
        <time>2024-08-23T09:57:45.000Z</time>
      </trkpt>
      <trkpt lat="47.006328" lon="10.608620">
        <ele>1270.369657</ele>
        <time>2024-08-23T09:57:46.000Z</time>
      </trkpt>
      <trkpt lat="47.006305" lon="10.608561">
        <ele>1269.621396</ele>
        <time>2024-08-23T09:57:47.000Z</time>
      </trkpt>
      <trkpt lat="47.006278" lon="10.608509">
        <ele>1268.901784</ele>
        <time>2024-08-23T09:57:48.000Z</time>
      </trkpt>
      <trkpt lat="47.006252" lon="10.608442">
        <ele>1268.053013</ele>
        <time>2024-08-23T09:57:49.000Z</time>
      </trkpt>
      <trkpt lat="47.006227" lon="10.608379">
        <ele>1267.250466</ele>
        <time>2024-08-23T09:57:50.000Z</time>
      </trkpt>
      <trkpt lat="47.006196" lon="10.608276">
        <ele>1266.010862</ele>
        <time>2024-08-23T09:57:51.000Z</time>
      </trkpt>
      <trkpt lat="47.006184" lon="10.608203">
        <ele>1265.184088</ele>
        <time>2024-08-23T09:57:52.000Z</time>
      </trkpt>
      <trkpt lat="47.006165" lon="10.608134">
        <ele>1264.364777</ele>
        <time>2024-08-23T09:57:53.000Z</time>
      </trkpt>
      <trkpt lat="47.006152" lon="10.608051">
        <ele>1263.427127</ele>
        <time>2024-08-23T09:57:54.000Z</time>
      </trkpt>
      <trkpt lat="47.006158" lon="10.608046">
        <ele>1263.315702</ele>
        <time>2024-08-23T09:57:54.000Z</time>
      </trkpt>
      <trkpt lat="47.006146" lon="10.607963">
        <ele>1262.381534</ele>
        <time>2024-08-23T09:57:55.000Z</time>
      </trkpt>
      <trkpt lat="47.006071" lon="10.607698">
        <ele>1259.222490</ele>
        <time>2024-08-23T09:57:57.000Z</time>
      </trkpt>
      <trkpt lat="47.006038" lon="10.607597">
        <ele>1257.989391</ele>
        <time>2024-08-23T09:57:59.000Z</time>
      </trkpt>
      <trkpt lat="47.006027" lon="10.607566">
        <ele>1257.604627</ele>
        <time>2024-08-23T09:58:00.000Z</time>
      </trkpt>
      <trkpt lat="47.005987" lon="10.607473">
        <ele>1256.394005</ele>
        <time>2024-08-23T09:58:01.000Z</time>
      </trkpt>
      <trkpt lat="47.005955" lon="10.607403">
        <ele>1255.466122</ele>
        <time>2024-08-23T09:58:02.000Z</time>
      </trkpt>
      <trkpt lat="47.005920" lon="10.607339">
        <ele>1254.562851</ele>
        <time>2024-08-23T09:58:03.000Z</time>
      </trkpt>
      <trkpt lat="47.005867" lon="10.607259">
        <ele>1253.334785</ele>
        <time>2024-08-23T09:58:04.000Z</time>
      </trkpt>
      <trkpt lat="47.005834" lon="10.607209">
        <ele>1252.568648</ele>
        <time>2024-08-23T09:58:05.000Z</time>
      </trkpt>
      <trkpt lat="47.005802" lon="10.607163">
        <ele>1251.845136</ele>
        <time>2024-08-23T09:58:06.000Z</time>
      </trkpt>
      <trkpt lat="47.005772" lon="10.607109">
        <ele>1251.078241</ele>
        <time>2024-08-23T09:58:07.000Z</time>
      </trkpt>
      <trkpt lat="47.005738" lon="10.607053">
        <ele>1250.252690</ele>
        <time>2024-08-23T09:58:08.000Z</time>
      </trkpt>
      <trkpt lat="47.005692" lon="10.606961">
        <ele>1248.996622</ele>
        <time>2024-08-23T09:58:09.000Z</time>
      </trkpt>
      <trkpt lat="47.005671" lon="10.606896">
        <ele>1248.204689</ele>
        <time>2024-08-23T09:58:10.000Z</time>
      </trkpt>
      <trkpt lat="47.005651" lon="10.606833">
        <ele>1247.439552</ele>
        <time>2024-08-23T09:58:11.000Z</time>
      </trkpt>
      <trkpt lat="47.005631" lon="10.606770">
        <ele>1246.674414</ele>
        <time>2024-08-23T09:58:12.000Z</time>
      </trkpt>
      <trkpt lat="47.005599" lon="10.606671">
        <ele>1245.468132</ele>
        <time>2024-08-23T09:58:13.000Z</time>
      </trkpt>
      <trkpt lat="47.005580" lon="10.606616">
        <ele>1244.789288</ele>
        <time>2024-08-23T09:58:14.000Z</time>
      </trkpt>
      <trkpt lat="47.005562" lon="10.606561">
        <ele>1244.117586</ele>
        <time>2024-08-23T09:58:15.000Z</time>
      </trkpt>
      <trkpt lat="47.005545" lon="10.606522">
        <ele>1243.607949</ele>
        <time>2024-08-23T09:58:16.000Z</time>
      </trkpt>
      <trkpt lat="47.005527" lon="10.606477">
        <ele>1243.044962</ele>
        <time>2024-08-23T09:58:17.000Z</time>
      </trkpt>
      <trkpt lat="47.005506" lon="10.606414">
        <ele>1242.312458</ele>
        <time>2024-08-23T09:58:18.000Z</time>
      </trkpt>
      <trkpt lat="47.005489" lon="10.606367">
        <ele>1241.756713</ele>
        <time>2024-08-23T09:58:19.000Z</time>
      </trkpt>
      <trkpt lat="47.005467" lon="10.606327">
        <ele>1241.219912</ele>
        <time>2024-08-23T09:58:20.000Z</time>
      </trkpt>
      <trkpt lat="47.005448" lon="10.606284">
        <ele>1240.684688</ele>
        <time>2024-08-23T09:58:21.000Z</time>
      </trkpt>
      <trkpt lat="47.005425" lon="10.606216">
        <ele>1239.891792</ele>
        <time>2024-08-23T09:58:22.000Z</time>
      </trkpt>
      <trkpt lat="47.005406" lon="10.606169">
        <ele>1239.321050</ele>
        <time>2024-08-23T09:58:23.000Z</time>
      </trkpt>
      <trkpt lat="47.005381" lon="10.606118">
        <ele>1238.664949</ele>
        <time>2024-08-23T09:58:24.000Z</time>
      </trkpt>
      <trkpt lat="47.005357" lon="10.606074">
        <ele>1238.076385</ele>
        <time>2024-08-23T09:58:25.000Z</time>
      </trkpt>
      <trkpt lat="47.005333" lon="10.606036">
        <ele>1237.535348</ele>
        <time>2024-08-23T09:58:26.000Z</time>
      </trkpt>
      <trkpt lat="47.005305" lon="10.605975">
        <ele>1236.767241</ele>
        <time>2024-08-23T09:58:27.000Z</time>
      </trkpt>
      <trkpt lat="47.005294" lon="10.605940">
        <ele>1236.364672</ele>
        <time>2024-08-23T09:58:28.000Z</time>
      </trkpt>
      <trkpt lat="47.005291" lon="10.605888">
        <ele>1235.819543</ele>
        <time>2024-08-23T09:58:29.000Z</time>
      </trkpt>
      <trkpt lat="47.005301" lon="10.605847">
        <ele>1235.364690</ele>
        <time>2024-08-23T09:58:30.000Z</time>
      </trkpt>
      <trkpt lat="47.005320" lon="10.605822">
        <ele>1234.973659</ele>
        <time>2024-08-23T09:58:31.000Z</time>
      </trkpt>
      <trkpt lat="47.005361" lon="10.605821">
        <ele>1234.345527</ele>
        <time>2024-08-23T09:58:32.000Z</time>
      </trkpt>
      <trkpt lat="47.005379" lon="10.605834">
        <ele>1234.038173</ele>
        <time>2024-08-23T09:58:33.000Z</time>
      </trkpt>
      <trkpt lat="47.005403" lon="10.605863">
        <ele>1233.561808</ele>
        <time>2024-08-23T09:58:34.000Z</time>
      </trkpt>
      <trkpt lat="47.005431" lon="10.605898">
        <ele>1232.998220</ele>
        <time>2024-08-23T09:58:35.000Z</time>
      </trkpt>
      <trkpt lat="47.005484" lon="10.605971">
        <ele>1231.884395</ele>
        <time>2024-08-23T09:58:36.000Z</time>
      </trkpt>
      <trkpt lat="47.005518" lon="10.606015">
        <ele>1231.189772</ele>
        <time>2024-08-23T09:58:37.000Z</time>
      </trkpt>
      <trkpt lat="47.005551" lon="10.606056">
        <ele>1230.527236</ele>
        <time>2024-08-23T09:58:38.000Z</time>
      </trkpt>
      <trkpt lat="47.005589" lon="10.606097">
        <ele>1229.804564</ele>
        <time>2024-08-23T09:58:39.000Z</time>
      </trkpt>
      <trkpt lat="47.005649" lon="10.606180">
        <ele>1228.541066</ele>
        <time>2024-08-23T09:58:40.000Z</time>
      </trkpt>
      <trkpt lat="47.005691" lon="10.606230">
        <ele>1227.712388</ele>
        <time>2024-08-23T09:58:41.000Z</time>
      </trkpt>
      <trkpt lat="47.005734" lon="10.606277">
        <ele>1226.890866</ele>
        <time>2024-08-23T09:58:42.000Z</time>
      </trkpt>
      <trkpt lat="47.005775" lon="10.606327">
        <ele>1226.074025</ele>
        <time>2024-08-23T09:58:43.000Z</time>
      </trkpt>
      <trkpt lat="47.005811" lon="10.606386">
        <ele>1225.247023</ele>
        <time>2024-08-23T09:58:44.000Z</time>
      </trkpt>
      <trkpt lat="47.005866" lon="10.606474">
        <ele>1224.000109</ele>
        <time>2024-08-23T09:58:45.000Z</time>
      </trkpt>
      <trkpt lat="47.005903" lon="10.606523">
        <ele>1223.236423</ele>
        <time>2024-08-23T09:58:46.000Z</time>
      </trkpt>
      <trkpt lat="47.005935" lon="10.606562">
        <ele>1222.599052</ele>
        <time>2024-08-23T09:58:47.000Z</time>
      </trkpt>
      <trkpt lat="47.005977" lon="10.606602">
        <ele>1221.831914</ele>
        <time>2024-08-23T09:58:48.000Z</time>
      </trkpt>
      <trkpt lat="47.006029" lon="10.606637">
        <ele>1220.955473</ele>
        <time>2024-08-23T09:58:49.000Z</time>
      </trkpt>
      <trkpt lat="47.006103" lon="10.606682">
        <ele>1219.728330</ele>
        <time>2024-08-23T09:58:50.000Z</time>
      </trkpt>
      <trkpt lat="47.006148" lon="10.606721">
        <ele>1218.927629</ele>
        <time>2024-08-23T09:58:51.000Z</time>
      </trkpt>
      <trkpt lat="47.006199" lon="10.606756">
        <ele>1218.065086</ele>
        <time>2024-08-23T09:58:52.000Z</time>
      </trkpt>
      <trkpt lat="47.006250" lon="10.606794">
        <ele>1217.188801</ele>
        <time>2024-08-23T09:58:53.000Z</time>
      </trkpt>
      <trkpt lat="47.006321" lon="10.606858">
        <ele>1215.912172</ele>
        <time>2024-08-23T09:58:54.000Z</time>
      </trkpt>
      <trkpt lat="47.006363" lon="10.606898">
        <ele>1215.168679</ele>
        <time>2024-08-23T09:58:55.000Z</time>
      </trkpt>
      <trkpt lat="47.006386" lon="10.606979">
        <ele>1214.290882</ele>
        <time>2024-08-23T09:58:56.000Z</time>
      </trkpt>
      <trkpt lat="47.006430" lon="10.607021">
        <ele>1213.520657</ele>
        <time>2024-08-23T09:58:57.000Z</time>
      </trkpt>
      <trkpt lat="47.006504" lon="10.607064">
        <ele>1212.352888</ele>
        <time>2024-08-23T09:58:58.000Z</time>
      </trkpt>
      <trkpt lat="47.006556" lon="10.607088">
        <ele>1211.553110</ele>
        <time>2024-08-23T09:58:59.000Z</time>
      </trkpt>
      <trkpt lat="47.006605" lon="10.607120">
        <ele>1210.766176</ele>
        <time>2024-08-23T09:59:00.000Z</time>
      </trkpt>
      <trkpt lat="47.006653" lon="10.607161">
        <ele>1209.951225</ele>
        <time>2024-08-23T09:59:01.000Z</time>
      </trkpt>
      <trkpt lat="47.006700" lon="10.607211">
        <ele>1209.099364</ele>
        <time>2024-08-23T09:59:02.000Z</time>
      </trkpt>
      <trkpt lat="47.006769" lon="10.607286">
        <ele>1207.839320</ele>
        <time>2024-08-23T09:59:03.000Z</time>
      </trkpt>
      <trkpt lat="47.006817" lon="10.607331">
        <ele>1207.003513</ele>
        <time>2024-08-23T09:59:04.000Z</time>
      </trkpt>
      <trkpt lat="47.006863" lon="10.607382">
        <ele>1206.157489</ele>
        <time>2024-08-23T09:59:05.000Z</time>
      </trkpt>
      <trkpt lat="47.006908" lon="10.607433">
        <ele>1205.323120</ele>
        <time>2024-08-23T09:59:06.000Z</time>
      </trkpt>
      <trkpt lat="47.006955" lon="10.607482">
        <ele>1204.477097</ele>
        <time>2024-08-23T09:59:07.000Z</time>
      </trkpt>
      <trkpt lat="47.007029" lon="10.607561">
        <ele>1203.134245</ele>
        <time>2024-08-23T09:59:08.000Z</time>
      </trkpt>
      <trkpt lat="47.007076" lon="10.607625">
        <ele>1202.193289</ele>
        <time>2024-08-23T09:59:09.000Z</time>
      </trkpt>
      <trkpt lat="47.007123" lon="10.607687">
        <ele>1201.265833</ele>
        <time>2024-08-23T09:59:10.000Z</time>
      </trkpt>
      <trkpt lat="47.007167" lon="10.607750">
        <ele>1200.363654</ele>
        <time>2024-08-23T09:59:11.000Z</time>
      </trkpt>
      <trkpt lat="47.007230" lon="10.607847">
        <ele>1199.023523</ele>
        <time>2024-08-23T09:59:12.000Z</time>
      </trkpt>
      <trkpt lat="47.007273" lon="10.607911">
        <ele>1198.124685</ele>
        <time>2024-08-23T09:59:13.000Z</time>
      </trkpt>
      <trkpt lat="47.007313" lon="10.607969">
        <ele>1197.299424</ele>
        <time>2024-08-23T09:59:14.000Z</time>
      </trkpt>
      <trkpt lat="47.007348" lon="10.608024">
        <ele>1196.546820</ele>
        <time>2024-08-23T09:59:15.000Z</time>
      </trkpt>
      <trkpt lat="47.007400" lon="10.608100">
        <ele>1195.469753</ele>
        <time>2024-08-23T09:59:16.000Z</time>
      </trkpt>
      <trkpt lat="47.007427" lon="10.608157">
        <ele>1194.775437</ele>
        <time>2024-08-23T09:59:17.000Z</time>
      </trkpt>
      <trkpt lat="47.007450" lon="10.608211">
        <ele>1194.138492</ele>
        <time>2024-08-23T09:59:18.000Z</time>
      </trkpt>
      <trkpt lat="47.007465" lon="10.608266">
        <ele>1193.545890</ele>
        <time>2024-08-23T09:59:19.000Z</time>
      </trkpt>
      <trkpt lat="47.007482" lon="10.608310">
        <ele>1193.039962</ele>
        <time>2024-08-23T09:59:20.000Z</time>
      </trkpt>
      <trkpt lat="47.007512" lon="10.608358">
        <ele>1192.388579</ele>
        <time>2024-08-23T09:59:21.000Z</time>
      </trkpt>
      <trkpt lat="47.007538" lon="10.608369">
        <ele>1191.991579</ele>
        <time>2024-08-23T09:59:22.000Z</time>
      </trkpt>
      <trkpt lat="47.007563" lon="10.608362">
        <ele>1191.618182</ele>
        <time>2024-08-23T09:59:23.000Z</time>
      </trkpt>
      <trkpt lat="47.007582" lon="10.608340">
        <ele>1191.263020</ele>
        <time>2024-08-23T09:59:24.000Z</time>
      </trkpt>
      <trkpt lat="47.007589" lon="10.608310">
        <ele>1190.945813</ele>
        <time>2024-08-23T09:59:25.000Z</time>
      </trkpt>
      <trkpt lat="47.007586" lon="10.608249">
        <ele>1190.333978</ele>
        <time>2024-08-23T09:59:26.000Z</time>
      </trkpt>
      <trkpt lat="47.007571" lon="10.608204">
        <ele>1189.832886</ele>
        <time>2024-08-23T09:59:27.000Z</time>
      </trkpt>
      <trkpt lat="47.007552" lon="10.608160">
        <ele>1189.312564</ele>
        <time>2024-08-23T09:59:28.000Z</time>
      </trkpt>
      <trkpt lat="47.007532" lon="10.608112">
        <ele>1188.828293</ele>
        <time>2024-08-23T09:59:29.000Z</time>
      </trkpt>
      <trkpt lat="47.007491" lon="10.608029">
        <ele>1187.945957</ele>
        <time>2024-08-23T09:59:30.000Z</time>
      </trkpt>
      <trkpt lat="47.007463" lon="10.607966">
        <ele>1187.298557</ele>
        <time>2024-08-23T09:59:31.000Z</time>
      </trkpt>
      <trkpt lat="47.007435" lon="10.607896">
        <ele>1186.599895</ele>
        <time>2024-08-23T09:59:32.000Z</time>
      </trkpt>
      <trkpt lat="47.007405" lon="10.607827">
        <ele>1185.895398</ele>
        <time>2024-08-23T09:59:33.000Z</time>
      </trkpt>
      <trkpt lat="47.007361" lon="10.607721">
        <ele>1184.827060</ele>
        <time>2024-08-23T09:59:34.000Z</time>
      </trkpt>
      <trkpt lat="47.007334" lon="10.607660">
        <ele>1184.200976</ele>
        <time>2024-08-23T09:59:35.000Z</time>
      </trkpt>
      <trkpt lat="47.007312" lon="10.607594">
        <ele>1183.568525</ele>
        <time>2024-08-23T09:59:36.000Z</time>
      </trkpt>
      <trkpt lat="47.007292" lon="10.607527">
        <ele>1182.938872</ele>
        <time>2024-08-23T09:59:37.000Z</time>
      </trkpt>
      <trkpt lat="47.007274" lon="10.607461">
        <ele>1182.326914</ele>
        <time>2024-08-23T09:59:38.000Z</time>
      </trkpt>
      <trkpt lat="47.007244" lon="10.607366">
        <ele>1181.425610</ele>
        <time>2024-08-23T09:59:39.000Z</time>
      </trkpt>
      <trkpt lat="47.007222" lon="10.607305">
        <ele>1180.831530</ele>
        <time>2024-08-23T09:59:40.000Z</time>
      </trkpt>
      <trkpt lat="47.007202" lon="10.607240">
        <ele>1180.217610</ele>
        <time>2024-08-23T09:59:41.000Z</time>
      </trkpt>
      <trkpt lat="47.007184" lon="10.607178">
        <ele>1179.637484</ele>
        <time>2024-08-23T09:59:42.000Z</time>
      </trkpt>
      <trkpt lat="47.007155" lon="10.607085">
        <ele>1178.757098</ele>
        <time>2024-08-23T09:59:43.000Z</time>
      </trkpt>
      <trkpt lat="47.007136" lon="10.607021">
        <ele>1178.156165</ele>
        <time>2024-08-23T09:59:44.000Z</time>
      </trkpt>
      <trkpt lat="47.007116" lon="10.606958">
        <ele>1177.557897</ele>
        <time>2024-08-23T09:59:45.000Z</time>
      </trkpt>
      <trkpt lat="47.007094" lon="10.606894">
        <ele>1176.940866</ele>
        <time>2024-08-23T09:59:46.000Z</time>
      </trkpt>
      <trkpt lat="47.007069" lon="10.606834">
        <ele>1176.335524</ele>
        <time>2024-08-23T09:59:47.000Z</time>
      </trkpt>
      <trkpt lat="47.007026" lon="10.606753">
        <ele>1175.451786</ele>
        <time>2024-08-23T09:59:48.000Z</time>
      </trkpt>
      <trkpt lat="47.006998" lon="10.606711">
        <ele>1174.946114</ele>
        <time>2024-08-23T09:59:49.000Z</time>
      </trkpt>
      <trkpt lat="47.006967" lon="10.606664">
        <ele>1174.383176</ele>
        <time>2024-08-23T09:59:50.000Z</time>
      </trkpt>
      <trkpt lat="47.006933" lon="10.606618">
        <ele>1173.799149</ele>
        <time>2024-08-23T09:59:51.000Z</time>
      </trkpt>
      <trkpt lat="47.006885" lon="10.606535">
        <ele>1172.862223</ele>
        <time>2024-08-23T09:59:52.000Z</time>
      </trkpt>
      <trkpt lat="47.006858" lon="10.606473">
        <ele>1172.228897</ele>
        <time>2024-08-23T09:59:53.000Z</time>
      </trkpt>
      <trkpt lat="47.006833" lon="10.606410">
        <ele>1171.601370</ele>
        <time>2024-08-23T09:59:54.000Z</time>
      </trkpt>
      <trkpt lat="47.006809" lon="10.606345">
        <ele>1170.965009</ele>
        <time>2024-08-23T09:59:55.000Z</time>
      </trkpt>
      <trkpt lat="47.006787" lon="10.606280">
        <ele>1170.340276</ele>
        <time>2024-08-23T09:59:56.000Z</time>
      </trkpt>
      <trkpt lat="47.006749" lon="10.606182">
        <ele>1169.369717</ele>
        <time>2024-08-23T09:59:57.000Z</time>
      </trkpt>
      <trkpt lat="47.006721" lon="10.606108">
        <ele>1168.641136</ele>
        <time>2024-08-23T09:59:58.000Z</time>
      </trkpt>
      <trkpt lat="47.006691" lon="10.606038">
        <ele>1167.929358</ele>
        <time>2024-08-23T09:59:59.000Z</time>
      </trkpt>
      <trkpt lat="47.006662" lon="10.605971">
        <ele>1167.246158</ele>
        <time>2024-08-23T10:00:00.000Z</time>
      </trkpt>
      <trkpt lat="47.006616" lon="10.605857">
        <ele>1166.070803</ele>
        <time>2024-08-23T10:00:01.000Z</time>
      </trkpt>
      <trkpt lat="47.006587" lon="10.605778">
        <ele>1165.244731</ele>
        <time>2024-08-23T10:00:02.000Z</time>
      </trkpt>
      <trkpt lat="47.006560" lon="10.605702">
        <ele>1164.455709</ele>
        <time>2024-08-23T10:00:03.000Z</time>
      </trkpt>
      <trkpt lat="47.006534" lon="10.605629">
        <ele>1163.697421</ele>
        <time>2024-08-23T10:00:04.000Z</time>
      </trkpt>
      <trkpt lat="47.006506" lon="10.605558">
        <ele>1162.942255</ele>
        <time>2024-08-23T10:00:05.000Z</time>
      </trkpt>
      <trkpt lat="47.006467" lon="10.605431">
        <ele>1161.659830</ele>
        <time>2024-08-23T10:00:06.000Z</time>
      </trkpt>
      <trkpt lat="47.006437" lon="10.605348">
        <ele>1160.794910</ele>
        <time>2024-08-23T10:00:07.000Z</time>
      </trkpt>
      <trkpt lat="47.006410" lon="10.605264">
        <ele>1159.939883</ele>
        <time>2024-08-23T10:00:08.000Z</time>
      </trkpt>
      <trkpt lat="47.006377" lon="10.605182">
        <ele>1159.063210</ele>
        <time>2024-08-23T10:00:09.000Z</time>
      </trkpt>
      <trkpt lat="47.006328" lon="10.605063">
        <ele>1157.783282</ele>
        <time>2024-08-23T10:00:10.000Z</time>
      </trkpt>
      <trkpt lat="47.006293" lon="10.604989">
        <ele>1156.954094</ele>
        <time>2024-08-23T10:00:11.000Z</time>
      </trkpt>
      <trkpt lat="47.006259" lon="10.604915">
        <ele>1156.132526</ele>
        <time>2024-08-23T10:00:12.000Z</time>
      </trkpt>
      <trkpt lat="47.006223" lon="10.604846">
        <ele>1155.332599</ele>
        <time>2024-08-23T10:00:13.000Z</time>
      </trkpt>
      <trkpt lat="47.006185" lon="10.604781">
        <ele>1154.544293</ele>
        <time>2024-08-23T10:00:14.000Z</time>
      </trkpt>
      <trkpt lat="47.006128" lon="10.604660">
        <ele>1153.190221</ele>
        <time>2024-08-23T10:00:15.000Z</time>
      </trkpt>
      <trkpt lat="47.006089" lon="10.604580">
        <ele>1152.284764</ele>
        <time>2024-08-23T10:00:16.000Z</time>
      </trkpt>
      <trkpt lat="47.006054" lon="10.604497">
        <ele>1151.386240</ele>
        <time>2024-08-23T10:00:17.000Z</time>
      </trkpt>
      <trkpt lat="47.006021" lon="10.604416">
        <ele>1150.517479</ele>
        <time>2024-08-23T10:00:18.000Z</time>
      </trkpt>
      <trkpt lat="47.005988" lon="10.604343">
        <ele>1149.711066</ele>
        <time>2024-08-23T10:00:19.000Z</time>
      </trkpt>
      <trkpt lat="47.005938" lon="10.604251">
        <ele>1148.627871</ele>
        <time>2024-08-23T10:00:20.000Z</time>
      </trkpt>
      <trkpt lat="47.005909" lon="10.604187">
        <ele>1147.920366</ele>
        <time>2024-08-23T10:00:21.000Z</time>
      </trkpt>
      <trkpt lat="47.005883" lon="10.604123">
        <ele>1147.234449</ele>
        <time>2024-08-23T10:00:22.000Z</time>
      </trkpt>
      <trkpt lat="47.005864" lon="10.604055">
        <ele>1146.557826</ele>
        <time>2024-08-23T10:00:23.000Z</time>
      </trkpt>
      <trkpt lat="47.005837" lon="10.603957">
        <ele>1145.584639</ele>
        <time>2024-08-23T10:00:24.000Z</time>
      </trkpt>
      <trkpt lat="47.005821" lon="10.603890">
        <ele>1144.931009</ele>
        <time>2024-08-23T10:00:25.000Z</time>
      </trkpt>
      <trkpt lat="47.005803" lon="10.603847">
        <ele>1144.466446</ele>
        <time>2024-08-23T10:00:26.000Z</time>
      </trkpt>
      <trkpt lat="47.005792" lon="10.603811">
        <ele>1144.103225</ele>
        <time>2024-08-23T10:00:27.000Z</time>
      </trkpt>
      <trkpt lat="47.005782" lon="10.603776">
        <ele>1143.753823</ele>
        <time>2024-08-23T10:00:28.000Z</time>
      </trkpt>
      <trkpt lat="47.005777" lon="10.603778">
        <ele>1143.683846</ele>
        <time>2024-08-23T10:00:30.000Z</time>
      </trkpt>
      <trkpt lat="47.005818" lon="10.603567">
        <ele>1141.644030</ele>
        <time>2024-08-23T10:02:18.000Z</time>
      </trkpt>
      <trkpt lat="47.005806" lon="10.603537">
        <ele>1141.314223</ele>
        <time>2024-08-23T10:02:19.000Z</time>
      </trkpt>
      <trkpt lat="47.005790" lon="10.603502">
        <ele>1140.914656</ele>
        <time>2024-08-23T10:02:20.000Z</time>
      </trkpt>
      <trkpt lat="47.005768" lon="10.603450">
        <ele>1140.334368</ele>
        <time>2024-08-23T10:02:21.000Z</time>
      </trkpt>
      <trkpt lat="47.005753" lon="10.603414">
        <ele>1139.934313</ele>
        <time>2024-08-23T10:02:22.000Z</time>
      </trkpt>
      <trkpt lat="47.005736" lon="10.603379">
        <ele>1139.526839</ele>
        <time>2024-08-23T10:02:23.000Z</time>
      </trkpt>
      <trkpt lat="47.005715" lon="10.603346">
        <ele>1139.098823</ele>
        <time>2024-08-23T10:02:24.000Z</time>
      </trkpt>
      <trkpt lat="47.005690" lon="10.603319">
        <ele>1138.667074</ele>
        <time>2024-08-23T10:02:25.000Z</time>
      </trkpt>
      <trkpt lat="47.005652" lon="10.603263">
        <ele>1137.917933</ele>
        <time>2024-08-23T10:02:26.000Z</time>
      </trkpt>
      <trkpt lat="47.005626" lon="10.603226">
        <ele>1137.414130</ele>
        <time>2024-08-23T10:02:27.000Z</time>
      </trkpt>
      <trkpt lat="47.005598" lon="10.603194">
        <ele>1136.920492</ele>
        <time>2024-08-23T10:02:28.000Z</time>
      </trkpt>
      <trkpt lat="47.005572" lon="10.603150">
        <ele>1136.368402</ele>
        <time>2024-08-23T10:02:29.000Z</time>
      </trkpt>
      <trkpt lat="47.005532" lon="10.603091">
        <ele>1135.579478</ele>
        <time>2024-08-23T10:02:30.000Z</time>
      </trkpt>
      <trkpt lat="47.005502" lon="10.603048">
        <ele>1134.996130</ele>
        <time>2024-08-23T10:02:31.000Z</time>
      </trkpt>
      <trkpt lat="47.005476" lon="10.603002">
        <ele>1134.429571</ele>
        <time>2024-08-23T10:02:32.000Z</time>
      </trkpt>
      <trkpt lat="47.005452" lon="10.602949">
        <ele>1133.826274</ele>
        <time>2024-08-23T10:02:33.000Z</time>
      </trkpt>
      <trkpt lat="47.005437" lon="10.602889">
        <ele>1133.220284</ele>
        <time>2024-08-23T10:02:34.000Z</time>
      </trkpt>
      <trkpt lat="47.005416" lon="10.602792">
        <ele>1132.255223</ele>
        <time>2024-08-23T10:02:35.000Z</time>
      </trkpt>
      <trkpt lat="47.005398" lon="10.602735">
        <ele>1131.659567</ele>
        <time>2024-08-23T10:02:36.000Z</time>
      </trkpt>
      <trkpt lat="47.005379" lon="10.602678">
        <ele>1131.057936</ele>
        <time>2024-08-23T10:02:37.000Z</time>
      </trkpt>
      <trkpt lat="47.005360" lon="10.602621">
        <ele>1130.456305</ele>
        <time>2024-08-23T10:02:38.000Z</time>
      </trkpt>
      <trkpt lat="47.005328" lon="10.602532">
        <ele>1129.502221</ele>
        <time>2024-08-23T10:02:39.000Z</time>
      </trkpt>
      <trkpt lat="47.005307" lon="10.602472">
        <ele>1128.862696</ele>
        <time>2024-08-23T10:02:40.000Z</time>
      </trkpt>
      <trkpt lat="47.005287" lon="10.602412">
        <ele>1128.229399</ele>
        <time>2024-08-23T10:02:41.000Z</time>
      </trkpt>
      <trkpt lat="47.005269" lon="10.602345">
        <ele>1127.546531</ele>
        <time>2024-08-23T10:02:42.000Z</time>
      </trkpt>
      <trkpt lat="47.005248" lon="10.602245">
        <ele>1126.554315</ele>
        <time>2024-08-23T10:02:43.000Z</time>
      </trkpt>
      <trkpt lat="47.005230" lon="10.602180">
        <ele>1125.889055</ele>
        <time>2024-08-23T10:02:44.000Z</time>
      </trkpt>
      <trkpt lat="47.005214" lon="10.602117">
        <ele>1125.251559</ele>
        <time>2024-08-23T10:02:45.000Z</time>
      </trkpt>
      <trkpt lat="47.005201" lon="10.602050">
        <ele>1124.590999</ele>
        <time>2024-08-23T10:02:46.000Z</time>
      </trkpt>
      <trkpt lat="47.005182" lon="10.601982">
        <ele>1123.894146</ele>
        <time>2024-08-23T10:02:47.000Z</time>
      </trkpt>
      <trkpt lat="47.005148" lon="10.601885">
        <ele>1122.859927</ele>
        <time>2024-08-23T10:02:48.000Z</time>
      </trkpt>
      <trkpt lat="47.005124" lon="10.601824">
        <ele>1122.192109</ele>
        <time>2024-08-23T10:02:49.000Z</time>
      </trkpt>
      <trkpt lat="47.005097" lon="10.601765">
        <ele>1121.518326</ele>
        <time>2024-08-23T10:02:50.000Z</time>
      </trkpt>
      <trkpt lat="47.005066" lon="10.601711">
        <ele>1120.848968</ele>
        <time>2024-08-23T10:02:51.000Z</time>
      </trkpt>
      <trkpt lat="47.005006" lon="10.601633">
        <ele>1119.733974</ele>
        <time>2024-08-23T10:02:52.000Z</time>
      </trkpt>
      <trkpt lat="47.004961" lon="10.601578">
        <ele>1118.919367</ele>
        <time>2024-08-23T10:02:53.000Z</time>
      </trkpt>
      <trkpt lat="47.004913" lon="10.601519">
        <ele>1118.048425</ele>
        <time>2024-08-23T10:02:54.000Z</time>
      </trkpt>
      <trkpt lat="47.004863" lon="10.601466">
        <ele>1117.206361</ele>
        <time>2024-08-23T10:02:55.000Z</time>
      </trkpt>
      <trkpt lat="47.004820" lon="10.601412">
        <ele>1116.521676</ele>
        <time>2024-08-23T10:02:56.000Z</time>
      </trkpt>
      <trkpt lat="47.004763" lon="10.601332">
        <ele>1115.567449</ele>
        <time>2024-08-23T10:02:57.000Z</time>
      </trkpt>
      <trkpt lat="47.004724" lon="10.601279">
        <ele>1114.924378</ele>
        <time>2024-08-23T10:02:58.000Z</time>
      </trkpt>
      <trkpt lat="47.004681" lon="10.601220">
        <ele>1114.212181</ele>
        <time>2024-08-23T10:02:59.000Z</time>
      </trkpt>
      <trkpt lat="47.004644" lon="10.601156">
        <ele>1113.520191</ele>
        <time>2024-08-23T10:03:00.000Z</time>
      </trkpt>
      <trkpt lat="47.004593" lon="10.601074">
        <ele>1112.604872</ele>
        <time>2024-08-23T10:03:01.000Z</time>
      </trkpt>
      <trkpt lat="47.004554" lon="10.601032">
        <ele>1112.019671</ele>
        <time>2024-08-23T10:03:02.000Z</time>
      </trkpt>
      <trkpt lat="47.004509" lon="10.600994">
        <ele>1111.391648</ele>
        <time>2024-08-23T10:03:03.000Z</time>
      </trkpt>
      <trkpt lat="47.004463" lon="10.600955">
        <ele>1110.749028</ele>
        <time>2024-08-23T10:03:04.000Z</time>
      </trkpt>
      <trkpt lat="47.004419" lon="10.600918">
        <ele>1110.135601</ele>
        <time>2024-08-23T10:03:05.000Z</time>
      </trkpt>
      <trkpt lat="47.004354" lon="10.600883">
        <ele>1109.298162</ele>
        <time>2024-08-23T10:03:06.000Z</time>
      </trkpt>
      <trkpt lat="47.004314" lon="10.600864">
        <ele>1108.789652</ele>
        <time>2024-08-23T10:03:07.000Z</time>
      </trkpt>
      <trkpt lat="47.004273" lon="10.600845">
        <ele>1108.269622</ele>
        <time>2024-08-23T10:03:08.000Z</time>
      </trkpt>
      <trkpt lat="47.004239" lon="10.600822">
        <ele>1107.816778</ele>
        <time>2024-08-23T10:03:09.000Z</time>
      </trkpt>
      <trkpt lat="47.004204" lon="10.600773">
        <ele>1107.231546</ele>
        <time>2024-08-23T10:03:10.000Z</time>
      </trkpt>
      <trkpt lat="47.004180" lon="10.600747">
        <ele>1106.870669</ele>
        <time>2024-08-23T10:03:11.000Z</time>
      </trkpt>
      <trkpt lat="47.004158" lon="10.600721">
        <ele>1106.528945</ele>
        <time>2024-08-23T10:03:12.000Z</time>
      </trkpt>
      <trkpt lat="47.004141" lon="10.600695">
        <ele>1106.231869</ele>
        <time>2024-08-23T10:03:13.000Z</time>
      </trkpt>
      <trkpt lat="47.004133" lon="10.600671">
        <ele>1106.011548</ele>
        <time>2024-08-23T10:03:14.000Z</time>
      </trkpt>
      <trkpt lat="47.004132" lon="10.600659">
        <ele>1105.911842</ele>
        <time>2024-08-23T10:03:15.000Z</time>
      </trkpt>
      <trkpt lat="47.004134" lon="10.600659">
        <ele>1105.887654</ele>
        <time>2024-08-23T10:03:16.000Z</time>
      </trkpt>
      <trkpt lat="47.004131" lon="10.600656">
        <ele>1105.843738</ele>
        <time>2024-08-23T10:03:16.000Z</time>
      </trkpt>
      <trkpt lat="47.004143" lon="10.600647">
        <ele>1105.680728</ele>
        <time>2024-08-23T10:03:31.000Z</time>
      </trkpt>
      <trkpt lat="47.004144" lon="10.600657">
        <ele>1105.597371</ele>
        <time>2024-08-23T10:03:32.000Z</time>
      </trkpt>
      <trkpt lat="47.004145" lon="10.600659">
        <ele>1105.576917</ele>
        <time>2024-08-23T10:03:33.000Z</time>
      </trkpt>
      <trkpt lat="47.004145" lon="10.600659">
        <ele>1105.576917</ele>
        <time>2024-08-23T10:03:33.000Z</time>
      </trkpt>
      <trkpt lat="47.004198" lon="10.600679">
        <ele>1104.915047</ele>
        <time>2024-08-23T10:03:41.000Z</time>
      </trkpt>
      <trkpt lat="47.004231" lon="10.600686">
        <ele>1104.511787</ele>
        <time>2024-08-23T10:03:42.000Z</time>
      </trkpt>
      <trkpt lat="47.004258" lon="10.600698">
        <ele>1104.170578</ele>
        <time>2024-08-23T10:03:43.000Z</time>
      </trkpt>
      <trkpt lat="47.004288" lon="10.600717">
        <ele>1103.775362</ele>
        <time>2024-08-23T10:03:44.000Z</time>
      </trkpt>
      <trkpt lat="47.004326" lon="10.600747">
        <ele>1103.253415</ele>
        <time>2024-08-23T10:03:45.000Z</time>
      </trkpt>
      <trkpt lat="47.004395" lon="10.600798">
        <ele>1102.318910</ele>
        <time>2024-08-23T10:03:46.000Z</time>
      </trkpt>
      <trkpt lat="47.004448" lon="10.600827">
        <ele>1101.634754</ele>
        <time>2024-08-23T10:03:47.000Z</time>
      </trkpt>
      <trkpt lat="47.004504" lon="10.600860">
        <ele>1100.904844</ele>
        <time>2024-08-23T10:03:48.000Z</time>
      </trkpt>
      <trkpt lat="47.004563" lon="10.600893">
        <ele>1100.141149</ele>
        <time>2024-08-23T10:03:49.000Z</time>
      </trkpt>
      <trkpt lat="47.004623" lon="10.600936">
        <ele>1099.333479</ele>
        <time>2024-08-23T10:03:50.000Z</time>
      </trkpt>
      <trkpt lat="47.004715" lon="10.601012">
        <ele>1098.056417</ele>
        <time>2024-08-23T10:03:51.000Z</time>
      </trkpt>
      <trkpt lat="47.004790" lon="10.601056">
        <ele>1097.079463</ele>
        <time>2024-08-23T10:03:52.000Z</time>
      </trkpt>
      <trkpt lat="47.004863" lon="10.601101">
        <ele>1096.121759</ele>
        <time>2024-08-23T10:03:53.000Z</time>
      </trkpt>
      <trkpt lat="47.004938" lon="10.601140">
        <ele>1095.182215</ele>
        <time>2024-08-23T10:03:54.000Z</time>
      </trkpt>
      <trkpt lat="47.005044" lon="10.601194">
        <ele>1093.902656</ele>
        <time>2024-08-23T10:03:55.000Z</time>
      </trkpt>
      <trkpt lat="47.005106" lon="10.601237">
        <ele>1093.120599</ele>
        <time>2024-08-23T10:03:56.000Z</time>
      </trkpt>
      <trkpt lat="47.005166" lon="10.601284">
        <ele>1092.344934</ele>
        <time>2024-08-23T10:03:57.000Z</time>
      </trkpt>
      <trkpt lat="47.005226" lon="10.601344">
        <ele>1091.516826</ele>
        <time>2024-08-23T10:03:58.000Z</time>
      </trkpt>
      <trkpt lat="47.005288" lon="10.601411">
        <ele>1090.638623</ele>
        <time>2024-08-23T10:03:59.000Z</time>
      </trkpt>
      <trkpt lat="47.005381" lon="10.601529">
        <ele>1089.236306</ele>
        <time>2024-08-23T10:04:00.000Z</time>
      </trkpt>
      <trkpt lat="47.005438" lon="10.601609">
        <ele>1088.336626</ele>
        <time>2024-08-23T10:04:01.000Z</time>
      </trkpt>
      <trkpt lat="47.005494" lon="10.601675">
        <ele>1087.517394</ele>
        <time>2024-08-23T10:04:02.000Z</time>
      </trkpt>
      <trkpt lat="47.005542" lon="10.601751">
        <ele>1086.711901</ele>
        <time>2024-08-23T10:04:03.000Z</time>
      </trkpt>
      <trkpt lat="47.005615" lon="10.601863">
        <ele>1085.507175</ele>
        <time>2024-08-23T10:04:04.000Z</time>
      </trkpt>
      <trkpt lat="47.005660" lon="10.601935">
        <ele>1084.747737</ele>
        <time>2024-08-23T10:04:05.000Z</time>
      </trkpt>
      <trkpt lat="47.005697" lon="10.602018">
        <ele>1083.976672</ele>
        <time>2024-08-23T10:04:06.000Z</time>
      </trkpt>
      <trkpt lat="47.005741" lon="10.602088">
        <ele>1083.236401</ele>
        <time>2024-08-23T10:04:07.000Z</time>
      </trkpt>
      <trkpt lat="47.005786" lon="10.602156">
        <ele>1082.499594</ele>
        <time>2024-08-23T10:04:08.000Z</time>
      </trkpt>
      <trkpt lat="47.005877" lon="10.602244">
        <ele>1081.256628</ele>
        <time>2024-08-23T10:04:09.000Z</time>
      </trkpt>
      <trkpt lat="47.005944" lon="10.602298">
        <ele>1080.384854</ele>
        <time>2024-08-23T10:04:10.000Z</time>
      </trkpt>
      <trkpt lat="47.006016" lon="10.602354">
        <ele>1079.455521</ele>
        <time>2024-08-23T10:04:11.000Z</time>
      </trkpt>
      <trkpt lat="47.006088" lon="10.602403">
        <ele>1078.550415</ele>
        <time>2024-08-23T10:04:12.000Z</time>
      </trkpt>
      <trkpt lat="47.006183" lon="10.602470">
        <ele>1077.348380</ele>
        <time>2024-08-23T10:04:13.000Z</time>
      </trkpt>
      <trkpt lat="47.006243" lon="10.602508">
        <ele>1076.603131</ele>
        <time>2024-08-23T10:04:14.000Z</time>
      </trkpt>
      <trkpt lat="47.006303" lon="10.602542">
        <ele>1075.869658</ele>
        <time>2024-08-23T10:04:15.000Z</time>
      </trkpt>
      <trkpt lat="47.006366" lon="10.602568">
        <ele>1075.123375</ele>
        <time>2024-08-23T10:04:16.000Z</time>
      </trkpt>
      <trkpt lat="47.006431" lon="10.602587">
        <ele>1074.355599</ele>
        <time>2024-08-23T10:04:17.000Z</time>
      </trkpt>
      <trkpt lat="47.006534" lon="10.602612">
        <ele>1073.144163</ele>
        <time>2024-08-23T10:04:18.000Z</time>
      </trkpt>
      <trkpt lat="47.006599" lon="10.602628">
        <ele>1072.379374</ele>
        <time>2024-08-23T10:04:19.000Z</time>
      </trkpt>
      <trkpt lat="47.006662" lon="10.602643">
        <ele>1071.638771</ele>
        <time>2024-08-23T10:04:20.000Z</time>
      </trkpt>
      <trkpt lat="47.006726" lon="10.602661">
        <ele>1070.882603</ele>
        <time>2024-08-23T10:04:21.000Z</time>
      </trkpt>
      <trkpt lat="47.006793" lon="10.602691">
        <ele>1070.069726</ele>
        <time>2024-08-23T10:04:22.000Z</time>
      </trkpt>
      <trkpt lat="47.006887" lon="10.602741">
        <ele>1068.909447</ele>
        <time>2024-08-23T10:04:23.000Z</time>
      </trkpt>
      <trkpt lat="47.006952" lon="10.602777">
        <ele>1068.103212</ele>
        <time>2024-08-23T10:04:24.000Z</time>
      </trkpt>
      <trkpt lat="47.007019" lon="10.602821">
        <ele>1067.251371</ele>
        <time>2024-08-23T10:04:25.000Z</time>
      </trkpt>
      <trkpt lat="47.007086" lon="10.602867">
        <ele>1066.392941</ele>
        <time>2024-08-23T10:04:26.000Z</time>
      </trkpt>
      <trkpt lat="47.007184" lon="10.602946">
        <ele>1065.095299</ele>
        <time>2024-08-23T10:04:27.000Z</time>
      </trkpt>
      <trkpt lat="47.007245" lon="10.602999">
        <ele>1064.272571</ele>
        <time>2024-08-23T10:04:28.000Z</time>
      </trkpt>
      <trkpt lat="47.007305" lon="10.603054">
        <ele>1063.451527</ele>
        <time>2024-08-23T10:04:29.000Z</time>
      </trkpt>
      <trkpt lat="47.007363" lon="10.603115">
        <ele>1062.623328</ele>
        <time>2024-08-23T10:04:30.000Z</time>
      </trkpt>
      <trkpt lat="47.007447" lon="10.603199">
        <ele>1061.443574</ele>
        <time>2024-08-23T10:04:31.000Z</time>
      </trkpt>
      <trkpt lat="47.007495" lon="10.603258">
        <ele>1060.716826</ele>
        <time>2024-08-23T10:04:32.000Z</time>
      </trkpt>
      <trkpt lat="47.007544" lon="10.603313">
        <ele>1060.000814</ele>
        <time>2024-08-23T10:04:33.000Z</time>
      </trkpt>
      <trkpt lat="47.007597" lon="10.603360">
        <ele>1059.282122</ele>
        <time>2024-08-23T10:04:34.000Z</time>
      </trkpt>
      <trkpt lat="47.007649" lon="10.603411">
        <ele>1058.556227</ele>
        <time>2024-08-23T10:04:35.000Z</time>
      </trkpt>
      <trkpt lat="47.007731" lon="10.603492">
        <ele>1057.409003</ele>
        <time>2024-08-23T10:04:36.000Z</time>
      </trkpt>
      <trkpt lat="47.007790" lon="10.603542">
        <ele>1056.618295</ele>
        <time>2024-08-23T10:04:37.000Z</time>
      </trkpt>
      <trkpt lat="47.007842" lon="10.603600">
        <ele>1055.860211</ele>
        <time>2024-08-23T10:04:38.000Z</time>
      </trkpt>
      <trkpt lat="47.007891" lon="10.603663">
        <ele>1055.104055</ele>
        <time>2024-08-23T10:04:39.000Z</time>
      </trkpt>
      <trkpt lat="47.007962" lon="10.603766">
        <ele>1053.940604</ele>
        <time>2024-08-23T10:04:40.000Z</time>
      </trkpt>
      <trkpt lat="47.008007" lon="10.603837">
        <ele>1053.158535</ele>
        <time>2024-08-23T10:04:41.000Z</time>
      </trkpt>
      <trkpt lat="47.008048" lon="10.603907">
        <ele>1052.414026</ele>
        <time>2024-08-23T10:04:42.000Z</time>
      </trkpt>
      <trkpt lat="47.008087" lon="10.603975">
        <ele>1051.697137</ele>
        <time>2024-08-23T10:04:43.000Z</time>
      </trkpt>
      <trkpt lat="47.008125" lon="10.604039">
        <ele>1051.012463</ele>
        <time>2024-08-23T10:04:44.000Z</time>
      </trkpt>
      <trkpt lat="47.008190" lon="10.604122">
        <ele>1049.992703</ele>
        <time>2024-08-23T10:04:45.000Z</time>
      </trkpt>
      <trkpt lat="47.008240" lon="10.604170">
        <ele>1049.285623</ele>
        <time>2024-08-23T10:04:46.000Z</time>
      </trkpt>
      <trkpt lat="47.008291" lon="10.604214">
        <ele>1048.585518</ele>
        <time>2024-08-23T10:04:47.000Z</time>
      </trkpt>
      <trkpt lat="47.008342" lon="10.604262">
        <ele>1047.868509</ele>
        <time>2024-08-23T10:04:48.000Z</time>
      </trkpt>
      <trkpt lat="47.008393" lon="10.604317">
        <ele>1047.119487</ele>
        <time>2024-08-23T10:04:49.000Z</time>
      </trkpt>
      <trkpt lat="47.008474" lon="10.604395">
        <ele>1045.972957</ele>
        <time>2024-08-23T10:04:50.000Z</time>
      </trkpt>
      <trkpt lat="47.008532" lon="10.604456">
        <ele>1045.128473</ele>
        <time>2024-08-23T10:04:51.000Z</time>
      </trkpt>
      <trkpt lat="47.008592" lon="10.604519">
        <ele>1044.255355</ele>
        <time>2024-08-23T10:04:52.000Z</time>
      </trkpt>
      <trkpt lat="47.008657" lon="10.604586">
        <ele>1043.315313</ele>
        <time>2024-08-23T10:04:53.000Z</time>
      </trkpt>
      <trkpt lat="47.008750" lon="10.604708">
        <ele>1041.838948</ele>
        <time>2024-08-23T10:04:54.000Z</time>
      </trkpt>
      <trkpt lat="47.008811" lon="10.604790">
        <ele>1040.859865</ele>
        <time>2024-08-23T10:04:55.000Z</time>
      </trkpt>
      <trkpt lat="47.008870" lon="10.604871">
        <ele>1039.903626</ele>
        <time>2024-08-23T10:04:56.000Z</time>
      </trkpt>
      <trkpt lat="47.008924" lon="10.604953">
        <ele>1038.983895</ele>
        <time>2024-08-23T10:04:57.000Z</time>
      </trkpt>
      <trkpt lat="47.009007" lon="10.605053">
        <ele>1037.712933</ele>
        <time>2024-08-23T10:04:58.000Z</time>
      </trkpt>
      <trkpt lat="47.009059" lon="10.605107">
        <ele>1036.959041</ele>
        <time>2024-08-23T10:04:59.000Z</time>
      </trkpt>
      <trkpt lat="47.009109" lon="10.605164">
        <ele>1036.209728</ele>
        <time>2024-08-23T10:05:00.000Z</time>
      </trkpt>
      <trkpt lat="47.009157" lon="10.605228">
        <ele>1035.442158</ele>
        <time>2024-08-23T10:05:01.000Z</time>
      </trkpt>
      <trkpt lat="47.009206" lon="10.605280">
        <ele>1034.726523</ele>
        <time>2024-08-23T10:05:02.000Z</time>
      </trkpt>
      <trkpt lat="47.009274" lon="10.605342">
        <ele>1033.779134</ele>
        <time>2024-08-23T10:05:03.000Z</time>
      </trkpt>
      <trkpt lat="47.009311" lon="10.605365">
        <ele>1033.303650</ele>
        <time>2024-08-23T10:05:04.000Z</time>
      </trkpt>
      <trkpt lat="47.009346" lon="10.605371">
        <ele>1032.887785</ele>
        <time>2024-08-23T10:05:05.000Z</time>
      </trkpt>
      <trkpt lat="47.009368" lon="10.605370">
        <ele>1032.653509</ele>
        <time>2024-08-23T10:05:06.000Z</time>
      </trkpt>
      <trkpt lat="47.009387" lon="10.605373">
        <ele>1032.450108</ele>
        <time>2024-08-23T10:05:07.000Z</time>
      </trkpt>
      <trkpt lat="47.009399" lon="10.605369">
        <ele>1032.319125</ele>
        <time>2024-08-23T10:05:08.000Z</time>
      </trkpt>
      <trkpt lat="47.009406" lon="10.605364">
        <ele>1032.236251</ele>
        <time>2024-08-23T10:05:09.000Z</time>
      </trkpt>
      <trkpt lat="47.009405" lon="10.605365">
        <ele>1032.223368</ele>
        <time>2024-08-23T10:05:10.000Z</time>
      </trkpt>
      <trkpt lat="47.009442" lon="10.605334">
        <ele>1031.769809</ele>
        <time>2024-08-23T10:05:14.000Z</time>
      </trkpt>
      <trkpt lat="47.009478" lon="10.605289">
        <ele>1031.266329</ele>
        <time>2024-08-23T10:05:15.000Z</time>
      </trkpt>
      <trkpt lat="47.009492" lon="10.605272">
        <ele>1031.072866</ele>
        <time>2024-08-23T10:05:16.000Z</time>
      </trkpt>
      <trkpt lat="47.009516" lon="10.605241">
        <ele>1030.732460</ele>
        <time>2024-08-23T10:05:17.000Z</time>
      </trkpt>
      <trkpt lat="47.009535" lon="10.605214">
        <ele>1030.450861</ele>
        <time>2024-08-23T10:05:18.000Z</time>
      </trkpt>
      <trkpt lat="47.009537" lon="10.605212">
        <ele>1030.425095</ele>
        <time>2024-08-23T10:05:19.000Z</time>
      </trkpt>
      <trkpt lat="47.009537" lon="10.605214">
        <ele>1030.410580</ele>
        <time>2024-08-23T10:05:20.000Z</time>
      </trkpt>
      <trkpt lat="47.009551" lon="10.605183">
        <ele>1030.140718</ele>
        <time>2024-08-23T10:05:32.000Z</time>
      </trkpt>
      <trkpt lat="47.009557" lon="10.605160">
        <ele>1029.961990</ele>
        <time>2024-08-23T10:05:33.000Z</time>
      </trkpt>
      <trkpt lat="47.009565" lon="10.605103">
        <ele>1029.539625</ele>
        <time>2024-08-23T10:05:34.000Z</time>
      </trkpt>
      <trkpt lat="47.009572" lon="10.605056">
        <ele>1029.190469</ele>
        <time>2024-08-23T10:05:35.000Z</time>
      </trkpt>
      <trkpt lat="47.009578" lon="10.605001">
        <ele>1028.786216</ele>
        <time>2024-08-23T10:05:36.000Z</time>
      </trkpt>
      <trkpt lat="47.009586" lon="10.604942">
        <ele>1028.349624</ele>
        <time>2024-08-23T10:05:37.000Z</time>
      </trkpt>
      <trkpt lat="47.009597" lon="10.604878">
        <ele>1027.870600</ele>
        <time>2024-08-23T10:05:38.000Z</time>
      </trkpt>
      <trkpt lat="47.009617" lon="10.604767">
        <ele>1027.037338</ele>
        <time>2024-08-23T10:05:39.000Z</time>
      </trkpt>
      <trkpt lat="47.009632" lon="10.604683">
        <ele>1026.407129</ele>
        <time>2024-08-23T10:05:40.000Z</time>
      </trkpt>
      <trkpt lat="47.009647" lon="10.604604">
        <ele>1025.811953</ele>
        <time>2024-08-23T10:05:41.000Z</time>
      </trkpt>
      <trkpt lat="47.009663" lon="10.604532">
        <ele>1025.262345</ele>
        <time>2024-08-23T10:05:42.000Z</time>
      </trkpt>
      <trkpt lat="47.009676" lon="10.604461">
        <ele>1024.728791</ele>
        <time>2024-08-23T10:05:43.000Z</time>
      </trkpt>
      <trkpt lat="47.009698" lon="10.604348">
        <ele>1023.875892</ele>
        <time>2024-08-23T10:05:44.000Z</time>
      </trkpt>
      <trkpt lat="47.009714" lon="10.604262">
        <ele>1023.228911</ele>
        <time>2024-08-23T10:05:45.000Z</time>
      </trkpt>
      <trkpt lat="47.009732" lon="10.604168">
        <ele>1022.520292</ele>
        <time>2024-08-23T10:05:46.000Z</time>
      </trkpt>
      <trkpt lat="47.009749" lon="10.604071">
        <ele>1021.793411</ele>
        <time>2024-08-23T10:05:47.000Z</time>
      </trkpt>
      <trkpt lat="47.009773" lon="10.603929">
        <ele>1020.731626</ele>
        <time>2024-08-23T10:05:48.000Z</time>
      </trkpt>
      <trkpt lat="47.009786" lon="10.603850">
        <ele>1020.141806</ele>
        <time>2024-08-23T10:05:49.000Z</time>
      </trkpt>
      <trkpt lat="47.009797" lon="10.603781">
        <ele>1019.627518</ele>
        <time>2024-08-23T10:05:50.000Z</time>
      </trkpt>
      <trkpt lat="47.009807" lon="10.603724">
        <ele>1019.200354</ele>
        <time>2024-08-23T10:05:51.000Z</time>
      </trkpt>
      <trkpt lat="47.009816" lon="10.603671">
        <ele>1018.803946</ele>
        <time>2024-08-23T10:05:52.000Z</time>
      </trkpt>
      <trkpt lat="47.009831" lon="10.603587">
        <ele>1018.173739</ele>
        <time>2024-08-23T10:05:53.000Z</time>
      </trkpt>
      <trkpt lat="47.009843" lon="10.603528">
        <ele>1017.726890</ele>
        <time>2024-08-23T10:05:54.000Z</time>
      </trkpt>
      <trkpt lat="47.009855" lon="10.603470">
        <ele>1017.286992</ele>
        <time>2024-08-23T10:05:55.000Z</time>
      </trkpt>
      <trkpt lat="47.009863" lon="10.603414">
        <ele>1016.871736</ele>
        <time>2024-08-23T10:05:56.000Z</time>
      </trkpt>
      <trkpt lat="47.009879" lon="10.603328">
        <ele>1016.224756</ele>
        <time>2024-08-23T10:05:57.000Z</time>
      </trkpt>
      <trkpt lat="47.009894" lon="10.603268">
        <ele>1015.760948</ele>
        <time>2024-08-23T10:05:58.000Z</time>
      </trkpt>
      <trkpt lat="47.009908" lon="10.603212">
        <ele>1015.328060</ele>
        <time>2024-08-23T10:05:59.000Z</time>
      </trkpt>
      <trkpt lat="47.009919" lon="10.603158">
        <ele>1014.919029</ele>
        <time>2024-08-23T10:06:00.000Z</time>
      </trkpt>
      <trkpt lat="47.009935" lon="10.603082">
        <ele>1014.341752</ele>
        <time>2024-08-23T10:06:01.000Z</time>
      </trkpt>
      <trkpt lat="47.009950" lon="10.603027">
        <ele>1013.911833</ele>
        <time>2024-08-23T10:06:02.000Z</time>
      </trkpt>
      <trkpt lat="47.009972" lon="10.602972">
        <ele>1013.520261</ele>
        <time>2024-08-23T10:06:03.000Z</time>
      </trkpt>
      <trkpt lat="47.010001" lon="10.602920">
        <ele>1013.146944</ele>
        <time>2024-08-23T10:06:04.000Z</time>
      </trkpt>
      <trkpt lat="47.010033" lon="10.602872">
        <ele>1012.773893</ele>
        <time>2024-08-23T10:06:05.000Z</time>
      </trkpt>
      <trkpt lat="47.010089" lon="10.602807">
        <ele>1012.191851</ele>
        <time>2024-08-23T10:06:06.000Z</time>
      </trkpt>
      <trkpt lat="47.010131" lon="10.602760">
        <ele>1011.761288</ele>
        <time>2024-08-23T10:06:07.000Z</time>
      </trkpt>
      <trkpt lat="47.010169" lon="10.602711">
        <ele>1011.348905</ele>
        <time>2024-08-23T10:06:08.000Z</time>
      </trkpt>
      <trkpt lat="47.010205" lon="10.602659">
        <ele>1010.937097</ele>
        <time>2024-08-23T10:06:09.000Z</time>
      </trkpt>
      <trkpt lat="47.010241" lon="10.602601">
        <ele>1010.501243</ele>
        <time>2024-08-23T10:06:10.000Z</time>
      </trkpt>
      <trkpt lat="47.010296" lon="10.602503">
        <ele>1009.795898</ele>
        <time>2024-08-23T10:06:11.000Z</time>
      </trkpt>
      <trkpt lat="47.010329" lon="10.602444">
        <ele>1009.371832</ele>
        <time>2024-08-23T10:06:12.000Z</time>
      </trkpt>
      <trkpt lat="47.010355" lon="10.602398">
        <ele>1009.039798</ele>
        <time>2024-08-23T10:06:13.000Z</time>
      </trkpt>
      <trkpt lat="47.010383" lon="10.602361">
        <ele>1008.732632</ele>
        <time>2024-08-23T10:06:14.000Z</time>
      </trkpt>
      <trkpt lat="47.010435" lon="10.602335">
        <ele>1008.284884</ele>
        <time>2024-08-23T10:06:15.000Z</time>
      </trkpt>
      <trkpt lat="47.010466" lon="10.602356">
        <ele>1008.006587</ele>
        <time>2024-08-23T10:06:16.000Z</time>
      </trkpt>
      <trkpt lat="47.010486" lon="10.602398">
        <ele>1007.721906</ele>
        <time>2024-08-23T10:06:17.000Z</time>
      </trkpt>
      <trkpt lat="47.010493" lon="10.602449">
        <ele>1007.432808</ele>
        <time>2024-08-23T10:06:18.000Z</time>
      </trkpt>
      <trkpt lat="47.010485" lon="10.602498">
        <ele>1007.152812</ele>
        <time>2024-08-23T10:06:19.000Z</time>
      </trkpt>
      <trkpt lat="47.010457" lon="10.602582">
        <ele>1006.633221</ele>
        <time>2024-08-23T10:06:20.000Z</time>
      </trkpt>
      <trkpt lat="47.010437" lon="10.602639">
        <ele>1006.276987</ele>
        <time>2024-08-23T10:06:21.000Z</time>
      </trkpt>
      <trkpt lat="47.010415" lon="10.602697">
        <ele>1005.908159</ele>
        <time>2024-08-23T10:06:22.000Z</time>
      </trkpt>
      <trkpt lat="47.010398" lon="10.602764">
        <ele>1005.510889</ele>
        <time>2024-08-23T10:06:23.000Z</time>
      </trkpt>
      <trkpt lat="47.010384" lon="10.602881">
        <ele>1004.850769</ele>
        <time>2024-08-23T10:06:24.000Z</time>
      </trkpt>
      <trkpt lat="47.010369" lon="10.602964">
        <ele>1004.373601</ele>
        <time>2024-08-23T10:06:25.000Z</time>
      </trkpt>
      <trkpt lat="47.010358" lon="10.603049">
        <ele>1003.892812</ele>
        <time>2024-08-23T10:06:26.000Z</time>
      </trkpt>
      <trkpt lat="47.010352" lon="10.603133">
        <ele>1003.423459</ele>
        <time>2024-08-23T10:06:27.000Z</time>
      </trkpt>
      <trkpt lat="47.010352" lon="10.603211">
        <ele>1002.990002</ele>
        <time>2024-08-23T10:06:28.000Z</time>
      </trkpt>
      <trkpt lat="47.010366" lon="10.603312">
        <ele>1002.417251</ele>
        <time>2024-08-23T10:06:29.000Z</time>
      </trkpt>
      <trkpt lat="47.010388" lon="10.603367">
        <ele>1002.062899</ele>
        <time>2024-08-23T10:06:30.000Z</time>
      </trkpt>
      <trkpt lat="47.010420" lon="10.603410">
        <ele>1001.709183</ele>
        <time>2024-08-23T10:06:31.000Z</time>
      </trkpt>
      <trkpt lat="47.010460" lon="10.603440">
        <ele>1001.343032</ele>
        <time>2024-08-23T10:06:32.000Z</time>
      </trkpt>
      <trkpt lat="47.010530" lon="10.603441">
        <ele>1000.772512</ele>
        <time>2024-08-23T10:06:33.000Z</time>
      </trkpt>
      <trkpt lat="47.010568" lon="10.603416">
        <ele>1000.433082</ele>
        <time>2024-08-23T10:06:34.000Z</time>
      </trkpt>
      <trkpt lat="47.010598" lon="10.603379">
        <ele>1000.113621</ele>
        <time>2024-08-23T10:06:35.000Z</time>
      </trkpt>
      <trkpt lat="47.010618" lon="10.603330">
        <ele>999.796265</ele>
        <time>2024-08-23T10:06:36.000Z</time>
      </trkpt>
      <trkpt lat="47.010642" lon="10.603238">
        <ele>999.248872</ele>
        <time>2024-08-23T10:06:37.000Z</time>
      </trkpt>
      <trkpt lat="47.010656" lon="10.603167">
        <ele>998.779192</ele>
        <time>2024-08-23T10:06:38.000Z</time>
      </trkpt>
      <trkpt lat="47.010677" lon="10.603091">
        <ele>998.218574</ele>
        <time>2024-08-23T10:06:39.000Z</time>
      </trkpt>
      <trkpt lat="47.010703" lon="10.603010">
        <ele>997.606523</ele>
        <time>2024-08-23T10:06:40.000Z</time>
      </trkpt>
      <trkpt lat="47.010736" lon="10.602924">
        <ele>996.931875</ele>
        <time>2024-08-23T10:06:41.000Z</time>
      </trkpt>
      <trkpt lat="47.010789" lon="10.602782">
        <ele>995.825165</ele>
        <time>2024-08-23T10:06:42.000Z</time>
      </trkpt>
      <trkpt lat="47.010827" lon="10.602682">
        <ele>995.042515</ele>
        <time>2024-08-23T10:06:43.000Z</time>
      </trkpt>
      <trkpt lat="47.010866" lon="10.602583">
        <ele>994.260863</ele>
        <time>2024-08-23T10:06:44.000Z</time>
      </trkpt>
      <trkpt lat="47.010903" lon="10.602485">
        <ele>993.495035</ele>
        <time>2024-08-23T10:06:45.000Z</time>
      </trkpt>
      <trkpt lat="47.010954" lon="10.602331">
        <ele>992.324605</ele>
        <time>2024-08-23T10:06:46.000Z</time>
      </trkpt>
      <trkpt lat="47.010988" lon="10.602227">
        <ele>991.536110</ele>
        <time>2024-08-23T10:06:47.000Z</time>
      </trkpt>
      <trkpt lat="47.011022" lon="10.602123">
        <ele>990.747615</ele>
        <time>2024-08-23T10:06:48.000Z</time>
      </trkpt>
      <trkpt lat="47.011055" lon="10.602020">
        <ele>989.969596</ele>
        <time>2024-08-23T10:06:49.000Z</time>
      </trkpt>
      <trkpt lat="47.011090" lon="10.601918">
        <ele>989.188953</ele>
        <time>2024-08-23T10:06:50.000Z</time>
      </trkpt>
      <trkpt lat="47.011143" lon="10.601769">
        <ele>988.040041</ele>
        <time>2024-08-23T10:06:51.000Z</time>
      </trkpt>
      <trkpt lat="47.011182" lon="10.601677">
        <ele>987.299442</ele>
        <time>2024-08-23T10:06:52.000Z</time>
      </trkpt>
      <trkpt lat="47.011228" lon="10.601595">
        <ele>986.573511</ele>
        <time>2024-08-23T10:06:53.000Z</time>
      </trkpt>
      <trkpt lat="47.011280" lon="10.601524">
        <ele>985.861172</ele>
        <time>2024-08-23T10:06:54.000Z</time>
      </trkpt>
      <trkpt lat="47.011337" lon="10.601459">
        <ele>985.137242</ele>
        <time>2024-08-23T10:06:55.000Z</time>
      </trkpt>
      <trkpt lat="47.011437" lon="10.601400">
        <ele>984.056522</ele>
        <time>2024-08-23T10:06:56.000Z</time>
      </trkpt>
      <trkpt lat="47.011509" lon="10.601379">
        <ele>983.320492</ele>
        <time>2024-08-23T10:06:57.000Z</time>
      </trkpt>
      <trkpt lat="47.011586" lon="10.601366">
        <ele>982.543369</ele>
        <time>2024-08-23T10:06:58.000Z</time>
      </trkpt>
      <trkpt lat="47.011665" lon="10.601364">
        <ele>981.751175</ele>
        <time>2024-08-23T10:06:59.000Z</time>
      </trkpt>
      <trkpt lat="47.011779" lon="10.601387">
        <ele>980.718558</ele>
        <time>2024-08-23T10:07:00.000Z</time>
      </trkpt>
      <trkpt lat="47.011853" lon="10.601426">
        <ele>980.136398</ele>
        <time>2024-08-23T10:07:01.000Z</time>
      </trkpt>
      <trkpt lat="47.011923" lon="10.601473">
        <ele>979.566424</ele>
        <time>2024-08-23T10:07:02.000Z</time>
      </trkpt>
      <trkpt lat="47.011993" lon="10.601535">
        <ele>978.961004</ele>
        <time>2024-08-23T10:07:03.000Z</time>
      </trkpt>
      <trkpt lat="47.012060" lon="10.601609">
        <ele>978.340041</ele>
        <time>2024-08-23T10:07:04.000Z</time>
      </trkpt>
      <trkpt lat="47.012160" lon="10.601732">
        <ele>977.373787</ele>
        <time>2024-08-23T10:07:05.000Z</time>
      </trkpt>
      <trkpt lat="47.012224" lon="10.601811">
        <ele>976.754476</ele>
        <time>2024-08-23T10:07:06.000Z</time>
      </trkpt>
      <trkpt lat="47.012286" lon="10.601883">
        <ele>976.168986</ele>
        <time>2024-08-23T10:07:07.000Z</time>
      </trkpt>
      <trkpt lat="47.012345" lon="10.601952">
        <ele>975.610307</ele>
        <time>2024-08-23T10:07:08.000Z</time>
      </trkpt>
      <trkpt lat="47.012431" lon="10.602043">
        <ele>974.825189</ele>
        <time>2024-08-23T10:07:09.000Z</time>
      </trkpt>
      <trkpt lat="47.012491" lon="10.602094">
        <ele>974.311767</ele>
        <time>2024-08-23T10:07:10.000Z</time>
      </trkpt>
      <trkpt lat="47.012554" lon="10.602129">
        <ele>973.813004</ele>
        <time>2024-08-23T10:07:11.000Z</time>
      </trkpt>
      <trkpt lat="47.012621" lon="10.602147">
        <ele>973.308715</ele>
        <time>2024-08-23T10:07:12.000Z</time>
      </trkpt>
      <trkpt lat="47.012731" lon="10.602147">
        <ele>972.494330</ele>
        <time>2024-08-23T10:07:13.000Z</time>
      </trkpt>
      <trkpt lat="47.012801" lon="10.602137">
        <ele>971.973631</ele>
        <time>2024-08-23T10:07:14.000Z</time>
      </trkpt>
      <trkpt lat="47.012865" lon="10.602113">
        <ele>971.484563</ele>
        <time>2024-08-23T10:07:15.000Z</time>
      </trkpt>
      <trkpt lat="47.012926" lon="10.602083">
        <ele>971.008235</ele>
        <time>2024-08-23T10:07:16.000Z</time>
      </trkpt>
      <trkpt lat="47.012985" lon="10.602044">
        <ele>970.529112</ele>
        <time>2024-08-23T10:07:17.000Z</time>
      </trkpt>
      <trkpt lat="47.013071" lon="10.601960">
        <ele>969.764136</ele>
        <time>2024-08-23T10:07:18.000Z</time>
      </trkpt>
      <trkpt lat="47.013124" lon="10.601889">
        <ele>969.232704</ele>
        <time>2024-08-23T10:07:19.000Z</time>
      </trkpt>
      <trkpt lat="47.013175" lon="10.601807">
        <ele>968.672432</ele>
        <time>2024-08-23T10:07:20.000Z</time>
      </trkpt>
      <trkpt lat="47.013225" lon="10.601722">
        <ele>968.105745</ele>
        <time>2024-08-23T10:07:21.000Z</time>
      </trkpt>
      <trkpt lat="47.013274" lon="10.601640">
        <ele>967.715117</ele>
        <time>2024-08-23T10:07:22.000Z</time>
      </trkpt>
      <trkpt lat="47.013345" lon="10.601540">
        <ele>967.602722</ele>
        <time>2024-08-23T10:07:23.000Z</time>
      </trkpt>
      <trkpt lat="47.013388" lon="10.601492">
        <ele>967.541023</ele>
        <time>2024-08-23T10:07:24.000Z</time>
      </trkpt>
      <trkpt lat="47.013431" lon="10.601459">
        <ele>967.485610</ele>
        <time>2024-08-23T10:07:25.000Z</time>
      </trkpt>
      <trkpt lat="47.013478" lon="10.601445">
        <ele>967.430851</ele>
        <time>2024-08-23T10:07:26.000Z</time>
      </trkpt>
      <trkpt lat="47.013542" lon="10.601448">
        <ele>967.357739</ele>
        <time>2024-08-23T10:07:27.000Z</time>
      </trkpt>
      <trkpt lat="47.013585" lon="10.601478">
        <ele>967.303370</ele>
        <time>2024-08-23T10:07:28.000Z</time>
      </trkpt>
      <trkpt lat="47.013622" lon="10.601518">
        <ele>967.250888</ele>
        <time>2024-08-23T10:07:29.000Z</time>
      </trkpt>
      <trkpt lat="47.013652" lon="10.601567">
        <ele>967.199619</ele>
        <time>2024-08-23T10:07:30.000Z</time>
      </trkpt>
      <trkpt lat="47.013702" lon="10.601642">
        <ele>967.117959</ele>
        <time>2024-08-23T10:07:31.000Z</time>
      </trkpt>
      <trkpt lat="47.013734" lon="10.601697">
        <ele>967.061672</ele>
        <time>2024-08-23T10:07:32.000Z</time>
      </trkpt>
      <trkpt lat="47.013767" lon="10.601751">
        <ele>967.005219</ele>
        <time>2024-08-23T10:07:33.000Z</time>
      </trkpt>
      <trkpt lat="47.013800" lon="10.601806">
        <ele>966.948183</ele>
        <time>2024-08-23T10:07:34.000Z</time>
      </trkpt>
      <trkpt lat="47.013836" lon="10.601859">
        <ele>966.889942</ele>
        <time>2024-08-23T10:07:35.000Z</time>
      </trkpt>
      <trkpt lat="47.013887" lon="10.601945">
        <ele>966.801211</ele>
        <time>2024-08-23T10:07:36.000Z</time>
      </trkpt>
      <trkpt lat="47.013920" lon="10.602006">
        <ele>966.740591</ele>
        <time>2024-08-23T10:07:37.000Z</time>
      </trkpt>
      <trkpt lat="47.013952" lon="10.602064">
        <ele>966.682507</ele>
        <time>2024-08-23T10:07:38.000Z</time>
      </trkpt>
      <trkpt lat="47.013982" lon="10.602117">
        <ele>966.628881</ele>
        <time>2024-08-23T10:07:39.000Z</time>
      </trkpt>
      <trkpt lat="47.014015" lon="10.602168">
        <ele>966.574145</ele>
        <time>2024-08-23T10:07:40.000Z</time>
      </trkpt>
      <trkpt lat="47.014064" lon="10.602242">
        <ele>966.493840</ele>
        <time>2024-08-23T10:07:41.000Z</time>
      </trkpt>
      <trkpt lat="47.014093" lon="10.602293">
        <ele>966.442142</ele>
        <time>2024-08-23T10:07:42.000Z</time>
      </trkpt>
      <trkpt lat="47.014121" lon="10.602341">
        <ele>966.392964</ele>
        <time>2024-08-23T10:07:43.000Z</time>
      </trkpt>
      <trkpt lat="47.014143" lon="10.602387">
        <ele>966.349222</ele>
        <time>2024-08-23T10:07:44.000Z</time>
      </trkpt>
      <trkpt lat="47.014170" lon="10.602441">
        <ele>966.297091</ele>
        <time>2024-08-23T10:07:45.000Z</time>
      </trkpt>
      <trkpt lat="47.014187" lon="10.602472">
        <ele>966.266121</ele>
        <time>2024-08-23T10:07:46.000Z</time>
      </trkpt>
      <trkpt lat="47.014203" lon="10.602499">
        <ele>966.238272</ele>
        <time>2024-08-23T10:07:47.000Z</time>
      </trkpt>
      <trkpt lat="47.014219" lon="10.602523">
        <ele>966.212141</ele>
        <time>2024-08-23T10:07:48.000Z</time>
      </trkpt>
      <trkpt lat="47.014232" lon="10.602547">
        <ele>966.188279</ele>
        <time>2024-08-23T10:07:49.000Z</time>
      </trkpt>
      <trkpt lat="47.014253" lon="10.602582">
        <ele>966.151984</ele>
        <time>2024-08-23T10:07:50.000Z</time>
      </trkpt>
      <trkpt lat="47.014268" lon="10.602609">
        <ele>966.124870</ele>
        <time>2024-08-23T10:07:51.000Z</time>
      </trkpt>
      <trkpt lat="47.014283" lon="10.602638">
        <ele>966.096533</ele>
        <time>2024-08-23T10:07:52.000Z</time>
      </trkpt>
      <trkpt lat="47.014299" lon="10.602669">
        <ele>966.066265</ele>
        <time>2024-08-23T10:07:53.000Z</time>
      </trkpt>
      <trkpt lat="47.014328" lon="10.602718">
        <ele>966.015752</ele>
        <time>2024-08-23T10:07:54.000Z</time>
      </trkpt>
      <trkpt lat="47.014349" lon="10.602753">
        <ele>965.979457</ele>
        <time>2024-08-23T10:07:55.000Z</time>
      </trkpt>
      <trkpt lat="47.014370" lon="10.602791">
        <ele>965.941378</ele>
        <time>2024-08-23T10:07:56.000Z</time>
      </trkpt>
      <trkpt lat="47.014391" lon="10.602833">
        <ele>965.900832</ele>
        <time>2024-08-23T10:07:57.000Z</time>
      </trkpt>
      <trkpt lat="47.014413" lon="10.602877">
        <ele>965.858355</ele>
        <time>2024-08-23T10:07:58.000Z</time>
      </trkpt>
      <trkpt lat="47.014450" lon="10.602944">
        <ele>965.791234</ele>
        <time>2024-08-23T10:07:59.000Z</time>
      </trkpt>
      <trkpt lat="47.014475" lon="10.602987">
        <ele>965.747241</ele>
        <time>2024-08-23T10:08:00.000Z</time>
      </trkpt>
      <trkpt lat="47.014497" lon="10.603032">
        <ele>965.704134</ele>
        <time>2024-08-23T10:08:01.000Z</time>
      </trkpt>
      <trkpt lat="47.014519" lon="10.603074">
        <ele>965.687541</ele>
        <time>2024-08-23T10:08:02.000Z</time>
      </trkpt>
      <trkpt lat="47.014552" lon="10.603133">
        <ele>965.681014</ele>
        <time>2024-08-23T10:08:03.000Z</time>
      </trkpt>
      <trkpt lat="47.014576" lon="10.603173">
        <ele>965.676457</ele>
        <time>2024-08-23T10:08:04.000Z</time>
      </trkpt>
      <trkpt lat="47.014599" lon="10.603216">
        <ele>965.671783</ele>
        <time>2024-08-23T10:08:05.000Z</time>
      </trkpt>
      <trkpt lat="47.014626" lon="10.603261">
        <ele>965.666657</ele>
        <time>2024-08-23T10:08:06.000Z</time>
      </trkpt>
      <trkpt lat="47.014652" lon="10.603312">
        <ele>965.661211</ele>
        <time>2024-08-23T10:08:07.000Z</time>
      </trkpt>
      <trkpt lat="47.014693" lon="10.603383">
        <ele>965.653253</ele>
        <time>2024-08-23T10:08:08.000Z</time>
      </trkpt>
      <trkpt lat="47.014719" lon="10.603432">
        <ele>965.647943</ele>
        <time>2024-08-23T10:08:09.000Z</time>
      </trkpt>
      <trkpt lat="47.014747" lon="10.603481">
        <ele>965.642476</ele>
        <time>2024-08-23T10:08:10.000Z</time>
      </trkpt>
      <trkpt lat="47.014773" lon="10.603530">
        <ele>965.637165</ele>
        <time>2024-08-23T10:08:11.000Z</time>
      </trkpt>
      <trkpt lat="47.014815" lon="10.603605">
        <ele>965.628865</ele>
        <time>2024-08-23T10:08:12.000Z</time>
      </trkpt>
      <trkpt lat="47.014844" lon="10.603655">
        <ele>965.623251</ele>
        <time>2024-08-23T10:08:13.000Z</time>
      </trkpt>
      <trkpt lat="47.014871" lon="10.603708">
        <ele>965.617593</ele>
        <time>2024-08-23T10:08:14.000Z</time>
      </trkpt>
      <trkpt lat="47.014898" lon="10.603762">
        <ele>965.611866</ele>
        <time>2024-08-23T10:08:15.000Z</time>
      </trkpt>
      <trkpt lat="47.014924" lon="10.603816">
        <ele>965.606212</ele>
        <time>2024-08-23T10:08:16.000Z</time>
      </trkpt>
      <trkpt lat="47.014963" lon="10.603890">
        <ele>965.598213</ele>
        <time>2024-08-23T10:08:17.000Z</time>
      </trkpt>
      <trkpt lat="47.014991" lon="10.603943">
        <ele>965.592479</ele>
        <time>2024-08-23T10:08:18.000Z</time>
      </trkpt>
      <trkpt lat="47.015016" lon="10.603997">
        <ele>965.586897</ele>
        <time>2024-08-23T10:08:19.000Z</time>
      </trkpt>
      <trkpt lat="47.015039" lon="10.604048">
        <ele>965.581668</ele>
        <time>2024-08-23T10:08:20.000Z</time>
      </trkpt>
      <trkpt lat="47.015074" lon="10.604133">
        <ele>965.573175</ele>
        <time>2024-08-23T10:08:21.000Z</time>
      </trkpt>
      <trkpt lat="47.015099" lon="10.604187">
        <ele>965.567593</ele>
        <time>2024-08-23T10:08:22.000Z</time>
      </trkpt>
      <trkpt lat="47.015124" lon="10.604239">
        <ele>965.562152</ele>
        <time>2024-08-23T10:08:23.000Z</time>
      </trkpt>
      <trkpt lat="47.015150" lon="10.604293">
        <ele>965.556498</ele>
        <time>2024-08-23T10:08:24.000Z</time>
      </trkpt>
      <trkpt lat="47.015175" lon="10.604348">
        <ele>965.550845</ele>
        <time>2024-08-23T10:08:25.000Z</time>
      </trkpt>
      <trkpt lat="47.015214" lon="10.604431">
        <ele>965.542224</ele>
        <time>2024-08-23T10:08:26.000Z</time>
      </trkpt>
      <trkpt lat="47.015240" lon="10.604487">
        <ele>965.536430</ele>
        <time>2024-08-23T10:08:27.000Z</time>
      </trkpt>
      <trkpt lat="47.015267" lon="10.604542">
        <ele>965.530634</ele>
        <time>2024-08-23T10:08:28.000Z</time>
      </trkpt>
      <trkpt lat="47.015292" lon="10.604597">
        <ele>965.524980</ele>
        <time>2024-08-23T10:08:29.000Z</time>
      </trkpt>
      <trkpt lat="47.015333" lon="10.604682">
        <ele>965.516076</ele>
        <time>2024-08-23T10:08:30.000Z</time>
      </trkpt>
      <trkpt lat="47.015361" lon="10.604738">
        <ele>965.510137</ele>
        <time>2024-08-23T10:08:31.000Z</time>
      </trkpt>
      <trkpt lat="47.015388" lon="10.604794">
        <ele>965.504271</ele>
        <time>2024-08-23T10:08:32.000Z</time>
      </trkpt>
      <trkpt lat="47.015417" lon="10.604848">
        <ele>965.498392</ele>
        <time>2024-08-23T10:08:33.000Z</time>
      </trkpt>
      <trkpt lat="47.015458" lon="10.604926">
        <ele>965.489969</ele>
        <time>2024-08-23T10:08:34.000Z</time>
      </trkpt>
      <trkpt lat="47.015485" lon="10.604977">
        <ele>965.484447</ele>
        <time>2024-08-23T10:08:35.000Z</time>
      </trkpt>
      <trkpt lat="47.015511" lon="10.605026">
        <ele>965.479137</ele>
        <time>2024-08-23T10:08:36.000Z</time>
      </trkpt>
      <trkpt lat="47.015538" lon="10.605075">
        <ele>965.473749</ele>
        <time>2024-08-23T10:08:37.000Z</time>
      </trkpt>
      <trkpt lat="47.015565" lon="10.605126">
        <ele>965.468227</ele>
        <time>2024-08-23T10:08:38.000Z</time>
      </trkpt>
      <trkpt lat="47.015603" lon="10.605206">
        <ele>965.534816</ele>
        <time>2024-08-23T10:08:39.000Z</time>
      </trkpt>
      <trkpt lat="47.015629" lon="10.605259">
        <ele>965.611580</ele>
        <time>2024-08-23T10:08:40.000Z</time>
      </trkpt>
      <trkpt lat="47.015657" lon="10.605312">
        <ele>965.690408</ele>
        <time>2024-08-23T10:08:41.000Z</time>
      </trkpt>
      <trkpt lat="47.015683" lon="10.605364">
        <ele>965.766221</ele>
        <time>2024-08-23T10:08:42.000Z</time>
      </trkpt>
      <trkpt lat="47.015709" lon="10.605414">
        <ele>965.840151</ele>
        <time>2024-08-23T10:08:43.000Z</time>
      </trkpt>
      <trkpt lat="47.015745" lon="10.605488">
        <ele>965.947027</ele>
        <time>2024-08-23T10:08:44.000Z</time>
      </trkpt>
      <trkpt lat="47.015770" lon="10.605538">
        <ele>966.019924</ele>
        <time>2024-08-23T10:08:45.000Z</time>
      </trkpt>
      <trkpt lat="47.015795" lon="10.605585">
        <ele>966.090008</ele>
        <time>2024-08-23T10:08:46.000Z</time>
      </trkpt>
      <trkpt lat="47.015820" lon="10.605629">
        <ele>966.157346</ele>
        <time>2024-08-23T10:08:47.000Z</time>
      </trkpt>
      <trkpt lat="47.015867" lon="10.605681">
        <ele>966.258864</ele>
        <time>2024-08-23T10:08:48.000Z</time>
      </trkpt>
      <trkpt lat="47.015899" lon="10.605715">
        <ele>966.327001</ele>
        <time>2024-08-23T10:08:49.000Z</time>
      </trkpt>
      <trkpt lat="47.015931" lon="10.605752">
        <ele>966.397265</ele>
        <time>2024-08-23T10:08:50.000Z</time>
      </trkpt>
      <trkpt lat="47.015962" lon="10.605796">
        <ele>966.471652</ele>
        <time>2024-08-23T10:08:51.000Z</time>
      </trkpt>
      <trkpt lat="47.016008" lon="10.605871">
        <ele>966.590256</ele>
        <time>2024-08-23T10:08:52.000Z</time>
      </trkpt>
      <trkpt lat="47.016037" lon="10.605925">
        <ele>966.671071</ele>
        <time>2024-08-23T10:08:53.000Z</time>
      </trkpt>
      <trkpt lat="47.016064" lon="10.605980">
        <ele>966.750751</ele>
        <time>2024-08-23T10:08:54.000Z</time>
      </trkpt>
      <trkpt lat="47.016092" lon="10.606036">
        <ele>966.832395</ele>
        <time>2024-08-23T10:08:55.000Z</time>
      </trkpt>
      <trkpt lat="47.016119" lon="10.606092">
        <ele>966.913031</ele>
        <time>2024-08-23T10:08:56.000Z</time>
      </trkpt>
      <trkpt lat="47.016154" lon="10.606173">
        <ele>967.025775</ele>
        <time>2024-08-23T10:08:57.000Z</time>
      </trkpt>
      <trkpt lat="47.016177" lon="10.606224">
        <ele>967.097664</ele>
        <time>2024-08-23T10:08:58.000Z</time>
      </trkpt>
      <trkpt lat="47.016200" lon="10.606273">
        <ele>967.167604</ele>
        <time>2024-08-23T10:08:59.000Z</time>
      </trkpt>
      <trkpt lat="47.016222" lon="10.606324">
        <ele>967.238556</ele>
        <time>2024-08-23T10:09:00.000Z</time>
      </trkpt>
      <trkpt lat="47.016240" lon="10.606377">
        <ele>967.308169</ele>
        <time>2024-08-23T10:09:01.000Z</time>
      </trkpt>
      <trkpt lat="47.016273" lon="10.606452">
        <ele>967.413111</ele>
        <time>2024-08-23T10:09:02.000Z</time>
      </trkpt>
      <trkpt lat="47.016293" lon="10.606503">
        <ele>967.482281</ele>
        <time>2024-08-23T10:09:03.000Z</time>
      </trkpt>
      <trkpt lat="47.016316" lon="10.606553">
        <ele>967.553193</ele>
        <time>2024-08-23T10:09:04.000Z</time>
      </trkpt>
      <trkpt lat="47.016335" lon="10.606603">
        <ele>967.620490</ele>
        <time>2024-08-23T10:09:05.000Z</time>
      </trkpt>
      <trkpt lat="47.016359" lon="10.606678">
        <ele>967.717893</ele>
        <time>2024-08-23T10:09:06.000Z</time>
      </trkpt>
      <trkpt lat="47.016377" lon="10.606725">
        <ele>967.781270</ele>
        <time>2024-08-23T10:09:07.000Z</time>
      </trkpt>
      <trkpt lat="47.016391" lon="10.606773">
        <ele>967.842649</ele>
        <time>2024-08-23T10:09:08.000Z</time>
      </trkpt>
      <trkpt lat="47.016402" lon="10.606820">
        <ele>967.901070</ele>
        <time>2024-08-23T10:09:09.000Z</time>
      </trkpt>
      <trkpt lat="47.016412" lon="10.606870">
        <ele>967.962330</ele>
        <time>2024-08-23T10:09:10.000Z</time>
      </trkpt>
      <trkpt lat="47.016432" lon="10.606947">
        <ele>968.059203</ele>
        <time>2024-08-23T10:09:11.000Z</time>
      </trkpt>
      <trkpt lat="47.016444" lon="10.607000">
        <ele>968.124859</ele>
        <time>2024-08-23T10:09:12.000Z</time>
      </trkpt>
      <trkpt lat="47.016457" lon="10.607053">
        <ele>968.191078</ele>
        <time>2024-08-23T10:09:13.000Z</time>
      </trkpt>
      <trkpt lat="47.016465" lon="10.607106">
        <ele>968.254897</ele>
        <time>2024-08-23T10:09:14.000Z</time>
      </trkpt>
      <trkpt lat="47.016477" lon="10.607183">
        <ele>968.347758</ele>
        <time>2024-08-23T10:09:15.000Z</time>
      </trkpt>
      <trkpt lat="47.016486" lon="10.607230">
        <ele>968.405152</ele>
        <time>2024-08-23T10:09:16.000Z</time>
      </trkpt>
      <trkpt lat="47.016496" lon="10.607275">
        <ele>968.460796</ele>
        <time>2024-08-23T10:09:17.000Z</time>
      </trkpt>
      <trkpt lat="47.016507" lon="10.607320">
        <ele>968.516998</ele>
        <time>2024-08-23T10:09:18.000Z</time>
      </trkpt>
      <trkpt lat="47.016526" lon="10.607363">
        <ele>968.538985</ele>
        <time>2024-08-23T10:09:19.000Z</time>
      </trkpt>
      <trkpt lat="47.016562" lon="10.607425">
        <ele>968.293458</ele>
        <time>2024-08-23T10:09:20.000Z</time>
      </trkpt>
      <trkpt lat="47.016591" lon="10.607461">
        <ele>968.125453</ele>
        <time>2024-08-23T10:09:21.000Z</time>
      </trkpt>
      <trkpt lat="47.016623" lon="10.607490">
        <ele>967.959114</ele>
        <time>2024-08-23T10:09:22.000Z</time>
      </trkpt>
      <trkpt lat="47.016659" lon="10.607514">
        <ele>967.784247</ele>
        <time>2024-08-23T10:09:23.000Z</time>
      </trkpt>
      <trkpt lat="47.016714" lon="10.607532">
        <ele>967.535052</ele>
        <time>2024-08-23T10:09:24.000Z</time>
      </trkpt>
      <trkpt lat="47.016750" lon="10.607534">
        <ele>967.375744</ele>
        <time>2024-08-23T10:09:25.000Z</time>
      </trkpt>
      <trkpt lat="47.016786" lon="10.607524">
        <ele>967.213719</ele>
        <time>2024-08-23T10:09:26.000Z</time>
      </trkpt>
      <trkpt lat="47.016819" lon="10.607511">
        <ele>967.062619</ele>
        <time>2024-08-23T10:09:27.000Z</time>
      </trkpt>
      <trkpt lat="47.016850" lon="10.607491">
        <ele>966.912860</ele>
        <time>2024-08-23T10:09:28.000Z</time>
      </trkpt>
      <trkpt lat="47.016894" lon="10.607452">
        <ele>966.685521</ele>
        <time>2024-08-23T10:09:29.000Z</time>
      </trkpt>
      <trkpt lat="47.016920" lon="10.607423">
        <ele>966.541079</ele>
        <time>2024-08-23T10:09:30.000Z</time>
      </trkpt>
      <trkpt lat="47.016948" lon="10.607392">
        <ele>966.385947</ele>
        <time>2024-08-23T10:09:31.000Z</time>
      </trkpt>
      <trkpt lat="47.016979" lon="10.607359">
        <ele>966.216564</ele>
        <time>2024-08-23T10:09:32.000Z</time>
      </trkpt>
      <trkpt lat="47.017028" lon="10.607305">
        <ele>965.945537</ele>
        <time>2024-08-23T10:09:33.000Z</time>
      </trkpt>
      <trkpt lat="47.017064" lon="10.607264">
        <ele>965.743987</ele>
        <time>2024-08-23T10:09:34.000Z</time>
      </trkpt>
      <trkpt lat="47.017099" lon="10.607222">
        <ele>965.544016</ele>
        <time>2024-08-23T10:09:35.000Z</time>
      </trkpt>
      <trkpt lat="47.017130" lon="10.607173">
        <ele>965.342482</ele>
        <time>2024-08-23T10:09:36.000Z</time>
      </trkpt>
      <trkpt lat="47.017161" lon="10.607117">
        <ele>965.125004</ele>
        <time>2024-08-23T10:09:37.000Z</time>
      </trkpt>
      <trkpt lat="47.017192" lon="10.607026">
        <ele>964.818309</ele>
        <time>2024-08-23T10:09:38.000Z</time>
      </trkpt>
      <trkpt lat="47.017206" lon="10.606959">
        <ele>964.607038</ele>
        <time>2024-08-23T10:09:39.000Z</time>
      </trkpt>
      <trkpt lat="47.017212" lon="10.606888">
        <ele>964.391344</ele>
        <time>2024-08-23T10:09:40.000Z</time>
      </trkpt>
      <trkpt lat="47.017211" lon="10.606813">
        <ele>964.165185</ele>
        <time>2024-08-23T10:09:41.000Z</time>
      </trkpt>
      <trkpt lat="47.017201" lon="10.606697">
        <ele>963.812675</ele>
        <time>2024-08-23T10:09:42.000Z</time>
      </trkpt>
      <trkpt lat="47.017193" lon="10.606621">
        <ele>963.580830</ele>
        <time>2024-08-23T10:09:43.000Z</time>
      </trkpt>
      <trkpt lat="47.017187" lon="10.606553">
        <ele>963.374108</ele>
        <time>2024-08-23T10:09:44.000Z</time>
      </trkpt>
      <trkpt lat="47.017190" lon="10.606492">
        <ele>963.189723</ele>
        <time>2024-08-23T10:09:45.000Z</time>
      </trkpt>
      <trkpt lat="47.017211" lon="10.606401">
        <ele>962.900079</ele>
        <time>2024-08-23T10:09:46.000Z</time>
      </trkpt>
      <trkpt lat="47.017233" lon="10.606342">
        <ele>962.697336</ele>
        <time>2024-08-23T10:09:47.000Z</time>
      </trkpt>
      <trkpt lat="47.017260" lon="10.606283">
        <ele>962.483103</ele>
        <time>2024-08-23T10:09:48.000Z</time>
      </trkpt>
      <trkpt lat="47.017286" lon="10.606229">
        <ele>962.283795</ele>
        <time>2024-08-23T10:09:49.000Z</time>
      </trkpt>
      <trkpt lat="47.017306" lon="10.606184">
        <ele>962.121844</ele>
        <time>2024-08-23T10:09:50.000Z</time>
      </trkpt>
      <trkpt lat="47.017327" lon="10.606133">
        <ele>961.942219</ele>
        <time>2024-08-23T10:09:51.000Z</time>
      </trkpt>
      <trkpt lat="47.017335" lon="10.606109">
        <ele>961.861677</ele>
        <time>2024-08-23T10:09:52.000Z</time>
      </trkpt>
      <trkpt lat="47.017343" lon="10.606091">
        <ele>961.796897</ele>
        <time>2024-08-23T10:09:53.000Z</time>
      </trkpt>
      <trkpt lat="47.017350" lon="10.606069">
        <ele>961.723702</ele>
        <time>2024-08-23T10:09:54.000Z</time>
      </trkpt>
      <trkpt lat="47.017350" lon="10.606041">
        <ele>961.639286</ele>
        <time>2024-08-23T10:09:55.000Z</time>
      </trkpt>
      <trkpt lat="47.017339" lon="10.606007">
        <ele>961.525825</ele>
        <time>2024-08-23T10:09:56.000Z</time>
      </trkpt>
      <trkpt lat="47.017336" lon="10.605982">
        <ele>961.449294</ele>
        <time>2024-08-23T10:09:57.000Z</time>
      </trkpt>
      <trkpt lat="47.017331" lon="10.605957">
        <ele>961.370747</ele>
        <time>2024-08-23T10:09:58.000Z</time>
      </trkpt>
      <trkpt lat="47.017325" lon="10.605929">
        <ele>961.282259</ele>
        <time>2024-08-23T10:09:59.000Z</time>
      </trkpt>
      <trkpt lat="47.017308" lon="10.605896">
        <ele>961.157561</ele>
        <time>2024-08-23T10:10:00.000Z</time>
      </trkpt>
      <trkpt lat="47.017298" lon="10.605883">
        <ele>961.098471</ele>
        <time>2024-08-23T10:10:01.000Z</time>
      </trkpt>
      <trkpt lat="47.017292" lon="10.605875">
        <ele>961.062614</ele>
        <time>2024-08-23T10:10:02.000Z</time>
      </trkpt>
      <trkpt lat="47.017289" lon="10.605871">
        <ele>961.044686</ele>
        <time>2024-08-23T10:10:03.000Z</time>
      </trkpt>
      <trkpt lat="47.017249" lon="10.605829">
        <ele>960.827151</ele>
        <time>2024-08-23T10:11:47.000Z</time>
      </trkpt>
      <trkpt lat="47.017225" lon="10.605822">
        <ele>960.718944</ele>
        <time>2024-08-23T10:11:48.000Z</time>
      </trkpt>
      <trkpt lat="47.017205" lon="10.605816">
        <ele>960.628671</ele>
        <time>2024-08-23T10:11:49.000Z</time>
      </trkpt>
      <trkpt lat="47.017185" lon="10.605802">
        <ele>960.580845</ele>
        <time>2024-08-23T10:11:50.000Z</time>
      </trkpt>
      <trkpt lat="47.017164" lon="10.605789">
        <ele>960.541641</ele>
        <time>2024-08-23T10:11:51.000Z</time>
      </trkpt>
      <trkpt lat="47.017127" lon="10.605768">
        <ele>960.473405</ele>
        <time>2024-08-23T10:11:52.000Z</time>
      </trkpt>
      <trkpt lat="47.017101" lon="10.605753">
        <ele>960.425351</ele>
        <time>2024-08-23T10:11:53.000Z</time>
      </trkpt>
      <trkpt lat="47.017072" lon="10.605732">
        <ele>960.369725</ele>
        <time>2024-08-23T10:11:54.000Z</time>
      </trkpt>
      <trkpt lat="47.017044" lon="10.605708">
        <ele>960.313946</ele>
        <time>2024-08-23T10:11:55.000Z</time>
      </trkpt>
      <trkpt lat="47.017016" lon="10.605681">
        <ele>960.256312</ele>
        <time>2024-08-23T10:11:56.000Z</time>
      </trkpt>
      <trkpt lat="47.016974" lon="10.605643">
        <ele>960.171436</ele>
        <time>2024-08-23T10:11:57.000Z</time>
      </trkpt>
      <trkpt lat="47.016950" lon="10.605620">
        <ele>960.122127</ele>
        <time>2024-08-23T10:11:58.000Z</time>
      </trkpt>
      <trkpt lat="47.016926" lon="10.605597">
        <ele>960.072818</ele>
        <time>2024-08-23T10:11:59.000Z</time>
      </trkpt>
      <trkpt lat="47.016900" lon="10.605573">
        <ele>960.019981</ele>
        <time>2024-08-23T10:12:00.000Z</time>
      </trkpt>
      <trkpt lat="47.016873" lon="10.605551">
        <ele>959.966858</ele>
        <time>2024-08-23T10:12:01.000Z</time>
      </trkpt>
      <trkpt lat="47.016830" lon="10.605517">
        <ele>959.882838</ele>
        <time>2024-08-23T10:12:02.000Z</time>
      </trkpt>
      <trkpt lat="47.016801" lon="10.605491">
        <ele>959.824379</ele>
        <time>2024-08-23T10:12:03.000Z</time>
      </trkpt>
      <trkpt lat="47.016771" lon="10.605463">
        <ele>959.763219</ele>
        <time>2024-08-23T10:12:04.000Z</time>
      </trkpt>
      <trkpt lat="47.016741" lon="10.605440">
        <ele>959.704997</ele>
        <time>2024-08-23T10:12:05.000Z</time>
      </trkpt>
      <trkpt lat="47.016698" lon="10.605401">
        <ele>959.618042</ele>
        <time>2024-08-23T10:12:06.000Z</time>
      </trkpt>
      <trkpt lat="47.016667" lon="10.605371">
        <ele>959.554163</ele>
        <time>2024-08-23T10:12:07.000Z</time>
      </trkpt>
      <trkpt lat="47.016635" lon="10.605341">
        <ele>959.488842</ele>
        <time>2024-08-23T10:12:08.000Z</time>
      </trkpt>
      <trkpt lat="47.016601" lon="10.605313">
        <ele>959.421777</ele>
        <time>2024-08-23T10:12:09.000Z</time>
      </trkpt>
      <trkpt lat="47.016553" lon="10.605269">
        <ele>959.324422</ele>
        <time>2024-08-23T10:12:10.000Z</time>
      </trkpt>
      <trkpt lat="47.016522" lon="10.605243">
        <ele>959.263002</ele>
        <time>2024-08-23T10:12:11.000Z</time>
      </trkpt>
      <trkpt lat="47.016491" lon="10.605213">
        <ele>959.199124</ele>
        <time>2024-08-23T10:12:12.000Z</time>
      </trkpt>
      <trkpt lat="47.016458" lon="10.605181">
        <ele>959.131082</ele>
        <time>2024-08-23T10:12:13.000Z</time>
      </trkpt>
      <trkpt lat="47.016421" lon="10.605149">
        <ele>959.057205</ele>
        <time>2024-08-23T10:12:14.000Z</time>
      </trkpt>
      <trkpt lat="47.016369" lon="10.605100">
        <ele>958.950900</ele>
        <time>2024-08-23T10:12:15.000Z</time>
      </trkpt>
      <trkpt lat="47.016333" lon="10.605068">
        <ele>958.878499</ele>
        <time>2024-08-23T10:12:16.000Z</time>
      </trkpt>
      <trkpt lat="47.016296" lon="10.605034">
        <ele>958.803402</ele>
        <time>2024-08-23T10:12:17.000Z</time>
      </trkpt>
      <trkpt lat="47.016259" lon="10.605003">
        <ele>958.730113</ele>
        <time>2024-08-23T10:12:18.000Z</time>
      </trkpt>
      <trkpt lat="47.016222" lon="10.604970">
        <ele>958.655633</ele>
        <time>2024-08-23T10:12:19.000Z</time>
      </trkpt>
      <trkpt lat="47.016165" lon="10.604918">
        <ele>958.540179</ele>
        <time>2024-08-23T10:12:20.000Z</time>
      </trkpt>
      <trkpt lat="47.016127" lon="10.604885">
        <ele>958.464224</ele>
        <time>2024-08-23T10:12:21.000Z</time>
      </trkpt>
      <trkpt lat="47.016094" lon="10.604854">
        <ele>958.396822</ele>
        <time>2024-08-23T10:12:22.000Z</time>
      </trkpt>
      <trkpt lat="47.016061" lon="10.604826">
        <ele>958.331251</ele>
        <time>2024-08-23T10:12:23.000Z</time>
      </trkpt>
      <trkpt lat="47.016013" lon="10.604774">
        <ele>958.228615</ele>
        <time>2024-08-23T10:12:24.000Z</time>
      </trkpt>
      <trkpt lat="47.015984" lon="10.604734">
        <ele>958.160146</ele>
        <time>2024-08-23T10:12:25.000Z</time>
      </trkpt>
      <trkpt lat="47.015959" lon="10.604687">
        <ele>958.090242</ele>
        <time>2024-08-23T10:12:26.000Z</time>
      </trkpt>
      <trkpt lat="47.015936" lon="10.604642">
        <ele>958.024291</ele>
        <time>2024-08-23T10:12:27.000Z</time>
      </trkpt>
      <trkpt lat="47.015914" lon="10.604597">
        <ele>957.959357</ele>
        <time>2024-08-23T10:12:28.000Z</time>
      </trkpt>
      <trkpt lat="47.015881" lon="10.604529">
        <ele>957.861479</ele>
        <time>2024-08-23T10:12:29.000Z</time>
      </trkpt>
      <trkpt lat="47.015856" lon="10.604487">
        <ele>957.796099</ele>
        <time>2024-08-23T10:12:30.000Z</time>
      </trkpt>
      <trkpt lat="47.015829" lon="10.604448">
        <ele>957.730921</ele>
        <time>2024-08-23T10:12:31.000Z</time>
      </trkpt>
      <trkpt lat="47.015801" lon="10.604412">
        <ele>957.666879</ele>
        <time>2024-08-23T10:12:32.000Z</time>
      </trkpt>
      <trkpt lat="47.015773" lon="10.604378">
        <ele>957.604358</ele>
        <time>2024-08-23T10:12:33.000Z</time>
      </trkpt>
      <trkpt lat="47.015731" lon="10.604333">
        <ele>957.519448</ele>
        <time>2024-08-23T10:12:34.000Z</time>
      </trkpt>
      <trkpt lat="47.015702" lon="10.604302">
        <ele>957.523015</ele>
        <time>2024-08-23T10:12:35.000Z</time>
      </trkpt>
      <trkpt lat="47.015671" lon="10.604272">
        <ele>957.526706</ele>
        <time>2024-08-23T10:12:36.000Z</time>
      </trkpt>
      <trkpt lat="47.015640" lon="10.604242">
        <ele>957.530397</ele>
        <time>2024-08-23T10:12:37.000Z</time>
      </trkpt>
      <trkpt lat="47.015596" lon="10.604192">
        <ele>957.535929</ele>
        <time>2024-08-23T10:12:38.000Z</time>
      </trkpt>
      <trkpt lat="47.015565" lon="10.604160">
        <ele>957.539697</ele>
        <time>2024-08-23T10:12:39.000Z</time>
      </trkpt>
      <trkpt lat="47.015531" lon="10.604123">
        <ele>957.543904</ele>
        <time>2024-08-23T10:12:40.000Z</time>
      </trkpt>
      <trkpt lat="47.015496" lon="10.604086">
        <ele>957.548192</ele>
        <time>2024-08-23T10:12:41.000Z</time>
      </trkpt>
      <trkpt lat="47.015441" lon="10.604023">
        <ele>957.555128</ele>
        <time>2024-08-23T10:12:42.000Z</time>
      </trkpt>
      <trkpt lat="47.015406" lon="10.603978">
        <ele>957.559754</ele>
        <time>2024-08-23T10:12:43.000Z</time>
      </trkpt>
      <trkpt lat="47.015371" lon="10.603933">
        <ele>957.564380</ele>
        <time>2024-08-23T10:12:44.000Z</time>
      </trkpt>
      <trkpt lat="47.015337" lon="10.603886">
        <ele>957.569023</ele>
        <time>2024-08-23T10:12:45.000Z</time>
      </trkpt>
      <trkpt lat="47.015307" lon="10.603842">
        <ele>957.573240</ele>
        <time>2024-08-23T10:12:46.000Z</time>
      </trkpt>
      <trkpt lat="47.015262" lon="10.603771">
        <ele>957.579808</ele>
        <time>2024-08-23T10:12:47.000Z</time>
      </trkpt>
      <trkpt lat="47.015234" lon="10.603724">
        <ele>957.584038</ele>
        <time>2024-08-23T10:12:48.000Z</time>
      </trkpt>
      <trkpt lat="47.015207" lon="10.603672">
        <ele>957.588467</ele>
        <time>2024-08-23T10:12:49.000Z</time>
      </trkpt>
      <trkpt lat="47.015179" lon="10.603614">
        <ele>957.593282</ele>
        <time>2024-08-23T10:12:50.000Z</time>
      </trkpt>
      <trkpt lat="47.015138" lon="10.603534">
        <ele>957.600064</ele>
        <time>2024-08-23T10:12:51.000Z</time>
      </trkpt>
      <trkpt lat="47.015110" lon="10.603484">
        <ele>957.604449</ele>
        <time>2024-08-23T10:12:52.000Z</time>
      </trkpt>
      <trkpt lat="47.015081" lon="10.603435">
        <ele>957.608845</ele>
        <time>2024-08-23T10:12:53.000Z</time>
      </trkpt>
      <trkpt lat="47.015054" lon="10.603385">
        <ele>957.613167</ele>
        <time>2024-08-23T10:12:54.000Z</time>
      </trkpt>
      <trkpt lat="47.015028" lon="10.603336">
        <ele>957.617375</ele>
        <time>2024-08-23T10:12:55.000Z</time>
      </trkpt>
      <trkpt lat="47.014991" lon="10.603266">
        <ele>957.623377</ele>
        <time>2024-08-23T10:12:56.000Z</time>
      </trkpt>
      <trkpt lat="47.014967" lon="10.603222">
        <ele>957.627195</ele>
        <time>2024-08-23T10:12:57.000Z</time>
      </trkpt>
      <trkpt lat="47.014942" lon="10.603178">
        <ele>957.631076</ele>
        <time>2024-08-23T10:12:58.000Z</time>
      </trkpt>
      <trkpt lat="47.014919" lon="10.603135">
        <ele>957.634779</ele>
        <time>2024-08-23T10:12:59.000Z</time>
      </trkpt>
      <trkpt lat="47.014883" lon="10.603073">
        <ele>957.640298</ele>
        <time>2024-08-23T10:13:00.000Z</time>
      </trkpt>
      <trkpt lat="47.014859" lon="10.603030">
        <ele>957.644063</ele>
        <time>2024-08-23T10:13:01.000Z</time>
      </trkpt>
      <trkpt lat="47.014836" lon="10.602985">
        <ele>957.647874</ele>
        <time>2024-08-23T10:13:02.000Z</time>
      </trkpt>
      <trkpt lat="47.014810" lon="10.602941">
        <ele>957.651820</ele>
        <time>2024-08-23T10:13:03.000Z</time>
      </trkpt>
      <trkpt lat="47.014784" lon="10.602896">
        <ele>957.655817</ele>
        <time>2024-08-23T10:13:04.000Z</time>
      </trkpt>
      <trkpt lat="47.014748" lon="10.602829">
        <ele>957.661597</ele>
        <time>2024-08-23T10:13:05.000Z</time>
      </trkpt>
      <trkpt lat="47.014723" lon="10.602784">
        <ele>957.665531</ele>
        <time>2024-08-23T10:13:06.000Z</time>
      </trkpt>
      <trkpt lat="47.014698" lon="10.602741">
        <ele>957.669360</ele>
        <time>2024-08-23T10:13:07.000Z</time>
      </trkpt>
      <trkpt lat="47.014674" lon="10.602697">
        <ele>957.673178</ele>
        <time>2024-08-23T10:13:08.000Z</time>
      </trkpt>
      <trkpt lat="47.014637" lon="10.602629">
        <ele>957.679074</ele>
        <time>2024-08-23T10:13:09.000Z</time>
      </trkpt>
      <trkpt lat="47.014614" lon="10.602584">
        <ele>957.682885</ele>
        <time>2024-08-23T10:13:10.000Z</time>
      </trkpt>
      <trkpt lat="47.014591" lon="10.602540">
        <ele>957.686642</ele>
        <time>2024-08-23T10:13:11.000Z</time>
      </trkpt>
      <trkpt lat="47.014567" lon="10.602497">
        <ele>957.690407</ele>
        <time>2024-08-23T10:13:12.000Z</time>
      </trkpt>
      <trkpt lat="47.014532" lon="10.602434">
        <ele>957.695914</ele>
        <time>2024-08-23T10:13:13.000Z</time>
      </trkpt>
      <trkpt lat="47.014508" lon="10.602391">
        <ele>957.729238</ele>
        <time>2024-08-23T10:13:14.000Z</time>
      </trkpt>
      <trkpt lat="47.014482" lon="10.602347">
        <ele>957.801018</ele>
        <time>2024-08-23T10:13:15.000Z</time>
      </trkpt>
      <trkpt lat="47.014456" lon="10.602304">
        <ele>957.871871</ele>
        <time>2024-08-23T10:13:16.000Z</time>
      </trkpt>
      <trkpt lat="47.014431" lon="10.602260">
        <ele>957.942481</ele>
        <time>2024-08-23T10:13:17.000Z</time>
      </trkpt>
      <trkpt lat="47.014393" lon="10.602192">
        <ele>958.050871</ele>
        <time>2024-08-23T10:13:18.000Z</time>
      </trkpt>
      <trkpt lat="47.014369" lon="10.602148">
        <ele>958.120337</ele>
        <time>2024-08-23T10:13:19.000Z</time>
      </trkpt>
      <trkpt lat="47.014343" lon="10.602106">
        <ele>958.190273</ele>
        <time>2024-08-23T10:13:20.000Z</time>
      </trkpt>
      <trkpt lat="47.014318" lon="10.602062">
        <ele>958.260883</ele>
        <time>2024-08-23T10:13:21.000Z</time>
      </trkpt>
      <trkpt lat="47.014280" lon="10.601999">
        <ele>958.364580</ele>
        <time>2024-08-23T10:13:22.000Z</time>
      </trkpt>
      <trkpt lat="47.014257" lon="10.601958">
        <ele>958.430034</ele>
        <time>2024-08-23T10:13:23.000Z</time>
      </trkpt>
      <trkpt lat="47.014234" lon="10.601918">
        <ele>958.494541</ele>
        <time>2024-08-23T10:13:24.000Z</time>
      </trkpt>
      <trkpt lat="47.014210" lon="10.601876">
        <ele>958.562099</ele>
        <time>2024-08-23T10:13:25.000Z</time>
      </trkpt>
      <trkpt lat="47.014185" lon="10.601831">
        <ele>958.633660</ele>
        <time>2024-08-23T10:13:26.000Z</time>
      </trkpt>
      <trkpt lat="47.014150" lon="10.601766">
        <ele>958.735769</ele>
        <time>2024-08-23T10:13:27.000Z</time>
      </trkpt>
      <trkpt lat="47.014125" lon="10.601724">
        <ele>958.804503</ele>
        <time>2024-08-23T10:13:28.000Z</time>
      </trkpt>
      <trkpt lat="47.014101" lon="10.601686">
        <ele>958.868360</ele>
        <time>2024-08-23T10:13:29.000Z</time>
      </trkpt>
      <trkpt lat="47.014077" lon="10.601648">
        <ele>958.932218</ele>
        <time>2024-08-23T10:13:30.000Z</time>
      </trkpt>
      <trkpt lat="47.014055" lon="10.601613">
        <ele>958.990905</ele>
        <time>2024-08-23T10:13:31.000Z</time>
      </trkpt>
      <trkpt lat="47.014021" lon="10.601563">
        <ele>959.077962</ele>
        <time>2024-08-23T10:13:32.000Z</time>
      </trkpt>
      <trkpt lat="47.013998" lon="10.601524">
        <ele>959.141532</ele>
        <time>2024-08-23T10:13:33.000Z</time>
      </trkpt>
      <trkpt lat="47.013974" lon="10.601486">
        <ele>959.205389</ele>
        <time>2024-08-23T10:13:34.000Z</time>
      </trkpt>
      <trkpt lat="47.013951" lon="10.601450">
        <ele>959.266210</ele>
        <time>2024-08-23T10:13:35.000Z</time>
      </trkpt>
      <trkpt lat="47.013915" lon="10.601396">
        <ele>959.359317</ele>
        <time>2024-08-23T10:13:36.000Z</time>
      </trkpt>
      <trkpt lat="47.013892" lon="10.601361">
        <ele>959.419244</ele>
        <time>2024-08-23T10:13:37.000Z</time>
      </trkpt>
      <trkpt lat="47.013868" lon="10.601326">
        <ele>959.480440</ele>
        <time>2024-08-23T10:13:38.000Z</time>
      </trkpt>
      <trkpt lat="47.013844" lon="10.601292">
        <ele>959.540773</ele>
        <time>2024-08-23T10:13:39.000Z</time>
      </trkpt>
      <trkpt lat="47.013820" lon="10.601254">
        <ele>959.604631</ele>
        <time>2024-08-23T10:13:40.000Z</time>
      </trkpt>
      <trkpt lat="47.013787" lon="10.601198">
        <ele>959.695881</ele>
        <time>2024-08-23T10:13:41.000Z</time>
      </trkpt>
      <trkpt lat="47.013762" lon="10.601161">
        <ele>959.760099</ele>
        <time>2024-08-23T10:13:42.000Z</time>
      </trkpt>
      <trkpt lat="47.013739" lon="10.601126">
        <ele>959.820026</ele>
        <time>2024-08-23T10:13:43.000Z</time>
      </trkpt>
      <trkpt lat="47.013717" lon="10.601094">
        <ele>959.876050</ele>
        <time>2024-08-23T10:13:44.000Z</time>
      </trkpt>
      <trkpt lat="47.013683" lon="10.601048">
        <ele>959.959689</ele>
        <time>2024-08-23T10:13:45.000Z</time>
      </trkpt>
      <trkpt lat="47.013662" lon="10.601014">
        <ele>960.016246</ele>
        <time>2024-08-23T10:13:46.000Z</time>
      </trkpt>
      <trkpt lat="47.013634" lon="10.600982">
        <ele>960.080429</ele>
        <time>2024-08-23T10:13:47.000Z</time>
      </trkpt>
      <trkpt lat="47.013608" lon="10.600946">
        <ele>960.145080</ele>
        <time>2024-08-23T10:13:48.000Z</time>
      </trkpt>
      <trkpt lat="47.013569" lon="10.600886">
        <ele>960.247277</ele>
        <time>2024-08-23T10:13:49.000Z</time>
      </trkpt>
      <trkpt lat="47.013547" lon="10.600844">
        <ele>960.312572</ele>
        <time>2024-08-23T10:13:50.000Z</time>
      </trkpt>
      <trkpt lat="47.013527" lon="10.600803">
        <ele>960.374722</ele>
        <time>2024-08-23T10:13:51.000Z</time>
      </trkpt>
      <trkpt lat="47.013508" lon="10.600760">
        <ele>960.437892</ele>
        <time>2024-08-23T10:13:52.000Z</time>
      </trkpt>
      <trkpt lat="47.013491" lon="10.600713">
        <ele>960.503483</ele>
        <time>2024-08-23T10:13:53.000Z</time>
      </trkpt>
      <trkpt lat="47.013471" lon="10.600641">
        <ele>960.599330</ele>
        <time>2024-08-23T10:13:54.000Z</time>
      </trkpt>
      <trkpt lat="47.013463" lon="10.600590">
        <ele>960.663847</ele>
        <time>2024-08-23T10:13:55.000Z</time>
      </trkpt>
      <trkpt lat="47.013461" lon="10.600536">
        <ele>960.730518</ele>
        <time>2024-08-23T10:13:56.000Z</time>
      </trkpt>
      <trkpt lat="47.013466" lon="10.600481">
        <ele>960.798924</ele>
        <time>2024-08-23T10:13:57.000Z</time>
      </trkpt>
      <trkpt lat="47.013474" lon="10.600423">
        <ele>960.871876</ele>
        <time>2024-08-23T10:13:58.000Z</time>
      </trkpt>
      <trkpt lat="47.013485" lon="10.600337">
        <ele>961.003041</ele>
        <time>2024-08-23T10:13:59.000Z</time>
      </trkpt>
      <trkpt lat="47.013496" lon="10.600277">
        <ele>961.139886</ele>
        <time>2024-08-23T10:14:00.000Z</time>
      </trkpt>
      <trkpt lat="47.013509" lon="10.600219">
        <ele>961.274358</ele>
        <time>2024-08-23T10:14:01.000Z</time>
      </trkpt>
      <trkpt lat="47.013521" lon="10.600160">
        <ele>961.409966</ele>
        <time>2024-08-23T10:14:02.000Z</time>
      </trkpt>
      <trkpt lat="47.013545" lon="10.600074">
        <ele>961.614635</ele>
        <time>2024-08-23T10:14:03.000Z</time>
      </trkpt>
      <trkpt lat="47.013561" lon="10.600013">
        <ele>961.758587</ele>
        <time>2024-08-23T10:14:04.000Z</time>
      </trkpt>
      <trkpt lat="47.013572" lon="10.599951">
        <ele>961.899691</ele>
        <time>2024-08-23T10:14:05.000Z</time>
      </trkpt>
      <trkpt lat="47.013581" lon="10.599890">
        <ele>962.037155</ele>
        <time>2024-08-23T10:14:06.000Z</time>
      </trkpt>
      <trkpt lat="47.013581" lon="10.599834">
        <ele>962.160496</ele>
        <time>2024-08-23T10:14:07.000Z</time>
      </trkpt>
      <trkpt lat="47.013568" lon="10.599745">
        <ele>962.360968</ele>
        <time>2024-08-23T10:14:08.000Z</time>
      </trkpt>
      <trkpt lat="47.013554" lon="10.599687">
        <ele>962.496483</ele>
        <time>2024-08-23T10:14:09.000Z</time>
      </trkpt>
      <trkpt lat="47.013533" lon="10.599633">
        <ele>962.633406</ele>
        <time>2024-08-23T10:14:10.000Z</time>
      </trkpt>
      <trkpt lat="47.013507" lon="10.599581">
        <ele>962.775432</ele>
        <time>2024-08-23T10:14:11.000Z</time>
      </trkpt>
      <trkpt lat="47.013461" lon="10.599512">
        <ele>962.987980</ele>
        <time>2024-08-23T10:14:12.000Z</time>
      </trkpt>
      <trkpt lat="47.013429" lon="10.599469">
        <ele>963.128177</ele>
        <time>2024-08-23T10:14:13.000Z</time>
      </trkpt>
      <trkpt lat="47.013398" lon="10.599426">
        <ele>963.266010</ele>
        <time>2024-08-23T10:14:14.000Z</time>
      </trkpt>
      <trkpt lat="47.013365" lon="10.599387">
        <ele>963.402913</ele>
        <time>2024-08-23T10:14:15.000Z</time>
      </trkpt>
      <trkpt lat="47.013332" lon="10.599344">
        <ele>963.545509</ele>
        <time>2024-08-23T10:14:16.000Z</time>
      </trkpt>
      <trkpt lat="47.013286" lon="10.599279">
        <ele>963.751850</ele>
        <time>2024-08-23T10:14:17.000Z</time>
      </trkpt>
      <trkpt lat="47.013255" lon="10.599238">
        <ele>963.886694</ele>
        <time>2024-08-23T10:14:18.000Z</time>
      </trkpt>
      <trkpt lat="47.013224" lon="10.599199">
        <ele>964.018628</ele>
        <time>2024-08-23T10:14:19.000Z</time>
      </trkpt>
      <trkpt lat="47.013193" lon="10.599160">
        <ele>964.150563</ele>
        <time>2024-08-23T10:14:20.000Z</time>
      </trkpt>
      <trkpt lat="47.013144" lon="10.599110">
        <ele>964.343391</ele>
        <time>2024-08-23T10:14:21.000Z</time>
      </trkpt>
      <trkpt lat="47.013112" lon="10.599079">
        <ele>964.467276</ele>
        <time>2024-08-23T10:14:22.000Z</time>
      </trkpt>
      <trkpt lat="47.013078" lon="10.599042">
        <ele>964.604039</ele>
        <time>2024-08-23T10:14:23.000Z</time>
      </trkpt>
      <trkpt lat="47.013045" lon="10.599009">
        <ele>964.733061</ele>
        <time>2024-08-23T10:14:24.000Z</time>
      </trkpt>
      <trkpt lat="47.012996" lon="10.598962">
        <ele>964.922193</ele>
        <time>2024-08-23T10:14:25.000Z</time>
      </trkpt>
      <trkpt lat="47.012963" lon="10.598938">
        <ele>965.041181</ele>
        <time>2024-08-23T10:14:26.000Z</time>
      </trkpt>
      <trkpt lat="47.012936" lon="10.598912">
        <ele>965.145519</ele>
        <time>2024-08-23T10:14:27.000Z</time>
      </trkpt>
      <trkpt lat="47.012908" lon="10.598889">
        <ele>965.249189</ele>
        <time>2024-08-23T10:14:28.000Z</time>
      </trkpt>
      <trkpt lat="47.012881" lon="10.598864">
        <ele>965.352335</ele>
        <time>2024-08-23T10:14:29.000Z</time>
      </trkpt>
      <trkpt lat="47.012833" lon="10.598827">
        <ele>965.527503</ele>
        <time>2024-08-23T10:14:30.000Z</time>
      </trkpt>
      <trkpt lat="47.012800" lon="10.598803">
        <ele>965.646491</ele>
        <time>2024-08-23T10:14:31.000Z</time>
      </trkpt>
      <trkpt lat="47.012768" lon="10.598774">
        <ele>965.768004</ele>
        <time>2024-08-23T10:14:32.000Z</time>
      </trkpt>
      <trkpt lat="47.012736" lon="10.598746">
        <ele>965.888374</ele>
        <time>2024-08-23T10:14:33.000Z</time>
      </trkpt>
      <trkpt lat="47.012690" lon="10.598702">
        <ele>966.065779</ele>
        <time>2024-08-23T10:14:34.000Z</time>
      </trkpt>
      <trkpt lat="47.012657" lon="10.598676">
        <ele>966.186788</ele>
        <time>2024-08-23T10:14:35.000Z</time>
      </trkpt>
      <trkpt lat="47.012624" lon="10.598650">
        <ele>966.307797</ele>
        <time>2024-08-23T10:14:36.000Z</time>
      </trkpt>
      <trkpt lat="47.012594" lon="10.598628">
        <ele>966.416147</ele>
        <time>2024-08-23T10:14:37.000Z</time>
      </trkpt>
      <trkpt lat="47.012562" lon="10.598603">
        <ele>966.533269</ele>
        <time>2024-08-23T10:14:38.000Z</time>
      </trkpt>
      <trkpt lat="47.012513" lon="10.598565">
        <ele>966.712321</ele>
        <time>2024-08-23T10:14:39.000Z</time>
      </trkpt>
      <trkpt lat="47.012480" lon="10.598543">
        <ele>966.840709</ele>
        <time>2024-08-23T10:14:40.000Z</time>
      </trkpt>
      <trkpt lat="47.012446" lon="10.598523">
        <ele>966.978392</ele>
        <time>2024-08-23T10:14:41.000Z</time>
      </trkpt>
      <trkpt lat="47.012416" lon="10.598502">
        <ele>967.103329</ele>
        <time>2024-08-23T10:14:42.000Z</time>
      </trkpt>
      <trkpt lat="47.012367" lon="10.598468">
        <ele>967.307064</ele>
        <time>2024-08-23T10:14:43.000Z</time>
      </trkpt>
      <trkpt lat="47.012331" lon="10.598444">
        <ele>967.455691</ele>
        <time>2024-08-23T10:14:44.000Z</time>
      </trkpt>
      <trkpt lat="47.012296" lon="10.598421">
        <ele>967.599838</ele>
        <time>2024-08-23T10:14:45.000Z</time>
      </trkpt>
      <trkpt lat="47.012262" lon="10.598395">
        <ele>967.743952</ele>
        <time>2024-08-23T10:14:46.000Z</time>
      </trkpt>
      <trkpt lat="47.012225" lon="10.598370">
        <ele>967.897063</ele>
        <time>2024-08-23T10:14:47.000Z</time>
      </trkpt>
      <trkpt lat="47.012174" lon="10.598333">
        <ele>968.110913</ele>
        <time>2024-08-23T10:14:48.000Z</time>
      </trkpt>
      <trkpt lat="47.012139" lon="10.598313">
        <ele>968.252091</ele>
        <time>2024-08-23T10:14:49.000Z</time>
      </trkpt>
      <trkpt lat="47.012102" lon="10.598296">
        <ele>968.397817</ele>
        <time>2024-08-23T10:14:50.000Z</time>
      </trkpt>
      <trkpt lat="47.012066" lon="10.598276">
        <ele>968.542503</ele>
        <time>2024-08-23T10:14:51.000Z</time>
      </trkpt>
      <trkpt lat="47.012011" lon="10.598246">
        <ele>968.763051</ele>
        <time>2024-08-23T10:14:52.000Z</time>
      </trkpt>
      <trkpt lat="47.011973" lon="10.598227">
        <ele>968.913944</ele>
        <time>2024-08-23T10:14:53.000Z</time>
      </trkpt>
      <trkpt lat="47.011933" lon="10.598212">
        <ele>969.069118</ele>
        <time>2024-08-23T10:14:54.000Z</time>
      </trkpt>
      <trkpt lat="47.011893" lon="10.598197">
        <ele>969.224292</ele>
        <time>2024-08-23T10:14:55.000Z</time>
      </trkpt>
      <trkpt lat="47.011851" lon="10.598181">
        <ele>969.387385</ele>
        <time>2024-08-23T10:14:56.000Z</time>
      </trkpt>
      <trkpt lat="47.011793" lon="10.598157">
        <ele>969.613885</ele>
        <time>2024-08-23T10:14:57.000Z</time>
      </trkpt>
      <trkpt lat="47.011754" lon="10.598139">
        <ele>969.767551</ele>
        <time>2024-08-23T10:14:58.000Z</time>
      </trkpt>
      <trkpt lat="47.011713" lon="10.598130">
        <ele>969.923364</ele>
        <time>2024-08-23T10:14:59.000Z</time>
      </trkpt>
      <trkpt lat="47.011675" lon="10.598127">
        <ele>970.066391</ele>
        <time>2024-08-23T10:15:00.000Z</time>
      </trkpt>
      <trkpt lat="47.011642" lon="10.598122">
        <ele>970.191080</ele>
        <time>2024-08-23T10:15:01.000Z</time>
      </trkpt>
      <trkpt lat="47.011595" lon="10.598106">
        <ele>970.372423</ele>
        <time>2024-08-23T10:15:02.000Z</time>
      </trkpt>
      <trkpt lat="47.011562" lon="10.598094">
        <ele>970.500207</ele>
        <time>2024-08-23T10:15:03.000Z</time>
      </trkpt>
      <trkpt lat="47.011526" lon="10.598079">
        <ele>970.640866</ele>
        <time>2024-08-23T10:15:04.000Z</time>
      </trkpt>
      <trkpt lat="47.011487" lon="10.598067">
        <ele>970.790636</ele>
        <time>2024-08-23T10:15:05.000Z</time>
      </trkpt>
      <trkpt lat="47.011432" lon="10.598056">
        <ele>970.999264</ele>
        <time>2024-08-23T10:15:06.000Z</time>
      </trkpt>
      <trkpt lat="47.011398" lon="10.598059">
        <ele>971.127282</ele>
        <time>2024-08-23T10:15:07.000Z</time>
      </trkpt>
      <trkpt lat="47.011366" lon="10.598067">
        <ele>971.249287</ele>
        <time>2024-08-23T10:15:08.000Z</time>
      </trkpt>
      <trkpt lat="47.011333" lon="10.598075">
        <ele>971.374998</ele>
        <time>2024-08-23T10:15:09.000Z</time>
      </trkpt>
      <trkpt lat="47.011298" lon="10.598075">
        <ele>971.506544</ele>
        <time>2024-08-23T10:15:10.000Z</time>
      </trkpt>
      <trkpt lat="47.011245" lon="10.598080">
        <ele>971.706153</ele>
        <time>2024-08-23T10:15:11.000Z</time>
      </trkpt>
      <trkpt lat="47.011210" lon="10.598084">
        <ele>971.838097</ele>
        <time>2024-08-23T10:15:12.000Z</time>
      </trkpt>
      <trkpt lat="47.011175" lon="10.598085">
        <ele>971.969668</ele>
        <time>2024-08-23T10:15:13.000Z</time>
      </trkpt>
      <trkpt lat="47.011139" lon="10.598085">
        <ele>972.104971</ele>
        <time>2024-08-23T10:15:14.000Z</time>
      </trkpt>
      <trkpt lat="47.011087" lon="10.598082">
        <ele>972.300562</ele>
        <time>2024-08-23T10:15:15.000Z</time>
      </trkpt>
      <trkpt lat="47.011054" lon="10.598079">
        <ele>972.424828</ele>
        <time>2024-08-23T10:15:16.000Z</time>
      </trkpt>
      <trkpt lat="47.011021" lon="10.598077">
        <ele>972.548963</ele>
        <time>2024-08-23T10:15:17.000Z</time>
      </trkpt>
      <trkpt lat="47.010986" lon="10.598080">
        <ele>972.680732</ele>
        <time>2024-08-23T10:15:18.000Z</time>
      </trkpt>
      <trkpt lat="47.010950" lon="10.598086">
        <ele>972.816907</ele>
        <time>2024-08-23T10:15:19.000Z</time>
      </trkpt>
      <trkpt lat="47.010897" lon="10.598085">
        <ele>973.016121</ele>
        <time>2024-08-23T10:15:20.000Z</time>
      </trkpt>
      <trkpt lat="47.010861" lon="10.598084">
        <ele>973.151449</ele>
        <time>2024-08-23T10:15:21.000Z</time>
      </trkpt>
      <trkpt lat="47.010823" lon="10.598082">
        <ele>973.294362</ele>
        <time>2024-08-23T10:15:22.000Z</time>
      </trkpt>
      <trkpt lat="47.010787" lon="10.598076">
        <ele>973.430537</ele>
        <time>2024-08-23T10:15:23.000Z</time>
      </trkpt>
      <trkpt lat="47.010751" lon="10.598069">
        <ele>973.506076</ele>
        <time>2024-08-23T10:15:24.000Z</time>
      </trkpt>
      <trkpt lat="47.010694" lon="10.598056">
        <ele>973.439168</ele>
        <time>2024-08-23T10:15:25.000Z</time>
      </trkpt>
      <trkpt lat="47.010661" lon="10.598042">
        <ele>973.399323</ele>
        <time>2024-08-23T10:15:26.000Z</time>
      </trkpt>
      <trkpt lat="47.010629" lon="10.598022">
        <ele>973.358977</ele>
        <time>2024-08-23T10:15:27.000Z</time>
      </trkpt>
      <trkpt lat="47.010595" lon="10.598000">
        <ele>973.315873</ele>
        <time>2024-08-23T10:15:28.000Z</time>
      </trkpt>
      <trkpt lat="47.010546" lon="10.597962">
        <ele>973.251582</ele>
        <time>2024-08-23T10:15:29.000Z</time>
      </trkpt>
      <trkpt lat="47.010512" lon="10.597938">
        <ele>973.207816</ele>
        <time>2024-08-23T10:15:30.000Z</time>
      </trkpt>
      <trkpt lat="47.010479" lon="10.597914">
        <ele>973.165092</ele>
        <time>2024-08-23T10:15:31.000Z</time>
      </trkpt>
      <trkpt lat="47.010450" lon="10.597889">
        <ele>973.126075</ele>
        <time>2024-08-23T10:15:32.000Z</time>
      </trkpt>
      <trkpt lat="47.010411" lon="10.597852">
        <ele>973.072200</ele>
        <time>2024-08-23T10:15:33.000Z</time>
      </trkpt>
      <trkpt lat="47.010387" lon="10.597831">
        <ele>973.039785</ele>
        <time>2024-08-23T10:15:34.000Z</time>
      </trkpt>
      <trkpt lat="47.010366" lon="10.597806">
        <ele>973.008412</ele>
        <time>2024-08-23T10:15:35.000Z</time>
      </trkpt>
      <trkpt lat="47.010343" lon="10.597783">
        <ele>972.976124</ele>
        <time>2024-08-23T10:15:36.000Z</time>
      </trkpt>
      <trkpt lat="47.010317" lon="10.597761">
        <ele>972.941307</ele>
        <time>2024-08-23T10:15:37.000Z</time>
      </trkpt>
      <trkpt lat="47.010306" lon="10.597751">
        <ele>972.926296</ele>
        <time>2024-08-23T10:15:37.000Z</time>
      </trkpt>
      <trkpt lat="47.010277" lon="10.597733">
        <ele>972.889771</ele>
        <time>2024-08-23T10:15:38.000Z</time>
      </trkpt>
      <trkpt lat="47.010172" lon="10.597651">
        <ele>972.751793</ele>
        <time>2024-08-23T10:15:41.000Z</time>
      </trkpt>
      <trkpt lat="47.010140" lon="10.597633">
        <ele>972.712040</ele>
        <time>2024-08-23T10:15:42.000Z</time>
      </trkpt>
      <trkpt lat="47.010109" lon="10.597616">
        <ele>972.673653</ele>
        <time>2024-08-23T10:15:43.000Z</time>
      </trkpt>
      <trkpt lat="47.010094" lon="10.597606">
        <ele>972.654541</ele>
        <time>2024-08-23T10:15:44.000Z</time>
      </trkpt>
      <trkpt lat="47.010030" lon="10.597550">
        <ele>972.568101</ele>
        <time>2024-08-23T10:15:45.000Z</time>
      </trkpt>
      <trkpt lat="47.009980" lon="10.597502">
        <ele>972.498786</ele>
        <time>2024-08-23T10:15:46.000Z</time>
      </trkpt>
      <trkpt lat="47.009947" lon="10.597470">
        <ele>972.452900</ele>
        <time>2024-08-23T10:15:47.000Z</time>
      </trkpt>
      <trkpt lat="47.009904" lon="10.597437">
        <ele>972.396609</ele>
        <time>2024-08-23T10:15:48.000Z</time>
      </trkpt>
      <trkpt lat="47.009864" lon="10.597402">
        <ele>972.342583</ele>
        <time>2024-08-23T10:15:49.000Z</time>
      </trkpt>
      <trkpt lat="47.009822" lon="10.597365">
        <ele>972.285755</ele>
        <time>2024-08-23T10:15:50.000Z</time>
      </trkpt>
      <trkpt lat="47.009759" lon="10.597303">
        <ele>972.197755</ele>
        <time>2024-08-23T10:15:51.000Z</time>
      </trkpt>
      <trkpt lat="47.009718" lon="10.597259">
        <ele>972.138827</ele>
        <time>2024-08-23T10:15:52.000Z</time>
      </trkpt>
      <trkpt lat="47.009678" lon="10.597209">
        <ele>972.077866</ele>
        <time>2024-08-23T10:15:53.000Z</time>
      </trkpt>
      <trkpt lat="47.009633" lon="10.597152">
        <ele>972.008898</ele>
        <time>2024-08-23T10:15:54.000Z</time>
      </trkpt>
      <trkpt lat="47.009592" lon="10.597097">
        <ele>971.944449</ele>
        <time>2024-08-23T10:15:55.000Z</time>
      </trkpt>
      <trkpt lat="47.009528" lon="10.597004">
        <ele>971.839948</ele>
        <time>2024-08-23T10:15:56.000Z</time>
      </trkpt>
      <trkpt lat="47.009484" lon="10.596933">
        <ele>971.764068</ele>
        <time>2024-08-23T10:15:57.000Z</time>
      </trkpt>
      <trkpt lat="47.009438" lon="10.596862">
        <ele>971.686609</ele>
        <time>2024-08-23T10:15:58.000Z</time>
      </trkpt>
      <trkpt lat="47.009387" lon="10.596797">
        <ele>971.608238</ele>
        <time>2024-08-23T10:15:59.000Z</time>
      </trkpt>
      <trkpt lat="47.009309" lon="10.596695">
        <ele>971.487024</ele>
        <time>2024-08-23T10:16:00.000Z</time>
      </trkpt>
      <trkpt lat="47.009253" lon="10.596627">
        <ele>971.391979</ele>
        <time>2024-08-23T10:16:01.000Z</time>
      </trkpt>
      <trkpt lat="47.009198" lon="10.596559">
        <ele>971.280193</ele>
        <time>2024-08-23T10:16:02.000Z</time>
      </trkpt>
      <trkpt lat="47.009142" lon="10.596490">
        <ele>971.166536</ele>
        <time>2024-08-23T10:16:03.000Z</time>
      </trkpt>
      <trkpt lat="47.009084" lon="10.596421">
        <ele>971.050482</ele>
        <time>2024-08-23T10:16:04.000Z</time>
      </trkpt>
      <trkpt lat="47.008991" lon="10.596309">
        <ele>970.863483</ele>
        <time>2024-08-23T10:16:05.000Z</time>
      </trkpt>
      <trkpt lat="47.008931" lon="10.596234">
        <ele>970.740974</ele>
        <time>2024-08-23T10:16:06.000Z</time>
      </trkpt>
      <trkpt lat="47.008869" lon="10.596158">
        <ele>970.615406</ele>
        <time>2024-08-23T10:16:07.000Z</time>
      </trkpt>
      <trkpt lat="47.008809" lon="10.596080">
        <ele>970.490811</ele>
        <time>2024-08-23T10:16:08.000Z</time>
      </trkpt>
      <trkpt lat="47.008728" lon="10.595952">
        <ele>970.305775</ele>
        <time>2024-08-23T10:16:09.000Z</time>
      </trkpt>
      <trkpt lat="47.008675" lon="10.595864">
        <ele>970.181366</ele>
        <time>2024-08-23T10:16:10.000Z</time>
      </trkpt>
      <trkpt lat="47.008623" lon="10.595778">
        <ele>970.059574</ele>
        <time>2024-08-23T10:16:11.000Z</time>
      </trkpt>
      <trkpt lat="47.008572" lon="10.595686">
        <ele>969.933940</ele>
        <time>2024-08-23T10:16:12.000Z</time>
      </trkpt>
      <trkpt lat="47.008525" lon="10.595596">
        <ele>969.813821</ele>
        <time>2024-08-23T10:16:13.000Z</time>
      </trkpt>
      <trkpt lat="47.008461" lon="10.595459">
        <ele>969.637855</ele>
        <time>2024-08-23T10:16:14.000Z</time>
      </trkpt>
      <trkpt lat="47.008424" lon="10.595367">
        <ele>969.524679</ele>
        <time>2024-08-23T10:16:15.000Z</time>
      </trkpt>
      <trkpt lat="47.008387" lon="10.595277">
        <ele>969.413322</ele>
        <time>2024-08-23T10:16:16.000Z</time>
      </trkpt>
      <trkpt lat="47.008353" lon="10.595191">
        <ele>969.307987</ele>
        <time>2024-08-23T10:16:17.000Z</time>
      </trkpt>
      <trkpt lat="47.008307" lon="10.595062">
        <ele>969.153735</ele>
        <time>2024-08-23T10:16:18.000Z</time>
      </trkpt>
      <trkpt lat="47.008279" lon="10.594979">
        <ele>969.055612</ele>
        <time>2024-08-23T10:16:19.000Z</time>
      </trkpt>
      <trkpt lat="47.008246" lon="10.594896">
        <ele>968.953806</ele>
        <time>2024-08-23T10:16:20.000Z</time>
      </trkpt>
      <trkpt lat="47.008215" lon="10.594813">
        <ele>968.853529</ele>
        <time>2024-08-23T10:16:21.000Z</time>
      </trkpt>
      <trkpt lat="47.008174" lon="10.594691">
        <ele>968.709409</ele>
        <time>2024-08-23T10:16:22.000Z</time>
      </trkpt>
      <trkpt lat="47.008146" lon="10.594612">
        <ele>968.638923</ele>
        <time>2024-08-23T10:16:23.000Z</time>
      </trkpt>
      <trkpt lat="47.008120" lon="10.594532">
        <ele>968.637584</ele>
        <time>2024-08-23T10:16:24.000Z</time>
      </trkpt>
      <trkpt lat="47.008094" lon="10.594454">
        <ele>968.636271</ele>
        <time>2024-08-23T10:16:25.000Z</time>
      </trkpt>
      <trkpt lat="47.008068" lon="10.594377">
        <ele>968.634973</ele>
        <time>2024-08-23T10:16:26.000Z</time>
      </trkpt>
      <trkpt lat="47.008029" lon="10.594268">
        <ele>968.633112</ele>
        <time>2024-08-23T10:16:27.000Z</time>
      </trkpt>
      <trkpt lat="47.008006" lon="10.594203">
        <ele>968.632005</ele>
        <time>2024-08-23T10:16:28.000Z</time>
      </trkpt>
      <trkpt lat="47.007975" lon="10.594138">
        <ele>968.630806</ele>
        <time>2024-08-23T10:16:29.000Z</time>
      </trkpt>
      <trkpt lat="47.007951" lon="10.594080">
        <ele>968.629781</ele>
        <time>2024-08-23T10:16:30.000Z</time>
      </trkpt>
      <trkpt lat="47.007914" lon="10.594001">
        <ele>968.628332</ele>
        <time>2024-08-23T10:16:31.000Z</time>
      </trkpt>
      <trkpt lat="47.007886" lon="10.593954">
        <ele>968.627389</ele>
        <time>2024-08-23T10:16:32.000Z</time>
      </trkpt>
      <trkpt lat="47.007856" lon="10.593912">
        <ele>968.626469</ele>
        <time>2024-08-23T10:16:33.000Z</time>
      </trkpt>
      <trkpt lat="47.007824" lon="10.593870">
        <ele>968.625517</ele>
        <time>2024-08-23T10:16:34.000Z</time>
      </trkpt>
      <trkpt lat="47.007788" lon="10.593830">
        <ele>968.624516</ele>
        <time>2024-08-23T10:16:35.000Z</time>
      </trkpt>
      <trkpt lat="47.007729" lon="10.593765">
        <ele>968.622880</ele>
        <time>2024-08-23T10:16:36.000Z</time>
      </trkpt>
      <trkpt lat="47.007678" lon="10.593724">
        <ele>968.621591</ele>
        <time>2024-08-23T10:16:37.000Z</time>
      </trkpt>
      <trkpt lat="47.007624" lon="10.593689">
        <ele>968.620283</ele>
        <time>2024-08-23T10:16:38.000Z</time>
      </trkpt>
      <trkpt lat="47.007566" lon="10.593664">
        <ele>968.618943</ele>
        <time>2024-08-23T10:16:39.000Z</time>
      </trkpt>
      <trkpt lat="47.007482" lon="10.593636">
        <ele>968.617033</ele>
        <time>2024-08-23T10:16:40.000Z</time>
      </trkpt>
      <trkpt lat="47.007424" lon="10.593621">
        <ele>968.615728</ele>
        <time>2024-08-23T10:16:41.000Z</time>
      </trkpt>
      <trkpt lat="47.007364" lon="10.593596">
        <ele>968.614345</ele>
        <time>2024-08-23T10:16:42.000Z</time>
      </trkpt>
      <trkpt lat="47.007310" lon="10.593573">
        <ele>968.613098</ele>
        <time>2024-08-23T10:16:43.000Z</time>
      </trkpt>
      <trkpt lat="47.007257" lon="10.593550">
        <ele>968.611873</ele>
        <time>2024-08-23T10:16:44.000Z</time>
      </trkpt>
      <trkpt lat="47.007203" lon="10.593518">
        <ele>968.610582</ele>
        <time>2024-08-23T10:16:45.000Z</time>
      </trkpt>
      <trkpt lat="47.007124" lon="10.593469">
        <ele>968.608681</ele>
        <time>2024-08-23T10:16:46.000Z</time>
      </trkpt>
      <trkpt lat="47.007073" lon="10.593436">
        <ele>968.607445</ele>
        <time>2024-08-23T10:16:47.000Z</time>
      </trkpt>
      <trkpt lat="47.007021" lon="10.593402">
        <ele>968.606183</ele>
        <time>2024-08-23T10:16:48.000Z</time>
      </trkpt>
      <trkpt lat="47.006969" lon="10.593360">
        <ele>968.604867</ele>
        <time>2024-08-23T10:16:49.000Z</time>
      </trkpt>
      <trkpt lat="47.006897" lon="10.593286">
        <ele>968.602918</ele>
        <time>2024-08-23T10:16:50.000Z</time>
      </trkpt>
      <trkpt lat="47.006851" lon="10.593234">
        <ele>968.601631</ele>
        <time>2024-08-23T10:16:51.000Z</time>
      </trkpt>
      <trkpt lat="47.006802" lon="10.593180">
        <ele>968.600272</ele>
        <time>2024-08-23T10:16:52.000Z</time>
      </trkpt>
      <trkpt lat="47.006758" lon="10.593120">
        <ele>968.620048</ele>
        <time>2024-08-23T10:16:53.000Z</time>
      </trkpt>
      <trkpt lat="47.006695" lon="10.593022">
        <ele>968.711751</ele>
        <time>2024-08-23T10:16:54.000Z</time>
      </trkpt>
      <trkpt lat="47.006655" lon="10.592961">
        <ele>968.769372</ele>
        <time>2024-08-23T10:16:55.000Z</time>
      </trkpt>
      <trkpt lat="47.006609" lon="10.592896">
        <ele>968.833155</ele>
        <time>2024-08-23T10:16:56.000Z</time>
      </trkpt>
      <trkpt lat="47.006570" lon="10.592828">
        <ele>968.893654</ele>
        <time>2024-08-23T10:16:57.000Z</time>
      </trkpt>
      <trkpt lat="47.006513" lon="10.592735">
        <ele>968.978794</ele>
        <time>2024-08-23T10:16:58.000Z</time>
      </trkpt>
      <trkpt lat="47.006481" lon="10.592675">
        <ele>969.030658</ele>
        <time>2024-08-23T10:16:59.000Z</time>
      </trkpt>
      <trkpt lat="47.006449" lon="10.592610">
        <ele>969.085244</ele>
        <time>2024-08-23T10:17:00.000Z</time>
      </trkpt>
      <trkpt lat="47.006414" lon="10.592544">
        <ele>969.142171</ele>
        <time>2024-08-23T10:17:01.000Z</time>
      </trkpt>
      <trkpt lat="47.006376" lon="10.592478">
        <ele>969.200985</ele>
        <time>2024-08-23T10:17:02.000Z</time>
      </trkpt>
      <trkpt lat="47.006323" lon="10.592379">
        <ele>969.286684</ele>
        <time>2024-08-23T10:17:03.000Z</time>
      </trkpt>
      <trkpt lat="47.006292" lon="10.592321">
        <ele>969.336860</ele>
        <time>2024-08-23T10:17:04.000Z</time>
      </trkpt>
      <trkpt lat="47.006263" lon="10.592260">
        <ele>969.387491</ele>
        <time>2024-08-23T10:17:05.000Z</time>
      </trkpt>
      <trkpt lat="47.006231" lon="10.592198">
        <ele>969.440435</ele>
        <time>2024-08-23T10:17:06.000Z</time>
      </trkpt>
      <trkpt lat="47.006195" lon="10.592141">
        <ele>969.493334</ele>
        <time>2024-08-23T10:17:07.000Z</time>
      </trkpt>
      <trkpt lat="47.006145" lon="10.592058">
        <ele>969.568741</ele>
        <time>2024-08-23T10:17:08.000Z</time>
      </trkpt>
      <trkpt lat="47.006111" lon="10.592002">
        <ele>969.619794</ele>
        <time>2024-08-23T10:17:09.000Z</time>
      </trkpt>
      <trkpt lat="47.006072" lon="10.591951">
        <ele>969.671969</ele>
        <time>2024-08-23T10:17:10.000Z</time>
      </trkpt>
      <trkpt lat="47.006035" lon="10.591903">
        <ele>969.721295</ele>
        <time>2024-08-23T10:17:11.000Z</time>
      </trkpt>
      <trkpt lat="47.005983" lon="10.591829">
        <ele>969.793645</ele>
        <time>2024-08-23T10:17:12.000Z</time>
      </trkpt>
      <trkpt lat="47.005945" lon="10.591780">
        <ele>969.844169</ele>
        <time>2024-08-23T10:17:13.000Z</time>
      </trkpt>
      <trkpt lat="47.005902" lon="10.591734">
        <ele>969.897315</ele>
        <time>2024-08-23T10:17:14.000Z</time>
      </trkpt>
      <trkpt lat="47.005858" lon="10.591689">
        <ele>969.950877</ele>
        <time>2024-08-23T10:17:15.000Z</time>
      </trkpt>
      <trkpt lat="47.005813" lon="10.591644">
        <ele>970.005262</ele>
        <time>2024-08-23T10:17:16.000Z</time>
      </trkpt>
      <trkpt lat="47.005750" lon="10.591578">
        <ele>970.082570</ele>
        <time>2024-08-23T10:17:17.000Z</time>
      </trkpt>
      <trkpt lat="47.005710" lon="10.591529">
        <ele>970.134611</ele>
        <time>2024-08-23T10:17:18.000Z</time>
      </trkpt>
      <trkpt lat="47.005669" lon="10.591480">
        <ele>970.187422</ele>
        <time>2024-08-23T10:17:19.000Z</time>
      </trkpt>
      <trkpt lat="47.005626" lon="10.591432">
        <ele>970.241381</ele>
        <time>2024-08-23T10:17:20.000Z</time>
      </trkpt>
      <trkpt lat="47.005567" lon="10.591359">
        <ele>970.318460</ele>
        <time>2024-08-23T10:17:21.000Z</time>
      </trkpt>
      <trkpt lat="47.005528" lon="10.591312">
        <ele>970.368863</ele>
        <time>2024-08-23T10:17:22.000Z</time>
      </trkpt>
      <trkpt lat="47.005490" lon="10.591267">
        <ele>970.444259</ele>
        <time>2024-08-23T10:17:23.000Z</time>
      </trkpt>
      <trkpt lat="47.005450" lon="10.591217">
        <ele>970.559359</ele>
        <time>2024-08-23T10:17:24.000Z</time>
      </trkpt>
      <trkpt lat="47.005396" lon="10.591143">
        <ele>970.721210</ele>
        <time>2024-08-23T10:17:25.000Z</time>
      </trkpt>
      <trkpt lat="47.005359" lon="10.591094">
        <ele>970.830387</ele>
        <time>2024-08-23T10:17:26.000Z</time>
      </trkpt>
      <trkpt lat="47.005321" lon="10.591048">
        <ele>970.938293</ele>
        <time>2024-08-23T10:17:27.000Z</time>
      </trkpt>
      <trkpt lat="47.005280" lon="10.591008">
        <ele>971.046133</ele>
        <time>2024-08-23T10:17:28.000Z</time>
      </trkpt>
      <trkpt lat="47.005240" lon="10.590966">
        <ele>971.153868</ele>
        <time>2024-08-23T10:17:29.000Z</time>
      </trkpt>
      <trkpt lat="47.005176" lon="10.590911">
        <ele>971.316314</ele>
        <time>2024-08-23T10:17:30.000Z</time>
      </trkpt>
      <trkpt lat="47.005131" lon="10.590876">
        <ele>971.427861</ele>
        <time>2024-08-23T10:17:31.000Z</time>
      </trkpt>
      <trkpt lat="47.005087" lon="10.590840">
        <ele>971.538199</ele>
        <time>2024-08-23T10:17:32.000Z</time>
      </trkpt>
      <trkpt lat="47.005043" lon="10.590807">
        <ele>971.646425</ele>
        <time>2024-08-23T10:17:33.000Z</time>
      </trkpt>
      <trkpt lat="47.004982" lon="10.590767">
        <ele>971.792755</ele>
        <time>2024-08-23T10:17:34.000Z</time>
      </trkpt>
      <trkpt lat="47.004944" lon="10.590746">
        <ele>971.881683</ele>
        <time>2024-08-23T10:17:35.000Z</time>
      </trkpt>
      <trkpt lat="47.004906" lon="10.590730">
        <ele>971.968261</ele>
        <time>2024-08-23T10:17:36.000Z</time>
      </trkpt>
      <trkpt lat="47.004867" lon="10.590714">
        <ele>972.056946</ele>
        <time>2024-08-23T10:17:37.000Z</time>
      </trkpt>
      <trkpt lat="47.004827" lon="10.590699">
        <ele>972.147360</ele>
        <time>2024-08-23T10:17:38.000Z</time>
      </trkpt>
      <trkpt lat="47.004767" lon="10.590677">
        <ele>972.282798</ele>
        <time>2024-08-23T10:17:39.000Z</time>
      </trkpt>
      <trkpt lat="47.004726" lon="10.590663">
        <ele>972.374985</ele>
        <time>2024-08-23T10:17:40.000Z</time>
      </trkpt>
      <trkpt lat="47.004684" lon="10.590649">
        <ele>972.469306</ele>
        <time>2024-08-23T10:17:41.000Z</time>
      </trkpt>
      <trkpt lat="47.004644" lon="10.590634">
        <ele>972.559720</ele>
        <time>2024-08-23T10:17:42.000Z</time>
      </trkpt>
      <trkpt lat="47.004605" lon="10.590620">
        <ele>972.647647</ele>
        <time>2024-08-23T10:17:43.000Z</time>
      </trkpt>
      <trkpt lat="47.004546" lon="10.590603">
        <ele>972.779321</ele>
        <time>2024-08-23T10:17:44.000Z</time>
      </trkpt>
      <trkpt lat="47.004507" lon="10.590592">
        <ele>972.866291</ele>
        <time>2024-08-23T10:17:45.000Z</time>
      </trkpt>
      <trkpt lat="47.004470" lon="10.590581">
        <ele>972.948965</ele>
        <time>2024-08-23T10:17:46.000Z</time>
      </trkpt>
      <trkpt lat="47.004433" lon="10.590569">
        <ele>973.031949</ele>
        <time>2024-08-23T10:17:47.000Z</time>
      </trkpt>
      <trkpt lat="47.004389" lon="10.590551">
        <ele>973.131983</ele>
        <time>2024-08-23T10:17:48.000Z</time>
      </trkpt>
      <trkpt lat="47.004376" lon="10.590547">
        <ele>973.161071</ele>
        <time>2024-08-23T10:17:49.000Z</time>
      </trkpt>
      <trkpt lat="47.004375" lon="10.590546">
        <ele>973.163722</ele>
        <time>2024-08-23T10:17:50.000Z</time>
      </trkpt>
      <trkpt lat="47.004372" lon="10.590541">
        <ele>973.173667</ele>
        <time>2024-08-23T10:17:51.000Z</time>
      </trkpt>
      <trkpt lat="47.004311" lon="10.590509">
        <ele>973.315541</ele>
        <time>2024-08-23T10:17:58.000Z</time>
      </trkpt>
      <trkpt lat="47.004271" lon="10.590490">
        <ele>973.407617</ele>
        <time>2024-08-23T10:17:59.000Z</time>
      </trkpt>
      <trkpt lat="47.004239" lon="10.590475">
        <ele>973.481186</ele>
        <time>2024-08-23T10:18:00.000Z</time>
      </trkpt>
      <trkpt lat="47.004200" lon="10.590456">
        <ele>973.571181</ele>
        <time>2024-08-23T10:18:01.000Z</time>
      </trkpt>
      <trkpt lat="47.004159" lon="10.590437">
        <ele>973.665343</ele>
        <time>2024-08-23T10:18:02.000Z</time>
      </trkpt>
      <trkpt lat="47.004116" lon="10.590417">
        <ele>973.764131</ele>
        <time>2024-08-23T10:18:03.000Z</time>
      </trkpt>
      <trkpt lat="47.004071" lon="10.590396">
        <ele>973.867546</ele>
        <time>2024-08-23T10:18:04.000Z</time>
      </trkpt>
      <trkpt lat="47.004025" lon="10.590373">
        <ele>973.973975</ele>
        <time>2024-08-23T10:18:05.000Z</time>
      </trkpt>
      <trkpt lat="47.003957" lon="10.590336">
        <ele>974.132808</ele>
        <time>2024-08-23T10:18:06.000Z</time>
      </trkpt>
      <trkpt lat="47.003909" lon="10.590310">
        <ele>974.244864</ele>
        <time>2024-08-23T10:18:07.000Z</time>
      </trkpt>
      <trkpt lat="47.003864" lon="10.590284">
        <ele>974.309663</ele>
        <time>2024-08-23T10:18:08.000Z</time>
      </trkpt>
      <trkpt lat="47.003816" lon="10.590262">
        <ele>974.147865</ele>
        <time>2024-08-23T10:18:09.000Z</time>
      </trkpt>
      <trkpt lat="47.003768" lon="10.590236">
        <ele>973.983235</ele>
        <time>2024-08-23T10:18:10.000Z</time>
      </trkpt>
      <trkpt lat="47.003692" lon="10.590196">
        <ele>973.723447</ele>
        <time>2024-08-23T10:18:11.000Z</time>
      </trkpt>
      <trkpt lat="47.003641" lon="10.590171">
        <ele>973.550439</ele>
        <time>2024-08-23T10:18:12.000Z</time>
      </trkpt>
      <trkpt lat="47.003587" lon="10.590144">
        <ele>973.366883</ele>
        <time>2024-08-23T10:18:13.000Z</time>
      </trkpt>
      <trkpt lat="47.003533" lon="10.590110">
        <ele>973.177810</ele>
        <time>2024-08-23T10:18:14.000Z</time>
      </trkpt>
      <trkpt lat="47.003453" lon="10.590045">
        <ele>972.883556</ele>
        <time>2024-08-23T10:18:15.000Z</time>
      </trkpt>
      <trkpt lat="47.003402" lon="10.589994">
        <ele>972.684951</ele>
        <time>2024-08-23T10:18:16.000Z</time>
      </trkpt>
      <trkpt lat="47.003353" lon="10.589933">
        <ele>972.478153</ele>
        <time>2024-08-23T10:18:17.000Z</time>
      </trkpt>
      <trkpt lat="47.003305" lon="10.589873">
        <ele>972.275227</ele>
        <time>2024-08-23T10:18:18.000Z</time>
      </trkpt>
      <trkpt lat="47.003257" lon="10.589809">
        <ele>972.066501</ele>
        <time>2024-08-23T10:18:19.000Z</time>
      </trkpt>
      <trkpt lat="47.003187" lon="10.589714">
        <ele>971.759637</ele>
        <time>2024-08-23T10:18:20.000Z</time>
      </trkpt>
      <trkpt lat="47.003137" lon="10.589645">
        <ele>971.538737</ele>
        <time>2024-08-23T10:18:21.000Z</time>
      </trkpt>
      <trkpt lat="47.003091" lon="10.589579">
        <ele>971.331681</ele>
        <time>2024-08-23T10:18:22.000Z</time>
      </trkpt>
      <trkpt lat="47.003045" lon="10.589504">
        <ele>971.110363</ele>
        <time>2024-08-23T10:18:23.000Z</time>
      </trkpt>
      <trkpt lat="47.002969" lon="10.589375">
        <ele>970.736336</ele>
        <time>2024-08-23T10:18:24.000Z</time>
      </trkpt>
      <trkpt lat="47.002914" lon="10.589298">
        <ele>970.491685</ele>
        <time>2024-08-23T10:18:25.000Z</time>
      </trkpt>
      <trkpt lat="47.002860" lon="10.589218">
        <ele>970.244717</ele>
        <time>2024-08-23T10:18:26.000Z</time>
      </trkpt>
      <trkpt lat="47.002802" lon="10.589140">
        <ele>969.991519</ele>
        <time>2024-08-23T10:18:27.000Z</time>
      </trkpt>
      <trkpt lat="47.002741" lon="10.589067">
        <ele>969.738201</ele>
        <time>2024-08-23T10:18:28.000Z</time>
      </trkpt>
      <trkpt lat="47.002635" lon="10.588969">
        <ele>969.335041</ele>
        <time>2024-08-23T10:18:29.000Z</time>
      </trkpt>
      <trkpt lat="47.002566" lon="10.588900">
        <ele>969.066338</ele>
        <time>2024-08-23T10:18:30.000Z</time>
      </trkpt>
      <trkpt lat="47.002499" lon="10.588825">
        <ele>968.795147</ele>
        <time>2024-08-23T10:18:31.000Z</time>
      </trkpt>
      <trkpt lat="47.002433" lon="10.588748">
        <ele>968.558222</ele>
        <time>2024-08-23T10:18:32.000Z</time>
      </trkpt>
      <trkpt lat="47.002345" lon="10.588623">
        <ele>968.740276</ele>
        <time>2024-08-23T10:18:33.000Z</time>
      </trkpt>
      <trkpt lat="47.002290" lon="10.588535">
        <ele>968.861235</ele>
        <time>2024-08-23T10:18:34.000Z</time>
      </trkpt>
      <trkpt lat="47.002237" lon="10.588447">
        <ele>968.980207</ele>
        <time>2024-08-23T10:18:35.000Z</time>
      </trkpt>
      <trkpt lat="47.002189" lon="10.588358">
        <ele>969.095190</ele>
        <time>2024-08-23T10:18:36.000Z</time>
      </trkpt>
      <trkpt lat="47.002144" lon="10.588271">
        <ele>969.205841</ele>
        <time>2024-08-23T10:18:37.000Z</time>
      </trkpt>
      <trkpt lat="47.002082" lon="10.588130">
        <ele>969.375850</ele>
        <time>2024-08-23T10:18:38.000Z</time>
      </trkpt>
      <trkpt lat="47.002043" lon="10.588038">
        <ele>969.485622</ele>
        <time>2024-08-23T10:18:39.000Z</time>
      </trkpt>
      <trkpt lat="47.002003" lon="10.587946">
        <ele>969.596186</ele>
        <time>2024-08-23T10:18:40.000Z</time>
      </trkpt>
      <trkpt lat="47.001963" lon="10.587862">
        <ele>969.700006</ele>
        <time>2024-08-23T10:18:41.000Z</time>
      </trkpt>
      <trkpt lat="47.001891" lon="10.587752">
        <ele>969.854510</ele>
        <time>2024-08-23T10:18:42.000Z</time>
      </trkpt>
      <trkpt lat="47.001837" lon="10.587686">
        <ele>969.958969</ele>
        <time>2024-08-23T10:18:43.000Z</time>
      </trkpt>
      <trkpt lat="47.001781" lon="10.587631">
        <ele>970.059121</ele>
        <time>2024-08-23T10:18:44.000Z</time>
      </trkpt>
      <trkpt lat="47.001721" lon="10.587588">
        <ele>970.158355</ele>
        <time>2024-08-23T10:18:45.000Z</time>
      </trkpt>
      <trkpt lat="47.001662" lon="10.587558">
        <ele>970.251146</ele>
        <time>2024-08-23T10:18:46.000Z</time>
      </trkpt>
      <trkpt lat="47.001574" lon="10.587521">
        <ele>970.387177</ele>
        <time>2024-08-23T10:18:47.000Z</time>
      </trkpt>
      <trkpt lat="47.001521" lon="10.587500">
        <ele>970.468755</ele>
        <time>2024-08-23T10:18:48.000Z</time>
      </trkpt>
      <trkpt lat="47.001470" lon="10.587479">
        <ele>970.547468</ele>
        <time>2024-08-23T10:18:49.000Z</time>
      </trkpt>
      <trkpt lat="47.001421" lon="10.587457">
        <ele>970.623615</ele>
        <time>2024-08-23T10:18:50.000Z</time>
      </trkpt>
      <trkpt lat="47.001354" lon="10.587425">
        <ele>970.728320</ele>
        <time>2024-08-23T10:18:51.000Z</time>
      </trkpt>
      <trkpt lat="47.001313" lon="10.587402">
        <ele>970.793549</ele>
        <time>2024-08-23T10:18:52.000Z</time>
      </trkpt>
      <trkpt lat="47.001276" lon="10.587380">
        <ele>970.852876</ele>
        <time>2024-08-23T10:18:53.000Z</time>
      </trkpt>
      <trkpt lat="47.001237" lon="10.587357">
        <ele>970.915339</ele>
        <time>2024-08-23T10:18:54.000Z</time>
      </trkpt>
      <trkpt lat="47.001197" lon="10.587332">
        <ele>970.979950</ele>
        <time>2024-08-23T10:18:55.000Z</time>
      </trkpt>
      <trkpt lat="47.001131" lon="10.587296">
        <ele>971.084586</ele>
        <time>2024-08-23T10:18:56.000Z</time>
      </trkpt>
      <trkpt lat="47.001086" lon="10.587275">
        <ele>971.154757</ele>
        <time>2024-08-23T10:18:57.000Z</time>
      </trkpt>
      <trkpt lat="47.001039" lon="10.587254">
        <ele>971.246822</ele>
        <time>2024-08-23T10:18:58.000Z</time>
      </trkpt>
      <trkpt lat="47.000992" lon="10.587233">
        <ele>971.498696</ele>
        <time>2024-08-23T10:18:59.000Z</time>
      </trkpt>
      <trkpt lat="47.000921" lon="10.587196">
        <ele>971.884968</ele>
        <time>2024-08-23T10:19:00.000Z</time>
      </trkpt>
      <trkpt lat="47.000873" lon="10.587170">
        <ele>972.147284</ele>
        <time>2024-08-23T10:19:01.000Z</time>
      </trkpt>
      <trkpt lat="47.000826" lon="10.587145">
        <ele>972.403584</ele>
        <time>2024-08-23T10:19:02.000Z</time>
      </trkpt>
      <trkpt lat="47.000778" lon="10.587119">
        <ele>972.665900</ele>
        <time>2024-08-23T10:19:03.000Z</time>
      </trkpt>
      <trkpt lat="47.000711" lon="10.587075">
        <ele>973.042238</ele>
        <time>2024-08-23T10:19:04.000Z</time>
      </trkpt>
      <trkpt lat="47.000668" lon="10.587047">
        <ele>973.283428</ele>
        <time>2024-08-23T10:19:05.000Z</time>
      </trkpt>
      <trkpt lat="47.000629" lon="10.587017">
        <ele>973.509195</ele>
        <time>2024-08-23T10:19:06.000Z</time>
      </trkpt>
      <trkpt lat="47.000590" lon="10.586987">
        <ele>973.734963</ele>
        <time>2024-08-23T10:19:07.000Z</time>
      </trkpt>
      <trkpt lat="47.000553" lon="10.586960">
        <ele>973.946827</ele>
        <time>2024-08-23T10:19:08.000Z</time>
      </trkpt>
      <trkpt lat="47.000499" lon="10.586922">
        <ele>974.253877</ele>
        <time>2024-08-23T10:19:09.000Z</time>
      </trkpt>
      <trkpt lat="47.000463" lon="10.586897">
        <ele>974.458076</ele>
        <time>2024-08-23T10:19:10.000Z</time>
      </trkpt>
      <trkpt lat="47.000428" lon="10.586868">
        <ele>974.664161</ele>
        <time>2024-08-23T10:19:11.000Z</time>
      </trkpt>
      <trkpt lat="47.000393" lon="10.586835">
        <ele>974.877475</ele>
        <time>2024-08-23T10:19:12.000Z</time>
      </trkpt>
      <trkpt lat="47.000361" lon="10.586801">
        <ele>975.080056</ele>
        <time>2024-08-23T10:19:13.000Z</time>
      </trkpt>
      <trkpt lat="47.000311" lon="10.586747">
        <ele>975.398395</ele>
        <time>2024-08-23T10:19:14.000Z</time>
      </trkpt>
      <trkpt lat="47.000280" lon="10.586707">
        <ele>975.610081</ele>
        <time>2024-08-23T10:19:15.000Z</time>
      </trkpt>
      <trkpt lat="47.000250" lon="10.586665">
        <ele>975.822713</ele>
        <time>2024-08-23T10:19:16.000Z</time>
      </trkpt>
      <trkpt lat="47.000221" lon="10.586622">
        <ele>976.034139</ele>
        <time>2024-08-23T10:19:17.000Z</time>
      </trkpt>
      <trkpt lat="47.000179" lon="10.586553">
        <ele>976.357480</ele>
        <time>2024-08-23T10:19:18.000Z</time>
      </trkpt>
      <trkpt lat="47.000151" lon="10.586515">
        <ele>976.553063</ele>
        <time>2024-08-23T10:19:19.000Z</time>
      </trkpt>
      <trkpt lat="47.000123" lon="10.586480">
        <ele>976.741679</ele>
        <time>2024-08-23T10:19:20.000Z</time>
      </trkpt>
      <trkpt lat="47.000098" lon="10.586443">
        <ele>976.923772</ele>
        <time>2024-08-23T10:19:21.000Z</time>
      </trkpt>
      <trkpt lat="47.000067" lon="10.586383">
        <ele>977.186939</ele>
        <time>2024-08-23T10:19:22.000Z</time>
      </trkpt>
      <trkpt lat="47.000046" lon="10.586347">
        <ele>977.352559</ele>
        <time>2024-08-23T10:19:23.000Z</time>
      </trkpt>
      <trkpt lat="47.000021" lon="10.586312">
        <ele>977.529753</ele>
        <time>2024-08-23T10:19:24.000Z</time>
      </trkpt>
      <trkpt lat="46.999995" lon="10.586275">
        <ele>977.715489</ele>
        <time>2024-08-23T10:19:25.000Z</time>
      </trkpt>
      <trkpt lat="46.999968" lon="10.586238">
        <ele>977.904937</ele>
        <time>2024-08-23T10:19:26.000Z</time>
      </trkpt>
      <trkpt lat="46.999924" lon="10.586184">
        <ele>978.199078</ele>
        <time>2024-08-23T10:19:27.000Z</time>
      </trkpt>
      <trkpt lat="46.999892" lon="10.586152">
        <ele>978.397639</ele>
        <time>2024-08-23T10:19:28.000Z</time>
      </trkpt>
      <trkpt lat="46.999860" lon="10.586130">
        <ele>978.578817</ele>
        <time>2024-08-23T10:19:29.000Z</time>
      </trkpt>
      <trkpt lat="46.999832" lon="10.586112">
        <ele>978.735544</ele>
        <time>2024-08-23T10:19:30.000Z</time>
      </trkpt>
      <trkpt lat="46.999797" lon="10.586085">
        <ele>978.938281</ele>
        <time>2024-08-23T10:19:31.000Z</time>
      </trkpt>
      <trkpt lat="46.999772" lon="10.586064">
        <ele>979.085980</ele>
        <time>2024-08-23T10:19:32.000Z</time>
      </trkpt>
      <trkpt lat="46.999745" lon="10.586041">
        <ele>979.246053</ele>
        <time>2024-08-23T10:19:33.000Z</time>
      </trkpt>
      <trkpt lat="46.999716" lon="10.586013">
        <ele>979.424052</ele>
        <time>2024-08-23T10:19:34.000Z</time>
      </trkpt>
      <trkpt lat="46.999686" lon="10.585983">
        <ele>979.610203</ele>
        <time>2024-08-23T10:19:35.000Z</time>
      </trkpt>
      <trkpt lat="46.999644" lon="10.585940">
        <ele>979.872800</ele>
        <time>2024-08-23T10:19:36.000Z</time>
      </trkpt>
      <trkpt lat="46.999615" lon="10.585911">
        <ele>980.052745</ele>
        <time>2024-08-23T10:19:37.000Z</time>
      </trkpt>
      <trkpt lat="46.999587" lon="10.585883">
        <ele>980.226486</ele>
        <time>2024-08-23T10:19:38.000Z</time>
      </trkpt>
      <trkpt lat="46.999558" lon="10.585845">
        <ele>980.425863</ele>
        <time>2024-08-23T10:19:39.000Z</time>
      </trkpt>
      <trkpt lat="46.999530" lon="10.585803">
        <ele>980.414998</ele>
        <time>2024-08-23T10:19:40.000Z</time>
      </trkpt>
      <trkpt lat="46.999488" lon="10.585734">
        <ele>980.371942</ele>
        <time>2024-08-23T10:19:41.000Z</time>
      </trkpt>
      <trkpt lat="46.999460" lon="10.585689">
        <ele>980.343584</ele>
        <time>2024-08-23T10:19:42.000Z</time>
      </trkpt>
      <trkpt lat="46.999432" lon="10.585641">
        <ele>980.314179</ele>
        <time>2024-08-23T10:19:43.000Z</time>
      </trkpt>
      <trkpt lat="46.999406" lon="10.585589">
        <ele>980.284162</ele>
        <time>2024-08-23T10:19:44.000Z</time>
      </trkpt>
      <trkpt lat="46.999366" lon="10.585510">
        <ele>980.238356</ele>
        <time>2024-08-23T10:19:45.000Z</time>
      </trkpt>
      <trkpt lat="46.999341" lon="10.585460">
        <ele>980.209494</ele>
        <time>2024-08-23T10:19:46.000Z</time>
      </trkpt>
      <trkpt lat="46.999314" lon="10.585410">
        <ele>980.179803</ele>
        <time>2024-08-23T10:19:47.000Z</time>
      </trkpt>
      <trkpt lat="46.999291" lon="10.585361">
        <ele>980.152111</ele>
        <time>2024-08-23T10:19:48.000Z</time>
      </trkpt>
      <trkpt lat="46.999254" lon="10.585288">
        <ele>980.109769</ele>
        <time>2024-08-23T10:19:49.000Z</time>
      </trkpt>
      <trkpt lat="46.999229" lon="10.585241">
        <ele>980.082021</ele>
        <time>2024-08-23T10:19:50.000Z</time>
      </trkpt>
      <trkpt lat="46.999207" lon="10.585193">
        <ele>980.055097</ele>
        <time>2024-08-23T10:19:51.000Z</time>
      </trkpt>
      <trkpt lat="46.999182" lon="10.585144">
        <ele>980.026609</ele>
        <time>2024-08-23T10:19:52.000Z</time>
      </trkpt>
      <trkpt lat="46.999156" lon="10.585091">
        <ele>979.996215</ele>
        <time>2024-08-23T10:19:53.000Z</time>
      </trkpt>
      <trkpt lat="46.999117" lon="10.585011">
        <ele>979.950435</ele>
        <time>2024-08-23T10:19:54.000Z</time>
      </trkpt>
      <trkpt lat="46.999089" lon="10.584957">
        <ele>979.918855</ele>
        <time>2024-08-23T10:19:55.000Z</time>
      </trkpt>
      <trkpt lat="46.999061" lon="10.584902">
        <ele>979.886903</ele>
        <time>2024-08-23T10:19:56.000Z</time>
      </trkpt>
      <trkpt lat="46.999032" lon="10.584844">
        <ele>979.853422</ele>
        <time>2024-08-23T10:19:57.000Z</time>
      </trkpt>
      <trkpt lat="46.999004" lon="10.584785">
        <ele>979.819959</ele>
        <time>2024-08-23T10:19:58.000Z</time>
      </trkpt>
      <trkpt lat="46.998964" lon="10.584685">
        <ele>979.765988</ele>
        <time>2024-08-23T10:19:59.000Z</time>
      </trkpt>
      <trkpt lat="46.998938" lon="10.584613">
        <ele>979.728060</ele>
        <time>2024-08-23T10:20:00.000Z</time>
      </trkpt>
      <trkpt lat="46.998910" lon="10.584544">
        <ele>979.690681</ele>
        <time>2024-08-23T10:20:01.000Z</time>
      </trkpt>
      <trkpt lat="46.998881" lon="10.584474">
        <ele>979.652552</ele>
        <time>2024-08-23T10:20:02.000Z</time>
      </trkpt>
      <trkpt lat="46.998842" lon="10.584363">
        <ele>979.594421</ele>
        <time>2024-08-23T10:20:03.000Z</time>
      </trkpt>
      <trkpt lat="46.998818" lon="10.584285">
        <ele>979.554584</ele>
        <time>2024-08-23T10:20:04.000Z</time>
      </trkpt>
      <trkpt lat="46.998793" lon="10.584209">
        <ele>979.515302</ele>
        <time>2024-08-23T10:20:05.000Z</time>
      </trkpt>
      <trkpt lat="46.998771" lon="10.584133">
        <ele>979.476865</ele>
        <time>2024-08-23T10:20:06.000Z</time>
      </trkpt>
      <trkpt lat="46.998737" lon="10.584022">
        <ele>979.420217</ele>
        <time>2024-08-23T10:20:07.000Z</time>
      </trkpt>
      <trkpt lat="46.998718" lon="10.583947">
        <ele>979.382970</ele>
        <time>2024-08-23T10:20:08.000Z</time>
      </trkpt>
      <trkpt lat="46.998698" lon="10.583871">
        <ele>979.345045</ele>
        <time>2024-08-23T10:20:09.000Z</time>
      </trkpt>
      <trkpt lat="46.998676" lon="10.583793">
        <ele>979.305750</ele>
        <time>2024-08-23T10:20:10.000Z</time>
      </trkpt>
      <trkpt lat="46.998654" lon="10.583712">
        <ele>979.265160</ele>
        <time>2024-08-23T10:20:11.000Z</time>
      </trkpt>
      <trkpt lat="46.998624" lon="10.583590">
        <ele>979.203183</ele>
        <time>2024-08-23T10:20:12.000Z</time>
      </trkpt>
      <trkpt lat="46.998604" lon="10.583508">
        <ele>979.154374</ele>
        <time>2024-08-23T10:20:13.000Z</time>
      </trkpt>
      <trkpt lat="46.998584" lon="10.583426">
        <ele>979.105565</ele>
        <time>2024-08-23T10:20:14.000Z</time>
      </trkpt>
      <trkpt lat="46.998563" lon="10.583344">
        <ele>979.056474</ele>
        <time>2024-08-23T10:20:15.000Z</time>
      </trkpt>
      <trkpt lat="46.998539" lon="10.583264">
        <ele>979.007490</ele>
        <time>2024-08-23T10:20:16.000Z</time>
      </trkpt>
      <trkpt lat="46.998498" lon="10.583142">
        <ele>978.931262</ele>
        <time>2024-08-23T10:20:17.000Z</time>
      </trkpt>
      <trkpt lat="46.998467" lon="10.583058">
        <ele>978.877732</ele>
        <time>2024-08-23T10:20:18.000Z</time>
      </trkpt>
      <trkpt lat="46.998437" lon="10.582973">
        <ele>978.824091</ele>
        <time>2024-08-23T10:20:19.000Z</time>
      </trkpt>
      <trkpt lat="46.998405" lon="10.582890">
        <ele>978.770653</ele>
        <time>2024-08-23T10:20:20.000Z</time>
      </trkpt>
      <trkpt lat="46.998353" lon="10.582768">
        <ele>978.690021</ele>
        <time>2024-08-23T10:20:21.000Z</time>
      </trkpt>
      <trkpt lat="46.998314" lon="10.582686">
        <ele>978.633991</ele>
        <time>2024-08-23T10:20:22.000Z</time>
      </trkpt>
      <trkpt lat="46.998274" lon="10.582604">
        <ele>978.577487</ele>
        <time>2024-08-23T10:20:23.000Z</time>
      </trkpt>
      <trkpt lat="46.998233" lon="10.582524">
        <ele>978.521401</ele>
        <time>2024-08-23T10:20:24.000Z</time>
      </trkpt>
      <trkpt lat="46.998189" lon="10.582444">
        <ele>978.463800</ele>
        <time>2024-08-23T10:20:25.000Z</time>
      </trkpt>
      <trkpt lat="46.998121" lon="10.582327">
        <ele>978.377644</ele>
        <time>2024-08-23T10:20:26.000Z</time>
      </trkpt>
      <trkpt lat="46.998074" lon="10.582250">
        <ele>978.319728</ele>
        <time>2024-08-23T10:20:27.000Z</time>
      </trkpt>
      <trkpt lat="46.998023" lon="10.582179">
        <ele>978.261934</ele>
        <time>2024-08-23T10:20:28.000Z</time>
      </trkpt>
      <trkpt lat="46.997968" lon="10.582115">
        <ele>978.204232</ele>
        <time>2024-08-23T10:20:29.000Z</time>
      </trkpt>
      <trkpt lat="46.997881" lon="10.582030">
        <ele>978.118318</ele>
        <time>2024-08-23T10:20:30.000Z</time>
      </trkpt>
      <trkpt lat="46.997821" lon="10.581976">
        <ele>978.060463</ele>
        <time>2024-08-23T10:20:31.000Z</time>
      </trkpt>
      <trkpt lat="46.997763" lon="10.581921">
        <ele>978.003700</ele>
        <time>2024-08-23T10:20:32.000Z</time>
      </trkpt>
      <trkpt lat="46.997703" lon="10.581870">
        <ele>977.946707</ele>
        <time>2024-08-23T10:20:33.000Z</time>
      </trkpt>
      <trkpt lat="46.997642" lon="10.581817">
        <ele>977.888438</ele>
        <time>2024-08-23T10:20:34.000Z</time>
      </trkpt>
      <trkpt lat="46.997553" lon="10.581740">
        <ele>977.803515</ele>
        <time>2024-08-23T10:20:35.000Z</time>
      </trkpt>
      <trkpt lat="46.997494" lon="10.581686">
        <ele>977.746359</ele>
        <time>2024-08-23T10:20:36.000Z</time>
      </trkpt>
      <trkpt lat="46.997435" lon="10.581631">
        <ele>977.648527</ele>
        <time>2024-08-23T10:20:37.000Z</time>
      </trkpt>
      <trkpt lat="46.997377" lon="10.581576">
        <ele>977.541543</ele>
        <time>2024-08-23T10:20:38.000Z</time>
      </trkpt>
      <trkpt lat="46.997294" lon="10.581501">
        <ele>977.390535</ele>
        <time>2024-08-23T10:20:39.000Z</time>
      </trkpt>
      <trkpt lat="46.997242" lon="10.581458">
        <ele>977.298068</ele>
        <time>2024-08-23T10:20:40.000Z</time>
      </trkpt>
      <trkpt lat="46.997195" lon="10.581417">
        <ele>977.213362</ele>
        <time>2024-08-23T10:20:41.000Z</time>
      </trkpt>
      <trkpt lat="46.997154" lon="10.581378">
        <ele>977.137666</ele>
        <time>2024-08-23T10:20:42.000Z</time>
      </trkpt>
      <trkpt lat="46.997098" lon="10.581327">
        <ele>977.035560</ele>
        <time>2024-08-23T10:20:43.000Z</time>
      </trkpt>
      <trkpt lat="46.997060" lon="10.581290">
        <ele>976.964907</ele>
        <time>2024-08-23T10:20:44.000Z</time>
      </trkpt>
      <trkpt lat="46.997020" lon="10.581252">
        <ele>976.891085</ele>
        <time>2024-08-23T10:20:45.000Z</time>
      </trkpt>
      <trkpt lat="46.996978" lon="10.581217">
        <ele>976.816260</ele>
        <time>2024-08-23T10:20:46.000Z</time>
      </trkpt>
      <trkpt lat="46.996934" lon="10.581178">
        <ele>976.736625</ele>
        <time>2024-08-23T10:20:47.000Z</time>
      </trkpt>
      <trkpt lat="46.996873" lon="10.581114">
        <ele>976.620447</ele>
        <time>2024-08-23T10:20:48.000Z</time>
      </trkpt>
      <trkpt lat="46.996834" lon="10.581070">
        <ele>976.544229</ele>
        <time>2024-08-23T10:20:49.000Z</time>
      </trkpt>
      <trkpt lat="46.996798" lon="10.581025">
        <ele>976.470957</ele>
        <time>2024-08-23T10:20:50.000Z</time>
      </trkpt>
      <trkpt lat="46.996764" lon="10.580977">
        <ele>976.397852</ele>
        <time>2024-08-23T10:20:51.000Z</time>
      </trkpt>
      <trkpt lat="46.996717" lon="10.580902">
        <ele>976.290258</ele>
        <time>2024-08-23T10:20:52.000Z</time>
      </trkpt>
      <trkpt lat="46.996687" lon="10.580852">
        <ele>976.219910</ele>
        <time>2024-08-23T10:20:53.000Z</time>
      </trkpt>
      <trkpt lat="46.996659" lon="10.580803">
        <ele>976.152381</ele>
        <time>2024-08-23T10:20:54.000Z</time>
      </trkpt>
      <trkpt lat="46.996632" lon="10.580750">
        <ele>976.082498</ele>
        <time>2024-08-23T10:20:55.000Z</time>
      </trkpt>
      <trkpt lat="46.996606" lon="10.580697">
        <ele>976.013532</ele>
        <time>2024-08-23T10:20:56.000Z</time>
      </trkpt>
      <trkpt lat="46.996564" lon="10.580614">
        <ele>975.904355</ele>
        <time>2024-08-23T10:20:57.000Z</time>
      </trkpt>
      <trkpt lat="46.996536" lon="10.580557">
        <ele>975.830150</ele>
        <time>2024-08-23T10:20:58.000Z</time>
      </trkpt>
      <trkpt lat="46.996510" lon="10.580499">
        <ele>975.756830</ele>
        <time>2024-08-23T10:20:59.000Z</time>
      </trkpt>
      <trkpt lat="46.996485" lon="10.580439">
        <ele>975.682555</ele>
        <time>2024-08-23T10:21:00.000Z</time>
      </trkpt>
      <trkpt lat="46.996451" lon="10.580345">
        <ele>975.570156</ele>
        <time>2024-08-23T10:21:01.000Z</time>
      </trkpt>
      <trkpt lat="46.996425" lon="10.580278">
        <ele>975.488723</ele>
        <time>2024-08-23T10:21:02.000Z</time>
      </trkpt>
      <trkpt lat="46.996399" lon="10.580206">
        <ele>975.402661</ele>
        <time>2024-08-23T10:21:03.000Z</time>
      </trkpt>
      <trkpt lat="46.996370" lon="10.580133">
        <ele>975.313417</ele>
        <time>2024-08-23T10:21:04.000Z</time>
      </trkpt>
      <trkpt lat="46.996341" lon="10.580056">
        <ele>975.220497</ele>
        <time>2024-08-23T10:21:05.000Z</time>
      </trkpt>
      <trkpt lat="46.996296" lon="10.579928">
        <ele>975.068373</ele>
        <time>2024-08-23T10:21:06.000Z</time>
      </trkpt>
      <trkpt lat="46.996262" lon="10.579841">
        <ele>974.962450</ele>
        <time>2024-08-23T10:21:07.000Z</time>
      </trkpt>
      <trkpt lat="46.996226" lon="10.579752">
        <ele>974.901071</ele>
        <time>2024-08-23T10:21:08.000Z</time>
      </trkpt>
      <trkpt lat="46.996192" lon="10.579662">
        <ele>974.846897</ele>
        <time>2024-08-23T10:21:09.000Z</time>
      </trkpt>
      <trkpt lat="46.996133" lon="10.579531">
        <ele>974.764237</ele>
        <time>2024-08-23T10:21:10.000Z</time>
      </trkpt>
      <trkpt lat="46.996094" lon="10.579444">
        <ele>974.709418</ele>
        <time>2024-08-23T10:21:11.000Z</time>
      </trkpt>
      <trkpt lat="46.996052" lon="10.579359">
        <ele>974.654150</ele>
        <time>2024-08-23T10:21:12.000Z</time>
      </trkpt>
      <trkpt lat="46.996012" lon="10.579273">
        <ele>974.599339</ele>
        <time>2024-08-23T10:21:13.000Z</time>
      </trkpt>
      <trkpt lat="46.995973" lon="10.579187">
        <ele>974.544959</ele>
        <time>2024-08-23T10:21:14.000Z</time>
      </trkpt>
      <trkpt lat="46.995907" lon="10.579073">
        <ele>974.466222</ele>
        <time>2024-08-23T10:21:15.000Z</time>
      </trkpt>
      <trkpt lat="46.995859" lon="10.579003">
        <ele>974.413955</ele>
        <time>2024-08-23T10:21:16.000Z</time>
      </trkpt>
      <trkpt lat="46.995808" lon="10.578936">
        <ele>974.361089</ele>
        <time>2024-08-23T10:21:17.000Z</time>
      </trkpt>
      <trkpt lat="46.995757" lon="10.578870">
        <ele>974.308572</ele>
        <time>2024-08-23T10:21:18.000Z</time>
      </trkpt>
      <trkpt lat="46.995705" lon="10.578804">
        <ele>974.255475</ele>
        <time>2024-08-23T10:21:19.000Z</time>
      </trkpt>
      <trkpt lat="46.995628" lon="10.578711">
        <ele>974.178456</ele>
        <time>2024-08-23T10:21:20.000Z</time>
      </trkpt>
      <trkpt lat="46.995579" lon="10.578649">
        <ele>974.128488</ele>
        <time>2024-08-23T10:21:21.000Z</time>
      </trkpt>
      <trkpt lat="46.995531" lon="10.578589">
        <ele>974.079791</ele>
        <time>2024-08-23T10:21:22.000Z</time>
      </trkpt>
      <trkpt lat="46.995485" lon="10.578532">
        <ele>974.033294</ele>
        <time>2024-08-23T10:21:23.000Z</time>
      </trkpt>
      <trkpt lat="46.995421" lon="10.578442">
        <ele>973.964832</ele>
        <time>2024-08-23T10:21:24.000Z</time>
      </trkpt>
      <trkpt lat="46.995380" lon="10.578387">
        <ele>973.921929</ele>
        <time>2024-08-23T10:21:25.000Z</time>
      </trkpt>
      <trkpt lat="46.995339" lon="10.578331">
        <ele>973.878669</ele>
        <time>2024-08-23T10:21:26.000Z</time>
      </trkpt>
      <trkpt lat="46.995303" lon="10.578275">
        <ele>973.838148</ele>
        <time>2024-08-23T10:21:27.000Z</time>
      </trkpt>
      <trkpt lat="46.995267" lon="10.578224">
        <ele>973.799501</ele>
        <time>2024-08-23T10:21:28.000Z</time>
      </trkpt>
      <trkpt lat="46.995212" lon="10.578142">
        <ele>973.738943</ele>
        <time>2024-08-23T10:21:29.000Z</time>
      </trkpt>
      <trkpt lat="46.995180" lon="10.578088">
        <ele>973.701276</ele>
        <time>2024-08-23T10:21:30.000Z</time>
      </trkpt>
      <trkpt lat="46.995145" lon="10.578038">
        <ele>973.663549</ele>
        <time>2024-08-23T10:21:31.000Z</time>
      </trkpt>
      <trkpt lat="46.995111" lon="10.577988">
        <ele>973.626372</ele>
        <time>2024-08-23T10:21:32.000Z</time>
      </trkpt>
      <trkpt lat="46.995058" lon="10.577914">
        <ele>973.569869</ele>
        <time>2024-08-23T10:21:33.000Z</time>
      </trkpt>
      <trkpt lat="46.995028" lon="10.577864">
        <ele>973.508700</ele>
        <time>2024-08-23T10:21:34.000Z</time>
      </trkpt>
      <trkpt lat="46.994998" lon="10.577811">
        <ele>973.435036</ele>
        <time>2024-08-23T10:21:35.000Z</time>
      </trkpt>
      <trkpt lat="46.994965" lon="10.577756">
        <ele>973.356688</ele>
        <time>2024-08-23T10:21:36.000Z</time>
      </trkpt>
      <trkpt lat="46.994930" lon="10.577700">
        <ele>973.275449</ele>
        <time>2024-08-23T10:21:37.000Z</time>
      </trkpt>
      <trkpt lat="46.994873" lon="10.577619">
        <ele>973.150971</ele>
        <time>2024-08-23T10:21:38.000Z</time>
      </trkpt>
      <trkpt lat="46.994833" lon="10.577563">
        <ele>973.064243</ele>
        <time>2024-08-23T10:21:39.000Z</time>
      </trkpt>
      <trkpt lat="46.994797" lon="10.577500">
        <ele>972.976338</ele>
        <time>2024-08-23T10:21:40.000Z</time>
      </trkpt>
      <trkpt lat="46.994762" lon="10.577437">
        <ele>972.889432</ele>
        <time>2024-08-23T10:21:41.000Z</time>
      </trkpt>
      <trkpt lat="46.994710" lon="10.577339">
        <ele>972.756632</ele>
        <time>2024-08-23T10:21:42.000Z</time>
      </trkpt>
      <trkpt lat="46.994677" lon="10.577276">
        <ele>972.671672</ele>
        <time>2024-08-23T10:21:43.000Z</time>
      </trkpt>
      <trkpt lat="46.994641" lon="10.577210">
        <ele>972.581284</ele>
        <time>2024-08-23T10:21:44.000Z</time>
      </trkpt>
      <trkpt lat="46.994607" lon="10.577143">
        <ele>972.491965</ele>
        <time>2024-08-23T10:21:45.000Z</time>
      </trkpt>
      <trkpt lat="46.994573" lon="10.577079">
        <ele>972.405199</ele>
        <time>2024-08-23T10:21:46.000Z</time>
      </trkpt>
      <trkpt lat="46.994516" lon="10.576988">
        <ele>972.273053</ele>
        <time>2024-08-23T10:21:47.000Z</time>
      </trkpt>
      <trkpt lat="46.994480" lon="10.576927">
        <ele>972.186777</ele>
        <time>2024-08-23T10:21:48.000Z</time>
      </trkpt>
      <trkpt lat="46.994444" lon="10.576861">
        <ele>972.096389</ele>
        <time>2024-08-23T10:21:49.000Z</time>
      </trkpt>
      <trkpt lat="46.994410" lon="10.576795">
        <ele>972.007925</ele>
        <time>2024-08-23T10:21:50.000Z</time>
      </trkpt>
      <trkpt lat="46.994354" lon="10.576699">
        <ele>971.872817</ele>
        <time>2024-08-23T10:21:51.000Z</time>
      </trkpt>
      <trkpt lat="46.994318" lon="10.576631">
        <ele>971.780748</ele>
        <time>2024-08-23T10:21:52.000Z</time>
      </trkpt>
      <trkpt lat="46.994280" lon="10.576562">
        <ele>971.685894</ele>
        <time>2024-08-23T10:21:53.000Z</time>
      </trkpt>
      <trkpt lat="46.994242" lon="10.576494">
        <ele>971.591869</ele>
        <time>2024-08-23T10:21:54.000Z</time>
      </trkpt>
      <trkpt lat="46.994183" lon="10.576391">
        <ele>971.448007</ele>
        <time>2024-08-23T10:21:55.000Z</time>
      </trkpt>
      <trkpt lat="46.994143" lon="10.576322">
        <ele>971.351152</ele>
        <time>2024-08-23T10:21:56.000Z</time>
      </trkpt>
      <trkpt lat="46.994103" lon="10.576256">
        <ele>971.256719</ele>
        <time>2024-08-23T10:21:57.000Z</time>
      </trkpt>
      <trkpt lat="46.994064" lon="10.576190">
        <ele>971.163320</ele>
        <time>2024-08-23T10:21:58.000Z</time>
      </trkpt>
      <trkpt lat="46.994024" lon="10.576123">
        <ele>971.068084</ele>
        <time>2024-08-23T10:21:59.000Z</time>
      </trkpt>
      <trkpt lat="46.993962" lon="10.576021">
        <ele>970.921952</ele>
        <time>2024-08-23T10:22:00.000Z</time>
      </trkpt>
      <trkpt lat="46.993919" lon="10.575953">
        <ele>970.822773</ele>
        <time>2024-08-23T10:22:01.000Z</time>
      </trkpt>
      <trkpt lat="46.993878" lon="10.575890">
        <ele>970.726158</ele>
        <time>2024-08-23T10:22:02.000Z</time>
      </trkpt>
      <trkpt lat="46.993834" lon="10.575831">
        <ele>970.600074</ele>
        <time>2024-08-23T10:22:03.000Z</time>
      </trkpt>
      <trkpt lat="46.993772" lon="10.575744">
        <ele>970.418602</ele>
        <time>2024-08-23T10:22:04.000Z</time>
      </trkpt>
      <trkpt lat="46.993728" lon="10.575685">
        <ele>970.292518</ele>
        <time>2024-08-23T10:22:05.000Z</time>
      </trkpt>
      <trkpt lat="46.993681" lon="10.575628">
        <ele>970.163540</ele>
        <time>2024-08-23T10:22:06.000Z</time>
      </trkpt>
      <trkpt lat="46.993631" lon="10.575574">
        <ele>970.032225</ele>
        <time>2024-08-23T10:22:07.000Z</time>
      </trkpt>
      <trkpt lat="46.993580" lon="10.575521">
        <ele>969.900040</ele>
        <time>2024-08-23T10:22:08.000Z</time>
      </trkpt>
      <trkpt lat="46.993502" lon="10.575444">
        <ele>969.701203</ele>
        <time>2024-08-23T10:22:09.000Z</time>
      </trkpt>
      <trkpt lat="46.993455" lon="10.575393">
        <ele>969.577561</ele>
        <time>2024-08-23T10:22:10.000Z</time>
      </trkpt>
      <trkpt lat="46.993412" lon="10.575351">
        <ele>969.468306</ele>
        <time>2024-08-23T10:22:11.000Z</time>
      </trkpt>
      <trkpt lat="46.993376" lon="10.575307">
        <ele>969.369200</ele>
        <time>2024-08-23T10:22:12.000Z</time>
      </trkpt>
      <trkpt lat="46.993338" lon="10.575263">
        <ele>969.266811</ele>
        <time>2024-08-23T10:22:13.000Z</time>
      </trkpt>
      <trkpt lat="46.993291" lon="10.575208">
        <ele>969.139651</ele>
        <time>2024-08-23T10:22:14.000Z</time>
      </trkpt>
      <trkpt lat="46.993270" lon="10.575185">
        <ele>969.084224</ele>
        <time>2024-08-23T10:22:15.000Z</time>
      </trkpt>
      <trkpt lat="46.993250" lon="10.575167">
        <ele>969.034601</ele>
        <time>2024-08-23T10:22:16.000Z</time>
      </trkpt>
      <trkpt lat="46.993233" lon="10.575151">
        <ele>968.991884</ele>
        <time>2024-08-23T10:22:17.000Z</time>
      </trkpt>
      <trkpt lat="46.993204" lon="10.575135">
        <ele>968.926364</ele>
        <time>2024-08-23T10:22:18.000Z</time>
      </trkpt>
      <trkpt lat="46.993181" lon="10.575135">
        <ele>968.877730</ele>
        <time>2024-08-23T10:22:19.000Z</time>
      </trkpt>
      <trkpt lat="46.993159" lon="10.575137">
        <ele>968.831121</ele>
        <time>2024-08-23T10:22:20.000Z</time>
      </trkpt>
      <trkpt lat="46.993136" lon="10.575147">
        <ele>968.780394</ele>
        <time>2024-08-23T10:22:21.000Z</time>
      </trkpt>
      <trkpt lat="46.993112" lon="10.575156">
        <ele>968.728012</ele>
        <time>2024-08-23T10:22:22.000Z</time>
      </trkpt>
      <trkpt lat="46.993069" lon="10.575164">
        <ele>968.636358</ele>
        <time>2024-08-23T10:22:23.000Z</time>
      </trkpt>
      <trkpt lat="46.993039" lon="10.575168">
        <ele>968.572660</ele>
        <time>2024-08-23T10:22:24.000Z</time>
      </trkpt>
      <trkpt lat="46.993011" lon="10.575178">
        <ele>968.511722</ele>
        <time>2024-08-23T10:22:25.000Z</time>
      </trkpt>
      <trkpt lat="46.992983" lon="10.575195">
        <ele>968.447639</ele>
        <time>2024-08-23T10:22:26.000Z</time>
      </trkpt>
      <trkpt lat="46.992957" lon="10.575212">
        <ele>968.387442</ele>
        <time>2024-08-23T10:22:27.000Z</time>
      </trkpt>
      <trkpt lat="46.992922" lon="10.575231">
        <ele>968.308523</ele>
        <time>2024-08-23T10:22:28.000Z</time>
      </trkpt>
      <trkpt lat="46.992899" lon="10.575243">
        <ele>968.256901</ele>
        <time>2024-08-23T10:22:29.000Z</time>
      </trkpt>
      <trkpt lat="46.992873" lon="10.575255">
        <ele>968.199264</ele>
        <time>2024-08-23T10:22:30.000Z</time>
      </trkpt>
      <trkpt lat="46.992848" lon="10.575271">
        <ele>968.141583</ele>
        <time>2024-08-23T10:22:31.000Z</time>
      </trkpt>
      <trkpt lat="46.992813" lon="10.575313">
        <ele>968.045945</ele>
        <time>2024-08-23T10:22:32.000Z</time>
      </trkpt>
      <trkpt lat="46.992790" lon="10.575344">
        <ele>967.979881</ele>
        <time>2024-08-23T10:22:33.000Z</time>
      </trkpt>
      <trkpt lat="46.992767" lon="10.575382">
        <ele>967.906607</ele>
        <time>2024-08-23T10:22:34.000Z</time>
      </trkpt>
      <trkpt lat="46.992749" lon="10.575427">
        <ele>967.831367</ele>
        <time>2024-08-23T10:22:35.000Z</time>
      </trkpt>
      <trkpt lat="46.992727" lon="10.575507">
        <ele>967.706958</ele>
        <time>2024-08-23T10:22:36.000Z</time>
      </trkpt>
      <trkpt lat="46.992715" lon="10.575565">
        <ele>967.619541</ele>
        <time>2024-08-23T10:22:37.000Z</time>
      </trkpt>
      <trkpt lat="46.992703" lon="10.575629">
        <ele>967.523810</ele>
        <time>2024-08-23T10:22:38.000Z</time>
      </trkpt>
      <trkpt lat="46.992689" lon="10.575696">
        <ele>967.422743</ele>
        <time>2024-08-23T10:22:39.000Z</time>
      </trkpt>
      <trkpt lat="46.992659" lon="10.575794">
        <ele>967.267816</ele>
        <time>2024-08-23T10:22:40.000Z</time>
      </trkpt>
      <trkpt lat="46.992638" lon="10.575853">
        <ele>967.171831</ele>
        <time>2024-08-23T10:22:41.000Z</time>
      </trkpt>
      <trkpt lat="46.992617" lon="10.575907">
        <ele>967.082177</ele>
        <time>2024-08-23T10:22:42.000Z</time>
      </trkpt>
      <trkpt lat="46.992599" lon="10.575949">
        <ele>967.010636</ele>
        <time>2024-08-23T10:22:43.000Z</time>
      </trkpt>
      <trkpt lat="46.992582" lon="10.575993">
        <ele>966.937701</ele>
        <time>2024-08-23T10:22:44.000Z</time>
      </trkpt>
      <trkpt lat="46.992565" lon="10.576039">
        <ele>966.823782</ele>
        <time>2024-08-23T10:22:45.000Z</time>
      </trkpt>
      <trkpt lat="46.992540" lon="10.576111">
        <ele>966.646782</ele>
        <time>2024-08-23T10:22:46.000Z</time>
      </trkpt>
      <trkpt lat="46.992525" lon="10.576160">
        <ele>966.529116</ele>
        <time>2024-08-23T10:22:47.000Z</time>
      </trkpt>
      <trkpt lat="46.992509" lon="10.576209">
        <ele>966.410100</ele>
        <time>2024-08-23T10:22:48.000Z</time>
      </trkpt>
      <trkpt lat="46.992481" lon="10.576282">
        <ele>966.226619</ele>
        <time>2024-08-23T10:22:49.000Z</time>
      </trkpt>
      <trkpt lat="46.992459" lon="10.576312">
        <ele>966.130116</ele>
        <time>2024-08-23T10:22:50.000Z</time>
      </trkpt>
      <trkpt lat="46.992446" lon="10.576332">
        <ele>966.069590</ele>
        <time>2024-08-23T10:22:51.000Z</time>
      </trkpt>
      <trkpt lat="46.992441" lon="10.576339">
        <ele>966.047385</ele>
        <time>2024-08-23T10:22:52.000Z</time>
      </trkpt>
      <trkpt lat="46.992441" lon="10.576337">
        <ele>966.043003</ele>
        <time>2024-08-23T10:22:53.000Z</time>
      </trkpt>
      <trkpt lat="46.992385" lon="10.576438">
        <ele>965.757848</ele>
        <time>2024-08-23T10:24:54.000Z</time>
      </trkpt>
      <trkpt lat="46.992378" lon="10.576469">
        <ele>965.686308</ele>
        <time>2024-08-23T10:24:55.000Z</time>
      </trkpt>
      <trkpt lat="46.992364" lon="10.576516">
        <ele>965.573949</ele>
        <time>2024-08-23T10:24:56.000Z</time>
      </trkpt>
      <trkpt lat="46.992351" lon="10.576551">
        <ele>965.486639</ele>
        <time>2024-08-23T10:24:57.000Z</time>
      </trkpt>
      <trkpt lat="46.992340" lon="10.576578">
        <ele>965.417739</ele>
        <time>2024-08-23T10:24:58.000Z</time>
      </trkpt>
      <trkpt lat="46.992329" lon="10.576603">
        <ele>965.352562</ele>
        <time>2024-08-23T10:24:59.000Z</time>
      </trkpt>
      <trkpt lat="46.992314" lon="10.576642">
        <ele>965.254473</ele>
        <time>2024-08-23T10:25:00.000Z</time>
      </trkpt>
      <trkpt lat="46.992304" lon="10.576672">
        <ele>965.181320</ele>
        <time>2024-08-23T10:25:01.000Z</time>
      </trkpt>
      <trkpt lat="46.992292" lon="10.576696">
        <ele>965.116126</ele>
        <time>2024-08-23T10:25:02.000Z</time>
      </trkpt>
      <trkpt lat="46.992278" lon="10.576717">
        <ele>965.051794</ele>
        <time>2024-08-23T10:25:03.000Z</time>
      </trkpt>
      <trkpt lat="46.992259" lon="10.576733">
        <ele>964.981417</ele>
        <time>2024-08-23T10:25:04.000Z</time>
      </trkpt>
      <trkpt lat="46.992225" lon="10.576747">
        <ele>964.867987</ele>
        <time>2024-08-23T10:25:05.000Z</time>
      </trkpt>
      <trkpt lat="46.992198" lon="10.576740">
        <ele>964.779921</ele>
        <time>2024-08-23T10:25:06.000Z</time>
      </trkpt>
      <trkpt lat="46.992168" lon="10.576722">
        <ele>964.675806</ele>
        <time>2024-08-23T10:25:07.000Z</time>
      </trkpt>
      <trkpt lat="46.992135" lon="10.576693">
        <ele>964.552231</ele>
        <time>2024-08-23T10:25:08.000Z</time>
      </trkpt>
      <trkpt lat="46.992079" lon="10.576633">
        <ele>964.329451</ele>
        <time>2024-08-23T10:25:09.000Z</time>
      </trkpt>
      <trkpt lat="46.992040" lon="10.576588">
        <ele>964.170044</ele>
        <time>2024-08-23T10:25:10.000Z</time>
      </trkpt>
      <trkpt lat="46.991997" lon="10.576548">
        <ele>964.006477</ele>
        <time>2024-08-23T10:25:11.000Z</time>
      </trkpt>
      <trkpt lat="46.991954" lon="10.576512">
        <ele>963.847432</ele>
        <time>2024-08-23T10:25:12.000Z</time>
      </trkpt>
      <trkpt lat="46.991889" lon="10.576463">
        <ele>963.612676</ele>
        <time>2024-08-23T10:25:13.000Z</time>
      </trkpt>
      <trkpt lat="46.991847" lon="10.576435">
        <ele>963.464484</ele>
        <time>2024-08-23T10:25:14.000Z</time>
      </trkpt>
      <trkpt lat="46.991808" lon="10.576403">
        <ele>963.320936</ele>
        <time>2024-08-23T10:25:15.000Z</time>
      </trkpt>
      <trkpt lat="46.991770" lon="10.576376">
        <ele>963.185305</ele>
        <time>2024-08-23T10:25:16.000Z</time>
      </trkpt>
      <trkpt lat="46.991732" lon="10.576351">
        <ele>963.051527</ele>
        <time>2024-08-23T10:25:17.000Z</time>
      </trkpt>
      <trkpt lat="46.991674" lon="10.576304">
        <ele>962.838673</ele>
        <time>2024-08-23T10:25:18.000Z</time>
      </trkpt>
      <trkpt lat="46.991634" lon="10.576276">
        <ele>962.696304</ele>
        <time>2024-08-23T10:25:19.000Z</time>
      </trkpt>
      <trkpt lat="46.991592" lon="10.576252">
        <ele>962.551519</ele>
        <time>2024-08-23T10:25:20.000Z</time>
      </trkpt>
      <trkpt lat="46.991549" lon="10.576228">
        <ele>962.403737</ele>
        <time>2024-08-23T10:25:21.000Z</time>
      </trkpt>
      <trkpt lat="46.991505" lon="10.576202">
        <ele>962.251366</ele>
        <time>2024-08-23T10:25:22.000Z</time>
      </trkpt>
      <trkpt lat="46.991438" lon="10.576160">
        <ele>962.017322</ele>
        <time>2024-08-23T10:25:23.000Z</time>
      </trkpt>
      <trkpt lat="46.991397" lon="10.576132">
        <ele>961.872047</ele>
        <time>2024-08-23T10:25:24.000Z</time>
      </trkpt>
      <trkpt lat="46.991358" lon="10.576105">
        <ele>961.733519</ele>
        <time>2024-08-23T10:25:25.000Z</time>
      </trkpt>
      <trkpt lat="46.991319" lon="10.576079">
        <ele>961.595912</ele>
        <time>2024-08-23T10:25:26.000Z</time>
      </trkpt>
      <trkpt lat="46.991259" lon="10.576039">
        <ele>961.384208</ele>
        <time>2024-08-23T10:25:27.000Z</time>
      </trkpt>
      <trkpt lat="46.991219" lon="10.576007">
        <ele>961.237849</ele>
        <time>2024-08-23T10:25:28.000Z</time>
      </trkpt>
      <trkpt lat="46.991176" lon="10.575974">
        <ele>961.239749</ele>
        <time>2024-08-23T10:25:29.000Z</time>
      </trkpt>
      <trkpt lat="46.991131" lon="10.575940">
        <ele>961.408875</ele>
        <time>2024-08-23T10:25:30.000Z</time>
      </trkpt>
      <trkpt lat="46.991086" lon="10.575911">
        <ele>961.573095</ele>
        <time>2024-08-23T10:25:31.000Z</time>
      </trkpt>
      <trkpt lat="46.991021" lon="10.575868">
        <ele>961.811330</ele>
        <time>2024-08-23T10:25:32.000Z</time>
      </trkpt>
      <trkpt lat="46.990976" lon="10.575842">
        <ele>961.972920</ele>
        <time>2024-08-23T10:25:33.000Z</time>
      </trkpt>
      <trkpt lat="46.990932" lon="10.575815">
        <ele>962.132272</ele>
        <time>2024-08-23T10:25:34.000Z</time>
      </trkpt>
      <trkpt lat="46.990891" lon="10.575786">
        <ele>962.284353</ele>
        <time>2024-08-23T10:25:35.000Z</time>
      </trkpt>
      <trkpt lat="46.990828" lon="10.575739">
        <ele>962.520506</ele>
        <time>2024-08-23T10:25:36.000Z</time>
      </trkpt>
      <trkpt lat="46.990786" lon="10.575712">
        <ele>962.673717</ele>
        <time>2024-08-23T10:25:37.000Z</time>
      </trkpt>
      <trkpt lat="46.990742" lon="10.575684">
        <ele>962.833962</ele>
        <time>2024-08-23T10:25:38.000Z</time>
      </trkpt>
      <trkpt lat="46.990697" lon="10.575655">
        <ele>962.998182</ele>
        <time>2024-08-23T10:25:39.000Z</time>
      </trkpt>
      <trkpt lat="46.990651" lon="10.575625">
        <ele>963.166378</ele>
        <time>2024-08-23T10:25:40.000Z</time>
      </trkpt>
      <trkpt lat="46.990581" lon="10.575584">
        <ele>963.418207</ele>
        <time>2024-08-23T10:25:41.000Z</time>
      </trkpt>
      <trkpt lat="46.990535" lon="10.575562">
        <ele>963.579854</ele>
        <time>2024-08-23T10:25:42.000Z</time>
      </trkpt>
      <trkpt lat="46.990489" lon="10.575542">
        <ele>963.740146</ele>
        <time>2024-08-23T10:25:43.000Z</time>
      </trkpt>
      <trkpt lat="46.990443" lon="10.575523">
        <ele>963.899805</ele>
        <time>2024-08-23T10:25:44.000Z</time>
      </trkpt>
      <trkpt lat="46.990372" lon="10.575498">
        <ele>964.143746</ele>
        <time>2024-08-23T10:25:45.000Z</time>
      </trkpt>
      <trkpt lat="46.990326" lon="10.575480">
        <ele>964.302803</ele>
        <time>2024-08-23T10:25:46.000Z</time>
      </trkpt>
      <trkpt lat="46.990281" lon="10.575460">
        <ele>964.459895</ele>
        <time>2024-08-23T10:25:47.000Z</time>
      </trkpt>
      <trkpt lat="46.990238" lon="10.575439">
        <ele>964.611310</ele>
        <time>2024-08-23T10:25:48.000Z</time>
      </trkpt>
      <trkpt lat="46.990196" lon="10.575420">
        <ele>964.758152</ele>
        <time>2024-08-23T10:25:49.000Z</time>
      </trkpt>
      <trkpt lat="46.990135" lon="10.575390">
        <ele>964.973101</ele>
        <time>2024-08-23T10:25:50.000Z</time>
      </trkpt>
      <trkpt lat="46.990098" lon="10.575371">
        <ele>965.104074</ele>
        <time>2024-08-23T10:25:51.000Z</time>
      </trkpt>
      <trkpt lat="46.990064" lon="10.575360">
        <ele>965.220394</ele>
        <time>2024-08-23T10:25:52.000Z</time>
      </trkpt>
      <trkpt lat="46.990031" lon="10.575349">
        <ele>965.333454</ele>
        <time>2024-08-23T10:25:53.000Z</time>
      </trkpt>
      <trkpt lat="46.989975" lon="10.575331">
        <ele>965.524982</ele>
        <time>2024-08-23T10:25:54.000Z</time>
      </trkpt>
      <trkpt lat="46.989938" lon="10.575323">
        <ele>965.649928</ele>
        <time>2024-08-23T10:25:55.000Z</time>
      </trkpt>
      <trkpt lat="46.989903" lon="10.575319">
        <ele>965.767210</ele>
        <time>2024-08-23T10:25:56.000Z</time>
      </trkpt>
      <trkpt lat="46.989866" lon="10.575309">
        <ele>965.892902</ele>
        <time>2024-08-23T10:25:57.000Z</time>
      </trkpt>
      <trkpt lat="46.989830" lon="10.575297">
        <ele>966.016240</ele>
        <time>2024-08-23T10:25:58.000Z</time>
      </trkpt>
      <trkpt lat="46.989776" lon="10.575278">
        <ele>966.201766</ele>
        <time>2024-08-23T10:25:59.000Z</time>
      </trkpt>
      <trkpt lat="46.989741" lon="10.575268">
        <ele>966.320894</ele>
        <time>2024-08-23T10:26:00.000Z</time>
      </trkpt>
      <trkpt lat="46.989706" lon="10.575262">
        <ele>966.438618</ele>
        <time>2024-08-23T10:26:01.000Z</time>
      </trkpt>
      <trkpt lat="46.989671" lon="10.575254">
        <ele>966.556958</ele>
        <time>2024-08-23T10:26:02.000Z</time>
      </trkpt>
      <trkpt lat="46.989623" lon="10.575246">
        <ele>966.718349</ele>
        <time>2024-08-23T10:26:03.000Z</time>
      </trkpt>
      <trkpt lat="46.989590" lon="10.575236">
        <ele>966.830925</ele>
        <time>2024-08-23T10:26:04.000Z</time>
      </trkpt>
      <trkpt lat="46.989559" lon="10.575224">
        <ele>966.938039</ele>
        <time>2024-08-23T10:26:05.000Z</time>
      </trkpt>
      <trkpt lat="46.989527" lon="10.575210">
        <ele>967.049603</ele>
        <time>2024-08-23T10:26:06.000Z</time>
      </trkpt>
      <trkpt lat="46.989495" lon="10.575200">
        <ele>967.158910</ele>
        <time>2024-08-23T10:26:07.000Z</time>
      </trkpt>
      <trkpt lat="46.989448" lon="10.575188">
        <ele>967.307024</ele>
        <time>2024-08-23T10:26:08.000Z</time>
      </trkpt>
      <trkpt lat="46.989415" lon="10.575180">
        <ele>967.410380</ele>
        <time>2024-08-23T10:26:09.000Z</time>
      </trkpt>
      <trkpt lat="46.989382" lon="10.575172">
        <ele>967.513736</ele>
        <time>2024-08-23T10:26:10.000Z</time>
      </trkpt>
      <trkpt lat="46.989349" lon="10.575162">
        <ele>967.617863</ele>
        <time>2024-08-23T10:26:11.000Z</time>
      </trkpt>
      <trkpt lat="46.989298" lon="10.575154">
        <ele>967.776355</ele>
        <time>2024-08-23T10:26:12.000Z</time>
      </trkpt>
      <trkpt lat="46.989264" lon="10.575145">
        <ele>967.883115</ele>
        <time>2024-08-23T10:26:13.000Z</time>
      </trkpt>
      <trkpt lat="46.989229" lon="10.575133">
        <ele>967.994184</ele>
        <time>2024-08-23T10:26:14.000Z</time>
      </trkpt>
      <trkpt lat="46.989192" lon="10.575123">
        <ele>968.110442</ele>
        <time>2024-08-23T10:26:15.000Z</time>
      </trkpt>
      <trkpt lat="46.989155" lon="10.575113">
        <ele>968.226701</ele>
        <time>2024-08-23T10:26:16.000Z</time>
      </trkpt>
      <trkpt lat="46.989097" lon="10.575107">
        <ele>968.406368</ele>
        <time>2024-08-23T10:26:17.000Z</time>
      </trkpt>
      <trkpt lat="46.989059" lon="10.575098">
        <ele>968.525312</ele>
        <time>2024-08-23T10:26:18.000Z</time>
      </trkpt>
      <trkpt lat="46.989023" lon="10.575085">
        <ele>968.639879</ele>
        <time>2024-08-23T10:26:19.000Z</time>
      </trkpt>
      <trkpt lat="46.988984" lon="10.575077">
        <ele>968.761564</ele>
        <time>2024-08-23T10:26:20.000Z</time>
      </trkpt>
      <trkpt lat="46.988923" lon="10.575078">
        <ele>968.950068</ele>
        <time>2024-08-23T10:26:21.000Z</time>
      </trkpt>
      <trkpt lat="46.988883" lon="10.575077">
        <ele>969.073687</ele>
        <time>2024-08-23T10:26:22.000Z</time>
      </trkpt>
      <trkpt lat="46.988839" lon="10.575079">
        <ele>969.209714</ele>
        <time>2024-08-23T10:26:23.000Z</time>
      </trkpt>
      <trkpt lat="46.988797" lon="10.575078">
        <ele>969.339513</ele>
        <time>2024-08-23T10:26:24.000Z</time>
      </trkpt>
      <trkpt lat="46.988755" lon="10.575072">
        <ele>969.469909</ele>
        <time>2024-08-23T10:26:25.000Z</time>
      </trkpt>
      <trkpt lat="46.988685" lon="10.575048">
        <ele>969.692048</ele>
        <time>2024-08-23T10:26:26.000Z</time>
      </trkpt>
      <trkpt lat="46.988639" lon="10.575021">
        <ele>969.845160</ele>
        <time>2024-08-23T10:26:27.000Z</time>
      </trkpt>
      <trkpt lat="46.988592" lon="10.574984">
        <ele>970.010008</ele>
        <time>2024-08-23T10:26:28.000Z</time>
      </trkpt>
      <trkpt lat="46.988549" lon="10.574942">
        <ele>970.169671</ele>
        <time>2024-08-23T10:26:29.000Z</time>
      </trkpt>
      <trkpt lat="46.988486" lon="10.574869">
        <ele>970.417813</ele>
        <time>2024-08-23T10:26:30.000Z</time>
      </trkpt>
      <trkpt lat="46.988448" lon="10.574820">
        <ele>970.574195</ele>
        <time>2024-08-23T10:26:31.000Z</time>
      </trkpt>
      <trkpt lat="46.988415" lon="10.574774">
        <ele>970.714906</ele>
        <time>2024-08-23T10:26:32.000Z</time>
      </trkpt>
      <trkpt lat="46.988374" lon="10.574734">
        <ele>970.867089</ele>
        <time>2024-08-23T10:26:33.000Z</time>
      </trkpt>
      <trkpt lat="46.988331" lon="10.574695">
        <ele>971.023335</ele>
        <time>2024-08-23T10:26:34.000Z</time>
      </trkpt>
      <trkpt lat="46.988268" lon="10.574646">
        <ele>971.243710</ele>
        <time>2024-08-23T10:26:35.000Z</time>
      </trkpt>
      <trkpt lat="46.988235" lon="10.574607">
        <ele>971.374691</ele>
        <time>2024-08-23T10:26:36.000Z</time>
      </trkpt>
      <trkpt lat="46.988201" lon="10.574559">
        <ele>971.520549</ele>
        <time>2024-08-23T10:26:37.000Z</time>
      </trkpt>
      <trkpt lat="46.988169" lon="10.574517">
        <ele>971.653271</ele>
        <time>2024-08-23T10:26:38.000Z</time>
      </trkpt>
      <trkpt lat="46.988124" lon="10.574453">
        <ele>971.847009</ele>
        <time>2024-08-23T10:26:39.000Z</time>
      </trkpt>
      <trkpt lat="46.988094" lon="10.574414">
        <ele>971.970910</ele>
        <time>2024-08-23T10:26:40.000Z</time>
      </trkpt>
      <trkpt lat="46.988058" lon="10.574372">
        <ele>972.113080</ele>
        <time>2024-08-23T10:26:41.000Z</time>
      </trkpt>
      <trkpt lat="46.988019" lon="10.574334">
        <ele>972.257783</ele>
        <time>2024-08-23T10:26:42.000Z</time>
      </trkpt>
      <trkpt lat="46.987976" lon="10.574273">
        <ele>972.442682</ele>
        <time>2024-08-23T10:26:43.000Z</time>
      </trkpt>
      <trkpt lat="46.987944" lon="10.574231">
        <ele>972.575404</ele>
        <time>2024-08-23T10:26:44.000Z</time>
      </trkpt>
      <trkpt lat="46.987907" lon="10.574183">
        <ele>972.727430</ele>
        <time>2024-08-23T10:26:45.000Z</time>
      </trkpt>
      <trkpt lat="46.987873" lon="10.574132">
        <ele>972.829722</ele>
        <time>2024-08-23T10:26:46.000Z</time>
      </trkpt>
      <trkpt lat="46.987838" lon="10.574097">
        <ele>972.918815</ele>
        <time>2024-08-23T10:26:47.000Z</time>
      </trkpt>
      <trkpt lat="46.987791" lon="10.574044">
        <ele>973.043507</ele>
        <time>2024-08-23T10:26:48.000Z</time>
      </trkpt>
      <trkpt lat="46.987755" lon="10.574002">
        <ele>973.140257</ele>
        <time>2024-08-23T10:26:49.000Z</time>
      </trkpt>
      <trkpt lat="46.987729" lon="10.573973">
        <ele>973.208958</ele>
        <time>2024-08-23T10:26:50.000Z</time>
      </trkpt>
      <trkpt lat="46.987707" lon="10.573939">
        <ele>973.276181</ele>
        <time>2024-08-23T10:26:51.000Z</time>
      </trkpt>
      <trkpt lat="46.987678" lon="10.573901">
        <ele>973.357974</ele>
        <time>2024-08-23T10:26:52.000Z</time>
      </trkpt>
      <trkpt lat="46.987631" lon="10.573847">
        <ele>973.483546</ele>
        <time>2024-08-23T10:26:53.000Z</time>
      </trkpt>
      <trkpt lat="46.987598" lon="10.573816">
        <ele>973.565965</ele>
        <time>2024-08-23T10:26:54.000Z</time>
      </trkpt>
      <trkpt lat="46.987562" lon="10.573786">
        <ele>973.653044</ele>
        <time>2024-08-23T10:26:55.000Z</time>
      </trkpt>
      <trkpt lat="46.987528" lon="10.573753">
        <ele>973.738792</ele>
        <time>2024-08-23T10:26:56.000Z</time>
      </trkpt>
      <trkpt lat="46.987479" lon="10.573705">
        <ele>973.862719</ele>
        <time>2024-08-23T10:26:57.000Z</time>
      </trkpt>
      <trkpt lat="46.987451" lon="10.573668">
        <ele>973.941990</ele>
        <time>2024-08-23T10:26:58.000Z</time>
      </trkpt>
      <trkpt lat="46.987421" lon="10.573627">
        <ele>974.028238</ele>
        <time>2024-08-23T10:26:59.000Z</time>
      </trkpt>
      <trkpt lat="46.987391" lon="10.573589">
        <ele>974.111611</ele>
        <time>2024-08-23T10:27:00.000Z</time>
      </trkpt>
      <trkpt lat="46.987359" lon="10.573545">
        <ele>974.203870</ele>
        <time>2024-08-23T10:27:01.000Z</time>
      </trkpt>
      <trkpt lat="46.987312" lon="10.573476">
        <ele>974.343745</ele>
        <time>2024-08-23T10:27:02.000Z</time>
      </trkpt>
      <trkpt lat="46.987280" lon="10.573431">
        <ele>974.436992</ele>
        <time>2024-08-23T10:27:03.000Z</time>
      </trkpt>
      <trkpt lat="46.987247" lon="10.573385">
        <ele>974.532750</ele>
        <time>2024-08-23T10:27:04.000Z</time>
      </trkpt>
      <trkpt lat="46.987220" lon="10.573324">
        <ele>974.637059</ele>
        <time>2024-08-23T10:27:05.000Z</time>
      </trkpt>
      <trkpt lat="46.987181" lon="10.573244">
        <ele>974.778109</ele>
        <time>2024-08-23T10:27:06.000Z</time>
      </trkpt>
      <trkpt lat="46.987158" lon="10.573198">
        <ele>974.859922</ele>
        <time>2024-08-23T10:27:07.000Z</time>
      </trkpt>
      <trkpt lat="46.987136" lon="10.573150">
        <ele>974.942875</ele>
        <time>2024-08-23T10:27:08.000Z</time>
      </trkpt>
      <trkpt lat="46.987108" lon="10.573103">
        <ele>975.032387</ele>
        <time>2024-08-23T10:27:09.000Z</time>
      </trkpt>
      <trkpt lat="46.987058" lon="10.573040">
        <ele>975.171031</ele>
        <time>2024-08-23T10:27:10.000Z</time>
      </trkpt>
      <trkpt lat="46.987024" lon="10.572991">
        <ele>975.271292</ele>
        <time>2024-08-23T10:27:11.000Z</time>
      </trkpt>
      <trkpt lat="46.986990" lon="10.572943">
        <ele>975.370554</ele>
        <time>2024-08-23T10:27:12.000Z</time>
      </trkpt>
      <trkpt lat="46.986954" lon="10.572903">
        <ele>975.465544</ele>
        <time>2024-08-23T10:27:13.000Z</time>
      </trkpt>
      <trkpt lat="46.986918" lon="10.572858">
        <ele>975.565032</ele>
        <time>2024-08-23T10:27:14.000Z</time>
      </trkpt>
      <trkpt lat="46.986860" lon="10.572796">
        <ele>975.715980</ele>
        <time>2024-08-23T10:27:15.000Z</time>
      </trkpt>
      <trkpt lat="46.986816" lon="10.572763">
        <ele>975.819912</ele>
        <time>2024-08-23T10:27:16.000Z</time>
      </trkpt>
      <trkpt lat="46.986765" lon="10.572732">
        <ele>975.936011</ele>
        <time>2024-08-23T10:27:17.000Z</time>
      </trkpt>
      <trkpt lat="46.986717" lon="10.572707">
        <ele>976.043129</ele>
        <time>2024-08-23T10:27:18.000Z</time>
      </trkpt>
      <trkpt lat="46.986642" lon="10.572674">
        <ele>976.207793</ele>
        <time>2024-08-23T10:27:19.000Z</time>
      </trkpt>
      <trkpt lat="46.986595" lon="10.572649">
        <ele>976.312932</ele>
        <time>2024-08-23T10:27:20.000Z</time>
      </trkpt>
      <trkpt lat="46.986548" lon="10.572619">
        <ele>976.420728</ele>
        <time>2024-08-23T10:27:21.000Z</time>
      </trkpt>
      <trkpt lat="46.986500" lon="10.572585">
        <ele>976.434249</ele>
        <time>2024-08-23T10:27:22.000Z</time>
      </trkpt>
      <trkpt lat="46.986453" lon="10.572541">
        <ele>976.079938</ele>
        <time>2024-08-23T10:27:23.000Z</time>
      </trkpt>
      <trkpt lat="46.986380" lon="10.572478">
        <ele>975.541728</ele>
        <time>2024-08-23T10:27:24.000Z</time>
      </trkpt>
      <trkpt lat="46.986328" lon="10.572433">
        <ele>975.158075</ele>
        <time>2024-08-23T10:27:25.000Z</time>
      </trkpt>
      <trkpt lat="46.986274" lon="10.572378">
        <ele>974.740304</ele>
        <time>2024-08-23T10:27:26.000Z</time>
      </trkpt>
      <trkpt lat="46.986214" lon="10.572326">
        <ele>974.297457</ele>
        <time>2024-08-23T10:27:27.000Z</time>
      </trkpt>
      <trkpt lat="46.986123" lon="10.572245">
        <ele>973.621054</ele>
        <time>2024-08-23T10:27:28.000Z</time>
      </trkpt>
      <trkpt lat="46.986064" lon="10.572184">
        <ele>973.162344</ele>
        <time>2024-08-23T10:27:29.000Z</time>
      </trkpt>
      <trkpt lat="46.986001" lon="10.572122">
        <ele>972.680241</ele>
        <time>2024-08-23T10:27:30.000Z</time>
      </trkpt>
      <trkpt lat="46.985938" lon="10.572059">
        <ele>972.195708</ele>
        <time>2024-08-23T10:27:31.000Z</time>
      </trkpt>
      <trkpt lat="46.985877" lon="10.572002">
        <ele>971.736103</ele>
        <time>2024-08-23T10:27:32.000Z</time>
      </trkpt>
      <trkpt lat="46.985776" lon="10.571934">
        <ele>971.029959</ele>
        <time>2024-08-23T10:27:33.000Z</time>
      </trkpt>
      <trkpt lat="46.985703" lon="10.571895">
        <ele>970.536315</ele>
        <time>2024-08-23T10:27:34.000Z</time>
      </trkpt>
      <trkpt lat="46.985629" lon="10.571852">
        <ele>970.030568</ele>
        <time>2024-08-23T10:27:35.000Z</time>
      </trkpt>
      <trkpt lat="46.985553" lon="10.571813">
        <ele>969.518974</ele>
        <time>2024-08-23T10:27:36.000Z</time>
      </trkpt>
      <trkpt lat="46.985444" lon="10.571755">
        <ele>968.782233</ele>
        <time>2024-08-23T10:27:37.000Z</time>
      </trkpt>
      <trkpt lat="46.985368" lon="10.571701">
        <ele>968.245638</ele>
        <time>2024-08-23T10:27:38.000Z</time>
      </trkpt>
      <trkpt lat="46.985298" lon="10.571636">
        <ele>967.719174</ele>
        <time>2024-08-23T10:27:39.000Z</time>
      </trkpt>
      <trkpt lat="46.985233" lon="10.571559">
        <ele>967.188205</ele>
        <time>2024-08-23T10:27:40.000Z</time>
      </trkpt>
      <trkpt lat="46.985167" lon="10.571477">
        <ele>966.638523</ele>
        <time>2024-08-23T10:27:41.000Z</time>
      </trkpt>
      <trkpt lat="46.985075" lon="10.571351">
        <ele>965.838584</ele>
        <time>2024-08-23T10:27:42.000Z</time>
      </trkpt>
      <trkpt lat="46.985014" lon="10.571266">
        <ele>965.303859</ele>
        <time>2024-08-23T10:27:43.000Z</time>
      </trkpt>
      <trkpt lat="46.984952" lon="10.571180">
        <ele>965.068467</ele>
        <time>2024-08-23T10:27:44.000Z</time>
      </trkpt>
      <trkpt lat="46.984891" lon="10.571097">
        <ele>965.048159</ele>
        <time>2024-08-23T10:27:45.000Z</time>
      </trkpt>
      <trkpt lat="46.984805" lon="10.570970">
        <ele>965.018374</ele>
        <time>2024-08-23T10:27:46.000Z</time>
      </trkpt>
      <trkpt lat="46.984745" lon="10.570885">
        <ele>964.998014</ele>
        <time>2024-08-23T10:27:47.000Z</time>
      </trkpt>
      <trkpt lat="46.984690" lon="10.570810">
        <ele>964.979686</ele>
        <time>2024-08-23T10:27:48.000Z</time>
      </trkpt>
      <trkpt lat="46.984638" lon="10.570738">
        <ele>964.962232</ele>
        <time>2024-08-23T10:27:49.000Z</time>
      </trkpt>
      <trkpt lat="46.984590" lon="10.570663">
        <ele>964.945115</ele>
        <time>2024-08-23T10:27:50.000Z</time>
      </trkpt>
      <trkpt lat="46.984515" lon="10.570555">
        <ele>964.919462</ele>
        <time>2024-08-23T10:27:51.000Z</time>
      </trkpt>
      <trkpt lat="46.984471" lon="10.570486">
        <ele>964.903740</ele>
        <time>2024-08-23T10:27:52.000Z</time>
      </trkpt>
      <trkpt lat="46.984426" lon="10.570418">
        <ele>964.887971</ele>
        <time>2024-08-23T10:27:53.000Z</time>
      </trkpt>
      <trkpt lat="46.984384" lon="10.570356">
        <ele>964.873427</ele>
        <time>2024-08-23T10:27:54.000Z</time>
      </trkpt>
      <trkpt lat="46.984320" lon="10.570260">
        <ele>964.851084</ele>
        <time>2024-08-23T10:27:55.000Z</time>
      </trkpt>
      <trkpt lat="46.984278" lon="10.570199">
        <ele>964.836658</ele>
        <time>2024-08-23T10:27:56.000Z</time>
      </trkpt>
      <trkpt lat="46.984238" lon="10.570135">
        <ele>964.822210</ele>
        <time>2024-08-23T10:27:57.000Z</time>
      </trkpt>
      <trkpt lat="46.984198" lon="10.570076">
        <ele>964.808364</ele>
        <time>2024-08-23T10:27:58.000Z</time>
      </trkpt>
      <trkpt lat="46.984151" lon="10.570022">
        <ele>964.793794</ele>
        <time>2024-08-23T10:27:59.000Z</time>
      </trkpt>
      <trkpt lat="46.984077" lon="10.569956">
        <ele>964.772658</ele>
        <time>2024-08-23T10:28:00.000Z</time>
      </trkpt>
      <trkpt lat="46.984023" lon="10.569914">
        <ele>964.757743</ele>
        <time>2024-08-23T10:28:01.000Z</time>
      </trkpt>
      <trkpt lat="46.983965" lon="10.569880">
        <ele>964.742501</ele>
        <time>2024-08-23T10:28:02.000Z</time>
      </trkpt>
      <trkpt lat="46.983906" lon="10.569852">
        <ele>964.727370</ele>
        <time>2024-08-23T10:28:03.000Z</time>
      </trkpt>
      <trkpt lat="46.983822" lon="10.569803">
        <ele>964.705311</ele>
        <time>2024-08-23T10:28:04.000Z</time>
      </trkpt>
      <trkpt lat="46.983766" lon="10.569758">
        <ele>964.689728</ele>
        <time>2024-08-23T10:28:05.000Z</time>
      </trkpt>
      <trkpt lat="46.983717" lon="10.569704">
        <ele>964.674771</ele>
        <time>2024-08-23T10:28:06.000Z</time>
      </trkpt>
      <trkpt lat="46.983675" lon="10.569641">
        <ele>964.660108</ele>
        <time>2024-08-23T10:28:07.000Z</time>
      </trkpt>
      <trkpt lat="46.983635" lon="10.569580">
        <ele>964.646024</ele>
        <time>2024-08-23T10:28:08.000Z</time>
      </trkpt>
      <trkpt lat="46.983573" lon="10.569486">
        <ele>964.657177</ele>
        <time>2024-08-23T10:28:09.000Z</time>
      </trkpt>
      <trkpt lat="46.983530" lon="10.569427">
        <ele>964.669682</ele>
        <time>2024-08-23T10:28:10.000Z</time>
      </trkpt>
      <trkpt lat="46.983485" lon="10.569372">
        <ele>964.682121</ele>
        <time>2024-08-23T10:28:11.000Z</time>
      </trkpt>
      <trkpt lat="46.983440" lon="10.569324">
        <ele>964.693936</ele>
        <time>2024-08-23T10:28:12.000Z</time>
      </trkpt>
      <trkpt lat="46.983390" lon="10.569279">
        <ele>964.706393</ele>
        <time>2024-08-23T10:28:13.000Z</time>
      </trkpt>
      <trkpt lat="46.983314" lon="10.569212">
        <ele>964.725221</ele>
        <time>2024-08-23T10:28:14.000Z</time>
      </trkpt>
      <trkpt lat="46.983261" lon="10.569166">
        <ele>964.738298</ele>
        <time>2024-08-23T10:28:15.000Z</time>
      </trkpt>
      <trkpt lat="46.983211" lon="10.569119">
        <ele>964.750908</ele>
        <time>2024-08-23T10:28:16.000Z</time>
      </trkpt>
      <trkpt lat="46.983135" lon="10.569048">
        <ele>964.770042</ele>
        <time>2024-08-23T10:28:17.000Z</time>
      </trkpt>
      <trkpt lat="46.983086" lon="10.569003">
        <ele>964.782318</ele>
        <time>2024-08-23T10:28:18.000Z</time>
      </trkpt>
      <trkpt lat="46.983037" lon="10.568962">
        <ele>964.794296</ele>
        <time>2024-08-23T10:28:19.000Z</time>
      </trkpt>
      <trkpt lat="46.982988" lon="10.568917">
        <ele>964.806572</ele>
        <time>2024-08-23T10:28:20.000Z</time>
      </trkpt>
      <trkpt lat="46.982938" lon="10.568869">
        <ele>964.819262</ele>
        <time>2024-08-23T10:28:21.000Z</time>
      </trkpt>
      <trkpt lat="46.982862" lon="10.568797">
        <ele>964.838473</ele>
        <time>2024-08-23T10:28:22.000Z</time>
      </trkpt>
      <trkpt lat="46.982813" lon="10.568747">
        <ele>964.851149</ele>
        <time>2024-08-23T10:28:23.000Z</time>
      </trkpt>
      <trkpt lat="46.982764" lon="10.568697">
        <ele>964.863824</ele>
        <time>2024-08-23T10:28:24.000Z</time>
      </trkpt>
      <trkpt lat="46.982714" lon="10.568650">
        <ele>964.876435</ele>
        <time>2024-08-23T10:28:25.000Z</time>
      </trkpt>
      <trkpt lat="46.982663" lon="10.568607">
        <ele>964.888926</ele>
        <time>2024-08-23T10:28:26.000Z</time>
      </trkpt>
      <trkpt lat="46.982586" lon="10.568548">
        <ele>964.907372</ele>
        <time>2024-08-23T10:28:27.000Z</time>
      </trkpt>
      <trkpt lat="46.982533" lon="10.568513">
        <ele>964.919713</ele>
        <time>2024-08-23T10:28:28.000Z</time>
      </trkpt>
      <trkpt lat="46.982479" lon="10.568484">
        <ele>964.931923</ele>
        <time>2024-08-23T10:28:29.000Z</time>
      </trkpt>
      <trkpt lat="46.982423" lon="10.568459">
        <ele>964.944351</ele>
        <time>2024-08-23T10:28:30.000Z</time>
      </trkpt>
      <trkpt lat="46.982340" lon="10.568428">
        <ele>964.962535</ele>
        <time>2024-08-23T10:28:31.000Z</time>
      </trkpt>
      <trkpt lat="46.982283" lon="10.568404">
        <ele>964.975126</ele>
        <time>2024-08-23T10:28:32.000Z</time>
      </trkpt>
      <trkpt lat="46.982229" lon="10.568372">
        <ele>964.987492</ele>
        <time>2024-08-23T10:28:33.000Z</time>
      </trkpt>
      <trkpt lat="46.982179" lon="10.568327">
        <ele>964.999949</ele>
        <time>2024-08-23T10:28:34.000Z</time>
      </trkpt>
      <trkpt lat="46.982135" lon="10.568275">
        <ele>965.011948</ele>
        <time>2024-08-23T10:28:35.000Z</time>
      </trkpt>
      <trkpt lat="46.982075" lon="10.568186">
        <ele>965.070686</ele>
        <time>2024-08-23T10:28:36.000Z</time>
      </trkpt>
      <trkpt lat="46.982036" lon="10.568124">
        <ele>965.161041</ele>
        <time>2024-08-23T10:28:37.000Z</time>
      </trkpt>
      <trkpt lat="46.981997" lon="10.568061">
        <ele>965.252186</ele>
        <time>2024-08-23T10:28:38.000Z</time>
      </trkpt>
      <trkpt lat="46.981959" lon="10.567995">
        <ele>965.344716</ele>
        <time>2024-08-23T10:28:39.000Z</time>
      </trkpt>
      <trkpt lat="46.981905" lon="10.567897">
        <ele>965.479685</ele>
        <time>2024-08-23T10:28:40.000Z</time>
      </trkpt>
      <trkpt lat="46.981868" lon="10.567835">
        <ele>965.567941</ele>
        <time>2024-08-23T10:28:41.000Z</time>
      </trkpt>
      <trkpt lat="46.981829" lon="10.567776">
        <ele>965.655959</ele>
        <time>2024-08-23T10:28:42.000Z</time>
      </trkpt>
      <trkpt lat="46.981791" lon="10.567717">
        <ele>965.742893</ele>
        <time>2024-08-23T10:28:43.000Z</time>
      </trkpt>
      <trkpt lat="46.981750" lon="10.567657">
        <ele>965.833879</ele>
        <time>2024-08-23T10:28:44.000Z</time>
      </trkpt>
      <trkpt lat="46.981690" lon="10.567567">
        <ele>965.968702</ele>
        <time>2024-08-23T10:28:45.000Z</time>
      </trkpt>
      <trkpt lat="46.981651" lon="10.567507">
        <ele>966.057493</ele>
        <time>2024-08-23T10:28:46.000Z</time>
      </trkpt>
      <trkpt lat="46.981613" lon="10.567448">
        <ele>966.144427</ele>
        <time>2024-08-23T10:28:47.000Z</time>
      </trkpt>
      <trkpt lat="46.981577" lon="10.567387">
        <ele>966.230844</ele>
        <time>2024-08-23T10:28:48.000Z</time>
      </trkpt>
      <trkpt lat="46.981527" lon="10.567288">
        <ele>966.362817</ele>
        <time>2024-08-23T10:28:49.000Z</time>
      </trkpt>
      <trkpt lat="46.981495" lon="10.567221">
        <ele>966.450445</ele>
        <time>2024-08-23T10:28:50.000Z</time>
      </trkpt>
      <trkpt lat="46.981468" lon="10.567152">
        <ele>966.535670</ele>
        <time>2024-08-23T10:28:51.000Z</time>
      </trkpt>
      <trkpt lat="46.981447" lon="10.567079">
        <ele>966.620553</ele>
        <time>2024-08-23T10:28:52.000Z</time>
      </trkpt>
      <trkpt lat="46.981431" lon="10.567001">
        <ele>966.707820</ele>
        <time>2024-08-23T10:28:53.000Z</time>
      </trkpt>
      <trkpt lat="46.981415" lon="10.566892">
        <ele>966.827278</ele>
        <time>2024-08-23T10:28:54.000Z</time>
      </trkpt>
      <trkpt lat="46.981408" lon="10.566827">
        <ele>966.897783</ele>
        <time>2024-08-23T10:28:55.000Z</time>
      </trkpt>
      <trkpt lat="46.981398" lon="10.566764">
        <ele>966.967086</ele>
        <time>2024-08-23T10:28:56.000Z</time>
      </trkpt>
      <trkpt lat="46.981390" lon="10.566702">
        <ele>967.034692</ele>
        <time>2024-08-23T10:28:57.000Z</time>
      </trkpt>
      <trkpt lat="46.981383" lon="10.566640">
        <ele>967.102024</ele>
        <time>2024-08-23T10:28:58.000Z</time>
      </trkpt>
      <trkpt lat="46.981373" lon="10.566544">
        <ele>967.206073</ele>
        <time>2024-08-23T10:28:59.000Z</time>
      </trkpt>
      <trkpt lat="46.981366" lon="10.566476">
        <ele>967.279755</ele>
        <time>2024-08-23T10:29:00.000Z</time>
      </trkpt>
      <trkpt lat="46.981358" lon="10.566407">
        <ele>967.354743</ele>
        <time>2024-08-23T10:29:01.000Z</time>
      </trkpt>
      <trkpt lat="46.981349" lon="10.566340">
        <ele>967.427907</ele>
        <time>2024-08-23T10:29:02.000Z</time>
      </trkpt>
      <trkpt lat="46.981336" lon="10.566249">
        <ele>967.527521</ele>
        <time>2024-08-23T10:29:03.000Z</time>
      </trkpt>
      <trkpt lat="46.981329" lon="10.566190">
        <ele>967.591684</ele>
        <time>2024-08-23T10:29:04.000Z</time>
      </trkpt>
      <trkpt lat="46.981325" lon="10.566131">
        <ele>967.655210</ele>
        <time>2024-08-23T10:29:05.000Z</time>
      </trkpt>
      <trkpt lat="46.981319" lon="10.566074">
        <ele>967.717004</ele>
        <time>2024-08-23T10:29:06.000Z</time>
      </trkpt>
      <trkpt lat="46.981307" lon="10.565987">
        <ele>967.812104</ele>
        <time>2024-08-23T10:29:07.000Z</time>
      </trkpt>
      <trkpt lat="46.981299" lon="10.565930">
        <ele>967.844995</ele>
        <time>2024-08-23T10:29:08.000Z</time>
      </trkpt>
      <trkpt lat="46.981291" lon="10.565872">
        <ele>967.836641</ele>
        <time>2024-08-23T10:29:09.000Z</time>
      </trkpt>
      <trkpt lat="46.981284" lon="10.565811">
        <ele>967.827908</ele>
        <time>2024-08-23T10:29:10.000Z</time>
      </trkpt>
      <trkpt lat="46.981278" lon="10.565750">
        <ele>967.819206</ele>
        <time>2024-08-23T10:29:11.000Z</time>
      </trkpt>
      <trkpt lat="46.981268" lon="10.565657">
        <ele>967.805914</ele>
        <time>2024-08-23T10:29:12.000Z</time>
      </trkpt>
      <trkpt lat="46.981260" lon="10.565594">
        <ele>967.796866</ele>
        <time>2024-08-23T10:29:13.000Z</time>
      </trkpt>
      <trkpt lat="46.981253" lon="10.565532">
        <ele>967.787993</ele>
        <time>2024-08-23T10:29:14.000Z</time>
      </trkpt>
      <trkpt lat="46.981248" lon="10.565469">
        <ele>967.779039</ele>
        <time>2024-08-23T10:29:15.000Z</time>
      </trkpt>
      <trkpt lat="46.981237" lon="10.565374">
        <ele>967.765434</ele>
        <time>2024-08-23T10:29:16.000Z</time>
      </trkpt>
      <trkpt lat="46.981229" lon="10.565310">
        <ele>967.756248</ele>
        <time>2024-08-23T10:29:17.000Z</time>
      </trkpt>
      <trkpt lat="46.981219" lon="10.565247">
        <ele>967.747115</ele>
        <time>2024-08-23T10:29:18.000Z</time>
      </trkpt>
      <trkpt lat="46.981207" lon="10.565181">
        <ele>967.737472</ele>
        <time>2024-08-23T10:29:19.000Z</time>
      </trkpt>
      <trkpt lat="46.981195" lon="10.565116">
        <ele>967.727964</ele>
        <time>2024-08-23T10:29:20.000Z</time>
      </trkpt>
      <trkpt lat="46.981173" lon="10.565023">
        <ele>967.714067</ele>
        <time>2024-08-23T10:29:21.000Z</time>
      </trkpt>
      <trkpt lat="46.981159" lon="10.564959">
        <ele>967.704578</ele>
        <time>2024-08-23T10:29:22.000Z</time>
      </trkpt>
      <trkpt lat="46.981144" lon="10.564895">
        <ele>967.695024</ele>
        <time>2024-08-23T10:29:23.000Z</time>
      </trkpt>
      <trkpt lat="46.981128" lon="10.564831">
        <ele>967.685400</ele>
        <time>2024-08-23T10:29:24.000Z</time>
      </trkpt>
      <trkpt lat="46.981099" lon="10.564736">
        <ele>967.670706</ele>
        <time>2024-08-23T10:29:25.000Z</time>
      </trkpt>
      <trkpt lat="46.981079" lon="10.564674">
        <ele>967.661023</ele>
        <time>2024-08-23T10:29:26.000Z</time>
      </trkpt>
      <trkpt lat="46.981058" lon="10.564612">
        <ele>967.651250</ele>
        <time>2024-08-23T10:29:27.000Z</time>
      </trkpt>
      <trkpt lat="46.981037" lon="10.564550">
        <ele>967.641477</ele>
        <time>2024-08-23T10:29:28.000Z</time>
      </trkpt>
      <trkpt lat="46.981017" lon="10.564489">
        <ele>967.631921</ele>
        <time>2024-08-23T10:29:29.000Z</time>
      </trkpt>
      <trkpt lat="46.980986" lon="10.564394">
        <ele>967.617053</ele>
        <time>2024-08-23T10:29:30.000Z</time>
      </trkpt>
      <trkpt lat="46.980965" lon="10.564331">
        <ele>967.607154</ele>
        <time>2024-08-23T10:29:31.000Z</time>
      </trkpt>
      <trkpt lat="46.980944" lon="10.564267">
        <ele>967.597127</ele>
        <time>2024-08-23T10:29:32.000Z</time>
      </trkpt>
      <trkpt lat="46.980925" lon="10.564203">
        <ele>967.587272</ele>
        <time>2024-08-23T10:29:33.000Z</time>
      </trkpt>
      <trkpt lat="46.980904" lon="10.564138">
        <ele>967.577118</ele>
        <time>2024-08-23T10:29:34.000Z</time>
      </trkpt>
      <trkpt lat="46.980874" lon="10.564040">
        <ele>967.561953</ele>
        <time>2024-08-23T10:29:35.000Z</time>
      </trkpt>
      <trkpt lat="46.980853" lon="10.563974">
        <ele>967.551671</ele>
        <time>2024-08-23T10:29:36.000Z</time>
      </trkpt>
      <trkpt lat="46.980832" lon="10.563908">
        <ele>967.541389</ele>
        <time>2024-08-23T10:29:37.000Z</time>
      </trkpt>
      <trkpt lat="46.980812" lon="10.563842">
        <ele>967.531192</ele>
        <time>2024-08-23T10:29:38.000Z</time>
      </trkpt>
      <trkpt lat="46.980778" lon="10.563744">
        <ele>967.515670</ele>
        <time>2024-08-23T10:29:39.000Z</time>
      </trkpt>
      <trkpt lat="46.980757" lon="10.563678">
        <ele>967.505388</ele>
        <time>2024-08-23T10:29:40.000Z</time>
      </trkpt>
      <trkpt lat="46.980731" lon="10.563615">
        <ele>967.494992</ele>
        <time>2024-08-23T10:29:41.000Z</time>
      </trkpt>
      <trkpt lat="46.980705" lon="10.563555">
        <ele>967.484956</ele>
        <time>2024-08-23T10:29:42.000Z</time>
      </trkpt>
      <trkpt lat="46.980681" lon="10.563496">
        <ele>967.479415</ele>
        <time>2024-08-23T10:29:43.000Z</time>
      </trkpt>
      <trkpt lat="46.980645" lon="10.563412">
        <ele>967.527116</ele>
        <time>2024-08-23T10:29:44.000Z</time>
      </trkpt>
      <trkpt lat="46.980618" lon="10.563359">
        <ele>967.558924</ele>
        <time>2024-08-23T10:29:45.000Z</time>
      </trkpt>
      <trkpt lat="46.980590" lon="10.563305">
        <ele>967.591539</ele>
        <time>2024-08-23T10:29:46.000Z</time>
      </trkpt>
      <trkpt lat="46.980560" lon="10.563250">
        <ele>967.625401</ele>
        <time>2024-08-23T10:29:47.000Z</time>
      </trkpt>
      <trkpt lat="46.980512" lon="10.563171">
        <ele>967.676271</ele>
        <time>2024-08-23T10:29:48.000Z</time>
      </trkpt>
      <trkpt lat="46.980482" lon="10.563127">
        <ele>967.706184</ele>
        <time>2024-08-23T10:29:49.000Z</time>
      </trkpt>
      <trkpt lat="46.980468" lon="10.563113">
        <ele>967.718129</ele>
        <time>2024-08-23T10:29:49.000Z</time>
      </trkpt>
      <trkpt lat="46.980452" lon="10.563092">
        <ele>967.733267</ele>
        <time>2024-08-23T10:29:50.000Z</time>
      </trkpt>
      <trkpt lat="46.980267" lon="10.562887">
        <ele>967.896732</ele>
        <time>2024-08-23T10:29:54.000Z</time>
      </trkpt>
      <trkpt lat="46.980206" lon="10.562825">
        <ele>967.949052</ele>
        <time>2024-08-23T10:29:55.000Z</time>
      </trkpt>
      <trkpt lat="46.980185" lon="10.562803">
        <ele>967.967246</ele>
        <time>2024-08-23T10:29:56.000Z</time>
      </trkpt>
      <trkpt lat="46.980146" lon="10.562758">
        <ele>968.002230</ele>
        <time>2024-08-23T10:29:57.000Z</time>
      </trkpt>
      <trkpt lat="46.980087" lon="10.562695">
        <ele>968.053680</ele>
        <time>2024-08-23T10:29:58.000Z</time>
      </trkpt>
      <trkpt lat="46.980048" lon="10.562653">
        <ele>968.087791</ele>
        <time>2024-08-23T10:29:59.000Z</time>
      </trkpt>
      <trkpt lat="46.980011" lon="10.562613">
        <ele>968.120196</ele>
        <time>2024-08-23T10:30:00.000Z</time>
      </trkpt>
      <trkpt lat="46.979955" lon="10.562554">
        <ele>968.168806</ele>
        <time>2024-08-23T10:30:01.000Z</time>
      </trkpt>
      <trkpt lat="46.979918" lon="10.562513">
        <ele>968.201499</ele>
        <time>2024-08-23T10:30:02.000Z</time>
      </trkpt>
      <trkpt lat="46.979883" lon="10.562472">
        <ele>968.233079</ele>
        <time>2024-08-23T10:30:03.000Z</time>
      </trkpt>
      <trkpt lat="46.979847" lon="10.562430">
        <ele>968.265510</ele>
        <time>2024-08-23T10:30:04.000Z</time>
      </trkpt>
      <trkpt lat="46.979811" lon="10.562383">
        <ele>968.299490</ele>
        <time>2024-08-23T10:30:05.000Z</time>
      </trkpt>
      <trkpt lat="46.979757" lon="10.562310">
        <ele>968.351268</ele>
        <time>2024-08-23T10:30:06.000Z</time>
      </trkpt>
      <trkpt lat="46.979723" lon="10.562264">
        <ele>968.383881</ele>
        <time>2024-08-23T10:30:07.000Z</time>
      </trkpt>
      <trkpt lat="46.979690" lon="10.562216">
        <ele>968.416650</ele>
        <time>2024-08-23T10:30:08.000Z</time>
      </trkpt>
      <trkpt lat="46.979657" lon="10.562167">
        <ele>968.449759</ele>
        <time>2024-08-23T10:30:09.000Z</time>
      </trkpt>
      <trkpt lat="46.979611" lon="10.562093">
        <ele>968.497900</ele>
        <time>2024-08-23T10:30:10.000Z</time>
      </trkpt>
      <trkpt lat="46.979582" lon="10.562042">
        <ele>968.529826</ele>
        <time>2024-08-23T10:30:11.000Z</time>
      </trkpt>
      <trkpt lat="46.979554" lon="10.561990">
        <ele>968.561681</ele>
        <time>2024-08-23T10:30:12.000Z</time>
      </trkpt>
      <trkpt lat="46.979525" lon="10.561940">
        <ele>968.593239</ele>
        <time>2024-08-23T10:30:13.000Z</time>
      </trkpt>
      <trkpt lat="46.979497" lon="10.561889">
        <ele>968.624719</ele>
        <time>2024-08-23T10:30:14.000Z</time>
      </trkpt>
      <trkpt lat="46.979458" lon="10.561816">
        <ele>968.669305</ele>
        <time>2024-08-23T10:30:15.000Z</time>
      </trkpt>
      <trkpt lat="46.979433" lon="10.561768">
        <ele>968.698345</ele>
        <time>2024-08-23T10:30:16.000Z</time>
      </trkpt>
      <trkpt lat="46.979409" lon="10.561721">
        <ele>968.726575</ele>
        <time>2024-08-23T10:30:17.000Z</time>
      </trkpt>
      <trkpt lat="46.979386" lon="10.561676">
        <ele>968.757287</ele>
        <time>2024-08-23T10:30:18.000Z</time>
      </trkpt>
      <trkpt lat="46.979363" lon="10.561629">
        <ele>968.795673</ele>
        <time>2024-08-23T10:30:19.000Z</time>
      </trkpt>
      <trkpt lat="46.979328" lon="10.561552">
        <ele>968.857078</ele>
        <time>2024-08-23T10:30:20.000Z</time>
      </trkpt>
      <trkpt lat="46.979303" lon="10.561503">
        <ele>968.897685</ele>
        <time>2024-08-23T10:30:21.000Z</time>
      </trkpt>
      <trkpt lat="46.979277" lon="10.561453">
        <ele>968.939407</ele>
        <time>2024-08-23T10:30:22.000Z</time>
      </trkpt>
      <trkpt lat="46.979253" lon="10.561401">
        <ele>968.981072</ele>
        <time>2024-08-23T10:30:23.000Z</time>
      </trkpt>
      <trkpt lat="46.979217" lon="10.561331">
        <ele>969.039249</ele>
        <time>2024-08-23T10:30:24.000Z</time>
      </trkpt>
      <trkpt lat="46.979193" lon="10.561288">
        <ele>969.076119</ele>
        <time>2024-08-23T10:30:25.000Z</time>
      </trkpt>
      <trkpt lat="46.979172" lon="10.561240">
        <ele>969.113962</ele>
        <time>2024-08-23T10:30:26.000Z</time>
      </trkpt>
      <trkpt lat="46.979150" lon="10.561191">
        <ele>969.152891</ele>
        <time>2024-08-23T10:30:27.000Z</time>
      </trkpt>
      <trkpt lat="46.979114" lon="10.561116">
        <ele>969.213750</ele>
        <time>2024-08-23T10:30:28.000Z</time>
      </trkpt>
      <trkpt lat="46.979088" lon="10.561066">
        <ele>969.255472</ele>
        <time>2024-08-23T10:30:29.000Z</time>
      </trkpt>
      <trkpt lat="46.979064" lon="10.561017">
        <ele>969.295504</ele>
        <time>2024-08-23T10:30:30.000Z</time>
      </trkpt>
      <trkpt lat="46.979041" lon="10.560967">
        <ele>969.335525</ele>
        <time>2024-08-23T10:30:31.000Z</time>
      </trkpt>
      <trkpt lat="46.979019" lon="10.560915">
        <ele>969.376132</ele>
        <time>2024-08-23T10:30:32.000Z</time>
      </trkpt>
      <trkpt lat="46.978985" lon="10.560837">
        <ele>969.437562</ele>
        <time>2024-08-23T10:30:33.000Z</time>
      </trkpt>
      <trkpt lat="46.978964" lon="10.560785">
        <ele>969.477665</ele>
        <time>2024-08-23T10:30:34.000Z</time>
      </trkpt>
      <trkpt lat="46.978942" lon="10.560731">
        <ele>969.519406</ele>
        <time>2024-08-23T10:30:35.000Z</time>
      </trkpt>
      <trkpt lat="46.978919" lon="10.560677">
        <ele>969.561654</ele>
        <time>2024-08-23T10:30:36.000Z</time>
      </trkpt>
      <trkpt lat="46.978894" lon="10.560625">
        <ele>969.603872</ele>
        <time>2024-08-23T10:30:37.000Z</time>
      </trkpt>
      <trkpt lat="46.978858" lon="10.560546">
        <ele>969.666921</ele>
        <time>2024-08-23T10:30:38.000Z</time>
      </trkpt>
      <trkpt lat="46.978832" lon="10.560494">
        <ele>969.709707</ele>
        <time>2024-08-23T10:30:39.000Z</time>
      </trkpt>
      <trkpt lat="46.978806" lon="10.560444">
        <ele>969.751430</ele>
        <time>2024-08-23T10:30:40.000Z</time>
      </trkpt>
      <trkpt lat="46.978779" lon="10.560392">
        <ele>969.794798</ele>
        <time>2024-08-23T10:30:41.000Z</time>
      </trkpt>
      <trkpt lat="46.978739" lon="10.560314">
        <ele>969.859556</ele>
        <time>2024-08-23T10:30:42.000Z</time>
      </trkpt>
      <trkpt lat="46.978713" lon="10.560262">
        <ele>969.902342</ele>
        <time>2024-08-23T10:30:43.000Z</time>
      </trkpt>
      <trkpt lat="46.978683" lon="10.560217">
        <ele>969.944098</ele>
        <time>2024-08-23T10:30:44.000Z</time>
      </trkpt>
      <trkpt lat="46.978651" lon="10.560179">
        <ele>969.984159</ele>
        <time>2024-08-23T10:30:45.000Z</time>
      </trkpt>
      <trkpt lat="46.978599" lon="10.560126">
        <ele>970.045770</ele>
        <time>2024-08-23T10:30:46.000Z</time>
      </trkpt>
      <trkpt lat="46.978566" lon="10.560094">
        <ele>970.084259</ele>
        <time>2024-08-23T10:30:47.000Z</time>
      </trkpt>
      <trkpt lat="46.978532" lon="10.560063">
        <ele>970.123209</ele>
        <time>2024-08-23T10:30:48.000Z</time>
      </trkpt>
      <trkpt lat="46.978502" lon="10.560040">
        <ele>970.156143</ele>
        <time>2024-08-23T10:30:49.000Z</time>
      </trkpt>
      <trkpt lat="46.978470" lon="10.560008">
        <ele>970.193825</ele>
        <time>2024-08-23T10:30:50.000Z</time>
      </trkpt>
      <trkpt lat="46.978420" lon="10.559944">
        <ele>970.258398</ele>
        <time>2024-08-23T10:30:51.000Z</time>
      </trkpt>
      <trkpt lat="46.978390" lon="10.559895">
        <ele>970.302092</ele>
        <time>2024-08-23T10:30:52.000Z</time>
      </trkpt>
      <trkpt lat="46.978362" lon="10.559843">
        <ele>970.346056</ele>
        <time>2024-08-23T10:30:53.000Z</time>
      </trkpt>
      <trkpt lat="46.978340" lon="10.559790">
        <ele>970.387229</ele>
        <time>2024-08-23T10:30:54.000Z</time>
      </trkpt>
      <trkpt lat="46.978311" lon="10.559711">
        <ele>970.446766</ele>
        <time>2024-08-23T10:30:55.000Z</time>
      </trkpt>
      <trkpt lat="46.978295" lon="10.559661">
        <ele>970.483419</ele>
        <time>2024-08-23T10:30:56.000Z</time>
      </trkpt>
      <trkpt lat="46.978279" lon="10.559608">
        <ele>970.525080</ele>
        <time>2024-08-23T10:30:57.000Z</time>
      </trkpt>
      <trkpt lat="46.978264" lon="10.559552">
        <ele>970.569513</ele>
        <time>2024-08-23T10:30:58.000Z</time>
      </trkpt>
      <trkpt lat="46.978248" lon="10.559493">
        <ele>970.616405</ele>
        <time>2024-08-23T10:30:59.000Z</time>
      </trkpt>
      <trkpt lat="46.978222" lon="10.559407">
        <ele>970.685879</ele>
        <time>2024-08-23T10:31:00.000Z</time>
      </trkpt>
      <trkpt lat="46.978200" lon="10.559352">
        <ele>970.732967</ele>
        <time>2024-08-23T10:31:01.000Z</time>
      </trkpt>
      <trkpt lat="46.978180" lon="10.559297">
        <ele>970.778997</ele>
        <time>2024-08-23T10:31:02.000Z</time>
      </trkpt>
      <trkpt lat="46.978163" lon="10.559242">
        <ele>970.823593</ele>
        <time>2024-08-23T10:31:03.000Z</time>
      </trkpt>
      <trkpt lat="46.978135" lon="10.559164">
        <ele>970.888689</ele>
        <time>2024-08-23T10:31:04.000Z</time>
      </trkpt>
      <trkpt lat="46.978116" lon="10.559114">
        <ele>970.930959</ele>
        <time>2024-08-23T10:31:05.000Z</time>
      </trkpt>
      <trkpt lat="46.978096" lon="10.559065">
        <ele>970.973131</ele>
        <time>2024-08-23T10:31:06.000Z</time>
      </trkpt>
      <trkpt lat="46.978074" lon="10.559014">
        <ele>971.017696</ele>
        <time>2024-08-23T10:31:07.000Z</time>
      </trkpt>
      <trkpt lat="46.978050" lon="10.558964">
        <ele>971.062848</ele>
        <time>2024-08-23T10:31:08.000Z</time>
      </trkpt>
      <trkpt lat="46.978013" lon="10.558890">
        <ele>971.130607</ele>
        <time>2024-08-23T10:31:09.000Z</time>
      </trkpt>
      <trkpt lat="46.977993" lon="10.558842">
        <ele>971.172147</ele>
        <time>2024-08-23T10:31:10.000Z</time>
      </trkpt>
      <trkpt lat="46.977970" lon="10.558790">
        <ele>971.217917</ele>
        <time>2024-08-23T10:31:11.000Z</time>
      </trkpt>
      <trkpt lat="46.977951" lon="10.558741">
        <ele>971.259544</ele>
        <time>2024-08-23T10:31:12.000Z</time>
      </trkpt>
      <trkpt lat="46.977918" lon="10.558673">
        <ele>971.321176</ele>
        <time>2024-08-23T10:31:13.000Z</time>
      </trkpt>
      <trkpt lat="46.977896" lon="10.558628">
        <ele>971.362064</ele>
        <time>2024-08-23T10:31:14.000Z</time>
      </trkpt>
      <trkpt lat="46.977874" lon="10.558578">
        <ele>971.406006</ele>
        <time>2024-08-23T10:31:15.000Z</time>
      </trkpt>
      <trkpt lat="46.977850" lon="10.558528">
        <ele>971.451158</ele>
        <time>2024-08-23T10:31:16.000Z</time>
      </trkpt>
      <trkpt lat="46.977813" lon="10.558461">
        <ele>971.514821</ele>
        <time>2024-08-23T10:31:17.000Z</time>
      </trkpt>
      <trkpt lat="46.977791" lon="10.558412">
        <ele>971.558144</ele>
        <time>2024-08-23T10:31:18.000Z</time>
      </trkpt>
      <trkpt lat="46.977768" lon="10.558366">
        <ele>971.600265</ele>
        <time>2024-08-23T10:31:19.000Z</time>
      </trkpt>
      <trkpt lat="46.977749" lon="10.558316">
        <ele>971.642536</ele>
        <time>2024-08-23T10:31:20.000Z</time>
      </trkpt>
      <trkpt lat="46.977729" lon="10.558272">
        <ele>971.681585</ele>
        <time>2024-08-23T10:31:21.000Z</time>
      </trkpt>
      <trkpt lat="46.977692" lon="10.558197">
        <ele>971.749942</ele>
        <time>2024-08-23T10:31:22.000Z</time>
      </trkpt>
      <trkpt lat="46.977669" lon="10.558149">
        <ele>971.793263</ele>
        <time>2024-08-23T10:31:23.000Z</time>
      </trkpt>
      <trkpt lat="46.977644" lon="10.558099">
        <ele>971.839047</ele>
        <time>2024-08-23T10:31:24.000Z</time>
      </trkpt>
      <trkpt lat="46.977617" lon="10.558048">
        <ele>971.886724</ele>
        <time>2024-08-23T10:31:25.000Z</time>
      </trkpt>
      <trkpt lat="46.977591" lon="10.557996">
        <ele>971.934339</ele>
        <time>2024-08-23T10:31:26.000Z</time>
      </trkpt>
      <trkpt lat="46.977552" lon="10.557922">
        <ele>972.003401</ele>
        <time>2024-08-23T10:31:27.000Z</time>
      </trkpt>
      <trkpt lat="46.977527" lon="10.557869">
        <ele>972.050990</ele>
        <time>2024-08-23T10:31:28.000Z</time>
      </trkpt>
      <trkpt lat="46.977502" lon="10.557819">
        <ele>972.096774</ele>
        <time>2024-08-23T10:31:29.000Z</time>
      </trkpt>
      <trkpt lat="46.977478" lon="10.557765">
        <ele>972.144373</ele>
        <time>2024-08-23T10:31:30.000Z</time>
      </trkpt>
      <trkpt lat="46.977443" lon="10.557681">
        <ele>972.217068</ele>
        <time>2024-08-23T10:31:31.000Z</time>
      </trkpt>
      <trkpt lat="46.977419" lon="10.557628">
        <ele>972.264050</ele>
        <time>2024-08-23T10:31:32.000Z</time>
      </trkpt>
      <trkpt lat="46.977392" lon="10.557576">
        <ele>972.312313</ele>
        <time>2024-08-23T10:31:33.000Z</time>
      </trkpt>
      <trkpt lat="46.977364" lon="10.557525">
        <ele>972.360662</ele>
        <time>2024-08-23T10:31:34.000Z</time>
      </trkpt>
      <trkpt lat="46.977339" lon="10.557478">
        <ele>972.404678</ele>
        <time>2024-08-23T10:31:35.000Z</time>
      </trkpt>
      <trkpt lat="46.977293" lon="10.557408">
        <ele>972.433458</ele>
        <time>2024-08-23T10:31:36.000Z</time>
      </trkpt>
      <trkpt lat="46.977262" lon="10.557367">
        <ele>972.424440</ele>
        <time>2024-08-23T10:31:37.000Z</time>
      </trkpt>
      <trkpt lat="46.977234" lon="10.557317">
        <ele>972.414908</ele>
        <time>2024-08-23T10:31:38.000Z</time>
      </trkpt>
      <trkpt lat="46.977205" lon="10.557261">
        <ele>972.404547</ele>
        <time>2024-08-23T10:31:39.000Z</time>
      </trkpt>
      <trkpt lat="46.977158" lon="10.557186">
        <ele>972.389541</ele>
        <time>2024-08-23T10:31:40.000Z</time>
      </trkpt>
      <trkpt lat="46.977128" lon="10.557132">
        <ele>972.379279</ele>
        <time>2024-08-23T10:31:41.000Z</time>
      </trkpt>
      <trkpt lat="46.977104" lon="10.557080">
        <ele>972.370027</ele>
        <time>2024-08-23T10:31:42.000Z</time>
      </trkpt>
      <trkpt lat="46.977077" lon="10.557028">
        <ele>972.360397</ele>
        <time>2024-08-23T10:31:43.000Z</time>
      </trkpt>
      <trkpt lat="46.977051" lon="10.556979">
        <ele>972.351250</ele>
        <time>2024-08-23T10:31:44.000Z</time>
      </trkpt>
      <trkpt lat="46.977016" lon="10.556901">
        <ele>972.337493</ele>
        <time>2024-08-23T10:31:45.000Z</time>
      </trkpt>
      <trkpt lat="46.976985" lon="10.556850">
        <ele>972.327427</ele>
        <time>2024-08-23T10:31:46.000Z</time>
      </trkpt>
      <trkpt lat="46.976956" lon="10.556809">
        <ele>972.318724</ele>
        <time>2024-08-23T10:31:47.000Z</time>
      </trkpt>
      <trkpt lat="46.976929" lon="10.556756">
        <ele>972.308977</ele>
        <time>2024-08-23T10:31:48.000Z</time>
      </trkpt>
      <trkpt lat="46.976875" lon="10.556690">
        <ele>972.293791</ele>
        <time>2024-08-23T10:31:49.000Z</time>
      </trkpt>
      <trkpt lat="46.976836" lon="10.556650">
        <ele>972.283510</ele>
        <time>2024-08-23T10:31:50.000Z</time>
      </trkpt>
      <trkpt lat="46.976800" lon="10.556610">
        <ele>972.273752</ele>
        <time>2024-08-23T10:31:51.000Z</time>
      </trkpt>
      <trkpt lat="46.976767" lon="10.556577">
        <ele>972.265124</ele>
        <time>2024-08-23T10:31:52.000Z</time>
      </trkpt>
      <trkpt lat="46.976732" lon="10.556541">
        <ele>972.255889</ele>
        <time>2024-08-23T10:31:53.000Z</time>
      </trkpt>
      <trkpt lat="46.976678" lon="10.556504">
        <ele>972.243014</ele>
        <time>2024-08-23T10:31:54.000Z</time>
      </trkpt>
      <trkpt lat="46.976644" lon="10.556470">
        <ele>972.234124</ele>
        <time>2024-08-23T10:31:55.000Z</time>
      </trkpt>
      <trkpt lat="46.976614" lon="10.556429">
        <ele>972.225264</ele>
        <time>2024-08-23T10:31:56.000Z</time>
      </trkpt>
      <trkpt lat="46.976579" lon="10.556373">
        <ele>972.214073</ele>
        <time>2024-08-23T10:31:57.000Z</time>
      </trkpt>
      <trkpt lat="46.976547" lon="10.556324">
        <ele>972.204077</ele>
        <time>2024-08-23T10:31:58.000Z</time>
      </trkpt>
      <trkpt lat="46.976487" lon="10.556253">
        <ele>972.187422</ele>
        <time>2024-08-23T10:31:59.000Z</time>
      </trkpt>
      <trkpt lat="46.976449" lon="10.556201">
        <ele>972.176193</ele>
        <time>2024-08-23T10:32:00.000Z</time>
      </trkpt>
      <trkpt lat="46.976410" lon="10.556152">
        <ele>972.165098</ele>
        <time>2024-08-23T10:32:01.000Z</time>
      </trkpt>
      <trkpt lat="46.976374" lon="10.556097">
        <ele>972.153866</ele>
        <time>2024-08-23T10:32:02.000Z</time>
      </trkpt>
      <trkpt lat="46.976316" lon="10.556021">
        <ele>972.137063</ele>
        <time>2024-08-23T10:32:03.000Z</time>
      </trkpt>
      <trkpt lat="46.976277" lon="10.555970">
        <ele>972.125774</ele>
        <time>2024-08-23T10:32:04.000Z</time>
      </trkpt>
      <trkpt lat="46.976240" lon="10.555920">
        <ele>972.114904</ele>
        <time>2024-08-23T10:32:05.000Z</time>
      </trkpt>
      <trkpt lat="46.976204" lon="10.555867">
        <ele>972.103883</ele>
        <time>2024-08-23T10:32:06.000Z</time>
      </trkpt>
      <trkpt lat="46.976153" lon="10.555792">
        <ele>972.088279</ele>
        <time>2024-08-23T10:32:07.000Z</time>
      </trkpt>
      <trkpt lat="46.976119" lon="10.555741">
        <ele>972.077771</ele>
        <time>2024-08-23T10:32:08.000Z</time>
      </trkpt>
      <trkpt lat="46.976085" lon="10.555694">
        <ele>972.067676</ele>
        <time>2024-08-23T10:32:09.000Z</time>
      </trkpt>
      <trkpt lat="46.976051" lon="10.555647">
        <ele>972.057582</ele>
        <time>2024-08-23T10:32:10.000Z</time>
      </trkpt>
      <trkpt lat="46.976013" lon="10.555606">
        <ele>972.049958</ele>
        <time>2024-08-23T10:32:11.000Z</time>
      </trkpt>
      <trkpt lat="46.975953" lon="10.555546">
        <ele>972.042766</ele>
        <time>2024-08-23T10:32:12.000Z</time>
      </trkpt>
      <trkpt lat="46.975914" lon="10.555503">
        <ele>972.037934</ele>
        <time>2024-08-23T10:32:13.000Z</time>
      </trkpt>
      <trkpt lat="46.975874" lon="10.555459">
        <ele>972.032982</ele>
        <time>2024-08-23T10:32:14.000Z</time>
      </trkpt>
      <trkpt lat="46.975835" lon="10.555414">
        <ele>972.028067</ele>
        <time>2024-08-23T10:32:15.000Z</time>
      </trkpt>
      <trkpt lat="46.975781" lon="10.555337">
        <ele>972.020607</ele>
        <time>2024-08-23T10:32:16.000Z</time>
      </trkpt>
      <trkpt lat="46.975748" lon="10.555281">
        <ele>972.015608</ele>
        <time>2024-08-23T10:32:17.000Z</time>
      </trkpt>
      <trkpt lat="46.975717" lon="10.555220">
        <ele>972.010470</ele>
        <time>2024-08-23T10:32:18.000Z</time>
      </trkpt>
      <trkpt lat="46.975689" lon="10.555159">
        <ele>972.005503</ele>
        <time>2024-08-23T10:32:19.000Z</time>
      </trkpt>
      <trkpt lat="46.975662" lon="10.555099">
        <ele>972.000647</ele>
        <time>2024-08-23T10:32:20.000Z</time>
      </trkpt>
      <trkpt lat="46.975622" lon="10.555011">
        <ele>971.993504</ele>
        <time>2024-08-23T10:32:21.000Z</time>
      </trkpt>
      <trkpt lat="46.975594" lon="10.554953">
        <ele>971.988704</ele>
        <time>2024-08-23T10:32:22.000Z</time>
      </trkpt>
      <trkpt lat="46.975565" lon="10.554896">
        <ele>971.983900</ele>
        <time>2024-08-23T10:32:23.000Z</time>
      </trkpt>
      <trkpt lat="46.975533" lon="10.554844">
        <ele>971.979170</ele>
        <time>2024-08-23T10:32:24.000Z</time>
      </trkpt>
      <trkpt lat="46.975480" lon="10.554772">
        <ele>971.972014</ele>
        <time>2024-08-23T10:32:25.000Z</time>
      </trkpt>
      <trkpt lat="46.975447" lon="10.554722">
        <ele>971.967315</ele>
        <time>2024-08-23T10:32:26.000Z</time>
      </trkpt>
      <trkpt lat="46.975410" lon="10.554675">
        <ele>971.962467</ele>
        <time>2024-08-23T10:32:27.000Z</time>
      </trkpt>
      <trkpt lat="46.975376" lon="10.554630">
        <ele>971.957931</ele>
        <time>2024-08-23T10:32:28.000Z</time>
      </trkpt>
      <trkpt lat="46.975341" lon="10.554585">
        <ele>971.953321</ele>
        <time>2024-08-23T10:32:29.000Z</time>
      </trkpt>
      <trkpt lat="46.975291" lon="10.554514">
        <ele>971.946427</ele>
        <time>2024-08-23T10:32:30.000Z</time>
      </trkpt>
      <trkpt lat="46.975259" lon="10.554465">
        <ele>971.941845</ele>
        <time>2024-08-23T10:32:31.000Z</time>
      </trkpt>
      <trkpt lat="46.975226" lon="10.554414">
        <ele>971.937097</ele>
        <time>2024-08-23T10:32:32.000Z</time>
      </trkpt>
      <trkpt lat="46.975193" lon="10.554366">
        <ele>971.932493</ele>
        <time>2024-08-23T10:32:33.000Z</time>
      </trkpt>
      <trkpt lat="46.975159" lon="10.554319">
        <ele>971.927865</ele>
        <time>2024-08-23T10:32:34.000Z</time>
      </trkpt>
      <trkpt lat="46.975108" lon="10.554253">
        <ele>971.921129</ele>
        <time>2024-08-23T10:32:35.000Z</time>
      </trkpt>
      <trkpt lat="46.975074" lon="10.554208">
        <ele>971.916593</ele>
        <time>2024-08-23T10:32:36.000Z</time>
      </trkpt>
      <trkpt lat="46.975043" lon="10.554164">
        <ele>971.912320</ele>
        <time>2024-08-23T10:32:37.000Z</time>
      </trkpt>
      <trkpt lat="46.975013" lon="10.554120">
        <ele>971.908118</ele>
        <time>2024-08-23T10:32:38.000Z</time>
      </trkpt>
      <trkpt lat="46.974967" lon="10.554061">
        <ele>971.902065</ele>
        <time>2024-08-23T10:32:39.000Z</time>
      </trkpt>
      <trkpt lat="46.974939" lon="10.554022">
        <ele>971.898240</ele>
        <time>2024-08-23T10:32:40.000Z</time>
      </trkpt>
      <trkpt lat="46.974910" lon="10.553976">
        <ele>971.894009</ele>
        <time>2024-08-23T10:32:41.000Z</time>
      </trkpt>
      <trkpt lat="46.974880" lon="10.553928">
        <ele>971.889612</ele>
        <time>2024-08-23T10:32:42.000Z</time>
      </trkpt>
      <trkpt lat="46.974835" lon="10.553853">
        <ele>971.882864</ele>
        <time>2024-08-23T10:32:43.000Z</time>
      </trkpt>
      <trkpt lat="46.974805" lon="10.553804">
        <ele>971.878417</ele>
        <time>2024-08-23T10:32:44.000Z</time>
      </trkpt>
      <trkpt lat="46.974773" lon="10.553754">
        <ele>971.874856</ele>
        <time>2024-08-23T10:32:45.000Z</time>
      </trkpt>
      <trkpt lat="46.974740" lon="10.553708">
        <ele>971.889233</ele>
        <time>2024-08-23T10:32:46.000Z</time>
      </trkpt>
      <trkpt lat="46.974706" lon="10.553663">
        <ele>971.903696</ele>
        <time>2024-08-23T10:32:47.000Z</time>
      </trkpt>
      <trkpt lat="46.974660" lon="10.553602">
        <ele>971.923281</ele>
        <time>2024-08-23T10:32:48.000Z</time>
      </trkpt>
      <trkpt lat="46.974630" lon="10.553561">
        <ele>971.936231</ele>
        <time>2024-08-23T10:32:49.000Z</time>
      </trkpt>
      <trkpt lat="46.974597" lon="10.553518">
        <ele>971.950171</ele>
        <time>2024-08-23T10:32:50.000Z</time>
      </trkpt>
      <trkpt lat="46.974568" lon="10.553472">
        <ele>971.963662</ele>
        <time>2024-08-23T10:32:51.000Z</time>
      </trkpt>
      <trkpt lat="46.974524" lon="10.553401">
        <ele>971.984322</ele>
        <time>2024-08-23T10:32:52.000Z</time>
      </trkpt>
      <trkpt lat="46.974494" lon="10.553356">
        <ele>971.997874</ele>
        <time>2024-08-23T10:32:53.000Z</time>
      </trkpt>
      <trkpt lat="46.974463" lon="10.553314">
        <ele>972.011202</ele>
        <time>2024-08-23T10:32:54.000Z</time>
      </trkpt>
      <trkpt lat="46.974432" lon="10.553273">
        <ele>972.024385</ele>
        <time>2024-08-23T10:32:55.000Z</time>
      </trkpt>
      <trkpt lat="46.974402" lon="10.553233">
        <ele>972.037189</ele>
        <time>2024-08-23T10:32:56.000Z</time>
      </trkpt>
      <trkpt lat="46.974355" lon="10.553173">
        <ele>972.056866</ele>
        <time>2024-08-23T10:32:57.000Z</time>
      </trkpt>
      <trkpt lat="46.974326" lon="10.553134">
        <ele>972.069292</ele>
        <time>2024-08-23T10:32:58.000Z</time>
      </trkpt>
      <trkpt lat="46.974297" lon="10.553093">
        <ele>972.082013</ele>
        <time>2024-08-23T10:32:59.000Z</time>
      </trkpt>
      <trkpt lat="46.974269" lon="10.553052">
        <ele>972.094508</ele>
        <time>2024-08-23T10:33:00.000Z</time>
      </trkpt>
      <trkpt lat="46.974225" lon="10.552993">
        <ele>972.113336</ele>
        <time>2024-08-23T10:33:01.000Z</time>
      </trkpt>
      <trkpt lat="46.974195" lon="10.552952">
        <ele>972.126286</ele>
        <time>2024-08-23T10:33:02.000Z</time>
      </trkpt>
      <trkpt lat="46.974166" lon="10.552909">
        <ele>972.139309</ele>
        <time>2024-08-23T10:33:03.000Z</time>
      </trkpt>
      <trkpt lat="46.974138" lon="10.552867">
        <ele>972.151958</ele>
        <time>2024-08-23T10:33:04.000Z</time>
      </trkpt>
      <trkpt lat="46.974108" lon="10.552825">
        <ele>972.165056</ele>
        <time>2024-08-23T10:33:05.000Z</time>
      </trkpt>
      <trkpt lat="46.974064" lon="10.552760">
        <ele>972.184779</ele>
        <time>2024-08-23T10:33:06.000Z</time>
      </trkpt>
      <trkpt lat="46.974035" lon="10.552716">
        <ele>972.197957</ele>
        <time>2024-08-23T10:33:07.000Z</time>
      </trkpt>
      <trkpt lat="46.974006" lon="10.552671">
        <ele>972.211290</ele>
        <time>2024-08-23T10:33:08.000Z</time>
      </trkpt>
      <trkpt lat="46.973977" lon="10.552628">
        <ele>972.224314</ele>
        <time>2024-08-23T10:33:09.000Z</time>
      </trkpt>
      <trkpt lat="46.973931" lon="10.552567">
        <ele>972.243898</ele>
        <time>2024-08-23T10:33:10.000Z</time>
      </trkpt>
      <trkpt lat="46.973901" lon="10.552527">
        <ele>972.256702</ele>
        <time>2024-08-23T10:33:11.000Z</time>
      </trkpt>
      <trkpt lat="46.973874" lon="10.552490">
        <ele>972.268372</ele>
        <time>2024-08-23T10:33:12.000Z</time>
      </trkpt>
      <trkpt lat="46.973845" lon="10.552452">
        <ele>972.280653</ele>
        <time>2024-08-23T10:33:13.000Z</time>
      </trkpt>
      <trkpt lat="46.973815" lon="10.552410">
        <ele>972.293751</ele>
        <time>2024-08-23T10:33:14.000Z</time>
      </trkpt>
      <trkpt lat="46.973768" lon="10.552342">
        <ele>972.314601</ele>
        <time>2024-08-23T10:33:15.000Z</time>
      </trkpt>
      <trkpt lat="46.973737" lon="10.552295">
        <ele>972.328682</ele>
        <time>2024-08-23T10:33:16.000Z</time>
      </trkpt>
      <trkpt lat="46.973706" lon="10.552250">
        <ele>972.342457</ele>
        <time>2024-08-23T10:33:17.000Z</time>
      </trkpt>
      <trkpt lat="46.973672" lon="10.552209">
        <ele>972.356357</ele>
        <time>2024-08-23T10:33:18.000Z</time>
      </trkpt>
      <trkpt lat="46.973624" lon="10.552147">
        <ele>972.376556</ele>
        <time>2024-08-23T10:33:19.000Z</time>
      </trkpt>
      <trkpt lat="46.973594" lon="10.552105">
        <ele>972.389654</ele>
        <time>2024-08-23T10:33:20.000Z</time>
      </trkpt>
      <trkpt lat="46.973564" lon="10.552061">
        <ele>972.403053</ele>
        <time>2024-08-23T10:33:21.000Z</time>
      </trkpt>
      <trkpt lat="46.973534" lon="10.552016">
        <ele>972.416605</ele>
        <time>2024-08-23T10:33:22.000Z</time>
      </trkpt>
      <trkpt lat="46.973505" lon="10.551970">
        <ele>972.430096</ele>
        <time>2024-08-23T10:33:23.000Z</time>
      </trkpt>
      <trkpt lat="46.973460" lon="10.551904">
        <ele>972.467609</ele>
        <time>2024-08-23T10:33:24.000Z</time>
      </trkpt>
      <trkpt lat="46.973430" lon="10.551859">
        <ele>972.509512</ele>
        <time>2024-08-23T10:33:25.000Z</time>
      </trkpt>
      <trkpt lat="46.973402" lon="10.551814">
        <ele>972.550075</ele>
        <time>2024-08-23T10:33:26.000Z</time>
      </trkpt>
      <trkpt lat="46.973373" lon="10.551772">
        <ele>972.589872</ele>
        <time>2024-08-23T10:33:27.000Z</time>
      </trkpt>
      <trkpt lat="46.973345" lon="10.551728">
        <ele>972.629945</ele>
        <time>2024-08-23T10:33:28.000Z</time>
      </trkpt>
      <trkpt lat="46.973303" lon="10.551663">
        <ele>972.689569</ele>
        <time>2024-08-23T10:33:29.000Z</time>
      </trkpt>
      <trkpt lat="46.973275" lon="10.551614">
        <ele>972.732138</ele>
        <time>2024-08-23T10:33:30.000Z</time>
      </trkpt>
      <trkpt lat="46.973247" lon="10.551567">
        <ele>972.773695</ele>
        <time>2024-08-23T10:33:31.000Z</time>
      </trkpt>
      <trkpt lat="46.973218" lon="10.551521">
        <ele>972.815408</ele>
        <time>2024-08-23T10:33:32.000Z</time>
      </trkpt>
      <trkpt lat="46.973174" lon="10.551449">
        <ele>972.879785</ele>
        <time>2024-08-23T10:33:33.000Z</time>
      </trkpt>
      <trkpt lat="46.973146" lon="10.551403">
        <ele>972.920842</ele>
        <time>2024-08-23T10:33:34.000Z</time>
      </trkpt>
      <trkpt lat="46.973120" lon="10.551357">
        <ele>972.960626</ele>
        <time>2024-08-23T10:33:35.000Z</time>
      </trkpt>
      <trkpt lat="46.973093" lon="10.551312">
        <ele>973.000538</ele>
        <time>2024-08-23T10:33:36.000Z</time>
      </trkpt>
      <trkpt lat="46.973051" lon="10.551253">
        <ele>973.057327</ele>
        <time>2024-08-23T10:33:37.000Z</time>
      </trkpt>
      <trkpt lat="46.973024" lon="10.551212">
        <ele>973.095278</ele>
        <time>2024-08-23T10:33:38.000Z</time>
      </trkpt>
      <trkpt lat="46.972998" lon="10.551169">
        <ele>973.133545</ele>
        <time>2024-08-23T10:33:39.000Z</time>
      </trkpt>
      <trkpt lat="46.972971" lon="10.551123">
        <ele>973.173959</ele>
        <time>2024-08-23T10:33:40.000Z</time>
      </trkpt>
      <trkpt lat="46.972944" lon="10.551077">
        <ele>973.214373</ele>
        <time>2024-08-23T10:33:41.000Z</time>
      </trkpt>
      <trkpt lat="46.972907" lon="10.551005">
        <ele>973.274407</ele>
        <time>2024-08-23T10:33:42.000Z</time>
      </trkpt>
      <trkpt lat="46.972881" lon="10.550959">
        <ele>973.314192</ele>
        <time>2024-08-23T10:33:43.000Z</time>
      </trkpt>
      <trkpt lat="46.972856" lon="10.550916">
        <ele>973.351818</ele>
        <time>2024-08-23T10:33:44.000Z</time>
      </trkpt>
      <trkpt lat="46.972831" lon="10.550872">
        <ele>973.389955</ele>
        <time>2024-08-23T10:33:45.000Z</time>
      </trkpt>
      <trkpt lat="46.972805" lon="10.550823">
        <ele>973.431297</ele>
        <time>2024-08-23T10:33:46.000Z</time>
      </trkpt>
      <trkpt lat="46.972765" lon="10.550752">
        <ele>973.492623</ele>
        <time>2024-08-23T10:33:47.000Z</time>
      </trkpt>
      <trkpt lat="46.972740" lon="10.550703">
        <ele>973.533374</ele>
        <time>2024-08-23T10:33:48.000Z</time>
      </trkpt>
      <trkpt lat="46.972714" lon="10.550653">
        <ele>973.575245</ele>
        <time>2024-08-23T10:33:49.000Z</time>
      </trkpt>
      <trkpt lat="46.972688" lon="10.550600">
        <ele>973.618721</ele>
        <time>2024-08-23T10:33:50.000Z</time>
      </trkpt>
      <trkpt lat="46.972649" lon="10.550524">
        <ele>973.682059</ele>
        <time>2024-08-23T10:33:51.000Z</time>
      </trkpt>
      <trkpt lat="46.972623" lon="10.550476">
        <ele>973.722878</ele>
        <time>2024-08-23T10:33:52.000Z</time>
      </trkpt>
      <trkpt lat="46.972600" lon="10.550428">
        <ele>973.761944</ele>
        <time>2024-08-23T10:33:53.000Z</time>
      </trkpt>
      <trkpt lat="46.972579" lon="10.550380">
        <ele>973.799922</ele>
        <time>2024-08-23T10:33:54.000Z</time>
      </trkpt>
      <trkpt lat="46.972557" lon="10.550331">
        <ele>973.838990</ele>
        <time>2024-08-23T10:33:55.000Z</time>
      </trkpt>
      <trkpt lat="46.972521" lon="10.550255">
        <ele>973.900611</ele>
        <time>2024-08-23T10:33:56.000Z</time>
      </trkpt>
      <trkpt lat="46.972495" lon="10.550205">
        <ele>973.942482</ele>
        <time>2024-08-23T10:33:57.000Z</time>
      </trkpt>
      <trkpt lat="46.972469" lon="10.550152">
        <ele>973.985959</ele>
        <time>2024-08-23T10:33:58.000Z</time>
      </trkpt>
      <trkpt lat="46.972444" lon="10.550099">
        <ele>974.028874</ele>
        <time>2024-08-23T10:33:59.000Z</time>
      </trkpt>
      <trkpt lat="46.972409" lon="10.550024">
        <ele>974.089393</ele>
        <time>2024-08-23T10:34:00.000Z</time>
      </trkpt>
      <trkpt lat="46.972386" lon="10.549978">
        <ele>974.127377</ele>
        <time>2024-08-23T10:34:01.000Z</time>
      </trkpt>
      <trkpt lat="46.972365" lon="10.549931">
        <ele>974.164796</ele>
        <time>2024-08-23T10:34:02.000Z</time>
      </trkpt>
      <trkpt lat="46.972344" lon="10.549885">
        <ele>974.199574</ele>
        <time>2024-08-23T10:34:03.000Z</time>
      </trkpt>
      <trkpt lat="46.972323" lon="10.549836">
        <ele>974.218513</ele>
        <time>2024-08-23T10:34:04.000Z</time>
      </trkpt>
      <trkpt lat="46.972290" lon="10.549764">
        <ele>974.246902</ele>
        <time>2024-08-23T10:34:05.000Z</time>
      </trkpt>
      <trkpt lat="46.972270" lon="10.549714">
        <ele>974.265871</ele>
        <time>2024-08-23T10:34:06.000Z</time>
      </trkpt>
      <trkpt lat="46.972251" lon="10.549664">
        <ele>974.284603</ele>
        <time>2024-08-23T10:34:07.000Z</time>
      </trkpt>
      <trkpt lat="46.972229" lon="10.549615">
        <ele>974.303801</ele>
        <time>2024-08-23T10:34:08.000Z</time>
      </trkpt>
      <trkpt lat="46.972199" lon="10.549542">
        <ele>974.331693</ele>
        <time>2024-08-23T10:34:09.000Z</time>
      </trkpt>
      <trkpt lat="46.972177" lon="10.549492">
        <ele>974.351165</ele>
        <time>2024-08-23T10:34:10.000Z</time>
      </trkpt>
      <trkpt lat="46.972154" lon="10.549443">
        <ele>974.370631</ele>
        <time>2024-08-23T10:34:11.000Z</time>
      </trkpt>
      <trkpt lat="46.972132" lon="10.549394">
        <ele>974.389830</ele>
        <time>2024-08-23T10:34:12.000Z</time>
      </trkpt>
      <trkpt lat="46.972102" lon="10.549315">
        <ele>974.419421</ele>
        <time>2024-08-23T10:34:13.000Z</time>
      </trkpt>
      <trkpt lat="46.972083" lon="10.549262">
        <ele>974.439016</ele>
        <time>2024-08-23T10:34:14.000Z</time>
      </trkpt>
      <trkpt lat="46.972063" lon="10.549208">
        <ele>974.459126</ele>
        <time>2024-08-23T10:34:15.000Z</time>
      </trkpt>
      <trkpt lat="46.972042" lon="10.549156">
        <ele>974.478904</ele>
        <time>2024-08-23T10:34:16.000Z</time>
      </trkpt>
      <trkpt lat="46.972022" lon="10.549104">
        <ele>974.498441</ele>
        <time>2024-08-23T10:34:17.000Z</time>
      </trkpt>
      <trkpt lat="46.971993" lon="10.549026">
        <ele>974.527514</ele>
        <time>2024-08-23T10:34:18.000Z</time>
      </trkpt>
      <trkpt lat="46.971975" lon="10.548975">
        <ele>974.546308</ele>
        <time>2024-08-23T10:34:19.000Z</time>
      </trkpt>
      <trkpt lat="46.971955" lon="10.548925">
        <ele>974.565277</ele>
        <time>2024-08-23T10:34:20.000Z</time>
      </trkpt>
      <trkpt lat="46.971935" lon="10.548874">
        <ele>974.584530</ele>
        <time>2024-08-23T10:34:21.000Z</time>
      </trkpt>
      <trkpt lat="46.971916" lon="10.548825">
        <ele>974.602977</ele>
        <time>2024-08-23T10:34:22.000Z</time>
      </trkpt>
      <trkpt lat="46.971888" lon="10.548750">
        <ele>974.630958</ele>
        <time>2024-08-23T10:34:23.000Z</time>
      </trkpt>
      <trkpt lat="46.971870" lon="10.548701">
        <ele>974.649173</ele>
        <time>2024-08-23T10:34:24.000Z</time>
      </trkpt>
      <trkpt lat="46.971855" lon="10.548655">
        <ele>974.665860</ele>
        <time>2024-08-23T10:34:25.000Z</time>
      </trkpt>
      <trkpt lat="46.971839" lon="10.548609">
        <ele>974.682759</ele>
        <time>2024-08-23T10:34:26.000Z</time>
      </trkpt>
      <trkpt lat="46.971814" lon="10.548535">
        <ele>974.709785</ele>
        <time>2024-08-23T10:34:27.000Z</time>
      </trkpt>
      <trkpt lat="46.971797" lon="10.548485">
        <ele>974.728070</ele>
        <time>2024-08-23T10:34:28.000Z</time>
      </trkpt>
      <trkpt lat="46.971780" lon="10.548434">
        <ele>974.746648</ele>
        <time>2024-08-23T10:34:29.000Z</time>
      </trkpt>
      <trkpt lat="46.971763" lon="10.548383">
        <ele>974.765225</ele>
        <time>2024-08-23T10:34:30.000Z</time>
      </trkpt>
      <trkpt lat="46.971738" lon="10.548314">
        <ele>974.790796</ele>
        <time>2024-08-23T10:34:31.000Z</time>
      </trkpt>
      <trkpt lat="46.971724" lon="10.548267">
        <ele>974.807581</ele>
        <time>2024-08-23T10:34:32.000Z</time>
      </trkpt>
      <trkpt lat="46.971710" lon="10.548218">
        <ele>974.824968</ele>
        <time>2024-08-23T10:34:33.000Z</time>
      </trkpt>
      <trkpt lat="46.971694" lon="10.548166">
        <ele>974.843638</ele>
        <time>2024-08-23T10:34:34.000Z</time>
      </trkpt>
      <trkpt lat="46.971677" lon="10.548114">
        <ele>974.862511</ele>
        <time>2024-08-23T10:34:35.000Z</time>
      </trkpt>
      <trkpt lat="46.971652" lon="10.548030">
        <ele>974.892506</ele>
        <time>2024-08-23T10:34:36.000Z</time>
      </trkpt>
      <trkpt lat="46.971635" lon="10.547975">
        <ele>974.912268</ele>
        <time>2024-08-23T10:34:37.000Z</time>
      </trkpt>
      <trkpt lat="46.971618" lon="10.547918">
        <ele>974.932629</ele>
        <time>2024-08-23T10:34:38.000Z</time>
      </trkpt>
      <trkpt lat="46.971604" lon="10.547862">
        <ele>974.952150</ele>
        <time>2024-08-23T10:34:39.000Z</time>
      </trkpt>
      <trkpt lat="46.971588" lon="10.547808">
        <ele>974.971418</ele>
        <time>2024-08-23T10:34:40.000Z</time>
      </trkpt>
      <trkpt lat="46.971561" lon="10.547726">
        <ele>975.001219</ele>
        <time>2024-08-23T10:34:41.000Z</time>
      </trkpt>
      <trkpt lat="46.971547" lon="10.547676">
        <ele>975.018908</ele>
        <time>2024-08-23T10:34:42.000Z</time>
      </trkpt>
      <trkpt lat="46.971530" lon="10.547629">
        <ele>975.036319</ele>
        <time>2024-08-23T10:34:43.000Z</time>
      </trkpt>
      <trkpt lat="46.971515" lon="10.547581">
        <ele>975.053599</ele>
        <time>2024-08-23T10:34:44.000Z</time>
      </trkpt>
      <trkpt lat="46.971490" lon="10.547507">
        <ele>975.078763</ele>
        <time>2024-08-23T10:34:45.000Z</time>
      </trkpt>
      <trkpt lat="46.971474" lon="10.547453">
        <ele>975.096265</ele>
        <time>2024-08-23T10:34:46.000Z</time>
      </trkpt>
      <trkpt lat="46.971458" lon="10.547400">
        <ele>975.113495</ele>
        <time>2024-08-23T10:34:47.000Z</time>
      </trkpt>
      <trkpt lat="46.971443" lon="10.547348">
        <ele>975.130278</ele>
        <time>2024-08-23T10:34:48.000Z</time>
      </trkpt>
      <trkpt lat="46.971418" lon="10.547269">
        <ele>975.156167</ele>
        <time>2024-08-23T10:34:49.000Z</time>
      </trkpt>
      <trkpt lat="46.971402" lon="10.547217">
        <ele>975.173126</ele>
        <time>2024-08-23T10:34:50.000Z</time>
      </trkpt>
      <trkpt lat="46.971385" lon="10.547164">
        <ele>975.190536</ele>
        <time>2024-08-23T10:34:51.000Z</time>
      </trkpt>
      <trkpt lat="46.971369" lon="10.547114">
        <ele>975.206954</ele>
        <time>2024-08-23T10:34:52.000Z</time>
      </trkpt>
      <trkpt lat="46.971353" lon="10.547062">
        <ele>975.223912</ele>
        <time>2024-08-23T10:34:53.000Z</time>
      </trkpt>
      <trkpt lat="46.971331" lon="10.546980">
        <ele>975.250107</ele>
        <time>2024-08-23T10:34:54.000Z</time>
      </trkpt>
      <trkpt lat="46.971317" lon="10.546926">
        <ele>975.267280</ele>
        <time>2024-08-23T10:34:55.000Z</time>
      </trkpt>
      <trkpt lat="46.971303" lon="10.546874">
        <ele>975.283899</ele>
        <time>2024-08-23T10:34:56.000Z</time>
      </trkpt>
      <trkpt lat="46.971287" lon="10.546824">
        <ele>975.300318</ele>
        <time>2024-08-23T10:34:57.000Z</time>
      </trkpt>
      <trkpt lat="46.971262" lon="10.546754">
        <ele>975.323806</ele>
        <time>2024-08-23T10:34:58.000Z</time>
      </trkpt>
      <trkpt lat="46.971247" lon="10.546708">
        <ele>975.338963</ele>
        <time>2024-08-23T10:34:59.000Z</time>
      </trkpt>
      <trkpt lat="46.971235" lon="10.546667">
        <ele>975.352226</ele>
        <time>2024-08-23T10:35:00.000Z</time>
      </trkpt>
      <trkpt lat="46.971222" lon="10.546623">
        <ele>975.366480</ele>
        <time>2024-08-23T10:35:01.000Z</time>
      </trkpt>
      <trkpt lat="46.971209" lon="10.546574">
        <ele>975.382110</ele>
        <time>2024-08-23T10:35:02.000Z</time>
      </trkpt>
      <trkpt lat="46.971189" lon="10.546499">
        <ele>975.406049</ele>
        <time>2024-08-23T10:35:03.000Z</time>
      </trkpt>
      <trkpt lat="46.971175" lon="10.546449">
        <ele>975.422117</ele>
        <time>2024-08-23T10:35:04.000Z</time>
      </trkpt>
      <trkpt lat="46.971160" lon="10.546398">
        <ele>975.438627</ele>
        <time>2024-08-23T10:35:05.000Z</time>
      </trkpt>
      <trkpt lat="46.971147" lon="10.546348">
        <ele>975.454534</ele>
        <time>2024-08-23T10:35:06.000Z</time>
      </trkpt>
      <trkpt lat="46.971124" lon="10.546275">
        <ele>975.478439</ele>
        <time>2024-08-23T10:35:07.000Z</time>
      </trkpt>
      <trkpt lat="46.971110" lon="10.546224">
        <ele>975.494782</ele>
        <time>2024-08-23T10:35:08.000Z</time>
      </trkpt>
      <trkpt lat="46.971094" lon="10.546173">
        <ele>975.511469</ele>
        <time>2024-08-23T10:35:09.000Z</time>
      </trkpt>
      <trkpt lat="46.971072" lon="10.546124">
        <ele>975.528907</ele>
        <time>2024-08-23T10:35:10.000Z</time>
      </trkpt>
      <trkpt lat="46.971048" lon="10.546080">
        <ele>975.545654</ele>
        <time>2024-08-23T10:35:11.000Z</time>
      </trkpt>
      <trkpt lat="46.971015" lon="10.546014">
        <ele>975.569979</ele>
        <time>2024-08-23T10:35:12.000Z</time>
      </trkpt>
      <trkpt lat="46.970989" lon="10.545975">
        <ele>975.586189</ele>
        <time>2024-08-23T10:35:13.000Z</time>
      </trkpt>
      <trkpt lat="46.970966" lon="10.545935">
        <ele>975.601739</ele>
        <time>2024-08-23T10:35:14.000Z</time>
      </trkpt>
      <trkpt lat="46.970940" lon="10.545897">
        <ele>975.617738</ele>
        <time>2024-08-23T10:35:15.000Z</time>
      </trkpt>
      <trkpt lat="46.970898" lon="10.545846">
        <ele>975.641502</ele>
        <time>2024-08-23T10:35:16.000Z</time>
      </trkpt>
      <trkpt lat="46.970873" lon="10.545814">
        <ele>975.655963</ele>
        <time>2024-08-23T10:35:17.000Z</time>
      </trkpt>
      <trkpt lat="46.970845" lon="10.545782">
        <ele>975.671433</ele>
        <time>2024-08-23T10:35:18.000Z</time>
      </trkpt>
      <trkpt lat="46.970815" lon="10.545747">
        <ele>975.688140</ele>
        <time>2024-08-23T10:35:19.000Z</time>
      </trkpt>
      <trkpt lat="46.970785" lon="10.545714">
        <ele>975.704483</ele>
        <time>2024-08-23T10:35:20.000Z</time>
      </trkpt>
      <trkpt lat="46.970743" lon="10.545667">
        <ele>975.727506</ele>
        <time>2024-08-23T10:35:21.000Z</time>
      </trkpt>
      <trkpt lat="46.970713" lon="10.545634">
        <ele>975.743849</ele>
        <time>2024-08-23T10:35:22.000Z</time>
      </trkpt>
      <trkpt lat="46.970681" lon="10.545599">
        <ele>975.761246</ele>
        <time>2024-08-23T10:35:23.000Z</time>
      </trkpt>
      <trkpt lat="46.970650" lon="10.545571">
        <ele>975.777111</ele>
        <time>2024-08-23T10:35:24.000Z</time>
      </trkpt>
      <trkpt lat="46.970606" lon="10.545534">
        <ele>975.799213</ele>
        <time>2024-08-23T10:35:25.000Z</time>
      </trkpt>
      <trkpt lat="46.970578" lon="10.545507">
        <ele>975.813816</ele>
        <time>2024-08-23T10:35:26.000Z</time>
      </trkpt>
      <trkpt lat="46.970551" lon="10.545477">
        <ele>975.828578</ele>
        <time>2024-08-23T10:35:27.000Z</time>
      </trkpt>
      <trkpt lat="46.970521" lon="10.545447">
        <ele>975.848943</ele>
        <time>2024-08-23T10:35:28.000Z</time>
      </trkpt>
      <trkpt lat="46.970492" lon="10.545416">
        <ele>976.020237</ele>
        <time>2024-08-23T10:35:29.000Z</time>
      </trkpt>
      <trkpt lat="46.970453" lon="10.545368">
        <ele>976.263274</ele>
        <time>2024-08-23T10:35:30.000Z</time>
      </trkpt>
      <trkpt lat="46.970427" lon="10.545335">
        <ele>976.427412</ele>
        <time>2024-08-23T10:35:31.000Z</time>
      </trkpt>
      <trkpt lat="46.970400" lon="10.545303">
        <ele>976.593120</ele>
        <time>2024-08-23T10:35:32.000Z</time>
      </trkpt>
      <trkpt lat="46.970373" lon="10.545270">
        <ele>976.760894</ele>
        <time>2024-08-23T10:35:33.000Z</time>
      </trkpt>
      <trkpt lat="46.970332" lon="10.545224">
        <ele>977.007303</ele>
        <time>2024-08-23T10:35:34.000Z</time>
      </trkpt>
      <trkpt lat="46.970306" lon="10.545193">
        <ele>977.167253</ele>
        <time>2024-08-23T10:35:35.000Z</time>
      </trkpt>
      <trkpt lat="46.970277" lon="10.545165">
        <ele>977.332978</ele>
        <time>2024-08-23T10:35:36.000Z</time>
      </trkpt>
      <trkpt lat="46.970248" lon="10.545137">
        <ele>977.498703</ele>
        <time>2024-08-23T10:35:37.000Z</time>
      </trkpt>
      <trkpt lat="46.970223" lon="10.545109">
        <ele>977.648855</ele>
        <time>2024-08-23T10:35:38.000Z</time>
      </trkpt>
      <trkpt lat="46.970182" lon="10.545065">
        <ele>977.891361</ele>
        <time>2024-08-23T10:35:39.000Z</time>
      </trkpt>
      <trkpt lat="46.970155" lon="10.545034">
        <ele>978.055040</ele>
        <time>2024-08-23T10:35:40.000Z</time>
      </trkpt>
      <trkpt lat="46.970126" lon="10.545008">
        <ele>978.217273</ele>
        <time>2024-08-23T10:35:41.000Z</time>
      </trkpt>
      <trkpt lat="46.970109" lon="10.544991">
        <ele>978.315486</ele>
        <time>2024-08-23T10:35:41.000Z</time>
      </trkpt>
      <trkpt lat="46.970095" lon="10.544976">
        <ele>978.398245</ele>
        <time>2024-08-23T10:35:42.000Z</time>
      </trkpt>
      <trkpt lat="46.969931" lon="10.544836">
        <ele>979.303958</ele>
        <time>2024-08-23T10:35:46.000Z</time>
      </trkpt>
      <trkpt lat="46.969844" lon="10.544760">
        <ele>979.787290</ele>
        <time>2024-08-23T10:35:49.000Z</time>
      </trkpt>
      <trkpt lat="46.969771" lon="10.544710">
        <ele>980.171819</ele>
        <time>2024-08-23T10:35:51.000Z</time>
      </trkpt>
      <trkpt lat="46.969708" lon="10.544670">
        <ele>980.499461</ele>
        <time>2024-08-23T10:35:53.000Z</time>
      </trkpt>
      <trkpt lat="46.969644" lon="10.544631">
        <ele>980.830223</ele>
        <time>2024-08-23T10:35:54.000Z</time>
      </trkpt>
      <trkpt lat="46.969593" lon="10.544599">
        <ele>981.094966</ele>
        <time>2024-08-23T10:35:56.000Z</time>
      </trkpt>
      <trkpt lat="46.969558" lon="10.544578">
        <ele>981.275444</ele>
        <time>2024-08-23T10:35:57.000Z</time>
      </trkpt>
      <trkpt lat="46.969525" lon="10.544559">
        <ele>981.444639</ele>
        <time>2024-08-23T10:35:58.000Z</time>
      </trkpt>
      <trkpt lat="46.969492" lon="10.544541">
        <ele>981.612671</ele>
        <time>2024-08-23T10:35:59.000Z</time>
      </trkpt>
      <trkpt lat="46.969461" lon="10.544521">
        <ele>981.774305</ele>
        <time>2024-08-23T10:36:00.000Z</time>
      </trkpt>
      <trkpt lat="46.969414" lon="10.544491">
        <ele>982.018942</ele>
        <time>2024-08-23T10:36:01.000Z</time>
      </trkpt>
      <trkpt lat="46.969381" lon="10.544470">
        <ele>982.190626</ele>
        <time>2024-08-23T10:36:02.000Z</time>
      </trkpt>
      <trkpt lat="46.969350" lon="10.544443">
        <ele>982.362714</ele>
        <time>2024-08-23T10:36:03.000Z</time>
      </trkpt>
      <trkpt lat="46.969315" lon="10.544410">
        <ele>982.561319</ele>
        <time>2024-08-23T10:36:04.000Z</time>
      </trkpt>
      <trkpt lat="46.969281" lon="10.544375">
        <ele>982.759598</ele>
        <time>2024-08-23T10:36:05.000Z</time>
      </trkpt>
      <trkpt lat="46.969235" lon="10.544329">
        <ele>983.025350</ele>
        <time>2024-08-23T10:36:06.000Z</time>
      </trkpt>
      <trkpt lat="46.969209" lon="10.544306">
        <ele>983.170276</ele>
        <time>2024-08-23T10:36:07.000Z</time>
      </trkpt>
      <trkpt lat="46.969183" lon="10.544288">
        <ele>983.307497</ele>
        <time>2024-08-23T10:36:08.000Z</time>
      </trkpt>
      <trkpt lat="46.969159" lon="10.544276">
        <ele>983.428509</ele>
        <time>2024-08-23T10:36:09.000Z</time>
      </trkpt>
      <trkpt lat="46.969124" lon="10.544242">
        <ele>983.628894</ele>
        <time>2024-08-23T10:36:10.000Z</time>
      </trkpt>
      <trkpt lat="46.969100" lon="10.544218">
        <ele>983.767547</ele>
        <time>2024-08-23T10:36:11.000Z</time>
      </trkpt>
      <trkpt lat="46.969065" lon="10.544201">
        <ele>983.943504</ele>
        <time>2024-08-23T10:36:12.000Z</time>
      </trkpt>
      <trkpt lat="46.969031" lon="10.544180">
        <ele>984.119575</ele>
        <time>2024-08-23T10:36:13.000Z</time>
      </trkpt>
      <trkpt lat="46.968995" lon="10.544167">
        <ele>984.296507</ele>
        <time>2024-08-23T10:36:14.000Z</time>
      </trkpt>
      <trkpt lat="46.968939" lon="10.544155">
        <ele>984.545064</ele>
        <time>2024-08-23T10:36:15.000Z</time>
      </trkpt>
      <trkpt lat="46.968903" lon="10.544158">
        <ele>984.690586</ele>
        <time>2024-08-23T10:36:16.000Z</time>
      </trkpt>
      <trkpt lat="46.968867" lon="10.544160">
        <ele>984.835977</ele>
        <time>2024-08-23T10:36:17.000Z</time>
      </trkpt>
      <trkpt lat="46.968832" lon="10.544162">
        <ele>984.977336</ele>
        <time>2024-08-23T10:36:18.000Z</time>
      </trkpt>
      <trkpt lat="46.968779" lon="10.544168">
        <ele>985.191869</ele>
        <time>2024-08-23T10:36:19.000Z</time>
      </trkpt>
      <trkpt lat="46.968744" lon="10.544171">
        <ele>985.333361</ele>
        <time>2024-08-23T10:36:20.000Z</time>
      </trkpt>
      <trkpt lat="46.968711" lon="10.544175">
        <ele>985.466996</ele>
        <time>2024-08-23T10:36:21.000Z</time>
      </trkpt>
      <trkpt lat="46.968678" lon="10.544171">
        <ele>985.600631</ele>
        <time>2024-08-23T10:36:22.000Z</time>
      </trkpt>
      <trkpt lat="46.968645" lon="10.544163">
        <ele>985.735621</ele>
        <time>2024-08-23T10:36:23.000Z</time>
      </trkpt>
      <trkpt lat="46.968594" lon="10.544138">
        <ele>985.952655</ele>
        <time>2024-08-23T10:36:24.000Z</time>
      </trkpt>
      <trkpt lat="46.968559" lon="10.544132">
        <ele>986.094870</ele>
        <time>2024-08-23T10:36:25.000Z</time>
      </trkpt>
      <trkpt lat="46.968529" lon="10.544125">
        <ele>986.217468</ele>
        <time>2024-08-23T10:36:26.000Z</time>
      </trkpt>
      <trkpt lat="46.968498" lon="10.544117">
        <ele>986.344501</ele>
        <time>2024-08-23T10:36:27.000Z</time>
      </trkpt>
      <trkpt lat="46.968464" lon="10.544111">
        <ele>986.482708</ele>
        <time>2024-08-23T10:36:28.000Z</time>
      </trkpt>
      <trkpt lat="46.968413" lon="10.544097">
        <ele>986.692112</ele>
        <time>2024-08-23T10:36:29.000Z</time>
      </trkpt>
      <trkpt lat="46.968381" lon="10.544089">
        <ele>986.823122</ele>
        <time>2024-08-23T10:36:30.000Z</time>
      </trkpt>
      <trkpt lat="46.968351" lon="10.544081">
        <ele>986.946183</ele>
        <time>2024-08-23T10:36:31.000Z</time>
      </trkpt>
      <trkpt lat="46.968325" lon="10.544074">
        <ele>987.052869</ele>
        <time>2024-08-23T10:36:32.000Z</time>
      </trkpt>
      <trkpt lat="46.968282" lon="10.544070">
        <ele>987.226756</ele>
        <time>2024-08-23T10:36:33.000Z</time>
      </trkpt>
      <trkpt lat="46.968252" lon="10.544067">
        <ele>987.348110</ele>
        <time>2024-08-23T10:36:34.000Z</time>
      </trkpt>
      <trkpt lat="46.968224" lon="10.544058">
        <ele>987.463798</ele>
        <time>2024-08-23T10:36:35.000Z</time>
      </trkpt>
      <trkpt lat="46.968196" lon="10.544046">
        <ele>987.581533</ele>
        <time>2024-08-23T10:36:36.000Z</time>
      </trkpt>
      <trkpt lat="46.968159" lon="10.544022">
        <ele>987.744830</ele>
        <time>2024-08-23T10:36:37.000Z</time>
      </trkpt>
      <trkpt lat="46.968138" lon="10.544010">
        <ele>987.835797</ele>
        <time>2024-08-23T10:36:38.000Z</time>
      </trkpt>
      <trkpt lat="46.968122" lon="10.543988">
        <ele>987.924343</ele>
        <time>2024-08-23T10:36:39.000Z</time>
      </trkpt>
      <trkpt lat="46.968108" lon="10.543965">
        <ele>988.009223</ele>
        <time>2024-08-23T10:36:40.000Z</time>
      </trkpt>
      <trkpt lat="46.968097" lon="10.543938">
        <ele>988.095826</ele>
        <time>2024-08-23T10:36:41.000Z</time>
      </trkpt>
      <trkpt lat="46.968082" lon="10.543901">
        <ele>988.214350</ele>
        <time>2024-08-23T10:36:42.000Z</time>
      </trkpt>
      <trkpt lat="46.968071" lon="10.543875">
        <ele>988.298600</ele>
        <time>2024-08-23T10:36:43.000Z</time>
      </trkpt>
      <trkpt lat="46.968060" lon="10.543848">
        <ele>988.385202</ele>
        <time>2024-08-23T10:36:44.000Z</time>
      </trkpt>
      <trkpt lat="46.968053" lon="10.543811">
        <ele>988.490944</ele>
        <time>2024-08-23T10:36:45.000Z</time>
      </trkpt>
      <trkpt lat="46.968047" lon="10.543776">
        <ele>988.590330</ele>
        <time>2024-08-23T10:36:46.000Z</time>
      </trkpt>
      <trkpt lat="46.968041" lon="10.543733">
        <ele>988.711204</ele>
        <time>2024-08-23T10:36:47.000Z</time>
      </trkpt>
      <trkpt lat="46.968037" lon="10.543707">
        <ele>988.784606</ele>
        <time>2024-08-23T10:36:48.000Z</time>
      </trkpt>
      <trkpt lat="46.968034" lon="10.543681">
        <ele>988.857227</ele>
        <time>2024-08-23T10:36:49.000Z</time>
      </trkpt>
      <trkpt lat="46.968034" lon="10.543648">
        <ele>988.948109</ele>
        <time>2024-08-23T10:36:50.000Z</time>
      </trkpt>
      <trkpt lat="46.968046" lon="10.543583">
        <ele>989.133556</ele>
        <time>2024-08-23T10:36:51.000Z</time>
      </trkpt>
      <trkpt lat="46.968064" lon="10.543542">
        <ele>989.267821</ele>
        <time>2024-08-23T10:36:52.000Z</time>
      </trkpt>
      <trkpt lat="46.968081" lon="10.543501">
        <ele>989.399945</ele>
        <time>2024-08-23T10:36:53.000Z</time>
      </trkpt>
      <trkpt lat="46.968092" lon="10.543454">
        <ele>989.536785</ele>
        <time>2024-08-23T10:36:54.000Z</time>
      </trkpt>
      <trkpt lat="46.968084" lon="10.543382">
        <ele>989.737686</ele>
        <time>2024-08-23T10:36:55.000Z</time>
      </trkpt>
      <trkpt lat="46.968061" lon="10.543347">
        <ele>989.871504</ele>
        <time>2024-08-23T10:36:56.000Z</time>
      </trkpt>
      <trkpt lat="46.968031" lon="10.543323">
        <ele>990.009444</ele>
        <time>2024-08-23T10:36:57.000Z</time>
      </trkpt>
      <trkpt lat="46.968000" lon="10.543301">
        <ele>990.148451</ele>
        <time>2024-08-23T10:36:58.000Z</time>
      </trkpt>
      <trkpt lat="46.967972" lon="10.543275">
        <ele>990.282229</ele>
        <time>2024-08-23T10:36:59.000Z</time>
      </trkpt>
      <trkpt lat="46.967945" lon="10.543225">
        <ele>990.457829</ele>
        <time>2024-08-23T10:37:00.000Z</time>
      </trkpt>
      <trkpt lat="46.967929" lon="10.543187">
        <ele>990.580799</ele>
        <time>2024-08-23T10:37:01.000Z</time>
      </trkpt>
      <trkpt lat="46.967911" lon="10.543152">
        <ele>990.701499</ele>
        <time>2024-08-23T10:37:02.000Z</time>
      </trkpt>
      <trkpt lat="46.967897" lon="10.543128">
        <ele>990.788453</ele>
        <time>2024-08-23T10:37:03.000Z</time>
      </trkpt>
      <trkpt lat="46.967890" lon="10.543117">
        <ele>990.829876</ele>
        <time>2024-08-23T10:37:04.000Z</time>
      </trkpt>
      <trkpt lat="46.967888" lon="10.543116">
        <ele>990.838404</ele>
        <time>2024-08-23T10:37:05.000Z</time>
      </trkpt>
      <trkpt lat="46.967887" lon="10.543116">
        <ele>990.842440</ele>
        <time>2024-08-23T10:37:06.000Z</time>
      </trkpt>
      <trkpt lat="46.967852" lon="10.543067">
        <ele>991.037793</ele>
        <time>2024-08-23T10:37:18.000Z</time>
      </trkpt>
      <trkpt lat="46.967834" lon="10.543064">
        <ele>991.110905</ele>
        <time>2024-08-23T10:37:19.000Z</time>
      </trkpt>
      <trkpt lat="46.967818" lon="10.543071">
        <ele>991.178294</ele>
        <time>2024-08-23T10:37:20.000Z</time>
      </trkpt>
      <trkpt lat="46.967802" lon="10.543080">
        <ele>991.247460</ele>
        <time>2024-08-23T10:37:21.000Z</time>
      </trkpt>
      <trkpt lat="46.967788" lon="10.543090">
        <ele>991.310315</ele>
        <time>2024-08-23T10:37:22.000Z</time>
      </trkpt>
      <trkpt lat="46.967768" lon="10.543104">
        <ele>991.399766</ele>
        <time>2024-08-23T10:37:23.000Z</time>
      </trkpt>
      <trkpt lat="46.967755" lon="10.543111">
        <ele>991.455661</ele>
        <time>2024-08-23T10:37:24.000Z</time>
      </trkpt>
      <trkpt lat="46.967742" lon="10.543112">
        <ele>991.508198</ele>
        <time>2024-08-23T10:37:25.000Z</time>
      </trkpt>
      <trkpt lat="46.967732" lon="10.543109">
        <ele>991.549393</ele>
        <time>2024-08-23T10:37:26.000Z</time>
      </trkpt>
      <trkpt lat="46.967730" lon="10.543107">
        <ele>991.559165</ele>
        <time>2024-08-23T10:37:27.000Z</time>
      </trkpt>
      <trkpt lat="46.967729" lon="10.543107">
        <ele>991.563200</ele>
        <time>2024-08-23T10:37:28.000Z</time>
      </trkpt>
      <trkpt lat="46.967712" lon="10.543034">
        <ele>991.686001</ele>
        <time>2024-08-23T10:37:46.000Z</time>
      </trkpt>
      <trkpt lat="46.967701" lon="10.543017">
        <ele>991.686001</ele>
        <time>2024-08-23T10:37:47.000Z</time>
      </trkpt>
      <trkpt lat="46.967684" lon="10.543000">
        <ele>991.686001</ele>
        <time>2024-08-23T10:37:48.000Z</time>
      </trkpt>
      <trkpt lat="46.967660" lon="10.542982">
        <ele>991.686001</ele>
        <time>2024-08-23T10:37:49.000Z</time>
      </trkpt>
      <trkpt lat="46.967627" lon="10.542957">
        <ele>991.686001</ele>
        <time>2024-08-23T10:37:50.000Z</time>
      </trkpt>
      <trkpt lat="46.967607" lon="10.542937">
        <ele>991.686001</ele>
        <time>2024-08-23T10:37:51.000Z</time>
      </trkpt>
      <trkpt lat="46.967589" lon="10.542922">
        <ele>991.686001</ele>
        <time>2024-08-23T10:37:52.000Z</time>
      </trkpt>
      <trkpt lat="46.967574" lon="10.542905">
        <ele>991.686001</ele>
        <time>2024-08-23T10:37:53.000Z</time>
      </trkpt>
      <trkpt lat="46.967550" lon="10.542875">
        <ele>991.686001</ele>
        <time>2024-08-23T10:37:54.000Z</time>
      </trkpt>
      <trkpt lat="46.967537" lon="10.542860">
        <ele>991.686001</ele>
        <time>2024-08-23T10:37:55.000Z</time>
      </trkpt>
      <trkpt lat="46.967529" lon="10.542846">
        <ele>991.686001</ele>
        <time>2024-08-23T10:37:56.000Z</time>
      </trkpt>
      <trkpt lat="46.967521" lon="10.542834">
        <ele>991.686001</ele>
        <time>2024-08-23T10:37:57.000Z</time>
      </trkpt>
      <trkpt lat="46.967511" lon="10.542826">
        <ele>991.686001</ele>
        <time>2024-08-23T10:37:58.000Z</time>
      </trkpt>
      <trkpt lat="46.967490" lon="10.542813">
        <ele>991.686001</ele>
        <time>2024-08-23T10:37:59.000Z</time>
      </trkpt>
      <trkpt lat="46.967483" lon="10.542805">
        <ele>991.686001</ele>
        <time>2024-08-23T10:38:00.000Z</time>
      </trkpt>
      <trkpt lat="46.967479" lon="10.542800">
        <ele>991.686001</ele>
        <time>2024-08-23T10:38:01.000Z</time>
      </trkpt>
      <trkpt lat="46.967476" lon="10.542800">
        <ele>991.686001</ele>
        <time>2024-08-23T10:38:02.000Z</time>
      </trkpt>
      <trkpt lat="46.967455" lon="10.542770">
        <ele>991.686001</ele>
        <time>2024-08-23T10:38:05.000Z</time>
      </trkpt>
      <trkpt lat="46.967424" lon="10.542712">
        <ele>991.686001</ele>
        <time>2024-08-23T10:38:06.000Z</time>
      </trkpt>
      <trkpt lat="46.967412" lon="10.542684">
        <ele>991.686001</ele>
        <time>2024-08-23T10:38:07.000Z</time>
      </trkpt>
      <trkpt lat="46.967394" lon="10.542619">
        <ele>991.686001</ele>
        <time>2024-08-23T10:38:09.000Z</time>
      </trkpt>
      <trkpt lat="46.967375" lon="10.542566">
        <ele>991.686001</ele>
        <time>2024-08-23T10:38:11.000Z</time>
      </trkpt>
      <trkpt lat="46.967356" lon="10.542489">
        <ele>991.686001</ele>
        <time>2024-08-23T10:38:12.000Z</time>
      </trkpt>
      <trkpt lat="46.967339" lon="10.542454">
        <ele>991.686001</ele>
        <time>2024-08-23T10:38:13.000Z</time>
      </trkpt>
      <trkpt lat="46.967321" lon="10.542419">
        <ele>991.686001</ele>
        <time>2024-08-23T10:38:14.000Z</time>
      </trkpt>
      <trkpt lat="46.967312" lon="10.542401">
        <ele>991.686001</ele>
        <time>2024-08-23T10:38:15.000Z</time>
      </trkpt>
      <trkpt lat="46.967290" lon="10.542347">
        <ele>991.686001</ele>
        <time>2024-08-23T10:38:16.000Z</time>
      </trkpt>
      <trkpt lat="46.967282" lon="10.542309">
        <ele>991.686001</ele>
        <time>2024-08-23T10:38:17.000Z</time>
      </trkpt>
      <trkpt lat="46.967273" lon="10.542272">
        <ele>991.686001</ele>
        <time>2024-08-23T10:38:18.000Z</time>
      </trkpt>
      <trkpt lat="46.967265" lon="10.542235">
        <ele>991.686001</ele>
        <time>2024-08-23T10:38:19.000Z</time>
      </trkpt>
      <trkpt lat="46.967256" lon="10.542202">
        <ele>991.686001</ele>
        <time>2024-08-23T10:38:20.000Z</time>
      </trkpt>
      <trkpt lat="46.967241" lon="10.542156">
        <ele>991.686001</ele>
        <time>2024-08-23T10:38:21.000Z</time>
      </trkpt>
      <trkpt lat="46.967227" lon="10.542125">
        <ele>991.686001</ele>
        <time>2024-08-23T10:38:22.000Z</time>
      </trkpt>
      <trkpt lat="46.967211" lon="10.542100">
        <ele>991.686001</ele>
        <time>2024-08-23T10:38:23.000Z</time>
      </trkpt>
      <trkpt lat="46.967195" lon="10.542074">
        <ele>991.686001</ele>
        <time>2024-08-23T10:38:24.000Z</time>
      </trkpt>
      <trkpt lat="46.967176" lon="10.542053">
        <ele>991.686001</ele>
        <time>2024-08-23T10:38:25.000Z</time>
      </trkpt>
      <trkpt lat="46.967149" lon="10.542008">
        <ele>991.686001</ele>
        <time>2024-08-23T10:38:26.000Z</time>
      </trkpt>
      <trkpt lat="46.967127" lon="10.541972">
        <ele>991.686001</ele>
        <time>2024-08-23T10:38:27.000Z</time>
      </trkpt>
      <trkpt lat="46.967106" lon="10.541936">
        <ele>991.686001</ele>
        <time>2024-08-23T10:38:28.000Z</time>
      </trkpt>
      <trkpt lat="46.967089" lon="10.541900">
        <ele>991.686001</ele>
        <time>2024-08-23T10:38:29.000Z</time>
      </trkpt>
      <trkpt lat="46.967069" lon="10.541866">
        <ele>991.686001</ele>
        <time>2024-08-23T10:38:30.000Z</time>
      </trkpt>
      <trkpt lat="46.967055" lon="10.541857">
        <ele>991.686001</ele>
        <time>2024-08-23T10:38:31.000Z</time>
      </trkpt>
      <trkpt lat="46.967035" lon="10.541859">
        <ele>991.686001</ele>
        <time>2024-08-23T10:38:32.000Z</time>
      </trkpt>
      <trkpt lat="46.967013" lon="10.541876">
        <ele>991.686001</ele>
        <time>2024-08-23T10:38:33.000Z</time>
      </trkpt>
      <trkpt lat="46.966992" lon="10.541898">
        <ele>991.686001</ele>
        <time>2024-08-23T10:38:34.000Z</time>
      </trkpt>
      <trkpt lat="46.966962" lon="10.541943">
        <ele>991.686001</ele>
        <time>2024-08-23T10:38:35.000Z</time>
      </trkpt>
      <trkpt lat="46.966946" lon="10.541974">
        <ele>991.686001</ele>
        <time>2024-08-23T10:38:36.000Z</time>
      </trkpt>
      <trkpt lat="46.966931" lon="10.542009">
        <ele>991.686001</ele>
        <time>2024-08-23T10:38:37.000Z</time>
      </trkpt>
      <trkpt lat="46.966915" lon="10.542038">
        <ele>991.686001</ele>
        <time>2024-08-23T10:38:38.000Z</time>
      </trkpt>
      <trkpt lat="46.966890" lon="10.542058">
        <ele>991.686001</ele>
        <time>2024-08-23T10:38:39.000Z</time>
      </trkpt>
      <trkpt lat="46.966874" lon="10.542061">
        <ele>991.686001</ele>
        <time>2024-08-23T10:38:40.000Z</time>
      </trkpt>
      <trkpt lat="46.966862" lon="10.542055">
        <ele>991.686001</ele>
        <time>2024-08-23T10:38:41.000Z</time>
      </trkpt>
      <trkpt lat="46.966856" lon="10.542047">
        <ele>991.686001</ele>
        <time>2024-08-23T10:38:42.000Z</time>
      </trkpt>
      <trkpt lat="46.966852" lon="10.542053">
        <ele>991.686001</ele>
        <time>2024-08-23T10:38:43.000Z</time>
      </trkpt>
      <trkpt lat="46.966850" lon="10.542052">
        <ele>991.686001</ele>
        <time>2024-08-23T10:38:43.000Z</time>
      </trkpt>
      <trkpt lat="46.966804" lon="10.542046">
        <ele>991.686001</ele>
        <time>2024-08-23T10:38:46.000Z</time>
      </trkpt>
      <trkpt lat="46.966801" lon="10.542026">
        <ele>991.686001</ele>
        <time>2024-08-23T10:38:48.000Z</time>
      </trkpt>
      <trkpt lat="46.966803" lon="10.542023">
        <ele>991.686001</ele>
        <time>2024-08-23T10:38:49.000Z</time>
      </trkpt>
      <trkpt lat="46.966810" lon="10.542026">
        <ele>991.686001</ele>
        <time>2024-08-23T10:38:50.000Z</time>
      </trkpt>
      <trkpt lat="46.966784" lon="10.542065">
        <ele>991.686001</ele>
        <time>2024-08-23T10:39:13.000Z</time>
      </trkpt>
      <trkpt lat="46.966781" lon="10.542062">
        <ele>991.686001</ele>
        <time>2024-08-23T10:39:14.000Z</time>
      </trkpt>
      <trkpt lat="46.966779" lon="10.542060">
        <ele>991.686001</ele>
        <time>2024-08-23T10:39:15.000Z</time>
      </trkpt>
      <trkpt lat="46.966779" lon="10.542060">
        <ele>991.686001</ele>
        <time>2024-08-23T10:39:16.000Z</time>
      </trkpt>
    </trkseg>
  </trk>
</gpx>